<?xml version='1.0' encoding='UTF-8'?><gpx version="1.1" creator="JPX - https://github.com/jenetics/jpx" xmlns="http://www.topografix.com/GPX/1/1"><trk><trkseg><trkpt lat="43.7240684" lon="11.2935532"><ele>88.0</ele><time>2026-03-28T08:54:48.209Z</time></trkpt><trkpt lat="43.7241735" lon="11.2935841"><ele>88.0</ele><time>2026-03-28T08:54:50.211Z</time></trkpt><trkpt lat="43.7242388" lon="11.2935454"><ele>88.0</ele><time>2026-03-28T08:54:52.21Z</time></trkpt><trkpt lat="43.7241617" lon="11.2935045"><ele>88.0</ele><time>2026-03-28T08:54:56.21Z</time></trkpt><trkpt lat="43.7240921" lon="11.2935122"><ele>88.0</ele><time>2026-03-28T08:54:59.211Z</time></trkpt><trkpt lat="43.7240239" lon="11.2935106"><ele>88.0</ele><time>2026-03-28T08:55:10.21Z</time></trkpt><trkpt lat="43.7239323" lon="11.2935533"><ele>88.0</ele><time>2026-03-28T08:55:13.211Z</time></trkpt><trkpt lat="43.7238596" lon="11.2936373"><ele>88.0</ele><time>2026-03-28T08:55:15.211Z</time></trkpt><trkpt lat="43.7237781" lon="11.293757"><ele>88.0</ele><time>2026-03-28T08:55:17.211Z</time></trkpt><trkpt lat="43.7237287" lon="11.2938259"><ele>88.0</ele><time>2026-03-28T08:55:18.211Z</time></trkpt><trkpt lat="43.7236437" lon="11.2939513"><ele>88.0</ele><time>2026-03-28T08:55:20.21Z</time></trkpt><trkpt lat="43.7235606" lon="11.2940757"><ele>88.83333333333333</ele><time>2026-03-28T08:55:22.21Z</time></trkpt><trkpt lat="43.7235182" lon="11.2941438"><ele>89.66666666666666</ele><time>2026-03-28T08:55:23.211Z</time></trkpt><trkpt lat="43.7234698" lon="11.2942128"><ele>90.5</ele><time>2026-03-28T08:55:24.211Z</time></trkpt><trkpt lat="43.723424" lon="11.2942897"><ele>91.33333333333333</ele><time>2026-03-28T08:55:25.21Z</time></trkpt><trkpt lat="43.723364" lon="11.2943692"><ele>92.16666666666667</ele><time>2026-03-28T08:55:26.211Z</time></trkpt><trkpt lat="43.7233112" lon="11.2944628"><ele>93.0</ele><time>2026-03-28T08:55:27.211Z</time></trkpt><trkpt lat="43.7232498" lon="11.2945496"><ele>93.0</ele><time>2026-03-28T08:55:28.21Z</time></trkpt><trkpt lat="43.723192" lon="11.2946379"><ele>93.0</ele><time>2026-03-28T08:55:29.21Z</time></trkpt><trkpt lat="43.7231347" lon="11.2947288"><ele>93.0</ele><time>2026-03-28T08:55:30.211Z</time></trkpt><trkpt lat="43.7230798" lon="11.2948259"><ele>93.0</ele><time>2026-03-28T08:55:31.21Z</time></trkpt><trkpt lat="43.7230215" lon="11.2949203"><ele>93.0</ele><time>2026-03-28T08:55:32.211Z</time></trkpt><trkpt lat="43.7229547" lon="11.2950013"><ele>93.0</ele><time>2026-03-28T08:55:33.21Z</time></trkpt><trkpt lat="43.7228867" lon="11.2950709"><ele>92.4</ele><time>2026-03-28T08:55:34.211Z</time></trkpt><trkpt lat="43.7228149" lon="11.2951417"><ele>91.80000000000001</ele><time>2026-03-28T08:55:35.209Z</time></trkpt><trkpt lat="43.7227346" lon="11.2952081"><ele>91.2</ele><time>2026-03-28T08:55:36.211Z</time></trkpt><trkpt lat="43.7226457" lon="11.2952707"><ele>90.6</ele><time>2026-03-28T08:55:37.21Z</time></trkpt><trkpt lat="43.7225477" lon="11.2953279"><ele>90.0</ele><time>2026-03-28T08:55:38.211Z</time></trkpt><trkpt lat="43.7224495" lon="11.2953778"><ele>90.6</ele><time>2026-03-28T08:55:39.21Z</time></trkpt><trkpt lat="43.7223453" lon="11.2954238"><ele>91.2</ele><time>2026-03-28T08:55:40.21Z</time></trkpt><trkpt lat="43.7222437" lon="11.2954639"><ele>91.80000000000001</ele><time>2026-03-28T08:55:41.21Z</time></trkpt><trkpt lat="43.7221468" lon="11.2955053"><ele>92.4</ele><time>2026-03-28T08:55:42.21Z</time></trkpt><trkpt lat="43.7220489" lon="11.2955477"><ele>93.0</ele><time>2026-03-28T08:55:43.211Z</time></trkpt><trkpt lat="43.7219475" lon="11.2955962"><ele>94.2</ele><time>2026-03-28T08:55:44.21Z</time></trkpt><trkpt lat="43.7218442" lon="11.2956412"><ele>95.4</ele><time>2026-03-28T08:55:45.21Z</time></trkpt><trkpt lat="43.7217466" lon="11.2956854"><ele>96.60000000000001</ele><time>2026-03-28T08:55:46.211Z</time></trkpt><trkpt lat="43.7216525" lon="11.2957277"><ele>97.80000000000001</ele><time>2026-03-28T08:55:47.21Z</time></trkpt><trkpt lat="43.7215553" lon="11.2957713"><ele>99.0</ele><time>2026-03-28T08:55:48.21Z</time></trkpt><trkpt lat="43.7214552" lon="11.2958031"><ele>99.0</ele><time>2026-03-28T08:55:49.211Z</time></trkpt><trkpt lat="43.7213636" lon="11.2958286"><ele>99.0</ele><time>2026-03-28T08:55:50.211Z</time></trkpt><trkpt lat="43.7212728" lon="11.2958238"><ele>99.0</ele><time>2026-03-28T08:55:51.21Z</time></trkpt><trkpt lat="43.721198" lon="11.2957698"><ele>99.0</ele><time>2026-03-28T08:55:52.211Z</time></trkpt><trkpt lat="43.7211416" lon="11.2956844"><ele>99.0</ele><time>2026-03-28T08:55:53.21Z</time></trkpt><trkpt lat="43.7211079" lon="11.2955748"><ele>99.0</ele><time>2026-03-28T08:55:54.21Z</time></trkpt><trkpt lat="43.7211024" lon="11.2954637"><ele>100.66666666666667</ele><time>2026-03-28T08:55:55.211Z</time></trkpt><trkpt lat="43.7211276" lon="11.2953618"><ele>102.33333333333334</ele><time>2026-03-28T08:55:56.211Z</time></trkpt><trkpt lat="43.7211753" lon="11.2952669"><ele>104.0</ele><time>2026-03-28T08:55:57.211Z</time></trkpt><trkpt lat="43.721241" lon="11.2951968"><ele>105.66666666666667</ele><time>2026-03-28T08:55:58.21Z</time></trkpt><trkpt lat="43.7213232" lon="11.2951551"><ele>107.33333333333334</ele><time>2026-03-28T08:55:59.21Z</time></trkpt><trkpt lat="43.7214163" lon="11.2951287"><ele>109.0</ele><time>2026-03-28T08:56:00.211Z</time></trkpt><trkpt lat="43.7215197" lon="11.2950975"><ele>109.0</ele><time>2026-03-28T08:56:01.21Z</time></trkpt><trkpt lat="43.7216297" lon="11.2950689"><ele>109.0</ele><time>2026-03-28T08:56:02.21Z</time></trkpt><trkpt lat="43.7217424" lon="11.2950396"><ele>109.0</ele><time>2026-03-28T08:56:03.21Z</time></trkpt><trkpt lat="43.7218553" lon="11.2950072"><ele>109.0</ele><time>2026-03-28T08:56:04.211Z</time></trkpt><trkpt lat="43.7219668" lon="11.2949737"><ele>107.25</ele><time>2026-03-28T08:56:05.211Z</time></trkpt><trkpt lat="43.7220854" lon="11.2949497"><ele>105.5</ele><time>2026-03-28T08:56:06.21Z</time></trkpt><trkpt lat="43.7222014" lon="11.2949209"><ele>103.75</ele><time>2026-03-28T08:56:07.21Z</time></trkpt><trkpt lat="43.7223155" lon="11.2948955"><ele>102.0</ele><time>2026-03-28T08:56:08.211Z</time></trkpt><trkpt lat="43.7224286" lon="11.2948646"><ele>102.0</ele><time>2026-03-28T08:56:09.21Z</time></trkpt><trkpt lat="43.722538" lon="11.2948352"><ele>102.0</ele><time>2026-03-28T08:56:10.211Z</time></trkpt><trkpt lat="43.7226376" lon="11.2948059"><ele>102.0</ele><time>2026-03-28T08:56:11.21Z</time></trkpt><trkpt lat="43.7227192" lon="11.2947656"><ele>102.0</ele><time>2026-03-28T08:56:12.21Z</time></trkpt><trkpt lat="43.7227878" lon="11.2946908"><ele>102.0</ele><time>2026-03-28T08:56:13.21Z</time></trkpt><trkpt lat="43.7228348" lon="11.2945741"><ele>100.19999999999999</ele><time>2026-03-28T08:56:14.21Z</time></trkpt><trkpt lat="43.7228511" lon="11.2944379"><ele>98.4</ele><time>2026-03-28T08:56:15.21Z</time></trkpt><trkpt lat="43.7228308" lon="11.2943087"><ele>96.6</ele><time>2026-03-28T08:56:16.211Z</time></trkpt><trkpt lat="43.7227852" lon="11.2941957"><ele>94.80000000000001</ele><time>2026-03-28T08:56:17.211Z</time></trkpt><trkpt lat="43.7227101" lon="11.2941066"><ele>93.0</ele><time>2026-03-28T08:56:18.21Z</time></trkpt><trkpt lat="43.7226104" lon="11.2940627"><ele>97.75</ele><time>2026-03-28T08:56:19.21Z</time></trkpt><trkpt lat="43.7225033" lon="11.2940472"><ele>102.5</ele><time>2026-03-28T08:56:20.21Z</time></trkpt><trkpt lat="43.7223938" lon="11.2940373"><ele>107.25</ele><time>2026-03-28T08:56:21.21Z</time></trkpt><trkpt lat="43.7222828" lon="11.2940195"><ele>112.0</ele><time>2026-03-28T08:56:22.21Z</time></trkpt><trkpt lat="43.7221624" lon="11.2939754"><ele>110.25</ele><time>2026-03-28T08:56:23.21Z</time></trkpt><trkpt lat="43.7220524" lon="11.2939094"><ele>108.5</ele><time>2026-03-28T08:56:24.21Z</time></trkpt><trkpt lat="43.7219467" lon="11.2938255"><ele>106.75</ele><time>2026-03-28T08:56:25.21Z</time></trkpt><trkpt lat="43.7218511" lon="11.2937136"><ele>105.0</ele><time>2026-03-28T08:56:26.21Z</time></trkpt><trkpt lat="43.7217625" lon="11.2936008"><ele>108.75</ele><time>2026-03-28T08:56:27.211Z</time></trkpt><trkpt lat="43.7216776" lon="11.2934846"><ele>112.5</ele><time>2026-03-28T08:56:28.21Z</time></trkpt><trkpt lat="43.7215937" lon="11.2933702"><ele>116.25</ele><time>2026-03-28T08:56:29.21Z</time></trkpt><trkpt lat="43.7215082" lon="11.2932542"><ele>120.0</ele><time>2026-03-28T08:56:30.21Z</time></trkpt><trkpt lat="43.7214224" lon="11.2931335"><ele>118.25</ele><time>2026-03-28T08:56:31.21Z</time></trkpt><trkpt lat="43.7213354" lon="11.2930142"><ele>116.5</ele><time>2026-03-28T08:56:32.21Z</time></trkpt><trkpt lat="43.721252" lon="11.2928979"><ele>114.75</ele><time>2026-03-28T08:56:33.21Z</time></trkpt><trkpt lat="43.7211722" lon="11.2927869"><ele>113.0</ele><time>2026-03-28T08:56:34.21Z</time></trkpt><trkpt lat="43.7210951" lon="11.2926845"><ele>118.0</ele><time>2026-03-28T08:56:35.211Z</time></trkpt><trkpt lat="43.7210235" lon="11.2925646"><ele>123.0</ele><time>2026-03-28T08:56:36.211Z</time></trkpt><trkpt lat="43.7209662" lon="11.292425"><ele>128.0</ele><time>2026-03-28T08:56:37.209Z</time></trkpt><trkpt lat="43.7209282" lon="11.2922687"><ele>133.0</ele><time>2026-03-28T08:56:38.211Z</time></trkpt><trkpt lat="43.7209043" lon="11.2921053"><ele>133.25</ele><time>2026-03-28T08:56:39.21Z</time></trkpt><trkpt lat="43.720902" lon="11.2919332"><ele>133.5</ele><time>2026-03-28T08:56:40.211Z</time></trkpt><trkpt lat="43.7209275" lon="11.2917591"><ele>133.75</ele><time>2026-03-28T08:56:41.21Z</time></trkpt><trkpt lat="43.7209728" lon="11.2915984"><ele>134.0</ele><time>2026-03-28T08:56:42.211Z</time></trkpt><trkpt lat="43.721026" lon="11.2914436"><ele>127.0</ele><time>2026-03-28T08:56:43.21Z</time></trkpt><trkpt lat="43.7210825" lon="11.2912907"><ele>120.0</ele><time>2026-03-28T08:56:44.21Z</time></trkpt><trkpt lat="43.7211194" lon="11.2911419"><ele>113.0</ele><time>2026-03-28T08:56:45.211Z</time></trkpt><trkpt lat="43.7211203" lon="11.290988"><ele>106.0</ele><time>2026-03-28T08:56:46.211Z</time></trkpt><trkpt lat="43.7210881" lon="11.2908404"><ele>109.25</ele><time>2026-03-28T08:56:47.21Z</time></trkpt><trkpt lat="43.7210253" lon="11.2907042"><ele>112.5</ele><time>2026-03-28T08:56:48.21Z</time></trkpt><trkpt lat="43.7209345" lon="11.2905926"><ele>115.75</ele><time>2026-03-28T08:56:49.21Z</time></trkpt><trkpt lat="43.7208231" lon="11.2905197"><ele>119.0</ele><time>2026-03-28T08:56:50.21Z</time></trkpt><trkpt lat="43.7207054" lon="11.2904941"><ele>119.0</ele><time>2026-03-28T08:56:51.21Z</time></trkpt><trkpt lat="43.7205868" lon="11.2905115"><ele>119.0</ele><time>2026-03-28T08:56:52.21Z</time></trkpt><trkpt lat="43.7204723" lon="11.2905693"><ele>119.0</ele><time>2026-03-28T08:56:53.21Z</time></trkpt><trkpt lat="43.7203722" lon="11.2906609"><ele>119.0</ele><time>2026-03-28T08:56:54.211Z</time></trkpt><trkpt lat="43.7202817" lon="11.2907648"><ele>123.75</ele><time>2026-03-28T08:56:55.211Z</time></trkpt><trkpt lat="43.720192" lon="11.2908657"><ele>128.5</ele><time>2026-03-28T08:56:56.21Z</time></trkpt><trkpt lat="43.7201038" lon="11.2909677"><ele>133.25</ele><time>2026-03-28T08:56:57.21Z</time></trkpt><trkpt lat="43.7200196" lon="11.2910688"><ele>138.0</ele><time>2026-03-28T08:56:58.21Z</time></trkpt><trkpt lat="43.7199332" lon="11.2911788"><ele>138.0</ele><time>2026-03-28T08:56:59.211Z</time></trkpt><trkpt lat="43.7198421" lon="11.2912808"><ele>138.0</ele><time>2026-03-28T08:57:00.211Z</time></trkpt><trkpt lat="43.719746" lon="11.291376"><ele>138.0</ele><time>2026-03-28T08:57:01.211Z</time></trkpt><trkpt lat="43.7196436" lon="11.2914687"><ele>138.0</ele><time>2026-03-28T08:57:02.21Z</time></trkpt><trkpt lat="43.7195298" lon="11.2915537"><ele>139.5</ele><time>2026-03-28T08:57:03.21Z</time></trkpt><trkpt lat="43.7194051" lon="11.2916214"><ele>141.0</ele><time>2026-03-28T08:57:04.21Z</time></trkpt><trkpt lat="43.7192708" lon="11.2916706"><ele>142.5</ele><time>2026-03-28T08:57:05.21Z</time></trkpt><trkpt lat="43.7191302" lon="11.2916964"><ele>144.0</ele><time>2026-03-28T08:57:06.211Z</time></trkpt><trkpt lat="43.718986" lon="11.2916988"><ele>144.75</ele><time>2026-03-28T08:57:07.211Z</time></trkpt><trkpt lat="43.7188424" lon="11.2916927"><ele>145.5</ele><time>2026-03-28T08:57:08.21Z</time></trkpt><trkpt lat="43.7186991" lon="11.2916862"><ele>146.25</ele><time>2026-03-28T08:57:09.211Z</time></trkpt><trkpt lat="43.7185576" lon="11.2916802"><ele>147.0</ele><time>2026-03-28T08:57:10.211Z</time></trkpt><trkpt lat="43.7184169" lon="11.2916786"><ele>148.5</ele><time>2026-03-28T08:57:11.211Z</time></trkpt><trkpt lat="43.7182765" lon="11.2916731"><ele>150.0</ele><time>2026-03-28T08:57:12.21Z</time></trkpt><trkpt lat="43.7181317" lon="11.2916687"><ele>151.5</ele><time>2026-03-28T08:57:13.21Z</time></trkpt><trkpt lat="43.7179889" lon="11.2916623"><ele>153.0</ele><time>2026-03-28T08:57:14.21Z</time></trkpt><trkpt lat="43.7178455" lon="11.2916545"><ele>154.25</ele><time>2026-03-28T08:57:15.21Z</time></trkpt><trkpt lat="43.7177058" lon="11.2916477"><ele>155.5</ele><time>2026-03-28T08:57:16.21Z</time></trkpt><trkpt lat="43.7175591" lon="11.2916468"><ele>156.75</ele><time>2026-03-28T08:57:17.21Z</time></trkpt><trkpt lat="43.7174112" lon="11.2916545"><ele>158.0</ele><time>2026-03-28T08:57:18.21Z</time></trkpt><trkpt lat="43.7172625" lon="11.2916769"><ele>158.0</ele><time>2026-03-28T08:57:19.21Z</time></trkpt><trkpt lat="43.7171133" lon="11.2917047"><ele>158.0</ele><time>2026-03-28T08:57:20.21Z</time></trkpt><trkpt lat="43.7169744" lon="11.2917394"><ele>158.0</ele><time>2026-03-28T08:57:21.21Z</time></trkpt><trkpt lat="43.7168417" lon="11.291779"><ele>158.0</ele><time>2026-03-28T08:57:22.21Z</time></trkpt><trkpt lat="43.7167226" lon="11.2918231"><ele>159.75</ele><time>2026-03-28T08:57:23.211Z</time></trkpt><trkpt lat="43.7166014" lon="11.2918695"><ele>161.5</ele><time>2026-03-28T08:57:24.211Z</time></trkpt><trkpt lat="43.7164841" lon="11.2919174"><ele>163.25</ele><time>2026-03-28T08:57:25.211Z</time></trkpt><trkpt lat="43.7163647" lon="11.2919642"><ele>165.0</ele><time>2026-03-28T08:57:26.211Z</time></trkpt><trkpt lat="43.7162362" lon="11.2920121"><ele>165.0</ele><time>2026-03-28T08:57:27.21Z</time></trkpt><trkpt lat="43.716102" lon="11.292043"><ele>165.0</ele><time>2026-03-28T08:57:28.212Z</time></trkpt><trkpt lat="43.7159704" lon="11.2920303"><ele>165.0</ele><time>2026-03-28T08:57:29.21Z</time></trkpt><trkpt lat="43.7158497" lon="11.2919972"><ele>165.0</ele><time>2026-03-28T08:57:30.21Z</time></trkpt><trkpt lat="43.715741" lon="11.2919527"><ele>166.0</ele><time>2026-03-28T08:57:31.211Z</time></trkpt><trkpt lat="43.7156378" lon="11.2918924"><ele>167.0</ele><time>2026-03-28T08:57:32.211Z</time></trkpt><trkpt lat="43.7155373" lon="11.2918293"><ele>168.0</ele><time>2026-03-28T08:57:33.211Z</time></trkpt><trkpt lat="43.7154365" lon="11.291761"><ele>169.0</ele><time>2026-03-28T08:57:34.211Z</time></trkpt><trkpt lat="43.7153387" lon="11.2916935"><ele>170.0</ele><time>2026-03-28T08:57:35.211Z</time></trkpt><trkpt lat="43.7152428" lon="11.2916319"><ele>171.2</ele><time>2026-03-28T08:57:36.211Z</time></trkpt><trkpt lat="43.7151459" lon="11.2915734"><ele>172.4</ele><time>2026-03-28T08:57:37.21Z</time></trkpt><trkpt lat="43.7150419" lon="11.291526"><ele>173.60000000000002</ele><time>2026-03-28T08:57:38.211Z</time></trkpt><trkpt lat="43.7149346" lon="11.2914851"><ele>174.8</ele><time>2026-03-28T08:57:39.211Z</time></trkpt><trkpt lat="43.7148266" lon="11.2914502"><ele>176.0</ele><time>2026-03-28T08:57:40.21Z</time></trkpt><trkpt lat="43.714718" lon="11.291432"><ele>176.25</ele><time>2026-03-28T08:57:41.21Z</time></trkpt><trkpt lat="43.7146091" lon="11.291406"><ele>176.5</ele><time>2026-03-28T08:57:42.21Z</time></trkpt><trkpt lat="43.7144976" lon="11.291379"><ele>176.75</ele><time>2026-03-28T08:57:43.21Z</time></trkpt><trkpt lat="43.7143848" lon="11.2913381"><ele>177.0</ele><time>2026-03-28T08:57:44.21Z</time></trkpt><trkpt lat="43.7142757" lon="11.291296"><ele>177.25</ele><time>2026-03-28T08:57:45.21Z</time></trkpt><trkpt lat="43.7141652" lon="11.2912529"><ele>177.5</ele><time>2026-03-28T08:57:46.21Z</time></trkpt><trkpt lat="43.7140554" lon="11.2912084"><ele>177.75</ele><time>2026-03-28T08:57:47.21Z</time></trkpt><trkpt lat="43.7139419" lon="11.2911582"><ele>178.0</ele><time>2026-03-28T08:57:48.21Z</time></trkpt><trkpt lat="43.7138326" lon="11.2910997"><ele>178.0</ele><time>2026-03-28T08:57:49.21Z</time></trkpt><trkpt lat="43.713722" lon="11.291025"><ele>178.0</ele><time>2026-03-28T08:57:50.211Z</time></trkpt><trkpt lat="43.713605" lon="11.2909379"><ele>178.0</ele><time>2026-03-28T08:57:51.21Z</time></trkpt><trkpt lat="43.7134907" lon="11.2908432"><ele>178.0</ele><time>2026-03-28T08:57:52.21Z</time></trkpt><trkpt lat="43.7133828" lon="11.2907472"><ele>177.75</ele><time>2026-03-28T08:57:53.21Z</time></trkpt><trkpt lat="43.713283" lon="11.2906566"><ele>177.5</ele><time>2026-03-28T08:57:54.21Z</time></trkpt><trkpt lat="43.7131835" lon="11.2905705"><ele>177.25</ele><time>2026-03-28T08:57:55.21Z</time></trkpt><trkpt lat="43.7130792" lon="11.2904866"><ele>177.0</ele><time>2026-03-28T08:57:56.211Z</time></trkpt><trkpt lat="43.7129686" lon="11.2904113"><ele>177.75</ele><time>2026-03-28T08:57:57.21Z</time></trkpt><trkpt lat="43.7128478" lon="11.2903538"><ele>178.5</ele><time>2026-03-28T08:57:58.21Z</time></trkpt><trkpt lat="43.7127202" lon="11.2903183"><ele>179.25</ele><time>2026-03-28T08:57:59.21Z</time></trkpt><trkpt lat="43.7125859" lon="11.2903076"><ele>180.0</ele><time>2026-03-28T08:58:00.21Z</time></trkpt><trkpt lat="43.7124487" lon="11.2903204"><ele>180.0</ele><time>2026-03-28T08:58:01.21Z</time></trkpt><trkpt lat="43.7123182" lon="11.2903471"><ele>180.0</ele><time>2026-03-28T08:58:02.21Z</time></trkpt><trkpt lat="43.7121955" lon="11.2903831"><ele>180.0</ele><time>2026-03-28T08:58:03.21Z</time></trkpt><trkpt lat="43.7120686" lon="11.2904208"><ele>180.0</ele><time>2026-03-28T08:58:04.21Z</time></trkpt><trkpt lat="43.7119432" lon="11.2904603"><ele>179.5</ele><time>2026-03-28T08:58:05.21Z</time></trkpt><trkpt lat="43.7118175" lon="11.290499"><ele>179.0</ele><time>2026-03-28T08:58:06.21Z</time></trkpt><trkpt lat="43.7116913" lon="11.2905358"><ele>178.5</ele><time>2026-03-28T08:58:07.21Z</time></trkpt><trkpt lat="43.7115653" lon="11.2905732"><ele>178.0</ele><time>2026-03-28T08:58:08.21Z</time></trkpt><trkpt lat="43.7114423" lon="11.2906066"><ele>178.75</ele><time>2026-03-28T08:58:09.21Z</time></trkpt><trkpt lat="43.7113305" lon="11.2906377"><ele>179.5</ele><time>2026-03-28T08:58:10.211Z</time></trkpt><trkpt lat="43.711212" lon="11.2906665"><ele>180.25</ele><time>2026-03-28T08:58:11.21Z</time></trkpt><trkpt lat="43.7110923" lon="11.2906728"><ele>181.0</ele><time>2026-03-28T08:58:12.211Z</time></trkpt><trkpt lat="43.7109745" lon="11.2906671"><ele>181.0</ele><time>2026-03-28T08:58:13.21Z</time></trkpt><trkpt lat="43.710855" lon="11.2906534"><ele>181.0</ele><time>2026-03-28T08:58:14.21Z</time></trkpt><trkpt lat="43.7107329" lon="11.2906308"><ele>181.0</ele><time>2026-03-28T08:58:15.211Z</time></trkpt><trkpt lat="43.7106132" lon="11.2906057"><ele>181.0</ele><time>2026-03-28T08:58:16.209Z</time></trkpt><trkpt lat="43.7104946" lon="11.2905683"><ele>180.75</ele><time>2026-03-28T08:58:17.21Z</time></trkpt><trkpt lat="43.7103738" lon="11.2905252"><ele>180.5</ele><time>2026-03-28T08:58:18.21Z</time></trkpt><trkpt lat="43.7102503" lon="11.2904781"><ele>180.25</ele><time>2026-03-28T08:58:19.21Z</time></trkpt><trkpt lat="43.7101291" lon="11.290425"><ele>180.0</ele><time>2026-03-28T08:58:20.21Z</time></trkpt><trkpt lat="43.7100103" lon="11.2903691"><ele>181.0</ele><time>2026-03-28T08:58:21.209Z</time></trkpt><trkpt lat="43.7098952" lon="11.2903025"><ele>182.0</ele><time>2026-03-28T08:58:22.211Z</time></trkpt><trkpt lat="43.7097897" lon="11.2902318"><ele>183.0</ele><time>2026-03-28T08:58:23.211Z</time></trkpt><trkpt lat="43.7096861" lon="11.2901557"><ele>184.0</ele><time>2026-03-28T08:58:24.209Z</time></trkpt><trkpt lat="43.7095822" lon="11.2900787"><ele>184.0</ele><time>2026-03-28T08:58:25.21Z</time></trkpt><trkpt lat="43.7094798" lon="11.289996"><ele>184.0</ele><time>2026-03-28T08:58:26.211Z</time></trkpt><trkpt lat="43.709379" lon="11.2899152"><ele>184.0</ele><time>2026-03-28T08:58:27.209Z</time></trkpt><trkpt lat="43.7092756" lon="11.28983"><ele>184.0</ele><time>2026-03-28T08:58:28.21Z</time></trkpt><trkpt lat="43.7091715" lon="11.2897439"><ele>184.25</ele><time>2026-03-28T08:58:29.211Z</time></trkpt><trkpt lat="43.7090506" lon="11.2896721"><ele>184.5</ele><time>2026-03-28T08:58:30.211Z</time></trkpt><trkpt lat="43.7089222" lon="11.2896094"><ele>184.75</ele><time>2026-03-28T08:58:31.21Z</time></trkpt><trkpt lat="43.7087948" lon="11.289554"><ele>185.0</ele><time>2026-03-28T08:58:32.21Z</time></trkpt><trkpt lat="43.7086717" lon="11.2895074"><ele>185.5</ele><time>2026-03-28T08:58:33.21Z</time></trkpt><trkpt lat="43.7085428" lon="11.289469"><ele>186.0</ele><time>2026-03-28T08:58:34.211Z</time></trkpt><trkpt lat="43.7084166" lon="11.2894486"><ele>186.5</ele><time>2026-03-28T08:58:35.21Z</time></trkpt><trkpt lat="43.7082824" lon="11.2894419"><ele>187.0</ele><time>2026-03-28T08:58:36.211Z</time></trkpt><trkpt lat="43.7081601" lon="11.2894556"><ele>187.0</ele><time>2026-03-28T08:58:37.21Z</time></trkpt><trkpt lat="43.7080337" lon="11.2894661"><ele>187.0</ele><time>2026-03-28T08:58:38.211Z</time></trkpt><trkpt lat="43.7079026" lon="11.2894871"><ele>187.0</ele><time>2026-03-28T08:58:39.211Z</time></trkpt><trkpt lat="43.7077718" lon="11.2895085"><ele>187.0</ele><time>2026-03-28T08:58:40.21Z</time></trkpt><trkpt lat="43.7076443" lon="11.2895221"><ele>186.0</ele><time>2026-03-28T08:58:41.211Z</time></trkpt><trkpt lat="43.7075173" lon="11.2895328"><ele>185.0</ele><time>2026-03-28T08:58:42.21Z</time></trkpt><trkpt lat="43.7073962" lon="11.289547"><ele>184.0</ele><time>2026-03-28T08:58:43.211Z</time></trkpt><trkpt lat="43.7072816" lon="11.2895614"><ele>183.0</ele><time>2026-03-28T08:58:44.211Z</time></trkpt><trkpt lat="43.7071692" lon="11.2895822"><ele>183.0</ele><time>2026-03-28T08:58:45.21Z</time></trkpt><trkpt lat="43.7070526" lon="11.2895958"><ele>183.0</ele><time>2026-03-28T08:58:46.21Z</time></trkpt><trkpt lat="43.7069383" lon="11.2896191"><ele>183.0</ele><time>2026-03-28T08:58:47.21Z</time></trkpt><trkpt lat="43.7068245" lon="11.2896589"><ele>183.0</ele><time>2026-03-28T08:58:48.21Z</time></trkpt><trkpt lat="43.7067216" lon="11.2897228"><ele>185.25</ele><time>2026-03-28T08:58:49.21Z</time></trkpt><trkpt lat="43.7066238" lon="11.2898138"><ele>187.5</ele><time>2026-03-28T08:58:50.21Z</time></trkpt><trkpt lat="43.7065295" lon="11.2899242"><ele>189.75</ele><time>2026-03-28T08:58:51.21Z</time></trkpt><trkpt lat="43.7064347" lon="11.2900418"><ele>192.0</ele><time>2026-03-28T08:58:52.21Z</time></trkpt><trkpt lat="43.7063445" lon="11.2901516"><ele>192.0</ele><time>2026-03-28T08:58:53.211Z</time></trkpt><trkpt lat="43.7062614" lon="11.2902548"><ele>192.0</ele><time>2026-03-28T08:58:54.211Z</time></trkpt><trkpt lat="43.7061852" lon="11.2903508"><ele>192.0</ele><time>2026-03-28T08:58:55.21Z</time></trkpt><trkpt lat="43.706105" lon="11.2904436"><ele>192.0</ele><time>2026-03-28T08:58:56.211Z</time></trkpt><trkpt lat="43.7060267" lon="11.2905418"><ele>192.0</ele><time>2026-03-28T08:58:57.21Z</time></trkpt><trkpt lat="43.7059482" lon="11.2906398"><ele>192.8</ele><time>2026-03-28T08:58:58.211Z</time></trkpt><trkpt lat="43.7058712" lon="11.2907349"><ele>193.6</ele><time>2026-03-28T08:58:59.211Z</time></trkpt><trkpt lat="43.7057958" lon="11.2908294"><ele>194.4</ele><time>2026-03-28T08:59:00.211Z</time></trkpt><trkpt lat="43.7057148" lon="11.2909301"><ele>195.20000000000002</ele><time>2026-03-28T08:59:01.21Z</time></trkpt><trkpt lat="43.7056307" lon="11.2910322"><ele>196.0</ele><time>2026-03-28T08:59:02.211Z</time></trkpt><trkpt lat="43.7055466" lon="11.2911412"><ele>196.0</ele><time>2026-03-28T08:59:03.21Z</time></trkpt><trkpt lat="43.705465" lon="11.2912396"><ele>196.0</ele><time>2026-03-28T08:59:04.211Z</time></trkpt><trkpt lat="43.7053853" lon="11.2913414"><ele>196.0</ele><time>2026-03-28T08:59:05.211Z</time></trkpt><trkpt lat="43.705308" lon="11.2914324"><ele>196.0</ele><time>2026-03-28T08:59:06.21Z</time></trkpt><trkpt lat="43.7052365" lon="11.2915191"><ele>196.0</ele><time>2026-03-28T08:59:07.211Z</time></trkpt><trkpt lat="43.7051577" lon="11.2916102"><ele>196.0</ele><time>2026-03-28T08:59:08.211Z</time></trkpt><trkpt lat="43.7050849" lon="11.2917002"><ele>196.0</ele><time>2026-03-28T08:59:09.211Z</time></trkpt><trkpt lat="43.7050236" lon="11.291779"><ele>196.0</ele><time>2026-03-28T08:59:10.21Z</time></trkpt><trkpt lat="43.7049503" lon="11.291876"><ele>196.0</ele><time>2026-03-28T08:59:12.21Z</time></trkpt><trkpt lat="43.7048951" lon="11.291952"><ele>196.0</ele><time>2026-03-28T08:59:14.21Z</time></trkpt><trkpt lat="43.7048263" lon="11.2920457"><ele>196.0</ele><time>2026-03-28T08:59:16.21Z</time></trkpt><trkpt lat="43.7047574" lon="11.2921388"><ele>196.0</ele><time>2026-03-28T08:59:18.211Z</time></trkpt><trkpt lat="43.7046493" lon="11.2922628"><ele>196.0</ele><time>2026-03-28T08:59:20.209Z</time></trkpt><trkpt lat="43.7045821" lon="11.2923288"><ele>196.0</ele><time>2026-03-28T08:59:21.211Z</time></trkpt><trkpt lat="43.7045117" lon="11.2923919"><ele>196.0</ele><time>2026-03-28T08:59:22.21Z</time></trkpt><trkpt lat="43.7044416" lon="11.2924538"><ele>196.4</ele><time>2026-03-28T08:59:23.21Z</time></trkpt><trkpt lat="43.7043642" lon="11.2925142"><ele>196.8</ele><time>2026-03-28T08:59:24.211Z</time></trkpt><trkpt lat="43.7042803" lon="11.2925758"><ele>197.20000000000002</ele><time>2026-03-28T08:59:25.211Z</time></trkpt><trkpt lat="43.7041971" lon="11.2926546"><ele>197.60000000000002</ele><time>2026-03-28T08:59:26.21Z</time></trkpt><trkpt lat="43.7041235" lon="11.2927249"><ele>198.0</ele><time>2026-03-28T08:59:27.211Z</time></trkpt><trkpt lat="43.7040643" lon="11.2927925"><ele>198.0</ele><time>2026-03-28T08:59:28.21Z</time></trkpt><trkpt lat="43.7040067" lon="11.2928528"><ele>198.0</ele><time>2026-03-28T08:59:29.21Z</time></trkpt><trkpt lat="43.7039503" lon="11.292899"><ele>198.0</ele><time>2026-03-28T08:59:30.21Z</time></trkpt><trkpt lat="43.7038863" lon="11.2929409"><ele>198.0</ele><time>2026-03-28T08:59:31.209Z</time></trkpt><trkpt lat="43.7038134" lon="11.2929864"><ele>198.0</ele><time>2026-03-28T08:59:32.21Z</time></trkpt><trkpt lat="43.7037309" lon="11.29304"><ele>198.0</ele><time>2026-03-28T08:59:33.21Z</time></trkpt><trkpt lat="43.7036342" lon="11.2930927"><ele>198.5</ele><time>2026-03-28T08:59:34.211Z</time></trkpt><trkpt lat="43.7035263" lon="11.2931369"><ele>199.0</ele><time>2026-03-28T08:59:35.211Z</time></trkpt><trkpt lat="43.7034114" lon="11.29316"><ele>199.5</ele><time>2026-03-28T08:59:36.211Z</time></trkpt><trkpt lat="43.7032981" lon="11.293174"><ele>200.0</ele><time>2026-03-28T08:59:37.21Z</time></trkpt><trkpt lat="43.7031878" lon="11.293186"><ele>200.0</ele><time>2026-03-28T08:59:38.21Z</time></trkpt><trkpt lat="43.7030715" lon="11.2932012"><ele>200.0</ele><time>2026-03-28T08:59:39.21Z</time></trkpt><trkpt lat="43.702952" lon="11.2932186"><ele>200.0</ele><time>2026-03-28T08:59:40.21Z</time></trkpt><trkpt lat="43.7028325" lon="11.2932292"><ele>200.0</ele><time>2026-03-28T08:59:41.21Z</time></trkpt><trkpt lat="43.702723" lon="11.2932344"><ele>199.5</ele><time>2026-03-28T08:59:42.211Z</time></trkpt><trkpt lat="43.7026112" lon="11.2932384"><ele>199.0</ele><time>2026-03-28T08:59:43.21Z</time></trkpt><trkpt lat="43.7024943" lon="11.2932377"><ele>198.5</ele><time>2026-03-28T08:59:44.211Z</time></trkpt><trkpt lat="43.7023712" lon="11.2932266"><ele>198.0</ele><time>2026-03-28T08:59:45.211Z</time></trkpt><trkpt lat="43.7022404" lon="11.293208"><ele>198.0</ele><time>2026-03-28T08:59:46.21Z</time></trkpt><trkpt lat="43.702121" lon="11.2931937"><ele>198.0</ele><time>2026-03-28T08:59:47.211Z</time></trkpt><trkpt lat="43.7020028" lon="11.2931791"><ele>198.0</ele><time>2026-03-28T08:59:48.211Z</time></trkpt><trkpt lat="43.7018877" lon="11.2931607"><ele>198.0</ele><time>2026-03-28T08:59:49.21Z</time></trkpt><trkpt lat="43.7017729" lon="11.2931511"><ele>198.5</ele><time>2026-03-28T08:59:50.21Z</time></trkpt><trkpt lat="43.701666" lon="11.2931332"><ele>199.0</ele><time>2026-03-28T08:59:51.211Z</time></trkpt><trkpt lat="43.7015558" lon="11.293119"><ele>199.5</ele><time>2026-03-28T08:59:52.211Z</time></trkpt><trkpt lat="43.7014395" lon="11.2931022"><ele>200.0</ele><time>2026-03-28T08:59:53.21Z</time></trkpt><trkpt lat="43.7013181" lon="11.2930849"><ele>201.0</ele><time>2026-03-28T08:59:54.21Z</time></trkpt><trkpt lat="43.7011941" lon="11.2930674"><ele>202.0</ele><time>2026-03-28T08:59:55.21Z</time></trkpt><trkpt lat="43.7010669" lon="11.2930541"><ele>203.0</ele><time>2026-03-28T08:59:56.211Z</time></trkpt><trkpt lat="43.7009377" lon="11.2930399"><ele>204.0</ele><time>2026-03-28T08:59:57.211Z</time></trkpt><trkpt lat="43.7008044" lon="11.293028"><ele>204.0</ele><time>2026-03-28T08:59:58.211Z</time></trkpt><trkpt lat="43.7006651" lon="11.293008"><ele>204.0</ele><time>2026-03-28T08:59:59.211Z</time></trkpt><trkpt lat="43.700525" lon="11.2929914"><ele>204.0</ele><time>2026-03-28T09:00:00.21Z</time></trkpt><trkpt lat="43.7003844" lon="11.2929834"><ele>204.0</ele><time>2026-03-28T09:00:01.21Z</time></trkpt><trkpt lat="43.7002455" lon="11.2929794"><ele>203.75</ele><time>2026-03-28T09:00:02.211Z</time></trkpt><trkpt lat="43.7001141" lon="11.2929731"><ele>203.5</ele><time>2026-03-28T09:00:03.211Z</time></trkpt><trkpt lat="43.6999797" lon="11.2929819"><ele>203.25</ele><time>2026-03-28T09:00:04.21Z</time></trkpt><trkpt lat="43.6998512" lon="11.2930056"><ele>203.0</ele><time>2026-03-28T09:00:05.21Z</time></trkpt><trkpt lat="43.6997264" lon="11.2930308"><ele>203.0</ele><time>2026-03-28T09:00:06.21Z</time></trkpt><trkpt lat="43.6996021" lon="11.2930611"><ele>203.0</ele><time>2026-03-28T09:00:07.211Z</time></trkpt><trkpt lat="43.6994624" lon="11.2930927"><ele>203.0</ele><time>2026-03-28T09:00:08.21Z</time></trkpt><trkpt lat="43.6993259" lon="11.293125"><ele>203.0</ele><time>2026-03-28T09:00:09.211Z</time></trkpt><trkpt lat="43.6991951" lon="11.2931712"><ele>203.0</ele><time>2026-03-28T09:00:10.21Z</time></trkpt><trkpt lat="43.6990596" lon="11.2932193"><ele>203.0</ele><time>2026-03-28T09:00:11.211Z</time></trkpt><trkpt lat="43.698926" lon="11.2932674"><ele>203.0</ele><time>2026-03-28T09:00:12.21Z</time></trkpt><trkpt lat="43.6987869" lon="11.2933037"><ele>203.0</ele><time>2026-03-28T09:00:13.211Z</time></trkpt><trkpt lat="43.6986544" lon="11.2933309"><ele>203.5</ele><time>2026-03-28T09:00:14.21Z</time></trkpt><trkpt lat="43.6985227" lon="11.2933508"><ele>204.0</ele><time>2026-03-28T09:00:15.209Z</time></trkpt><trkpt lat="43.6983855" lon="11.2933712"><ele>204.5</ele><time>2026-03-28T09:00:16.21Z</time></trkpt><trkpt lat="43.6982526" lon="11.2933807"><ele>205.0</ele><time>2026-03-28T09:00:17.21Z</time></trkpt><trkpt lat="43.6981086" lon="11.2933876"><ele>205.0</ele><time>2026-03-28T09:00:18.21Z</time></trkpt><trkpt lat="43.6979676" lon="11.2933934"><ele>205.0</ele><time>2026-03-28T09:00:19.21Z</time></trkpt><trkpt lat="43.697825" lon="11.2933948"><ele>205.0</ele><time>2026-03-28T09:00:20.211Z</time></trkpt><trkpt lat="43.6976745" lon="11.293401"><ele>205.0</ele><time>2026-03-28T09:00:21.21Z</time></trkpt><trkpt lat="43.6975356" lon="11.2933951"><ele>204.25</ele><time>2026-03-28T09:00:22.21Z</time></trkpt><trkpt lat="43.6973899" lon="11.2933914"><ele>203.5</ele><time>2026-03-28T09:00:23.211Z</time></trkpt><trkpt lat="43.6972504" lon="11.2933783"><ele>202.75</ele><time>2026-03-28T09:00:24.21Z</time></trkpt><trkpt lat="43.697108" lon="11.2933624"><ele>202.0</ele><time>2026-03-28T09:00:25.21Z</time></trkpt><trkpt lat="43.6969597" lon="11.2933396"><ele>202.25</ele><time>2026-03-28T09:00:26.211Z</time></trkpt><trkpt lat="43.696814" lon="11.2933112"><ele>202.5</ele><time>2026-03-28T09:00:27.21Z</time></trkpt><trkpt lat="43.6966751" lon="11.2932867"><ele>202.75</ele><time>2026-03-28T09:00:28.21Z</time></trkpt><trkpt lat="43.6965404" lon="11.2932564"><ele>203.0</ele><time>2026-03-28T09:00:29.21Z</time></trkpt><trkpt lat="43.6964037" lon="11.2932266"><ele>203.0</ele><time>2026-03-28T09:00:30.21Z</time></trkpt><trkpt lat="43.6962659" lon="11.2931849"><ele>203.0</ele><time>2026-03-28T09:00:31.21Z</time></trkpt><trkpt lat="43.6961369" lon="11.2931486"><ele>203.0</ele><time>2026-03-28T09:00:32.211Z</time></trkpt><trkpt lat="43.6960176" lon="11.2931156"><ele>203.0</ele><time>2026-03-28T09:00:33.21Z</time></trkpt><trkpt lat="43.6958913" lon="11.2930763"><ele>204.0</ele><time>2026-03-28T09:00:34.21Z</time></trkpt><trkpt lat="43.6957564" lon="11.2930293"><ele>205.0</ele><time>2026-03-28T09:00:35.21Z</time></trkpt><trkpt lat="43.6956156" lon="11.2929816"><ele>206.0</ele><time>2026-03-28T09:00:36.21Z</time></trkpt><trkpt lat="43.6954808" lon="11.2929418"><ele>207.0</ele><time>2026-03-28T09:00:37.21Z</time></trkpt><trkpt lat="43.6953458" lon="11.292904"><ele>207.25</ele><time>2026-03-28T09:00:38.21Z</time></trkpt><trkpt lat="43.6952044" lon="11.2928758"><ele>207.5</ele><time>2026-03-28T09:00:39.211Z</time></trkpt><trkpt lat="43.6950568" lon="11.2928578"><ele>207.75</ele><time>2026-03-28T09:00:40.21Z</time></trkpt><trkpt lat="43.6949104" lon="11.2928511"><ele>208.0</ele><time>2026-03-28T09:00:41.21Z</time></trkpt><trkpt lat="43.6947717" lon="11.2928469"><ele>208.0</ele><time>2026-03-28T09:00:42.211Z</time></trkpt><trkpt lat="43.6946358" lon="11.292837"><ele>208.0</ele><time>2026-03-28T09:00:43.211Z</time></trkpt><trkpt lat="43.6944976" lon="11.2928312"><ele>208.0</ele><time>2026-03-28T09:00:44.211Z</time></trkpt><trkpt lat="43.6943615" lon="11.2928266"><ele>208.0</ele><time>2026-03-28T09:00:45.211Z</time></trkpt><trkpt lat="43.6942288" lon="11.2928418"><ele>208.0</ele><time>2026-03-28T09:00:46.211Z</time></trkpt><trkpt lat="43.6941038" lon="11.2928877"><ele>208.0</ele><time>2026-03-28T09:00:47.211Z</time></trkpt><trkpt lat="43.6940006" lon="11.2929638"><ele>208.0</ele><time>2026-03-28T09:00:48.21Z</time></trkpt><trkpt lat="43.6939186" lon="11.2930597"><ele>208.0</ele><time>2026-03-28T09:00:49.21Z</time></trkpt><trkpt lat="43.6938478" lon="11.2931678"><ele>207.25</ele><time>2026-03-28T09:00:50.21Z</time></trkpt><trkpt lat="43.6937794" lon="11.2932938"><ele>206.5</ele><time>2026-03-28T09:00:51.21Z</time></trkpt><trkpt lat="43.6936904" lon="11.2934029"><ele>205.75</ele><time>2026-03-28T09:00:52.211Z</time></trkpt><trkpt lat="43.693594" lon="11.2934704"><ele>205.0</ele><time>2026-03-28T09:00:53.21Z</time></trkpt><trkpt lat="43.6934895" lon="11.2935303"><ele>205.0</ele><time>2026-03-28T09:00:54.21Z</time></trkpt><trkpt lat="43.6933834" lon="11.293591"><ele>205.0</ele><time>2026-03-28T09:00:55.21Z</time></trkpt><trkpt lat="43.6932803" lon="11.2936834"><ele>205.0</ele><time>2026-03-28T09:00:56.211Z</time></trkpt><trkpt lat="43.693191" lon="11.2937922"><ele>205.0</ele><time>2026-03-28T09:00:57.211Z</time></trkpt><trkpt lat="43.6931276" lon="11.2939117"><ele>203.8</ele><time>2026-03-28T09:00:58.21Z</time></trkpt><trkpt lat="43.6930768" lon="11.2940397"><ele>202.6</ele><time>2026-03-28T09:00:59.21Z</time></trkpt><trkpt lat="43.6930381" lon="11.2941789"><ele>201.39999999999998</ele><time>2026-03-28T09:01:00.211Z</time></trkpt><trkpt lat="43.6930224" lon="11.2943148"><ele>200.2</ele><time>2026-03-28T09:01:01.21Z</time></trkpt><trkpt lat="43.6930077" lon="11.2944555"><ele>199.0</ele><time>2026-03-28T09:01:02.21Z</time></trkpt><trkpt lat="43.6929936" lon="11.2945926"><ele>199.0</ele><time>2026-03-28T09:01:03.211Z</time></trkpt><trkpt lat="43.6929554" lon="11.2947263"><ele>199.0</ele><time>2026-03-28T09:01:04.21Z</time></trkpt><trkpt lat="43.6928851" lon="11.2948406"><ele>199.0</ele><time>2026-03-28T09:01:05.211Z</time></trkpt><trkpt lat="43.6927865" lon="11.2949043"><ele>199.0</ele><time>2026-03-28T09:01:06.211Z</time></trkpt><trkpt lat="43.6926835" lon="11.2949202"><ele>199.0</ele><time>2026-03-28T09:01:07.211Z</time></trkpt><trkpt lat="43.6925769" lon="11.2948975"><ele>199.39999999999998</ele><time>2026-03-28T09:01:08.209Z</time></trkpt><trkpt lat="43.6924736" lon="11.2948518"><ele>199.8</ele><time>2026-03-28T09:01:09.211Z</time></trkpt><trkpt lat="43.6923725" lon="11.2948001"><ele>200.2</ele><time>2026-03-28T09:01:10.21Z</time></trkpt><trkpt lat="43.6922615" lon="11.2947629"><ele>200.60000000000002</ele><time>2026-03-28T09:01:11.21Z</time></trkpt><trkpt lat="43.6921542" lon="11.2947483"><ele>201.0</ele><time>2026-03-28T09:01:12.21Z</time></trkpt><trkpt lat="43.6920533" lon="11.2947549"><ele>201.0</ele><time>2026-03-28T09:01:13.21Z</time></trkpt><trkpt lat="43.6919564" lon="11.2947925"><ele>201.0</ele><time>2026-03-28T09:01:14.21Z</time></trkpt><trkpt lat="43.6918664" lon="11.2948548"><ele>201.0</ele><time>2026-03-28T09:01:15.21Z</time></trkpt><trkpt lat="43.69177" lon="11.2949348"><ele>201.0</ele><time>2026-03-28T09:01:16.21Z</time></trkpt><trkpt lat="43.6916658" lon="11.295021"><ele>201.0</ele><time>2026-03-28T09:01:17.21Z</time></trkpt><trkpt lat="43.691557" lon="11.2951051"><ele>201.25</ele><time>2026-03-28T09:01:18.211Z</time></trkpt><trkpt lat="43.691444" lon="11.2951843"><ele>201.5</ele><time>2026-03-28T09:01:19.21Z</time></trkpt><trkpt lat="43.69133" lon="11.2952568"><ele>201.75</ele><time>2026-03-28T09:01:20.211Z</time></trkpt><trkpt lat="43.6912142" lon="11.2953259"><ele>202.0</ele><time>2026-03-28T09:01:21.211Z</time></trkpt><trkpt lat="43.6910931" lon="11.2953852"><ele>202.0</ele><time>2026-03-28T09:01:22.211Z</time></trkpt><trkpt lat="43.6909686" lon="11.2954391"><ele>202.0</ele><time>2026-03-28T09:01:23.21Z</time></trkpt><trkpt lat="43.6908433" lon="11.2954993"><ele>202.0</ele><time>2026-03-28T09:01:24.21Z</time></trkpt><trkpt lat="43.690716" lon="11.2955603"><ele>202.0</ele><time>2026-03-28T09:01:25.21Z</time></trkpt><trkpt lat="43.6905871" lon="11.2956203"><ele>202.0</ele><time>2026-03-28T09:01:26.211Z</time></trkpt><trkpt lat="43.690458" lon="11.2956813"><ele>202.0</ele><time>2026-03-28T09:01:27.21Z</time></trkpt><trkpt lat="43.6903337" lon="11.2957397"><ele>202.0</ele><time>2026-03-28T09:01:28.21Z</time></trkpt><trkpt lat="43.6902095" lon="11.2957979"><ele>202.0</ele><time>2026-03-28T09:01:29.21Z</time></trkpt><trkpt lat="43.6900834" lon="11.2958536"><ele>203.5</ele><time>2026-03-28T09:01:30.209Z</time></trkpt><trkpt lat="43.6899573" lon="11.2959034"><ele>205.0</ele><time>2026-03-28T09:01:31.21Z</time></trkpt><trkpt lat="43.689828" lon="11.2959465"><ele>206.5</ele><time>2026-03-28T09:01:32.21Z</time></trkpt><trkpt lat="43.6896958" lon="11.2959797"><ele>208.0</ele><time>2026-03-28T09:01:33.211Z</time></trkpt><trkpt lat="43.6895602" lon="11.2960007"><ele>208.5</ele><time>2026-03-28T09:01:34.21Z</time></trkpt><trkpt lat="43.6894206" lon="11.2960077"><ele>209.0</ele><time>2026-03-28T09:01:35.211Z</time></trkpt><trkpt lat="43.6892802" lon="11.296005"><ele>209.5</ele><time>2026-03-28T09:01:36.21Z</time></trkpt><trkpt lat="43.6891445" lon="11.2959951"><ele>210.0</ele><time>2026-03-28T09:01:37.21Z</time></trkpt><trkpt lat="43.6890092" lon="11.2959837"><ele>210.0</ele><time>2026-03-28T09:01:38.211Z</time></trkpt><trkpt lat="43.6888761" lon="11.2959747"><ele>210.0</ele><time>2026-03-28T09:01:39.211Z</time></trkpt><trkpt lat="43.6887442" lon="11.2959707"><ele>210.0</ele><time>2026-03-28T09:01:40.211Z</time></trkpt><trkpt lat="43.6886138" lon="11.29597"><ele>210.0</ele><time>2026-03-28T09:01:41.211Z</time></trkpt><trkpt lat="43.6884755" lon="11.2959793"><ele>208.75</ele><time>2026-03-28T09:01:42.21Z</time></trkpt><trkpt lat="43.688339" lon="11.2960038"><ele>207.5</ele><time>2026-03-28T09:01:43.209Z</time></trkpt><trkpt lat="43.6882069" lon="11.2960318"><ele>206.25</ele><time>2026-03-28T09:01:44.21Z</time></trkpt><trkpt lat="43.6880746" lon="11.2960643"><ele>205.0</ele><time>2026-03-28T09:01:45.211Z</time></trkpt><trkpt lat="43.6879457" lon="11.2960992"><ele>205.0</ele><time>2026-03-28T09:01:46.211Z</time></trkpt><trkpt lat="43.6878181" lon="11.2961331"><ele>205.0</ele><time>2026-03-28T09:01:47.21Z</time></trkpt><trkpt lat="43.687687" lon="11.2961661"><ele>205.0</ele><time>2026-03-28T09:01:48.21Z</time></trkpt><trkpt lat="43.6875521" lon="11.2961998"><ele>205.0</ele><time>2026-03-28T09:01:49.211Z</time></trkpt><trkpt lat="43.6874152" lon="11.2962332"><ele>204.75</ele><time>2026-03-28T09:01:50.211Z</time></trkpt><trkpt lat="43.6872804" lon="11.2962655"><ele>204.5</ele><time>2026-03-28T09:01:51.209Z</time></trkpt><trkpt lat="43.6871486" lon="11.2962965"><ele>204.25</ele><time>2026-03-28T09:01:52.21Z</time></trkpt><trkpt lat="43.6870147" lon="11.29632"><ele>204.0</ele><time>2026-03-28T09:01:53.21Z</time></trkpt><trkpt lat="43.6868792" lon="11.2963273"><ele>204.0</ele><time>2026-03-28T09:01:54.211Z</time></trkpt><trkpt lat="43.6867542" lon="11.2963223"><ele>204.0</ele><time>2026-03-28T09:01:55.211Z</time></trkpt><trkpt lat="43.6866321" lon="11.2963186"><ele>204.0</ele><time>2026-03-28T09:01:56.211Z</time></trkpt><trkpt lat="43.6865108" lon="11.2963168"><ele>204.0</ele><time>2026-03-28T09:01:57.21Z</time></trkpt><trkpt lat="43.6863869" lon="11.2963105"><ele>204.0</ele><time>2026-03-28T09:01:58.211Z</time></trkpt><trkpt lat="43.6862604" lon="11.2963028"><ele>204.0</ele><time>2026-03-28T09:01:59.21Z</time></trkpt><trkpt lat="43.6861333" lon="11.2962894"><ele>204.0</ele><time>2026-03-28T09:02:00.21Z</time></trkpt><trkpt lat="43.6860042" lon="11.296278"><ele>204.0</ele><time>2026-03-28T09:02:01.21Z</time></trkpt><trkpt lat="43.6858804" lon="11.2962589"><ele>206.25</ele><time>2026-03-28T09:02:02.211Z</time></trkpt><trkpt lat="43.6857657" lon="11.2962092"><ele>208.5</ele><time>2026-03-28T09:02:03.21Z</time></trkpt><trkpt lat="43.6856602" lon="11.2961385"><ele>210.75</ele><time>2026-03-28T09:02:04.21Z</time></trkpt><trkpt lat="43.6855597" lon="11.2960555"><ele>213.0</ele><time>2026-03-28T09:02:05.211Z</time></trkpt><trkpt lat="43.685459" lon="11.2959705"><ele>213.0</ele><time>2026-03-28T09:02:06.211Z</time></trkpt><trkpt lat="43.6853524" lon="11.2958912"><ele>213.0</ele><time>2026-03-28T09:02:07.21Z</time></trkpt><trkpt lat="43.6852583" lon="11.2958165"><ele>213.0</ele><time>2026-03-28T09:02:08.211Z</time></trkpt><trkpt lat="43.6851603" lon="11.2957423"><ele>213.0</ele><time>2026-03-28T09:02:09.21Z</time></trkpt><trkpt lat="43.6850561" lon="11.2956653"><ele>216.0</ele><time>2026-03-28T09:02:10.211Z</time></trkpt><trkpt lat="43.6849511" lon="11.2955783"><ele>219.0</ele><time>2026-03-28T09:02:11.21Z</time></trkpt><trkpt lat="43.6848494" lon="11.2954809"><ele>222.0</ele><time>2026-03-28T09:02:12.21Z</time></trkpt><trkpt lat="43.6847531" lon="11.2953702"><ele>225.0</ele><time>2026-03-28T09:02:13.211Z</time></trkpt><trkpt lat="43.6846647" lon="11.2952439"><ele>225.0</ele><time>2026-03-28T09:02:14.211Z</time></trkpt><trkpt lat="43.6845885" lon="11.2951079"><ele>225.0</ele><time>2026-03-28T09:02:15.21Z</time></trkpt><trkpt lat="43.6845306" lon="11.2949745"><ele>225.0</ele><time>2026-03-28T09:02:16.21Z</time></trkpt><trkpt lat="43.6844853" lon="11.2948289"><ele>225.0</ele><time>2026-03-28T09:02:17.21Z</time></trkpt><trkpt lat="43.6844374" lon="11.2946767"><ele>225.2</ele><time>2026-03-28T09:02:18.211Z</time></trkpt><trkpt lat="43.6843917" lon="11.2945396"><ele>225.4</ele><time>2026-03-28T09:02:19.211Z</time></trkpt><trkpt lat="43.6843464" lon="11.294405"><ele>225.60000000000002</ele><time>2026-03-28T09:02:20.21Z</time></trkpt><trkpt lat="43.6842939" lon="11.2942806"><ele>225.8</ele><time>2026-03-28T09:02:21.21Z</time></trkpt><trkpt lat="43.6842204" lon="11.2941628"><ele>226.0</ele><time>2026-03-28T09:02:22.21Z</time></trkpt><trkpt lat="43.6841293" lon="11.2940549"><ele>226.0</ele><time>2026-03-28T09:02:23.21Z</time></trkpt><trkpt lat="43.6840223" lon="11.2939553"><ele>226.0</ele><time>2026-03-28T09:02:24.21Z</time></trkpt><trkpt lat="43.6839025" lon="11.2938691"><ele>226.0</ele><time>2026-03-28T09:02:25.21Z</time></trkpt><trkpt lat="43.6837712" lon="11.293803"><ele>226.0</ele><time>2026-03-28T09:02:26.211Z</time></trkpt><trkpt lat="43.6836463" lon="11.2937483"><ele>226.0</ele><time>2026-03-28T09:02:27.211Z</time></trkpt><trkpt lat="43.6835261" lon="11.2937031"><ele>226.0</ele><time>2026-03-28T09:02:28.21Z</time></trkpt><trkpt lat="43.6834043" lon="11.2936547"><ele>226.0</ele><time>2026-03-28T09:02:29.21Z</time></trkpt><trkpt lat="43.6832766" lon="11.2935996"><ele>226.0</ele><time>2026-03-28T09:02:30.21Z</time></trkpt><trkpt lat="43.6831443" lon="11.2935382"><ele>226.0</ele><time>2026-03-28T09:02:31.21Z</time></trkpt><trkpt lat="43.683001" lon="11.293475"><ele>226.0</ele><time>2026-03-28T09:02:32.211Z</time></trkpt><trkpt lat="43.6828649" lon="11.2934144"><ele>226.0</ele><time>2026-03-28T09:02:33.211Z</time></trkpt><trkpt lat="43.6827268" lon="11.293353"><ele>226.0</ele><time>2026-03-28T09:02:34.211Z</time></trkpt><trkpt lat="43.6825977" lon="11.2932938"><ele>226.5</ele><time>2026-03-28T09:02:35.21Z</time></trkpt><trkpt lat="43.6824702" lon="11.2932381"><ele>227.0</ele><time>2026-03-28T09:02:36.211Z</time></trkpt><trkpt lat="43.6823357" lon="11.2931843"><ele>227.5</ele><time>2026-03-28T09:02:37.21Z</time></trkpt><trkpt lat="43.6822078" lon="11.2931326"><ele>228.0</ele><time>2026-03-28T09:02:38.211Z</time></trkpt><trkpt lat="43.682074" lon="11.2930827"><ele>228.0</ele><time>2026-03-28T09:02:39.21Z</time></trkpt><trkpt lat="43.6819389" lon="11.2930403"><ele>228.0</ele><time>2026-03-28T09:02:40.21Z</time></trkpt><trkpt lat="43.681796" lon="11.293003"><ele>228.0</ele><time>2026-03-28T09:02:41.21Z</time></trkpt><trkpt lat="43.6816552" lon="11.2929672"><ele>228.0</ele><time>2026-03-28T09:02:42.211Z</time></trkpt><trkpt lat="43.6815146" lon="11.2929347"><ele>230.0</ele><time>2026-03-28T09:02:43.21Z</time></trkpt><trkpt lat="43.6813693" lon="11.2929124"><ele>232.0</ele><time>2026-03-28T09:02:44.21Z</time></trkpt><trkpt lat="43.6812105" lon="11.2928925"><ele>234.0</ele><time>2026-03-28T09:02:45.21Z</time></trkpt><trkpt lat="43.6810398" lon="11.2928804"><ele>234.0</ele><time>2026-03-28T09:02:46.211Z</time></trkpt><trkpt lat="43.6808516" lon="11.2928721"><ele>234.0</ele><time>2026-03-28T09:02:47.21Z</time></trkpt><trkpt lat="43.6806654" lon="11.2928694"><ele>234.0</ele><time>2026-03-28T09:02:48.21Z</time></trkpt><trkpt lat="43.6804821" lon="11.292862"><ele>234.0</ele><time>2026-03-28T09:02:49.21Z</time></trkpt><trkpt lat="43.6802961" lon="11.2928511"><ele>234.0</ele><time>2026-03-28T09:02:50.21Z</time></trkpt><trkpt lat="43.6801044" lon="11.2928474"><ele>234.0</ele><time>2026-03-28T09:02:51.21Z</time></trkpt><trkpt lat="43.6799106" lon="11.2928437"><ele>233.66666666666669</ele><time>2026-03-28T09:02:52.21Z</time></trkpt><trkpt lat="43.6797258" lon="11.2928412"><ele>233.33333333333334</ele><time>2026-03-28T09:02:53.21Z</time></trkpt><trkpt lat="43.6795307" lon="11.2928391"><ele>233.0</ele><time>2026-03-28T09:02:54.21Z</time></trkpt><trkpt lat="43.6793278" lon="11.2928352"><ele>233.66666666666669</ele><time>2026-03-28T09:02:55.211Z</time></trkpt><trkpt lat="43.6791317" lon="11.2928335"><ele>234.33333333333331</ele><time>2026-03-28T09:02:56.211Z</time></trkpt><trkpt lat="43.6789325" lon="11.2928319"><ele>235.0</ele><time>2026-03-28T09:02:57.211Z</time></trkpt><trkpt lat="43.6787364" lon="11.2928309"><ele>237.33333333333331</ele><time>2026-03-28T09:02:58.211Z</time></trkpt><trkpt lat="43.6785439" lon="11.2928316"><ele>239.66666666666669</ele><time>2026-03-28T09:02:59.21Z</time></trkpt><trkpt lat="43.6783551" lon="11.2928265"><ele>242.0</ele><time>2026-03-28T09:03:00.21Z</time></trkpt><trkpt lat="43.6781647" lon="11.2928232"><ele>242.0</ele><time>2026-03-28T09:03:01.211Z</time></trkpt><trkpt lat="43.6779734" lon="11.2928217"><ele>242.0</ele><time>2026-03-28T09:03:02.21Z</time></trkpt><trkpt lat="43.677778" lon="11.2928192"><ele>242.0</ele><time>2026-03-28T09:03:03.211Z</time></trkpt><trkpt lat="43.6775801" lon="11.2928181"><ele>240.66666666666669</ele><time>2026-03-28T09:03:04.21Z</time></trkpt><trkpt lat="43.6773834" lon="11.2928141"><ele>239.33333333333331</ele><time>2026-03-28T09:03:05.211Z</time></trkpt><trkpt lat="43.6771969" lon="11.2928102"><ele>238.0</ele><time>2026-03-28T09:03:06.211Z</time></trkpt><trkpt lat="43.6770066" lon="11.292805"><ele>239.0</ele><time>2026-03-28T09:03:07.211Z</time></trkpt><trkpt lat="43.6768171" lon="11.2927808"><ele>240.0</ele><time>2026-03-28T09:03:08.21Z</time></trkpt><trkpt lat="43.6766341" lon="11.292729"><ele>241.0</ele><time>2026-03-28T09:03:09.21Z</time></trkpt><trkpt lat="43.6764678" lon="11.2926596"><ele>241.0</ele><time>2026-03-28T09:03:10.211Z</time></trkpt><trkpt lat="43.6763104" lon="11.2925683"><ele>241.0</ele><time>2026-03-28T09:03:11.21Z</time></trkpt><trkpt lat="43.6761503" lon="11.2924562"><ele>241.0</ele><time>2026-03-28T09:03:12.21Z</time></trkpt><trkpt lat="43.6759859" lon="11.2923488"><ele>241.0</ele><time>2026-03-28T09:03:13.211Z</time></trkpt><trkpt lat="43.675822" lon="11.292264"><ele>241.0</ele><time>2026-03-28T09:03:14.21Z</time></trkpt><trkpt lat="43.6756542" lon="11.2922054"><ele>241.0</ele><time>2026-03-28T09:03:15.211Z</time></trkpt><trkpt lat="43.6754868" lon="11.292172"><ele>241.0</ele><time>2026-03-28T09:03:16.21Z</time></trkpt><trkpt lat="43.6753191" lon="11.2921554"><ele>241.0</ele><time>2026-03-28T09:03:17.21Z</time></trkpt><trkpt lat="43.6751432" lon="11.2921384"><ele>241.0</ele><time>2026-03-28T09:03:18.211Z</time></trkpt><trkpt lat="43.6749613" lon="11.2921044"><ele>242.66666666666666</ele><time>2026-03-28T09:03:19.21Z</time></trkpt><trkpt lat="43.6747766" lon="11.2920652"><ele>244.33333333333331</ele><time>2026-03-28T09:03:20.21Z</time></trkpt><trkpt lat="43.6745953" lon="11.292036"><ele>246.0</ele><time>2026-03-28T09:03:21.21Z</time></trkpt><trkpt lat="43.6744207" lon="11.2920253"><ele>247.66666666666669</ele><time>2026-03-28T09:03:22.211Z</time></trkpt><trkpt lat="43.6742408" lon="11.292014"><ele>249.33333333333334</ele><time>2026-03-28T09:03:23.211Z</time></trkpt><trkpt lat="43.6740601" lon="11.291996"><ele>251.0</ele><time>2026-03-28T09:03:24.21Z</time></trkpt><trkpt lat="43.6738756" lon="11.2919717"><ele>251.0</ele><time>2026-03-28T09:03:25.21Z</time></trkpt><trkpt lat="43.673692" lon="11.291953"><ele>251.0</ele><time>2026-03-28T09:03:26.21Z</time></trkpt><trkpt lat="43.6735153" lon="11.2919366"><ele>251.0</ele><time>2026-03-28T09:03:27.21Z</time></trkpt><trkpt lat="43.6733375" lon="11.2919216"><ele>251.33333333333334</ele><time>2026-03-28T09:03:28.211Z</time></trkpt><trkpt lat="43.673173" lon="11.2919088"><ele>251.66666666666669</ele><time>2026-03-28T09:03:29.21Z</time></trkpt><trkpt lat="43.6730094" lon="11.291903"><ele>252.0</ele><time>2026-03-28T09:03:30.211Z</time></trkpt><trkpt lat="43.6728423" lon="11.2919099"><ele>251.33333333333331</ele><time>2026-03-28T09:03:31.21Z</time></trkpt><trkpt lat="43.6726765" lon="11.2919488"><ele>250.66666666666666</ele><time>2026-03-28T09:03:32.21Z</time></trkpt><trkpt lat="43.6725277" lon="11.2919964"><ele>250.0</ele><time>2026-03-28T09:03:33.211Z</time></trkpt><trkpt lat="43.6723891" lon="11.2920438"><ele>250.0</ele><time>2026-03-28T09:03:34.21Z</time></trkpt><trkpt lat="43.6722584" lon="11.2920934"><ele>250.0</ele><time>2026-03-28T09:03:35.211Z</time></trkpt><trkpt lat="43.6721244" lon="11.2921335"><ele>250.0</ele><time>2026-03-28T09:03:36.211Z</time></trkpt><trkpt lat="43.6719896" lon="11.2921583"><ele>250.0</ele><time>2026-03-28T09:03:37.21Z</time></trkpt><trkpt lat="43.6718485" lon="11.292167"><ele>249.33333333333331</ele><time>2026-03-28T09:03:38.21Z</time></trkpt><trkpt lat="43.6716943" lon="11.292152"><ele>248.66666666666669</ele><time>2026-03-28T09:03:39.21Z</time></trkpt><trkpt lat="43.6715342" lon="11.2921203"><ele>248.0</ele><time>2026-03-28T09:03:40.21Z</time></trkpt><trkpt lat="43.6713668" lon="11.2920858"><ele>248.0</ele><time>2026-03-28T09:03:41.21Z</time></trkpt><trkpt lat="43.671192" lon="11.2920441"><ele>248.0</ele><time>2026-03-28T09:03:42.21Z</time></trkpt><trkpt lat="43.6710047" lon="11.292008"><ele>248.0</ele><time>2026-03-28T09:03:43.21Z</time></trkpt><trkpt lat="43.670811" lon="11.2919971"><ele>248.66666666666669</ele><time>2026-03-28T09:03:44.21Z</time></trkpt><trkpt lat="43.6706118" lon="11.2920123"><ele>249.33333333333331</ele><time>2026-03-28T09:03:45.211Z</time></trkpt><trkpt lat="43.6704266" lon="11.2920444"><ele>250.0</ele><time>2026-03-28T09:03:46.211Z</time></trkpt><trkpt lat="43.6702426" lon="11.2920772"><ele>250.0</ele><time>2026-03-28T09:03:47.211Z</time></trkpt><trkpt lat="43.6700635" lon="11.2921084"><ele>250.0</ele><time>2026-03-28T09:03:48.21Z</time></trkpt><trkpt lat="43.6699003" lon="11.292135"><ele>250.0</ele><time>2026-03-28T09:03:49.211Z</time></trkpt><trkpt lat="43.6697453" lon="11.2921606"><ele>250.0</ele><time>2026-03-28T09:03:50.21Z</time></trkpt><trkpt lat="43.6695868" lon="11.2921878"><ele>250.0</ele><time>2026-03-28T09:03:51.211Z</time></trkpt><trkpt lat="43.6694278" lon="11.292222"><ele>250.0</ele><time>2026-03-28T09:03:52.21Z</time></trkpt><trkpt lat="43.6692617" lon="11.2922557"><ele>247.0</ele><time>2026-03-28T09:03:53.21Z</time></trkpt><trkpt lat="43.669094" lon="11.2922866"><ele>244.0</ele><time>2026-03-28T09:03:54.21Z</time></trkpt><trkpt lat="43.6689253" lon="11.2923192"><ele>241.0</ele><time>2026-03-28T09:03:55.211Z</time></trkpt><trkpt lat="43.6687623" lon="11.2923511"><ele>239.66666666666666</ele><time>2026-03-28T09:03:56.21Z</time></trkpt><trkpt lat="43.6684778" lon="11.2924037"><ele>238.33333333333331</ele><time>2026-03-28T09:03:58.21Z</time></trkpt><trkpt lat="43.6683509" lon="11.2924245"><ele>237.0</ele><time>2026-03-28T09:03:59.21Z</time></trkpt><trkpt lat="43.6682354" lon="11.2924499"><ele>237.0</ele><time>2026-03-28T09:04:00.21Z</time></trkpt><trkpt lat="43.6681238" lon="11.2924744"><ele>237.0</ele><time>2026-03-28T09:04:01.211Z</time></trkpt><trkpt lat="43.6680183" lon="11.2925021"><ele>237.0</ele><time>2026-03-28T09:04:02.211Z</time></trkpt><trkpt lat="43.6679203" lon="11.2925293"><ele>237.0</ele><time>2026-03-28T09:04:03.211Z</time></trkpt><trkpt lat="43.667824" lon="11.292555"><ele>237.0</ele><time>2026-03-28T09:04:04.21Z</time></trkpt><trkpt lat="43.6677252" lon="11.2925858"><ele>237.6</ele><time>2026-03-28T09:04:05.211Z</time></trkpt><trkpt lat="43.6676269" lon="11.2926174"><ele>238.2</ele><time>2026-03-28T09:04:06.21Z</time></trkpt><trkpt lat="43.667524" lon="11.2926542"><ele>238.8</ele><time>2026-03-28T09:04:07.21Z</time></trkpt><trkpt lat="43.6674203" lon="11.2927013"><ele>239.4</ele><time>2026-03-28T09:04:08.21Z</time></trkpt><trkpt lat="43.6673128" lon="11.292748"><ele>240.0</ele><time>2026-03-28T09:04:09.211Z</time></trkpt><trkpt lat="43.6671985" lon="11.2927994"><ele>240.0</ele><time>2026-03-28T09:04:10.21Z</time></trkpt><trkpt lat="43.6670793" lon="11.2928534"><ele>240.0</ele><time>2026-03-28T09:04:11.21Z</time></trkpt><trkpt lat="43.666946" lon="11.2929127"><ele>240.0</ele><time>2026-03-28T09:04:12.209Z</time></trkpt><trkpt lat="43.6668072" lon="11.292972"><ele>240.0</ele><time>2026-03-28T09:04:13.21Z</time></trkpt><trkpt lat="43.6666603" lon="11.2930225"><ele>240.66666666666669</ele><time>2026-03-28T09:04:14.21Z</time></trkpt><trkpt lat="43.6665022" lon="11.2930767"><ele>241.33333333333334</ele><time>2026-03-28T09:04:15.209Z</time></trkpt><trkpt lat="43.6663341" lon="11.2931291"><ele>242.0</ele><time>2026-03-28T09:04:16.21Z</time></trkpt><trkpt lat="43.6661632" lon="11.293187"><ele>241.0</ele><time>2026-03-28T09:04:17.21Z</time></trkpt><trkpt lat="43.6659999" lon="11.2932495"><ele>240.0</ele><time>2026-03-28T09:04:18.21Z</time></trkpt><trkpt lat="43.6658315" lon="11.293304"><ele>239.0</ele><time>2026-03-28T09:04:19.21Z</time></trkpt><trkpt lat="43.6656524" lon="11.2933426"><ele>239.0</ele><time>2026-03-28T09:04:20.211Z</time></trkpt><trkpt lat="43.6654669" lon="11.2933658"><ele>239.0</ele><time>2026-03-28T09:04:21.211Z</time></trkpt><trkpt lat="43.6652819" lon="11.2933875"><ele>239.0</ele><time>2026-03-28T09:04:22.21Z</time></trkpt><trkpt lat="43.6651124" lon="11.2934118"><ele>240.0</ele><time>2026-03-28T09:04:23.21Z</time></trkpt><trkpt lat="43.6649587" lon="11.293442"><ele>241.0</ele><time>2026-03-28T09:04:24.211Z</time></trkpt><trkpt lat="43.6648169" lon="11.2934762"><ele>242.0</ele><time>2026-03-28T09:04:25.211Z</time></trkpt><trkpt lat="43.6646923" lon="11.293506"><ele>243.0</ele><time>2026-03-28T09:04:26.211Z</time></trkpt><trkpt lat="43.66458" lon="11.2935202"><ele>243.0</ele><time>2026-03-28T09:04:27.211Z</time></trkpt><trkpt lat="43.6644702" lon="11.2935026"><ele>243.0</ele><time>2026-03-28T09:04:28.21Z</time></trkpt><trkpt lat="43.6643779" lon="11.2934362"><ele>243.0</ele><time>2026-03-28T09:04:29.211Z</time></trkpt><trkpt lat="43.6642844" lon="11.2933817"><ele>243.0</ele><time>2026-03-28T09:04:30.211Z</time></trkpt><trkpt lat="43.6641768" lon="11.2933769"><ele>243.0</ele><time>2026-03-28T09:04:31.21Z</time></trkpt><trkpt lat="43.6640593" lon="11.2933864"><ele>243.25</ele><time>2026-03-28T09:04:32.209Z</time></trkpt><trkpt lat="43.6639335" lon="11.2933498"><ele>243.5</ele><time>2026-03-28T09:04:33.21Z</time></trkpt><trkpt lat="43.6638045" lon="11.2932974"><ele>243.75</ele><time>2026-03-28T09:04:34.211Z</time></trkpt><trkpt lat="43.6636585" lon="11.2932537"><ele>244.0</ele><time>2026-03-28T09:04:35.21Z</time></trkpt><trkpt lat="43.66351" lon="11.2932345"><ele>242.0</ele><time>2026-03-28T09:04:36.209Z</time></trkpt><trkpt lat="43.6633422" lon="11.2932389"><ele>240.0</ele><time>2026-03-28T09:04:37.21Z</time></trkpt><trkpt lat="43.663175" lon="11.2932565"><ele>238.0</ele><time>2026-03-28T09:04:38.21Z</time></trkpt><trkpt lat="43.6630025" lon="11.293272"><ele>238.0</ele><time>2026-03-28T09:04:39.21Z</time></trkpt><trkpt lat="43.6628397" lon="11.2932751"><ele>238.0</ele><time>2026-03-28T09:04:40.21Z</time></trkpt><trkpt lat="43.6626687" lon="11.2932626"><ele>238.0</ele><time>2026-03-28T09:04:41.211Z</time></trkpt><trkpt lat="43.6624982" lon="11.2932291"><ele>236.0</ele><time>2026-03-28T09:04:42.21Z</time></trkpt><trkpt lat="43.6623352" lon="11.2931796"><ele>234.0</ele><time>2026-03-28T09:04:43.211Z</time></trkpt><trkpt lat="43.6621839" lon="11.2931183"><ele>232.0</ele><time>2026-03-28T09:04:44.21Z</time></trkpt><trkpt lat="43.6620323" lon="11.2930401"><ele>230.0</ele><time>2026-03-28T09:04:45.211Z</time></trkpt><trkpt lat="43.6618812" lon="11.2929518"><ele>228.0</ele><time>2026-03-28T09:04:46.21Z</time></trkpt><trkpt lat="43.6617389" lon="11.2928587"><ele>226.0</ele><time>2026-03-28T09:04:47.21Z</time></trkpt><trkpt lat="43.6615919" lon="11.2927564"><ele>226.0</ele><time>2026-03-28T09:04:48.211Z</time></trkpt><trkpt lat="43.6614344" lon="11.2926535"><ele>226.0</ele><time>2026-03-28T09:04:49.211Z</time></trkpt><trkpt lat="43.6612702" lon="11.2925617"><ele>226.0</ele><time>2026-03-28T09:04:50.21Z</time></trkpt><trkpt lat="43.6610977" lon="11.29249"><ele>225.66666666666666</ele><time>2026-03-28T09:04:51.211Z</time></trkpt><trkpt lat="43.6609272" lon="11.2924384"><ele>225.33333333333331</ele><time>2026-03-28T09:04:52.21Z</time></trkpt><trkpt lat="43.6607531" lon="11.2924197"><ele>225.0</ele><time>2026-03-28T09:04:53.21Z</time></trkpt><trkpt lat="43.6605838" lon="11.2924286"><ele>225.0</ele><time>2026-03-28T09:04:54.21Z</time></trkpt><trkpt lat="43.6604191" lon="11.2924625"><ele>225.0</ele><time>2026-03-28T09:04:55.21Z</time></trkpt><trkpt lat="43.6602661" lon="11.2925196"><ele>225.0</ele><time>2026-03-28T09:04:56.211Z</time></trkpt><trkpt lat="43.66012" lon="11.2926053"><ele>223.75</ele><time>2026-03-28T09:04:57.21Z</time></trkpt><trkpt lat="43.6599854" lon="11.2927145"><ele>222.5</ele><time>2026-03-28T09:04:58.21Z</time></trkpt><trkpt lat="43.6598673" lon="11.2928295"><ele>221.25</ele><time>2026-03-28T09:04:59.21Z</time></trkpt><trkpt lat="43.6597611" lon="11.2929427"><ele>220.0</ele><time>2026-03-28T09:05:00.211Z</time></trkpt><trkpt lat="43.6596665" lon="11.2930455"><ele>221.2</ele><time>2026-03-28T09:05:01.21Z</time></trkpt><trkpt lat="43.65959" lon="11.2931346"><ele>222.4</ele><time>2026-03-28T09:05:02.21Z</time></trkpt><trkpt lat="43.659511" lon="11.2932226"><ele>223.60000000000002</ele><time>2026-03-28T09:05:03.21Z</time></trkpt><trkpt lat="43.6594285" lon="11.2932962"><ele>224.8</ele><time>2026-03-28T09:05:04.211Z</time></trkpt><trkpt lat="43.6593335" lon="11.2933537"><ele>226.0</ele><time>2026-03-28T09:05:05.211Z</time></trkpt><trkpt lat="43.6592547" lon="11.293408"><ele>226.0</ele><time>2026-03-28T09:05:06.21Z</time></trkpt><trkpt lat="43.6591979" lon="11.2935003"><ele>226.00000000000003</ele><time>2026-03-28T09:05:07.21Z</time></trkpt><trkpt lat="43.6591626" lon="11.2936236"><ele>226.00000000000003</ele><time>2026-03-28T09:05:08.21Z</time></trkpt><trkpt lat="43.6591207" lon="11.2937661"><ele>226.0</ele><time>2026-03-28T09:05:09.209Z</time></trkpt><trkpt lat="43.6590417" lon="11.2938871"><ele>226.0</ele><time>2026-03-28T09:05:10.21Z</time></trkpt><trkpt lat="43.6589418" lon="11.2939879"><ele>227.25</ele><time>2026-03-28T09:05:11.21Z</time></trkpt><trkpt lat="43.6588358" lon="11.2940765"><ele>228.5</ele><time>2026-03-28T09:05:12.211Z</time></trkpt><trkpt lat="43.6587265" lon="11.294165"><ele>229.75</ele><time>2026-03-28T09:05:13.21Z</time></trkpt><trkpt lat="43.6586131" lon="11.2942546"><ele>231.0</ele><time>2026-03-28T09:05:14.211Z</time></trkpt><trkpt lat="43.6584964" lon="11.2943461"><ele>231.5</ele><time>2026-03-28T09:05:15.211Z</time></trkpt><trkpt lat="43.6583769" lon="11.29444"><ele>232.0</ele><time>2026-03-28T09:05:16.211Z</time></trkpt><trkpt lat="43.6582527" lon="11.2945396"><ele>232.5</ele><time>2026-03-28T09:05:17.21Z</time></trkpt><trkpt lat="43.6581255" lon="11.294644"><ele>233.0</ele><time>2026-03-28T09:05:18.211Z</time></trkpt><trkpt lat="43.6579957" lon="11.2947547"><ele>233.0</ele><time>2026-03-28T09:05:19.211Z</time></trkpt><trkpt lat="43.6578748" lon="11.2948674"><ele>233.0</ele><time>2026-03-28T09:05:20.211Z</time></trkpt><trkpt lat="43.6577565" lon="11.2949878"><ele>233.0</ele><time>2026-03-28T09:05:21.209Z</time></trkpt><trkpt lat="43.6576489" lon="11.2951069"><ele>233.0</ele><time>2026-03-28T09:05:22.21Z</time></trkpt><trkpt lat="43.6575414" lon="11.295235"><ele>233.0</ele><time>2026-03-28T09:05:23.211Z</time></trkpt><trkpt lat="43.6574345" lon="11.2953798"><ele>233.0</ele><time>2026-03-28T09:05:24.21Z</time></trkpt><trkpt lat="43.6573332" lon="11.295538"><ele>233.0</ele><time>2026-03-28T09:05:25.21Z</time></trkpt><trkpt lat="43.6572314" lon="11.2957144"><ele>233.0</ele><time>2026-03-28T09:05:26.21Z</time></trkpt><trkpt lat="43.6571273" lon="11.2959124"><ele>233.0</ele><time>2026-03-28T09:05:27.21Z</time></trkpt><trkpt lat="43.6570241" lon="11.2961348"><ele>233.0</ele><time>2026-03-28T09:05:28.211Z</time></trkpt><trkpt lat="43.656933" lon="11.2963683"><ele>229.33333333333334</ele><time>2026-03-28T09:05:29.21Z</time></trkpt><trkpt lat="43.6568477" lon="11.296593"><ele>225.66666666666669</ele><time>2026-03-28T09:05:30.209Z</time></trkpt><trkpt lat="43.6567626" lon="11.2968133"><ele>222.0</ele><time>2026-03-28T09:05:31.211Z</time></trkpt><trkpt lat="43.6566752" lon="11.2970389"><ele>221.66666666666669</ele><time>2026-03-28T09:05:32.211Z</time></trkpt><trkpt lat="43.6565869" lon="11.2972644"><ele>221.33333333333334</ele><time>2026-03-28T09:05:33.209Z</time></trkpt><trkpt lat="43.6564962" lon="11.2974803"><ele>221.0</ele><time>2026-03-28T09:05:34.209Z</time></trkpt><trkpt lat="43.6563971" lon="11.2976786"><ele>221.0</ele><time>2026-03-28T09:05:35.21Z</time></trkpt><trkpt lat="43.6562915" lon="11.2978705"><ele>221.0</ele><time>2026-03-28T09:05:36.21Z</time></trkpt><trkpt lat="43.6561738" lon="11.2980683"><ele>221.0</ele><time>2026-03-28T09:05:37.21Z</time></trkpt><trkpt lat="43.6560478" lon="11.2982638"><ele>216.33333333333334</ele><time>2026-03-28T09:05:38.21Z</time></trkpt><trkpt lat="43.6559215" lon="11.298452"><ele>211.66666666666669</ele><time>2026-03-28T09:05:39.21Z</time></trkpt><trkpt lat="43.6557957" lon="11.2986263"><ele>207.0</ele><time>2026-03-28T09:05:40.21Z</time></trkpt><trkpt lat="43.6556669" lon="11.2988001"><ele>207.66666666666669</ele><time>2026-03-28T09:05:41.21Z</time></trkpt><trkpt lat="43.6555373" lon="11.2989718"><ele>208.33333333333334</ele><time>2026-03-28T09:05:42.21Z</time></trkpt><trkpt lat="43.6554064" lon="11.2991397"><ele>209.0</ele><time>2026-03-28T09:05:43.21Z</time></trkpt><trkpt lat="43.6552729" lon="11.2993099"><ele>209.0</ele><time>2026-03-28T09:05:44.21Z</time></trkpt><trkpt lat="43.6551433" lon="11.2994789"><ele>209.0</ele><time>2026-03-28T09:05:45.21Z</time></trkpt><trkpt lat="43.6550164" lon="11.2996418"><ele>209.0</ele><time>2026-03-28T09:05:46.21Z</time></trkpt><trkpt lat="43.6548993" lon="11.2997896"><ele>212.33333333333334</ele><time>2026-03-28T09:05:47.21Z</time></trkpt><trkpt lat="43.6547825" lon="11.2999368"><ele>215.66666666666669</ele><time>2026-03-28T09:05:48.21Z</time></trkpt><trkpt lat="43.6546647" lon="11.3000809"><ele>219.0</ele><time>2026-03-28T09:05:49.211Z</time></trkpt><trkpt lat="43.6545433" lon="11.3002231"><ele>216.66666666666669</ele><time>2026-03-28T09:05:50.211Z</time></trkpt><trkpt lat="43.6544215" lon="11.3003732"><ele>214.33333333333334</ele><time>2026-03-28T09:05:51.211Z</time></trkpt><trkpt lat="43.6543128" lon="11.3005269"><ele>212.0</ele><time>2026-03-28T09:05:52.21Z</time></trkpt><trkpt lat="43.6542115" lon="11.3006922"><ele>212.0</ele><time>2026-03-28T09:05:53.21Z</time></trkpt><trkpt lat="43.6541214" lon="11.3008707"><ele>212.0</ele><time>2026-03-28T09:05:54.211Z</time></trkpt><trkpt lat="43.6540448" lon="11.3010652"><ele>212.0</ele><time>2026-03-28T09:05:55.21Z</time></trkpt><trkpt lat="43.6539807" lon="11.3012805"><ele>213.0</ele><time>2026-03-28T09:05:56.211Z</time></trkpt><trkpt lat="43.6539309" lon="11.3015079"><ele>214.0</ele><time>2026-03-28T09:05:57.21Z</time></trkpt><trkpt lat="43.6538903" lon="11.3017523"><ele>215.0</ele><time>2026-03-28T09:05:58.21Z</time></trkpt><trkpt lat="43.6538518" lon="11.3020093"><ele>215.66666666666669</ele><time>2026-03-28T09:05:59.21Z</time></trkpt><trkpt lat="43.6538118" lon="11.3022765"><ele>216.33333333333331</ele><time>2026-03-28T09:06:00.211Z</time></trkpt><trkpt lat="43.6537713" lon="11.302551"><ele>217.0</ele><time>2026-03-28T09:06:01.211Z</time></trkpt><trkpt lat="43.6537291" lon="11.30283"><ele>214.66666666666666</ele><time>2026-03-28T09:06:02.21Z</time></trkpt><trkpt lat="43.6536883" lon="11.3030942"><ele>212.33333333333331</ele><time>2026-03-28T09:06:03.21Z</time></trkpt><trkpt lat="43.6536442" lon="11.3033592"><ele>210.0</ele><time>2026-03-28T09:06:04.21Z</time></trkpt><trkpt lat="43.6535991" lon="11.3036301"><ele>207.0</ele><time>2026-03-28T09:06:05.211Z</time></trkpt><trkpt lat="43.6535548" lon="11.3039039"><ele>204.0</ele><time>2026-03-28T09:06:06.21Z</time></trkpt><trkpt lat="43.6535002" lon="11.3041748"><ele>201.0</ele><time>2026-03-28T09:06:07.211Z</time></trkpt><trkpt lat="43.6534316" lon="11.3044376"><ele>201.0</ele><time>2026-03-28T09:06:08.211Z</time></trkpt><trkpt lat="43.6533549" lon="11.3046971"><ele>201.0</ele><time>2026-03-28T09:06:09.211Z</time></trkpt><trkpt lat="43.6532704" lon="11.3049535"><ele>201.0</ele><time>2026-03-28T09:06:10.211Z</time></trkpt><trkpt lat="43.6531845" lon="11.3052018"><ele>203.33333333333331</ele><time>2026-03-28T09:06:11.211Z</time></trkpt><trkpt lat="43.6531019" lon="11.3054323"><ele>205.66666666666666</ele><time>2026-03-28T09:06:12.21Z</time></trkpt><trkpt lat="43.6530206" lon="11.3056638"><ele>208.0</ele><time>2026-03-28T09:06:13.21Z</time></trkpt><trkpt lat="43.6529425" lon="11.3058884"><ele>208.66666666666666</ele><time>2026-03-28T09:06:14.211Z</time></trkpt><trkpt lat="43.6528724" lon="11.3061061"><ele>209.33333333333331</ele><time>2026-03-28T09:06:15.21Z</time></trkpt><trkpt lat="43.6528002" lon="11.3063356"><ele>210.0</ele><time>2026-03-28T09:06:16.21Z</time></trkpt><trkpt lat="43.652721" lon="11.3065666"><ele>210.0</ele><time>2026-03-28T09:06:17.21Z</time></trkpt><trkpt lat="43.6526412" lon="11.3067756"><ele>210.0</ele><time>2026-03-28T09:06:18.21Z</time></trkpt><trkpt lat="43.6525605" lon="11.3069839"><ele>210.0</ele><time>2026-03-28T09:06:19.21Z</time></trkpt><trkpt lat="43.6524812" lon="11.3071983"><ele>211.0</ele><time>2026-03-28T09:06:20.21Z</time></trkpt><trkpt lat="43.6524057" lon="11.3074004"><ele>212.0</ele><time>2026-03-28T09:06:21.21Z</time></trkpt><trkpt lat="43.652324" lon="11.3076044"><ele>213.0</ele><time>2026-03-28T09:06:22.21Z</time></trkpt><trkpt lat="43.6522361" lon="11.3078123"><ele>213.0</ele><time>2026-03-28T09:06:23.211Z</time></trkpt><trkpt lat="43.652146" lon="11.3080226"><ele>213.0</ele><time>2026-03-28T09:06:24.211Z</time></trkpt><trkpt lat="43.6520477" lon="11.3082307"><ele>213.0</ele><time>2026-03-28T09:06:25.21Z</time></trkpt><trkpt lat="43.6519389" lon="11.3084288"><ele>213.33333333333331</ele><time>2026-03-28T09:06:26.211Z</time></trkpt><trkpt lat="43.6518213" lon="11.3086182"><ele>213.66666666666666</ele><time>2026-03-28T09:06:27.211Z</time></trkpt><trkpt lat="43.6516963" lon="11.3088001"><ele>214.0</ele><time>2026-03-28T09:06:28.21Z</time></trkpt><trkpt lat="43.6515595" lon="11.3089675"><ele>214.33333333333331</ele><time>2026-03-28T09:06:29.21Z</time></trkpt><trkpt lat="43.6514117" lon="11.3091168"><ele>214.66666666666669</ele><time>2026-03-28T09:06:30.21Z</time></trkpt><trkpt lat="43.6512579" lon="11.3092581"><ele>215.0</ele><time>2026-03-28T09:06:31.211Z</time></trkpt><trkpt lat="43.6511025" lon="11.3093963"><ele>216.0</ele><time>2026-03-28T09:06:32.211Z</time></trkpt><trkpt lat="43.6509537" lon="11.3095313"><ele>217.0</ele><time>2026-03-28T09:06:33.211Z</time></trkpt><trkpt lat="43.6508026" lon="11.3096724"><ele>218.0</ele><time>2026-03-28T09:06:34.21Z</time></trkpt><trkpt lat="43.6506479" lon="11.3098158"><ele>218.66666666666669</ele><time>2026-03-28T09:06:35.211Z</time></trkpt><trkpt lat="43.6504904" lon="11.3099629"><ele>219.33333333333331</ele><time>2026-03-28T09:06:36.211Z</time></trkpt><trkpt lat="43.6503306" lon="11.3101107"><ele>220.0</ele><time>2026-03-28T09:06:37.21Z</time></trkpt><trkpt lat="43.650177" lon="11.3102541"><ele>220.66666666666666</ele><time>2026-03-28T09:06:38.21Z</time></trkpt><trkpt lat="43.6500213" lon="11.3103978"><ele>221.33333333333331</ele><time>2026-03-28T09:06:39.21Z</time></trkpt><trkpt lat="43.6498734" lon="11.3105354"><ele>222.0</ele><time>2026-03-28T09:06:40.21Z</time></trkpt><trkpt lat="43.6497307" lon="11.3106701"><ele>223.33333333333331</ele><time>2026-03-28T09:06:41.21Z</time></trkpt><trkpt lat="43.6495811" lon="11.3107913"><ele>224.66666666666666</ele><time>2026-03-28T09:06:42.21Z</time></trkpt><trkpt lat="43.649414" lon="11.3108741"><ele>226.0</ele><time>2026-03-28T09:06:43.21Z</time></trkpt><trkpt lat="43.6492385" lon="11.3109253"><ele>226.66666666666666</ele><time>2026-03-28T09:06:44.21Z</time></trkpt><trkpt lat="43.6490574" lon="11.3109603"><ele>227.33333333333331</ele><time>2026-03-28T09:06:45.21Z</time></trkpt><trkpt lat="43.6488755" lon="11.3109981"><ele>228.0</ele><time>2026-03-28T09:06:46.21Z</time></trkpt><trkpt lat="43.6486942" lon="11.3110354"><ele>229.33333333333331</ele><time>2026-03-28T09:06:47.211Z</time></trkpt><trkpt lat="43.6485138" lon="11.3110705"><ele>230.66666666666666</ele><time>2026-03-28T09:06:48.211Z</time></trkpt><trkpt lat="43.6483347" lon="11.3111053"><ele>232.0</ele><time>2026-03-28T09:06:49.21Z</time></trkpt><trkpt lat="43.6481541" lon="11.3111432"><ele>232.0</ele><time>2026-03-28T09:06:50.21Z</time></trkpt><trkpt lat="43.6479749" lon="11.3111879"><ele>232.0</ele><time>2026-03-28T09:06:51.21Z</time></trkpt><trkpt lat="43.6477946" lon="11.3112311"><ele>232.0</ele><time>2026-03-28T09:06:52.21Z</time></trkpt><trkpt lat="43.6476135" lon="11.3112763"><ele>233.33333333333331</ele><time>2026-03-28T09:06:53.21Z</time></trkpt><trkpt lat="43.6474419" lon="11.3113266"><ele>234.66666666666669</ele><time>2026-03-28T09:06:54.211Z</time></trkpt><trkpt lat="43.6472739" lon="11.3113807"><ele>236.0</ele><time>2026-03-28T09:06:55.21Z</time></trkpt><trkpt lat="43.647105" lon="11.3114387"><ele>239.0</ele><time>2026-03-28T09:06:56.211Z</time></trkpt><trkpt lat="43.646932" lon="11.3114982"><ele>242.0</ele><time>2026-03-28T09:06:57.21Z</time></trkpt><trkpt lat="43.6467555" lon="11.3115563"><ele>245.0</ele><time>2026-03-28T09:06:58.21Z</time></trkpt><trkpt lat="43.6465792" lon="11.3116161"><ele>245.0</ele><time>2026-03-28T09:06:59.21Z</time></trkpt><trkpt lat="43.6464029" lon="11.3116816"><ele>245.0</ele><time>2026-03-28T09:07:00.21Z</time></trkpt><trkpt lat="43.6462285" lon="11.3117555"><ele>245.0</ele><time>2026-03-28T09:07:01.21Z</time></trkpt><trkpt lat="43.6460641" lon="11.3118364"><ele>244.33333333333334</ele><time>2026-03-28T09:07:02.21Z</time></trkpt><trkpt lat="43.6458972" lon="11.3119256"><ele>243.66666666666669</ele><time>2026-03-28T09:07:03.21Z</time></trkpt><trkpt lat="43.6457221" lon="11.3120102"><ele>243.0</ele><time>2026-03-28T09:07:04.211Z</time></trkpt><trkpt lat="43.645541" lon="11.3120843"><ele>243.0</ele><time>2026-03-28T09:07:05.211Z</time></trkpt><trkpt lat="43.6453566" lon="11.3121375"><ele>243.0</ele><time>2026-03-28T09:07:06.21Z</time></trkpt><trkpt lat="43.6451845" lon="11.3121712"><ele>243.0</ele><time>2026-03-28T09:07:07.21Z</time></trkpt><trkpt lat="43.6450075" lon="11.3122026"><ele>243.0</ele><time>2026-03-28T09:07:08.21Z</time></trkpt><trkpt lat="43.6448291" lon="11.3122315"><ele>243.0</ele><time>2026-03-28T09:07:09.21Z</time></trkpt><trkpt lat="43.6446488" lon="11.3122645"><ele>243.0</ele><time>2026-03-28T09:07:10.211Z</time></trkpt><trkpt lat="43.6444699" lon="11.3122978"><ele>246.33333333333331</ele><time>2026-03-28T09:07:11.21Z</time></trkpt><trkpt lat="43.6442898" lon="11.3123272"><ele>249.66666666666666</ele><time>2026-03-28T09:07:12.21Z</time></trkpt><trkpt lat="43.6441078" lon="11.3123598"><ele>253.0</ele><time>2026-03-28T09:07:13.21Z</time></trkpt><trkpt lat="43.6439267" lon="11.312388"><ele>253.0</ele><time>2026-03-28T09:07:14.211Z</time></trkpt><trkpt lat="43.6437454" lon="11.3124145"><ele>253.0</ele><time>2026-03-28T09:07:15.21Z</time></trkpt><trkpt lat="43.6435625" lon="11.3124391"><ele>253.0</ele><time>2026-03-28T09:07:16.21Z</time></trkpt><trkpt lat="43.6433811" lon="11.3124614"><ele>253.33333333333331</ele><time>2026-03-28T09:07:17.211Z</time></trkpt><trkpt lat="43.6432034" lon="11.3124931"><ele>253.66666666666669</ele><time>2026-03-28T09:07:18.21Z</time></trkpt><trkpt lat="43.6430263" lon="11.3125207"><ele>254.0</ele><time>2026-03-28T09:07:19.211Z</time></trkpt><trkpt lat="43.6428476" lon="11.3125495"><ele>255.66666666666669</ele><time>2026-03-28T09:07:20.211Z</time></trkpt><trkpt lat="43.6426664" lon="11.3125894"><ele>257.3333333333333</ele><time>2026-03-28T09:07:21.21Z</time></trkpt><trkpt lat="43.6424828" lon="11.3126147"><ele>259.0</ele><time>2026-03-28T09:07:22.211Z</time></trkpt><trkpt lat="43.6422956" lon="11.3126525"><ele>259.0</ele><time>2026-03-28T09:07:23.21Z</time></trkpt><trkpt lat="43.6421098" lon="11.3126845"><ele>259.0</ele><time>2026-03-28T09:07:24.21Z</time></trkpt><trkpt lat="43.641933" lon="11.3127103"><ele>259.0</ele><time>2026-03-28T09:07:25.21Z</time></trkpt><trkpt lat="43.6417623" lon="11.3127377"><ele>261.3333333333333</ele><time>2026-03-28T09:07:26.21Z</time></trkpt><trkpt lat="43.6415903" lon="11.3127735"><ele>263.6666666666667</ele><time>2026-03-28T09:07:27.21Z</time></trkpt><trkpt lat="43.6414149" lon="11.3128189"><ele>266.0</ele><time>2026-03-28T09:07:28.21Z</time></trkpt><trkpt lat="43.64124" lon="11.312876"><ele>267.33333333333337</ele><time>2026-03-28T09:07:29.211Z</time></trkpt><trkpt lat="43.6410709" lon="11.3129629"><ele>268.6666666666667</ele><time>2026-03-28T09:07:30.211Z</time></trkpt><trkpt lat="43.6409209" lon="11.3130581"><ele>270.0</ele><time>2026-03-28T09:07:31.211Z</time></trkpt><trkpt lat="43.640764" lon="11.3131497"><ele>270.0</ele><time>2026-03-28T09:07:32.21Z</time></trkpt><trkpt lat="43.6406001" lon="11.3132342"><ele>270.0</ele><time>2026-03-28T09:07:33.21Z</time></trkpt><trkpt lat="43.6404243" lon="11.3132952"><ele>270.0</ele><time>2026-03-28T09:07:34.21Z</time></trkpt><trkpt lat="43.6402542" lon="11.3133214"><ele>272.0</ele><time>2026-03-28T09:07:35.21Z</time></trkpt><trkpt lat="43.6400994" lon="11.3133394"><ele>274.0</ele><time>2026-03-28T09:07:36.211Z</time></trkpt><trkpt lat="43.639954" lon="11.313354"><ele>276.0</ele><time>2026-03-28T09:07:37.21Z</time></trkpt><trkpt lat="43.6398117" lon="11.3133705"><ele>278.0</ele><time>2026-03-28T09:07:38.21Z</time></trkpt><trkpt lat="43.639669" lon="11.3133919"><ele>278.0</ele><time>2026-03-28T09:07:39.21Z</time></trkpt><trkpt lat="43.6395227" lon="11.3134188"><ele>278.0</ele><time>2026-03-28T09:07:40.211Z</time></trkpt><trkpt lat="43.6393844" lon="11.3134477"><ele>278.0</ele><time>2026-03-28T09:07:41.211Z</time></trkpt><trkpt lat="43.6392468" lon="11.3134854"><ele>278.0</ele><time>2026-03-28T09:07:42.211Z</time></trkpt><trkpt lat="43.6391114" lon="11.3135314"><ele>277.75</ele><time>2026-03-28T09:07:43.21Z</time></trkpt><trkpt lat="43.6389847" lon="11.3135849"><ele>277.5</ele><time>2026-03-28T09:07:44.21Z</time></trkpt><trkpt lat="43.638857" lon="11.3136452"><ele>277.25</ele><time>2026-03-28T09:07:45.21Z</time></trkpt><trkpt lat="43.6387319" lon="11.3137089"><ele>277.0</ele><time>2026-03-28T09:07:46.21Z</time></trkpt><trkpt lat="43.638619" lon="11.3137698"><ele>275.75</ele><time>2026-03-28T09:07:47.211Z</time></trkpt><trkpt lat="43.6385059" lon="11.3138271"><ele>274.5</ele><time>2026-03-28T09:07:48.211Z</time></trkpt><trkpt lat="43.638388" lon="11.3138787"><ele>273.25</ele><time>2026-03-28T09:07:49.21Z</time></trkpt><trkpt lat="43.6382681" lon="11.3139211"><ele>272.0</ele><time>2026-03-28T09:07:50.21Z</time></trkpt><trkpt lat="43.6381433" lon="11.3139494"><ele>274.75</ele><time>2026-03-28T09:07:51.21Z</time></trkpt><trkpt lat="43.638027" lon="11.313964"><ele>277.5</ele><time>2026-03-28T09:07:52.211Z</time></trkpt><trkpt lat="43.6379115" lon="11.3139755"><ele>280.25</ele><time>2026-03-28T09:07:53.21Z</time></trkpt><trkpt lat="43.6377889" lon="11.3139878"><ele>283.0</ele><time>2026-03-28T09:07:54.211Z</time></trkpt><trkpt lat="43.6376604" lon="11.313998"><ele>284.25</ele><time>2026-03-28T09:07:55.211Z</time></trkpt><trkpt lat="43.637524" lon="11.3140112"><ele>285.5</ele><time>2026-03-28T09:07:56.211Z</time></trkpt><trkpt lat="43.6373903" lon="11.3140257"><ele>286.75</ele><time>2026-03-28T09:07:57.211Z</time></trkpt><trkpt lat="43.6372678" lon="11.3140314"><ele>288.0</ele><time>2026-03-28T09:07:58.211Z</time></trkpt><trkpt lat="43.63714" lon="11.3140291"><ele>288.0</ele><time>2026-03-28T09:07:59.21Z</time></trkpt><trkpt lat="43.6370065" lon="11.314011"><ele>288.0</ele><time>2026-03-28T09:08:00.21Z</time></trkpt><trkpt lat="43.6368729" lon="11.3139589"><ele>288.0</ele><time>2026-03-28T09:08:01.21Z</time></trkpt><trkpt lat="43.6367422" lon="11.3138832"><ele>288.0</ele><time>2026-03-28T09:08:02.21Z</time></trkpt><trkpt lat="43.636612" lon="11.3138061"><ele>288.5</ele><time>2026-03-28T09:08:03.209Z</time></trkpt><trkpt lat="43.6364795" lon="11.3137261"><ele>289.0</ele><time>2026-03-28T09:08:04.211Z</time></trkpt><trkpt lat="43.6363459" lon="11.3136496"><ele>289.5</ele><time>2026-03-28T09:08:05.21Z</time></trkpt><trkpt lat="43.6362062" lon="11.3135935"><ele>290.0</ele><time>2026-03-28T09:08:06.211Z</time></trkpt><trkpt lat="43.6360609" lon="11.3135575"><ele>293.33333333333337</ele><time>2026-03-28T09:08:07.211Z</time></trkpt><trkpt lat="43.6359112" lon="11.3135257"><ele>296.6666666666667</ele><time>2026-03-28T09:08:08.21Z</time></trkpt><trkpt lat="43.6357558" lon="11.3134944"><ele>300.0</ele><time>2026-03-28T09:08:09.21Z</time></trkpt><trkpt lat="43.6356103" lon="11.3134611"><ele>300.0</ele><time>2026-03-28T09:08:10.211Z</time></trkpt><trkpt lat="43.6354735" lon="11.313439"><ele>300.0</ele><time>2026-03-28T09:08:11.211Z</time></trkpt><trkpt lat="43.6353289" lon="11.3134455"><ele>300.0</ele><time>2026-03-28T09:08:12.211Z</time></trkpt><trkpt lat="43.6351815" lon="11.3134843"><ele>300.0</ele><time>2026-03-28T09:08:13.21Z</time></trkpt><trkpt lat="43.635035" lon="11.3135606"><ele>300.0</ele><time>2026-03-28T09:08:14.211Z</time></trkpt><trkpt lat="43.6348951" lon="11.3136567"><ele>300.0</ele><time>2026-03-28T09:08:15.21Z</time></trkpt><trkpt lat="43.6347667" lon="11.313752"><ele>300.0</ele><time>2026-03-28T09:08:16.211Z</time></trkpt><trkpt lat="43.6346364" lon="11.3138452"><ele>300.0</ele><time>2026-03-28T09:08:17.211Z</time></trkpt><trkpt lat="43.6345056" lon="11.3139367"><ele>301.25</ele><time>2026-03-28T09:08:18.211Z</time></trkpt><trkpt lat="43.6343726" lon="11.3140008"><ele>302.5</ele><time>2026-03-28T09:08:19.211Z</time></trkpt><trkpt lat="43.6342243" lon="11.3140108"><ele>303.75</ele><time>2026-03-28T09:08:20.211Z</time></trkpt><trkpt lat="43.6340868" lon="11.3139544"><ele>305.0</ele><time>2026-03-28T09:08:21.211Z</time></trkpt><trkpt lat="43.6339554" lon="11.3138684"><ele>304.5</ele><time>2026-03-28T09:08:22.211Z</time></trkpt><trkpt lat="43.63381" lon="11.3137961"><ele>304.0</ele><time>2026-03-28T09:08:23.21Z</time></trkpt><trkpt lat="43.6336596" lon="11.3137595"><ele>303.5</ele><time>2026-03-28T09:08:24.211Z</time></trkpt><trkpt lat="43.633521" lon="11.3137519"><ele>303.0</ele><time>2026-03-28T09:08:25.211Z</time></trkpt><trkpt lat="43.633381" lon="11.3137675"><ele>303.0</ele><time>2026-03-28T09:08:26.21Z</time></trkpt><trkpt lat="43.6332383" lon="11.3138097"><ele>303.0</ele><time>2026-03-28T09:08:27.21Z</time></trkpt><trkpt lat="43.6330892" lon="11.3138536"><ele>303.0</ele><time>2026-03-28T09:08:28.21Z</time></trkpt><trkpt lat="43.6329375" lon="11.3138557"><ele>304.0</ele><time>2026-03-28T09:08:29.21Z</time></trkpt><trkpt lat="43.6327961" lon="11.3138105"><ele>305.0</ele><time>2026-03-28T09:08:30.211Z</time></trkpt><trkpt lat="43.6326663" lon="11.3137305"><ele>306.0</ele><time>2026-03-28T09:08:31.21Z</time></trkpt><trkpt lat="43.632541" lon="11.3136345"><ele>307.0</ele><time>2026-03-28T09:08:32.211Z</time></trkpt><trkpt lat="43.6324057" lon="11.3135341"><ele>307.0</ele><time>2026-03-28T09:08:33.209Z</time></trkpt><trkpt lat="43.6322628" lon="11.3134414"><ele>307.0</ele><time>2026-03-28T09:08:34.21Z</time></trkpt><trkpt lat="43.6321232" lon="11.3133637"><ele>307.0</ele><time>2026-03-28T09:08:35.21Z</time></trkpt><trkpt lat="43.6319712" lon="11.3132902"><ele>310.3333333333333</ele><time>2026-03-28T09:08:36.21Z</time></trkpt><trkpt lat="43.6318243" lon="11.3132239"><ele>313.6666666666667</ele><time>2026-03-28T09:08:37.21Z</time></trkpt><trkpt lat="43.6316781" lon="11.3131671"><ele>317.0</ele><time>2026-03-28T09:08:38.21Z</time></trkpt><trkpt lat="43.6315359" lon="11.3131076"><ele>318.0</ele><time>2026-03-28T09:08:39.21Z</time></trkpt><trkpt lat="43.6314021" lon="11.3130179"><ele>319.0</ele><time>2026-03-28T09:08:40.21Z</time></trkpt><trkpt lat="43.631287" lon="11.3129002"><ele>320.0</ele><time>2026-03-28T09:08:41.209Z</time></trkpt><trkpt lat="43.6311867" lon="11.312785"><ele>321.0</ele><time>2026-03-28T09:08:42.211Z</time></trkpt><trkpt lat="43.6310829" lon="11.3126888"><ele>321.0</ele><time>2026-03-28T09:08:43.211Z</time></trkpt><trkpt lat="43.6309629" lon="11.3126046"><ele>321.0</ele><time>2026-03-28T09:08:44.211Z</time></trkpt><trkpt lat="43.6308358" lon="11.3125333"><ele>321.0</ele><time>2026-03-28T09:08:45.211Z</time></trkpt><trkpt lat="43.6307153" lon="11.3124795"><ele>321.0</ele><time>2026-03-28T09:08:46.21Z</time></trkpt><trkpt lat="43.6306011" lon="11.312431"><ele>321.0</ele><time>2026-03-28T09:08:47.21Z</time></trkpt><trkpt lat="43.630493" lon="11.3123815"><ele>321.0</ele><time>2026-03-28T09:08:48.211Z</time></trkpt><trkpt lat="43.6303996" lon="11.3123376"><ele>321.0</ele><time>2026-03-28T09:08:49.21Z</time></trkpt><trkpt lat="43.6303168" lon="11.3122975"><ele>321.0</ele><time>2026-03-28T09:08:50.21Z</time></trkpt><trkpt lat="43.6302429" lon="11.3122554"><ele>321.0</ele><time>2026-03-28T09:08:51.21Z</time></trkpt><trkpt lat="43.6301715" lon="11.3122178"><ele>321.3333333333333</ele><time>2026-03-28T09:08:52.211Z</time></trkpt><trkpt lat="43.6301024" lon="11.312185"><ele>321.6666666666667</ele><time>2026-03-28T09:08:53.21Z</time></trkpt><trkpt lat="43.6300236" lon="11.312147"><ele>322.0</ele><time>2026-03-28T09:08:54.21Z</time></trkpt><trkpt lat="43.6299382" lon="11.3121027"><ele>322.33333333333337</ele><time>2026-03-28T09:08:55.21Z</time></trkpt><trkpt lat="43.6298545" lon="11.3120535"><ele>322.6666666666667</ele><time>2026-03-28T09:08:56.21Z</time></trkpt><trkpt lat="43.6297883" lon="11.3120032"><ele>323.0</ele><time>2026-03-28T09:08:57.21Z</time></trkpt><trkpt lat="43.62972" lon="11.3119454"><ele>323.0</ele><time>2026-03-28T09:08:58.21Z</time></trkpt><trkpt lat="43.6296521" lon="11.3118829"><ele>323.0</ele><time>2026-03-28T09:08:59.21Z</time></trkpt><trkpt lat="43.6295873" lon="11.3118251"><ele>323.0</ele><time>2026-03-28T09:09:00.21Z</time></trkpt><trkpt lat="43.6294923" lon="11.3117393"><ele>323.0</ele><time>2026-03-28T09:09:02.21Z</time></trkpt><trkpt lat="43.6294074" lon="11.311668"><ele>323.0</ele><time>2026-03-28T09:09:04.211Z</time></trkpt><trkpt lat="43.6292956" lon="11.311612"><ele>326.2</ele><time>2026-03-28T09:09:06.211Z</time></trkpt><trkpt lat="43.6292287" lon="11.3115867"><ele>329.4</ele><time>2026-03-28T09:09:07.211Z</time></trkpt><trkpt lat="43.6291301" lon="11.311558"><ele>332.59999999999997</ele><time>2026-03-28T09:09:09.211Z</time></trkpt><trkpt lat="43.6290119" lon="11.3115436"><ele>335.79999999999995</ele><time>2026-03-28T09:09:11.211Z</time></trkpt><trkpt lat="43.6289032" lon="11.311513"><ele>339.0</ele><time>2026-03-28T09:09:13.21Z</time></trkpt><trkpt lat="43.6288201" lon="11.3115062"><ele>339.0</ele><time>2026-03-28T09:09:15.211Z</time></trkpt><trkpt lat="43.6287337" lon="11.3115935"><ele>339.0</ele><time>2026-03-28T09:09:17.21Z</time></trkpt><trkpt lat="43.6286991" lon="11.3116894"><ele>339.0</ele><time>2026-03-28T09:09:19.211Z</time></trkpt><trkpt lat="43.6286581" lon="11.3118303"><ele>339.0</ele><time>2026-03-28T09:09:21.21Z</time></trkpt><trkpt lat="43.6286164" lon="11.3119649"><ele>339.0</ele><time>2026-03-28T09:09:23.21Z</time></trkpt><trkpt lat="43.6285667" lon="11.3120988"><ele>339.8333333333333</ele><time>2026-03-28T09:09:25.21Z</time></trkpt><trkpt lat="43.6285392" lon="11.3121942"><ele>340.6666666666667</ele><time>2026-03-28T09:09:27.21Z</time></trkpt><trkpt lat="43.6285115" lon="11.3122893"><ele>341.5</ele><time>2026-03-28T09:09:30.21Z</time></trkpt><trkpt lat="43.628515" lon="11.3123961"><ele>342.33333333333337</ele><time>2026-03-28T09:09:43.21Z</time></trkpt><trkpt lat="43.6285335" lon="11.3125143"><ele>343.1666666666667</ele><time>2026-03-28T09:09:45.21Z</time></trkpt><trkpt lat="43.6285892" lon="11.3126594"><ele>344.0</ele><time>2026-03-28T09:09:47.21Z</time></trkpt><trkpt lat="43.628625" lon="11.3127458"><ele>343.83333333333337</ele><time>2026-03-28T09:09:48.211Z</time></trkpt><trkpt lat="43.6286605" lon="11.3128432"><ele>343.6666666666667</ele><time>2026-03-28T09:09:49.21Z</time></trkpt><trkpt lat="43.6286957" lon="11.3129434"><ele>343.5</ele><time>2026-03-28T09:09:50.211Z</time></trkpt><trkpt lat="43.628738" lon="11.3130574"><ele>343.3333333333333</ele><time>2026-03-28T09:09:51.211Z</time></trkpt><trkpt lat="43.6287778" lon="11.3131668"><ele>343.16666666666663</ele><time>2026-03-28T09:09:52.21Z</time></trkpt><trkpt lat="43.6288187" lon="11.3132904"><ele>343.0</ele><time>2026-03-28T09:09:53.211Z</time></trkpt><trkpt lat="43.6288668" lon="11.3134161"><ele>346.75</ele><time>2026-03-28T09:09:54.21Z</time></trkpt><trkpt lat="43.6289229" lon="11.3135544"><ele>350.5</ele><time>2026-03-28T09:09:55.21Z</time></trkpt><trkpt lat="43.6289769" lon="11.3137001"><ele>354.25</ele><time>2026-03-28T09:09:56.21Z</time></trkpt><trkpt lat="43.629038" lon="11.3138573"><ele>358.0</ele><time>2026-03-28T09:09:57.211Z</time></trkpt><trkpt lat="43.6290946" lon="11.3139979"><ele>358.2</ele><time>2026-03-28T09:09:58.21Z</time></trkpt><trkpt lat="43.6291536" lon="11.3141256"><ele>358.4</ele><time>2026-03-28T09:09:59.211Z</time></trkpt><trkpt lat="43.6292137" lon="11.3142498"><ele>358.59999999999997</ele><time>2026-03-28T09:10:00.211Z</time></trkpt><trkpt lat="43.6292742" lon="11.3143768"><ele>358.79999999999995</ele><time>2026-03-28T09:10:01.21Z</time></trkpt><trkpt lat="43.6293522" lon="11.3144892"><ele>359.0</ele><time>2026-03-28T09:10:02.21Z</time></trkpt><trkpt lat="43.6294327" lon="11.3146224"><ele>359.75</ele><time>2026-03-28T09:10:03.211Z</time></trkpt><trkpt lat="43.6295105" lon="11.3147473"><ele>360.5</ele><time>2026-03-28T09:10:04.211Z</time></trkpt><trkpt lat="43.6295995" lon="11.3148913"><ele>361.25</ele><time>2026-03-28T09:10:05.211Z</time></trkpt><trkpt lat="43.6296835" lon="11.315047"><ele>362.0</ele><time>2026-03-28T09:10:06.21Z</time></trkpt><trkpt lat="43.6297817" lon="11.3151972"><ele>362.0</ele><time>2026-03-28T09:10:07.21Z</time></trkpt><trkpt lat="43.6298631" lon="11.3153453"><ele>362.0</ele><time>2026-03-28T09:10:08.21Z</time></trkpt><trkpt lat="43.6299405" lon="11.3154784"><ele>362.0</ele><time>2026-03-28T09:10:09.21Z</time></trkpt><trkpt lat="43.6300196" lon="11.3156036"><ele>362.0</ele><time>2026-03-28T09:10:10.21Z</time></trkpt><trkpt lat="43.6300931" lon="11.3157497"><ele>362.6</ele><time>2026-03-28T09:10:11.21Z</time></trkpt><trkpt lat="43.6301562" lon="11.3158805"><ele>363.20000000000005</ele><time>2026-03-28T09:10:12.21Z</time></trkpt><trkpt lat="43.6302251" lon="11.3160029"><ele>363.8</ele><time>2026-03-28T09:10:13.21Z</time></trkpt><trkpt lat="43.6303103" lon="11.3160956"><ele>364.4</ele><time>2026-03-28T09:10:14.21Z</time></trkpt><trkpt lat="43.6303783" lon="11.3161893"><ele>365.0</ele><time>2026-03-28T09:10:15.21Z</time></trkpt><trkpt lat="43.6304234" lon="11.3162758"><ele>365.0</ele><time>2026-03-28T09:10:16.21Z</time></trkpt><trkpt lat="43.6304576" lon="11.3163787"><ele>365.0</ele><time>2026-03-28T09:10:17.21Z</time></trkpt><trkpt lat="43.6304506" lon="11.3164857"><ele>365.0</ele><time>2026-03-28T09:10:18.211Z</time></trkpt><trkpt lat="43.6304192" lon="11.3165996"><ele>365.0</ele><time>2026-03-28T09:10:19.211Z</time></trkpt><trkpt lat="43.630367" lon="11.3167036"><ele>365.0</ele><time>2026-03-28T09:10:20.21Z</time></trkpt><trkpt lat="43.6303014" lon="11.3167864"><ele>365.0</ele><time>2026-03-28T09:10:21.211Z</time></trkpt><trkpt lat="43.6302316" lon="11.3168339"><ele>363.1666666666667</ele><time>2026-03-28T09:10:22.21Z</time></trkpt><trkpt lat="43.6301407" lon="11.3168732"><ele>361.33333333333337</ele><time>2026-03-28T09:10:23.211Z</time></trkpt><trkpt lat="43.6300712" lon="11.3168815"><ele>359.5</ele><time>2026-03-28T09:10:24.21Z</time></trkpt><trkpt lat="43.6299968" lon="11.3169028"><ele>357.6666666666667</ele><time>2026-03-28T09:10:25.21Z</time></trkpt><trkpt lat="43.6299198" lon="11.3169242"><ele>355.8333333333333</ele><time>2026-03-28T09:10:26.211Z</time></trkpt><trkpt lat="43.6298514" lon="11.3170392"><ele>354.0</ele><time>2026-03-28T09:10:28.211Z</time></trkpt><trkpt lat="43.6298675" lon="11.3172285"><ele>355.0</ele><time>2026-03-28T09:10:30.211Z</time></trkpt><trkpt lat="43.6298904" lon="11.3173368"><ele>356.0</ele><time>2026-03-28T09:10:31.211Z</time></trkpt><trkpt lat="43.6299088" lon="11.3174264"><ele>357.0</ele><time>2026-03-28T09:10:32.211Z</time></trkpt><trkpt lat="43.6298604" lon="11.3175609"><ele>358.0</ele><time>2026-03-28T09:10:34.212Z</time></trkpt><trkpt lat="43.6298093" lon="11.3176165"><ele>359.0</ele><time>2026-03-28T09:10:35.212Z</time></trkpt><trkpt lat="43.6297092" lon="11.3176764"><ele>360.0</ele><time>2026-03-28T09:10:36.212Z</time></trkpt><trkpt lat="43.6296117" lon="11.3177349"><ele>360.0</ele><time>2026-03-28T09:10:37.212Z</time></trkpt><trkpt lat="43.62952" lon="11.3177212"><ele>360.0</ele><time>2026-03-28T09:10:38.211Z</time></trkpt><trkpt lat="43.62943" lon="11.3176937"><ele>360.0</ele><time>2026-03-28T09:10:39.211Z</time></trkpt><trkpt lat="43.6293469" lon="11.3176501"><ele>360.0</ele><time>2026-03-28T09:10:40.211Z</time></trkpt><trkpt lat="43.6292639" lon="11.3176064"><ele>360.0</ele><time>2026-03-28T09:10:41.212Z</time></trkpt><trkpt lat="43.6291854" lon="11.3175816"><ele>360.0</ele><time>2026-03-28T09:10:42.212Z</time></trkpt><trkpt lat="43.6291044" lon="11.3175775"><ele>359.1666666666667</ele><time>2026-03-28T09:10:43.211Z</time></trkpt><trkpt lat="43.6290291" lon="11.3175909"><ele>358.3333333333333</ele><time>2026-03-28T09:10:44.211Z</time></trkpt><trkpt lat="43.6289487" lon="11.3176258"><ele>357.5</ele><time>2026-03-28T09:10:45.211Z</time></trkpt><trkpt lat="43.6288816" lon="11.3176686"><ele>356.66666666666663</ele><time>2026-03-28T09:10:46.211Z</time></trkpt><trkpt lat="43.628804" lon="11.3177387"><ele>355.8333333333333</ele><time>2026-03-28T09:10:47.212Z</time></trkpt><trkpt lat="43.6287479" lon="11.317817"><ele>355.0</ele><time>2026-03-28T09:10:48.211Z</time></trkpt><trkpt lat="43.6287006" lon="11.3179343"><ele>355.0</ele><time>2026-03-28T09:10:49.211Z</time></trkpt><trkpt lat="43.6286937" lon="11.3180372"><ele>355.0</ele><time>2026-03-28T09:10:50.211Z</time></trkpt><trkpt lat="43.6287013" lon="11.3181657"><ele>355.0</ele><time>2026-03-28T09:10:51.211Z</time></trkpt><trkpt lat="43.6287216" lon="11.3182811"><ele>355.0</ele><time>2026-03-28T09:10:52.211Z</time></trkpt><trkpt lat="43.6287528" lon="11.3184049"><ele>355.0</ele><time>2026-03-28T09:10:53.21Z</time></trkpt><trkpt lat="43.6288016" lon="11.3185402"><ele>357.6</ele><time>2026-03-28T09:10:54.212Z</time></trkpt><trkpt lat="43.6288382" lon="11.3186805"><ele>360.2</ele><time>2026-03-28T09:10:55.212Z</time></trkpt><trkpt lat="43.6288646" lon="11.318828"><ele>362.79999999999995</ele><time>2026-03-28T09:10:56.212Z</time></trkpt><trkpt lat="43.6289017" lon="11.3189661"><ele>365.4</ele><time>2026-03-28T09:10:57.21Z</time></trkpt><trkpt lat="43.6289367" lon="11.3191314"><ele>368.0</ele><time>2026-03-28T09:10:58.212Z</time></trkpt><trkpt lat="43.6289771" lon="11.3192812"><ele>369.0</ele><time>2026-03-28T09:10:59.211Z</time></trkpt><trkpt lat="43.629007" lon="11.3194032"><ele>370.0</ele><time>2026-03-28T09:11:00.212Z</time></trkpt><trkpt lat="43.6290248" lon="11.3195338"><ele>371.0</ele><time>2026-03-28T09:11:01.211Z</time></trkpt><trkpt lat="43.6290241" lon="11.3196449"><ele>372.0</ele><time>2026-03-28T09:11:02.21Z</time></trkpt><trkpt lat="43.629026" lon="11.3197435"><ele>373.0</ele><time>2026-03-28T09:11:03.212Z</time></trkpt><trkpt lat="43.6290165" lon="11.319839"><ele>374.0</ele><time>2026-03-28T09:11:04.211Z</time></trkpt><trkpt lat="43.6289344" lon="11.3199215"><ele>373.79999999999995</ele><time>2026-03-28T09:11:06.212Z</time></trkpt><trkpt lat="43.628808" lon="11.3199091"><ele>373.59999999999997</ele><time>2026-03-28T09:11:08.212Z</time></trkpt><trkpt lat="43.6287173" lon="11.3198766"><ele>373.4</ele><time>2026-03-28T09:11:09.211Z</time></trkpt><trkpt lat="43.6286299" lon="11.3198641"><ele>373.2</ele><time>2026-03-28T09:11:10.211Z</time></trkpt><trkpt lat="43.6285476" lon="11.319858"><ele>373.0</ele><time>2026-03-28T09:11:11.21Z</time></trkpt><trkpt lat="43.6284554" lon="11.3198576"><ele>373.0</ele><time>2026-03-28T09:11:12.212Z</time></trkpt><trkpt lat="43.6283832" lon="11.3198652"><ele>373.0</ele><time>2026-03-28T09:11:13.211Z</time></trkpt><trkpt lat="43.6283143" lon="11.3198848"><ele>373.0</ele><time>2026-03-28T09:11:14.21Z</time></trkpt><trkpt lat="43.6282466" lon="11.3199035"><ele>373.0</ele><time>2026-03-28T09:11:15.211Z</time></trkpt><trkpt lat="43.6282" lon="11.3199648"><ele>373.0</ele><time>2026-03-28T09:11:16.211Z</time></trkpt><trkpt lat="43.6281871" lon="11.3200539"><ele>373.0</ele><time>2026-03-28T09:11:17.211Z</time></trkpt><trkpt lat="43.6281625" lon="11.3201473"><ele>373.0</ele><time>2026-03-28T09:11:18.212Z</time></trkpt><trkpt lat="43.6281579" lon="11.3202464"><ele>373.0</ele><time>2026-03-28T09:11:19.211Z</time></trkpt><trkpt lat="43.6281575" lon="11.3203666"><ele>373.0</ele><time>2026-03-28T09:11:20.211Z</time></trkpt><trkpt lat="43.6281445" lon="11.3204804"><ele>373.0</ele><time>2026-03-28T09:11:21.212Z</time></trkpt><trkpt lat="43.6281195" lon="11.3206037"><ele>373.0</ele><time>2026-03-28T09:11:22.212Z</time></trkpt><trkpt lat="43.6280779" lon="11.3207158"><ele>373.0</ele><time>2026-03-28T09:11:23.212Z</time></trkpt><trkpt lat="43.6280312" lon="11.3208175"><ele>373.0</ele><time>2026-03-28T09:11:24.211Z</time></trkpt><trkpt lat="43.6279884" lon="11.3209291"><ele>372.3333333333333</ele><time>2026-03-28T09:11:25.211Z</time></trkpt><trkpt lat="43.6279557" lon="11.3210533"><ele>371.66666666666663</ele><time>2026-03-28T09:11:26.212Z</time></trkpt><trkpt lat="43.6279197" lon="11.3211621"><ele>371.0</ele><time>2026-03-28T09:11:27.212Z</time></trkpt><trkpt lat="43.6278706" lon="11.3212594"><ele>370.3333333333333</ele><time>2026-03-28T09:11:28.211Z</time></trkpt><trkpt lat="43.6277989" lon="11.3213283"><ele>369.6666666666667</ele><time>2026-03-28T09:11:29.211Z</time></trkpt><trkpt lat="43.6277129" lon="11.3213624"><ele>369.0</ele><time>2026-03-28T09:11:30.211Z</time></trkpt><trkpt lat="43.6276241" lon="11.3213949"><ele>369.0</ele><time>2026-03-28T09:11:31.211Z</time></trkpt><trkpt lat="43.6275389" lon="11.3213057"><ele>369.0</ele><time>2026-03-28T09:11:32.211Z</time></trkpt><trkpt lat="43.6274507" lon="11.3212459"><ele>369.0</ele><time>2026-03-28T09:11:33.211Z</time></trkpt><trkpt lat="43.6273606" lon="11.3211785"><ele>369.0</ele><time>2026-03-28T09:11:34.211Z</time></trkpt><trkpt lat="43.6272981" lon="11.3211023"><ele>369.0</ele><time>2026-03-28T09:11:35.211Z</time></trkpt><trkpt lat="43.6271937" lon="11.3210654"><ele>369.0</ele><time>2026-03-28T09:11:37.211Z</time></trkpt><trkpt lat="43.6271426" lon="11.3211605"><ele>369.0</ele><time>2026-03-28T09:11:39.211Z</time></trkpt><trkpt lat="43.6271122" lon="11.3213365"><ele>369.0</ele><time>2026-03-28T09:11:41.212Z</time></trkpt><trkpt lat="43.6271129" lon="11.3214588"><ele>369.0</ele><time>2026-03-28T09:11:42.211Z</time></trkpt><trkpt lat="43.627125" lon="11.3215781"><ele>369.0</ele><time>2026-03-28T09:11:43.211Z</time></trkpt><trkpt lat="43.6271274" lon="11.321676"><ele>370.1666666666667</ele><time>2026-03-28T09:11:44.211Z</time></trkpt><trkpt lat="43.6271268" lon="11.3217783"><ele>371.3333333333333</ele><time>2026-03-28T09:11:45.212Z</time></trkpt><trkpt lat="43.627106" lon="11.3218605"><ele>372.5</ele><time>2026-03-28T09:11:46.212Z</time></trkpt><trkpt lat="43.6270095" lon="11.321881"><ele>373.66666666666663</ele><time>2026-03-28T09:11:48.211Z</time></trkpt><trkpt lat="43.6269046" lon="11.3217994"><ele>374.8333333333333</ele><time>2026-03-28T09:11:50.211Z</time></trkpt><trkpt lat="43.6268528" lon="11.3217181"><ele>376.0</ele><time>2026-03-28T09:11:51.212Z</time></trkpt><trkpt lat="43.6267894" lon="11.3216286"><ele>376.0</ele><time>2026-03-28T09:11:52.211Z</time></trkpt><trkpt lat="43.6267285" lon="11.321533"><ele>376.0</ele><time>2026-03-28T09:11:53.211Z</time></trkpt><trkpt lat="43.6266514" lon="11.3214326"><ele>376.0</ele><time>2026-03-28T09:11:54.212Z</time></trkpt><trkpt lat="43.6265815" lon="11.3212913"><ele>376.0</ele><time>2026-03-28T09:11:55.211Z</time></trkpt><trkpt lat="43.6265312" lon="11.3211478"><ele>376.0</ele><time>2026-03-28T09:11:56.211Z</time></trkpt><trkpt lat="43.6264792" lon="11.3210221"><ele>374.0</ele><time>2026-03-28T09:11:57.212Z</time></trkpt><trkpt lat="43.6264295" lon="11.3209038"><ele>372.0</ele><time>2026-03-28T09:11:58.211Z</time></trkpt><trkpt lat="43.6263766" lon="11.3207843"><ele>370.0</ele><time>2026-03-28T09:11:59.211Z</time></trkpt><trkpt lat="43.6263168" lon="11.3206589"><ele>368.0</ele><time>2026-03-28T09:12:00.211Z</time></trkpt><trkpt lat="43.6262669" lon="11.3205364"><ele>366.0</ele><time>2026-03-28T09:12:01.211Z</time></trkpt><trkpt lat="43.6262176" lon="11.3203911"><ele>365.3333333333333</ele><time>2026-03-28T09:12:02.212Z</time></trkpt><trkpt lat="43.6261678" lon="11.320262"><ele>364.6666666666667</ele><time>2026-03-28T09:12:03.212Z</time></trkpt><trkpt lat="43.6261215" lon="11.3201319"><ele>364.0</ele><time>2026-03-28T09:12:04.211Z</time></trkpt><trkpt lat="43.6260845" lon="11.3200377"><ele>363.33333333333337</ele><time>2026-03-28T09:12:05.212Z</time></trkpt><trkpt lat="43.6260284" lon="11.3199585"><ele>362.6666666666667</ele><time>2026-03-28T09:12:06.212Z</time></trkpt><trkpt lat="43.6259742" lon="11.3198923"><ele>362.0</ele><time>2026-03-28T09:12:07.211Z</time></trkpt><trkpt lat="43.6259109" lon="11.3198397"><ele>362.0</ele><time>2026-03-28T09:12:08.211Z</time></trkpt><trkpt lat="43.6257901" lon="11.3198363"><ele>362.0</ele><time>2026-03-28T09:12:10.211Z</time></trkpt><trkpt lat="43.6257317" lon="11.3198746"><ele>362.0</ele><time>2026-03-28T09:12:11.211Z</time></trkpt><trkpt lat="43.6256779" lon="11.3199446"><ele>362.0</ele><time>2026-03-28T09:12:12.211Z</time></trkpt><trkpt lat="43.6256224" lon="11.3200731"><ele>362.0</ele><time>2026-03-28T09:12:13.211Z</time></trkpt><trkpt lat="43.6255859" lon="11.3202149"><ele>362.0</ele><time>2026-03-28T09:12:14.211Z</time></trkpt><trkpt lat="43.6255453" lon="11.3203847"><ele>362.0</ele><time>2026-03-28T09:12:15.211Z</time></trkpt><trkpt lat="43.6255146" lon="11.3205319"><ele>362.0</ele><time>2026-03-28T09:12:16.212Z</time></trkpt><trkpt lat="43.6254704" lon="11.3206828"><ele>362.0</ele><time>2026-03-28T09:12:17.211Z</time></trkpt><trkpt lat="43.6254282" lon="11.320829"><ele>362.6</ele><time>2026-03-28T09:12:18.211Z</time></trkpt><trkpt lat="43.6253727" lon="11.3209747"><ele>363.20000000000005</ele><time>2026-03-28T09:12:19.212Z</time></trkpt><trkpt lat="43.6253233" lon="11.3211072"><ele>363.8</ele><time>2026-03-28T09:12:20.211Z</time></trkpt><trkpt lat="43.6252861" lon="11.3212442"><ele>364.4</ele><time>2026-03-28T09:12:21.212Z</time></trkpt><trkpt lat="43.6252507" lon="11.3213728"><ele>365.0</ele><time>2026-03-28T09:12:22.211Z</time></trkpt><trkpt lat="43.6252356" lon="11.3215189"><ele>365.0</ele><time>2026-03-28T09:12:23.211Z</time></trkpt><trkpt lat="43.6252227" lon="11.3216637"><ele>365.0</ele><time>2026-03-28T09:12:24.211Z</time></trkpt><trkpt lat="43.6252273" lon="11.3218125"><ele>365.0</ele><time>2026-03-28T09:12:25.211Z</time></trkpt><trkpt lat="43.625249" lon="11.3219395"><ele>365.0</ele><time>2026-03-28T09:12:26.212Z</time></trkpt><trkpt lat="43.6252803" lon="11.3220405"><ele>365.0</ele><time>2026-03-28T09:12:27.212Z</time></trkpt><trkpt lat="43.6252981" lon="11.3221337"><ele>365.0</ele><time>2026-03-28T09:12:28.211Z</time></trkpt><trkpt lat="43.6252824" lon="11.3222557"><ele>365.0</ele><time>2026-03-28T09:12:30.211Z</time></trkpt><trkpt lat="43.6251825" lon="11.3223083"><ele>365.0</ele><time>2026-03-28T09:12:32.211Z</time></trkpt><trkpt lat="43.6251228" lon="11.3222619"><ele>365.0</ele><time>2026-03-28T09:12:33.211Z</time></trkpt><trkpt lat="43.625048" lon="11.3221588"><ele>365.0</ele><time>2026-03-28T09:12:34.211Z</time></trkpt><trkpt lat="43.6249773" lon="11.3220442"><ele>365.0</ele><time>2026-03-28T09:12:35.211Z</time></trkpt><trkpt lat="43.6249093" lon="11.3219331"><ele>365.0</ele><time>2026-03-28T09:12:36.211Z</time></trkpt><trkpt lat="43.6248504" lon="11.3217682"><ele>365.0</ele><time>2026-03-28T09:12:37.212Z</time></trkpt><trkpt lat="43.6248188" lon="11.3216002"><ele>365.0</ele><time>2026-03-28T09:12:38.211Z</time></trkpt><trkpt lat="43.6247524" lon="11.3214408"><ele>362.75</ele><time>2026-03-28T09:12:39.211Z</time></trkpt><trkpt lat="43.6246895" lon="11.3212756"><ele>360.5</ele><time>2026-03-28T09:12:40.212Z</time></trkpt><trkpt lat="43.6246305" lon="11.321103"><ele>358.25</ele><time>2026-03-28T09:12:41.211Z</time></trkpt><trkpt lat="43.6245687" lon="11.3209496"><ele>356.0</ele><time>2026-03-28T09:12:42.212Z</time></trkpt><trkpt lat="43.6245107" lon="11.3208016"><ele>355.0</ele><time>2026-03-28T09:12:43.212Z</time></trkpt><trkpt lat="43.6244526" lon="11.320637"><ele>354.0</ele><time>2026-03-28T09:12:44.212Z</time></trkpt><trkpt lat="43.624402" lon="11.3205003"><ele>353.0</ele><time>2026-03-28T09:12:45.212Z</time></trkpt><trkpt lat="43.6243583" lon="11.3203594"><ele>352.0</ele><time>2026-03-28T09:12:46.21Z</time></trkpt><trkpt lat="43.6243155" lon="11.3202248"><ele>352.0</ele><time>2026-03-28T09:12:47.21Z</time></trkpt><trkpt lat="43.6242819" lon="11.3200919"><ele>352.0</ele><time>2026-03-28T09:12:48.211Z</time></trkpt><trkpt lat="43.6242835" lon="11.3199722"><ele>352.0</ele><time>2026-03-28T09:12:49.211Z</time></trkpt><trkpt lat="43.6242693" lon="11.3198513"><ele>352.0</ele><time>2026-03-28T09:12:50.212Z</time></trkpt><trkpt lat="43.6242564" lon="11.3197472"><ele>352.0</ele><time>2026-03-28T09:12:51.212Z</time></trkpt><trkpt lat="43.6242456" lon="11.3196451"><ele>352.0</ele><time>2026-03-28T09:12:52.212Z</time></trkpt><trkpt lat="43.6242264" lon="11.3195438"><ele>349.5</ele><time>2026-03-28T09:12:53.212Z</time></trkpt><trkpt lat="43.6241904" lon="11.3194667"><ele>347.0</ele><time>2026-03-28T09:12:54.211Z</time></trkpt><trkpt lat="43.6241201" lon="11.3194118"><ele>344.5</ele><time>2026-03-28T09:12:56.211Z</time></trkpt><trkpt lat="43.6240343" lon="11.3193977"><ele>342.0</ele><time>2026-03-28T09:12:58.212Z</time></trkpt><trkpt lat="43.6239505" lon="11.3194128"><ele>339.5</ele><time>2026-03-28T09:13:00.211Z</time></trkpt><trkpt lat="43.6239012" lon="11.3195172"><ele>337.0</ele><time>2026-03-28T09:13:02.211Z</time></trkpt><trkpt lat="43.6238414" lon="11.3196136"><ele>337.0</ele><time>2026-03-28T09:13:04.212Z</time></trkpt><trkpt lat="43.6237722" lon="11.3197138"><ele>337.0</ele><time>2026-03-28T09:13:06.212Z</time></trkpt><trkpt lat="43.6236714" lon="11.319782"><ele>337.0</ele><time>2026-03-28T09:13:08.211Z</time></trkpt><trkpt lat="43.6235521" lon="11.3198053"><ele>337.0</ele><time>2026-03-28T09:13:10.211Z</time></trkpt><trkpt lat="43.6234771" lon="11.3198091"><ele>337.0</ele><time>2026-03-28T09:13:11.211Z</time></trkpt><trkpt lat="43.6233951" lon="11.3197942"><ele>337.8333333333333</ele><time>2026-03-28T09:13:12.212Z</time></trkpt><trkpt lat="43.62332" lon="11.319778"><ele>338.66666666666663</ele><time>2026-03-28T09:13:13.211Z</time></trkpt><trkpt lat="43.6232554" lon="11.3197656"><ele>339.5</ele><time>2026-03-28T09:13:14.212Z</time></trkpt><trkpt lat="43.623182" lon="11.3197453"><ele>340.3333333333333</ele><time>2026-03-28T09:13:15.212Z</time></trkpt><trkpt lat="43.6230639" lon="11.3196547"><ele>341.1666666666667</ele><time>2026-03-28T09:13:17.21Z</time></trkpt><trkpt lat="43.6230091" lon="11.3195805"><ele>342.0</ele><time>2026-03-28T09:13:18.212Z</time></trkpt><trkpt lat="43.6229523" lon="11.3195242"><ele>339.0</ele><time>2026-03-28T09:13:19.211Z</time></trkpt><trkpt lat="43.6228824" lon="11.3194248"><ele>336.0</ele><time>2026-03-28T09:13:21.212Z</time></trkpt><trkpt lat="43.6227882" lon="11.3194428"><ele>333.0</ele><time>2026-03-28T09:13:23.212Z</time></trkpt><trkpt lat="43.6226921" lon="11.3195509"><ele>330.0</ele><time>2026-03-28T09:13:25.211Z</time></trkpt><trkpt lat="43.622643" lon="11.3196443"><ele>327.0</ele><time>2026-03-28T09:13:26.211Z</time></trkpt><trkpt lat="43.6226034" lon="11.3197678"><ele>327.0</ele><time>2026-03-28T09:13:27.212Z</time></trkpt><trkpt lat="43.622566" lon="11.3198876"><ele>327.0</ele><time>2026-03-28T09:13:28.211Z</time></trkpt><trkpt lat="43.6225377" lon="11.320018"><ele>327.0</ele><time>2026-03-28T09:13:29.212Z</time></trkpt><trkpt lat="43.6225071" lon="11.3201695"><ele>327.0</ele><time>2026-03-28T09:13:30.211Z</time></trkpt><trkpt lat="43.6224616" lon="11.3203439"><ele>327.0</ele><time>2026-03-28T09:13:31.211Z</time></trkpt><trkpt lat="43.622405" lon="11.3205241"><ele>329.25</ele><time>2026-03-28T09:13:32.212Z</time></trkpt><trkpt lat="43.6223531" lon="11.3206882"><ele>331.5</ele><time>2026-03-28T09:13:33.211Z</time></trkpt><trkpt lat="43.6222836" lon="11.320821"><ele>333.75</ele><time>2026-03-28T09:13:34.212Z</time></trkpt><trkpt lat="43.6222224" lon="11.3209445"><ele>336.0</ele><time>2026-03-28T09:13:35.211Z</time></trkpt><trkpt lat="43.6221628" lon="11.3210522"><ele>336.0</ele><time>2026-03-28T09:13:36.211Z</time></trkpt><trkpt lat="43.6220839" lon="11.3211373"><ele>336.0</ele><time>2026-03-28T09:13:37.211Z</time></trkpt><trkpt lat="43.6219979" lon="11.3212078"><ele>336.0</ele><time>2026-03-28T09:13:38.211Z</time></trkpt><trkpt lat="43.6219225" lon="11.3212573"><ele>336.0</ele><time>2026-03-28T09:13:39.212Z</time></trkpt><trkpt lat="43.6218488" lon="11.3212885"><ele>336.0</ele><time>2026-03-28T09:13:40.211Z</time></trkpt><trkpt lat="43.6217565" lon="11.3212574"><ele>335.8333333333333</ele><time>2026-03-28T09:13:42.212Z</time></trkpt><trkpt lat="43.6217092" lon="11.3211898"><ele>335.6666666666667</ele><time>2026-03-28T09:13:43.212Z</time></trkpt><trkpt lat="43.621683" lon="11.3210811"><ele>335.5</ele><time>2026-03-28T09:13:44.212Z</time></trkpt><trkpt lat="43.6216755" lon="11.3209692"><ele>335.33333333333337</ele><time>2026-03-28T09:13:45.21Z</time></trkpt><trkpt lat="43.6216331" lon="11.3208548"><ele>335.1666666666667</ele><time>2026-03-28T09:13:46.212Z</time></trkpt><trkpt lat="43.6215853" lon="11.3207779"><ele>335.0</ele><time>2026-03-28T09:13:47.211Z</time></trkpt><trkpt lat="43.6215299" lon="11.3207317"><ele>335.0</ele><time>2026-03-28T09:13:48.211Z</time></trkpt><trkpt lat="43.6214702" lon="11.3207031"><ele>335.0</ele><time>2026-03-28T09:13:49.212Z</time></trkpt><trkpt lat="43.6213475" lon="11.3206921"><ele>335.0</ele><time>2026-03-28T09:13:51.211Z</time></trkpt><trkpt lat="43.6212815" lon="11.3207058"><ele>335.0</ele><time>2026-03-28T09:13:52.212Z</time></trkpt><trkpt lat="43.6212113" lon="11.3207209"><ele>335.0</ele><time>2026-03-28T09:13:53.212Z</time></trkpt><trkpt lat="43.6211304" lon="11.320735"><ele>335.0</ele><time>2026-03-28T09:13:54.211Z</time></trkpt><trkpt lat="43.6210439" lon="11.3207517"><ele>337.5</ele><time>2026-03-28T09:13:55.212Z</time></trkpt><trkpt lat="43.6209573" lon="11.3207669"><ele>340.0</ele><time>2026-03-28T09:13:56.211Z</time></trkpt><trkpt lat="43.6208703" lon="11.3207874"><ele>342.5</ele><time>2026-03-28T09:13:57.211Z</time></trkpt><trkpt lat="43.6207814" lon="11.3208174"><ele>345.0</ele><time>2026-03-28T09:13:58.211Z</time></trkpt><trkpt lat="43.6206985" lon="11.3208541"><ele>347.5</ele><time>2026-03-28T09:13:59.212Z</time></trkpt><trkpt lat="43.6206122" lon="11.3208952"><ele>350.0</ele><time>2026-03-28T09:14:00.211Z</time></trkpt><trkpt lat="43.6205226" lon="11.3209461"><ele>350.0</ele><time>2026-03-28T09:14:01.211Z</time></trkpt><trkpt lat="43.6204278" lon="11.3210014"><ele>350.0</ele><time>2026-03-28T09:14:02.211Z</time></trkpt><trkpt lat="43.6203303" lon="11.3210559"><ele>350.0</ele><time>2026-03-28T09:14:03.211Z</time></trkpt><trkpt lat="43.620237" lon="11.3211079"><ele>350.0</ele><time>2026-03-28T09:14:04.211Z</time></trkpt><trkpt lat="43.6201612" lon="11.3211499"><ele>350.0</ele><time>2026-03-28T09:14:05.211Z</time></trkpt><trkpt lat="43.6200969" lon="11.3211746"><ele>351.8</ele><time>2026-03-28T09:14:06.212Z</time></trkpt><trkpt lat="43.6199883" lon="11.3211203"><ele>353.6</ele><time>2026-03-28T09:14:08.211Z</time></trkpt><trkpt lat="43.6199439" lon="11.3210393"><ele>355.4</ele><time>2026-03-28T09:14:09.211Z</time></trkpt><trkpt lat="43.6198988" lon="11.3209249"><ele>357.2</ele><time>2026-03-28T09:14:10.211Z</time></trkpt><trkpt lat="43.6198578" lon="11.3208123"><ele>359.0</ele><time>2026-03-28T09:14:11.211Z</time></trkpt><trkpt lat="43.619819" lon="11.3207053"><ele>359.0</ele><time>2026-03-28T09:14:12.211Z</time></trkpt><trkpt lat="43.619779" lon="11.3206094"><ele>359.0</ele><time>2026-03-28T09:14:13.211Z</time></trkpt><trkpt lat="43.6197405" lon="11.3205181"><ele>359.0</ele><time>2026-03-28T09:14:14.211Z</time></trkpt><trkpt lat="43.6197109" lon="11.3204255"><ele>359.0</ele><time>2026-03-28T09:14:15.211Z</time></trkpt><trkpt lat="43.6196408" lon="11.3202709"><ele>359.0</ele><time>2026-03-28T09:14:17.211Z</time></trkpt><trkpt lat="43.6195892" lon="11.3201928"><ele>359.0</ele><time>2026-03-28T09:14:18.212Z</time></trkpt><trkpt lat="43.6195315" lon="11.32013"><ele>359.1666666666667</ele><time>2026-03-28T09:14:19.211Z</time></trkpt><trkpt lat="43.6194719" lon="11.3200604"><ele>359.33333333333337</ele><time>2026-03-28T09:14:20.211Z</time></trkpt><trkpt lat="43.6194063" lon="11.3199862"><ele>359.5</ele><time>2026-03-28T09:14:21.212Z</time></trkpt><trkpt lat="43.619343" lon="11.319907"><ele>359.6666666666667</ele><time>2026-03-28T09:14:22.211Z</time></trkpt><trkpt lat="43.6192801" lon="11.3198175"><ele>359.8333333333333</ele><time>2026-03-28T09:14:23.21Z</time></trkpt><trkpt lat="43.6192079" lon="11.319725"><ele>360.0</ele><time>2026-03-28T09:14:24.211Z</time></trkpt><trkpt lat="43.6191268" lon="11.3196242"><ele>359.25</ele><time>2026-03-28T09:14:25.211Z</time></trkpt><trkpt lat="43.6190388" lon="11.3195216"><ele>358.5</ele><time>2026-03-28T09:14:26.211Z</time></trkpt><trkpt lat="43.6189469" lon="11.319406"><ele>357.75</ele><time>2026-03-28T09:14:27.212Z</time></trkpt><trkpt lat="43.6188494" lon="11.3192837"><ele>357.0</ele><time>2026-03-28T09:14:28.211Z</time></trkpt><trkpt lat="43.6187493" lon="11.3191628"><ele>357.0</ele><time>2026-03-28T09:14:29.211Z</time></trkpt><trkpt lat="43.6186533" lon="11.3190483"><ele>357.0</ele><time>2026-03-28T09:14:30.212Z</time></trkpt><trkpt lat="43.6185564" lon="11.3189295"><ele>357.0</ele><time>2026-03-28T09:14:31.211Z</time></trkpt><trkpt lat="43.6184647" lon="11.3188043"><ele>357.0</ele><time>2026-03-28T09:14:32.212Z</time></trkpt><trkpt lat="43.6183838" lon="11.318685"><ele>358.0</ele><time>2026-03-28T09:14:33.211Z</time></trkpt><trkpt lat="43.6183124" lon="11.3185785"><ele>359.0</ele><time>2026-03-28T09:14:34.212Z</time></trkpt><trkpt lat="43.6182308" lon="11.3184868"><ele>360.0</ele><time>2026-03-28T09:14:35.212Z</time></trkpt><trkpt lat="43.6181416" lon="11.3184046"><ele>361.0</ele><time>2026-03-28T09:14:36.212Z</time></trkpt><trkpt lat="43.6180411" lon="11.3183276"><ele>362.0</ele><time>2026-03-28T09:14:37.212Z</time></trkpt><trkpt lat="43.6179325" lon="11.3182534"><ele>362.0</ele><time>2026-03-28T09:14:38.211Z</time></trkpt><trkpt lat="43.6178237" lon="11.3181713"><ele>362.0</ele><time>2026-03-28T09:14:39.211Z</time></trkpt><trkpt lat="43.6177158" lon="11.3180848"><ele>362.0</ele><time>2026-03-28T09:14:40.211Z</time></trkpt><trkpt lat="43.6176086" lon="11.3180081"><ele>362.0</ele><time>2026-03-28T09:14:41.211Z</time></trkpt><trkpt lat="43.6175145" lon="11.3179433"><ele>361.8</ele><time>2026-03-28T09:14:42.211Z</time></trkpt><trkpt lat="43.6174318" lon="11.3178832"><ele>361.6</ele><time>2026-03-28T09:14:43.211Z</time></trkpt><trkpt lat="43.6173534" lon="11.3178294"><ele>361.40000000000003</ele><time>2026-03-28T09:14:44.211Z</time></trkpt><trkpt lat="43.6172729" lon="11.3177796"><ele>361.20000000000005</ele><time>2026-03-28T09:14:45.212Z</time></trkpt><trkpt lat="43.6171881" lon="11.3177209"><ele>361.0</ele><time>2026-03-28T09:14:46.212Z</time></trkpt><trkpt lat="43.6170976" lon="11.3176535"><ele>361.0</ele><time>2026-03-28T09:14:47.211Z</time></trkpt><trkpt lat="43.6170109" lon="11.3175733"><ele>361.0</ele><time>2026-03-28T09:14:48.211Z</time></trkpt><trkpt lat="43.616921" lon="11.317473"><ele>361.0</ele><time>2026-03-28T09:14:49.211Z</time></trkpt><trkpt lat="43.6168355" lon="11.3173665"><ele>361.0</ele><time>2026-03-28T09:14:50.212Z</time></trkpt><trkpt lat="43.6167489" lon="11.3172605"><ele>360.6</ele><time>2026-03-28T09:14:51.21Z</time></trkpt><trkpt lat="43.6166621" lon="11.3171463"><ele>360.20000000000005</ele><time>2026-03-28T09:14:52.211Z</time></trkpt><trkpt lat="43.6165889" lon="11.3170445"><ele>359.79999999999995</ele><time>2026-03-28T09:14:53.211Z</time></trkpt><trkpt lat="43.6165282" lon="11.3169616"><ele>359.4</ele><time>2026-03-28T09:14:54.21Z</time></trkpt><trkpt lat="43.6164787" lon="11.3168893"><ele>359.0</ele><time>2026-03-28T09:14:55.211Z</time></trkpt><trkpt lat="43.6164245" lon="11.3168262"><ele>359.0</ele><time>2026-03-28T09:14:56.212Z</time></trkpt><trkpt lat="43.6163599" lon="11.3167726"><ele>359.0</ele><time>2026-03-28T09:14:57.212Z</time></trkpt><trkpt lat="43.6162763" lon="11.3167337"><ele>359.0</ele><time>2026-03-28T09:14:58.211Z</time></trkpt><trkpt lat="43.6161879" lon="11.3167082"><ele>359.0</ele><time>2026-03-28T09:14:59.212Z</time></trkpt><trkpt lat="43.6161063" lon="11.3166757"><ele>359.0</ele><time>2026-03-28T09:15:00.21Z</time></trkpt><trkpt lat="43.6160214" lon="11.316623"><ele>359.0</ele><time>2026-03-28T09:15:01.211Z</time></trkpt><trkpt lat="43.6159442" lon="11.3165674"><ele>358.79999999999995</ele><time>2026-03-28T09:15:02.211Z</time></trkpt><trkpt lat="43.6158665" lon="11.3165143"><ele>358.59999999999997</ele><time>2026-03-28T09:15:03.211Z</time></trkpt><trkpt lat="43.6157866" lon="11.3164683"><ele>358.4</ele><time>2026-03-28T09:15:04.211Z</time></trkpt><trkpt lat="43.6157037" lon="11.316433"><ele>358.2</ele><time>2026-03-28T09:15:05.211Z</time></trkpt><trkpt lat="43.6156096" lon="11.316405"><ele>358.0</ele><time>2026-03-28T09:15:06.212Z</time></trkpt><trkpt lat="43.6155124" lon="11.316389"><ele>358.0</ele><time>2026-03-28T09:15:07.211Z</time></trkpt><trkpt lat="43.6154138" lon="11.3163862"><ele>358.0</ele><time>2026-03-28T09:15:08.211Z</time></trkpt><trkpt lat="43.6153196" lon="11.3163919"><ele>358.0</ele><time>2026-03-28T09:15:09.211Z</time></trkpt><trkpt lat="43.6152215" lon="11.3163973"><ele>358.0</ele><time>2026-03-28T09:15:10.211Z</time></trkpt><trkpt lat="43.615124" lon="11.3163933"><ele>358.0</ele><time>2026-03-28T09:15:11.211Z</time></trkpt><trkpt lat="43.6150236" lon="11.3163848"><ele>356.0</ele><time>2026-03-28T09:15:12.212Z</time></trkpt><trkpt lat="43.6149202" lon="11.3163723"><ele>354.0</ele><time>2026-03-28T09:15:13.211Z</time></trkpt><trkpt lat="43.6148158" lon="11.3163567"><ele>352.0</ele><time>2026-03-28T09:15:14.211Z</time></trkpt><trkpt lat="43.6147006" lon="11.3163378"><ele>350.0</ele><time>2026-03-28T09:15:15.211Z</time></trkpt><trkpt lat="43.6145873" lon="11.3163199"><ele>348.0</ele><time>2026-03-28T09:15:16.211Z</time></trkpt><trkpt lat="43.6144708" lon="11.3163105"><ele>344.5</ele><time>2026-03-28T09:15:17.211Z</time></trkpt><trkpt lat="43.614346" lon="11.3163134"><ele>341.0</ele><time>2026-03-28T09:15:18.212Z</time></trkpt><trkpt lat="43.6142204" lon="11.3163133"><ele>337.5</ele><time>2026-03-28T09:15:19.211Z</time></trkpt><trkpt lat="43.6140945" lon="11.3163015"><ele>334.0</ele><time>2026-03-28T09:15:20.211Z</time></trkpt><trkpt lat="43.6139624" lon="11.3162764"><ele>334.0</ele><time>2026-03-28T09:15:21.212Z</time></trkpt><trkpt lat="43.6138247" lon="11.3162422"><ele>334.0</ele><time>2026-03-28T09:15:22.212Z</time></trkpt><trkpt lat="43.6136774" lon="11.316206"><ele>334.0</ele><time>2026-03-28T09:15:23.212Z</time></trkpt><trkpt lat="43.613532" lon="11.316168"><ele>334.0</ele><time>2026-03-28T09:15:24.212Z</time></trkpt><trkpt lat="43.6133861" lon="11.3161323"><ele>331.0</ele><time>2026-03-28T09:15:25.212Z</time></trkpt><trkpt lat="43.6132309" lon="11.3160933"><ele>328.0</ele><time>2026-03-28T09:15:26.212Z</time></trkpt><trkpt lat="43.6130805" lon="11.3160467"><ele>325.0</ele><time>2026-03-28T09:15:27.211Z</time></trkpt><trkpt lat="43.6129381" lon="11.3160037"><ele>323.5</ele><time>2026-03-28T09:15:28.212Z</time></trkpt><trkpt lat="43.6127888" lon="11.3159627"><ele>322.0</ele><time>2026-03-28T09:15:29.212Z</time></trkpt><trkpt lat="43.6126511" lon="11.3159312"><ele>320.5</ele><time>2026-03-28T09:15:30.211Z</time></trkpt><trkpt lat="43.612525" lon="11.3159073"><ele>319.0</ele><time>2026-03-28T09:15:31.211Z</time></trkpt><trkpt lat="43.6124098" lon="11.315891"><ele>319.0</ele><time>2026-03-28T09:15:32.211Z</time></trkpt><trkpt lat="43.6123042" lon="11.3158781"><ele>319.0</ele><time>2026-03-28T09:15:33.21Z</time></trkpt><trkpt lat="43.6121982" lon="11.3158555"><ele>319.0</ele><time>2026-03-28T09:15:34.211Z</time></trkpt><trkpt lat="43.6120925" lon="11.3158051"><ele>319.0</ele><time>2026-03-28T09:15:35.211Z</time></trkpt><trkpt lat="43.6119729" lon="11.31573"><ele>318.0</ele><time>2026-03-28T09:15:36.211Z</time></trkpt><trkpt lat="43.611849" lon="11.3156523"><ele>317.0</ele><time>2026-03-28T09:15:37.211Z</time></trkpt><trkpt lat="43.6117333" lon="11.3155804"><ele>316.0</ele><time>2026-03-28T09:15:38.211Z</time></trkpt><trkpt lat="43.6116146" lon="11.3155213"><ele>315.0</ele><time>2026-03-28T09:15:39.21Z</time></trkpt><trkpt lat="43.6114879" lon="11.3154691"><ele>313.5</ele><time>2026-03-28T09:15:40.211Z</time></trkpt><trkpt lat="43.611377" lon="11.3154156"><ele>312.0</ele><time>2026-03-28T09:15:41.211Z</time></trkpt><trkpt lat="43.6112678" lon="11.3153443"><ele>310.5</ele><time>2026-03-28T09:15:42.212Z</time></trkpt><trkpt lat="43.6111656" lon="11.3152594"><ele>309.0</ele><time>2026-03-28T09:15:43.212Z</time></trkpt><trkpt lat="43.6110699" lon="11.3151658"><ele>308.25</ele><time>2026-03-28T09:15:44.212Z</time></trkpt><trkpt lat="43.6109725" lon="11.3150716"><ele>307.5</ele><time>2026-03-28T09:15:45.211Z</time></trkpt><trkpt lat="43.6108682" lon="11.3149808"><ele>306.75</ele><time>2026-03-28T09:15:46.211Z</time></trkpt><trkpt lat="43.6107654" lon="11.3148902"><ele>306.0</ele><time>2026-03-28T09:15:47.211Z</time></trkpt><trkpt lat="43.6106677" lon="11.3147893"><ele>303.0</ele><time>2026-03-28T09:15:48.212Z</time></trkpt><trkpt lat="43.6105662" lon="11.3146845"><ele>300.0</ele><time>2026-03-28T09:15:49.212Z</time></trkpt><trkpt lat="43.6104634" lon="11.3145806"><ele>297.0</ele><time>2026-03-28T09:15:50.212Z</time></trkpt><trkpt lat="43.6103668" lon="11.3144797"><ele>294.0</ele><time>2026-03-28T09:15:51.211Z</time></trkpt><trkpt lat="43.6102782" lon="11.314381"><ele>293.8</ele><time>2026-03-28T09:15:52.212Z</time></trkpt><trkpt lat="43.61019" lon="11.3142828"><ele>293.59999999999997</ele><time>2026-03-28T09:15:53.211Z</time></trkpt><trkpt lat="43.6101015" lon="11.31418"><ele>293.4</ele><time>2026-03-28T09:15:54.211Z</time></trkpt><trkpt lat="43.610014" lon="11.3140846"><ele>293.2</ele><time>2026-03-28T09:15:55.211Z</time></trkpt><trkpt lat="43.6099274" lon="11.3140035"><ele>293.0</ele><time>2026-03-28T09:15:56.212Z</time></trkpt><trkpt lat="43.6098309" lon="11.3139279"><ele>290.8</ele><time>2026-03-28T09:15:57.211Z</time></trkpt><trkpt lat="43.6097355" lon="11.3138685"><ele>288.6</ele><time>2026-03-28T09:15:58.211Z</time></trkpt><trkpt lat="43.6096388" lon="11.3138097"><ele>286.4</ele><time>2026-03-28T09:15:59.212Z</time></trkpt><trkpt lat="43.609543" lon="11.3137482"><ele>284.2</ele><time>2026-03-28T09:16:00.211Z</time></trkpt><trkpt lat="43.6094538" lon="11.313689"><ele>282.0</ele><time>2026-03-28T09:16:01.211Z</time></trkpt><trkpt lat="43.6093654" lon="11.3136314"><ele>281.8</ele><time>2026-03-28T09:16:02.212Z</time></trkpt><trkpt lat="43.6092738" lon="11.3135698"><ele>281.6</ele><time>2026-03-28T09:16:03.212Z</time></trkpt><trkpt lat="43.6091848" lon="11.313503"><ele>281.40000000000003</ele><time>2026-03-28T09:16:04.211Z</time></trkpt><trkpt lat="43.6091031" lon="11.3134127"><ele>281.2</ele><time>2026-03-28T09:16:05.212Z</time></trkpt><trkpt lat="43.6090249" lon="11.3132986"><ele>281.0</ele><time>2026-03-28T09:16:06.211Z</time></trkpt><trkpt lat="43.6089491" lon="11.3131673"><ele>279.40000000000003</ele><time>2026-03-28T09:16:07.21Z</time></trkpt><trkpt lat="43.6088796" lon="11.3130419"><ele>277.8</ele><time>2026-03-28T09:16:08.211Z</time></trkpt><trkpt lat="43.6088123" lon="11.3129265"><ele>276.20000000000005</ele><time>2026-03-28T09:16:09.212Z</time></trkpt><trkpt lat="43.6087487" lon="11.3128169"><ele>274.6</ele><time>2026-03-28T09:16:10.211Z</time></trkpt><trkpt lat="43.608679" lon="11.3127132"><ele>273.0</ele><time>2026-03-28T09:16:11.211Z</time></trkpt><trkpt lat="43.608599" lon="11.3126142"><ele>271.2</ele><time>2026-03-28T09:16:12.211Z</time></trkpt><trkpt lat="43.6085224" lon="11.3125321"><ele>269.4</ele><time>2026-03-28T09:16:13.212Z</time></trkpt><trkpt lat="43.6084487" lon="11.3124575"><ele>267.59999999999997</ele><time>2026-03-28T09:16:14.211Z</time></trkpt><trkpt lat="43.6083742" lon="11.3123858"><ele>265.8</ele><time>2026-03-28T09:16:15.211Z</time></trkpt><trkpt lat="43.6083032" lon="11.3123075"><ele>264.0</ele><time>2026-03-28T09:16:16.211Z</time></trkpt><trkpt lat="43.608229" lon="11.3122092"><ele>263.8</ele><time>2026-03-28T09:16:17.212Z</time></trkpt><trkpt lat="43.6081635" lon="11.3121029"><ele>263.59999999999997</ele><time>2026-03-28T09:16:18.211Z</time></trkpt><trkpt lat="43.6081012" lon="11.311986"><ele>263.4</ele><time>2026-03-28T09:16:19.211Z</time></trkpt><trkpt lat="43.6080411" lon="11.3118619"><ele>263.2</ele><time>2026-03-28T09:16:20.21Z</time></trkpt><trkpt lat="43.6079825" lon="11.3117358"><ele>263.0</ele><time>2026-03-28T09:16:21.211Z</time></trkpt><trkpt lat="43.6079231" lon="11.3116053"><ele>263.0</ele><time>2026-03-28T09:16:22.211Z</time></trkpt><trkpt lat="43.6078638" lon="11.3114798"><ele>263.0</ele><time>2026-03-28T09:16:23.211Z</time></trkpt><trkpt lat="43.607803" lon="11.3113588"><ele>263.0</ele><time>2026-03-28T09:16:24.21Z</time></trkpt><trkpt lat="43.6077425" lon="11.3112301"><ele>263.0</ele><time>2026-03-28T09:16:25.212Z</time></trkpt><trkpt lat="43.6076852" lon="11.3111125"><ele>263.0</ele><time>2026-03-28T09:16:26.212Z</time></trkpt><trkpt lat="43.6076168" lon="11.3109955"><ele>260.0</ele><time>2026-03-28T09:16:27.212Z</time></trkpt><trkpt lat="43.6075377" lon="11.3108847"><ele>257.0</ele><time>2026-03-28T09:16:28.212Z</time></trkpt><trkpt lat="43.6074521" lon="11.3107755"><ele>254.0</ele><time>2026-03-28T09:16:29.212Z</time></trkpt><trkpt lat="43.6073686" lon="11.3106701"><ele>251.0</ele><time>2026-03-28T09:16:30.211Z</time></trkpt><trkpt lat="43.6072798" lon="11.3105606"><ele>248.8</ele><time>2026-03-28T09:16:31.212Z</time></trkpt><trkpt lat="43.6071963" lon="11.3104568"><ele>246.60000000000002</ele><time>2026-03-28T09:16:32.211Z</time></trkpt><trkpt lat="43.6071102" lon="11.3103422"><ele>244.4</ele><time>2026-03-28T09:16:33.211Z</time></trkpt><trkpt lat="43.6070326" lon="11.3102234"><ele>242.2</ele><time>2026-03-28T09:16:34.211Z</time></trkpt><trkpt lat="43.6069718" lon="11.3101116"><ele>240.0</ele><time>2026-03-28T09:16:35.212Z</time></trkpt><trkpt lat="43.6069186" lon="11.3100071"><ele>239.8</ele><time>2026-03-28T09:16:36.211Z</time></trkpt><trkpt lat="43.6068652" lon="11.3099086"><ele>239.6</ele><time>2026-03-28T09:16:37.211Z</time></trkpt><trkpt lat="43.6068084" lon="11.3098115"><ele>239.39999999999998</ele><time>2026-03-28T09:16:38.211Z</time></trkpt><trkpt lat="43.6067383" lon="11.3097124"><ele>239.2</ele><time>2026-03-28T09:16:39.212Z</time></trkpt><trkpt lat="43.6066541" lon="11.3096084"><ele>239.0</ele><time>2026-03-28T09:16:40.211Z</time></trkpt><trkpt lat="43.6065688" lon="11.3095123"><ele>236.75</ele><time>2026-03-28T09:16:41.211Z</time></trkpt><trkpt lat="43.6064789" lon="11.3094198"><ele>234.5</ele><time>2026-03-28T09:16:42.212Z</time></trkpt><trkpt lat="43.6063744" lon="11.3093267"><ele>232.25</ele><time>2026-03-28T09:16:43.212Z</time></trkpt><trkpt lat="43.6062713" lon="11.3092279"><ele>230.0</ele><time>2026-03-28T09:16:44.211Z</time></trkpt><trkpt lat="43.6061826" lon="11.3091138"><ele>229.75</ele><time>2026-03-28T09:16:45.212Z</time></trkpt><trkpt lat="43.6061034" lon="11.3090003"><ele>229.5</ele><time>2026-03-28T09:16:46.212Z</time></trkpt><trkpt lat="43.6060207" lon="11.3088854"><ele>229.25</ele><time>2026-03-28T09:16:47.21Z</time></trkpt><trkpt lat="43.6059367" lon="11.3087655"><ele>229.0</ele><time>2026-03-28T09:16:48.211Z</time></trkpt><trkpt lat="43.6058528" lon="11.3086453"><ele>228.5</ele><time>2026-03-28T09:16:49.212Z</time></trkpt><trkpt lat="43.6057629" lon="11.3085373"><ele>228.0</ele><time>2026-03-28T09:16:50.212Z</time></trkpt><trkpt lat="43.6056654" lon="11.3084308"><ele>227.5</ele><time>2026-03-28T09:16:51.211Z</time></trkpt><trkpt lat="43.6055609" lon="11.3083165"><ele>227.0</ele><time>2026-03-28T09:16:52.212Z</time></trkpt><trkpt lat="43.6054557" lon="11.3082014"><ele>227.0</ele><time>2026-03-28T09:16:53.211Z</time></trkpt><trkpt lat="43.6053663" lon="11.3081049"><ele>227.0</ele><time>2026-03-28T09:16:54.212Z</time></trkpt><trkpt lat="43.6052866" lon="11.3080191"><ele>227.0</ele><time>2026-03-28T09:16:55.211Z</time></trkpt><trkpt lat="43.6052148" lon="11.3079576"><ele>227.0</ele><time>2026-03-28T09:16:56.211Z</time></trkpt><trkpt lat="43.6051423" lon="11.3079252"><ele>227.0</ele><time>2026-03-28T09:16:57.211Z</time></trkpt><trkpt lat="43.605058" lon="11.3079242"><ele>226.39999999999998</ele><time>2026-03-28T09:16:58.211Z</time></trkpt><trkpt lat="43.6049787" lon="11.3079448"><ele>225.79999999999998</ele><time>2026-03-28T09:16:59.211Z</time></trkpt><trkpt lat="43.6048796" lon="11.3079698"><ele>225.2</ele><time>2026-03-28T09:17:00.211Z</time></trkpt><trkpt lat="43.6047756" lon="11.3079786"><ele>224.6</ele><time>2026-03-28T09:17:01.21Z</time></trkpt><trkpt lat="43.6046791" lon="11.3079761"><ele>224.0</ele><time>2026-03-28T09:17:02.21Z</time></trkpt><trkpt lat="43.6045976" lon="11.3079628"><ele>224.00000000000003</ele><time>2026-03-28T09:17:03.21Z</time></trkpt><trkpt lat="43.6045298" lon="11.3079443"><ele>224.0</ele><time>2026-03-28T09:17:04.212Z</time></trkpt><trkpt lat="43.60442" lon="11.3079195"><ele>224.0</ele><time>2026-03-28T09:17:06.212Z</time></trkpt><trkpt lat="43.6043388" lon="11.307968"><ele>224.0</ele><time>2026-03-28T09:17:08.211Z</time></trkpt><trkpt lat="43.6043022" lon="11.3080966"><ele>224.00000000000003</ele><time>2026-03-28T09:17:10.211Z</time></trkpt><trkpt lat="43.6042951" lon="11.3081841"><ele>224.0</ele><time>2026-03-28T09:17:11.211Z</time></trkpt><trkpt lat="43.6042742" lon="11.3083202"><ele>222.39999999999998</ele><time>2026-03-28T09:17:13.212Z</time></trkpt><trkpt lat="43.6042279" lon="11.3083947"><ele>220.79999999999998</ele><time>2026-03-28T09:17:15.211Z</time></trkpt><trkpt lat="43.6041597" lon="11.3084384"><ele>219.20000000000002</ele><time>2026-03-28T09:18:55.211Z</time></trkpt><trkpt lat="43.6040932" lon="11.3086138"><ele>217.60000000000002</ele><time>2026-03-28T09:18:57.211Z</time></trkpt><trkpt lat="43.6040543" lon="11.3087359"><ele>216.0</ele><time>2026-03-28T09:18:58.211Z</time></trkpt><trkpt lat="43.6040015" lon="11.3088627"><ele>216.0</ele><time>2026-03-28T09:18:59.212Z</time></trkpt><trkpt lat="43.6039345" lon="11.3089954"><ele>216.0</ele><time>2026-03-28T09:19:00.212Z</time></trkpt><trkpt lat="43.6038468" lon="11.309121"><ele>216.0</ele><time>2026-03-28T09:19:01.211Z</time></trkpt><trkpt lat="43.6037424" lon="11.3092296"><ele>216.0</ele><time>2026-03-28T09:19:02.212Z</time></trkpt><trkpt lat="43.6036192" lon="11.3093219"><ele>215.25</ele><time>2026-03-28T09:19:03.212Z</time></trkpt><trkpt lat="43.603486" lon="11.3094034"><ele>214.5</ele><time>2026-03-28T09:19:04.211Z</time></trkpt><trkpt lat="43.6033471" lon="11.309481"><ele>213.75</ele><time>2026-03-28T09:19:05.211Z</time></trkpt><trkpt lat="43.6032077" lon="11.3095617"><ele>213.0</ele><time>2026-03-28T09:19:06.211Z</time></trkpt><trkpt lat="43.6030683" lon="11.3096486"><ele>213.0</ele><time>2026-03-28T09:19:07.212Z</time></trkpt><trkpt lat="43.6029298" lon="11.3097295"><ele>213.0</ele><time>2026-03-28T09:19:08.211Z</time></trkpt><trkpt lat="43.6027998" lon="11.3098"><ele>213.0</ele><time>2026-03-28T09:19:09.211Z</time></trkpt><trkpt lat="43.602672" lon="11.3098695"><ele>213.0</ele><time>2026-03-28T09:19:10.212Z</time></trkpt><trkpt lat="43.6025447" lon="11.3099376"><ele>213.25</ele><time>2026-03-28T09:19:11.211Z</time></trkpt><trkpt lat="43.6024172" lon="11.3100058"><ele>213.5</ele><time>2026-03-28T09:19:12.21Z</time></trkpt><trkpt lat="43.6022889" lon="11.3100748"><ele>213.75</ele><time>2026-03-28T09:19:13.212Z</time></trkpt><trkpt lat="43.6021678" lon="11.3101427"><ele>214.0</ele><time>2026-03-28T09:19:14.211Z</time></trkpt><trkpt lat="43.6020499" lon="11.3102074"><ele>213.5</ele><time>2026-03-28T09:19:15.211Z</time></trkpt><trkpt lat="43.60193" lon="11.3102736"><ele>213.0</ele><time>2026-03-28T09:19:16.212Z</time></trkpt><trkpt lat="43.6018029" lon="11.3103464"><ele>212.5</ele><time>2026-03-28T09:19:17.212Z</time></trkpt><trkpt lat="43.6016698" lon="11.3104202"><ele>212.0</ele><time>2026-03-28T09:19:18.211Z</time></trkpt><trkpt lat="43.6015319" lon="11.3104936"><ele>212.0</ele><time>2026-03-28T09:19:19.211Z</time></trkpt><trkpt lat="43.6013898" lon="11.3105706"><ele>212.0</ele><time>2026-03-28T09:19:20.211Z</time></trkpt><trkpt lat="43.6012552" lon="11.3106488"><ele>212.0</ele><time>2026-03-28T09:19:21.212Z</time></trkpt><trkpt lat="43.6011209" lon="11.3107327"><ele>212.0</ele><time>2026-03-28T09:19:22.212Z</time></trkpt><trkpt lat="43.6009821" lon="11.310839"><ele>213.0</ele><time>2026-03-28T09:19:23.211Z</time></trkpt><trkpt lat="43.6008478" lon="11.3109815"><ele>214.0</ele><time>2026-03-28T09:19:24.212Z</time></trkpt><trkpt lat="43.6007283" lon="11.311159"><ele>215.0</ele><time>2026-03-28T09:19:25.212Z</time></trkpt><trkpt lat="43.6006253" lon="11.3113402"><ele>214.33333333333334</ele><time>2026-03-28T09:19:26.211Z</time></trkpt><trkpt lat="43.6005234" lon="11.3115288"><ele>213.66666666666669</ele><time>2026-03-28T09:19:27.21Z</time></trkpt><trkpt lat="43.6004194" lon="11.3117213"><ele>213.0</ele><time>2026-03-28T09:19:28.211Z</time></trkpt><trkpt lat="43.6003157" lon="11.3119096"><ele>213.0</ele><time>2026-03-28T09:19:29.211Z</time></trkpt><trkpt lat="43.6002138" lon="11.3120961"><ele>213.0</ele><time>2026-03-28T09:19:30.211Z</time></trkpt><trkpt lat="43.6001133" lon="11.3122854"><ele>213.0</ele><time>2026-03-28T09:19:31.211Z</time></trkpt><trkpt lat="43.6000147" lon="11.3124705"><ele>213.0</ele><time>2026-03-28T09:19:32.211Z</time></trkpt><trkpt lat="43.5999152" lon="11.3126529"><ele>213.0</ele><time>2026-03-28T09:19:33.212Z</time></trkpt><trkpt lat="43.5998121" lon="11.3128383"><ele>213.0</ele><time>2026-03-28T09:19:34.211Z</time></trkpt><trkpt lat="43.5997117" lon="11.313023"><ele>213.33333333333331</ele><time>2026-03-28T09:19:35.212Z</time></trkpt><trkpt lat="43.5996154" lon="11.3132026"><ele>213.66666666666666</ele><time>2026-03-28T09:19:36.211Z</time></trkpt><trkpt lat="43.5995172" lon="11.3133843"><ele>214.0</ele><time>2026-03-28T09:19:37.211Z</time></trkpt><trkpt lat="43.5994174" lon="11.3135691"><ele>214.0</ele><time>2026-03-28T09:19:38.212Z</time></trkpt><trkpt lat="43.5993132" lon="11.3137535"><ele>214.0</ele><time>2026-03-28T09:19:39.211Z</time></trkpt><trkpt lat="43.5992107" lon="11.3139361"><ele>214.0</ele><time>2026-03-28T09:19:40.211Z</time></trkpt><trkpt lat="43.599115" lon="11.3141073"><ele>215.0</ele><time>2026-03-28T09:19:41.211Z</time></trkpt><trkpt lat="43.5990215" lon="11.3142765"><ele>216.0</ele><time>2026-03-28T09:19:42.211Z</time></trkpt><trkpt lat="43.5989296" lon="11.3144486"><ele>217.0</ele><time>2026-03-28T09:19:43.212Z</time></trkpt><trkpt lat="43.5988378" lon="11.3146194"><ele>216.66666666666666</ele><time>2026-03-28T09:19:44.211Z</time></trkpt><trkpt lat="43.5987476" lon="11.3147903"><ele>216.33333333333331</ele><time>2026-03-28T09:19:45.212Z</time></trkpt><trkpt lat="43.5986555" lon="11.3149569"><ele>216.0</ele><time>2026-03-28T09:19:46.211Z</time></trkpt><trkpt lat="43.5985674" lon="11.3151208"><ele>216.0</ele><time>2026-03-28T09:19:47.211Z</time></trkpt><trkpt lat="43.5984773" lon="11.3152803"><ele>216.0</ele><time>2026-03-28T09:19:48.211Z</time></trkpt><trkpt lat="43.5983861" lon="11.3154428"><ele>216.0</ele><time>2026-03-28T09:19:49.211Z</time></trkpt><trkpt lat="43.5982969" lon="11.3156041"><ele>216.0</ele><time>2026-03-28T09:19:50.211Z</time></trkpt><trkpt lat="43.5982042" lon="11.3157707"><ele>217.33333333333331</ele><time>2026-03-28T09:19:51.212Z</time></trkpt><trkpt lat="43.5981059" lon="11.3159436"><ele>218.66666666666666</ele><time>2026-03-28T09:19:52.211Z</time></trkpt><trkpt lat="43.5979981" lon="11.3161194"><ele>220.0</ele><time>2026-03-28T09:19:53.211Z</time></trkpt><trkpt lat="43.5978607" lon="11.3162688"><ele>220.0</ele><time>2026-03-28T09:19:54.211Z</time></trkpt><trkpt lat="43.5977127" lon="11.3163897"><ele>220.0</ele><time>2026-03-28T09:19:55.211Z</time></trkpt><trkpt lat="43.5975571" lon="11.3164891"><ele>220.0</ele><time>2026-03-28T09:19:56.212Z</time></trkpt><trkpt lat="43.5974115" lon="11.3165852"><ele>220.0</ele><time>2026-03-28T09:19:57.211Z</time></trkpt><trkpt lat="43.5972665" lon="11.3166808"><ele>220.0</ele><time>2026-03-28T09:19:58.211Z</time></trkpt><trkpt lat="43.59712" lon="11.3167754"><ele>220.0</ele><time>2026-03-28T09:19:59.212Z</time></trkpt><trkpt lat="43.5969638" lon="11.3168613"><ele>219.33333333333331</ele><time>2026-03-28T09:20:00.211Z</time></trkpt><trkpt lat="43.5967959" lon="11.316916"><ele>218.66666666666669</ele><time>2026-03-28T09:20:01.211Z</time></trkpt><trkpt lat="43.5966224" lon="11.3169433"><ele>218.0</ele><time>2026-03-28T09:20:02.212Z</time></trkpt><trkpt lat="43.5964512" lon="11.3169421"><ele>218.0</ele><time>2026-03-28T09:20:03.211Z</time></trkpt><trkpt lat="43.5962933" lon="11.3169194"><ele>218.0</ele><time>2026-03-28T09:20:04.212Z</time></trkpt><trkpt lat="43.5961407" lon="11.3168767"><ele>218.0</ele><time>2026-03-28T09:20:05.211Z</time></trkpt><trkpt lat="43.5959953" lon="11.3168273"><ele>218.0</ele><time>2026-03-28T09:20:06.212Z</time></trkpt><trkpt lat="43.5958502" lon="11.3167791"><ele>218.0</ele><time>2026-03-28T09:20:07.212Z</time></trkpt><trkpt lat="43.5957004" lon="11.3167277"><ele>218.0</ele><time>2026-03-28T09:20:08.211Z</time></trkpt><trkpt lat="43.5955447" lon="11.3166874"><ele>218.0</ele><time>2026-03-28T09:20:09.211Z</time></trkpt><trkpt lat="43.5953886" lon="11.3166581"><ele>218.0</ele><time>2026-03-28T09:20:10.212Z</time></trkpt><trkpt lat="43.5952387" lon="11.3166514"><ele>218.0</ele><time>2026-03-28T09:20:11.212Z</time></trkpt><trkpt lat="43.595083" lon="11.3166614"><ele>219.33333333333334</ele><time>2026-03-28T09:20:12.211Z</time></trkpt><trkpt lat="43.5949288" lon="11.3166791"><ele>220.66666666666669</ele><time>2026-03-28T09:20:13.211Z</time></trkpt><trkpt lat="43.5947854" lon="11.3166781"><ele>222.0</ele><time>2026-03-28T09:20:14.212Z</time></trkpt><trkpt lat="43.5946353" lon="11.3166414"><ele>221.5</ele><time>2026-03-28T09:20:15.212Z</time></trkpt><trkpt lat="43.5944849" lon="11.3165739"><ele>221.0</ele><time>2026-03-28T09:20:16.211Z</time></trkpt><trkpt lat="43.5943508" lon="11.3164916"><ele>220.5</ele><time>2026-03-28T09:20:17.211Z</time></trkpt><trkpt lat="43.5942267" lon="11.3164112"><ele>220.0</ele><time>2026-03-28T09:20:18.211Z</time></trkpt><trkpt lat="43.5941072" lon="11.3163269"><ele>220.0</ele><time>2026-03-28T09:20:19.21Z</time></trkpt><trkpt lat="43.5939916" lon="11.3162465"><ele>220.0</ele><time>2026-03-28T09:20:20.212Z</time></trkpt><trkpt lat="43.5938807" lon="11.3161726"><ele>220.0</ele><time>2026-03-28T09:20:21.211Z</time></trkpt><trkpt lat="43.5937664" lon="11.3160961"><ele>220.0</ele><time>2026-03-28T09:20:22.211Z</time></trkpt><trkpt lat="43.5936501" lon="11.3160169"><ele>221.0</ele><time>2026-03-28T09:20:23.211Z</time></trkpt><trkpt lat="43.5935361" lon="11.3159394"><ele>222.0</ele><time>2026-03-28T09:20:24.211Z</time></trkpt><trkpt lat="43.5934185" lon="11.3158617"><ele>223.0</ele><time>2026-03-28T09:20:25.211Z</time></trkpt><trkpt lat="43.593307" lon="11.315799"><ele>224.0</ele><time>2026-03-28T09:20:26.212Z</time></trkpt><trkpt lat="43.5932054" lon="11.3157474"><ele>224.0</ele><time>2026-03-28T09:20:27.212Z</time></trkpt><trkpt lat="43.5931029" lon="11.3156963"><ele>224.0</ele><time>2026-03-28T09:20:28.21Z</time></trkpt><trkpt lat="43.592995" lon="11.3156525"><ele>224.0</ele><time>2026-03-28T09:20:29.211Z</time></trkpt><trkpt lat="43.5928834" lon="11.3156085"><ele>224.0</ele><time>2026-03-28T09:20:30.212Z</time></trkpt><trkpt lat="43.5927652" lon="11.3155635"><ele>223.39999999999998</ele><time>2026-03-28T09:20:31.212Z</time></trkpt><trkpt lat="43.5926588" lon="11.3155176"><ele>222.79999999999998</ele><time>2026-03-28T09:20:32.211Z</time></trkpt><trkpt lat="43.5925608" lon="11.3154699"><ele>222.20000000000002</ele><time>2026-03-28T09:20:33.211Z</time></trkpt><trkpt lat="43.5924754" lon="11.3154215"><ele>221.60000000000002</ele><time>2026-03-28T09:20:34.212Z</time></trkpt><trkpt lat="43.592405" lon="11.315374"><ele>221.0</ele><time>2026-03-28T09:20:35.211Z</time></trkpt><trkpt lat="43.5923372" lon="11.3153237"><ele>221.00000000000003</ele><time>2026-03-28T09:20:36.211Z</time></trkpt><trkpt lat="43.5922642" lon="11.3152655"><ele>221.0</ele><time>2026-03-28T09:20:37.211Z</time></trkpt><trkpt lat="43.5921956" lon="11.3151914"><ele>221.0</ele><time>2026-03-28T09:20:38.211Z</time></trkpt><trkpt lat="43.5921379" lon="11.3151006"><ele>221.0</ele><time>2026-03-28T09:20:39.211Z</time></trkpt><trkpt lat="43.5920745" lon="11.3150294"><ele>221.00000000000003</ele><time>2026-03-28T09:20:40.211Z</time></trkpt><trkpt lat="43.5919892" lon="11.3149952"><ele>221.0</ele><time>2026-03-28T09:20:41.211Z</time></trkpt><trkpt lat="43.5918917" lon="11.3149799"><ele>221.0</ele><time>2026-03-28T09:20:42.211Z</time></trkpt><trkpt lat="43.5917867" lon="11.3149207"><ele>221.0</ele><time>2026-03-28T09:20:43.211Z</time></trkpt><trkpt lat="43.591683" lon="11.314853"><ele>221.0</ele><time>2026-03-28T09:20:44.211Z</time></trkpt><trkpt lat="43.5915828" lon="11.3147918"><ele>221.0</ele><time>2026-03-28T09:20:45.211Z</time></trkpt><trkpt lat="43.5914788" lon="11.3147264"><ele>221.0</ele><time>2026-03-28T09:20:46.211Z</time></trkpt><trkpt lat="43.5913708" lon="11.3146614"><ele>221.0</ele><time>2026-03-28T09:20:47.211Z</time></trkpt><trkpt lat="43.5912652" lon="11.3146057"><ele>221.0</ele><time>2026-03-28T09:20:48.211Z</time></trkpt><trkpt lat="43.5911524" lon="11.3145595"><ele>221.0</ele><time>2026-03-28T09:20:49.212Z</time></trkpt><trkpt lat="43.5910339" lon="11.3145167"><ele>221.25</ele><time>2026-03-28T09:20:50.21Z</time></trkpt><trkpt lat="43.5909194" lon="11.3144744"><ele>221.5</ele><time>2026-03-28T09:20:51.21Z</time></trkpt><trkpt lat="43.5908069" lon="11.3144403"><ele>221.75</ele><time>2026-03-28T09:20:52.211Z</time></trkpt><trkpt lat="43.5906919" lon="11.3144145"><ele>222.0</ele><time>2026-03-28T09:20:53.211Z</time></trkpt><trkpt lat="43.5905774" lon="11.3144056"><ele>222.0</ele><time>2026-03-28T09:20:54.211Z</time></trkpt><trkpt lat="43.590466" lon="11.3144026"><ele>222.0</ele><time>2026-03-28T09:20:55.212Z</time></trkpt><trkpt lat="43.590356" lon="11.3144093"><ele>222.0</ele><time>2026-03-28T09:20:56.211Z</time></trkpt><trkpt lat="43.59025" lon="11.3144195"><ele>222.0</ele><time>2026-03-28T09:20:57.212Z</time></trkpt><trkpt lat="43.5901467" lon="11.3144349"><ele>222.0</ele><time>2026-03-28T09:20:58.211Z</time></trkpt><trkpt lat="43.5900392" lon="11.3144546"><ele>222.2</ele><time>2026-03-28T09:20:59.211Z</time></trkpt><trkpt lat="43.5899346" lon="11.314476"><ele>222.39999999999998</ele><time>2026-03-28T09:21:00.212Z</time></trkpt><trkpt lat="43.5898291" lon="11.314499"><ele>222.60000000000002</ele><time>2026-03-28T09:21:01.211Z</time></trkpt><trkpt lat="43.5897255" lon="11.3145205"><ele>222.8</ele><time>2026-03-28T09:21:02.211Z</time></trkpt><trkpt lat="43.589622" lon="11.3145399"><ele>223.0</ele><time>2026-03-28T09:21:03.211Z</time></trkpt><trkpt lat="43.5895209" lon="11.3145597"><ele>223.4</ele><time>2026-03-28T09:21:04.211Z</time></trkpt><trkpt lat="43.5894202" lon="11.3145764"><ele>223.8</ele><time>2026-03-28T09:21:05.212Z</time></trkpt><trkpt lat="43.5893207" lon="11.314595"><ele>224.2</ele><time>2026-03-28T09:21:06.212Z</time></trkpt><trkpt lat="43.5892272" lon="11.3146119"><ele>224.6</ele><time>2026-03-28T09:21:07.211Z</time></trkpt><trkpt lat="43.5891411" lon="11.3146278"><ele>225.0</ele><time>2026-03-28T09:21:08.212Z</time></trkpt><trkpt lat="43.5890602" lon="11.3146408"><ele>225.0</ele><time>2026-03-28T09:21:09.211Z</time></trkpt><trkpt lat="43.5889729" lon="11.3146552"><ele>225.0</ele><time>2026-03-28T09:21:10.211Z</time></trkpt><trkpt lat="43.5888838" lon="11.3146678"><ele>225.0</ele><time>2026-03-28T09:21:11.212Z</time></trkpt><trkpt lat="43.5887879" lon="11.3146813"><ele>225.0</ele><time>2026-03-28T09:21:12.211Z</time></trkpt><trkpt lat="43.5887002" lon="11.3146986"><ele>225.0</ele><time>2026-03-28T09:21:13.212Z</time></trkpt><trkpt lat="43.5886147" lon="11.3147164"><ele>225.0</ele><time>2026-03-28T09:21:14.211Z</time></trkpt><trkpt lat="43.5885209" lon="11.3147326"><ele>225.4</ele><time>2026-03-28T09:21:15.212Z</time></trkpt><trkpt lat="43.5884207" lon="11.3147493"><ele>225.8</ele><time>2026-03-28T09:21:16.211Z</time></trkpt><trkpt lat="43.5883152" lon="11.3147696"><ele>226.2</ele><time>2026-03-28T09:21:17.212Z</time></trkpt><trkpt lat="43.5882071" lon="11.3147885"><ele>226.6</ele><time>2026-03-28T09:21:18.211Z</time></trkpt><trkpt lat="43.5881019" lon="11.3148018"><ele>227.0</ele><time>2026-03-28T09:21:19.211Z</time></trkpt><trkpt lat="43.5879958" lon="11.3148159"><ele>227.0</ele><time>2026-03-28T09:21:20.211Z</time></trkpt><trkpt lat="43.5878835" lon="11.3148356"><ele>227.0</ele><time>2026-03-28T09:21:21.211Z</time></trkpt><trkpt lat="43.587767" lon="11.3148599"><ele>227.0</ele><time>2026-03-28T09:21:22.211Z</time></trkpt><trkpt lat="43.5876527" lon="11.3148828"><ele>227.0</ele><time>2026-03-28T09:21:23.212Z</time></trkpt><trkpt lat="43.5875378" lon="11.3149033"><ele>227.0</ele><time>2026-03-28T09:21:24.212Z</time></trkpt><trkpt lat="43.5874217" lon="11.3149283"><ele>227.0</ele><time>2026-03-28T09:21:25.212Z</time></trkpt><trkpt lat="43.5873124" lon="11.3149499"><ele>227.0</ele><time>2026-03-28T09:21:26.211Z</time></trkpt><trkpt lat="43.5872055" lon="11.31497"><ele>227.0</ele><time>2026-03-28T09:21:27.211Z</time></trkpt><trkpt lat="43.5870998" lon="11.314992"><ele>227.0</ele><time>2026-03-28T09:21:28.212Z</time></trkpt><trkpt lat="43.5869884" lon="11.3150174"><ele>227.2</ele><time>2026-03-28T09:21:29.211Z</time></trkpt><trkpt lat="43.5868736" lon="11.3150436"><ele>227.39999999999998</ele><time>2026-03-28T09:21:30.211Z</time></trkpt><trkpt lat="43.5867678" lon="11.3150655"><ele>227.60000000000002</ele><time>2026-03-28T09:21:31.211Z</time></trkpt><trkpt lat="43.5866739" lon="11.315083"><ele>227.8</ele><time>2026-03-28T09:21:32.211Z</time></trkpt><trkpt lat="43.5865926" lon="11.315097"><ele>228.0</ele><time>2026-03-28T09:21:33.211Z</time></trkpt><trkpt lat="43.5865243" lon="11.3151078"><ele>228.0</ele><time>2026-03-28T09:21:34.212Z</time></trkpt><trkpt lat="43.5864394" lon="11.3151275"><ele>228.0</ele><time>2026-03-28T09:21:36.211Z</time></trkpt><trkpt lat="43.5863672" lon="11.315144"><ele>228.0</ele><time>2026-03-28T09:22:04.211Z</time></trkpt><trkpt lat="43.5862807" lon="11.3151699"><ele>228.0</ele><time>2026-03-28T09:22:06.212Z</time></trkpt><trkpt lat="43.5861626" lon="11.3151832"><ele>228.0</ele><time>2026-03-28T09:22:08.212Z</time></trkpt><trkpt lat="43.5860746" lon="11.3151989"><ele>228.0</ele><time>2026-03-28T09:22:09.211Z</time></trkpt><trkpt lat="43.5859819" lon="11.3152137"><ele>228.0</ele><time>2026-03-28T09:22:10.212Z</time></trkpt><trkpt lat="43.5858833" lon="11.3152279"><ele>228.0</ele><time>2026-03-28T09:22:11.211Z</time></trkpt><trkpt lat="43.5857744" lon="11.3152468"><ele>228.0</ele><time>2026-03-28T09:22:12.212Z</time></trkpt><trkpt lat="43.5856567" lon="11.3152677"><ele>228.0</ele><time>2026-03-28T09:22:13.211Z</time></trkpt><trkpt lat="43.5855396" lon="11.3152914"><ele>228.0</ele><time>2026-03-28T09:22:14.212Z</time></trkpt><trkpt lat="43.5854173" lon="11.315317"><ele>228.0</ele><time>2026-03-28T09:22:15.211Z</time></trkpt><trkpt lat="43.5853052" lon="11.3153345"><ele>228.0</ele><time>2026-03-28T09:22:16.211Z</time></trkpt><trkpt lat="43.5851921" lon="11.3153557"><ele>228.0</ele><time>2026-03-28T09:22:17.211Z</time></trkpt><trkpt lat="43.5850739" lon="11.3153816"><ele>228.4</ele><time>2026-03-28T09:22:18.212Z</time></trkpt><trkpt lat="43.5849613" lon="11.3154054"><ele>228.8</ele><time>2026-03-28T09:22:19.212Z</time></trkpt><trkpt lat="43.5848569" lon="11.315436"><ele>229.2</ele><time>2026-03-28T09:22:20.212Z</time></trkpt><trkpt lat="43.5847557" lon="11.3154744"><ele>229.6</ele><time>2026-03-28T09:22:21.211Z</time></trkpt><trkpt lat="43.5846553" lon="11.3155161"><ele>230.0</ele><time>2026-03-28T09:22:22.211Z</time></trkpt><trkpt lat="43.5845557" lon="11.3155564"><ele>230.2</ele><time>2026-03-28T09:22:23.211Z</time></trkpt><trkpt lat="43.5844612" lon="11.315595"><ele>230.4</ele><time>2026-03-28T09:22:24.212Z</time></trkpt><trkpt lat="43.584374" lon="11.3156337"><ele>230.60000000000002</ele><time>2026-03-28T09:22:25.212Z</time></trkpt><trkpt lat="43.5842931" lon="11.3156784"><ele>230.8</ele><time>2026-03-28T09:22:26.212Z</time></trkpt><trkpt lat="43.5842158" lon="11.3157432"><ele>231.0</ele><time>2026-03-28T09:22:27.212Z</time></trkpt><trkpt lat="43.5841439" lon="11.3158314"><ele>231.0</ele><time>2026-03-28T09:22:28.212Z</time></trkpt><trkpt lat="43.5840783" lon="11.3159407"><ele>231.00000000000003</ele><time>2026-03-28T09:22:29.211Z</time></trkpt><trkpt lat="43.5840168" lon="11.3160638"><ele>231.00000000000003</ele><time>2026-03-28T09:22:30.212Z</time></trkpt><trkpt lat="43.5839575" lon="11.3161948"><ele>231.0</ele><time>2026-03-28T09:22:31.212Z</time></trkpt><trkpt lat="43.5839035" lon="11.3163182"><ele>231.0</ele><time>2026-03-28T09:22:32.211Z</time></trkpt><trkpt lat="43.5838518" lon="11.3164404"><ele>230.8</ele><time>2026-03-28T09:22:33.212Z</time></trkpt><trkpt lat="43.5837971" lon="11.3165598"><ele>230.60000000000002</ele><time>2026-03-28T09:22:34.211Z</time></trkpt><trkpt lat="43.5837479" lon="11.3166812"><ele>230.4</ele><time>2026-03-28T09:22:35.212Z</time></trkpt><trkpt lat="43.5837029" lon="11.3167905"><ele>230.2</ele><time>2026-03-28T09:22:36.212Z</time></trkpt><trkpt lat="43.5836539" lon="11.3168981"><ele>230.0</ele><time>2026-03-28T09:22:37.212Z</time></trkpt><trkpt lat="43.5836" lon="11.3170124"><ele>230.8</ele><time>2026-03-28T09:22:38.211Z</time></trkpt><trkpt lat="43.583545" lon="11.3171242"><ele>231.6</ele><time>2026-03-28T09:22:39.211Z</time></trkpt><trkpt lat="43.5834839" lon="11.3172333"><ele>232.39999999999998</ele><time>2026-03-28T09:22:40.211Z</time></trkpt><trkpt lat="43.583413" lon="11.3173403"><ele>233.2</ele><time>2026-03-28T09:22:41.211Z</time></trkpt><trkpt lat="43.583333" lon="11.3174296"><ele>234.0</ele><time>2026-03-28T09:22:42.212Z</time></trkpt><trkpt lat="43.5832592" lon="11.3175015"><ele>234.0</ele><time>2026-03-28T09:22:43.211Z</time></trkpt><trkpt lat="43.5831916" lon="11.3175595"><ele>234.0</ele><time>2026-03-28T09:22:44.211Z</time></trkpt><trkpt lat="43.5831228" lon="11.3176095"><ele>234.0</ele><time>2026-03-28T09:22:45.211Z</time></trkpt><trkpt lat="43.5830452" lon="11.3176572"><ele>234.0</ele><time>2026-03-28T09:22:46.211Z</time></trkpt><trkpt lat="43.582972" lon="11.3176977"><ele>234.0</ele><time>2026-03-28T09:22:47.212Z</time></trkpt><trkpt lat="43.5828976" lon="11.3177314"><ele>234.0</ele><time>2026-03-28T09:22:48.211Z</time></trkpt><trkpt lat="43.582825" lon="11.3177652"><ele>234.33333333333334</ele><time>2026-03-28T09:22:49.21Z</time></trkpt><trkpt lat="43.5827366" lon="11.317795"><ele>234.66666666666669</ele><time>2026-03-28T09:22:50.211Z</time></trkpt><trkpt lat="43.5826613" lon="11.317825"><ele>235.0</ele><time>2026-03-28T09:22:51.212Z</time></trkpt><trkpt lat="43.5825882" lon="11.3178529"><ele>235.33333333333334</ele><time>2026-03-28T09:22:52.212Z</time></trkpt><trkpt lat="43.5825111" lon="11.3178848"><ele>235.66666666666669</ele><time>2026-03-28T09:22:53.211Z</time></trkpt><trkpt lat="43.5824322" lon="11.3179184"><ele>236.0</ele><time>2026-03-28T09:22:54.211Z</time></trkpt><trkpt lat="43.5823605" lon="11.3179441"><ele>236.00000000000003</ele><time>2026-03-28T09:22:55.211Z</time></trkpt><trkpt lat="43.5822813" lon="11.3179699"><ele>236.0</ele><time>2026-03-28T09:22:56.211Z</time></trkpt><trkpt lat="43.582194" lon="11.3179879"><ele>236.0</ele><time>2026-03-28T09:22:57.211Z</time></trkpt><trkpt lat="43.5821052" lon="11.3179932"><ele>236.0</ele><time>2026-03-28T09:22:58.211Z</time></trkpt><trkpt lat="43.5820158" lon="11.3179833"><ele>236.00000000000003</ele><time>2026-03-28T09:22:59.211Z</time></trkpt><trkpt lat="43.5819332" lon="11.3179641"><ele>236.0</ele><time>2026-03-28T09:23:00.211Z</time></trkpt><trkpt lat="43.5818618" lon="11.3179449"><ele>236.50000000000003</ele><time>2026-03-28T09:23:01.211Z</time></trkpt><trkpt lat="43.5817944" lon="11.3179207"><ele>237.0</ele><time>2026-03-28T09:23:02.212Z</time></trkpt><trkpt lat="43.581725" lon="11.3178924"><ele>237.5</ele><time>2026-03-28T09:23:03.211Z</time></trkpt><trkpt lat="43.5816515" lon="11.3178691"><ele>238.0</ele><time>2026-03-28T09:23:04.212Z</time></trkpt><trkpt lat="43.5815707" lon="11.3178659"><ele>238.50000000000003</ele><time>2026-03-28T09:23:05.212Z</time></trkpt><trkpt lat="43.5814848" lon="11.3178738"><ele>239.0</ele><time>2026-03-28T09:23:06.211Z</time></trkpt><trkpt lat="43.5813893" lon="11.317882"><ele>239.0</ele><time>2026-03-28T09:23:07.212Z</time></trkpt><trkpt lat="43.581296" lon="11.3178914"><ele>238.99999999999997</ele><time>2026-03-28T09:23:08.211Z</time></trkpt><trkpt lat="43.5812136" lon="11.3178986"><ele>238.99999999999997</ele><time>2026-03-28T09:23:09.211Z</time></trkpt><trkpt lat="43.581122" lon="11.3179094"><ele>239.0</ele><time>2026-03-28T09:23:10.211Z</time></trkpt><trkpt lat="43.5810243" lon="11.3178977"><ele>239.0</ele><time>2026-03-28T09:23:11.211Z</time></trkpt><trkpt lat="43.5809285" lon="11.317847"><ele>238.6</ele><time>2026-03-28T09:23:12.212Z</time></trkpt><trkpt lat="43.5808331" lon="11.3177776"><ele>238.2</ele><time>2026-03-28T09:23:13.212Z</time></trkpt><trkpt lat="43.5807353" lon="11.3177025"><ele>237.79999999999998</ele><time>2026-03-28T09:23:14.212Z</time></trkpt><trkpt lat="43.5806421" lon="11.3176346"><ele>237.39999999999998</ele><time>2026-03-28T09:23:15.212Z</time></trkpt><trkpt lat="43.5805391" lon="11.3175607"><ele>237.0</ele><time>2026-03-28T09:23:16.212Z</time></trkpt><trkpt lat="43.5804417" lon="11.3174766"><ele>236.75</ele><time>2026-03-28T09:23:17.212Z</time></trkpt><trkpt lat="43.5803466" lon="11.3173798"><ele>236.5</ele><time>2026-03-28T09:23:18.212Z</time></trkpt><trkpt lat="43.5802625" lon="11.3172724"><ele>236.25</ele><time>2026-03-28T09:23:19.211Z</time></trkpt><trkpt lat="43.5801796" lon="11.3171689"><ele>236.0</ele><time>2026-03-28T09:23:20.211Z</time></trkpt><trkpt lat="43.5800853" lon="11.3170927"><ele>237.75</ele><time>2026-03-28T09:23:21.211Z</time></trkpt><trkpt lat="43.5799804" lon="11.3170382"><ele>239.5</ele><time>2026-03-28T09:23:22.211Z</time></trkpt><trkpt lat="43.5798692" lon="11.3169923"><ele>241.25</ele><time>2026-03-28T09:23:23.21Z</time></trkpt><trkpt lat="43.5797516" lon="11.316941"><ele>243.0</ele><time>2026-03-28T09:23:24.211Z</time></trkpt><trkpt lat="43.5796268" lon="11.3168929"><ele>242.0</ele><time>2026-03-28T09:23:25.211Z</time></trkpt><trkpt lat="43.5795002" lon="11.3168458"><ele>241.0</ele><time>2026-03-28T09:23:26.211Z</time></trkpt><trkpt lat="43.5793709" lon="11.3168021"><ele>240.0</ele><time>2026-03-28T09:23:27.212Z</time></trkpt><trkpt lat="43.5792401" lon="11.3167565"><ele>239.0</ele><time>2026-03-28T09:23:28.212Z</time></trkpt><trkpt lat="43.5791163" lon="11.3167134"><ele>239.0</ele><time>2026-03-28T09:23:29.211Z</time></trkpt><trkpt lat="43.5790007" lon="11.3166666"><ele>239.0</ele><time>2026-03-28T09:23:30.211Z</time></trkpt><trkpt lat="43.5788855" lon="11.3166137"><ele>239.0</ele><time>2026-03-28T09:23:31.211Z</time></trkpt><trkpt lat="43.5787686" lon="11.3165732"><ele>239.0</ele><time>2026-03-28T09:23:32.211Z</time></trkpt><trkpt lat="43.5786476" lon="11.316554"><ele>239.25</ele><time>2026-03-28T09:23:33.211Z</time></trkpt><trkpt lat="43.578522" lon="11.3165513"><ele>239.5</ele><time>2026-03-28T09:23:34.211Z</time></trkpt><trkpt lat="43.5783932" lon="11.316561"><ele>239.75</ele><time>2026-03-28T09:23:35.212Z</time></trkpt><trkpt lat="43.5782628" lon="11.3165831"><ele>240.0</ele><time>2026-03-28T09:23:36.212Z</time></trkpt><trkpt lat="43.5781287" lon="11.3166217"><ele>240.0</ele><time>2026-03-28T09:23:37.212Z</time></trkpt><trkpt lat="43.577992" lon="11.3166651"><ele>240.0</ele><time>2026-03-28T09:23:38.212Z</time></trkpt><trkpt lat="43.5778532" lon="11.3167152"><ele>240.0</ele><time>2026-03-28T09:23:39.211Z</time></trkpt><trkpt lat="43.5777109" lon="11.3167634"><ele>240.0</ele><time>2026-03-28T09:23:40.212Z</time></trkpt><trkpt lat="43.5775654" lon="11.3168166"><ele>241.33333333333331</ele><time>2026-03-28T09:23:41.211Z</time></trkpt><trkpt lat="43.57742" lon="11.3168688"><ele>242.66666666666666</ele><time>2026-03-28T09:23:42.211Z</time></trkpt><trkpt lat="43.5772709" lon="11.3169267"><ele>244.0</ele><time>2026-03-28T09:23:43.212Z</time></trkpt><trkpt lat="43.5771122" lon="11.3169897"><ele>246.33333333333331</ele><time>2026-03-28T09:23:44.212Z</time></trkpt><trkpt lat="43.5769576" lon="11.3170618"><ele>248.66666666666669</ele><time>2026-03-28T09:23:45.211Z</time></trkpt><trkpt lat="43.5768022" lon="11.3171438"><ele>251.0</ele><time>2026-03-28T09:23:46.211Z</time></trkpt><trkpt lat="43.5766562" lon="11.3172203"><ele>249.25</ele><time>2026-03-28T09:23:47.212Z</time></trkpt><trkpt lat="43.5765115" lon="11.3172967"><ele>247.5</ele><time>2026-03-28T09:23:48.212Z</time></trkpt><trkpt lat="43.5763769" lon="11.3173673"><ele>245.75</ele><time>2026-03-28T09:23:49.211Z</time></trkpt><trkpt lat="43.576241" lon="11.3174367"><ele>244.0</ele><time>2026-03-28T09:23:50.212Z</time></trkpt><trkpt lat="43.5761093" lon="11.3175043"><ele>244.0</ele><time>2026-03-28T09:23:51.212Z</time></trkpt><trkpt lat="43.5759838" lon="11.3175689"><ele>244.0</ele><time>2026-03-28T09:23:52.211Z</time></trkpt><trkpt lat="43.5758559" lon="11.3176338"><ele>244.0</ele><time>2026-03-28T09:23:53.211Z</time></trkpt><trkpt lat="43.5757311" lon="11.3176984"><ele>244.0</ele><time>2026-03-28T09:23:54.212Z</time></trkpt><trkpt lat="43.5756066" lon="11.3177625"><ele>244.0</ele><time>2026-03-28T09:23:55.211Z</time></trkpt><trkpt lat="43.575483" lon="11.3178241"><ele>244.0</ele><time>2026-03-28T09:23:56.212Z</time></trkpt><trkpt lat="43.5753612" lon="11.3178884"><ele>244.0</ele><time>2026-03-28T09:23:57.212Z</time></trkpt><trkpt lat="43.5752404" lon="11.3179568"><ele>244.0</ele><time>2026-03-28T09:23:58.211Z</time></trkpt><trkpt lat="43.5751127" lon="11.3180157"><ele>243.75</ele><time>2026-03-28T09:23:59.211Z</time></trkpt><trkpt lat="43.5749853" lon="11.3180923"><ele>243.5</ele><time>2026-03-28T09:24:00.211Z</time></trkpt><trkpt lat="43.5748507" lon="11.3181553"><ele>243.25</ele><time>2026-03-28T09:24:01.212Z</time></trkpt><trkpt lat="43.5747164" lon="11.3182178"><ele>243.0</ele><time>2026-03-28T09:24:02.211Z</time></trkpt><trkpt lat="43.5745744" lon="11.3182899"><ele>246.75</ele><time>2026-03-28T09:24:03.211Z</time></trkpt><trkpt lat="43.5744331" lon="11.3183615"><ele>250.5</ele><time>2026-03-28T09:24:04.21Z</time></trkpt><trkpt lat="43.5742907" lon="11.318432"><ele>254.25</ele><time>2026-03-28T09:24:05.211Z</time></trkpt><trkpt lat="43.5741541" lon="11.3184979"><ele>258.0</ele><time>2026-03-28T09:24:06.212Z</time></trkpt><trkpt lat="43.574033" lon="11.3185656"><ele>258.0</ele><time>2026-03-28T09:24:07.212Z</time></trkpt><trkpt lat="43.5739218" lon="11.3186321"><ele>258.0</ele><time>2026-03-28T09:24:08.211Z</time></trkpt><trkpt lat="43.5738225" lon="11.3186852"><ele>258.0</ele><time>2026-03-28T09:24:09.212Z</time></trkpt><trkpt lat="43.5737263" lon="11.3187362"><ele>258.0</ele><time>2026-03-28T09:24:10.211Z</time></trkpt><trkpt lat="43.5736292" lon="11.318782"><ele>258.0</ele><time>2026-03-28T09:24:11.212Z</time></trkpt><trkpt lat="43.5735501" lon="11.3188239"><ele>256.2</ele><time>2026-03-28T09:24:12.211Z</time></trkpt><trkpt lat="43.5734794" lon="11.3188742"><ele>254.4</ele><time>2026-03-28T09:24:13.211Z</time></trkpt><trkpt lat="43.5733861" lon="11.3189746"><ele>252.59999999999997</ele><time>2026-03-28T09:24:15.211Z</time></trkpt><trkpt lat="43.5733134" lon="11.319098"><ele>250.79999999999998</ele><time>2026-03-28T09:24:17.212Z</time></trkpt><trkpt lat="43.5732592" lon="11.3191521"><ele>249.0</ele><time>2026-03-28T09:24:18.211Z</time></trkpt><trkpt lat="43.573194" lon="11.3191882"><ele>249.0</ele><time>2026-03-28T09:24:19.212Z</time></trkpt><trkpt lat="43.5730688" lon="11.3192511"><ele>249.0</ele><time>2026-03-28T09:24:21.212Z</time></trkpt><trkpt lat="43.5729991" lon="11.3192873"><ele>249.0</ele><time>2026-03-28T09:24:22.211Z</time></trkpt><trkpt lat="43.5729282" lon="11.3193229"><ele>249.0</ele><time>2026-03-28T09:24:23.212Z</time></trkpt><trkpt lat="43.5728564" lon="11.3193561"><ele>249.0</ele><time>2026-03-28T09:24:24.211Z</time></trkpt><trkpt lat="43.5727842" lon="11.319392"><ele>249.0</ele><time>2026-03-28T09:24:25.212Z</time></trkpt><trkpt lat="43.5727149" lon="11.3194257"><ele>250.5</ele><time>2026-03-28T09:24:26.212Z</time></trkpt><trkpt lat="43.5726535" lon="11.3194541"><ele>252.0</ele><time>2026-03-28T09:24:27.211Z</time></trkpt><trkpt lat="43.5725487" lon="11.3194957"><ele>253.5</ele><time>2026-03-28T09:24:29.212Z</time></trkpt><trkpt lat="43.5724568" lon="11.3195224"><ele>255.0</ele><time>2026-03-28T09:24:31.211Z</time></trkpt><trkpt lat="43.572387" lon="11.3194689"><ele>256.5</ele><time>2026-03-28T09:24:47.212Z</time></trkpt><trkpt lat="43.5723137" lon="11.3194196"><ele>258.0</ele><time>2026-03-28T09:24:50.212Z</time></trkpt><trkpt lat="43.5722008" lon="11.319473"><ele>258.0</ele><time>2026-03-28T09:24:52.212Z</time></trkpt><trkpt lat="43.5721237" lon="11.3195174"><ele>258.0</ele><time>2026-03-28T09:24:53.211Z</time></trkpt><trkpt lat="43.5720391" lon="11.3195651"><ele>258.0</ele><time>2026-03-28T09:24:54.211Z</time></trkpt><trkpt lat="43.5719434" lon="11.319613"><ele>258.0</ele><time>2026-03-28T09:24:55.211Z</time></trkpt><trkpt lat="43.5718296" lon="11.3196675"><ele>258.0</ele><time>2026-03-28T09:24:56.211Z</time></trkpt><trkpt lat="43.5717107" lon="11.3197282"><ele>256.0</ele><time>2026-03-28T09:24:57.212Z</time></trkpt><trkpt lat="43.5715941" lon="11.3197856"><ele>254.0</ele><time>2026-03-28T09:24:58.212Z</time></trkpt><trkpt lat="43.5714726" lon="11.3198484"><ele>252.0</ele><time>2026-03-28T09:24:59.211Z</time></trkpt><trkpt lat="43.5713511" lon="11.3199069"><ele>250.0</ele><time>2026-03-28T09:25:00.211Z</time></trkpt><trkpt lat="43.571231" lon="11.319964"><ele>252.25</ele><time>2026-03-28T09:25:01.211Z</time></trkpt><trkpt lat="43.5711105" lon="11.320024"><ele>254.5</ele><time>2026-03-28T09:25:02.212Z</time></trkpt><trkpt lat="43.5709898" lon="11.3200819"><ele>256.75</ele><time>2026-03-28T09:25:03.211Z</time></trkpt><trkpt lat="43.5708676" lon="11.3201418"><ele>259.0</ele><time>2026-03-28T09:25:04.212Z</time></trkpt><trkpt lat="43.5707451" lon="11.3202021"><ele>259.0</ele><time>2026-03-28T09:25:05.211Z</time></trkpt><trkpt lat="43.5706191" lon="11.3202597"><ele>259.0</ele><time>2026-03-28T09:25:06.212Z</time></trkpt><trkpt lat="43.5704924" lon="11.3203106"><ele>259.0</ele><time>2026-03-28T09:25:07.212Z</time></trkpt><trkpt lat="43.5703731" lon="11.320348"><ele>259.0</ele><time>2026-03-28T09:25:08.212Z</time></trkpt><trkpt lat="43.5702542" lon="11.3203839"><ele>259.75</ele><time>2026-03-28T09:25:09.212Z</time></trkpt><trkpt lat="43.5701356" lon="11.3204157"><ele>260.5</ele><time>2026-03-28T09:25:10.211Z</time></trkpt><trkpt lat="43.5700207" lon="11.3204459"><ele>261.25</ele><time>2026-03-28T09:25:11.211Z</time></trkpt><trkpt lat="43.5698981" lon="11.3204739"><ele>262.0</ele><time>2026-03-28T09:25:12.211Z</time></trkpt><trkpt lat="43.5697746" lon="11.3205073"><ele>262.0</ele><time>2026-03-28T09:25:13.211Z</time></trkpt><trkpt lat="43.5696458" lon="11.3205416"><ele>262.0</ele><time>2026-03-28T09:25:14.211Z</time></trkpt><trkpt lat="43.5695226" lon="11.3205817"><ele>262.0</ele><time>2026-03-28T09:25:15.211Z</time></trkpt><trkpt lat="43.5694151" lon="11.3206474"><ele>262.0</ele><time>2026-03-28T09:25:16.212Z</time></trkpt><trkpt lat="43.5693146" lon="11.3207242"><ele>263.25</ele><time>2026-03-28T09:25:17.211Z</time></trkpt><trkpt lat="43.5692597" lon="11.3208528"><ele>264.5</ele><time>2026-03-28T09:25:18.211Z</time></trkpt><trkpt lat="43.5692524" lon="11.3210292"><ele>265.75</ele><time>2026-03-28T09:25:19.211Z</time></trkpt><trkpt lat="43.569231" lon="11.3212012"><ele>267.0</ele><time>2026-03-28T09:25:20.212Z</time></trkpt><trkpt lat="43.569213" lon="11.3213845"><ele>266.0</ele><time>2026-03-28T09:25:21.211Z</time></trkpt><trkpt lat="43.5691856" lon="11.3215709"><ele>265.0</ele><time>2026-03-28T09:25:22.212Z</time></trkpt><trkpt lat="43.5691288" lon="11.3217472"><ele>264.0</ele><time>2026-03-28T09:25:23.212Z</time></trkpt><trkpt lat="43.5690364" lon="11.3219377"><ele>263.0</ele><time>2026-03-28T09:25:24.212Z</time></trkpt><trkpt lat="43.5689361" lon="11.3221121"><ele>261.0</ele><time>2026-03-28T09:25:25.212Z</time></trkpt><trkpt lat="43.5688367" lon="11.3222738"><ele>259.0</ele><time>2026-03-28T09:25:26.212Z</time></trkpt><trkpt lat="43.5687337" lon="11.3224278"><ele>257.0</ele><time>2026-03-28T09:25:27.211Z</time></trkpt><trkpt lat="43.5686131" lon="11.322528"><ele>255.0</ele><time>2026-03-28T09:25:28.212Z</time></trkpt><trkpt lat="43.5684627" lon="11.3225797"><ele>263.0</ele><time>2026-03-28T09:25:29.212Z</time></trkpt><trkpt lat="43.5683062" lon="11.3226165"><ele>271.0</ele><time>2026-03-28T09:25:30.212Z</time></trkpt><trkpt lat="43.5681532" lon="11.3226389"><ele>279.0</ele><time>2026-03-28T09:25:31.212Z</time></trkpt><trkpt lat="43.5679892" lon="11.3226736"><ele>281.3333333333333</ele><time>2026-03-28T09:25:32.212Z</time></trkpt><trkpt lat="43.5678185" lon="11.322712"><ele>283.66666666666663</ele><time>2026-03-28T09:25:33.212Z</time></trkpt><trkpt lat="43.5676446" lon="11.322744"><ele>286.0</ele><time>2026-03-28T09:25:34.211Z</time></trkpt><trkpt lat="43.5674789" lon="11.3227535"><ele>286.0</ele><time>2026-03-28T09:25:35.212Z</time></trkpt><trkpt lat="43.5673078" lon="11.3227056"><ele>286.0</ele><time>2026-03-28T09:25:36.212Z</time></trkpt><trkpt lat="43.5671447" lon="11.3226012"><ele>286.0</ele><time>2026-03-28T09:25:37.211Z</time></trkpt><trkpt lat="43.5669825" lon="11.3224985"><ele>284.66666666666663</ele><time>2026-03-28T09:25:38.211Z</time></trkpt><trkpt lat="43.5668221" lon="11.3224164"><ele>283.3333333333333</ele><time>2026-03-28T09:25:39.211Z</time></trkpt><trkpt lat="43.5666446" lon="11.3223699"><ele>282.0</ele><time>2026-03-28T09:25:40.211Z</time></trkpt><trkpt lat="43.5664808" lon="11.3223402"><ele>282.0</ele><time>2026-03-28T09:25:41.212Z</time></trkpt><trkpt lat="43.5663238" lon="11.3223326"><ele>282.0</ele><time>2026-03-28T09:25:42.212Z</time></trkpt><trkpt lat="43.5661768" lon="11.3223528"><ele>282.0</ele><time>2026-03-28T09:25:43.211Z</time></trkpt><trkpt lat="43.566042" lon="11.3223916"><ele>282.0</ele><time>2026-03-28T09:25:44.212Z</time></trkpt><trkpt lat="43.5659105" lon="11.3224402"><ele>282.75</ele><time>2026-03-28T09:25:45.211Z</time></trkpt><trkpt lat="43.5657903" lon="11.3224756"><ele>283.5</ele><time>2026-03-28T09:25:46.211Z</time></trkpt><trkpt lat="43.5656665" lon="11.3225045"><ele>284.25</ele><time>2026-03-28T09:25:47.211Z</time></trkpt><trkpt lat="43.5655442" lon="11.322525"><ele>285.0</ele><time>2026-03-28T09:25:48.212Z</time></trkpt><trkpt lat="43.565425" lon="11.3225389"><ele>287.0</ele><time>2026-03-28T09:25:49.211Z</time></trkpt><trkpt lat="43.565323" lon="11.3225468"><ele>289.0</ele><time>2026-03-28T09:25:50.211Z</time></trkpt><trkpt lat="43.565231" lon="11.3225527"><ele>291.0</ele><time>2026-03-28T09:25:51.212Z</time></trkpt><trkpt lat="43.565133" lon="11.3225583"><ele>293.0</ele><time>2026-03-28T09:25:52.212Z</time></trkpt><trkpt lat="43.5650329" lon="11.3225671"><ele>295.0</ele><time>2026-03-28T09:25:53.211Z</time></trkpt><trkpt lat="43.5649341" lon="11.3225661"><ele>295.0</ele><time>2026-03-28T09:25:54.211Z</time></trkpt><trkpt lat="43.5648372" lon="11.3225746"><ele>295.0</ele><time>2026-03-28T09:25:55.211Z</time></trkpt><trkpt lat="43.5647278" lon="11.3225878"><ele>295.0</ele><time>2026-03-28T09:25:56.211Z</time></trkpt><trkpt lat="43.5646022" lon="11.3225889"><ele>295.0</ele><time>2026-03-28T09:25:57.211Z</time></trkpt><trkpt lat="43.5644889" lon="11.3226019"><ele>295.0</ele><time>2026-03-28T09:25:58.212Z</time></trkpt><trkpt lat="43.5643672" lon="11.3226147"><ele>297.75</ele><time>2026-03-28T09:25:59.211Z</time></trkpt><trkpt lat="43.5642425" lon="11.3226301"><ele>300.5</ele><time>2026-03-28T09:26:00.211Z</time></trkpt><trkpt lat="43.564111" lon="11.322642"><ele>303.25</ele><time>2026-03-28T09:26:01.211Z</time></trkpt><trkpt lat="43.5639722" lon="11.322656"><ele>306.0</ele><time>2026-03-28T09:26:02.212Z</time></trkpt><trkpt lat="43.5638314" lon="11.3226762"><ele>306.0</ele><time>2026-03-28T09:26:03.212Z</time></trkpt><trkpt lat="43.5636978" lon="11.3226851"><ele>306.0</ele><time>2026-03-28T09:26:04.212Z</time></trkpt><trkpt lat="43.5635658" lon="11.3227012"><ele>306.0</ele><time>2026-03-28T09:26:05.211Z</time></trkpt><trkpt lat="43.5634341" lon="11.3227087"><ele>306.0</ele><time>2026-03-28T09:26:06.211Z</time></trkpt><trkpt lat="43.5633053" lon="11.3227097"><ele>309.0</ele><time>2026-03-28T09:26:07.211Z</time></trkpt><trkpt lat="43.5631784" lon="11.3227206"><ele>312.0</ele><time>2026-03-28T09:26:08.211Z</time></trkpt><trkpt lat="43.5630486" lon="11.3227288"><ele>315.0</ele><time>2026-03-28T09:26:09.21Z</time></trkpt><trkpt lat="43.5629168" lon="11.3227126"><ele>318.0</ele><time>2026-03-28T09:26:10.211Z</time></trkpt><trkpt lat="43.562789" lon="11.3227131"><ele>320.0</ele><time>2026-03-28T09:26:11.211Z</time></trkpt><trkpt lat="43.5626709" lon="11.3227108"><ele>322.0</ele><time>2026-03-28T09:26:12.211Z</time></trkpt><trkpt lat="43.562544" lon="11.3226913"><ele>324.0</ele><time>2026-03-28T09:26:13.211Z</time></trkpt><trkpt lat="43.5624278" lon="11.3226607"><ele>326.0</ele><time>2026-03-28T09:26:14.21Z</time></trkpt><trkpt lat="43.5623071" lon="11.3226315"><ele>326.0</ele><time>2026-03-28T09:26:15.211Z</time></trkpt><trkpt lat="43.562192" lon="11.3226159"><ele>326.0</ele><time>2026-03-28T09:26:16.211Z</time></trkpt><trkpt lat="43.5620624" lon="11.3226159"><ele>326.0</ele><time>2026-03-28T09:26:17.211Z</time></trkpt><trkpt lat="43.5619387" lon="11.3226125"><ele>326.0</ele><time>2026-03-28T09:26:18.212Z</time></trkpt><trkpt lat="43.5618271" lon="11.3225975"><ele>328.0</ele><time>2026-03-28T09:26:19.212Z</time></trkpt><trkpt lat="43.5617226" lon="11.322579"><ele>330.0</ele><time>2026-03-28T09:26:20.211Z</time></trkpt><trkpt lat="43.561614" lon="11.3225089"><ele>332.0</ele><time>2026-03-28T09:26:21.212Z</time></trkpt><trkpt lat="43.5614988" lon="11.3224542"><ele>334.0</ele><time>2026-03-28T09:26:22.211Z</time></trkpt><trkpt lat="43.5613843" lon="11.3223957"><ele>334.0</ele><time>2026-03-28T09:26:23.212Z</time></trkpt><trkpt lat="43.5612673" lon="11.3223369"><ele>334.0</ele><time>2026-03-28T09:26:24.211Z</time></trkpt><trkpt lat="43.5611542" lon="11.3222842"><ele>334.0</ele><time>2026-03-28T09:26:25.212Z</time></trkpt><trkpt lat="43.5610512" lon="11.3222372"><ele>334.0</ele><time>2026-03-28T09:26:26.211Z</time></trkpt><trkpt lat="43.5609465" lon="11.3221909"><ele>334.2</ele><time>2026-03-28T09:26:27.212Z</time></trkpt><trkpt lat="43.5608442" lon="11.3221492"><ele>334.4</ele><time>2026-03-28T09:26:28.211Z</time></trkpt><trkpt lat="43.5607445" lon="11.3221139"><ele>334.6</ele><time>2026-03-28T09:26:29.212Z</time></trkpt><trkpt lat="43.5606621" lon="11.3220889"><ele>334.8</ele><time>2026-03-28T09:26:30.211Z</time></trkpt><trkpt lat="43.5605786" lon="11.3220606"><ele>335.0</ele><time>2026-03-28T09:26:31.212Z</time></trkpt><trkpt lat="43.5604823" lon="11.3220249"><ele>335.0</ele><time>2026-03-28T09:26:32.211Z</time></trkpt><trkpt lat="43.5603811" lon="11.3219875"><ele>335.0</ele><time>2026-03-28T09:26:33.212Z</time></trkpt><trkpt lat="43.5602885" lon="11.3219488"><ele>335.0</ele><time>2026-03-28T09:26:34.211Z</time></trkpt><trkpt lat="43.560204" lon="11.3218935"><ele>335.0</ele><time>2026-03-28T09:26:35.211Z</time></trkpt><trkpt lat="43.5601345" lon="11.3218335"><ele>335.0</ele><time>2026-03-28T09:26:36.211Z</time></trkpt><trkpt lat="43.5600751" lon="11.3217758"><ele>336.33333333333337</ele><time>2026-03-28T09:26:37.211Z</time></trkpt><trkpt lat="43.5599579" lon="11.3216904"><ele>337.6666666666667</ele><time>2026-03-28T09:26:39.211Z</time></trkpt><trkpt lat="43.5598861" lon="11.3216624"><ele>339.0</ele><time>2026-03-28T09:26:40.211Z</time></trkpt><trkpt lat="43.5598148" lon="11.3216506"><ele>340.3333333333333</ele><time>2026-03-28T09:26:41.211Z</time></trkpt><trkpt lat="43.5597287" lon="11.3216455"><ele>341.66666666666663</ele><time>2026-03-28T09:26:42.211Z</time></trkpt><trkpt lat="43.5596451" lon="11.321645"><ele>343.0</ele><time>2026-03-28T09:26:43.211Z</time></trkpt><trkpt lat="43.5595275" lon="11.3216437"><ele>343.3333333333333</ele><time>2026-03-28T09:26:45.211Z</time></trkpt><trkpt lat="43.559452" lon="11.3216456"><ele>343.66666666666663</ele><time>2026-03-28T09:26:47.211Z</time></trkpt><trkpt lat="43.5593798" lon="11.3216511"><ele>344.0</ele><time>2026-03-28T09:26:50.211Z</time></trkpt><trkpt lat="43.5592958" lon="11.3216782"><ele>344.3333333333333</ele><time>2026-03-28T09:27:01.211Z</time></trkpt><trkpt lat="43.5592137" lon="11.3217367"><ele>344.6666666666667</ele><time>2026-03-28T09:27:03.212Z</time></trkpt><trkpt lat="43.5591" lon="11.3217958"><ele>345.0</ele><time>2026-03-28T09:27:05.211Z</time></trkpt><trkpt lat="43.5590271" lon="11.3218313"><ele>345.0</ele><time>2026-03-28T09:27:06.212Z</time></trkpt><trkpt lat="43.5589509" lon="11.3218455"><ele>345.0</ele><time>2026-03-28T09:27:07.212Z</time></trkpt><trkpt lat="43.5588644" lon="11.3218569"><ele>345.0</ele><time>2026-03-28T09:27:08.211Z</time></trkpt><trkpt lat="43.5587691" lon="11.3218658"><ele>345.0</ele><time>2026-03-28T09:27:09.211Z</time></trkpt><trkpt lat="43.5586703" lon="11.3218778"><ele>345.0</ele><time>2026-03-28T09:27:10.211Z</time></trkpt><trkpt lat="43.5585755" lon="11.3218906"><ele>348.2</ele><time>2026-03-28T09:27:11.211Z</time></trkpt><trkpt lat="43.5584829" lon="11.3219033"><ele>351.4</ele><time>2026-03-28T09:27:12.211Z</time></trkpt><trkpt lat="43.5583869" lon="11.3219121"><ele>354.6</ele><time>2026-03-28T09:27:13.211Z</time></trkpt><trkpt lat="43.5582879" lon="11.3219225"><ele>357.8</ele><time>2026-03-28T09:27:14.211Z</time></trkpt><trkpt lat="43.5581861" lon="11.3219431"><ele>361.0</ele><time>2026-03-28T09:27:15.211Z</time></trkpt><trkpt lat="43.5580792" lon="11.3219589"><ele>361.0</ele><time>2026-03-28T09:27:16.211Z</time></trkpt><trkpt lat="43.5579575" lon="11.3219705"><ele>361.0</ele><time>2026-03-28T09:27:17.211Z</time></trkpt><trkpt lat="43.5578197" lon="11.321978"><ele>361.0</ele><time>2026-03-28T09:27:18.211Z</time></trkpt><trkpt lat="43.5576723" lon="11.3219773"><ele>361.0</ele><time>2026-03-28T09:27:19.211Z</time></trkpt><trkpt lat="43.557527" lon="11.3219646"><ele>362.5</ele><time>2026-03-28T09:27:20.211Z</time></trkpt><trkpt lat="43.5573944" lon="11.3219449"><ele>364.0</ele><time>2026-03-28T09:27:21.211Z</time></trkpt><trkpt lat="43.5572607" lon="11.3219266"><ele>365.5</ele><time>2026-03-28T09:27:22.211Z</time></trkpt><trkpt lat="43.557136" lon="11.3219084"><ele>367.0</ele><time>2026-03-28T09:27:23.211Z</time></trkpt><trkpt lat="43.5570092" lon="11.3218934"><ele>367.0</ele><time>2026-03-28T09:27:24.211Z</time></trkpt><trkpt lat="43.5568833" lon="11.3218776"><ele>367.0</ele><time>2026-03-28T09:27:25.211Z</time></trkpt><trkpt lat="43.5567576" lon="11.321857"><ele>367.0</ele><time>2026-03-28T09:27:26.211Z</time></trkpt><trkpt lat="43.5566322" lon="11.3218407"><ele>367.0</ele><time>2026-03-28T09:27:27.212Z</time></trkpt><trkpt lat="43.5565055" lon="11.3218232"><ele>367.0</ele><time>2026-03-28T09:27:28.212Z</time></trkpt><trkpt lat="43.5563808" lon="11.3217997"><ele>367.0</ele><time>2026-03-28T09:27:29.211Z</time></trkpt><trkpt lat="43.5562568" lon="11.3217869"><ele>367.0</ele><time>2026-03-28T09:27:30.212Z</time></trkpt><trkpt lat="43.5561388" lon="11.3217837"><ele>367.0</ele><time>2026-03-28T09:27:31.212Z</time></trkpt><trkpt lat="43.5560254" lon="11.321785"><ele>369.5</ele><time>2026-03-28T09:27:32.211Z</time></trkpt><trkpt lat="43.5559153" lon="11.3217835"><ele>372.0</ele><time>2026-03-28T09:27:33.212Z</time></trkpt><trkpt lat="43.5558168" lon="11.3217922"><ele>374.5</ele><time>2026-03-28T09:27:34.211Z</time></trkpt><trkpt lat="43.5557346" lon="11.3218201"><ele>377.0</ele><time>2026-03-28T09:27:35.212Z</time></trkpt><trkpt lat="43.5556663" lon="11.3218677"><ele>379.5</ele><time>2026-03-28T09:27:36.211Z</time></trkpt><trkpt lat="43.5556139" lon="11.3219273"><ele>382.0</ele><time>2026-03-28T09:27:37.211Z</time></trkpt><trkpt lat="43.5555807" lon="11.322013"><ele>382.0</ele><time>2026-03-28T09:27:39.212Z</time></trkpt><trkpt lat="43.5555525" lon="11.3221365"><ele>382.0</ele><time>2026-03-28T09:27:41.211Z</time></trkpt><trkpt lat="43.5555067" lon="11.3222715"><ele>382.0</ele><time>2026-03-28T09:27:43.212Z</time></trkpt><trkpt lat="43.5554339" lon="11.3224029"><ele>382.0</ele><time>2026-03-28T09:27:45.212Z</time></trkpt><trkpt lat="43.5553342" lon="11.3224851"><ele>382.0</ele><time>2026-03-28T09:27:47.212Z</time></trkpt><trkpt lat="43.5552679" lon="11.3225131"><ele>384.14285714285717</ele><time>2026-03-28T09:27:48.212Z</time></trkpt><trkpt lat="43.5551946" lon="11.3225249"><ele>386.2857142857143</ele><time>2026-03-28T09:27:49.211Z</time></trkpt><trkpt lat="43.555122" lon="11.3225206"><ele>388.42857142857144</ele><time>2026-03-28T09:27:50.211Z</time></trkpt><trkpt lat="43.5550463" lon="11.3225147"><ele>390.57142857142856</ele><time>2026-03-28T09:27:51.212Z</time></trkpt><trkpt lat="43.5549647" lon="11.3225108"><ele>392.71428571428567</ele><time>2026-03-28T09:27:52.211Z</time></trkpt><trkpt lat="43.5548961" lon="11.3224962"><ele>394.85714285714283</ele><time>2026-03-28T09:27:53.212Z</time></trkpt><trkpt lat="43.5548334" lon="11.3224661"><ele>397.0</ele><time>2026-03-28T09:27:54.212Z</time></trkpt><trkpt lat="43.5547708" lon="11.3224199"><ele>397.00000000000006</ele><time>2026-03-28T09:27:55.211Z</time></trkpt><trkpt lat="43.554703" lon="11.3223539"><ele>397.0</ele><time>2026-03-28T09:27:56.212Z</time></trkpt><trkpt lat="43.5546299" lon="11.3222783"><ele>397.0</ele><time>2026-03-28T09:27:57.211Z</time></trkpt><trkpt lat="43.5545571" lon="11.3222037"><ele>397.0</ele><time>2026-03-28T09:27:58.212Z</time></trkpt><trkpt lat="43.55449" lon="11.3221443"><ele>397.00000000000006</ele><time>2026-03-28T09:27:59.211Z</time></trkpt><trkpt lat="43.5544203" lon="11.3220961"><ele>397.0</ele><time>2026-03-28T09:28:00.212Z</time></trkpt><trkpt lat="43.55435" lon="11.3220662"><ele>399.00000000000006</ele><time>2026-03-28T09:28:01.211Z</time></trkpt><trkpt lat="43.5542764" lon="11.3220492"><ele>401.0</ele><time>2026-03-28T09:28:02.211Z</time></trkpt><trkpt lat="43.5541986" lon="11.3220466"><ele>403.0</ele><time>2026-03-28T09:28:03.211Z</time></trkpt><trkpt lat="43.554116" lon="11.3220407"><ele>405.0</ele><time>2026-03-28T09:28:04.211Z</time></trkpt><trkpt lat="43.554031" lon="11.3220332"><ele>407.00000000000006</ele><time>2026-03-28T09:28:05.211Z</time></trkpt><trkpt lat="43.553942" lon="11.3220271"><ele>409.0</ele><time>2026-03-28T09:28:06.211Z</time></trkpt><trkpt lat="43.5538545" lon="11.3220222"><ele>409.0</ele><time>2026-03-28T09:28:07.211Z</time></trkpt><trkpt lat="43.5537616" lon="11.3220109"><ele>409.0</ele><time>2026-03-28T09:28:08.211Z</time></trkpt><trkpt lat="43.5536719" lon="11.3220057"><ele>409.0</ele><time>2026-03-28T09:28:09.21Z</time></trkpt><trkpt lat="43.5535811" lon="11.3219983"><ele>409.0</ele><time>2026-03-28T09:28:10.212Z</time></trkpt><trkpt lat="43.5534928" lon="11.3219903"><ele>409.0</ele><time>2026-03-28T09:28:11.211Z</time></trkpt><trkpt lat="43.5534032" lon="11.3219796"><ele>409.79999999999995</ele><time>2026-03-28T09:28:12.212Z</time></trkpt><trkpt lat="43.5533121" lon="11.3219694"><ele>410.59999999999997</ele><time>2026-03-28T09:28:13.211Z</time></trkpt><trkpt lat="43.5532143" lon="11.3219583"><ele>411.4</ele><time>2026-03-28T09:28:14.211Z</time></trkpt><trkpt lat="43.5531127" lon="11.3219496"><ele>412.2</ele><time>2026-03-28T09:28:15.211Z</time></trkpt><trkpt lat="43.5530169" lon="11.3219511"><ele>413.0</ele><time>2026-03-28T09:28:16.211Z</time></trkpt><trkpt lat="43.5529136" lon="11.32196"><ele>414.2</ele><time>2026-03-28T09:28:17.211Z</time></trkpt><trkpt lat="43.5528101" lon="11.3219734"><ele>415.4</ele><time>2026-03-28T09:28:18.212Z</time></trkpt><trkpt lat="43.5527137" lon="11.3219864"><ele>416.59999999999997</ele><time>2026-03-28T09:28:19.211Z</time></trkpt><trkpt lat="43.5526125" lon="11.3220005"><ele>417.79999999999995</ele><time>2026-03-28T09:28:20.211Z</time></trkpt><trkpt lat="43.5525051" lon="11.3220133"><ele>419.0</ele><time>2026-03-28T09:28:21.211Z</time></trkpt><trkpt lat="43.5523959" lon="11.3220111"><ele>419.0</ele><time>2026-03-28T09:28:22.211Z</time></trkpt><trkpt lat="43.5522853" lon="11.3219923"><ele>419.0</ele><time>2026-03-28T09:28:23.212Z</time></trkpt><trkpt lat="43.5521812" lon="11.321971"><ele>419.0</ele><time>2026-03-28T09:28:24.211Z</time></trkpt><trkpt lat="43.5520761" lon="11.321948"><ele>419.0</ele><time>2026-03-28T09:28:25.212Z</time></trkpt><trkpt lat="43.5519669" lon="11.3219253"><ele>419.0</ele><time>2026-03-28T09:28:26.212Z</time></trkpt><trkpt lat="43.5518561" lon="11.3218888"><ele>420.0</ele><time>2026-03-28T09:28:27.212Z</time></trkpt><trkpt lat="43.5517362" lon="11.3218339"><ele>421.0</ele><time>2026-03-28T09:28:28.211Z</time></trkpt><trkpt lat="43.5516159" lon="11.3217678"><ele>422.0</ele><time>2026-03-28T09:28:29.211Z</time></trkpt><trkpt lat="43.5515028" lon="11.321698"><ele>423.0</ele><time>2026-03-28T09:28:30.211Z</time></trkpt><trkpt lat="43.5513933" lon="11.32163"><ele>423.0</ele><time>2026-03-28T09:28:31.211Z</time></trkpt><trkpt lat="43.5512818" lon="11.3215613"><ele>423.0</ele><time>2026-03-28T09:28:32.212Z</time></trkpt><trkpt lat="43.5511759" lon="11.3214944"><ele>423.0</ele><time>2026-03-28T09:28:33.211Z</time></trkpt><trkpt lat="43.5510637" lon="11.3214142"><ele>423.0</ele><time>2026-03-28T09:28:34.212Z</time></trkpt><trkpt lat="43.5509524" lon="11.3213297"><ele>422.25</ele><time>2026-03-28T09:28:35.211Z</time></trkpt><trkpt lat="43.5508308" lon="11.321235"><ele>421.5</ele><time>2026-03-28T09:28:36.211Z</time></trkpt><trkpt lat="43.5507059" lon="11.3211407"><ele>420.75</ele><time>2026-03-28T09:28:37.211Z</time></trkpt><trkpt lat="43.5505784" lon="11.3210452"><ele>420.0</ele><time>2026-03-28T09:28:38.211Z</time></trkpt><trkpt lat="43.5504601" lon="11.3209589"><ele>420.25</ele><time>2026-03-28T09:28:39.212Z</time></trkpt><trkpt lat="43.5503424" lon="11.3208829"><ele>420.5</ele><time>2026-03-28T09:28:40.211Z</time></trkpt><trkpt lat="43.5502272" lon="11.3208099"><ele>420.75</ele><time>2026-03-28T09:28:41.211Z</time></trkpt><trkpt lat="43.5501105" lon="11.3207385"><ele>421.0</ele><time>2026-03-28T09:28:42.211Z</time></trkpt><trkpt lat="43.5499902" lon="11.3206764"><ele>421.0</ele><time>2026-03-28T09:28:43.211Z</time></trkpt><trkpt lat="43.5498648" lon="11.3206183"><ele>421.0</ele><time>2026-03-28T09:28:44.212Z</time></trkpt><trkpt lat="43.5497397" lon="11.3205597"><ele>421.0</ele><time>2026-03-28T09:28:45.211Z</time></trkpt><trkpt lat="43.549617" lon="11.3205085"><ele>421.0</ele><time>2026-03-28T09:28:46.211Z</time></trkpt><trkpt lat="43.5494955" lon="11.3204575"><ele>423.25</ele><time>2026-03-28T09:28:47.212Z</time></trkpt><trkpt lat="43.5493764" lon="11.320407"><ele>425.5</ele><time>2026-03-28T09:28:48.212Z</time></trkpt><trkpt lat="43.5492578" lon="11.3203535"><ele>427.75</ele><time>2026-03-28T09:28:49.211Z</time></trkpt><trkpt lat="43.5491398" lon="11.3203017"><ele>430.0</ele><time>2026-03-28T09:28:50.212Z</time></trkpt><trkpt lat="43.5490403" lon="11.320256"><ele>430.0</ele><time>2026-03-28T09:28:51.211Z</time></trkpt><trkpt lat="43.548953" lon="11.3202197"><ele>430.0</ele><time>2026-03-28T09:28:52.211Z</time></trkpt><trkpt lat="43.5488662" lon="11.3201995"><ele>430.0</ele><time>2026-03-28T09:28:53.212Z</time></trkpt><trkpt lat="43.548774" lon="11.3201999"><ele>430.0</ele><time>2026-03-28T09:28:54.211Z</time></trkpt><trkpt lat="43.5486776" lon="11.3202132"><ele>430.0</ele><time>2026-03-28T09:28:55.211Z</time></trkpt><trkpt lat="43.5485907" lon="11.3202232"><ele>432.2</ele><time>2026-03-28T09:28:56.212Z</time></trkpt><trkpt lat="43.5485031" lon="11.3202408"><ele>434.4</ele><time>2026-03-28T09:28:57.211Z</time></trkpt><trkpt lat="43.5484115" lon="11.3202625"><ele>436.6</ele><time>2026-03-28T09:28:58.211Z</time></trkpt><trkpt lat="43.5483144" lon="11.320281"><ele>438.8</ele><time>2026-03-28T09:28:59.211Z</time></trkpt><trkpt lat="43.5482075" lon="11.3202994"><ele>441.0</ele><time>2026-03-28T09:29:00.212Z</time></trkpt><trkpt lat="43.5480985" lon="11.3203237"><ele>441.0</ele><time>2026-03-28T09:29:01.212Z</time></trkpt><trkpt lat="43.547987" lon="11.3203422"><ele>441.0</ele><time>2026-03-28T09:29:02.211Z</time></trkpt><trkpt lat="43.5478754" lon="11.3203564"><ele>441.0</ele><time>2026-03-28T09:29:03.211Z</time></trkpt><trkpt lat="43.5477859" lon="11.3203593"><ele>441.0</ele><time>2026-03-28T09:29:04.211Z</time></trkpt><trkpt lat="43.5477161" lon="11.3203535"><ele>441.0</ele><time>2026-03-28T09:29:05.211Z</time></trkpt><trkpt lat="43.5476383" lon="11.3202715"><ele>443.1666666666667</ele><time>2026-03-28T09:29:07.211Z</time></trkpt><trkpt lat="43.5475949" lon="11.3201961"><ele>445.33333333333337</ele><time>2026-03-28T09:29:08.211Z</time></trkpt><trkpt lat="43.5475408" lon="11.3201058"><ele>447.5</ele><time>2026-03-28T09:29:09.211Z</time></trkpt><trkpt lat="43.5474778" lon="11.3200272"><ele>449.6666666666667</ele><time>2026-03-28T09:29:10.211Z</time></trkpt><trkpt lat="43.5474036" lon="11.3199531"><ele>451.83333333333337</ele><time>2026-03-28T09:29:11.211Z</time></trkpt><trkpt lat="43.547326" lon="11.3198849"><ele>454.0</ele><time>2026-03-28T09:29:12.211Z</time></trkpt><trkpt lat="43.5472539" lon="11.3198274"><ele>454.00000000000006</ele><time>2026-03-28T09:29:13.21Z</time></trkpt><trkpt lat="43.5471899" lon="11.3197742"><ele>454.0</ele><time>2026-03-28T09:29:14.211Z</time></trkpt><trkpt lat="43.5471258" lon="11.3197187"><ele>454.0</ele><time>2026-03-28T09:29:15.212Z</time></trkpt><trkpt lat="43.5470695" lon="11.3196697"><ele>454.0</ele><time>2026-03-28T09:29:16.211Z</time></trkpt><trkpt lat="43.5469835" lon="11.3195922"><ele>454.00000000000006</ele><time>2026-03-28T09:29:18.211Z</time></trkpt><trkpt lat="43.5469309" lon="11.3195438"><ele>454.0</ele><time>2026-03-28T09:29:21.212Z</time></trkpt><trkpt lat="43.5468504" lon="11.3194879"><ele>455.33333333333337</ele><time>2026-03-28T09:30:07.212Z</time></trkpt><trkpt lat="43.5467987" lon="11.3194315"><ele>456.6666666666667</ele><time>2026-03-28T09:30:08.211Z</time></trkpt><trkpt lat="43.5467383" lon="11.3193506"><ele>458.0</ele><time>2026-03-28T09:30:09.211Z</time></trkpt><trkpt lat="43.5466765" lon="11.3192541"><ele>459.33333333333337</ele><time>2026-03-28T09:30:10.211Z</time></trkpt><trkpt lat="43.5466262" lon="11.3191519"><ele>460.6666666666667</ele><time>2026-03-28T09:30:11.212Z</time></trkpt><trkpt lat="43.5465888" lon="11.3190425"><ele>462.0</ele><time>2026-03-28T09:30:12.21Z</time></trkpt><trkpt lat="43.5465593" lon="11.3189148"><ele>461.40000000000003</ele><time>2026-03-28T09:30:13.211Z</time></trkpt><trkpt lat="43.5465402" lon="11.3187853"><ele>460.80000000000007</ele><time>2026-03-28T09:30:14.211Z</time></trkpt><trkpt lat="43.5465337" lon="11.3186613"><ele>460.2</ele><time>2026-03-28T09:30:15.21Z</time></trkpt><trkpt lat="43.5465364" lon="11.3185327"><ele>459.6</ele><time>2026-03-28T09:30:16.212Z</time></trkpt><trkpt lat="43.5465395" lon="11.3184012"><ele>459.0</ele><time>2026-03-28T09:30:17.211Z</time></trkpt><trkpt lat="43.5465351" lon="11.3182653"><ele>459.0</ele><time>2026-03-28T09:30:18.212Z</time></trkpt><trkpt lat="43.5465185" lon="11.3181401"><ele>459.0</ele><time>2026-03-28T09:30:19.211Z</time></trkpt><trkpt lat="43.54648" lon="11.3180203"><ele>459.0</ele><time>2026-03-28T09:30:20.212Z</time></trkpt><trkpt lat="43.5464186" lon="11.3179171"><ele>459.0</ele><time>2026-03-28T09:30:21.21Z</time></trkpt><trkpt lat="43.5463354" lon="11.3178427"><ele>459.0</ele><time>2026-03-28T09:30:22.211Z</time></trkpt><trkpt lat="43.5462413" lon="11.3177973"><ele>461.0</ele><time>2026-03-28T09:30:23.212Z</time></trkpt><trkpt lat="43.5461394" lon="11.3177751"><ele>463.0</ele><time>2026-03-28T09:30:24.211Z</time></trkpt><trkpt lat="43.5460337" lon="11.3177657"><ele>465.0</ele><time>2026-03-28T09:30:25.212Z</time></trkpt><trkpt lat="43.5459245" lon="11.3177571"><ele>467.0</ele><time>2026-03-28T09:30:26.212Z</time></trkpt><trkpt lat="43.5458102" lon="11.3177412"><ele>469.0</ele><time>2026-03-28T09:30:27.211Z</time></trkpt><trkpt lat="43.5457007" lon="11.3177227"><ele>469.0</ele><time>2026-03-28T09:30:28.211Z</time></trkpt><trkpt lat="43.5455915" lon="11.3176886"><ele>469.0</ele><time>2026-03-28T09:30:29.211Z</time></trkpt><trkpt lat="43.5454857" lon="11.3176475"><ele>469.0</ele><time>2026-03-28T09:30:30.212Z</time></trkpt><trkpt lat="43.5453835" lon="11.3175884"><ele>469.0</ele><time>2026-03-28T09:30:31.21Z</time></trkpt><trkpt lat="43.5452951" lon="11.3174912"><ele>469.0</ele><time>2026-03-28T09:30:32.212Z</time></trkpt><trkpt lat="43.5452232" lon="11.3173663"><ele>470.6</ele><time>2026-03-28T09:30:33.211Z</time></trkpt><trkpt lat="43.5451736" lon="11.3172295"><ele>472.2</ele><time>2026-03-28T09:30:34.211Z</time></trkpt><trkpt lat="43.5451457" lon="11.3170867"><ele>473.80000000000007</ele><time>2026-03-28T09:30:35.212Z</time></trkpt><trkpt lat="43.5451308" lon="11.3169497"><ele>475.40000000000003</ele><time>2026-03-28T09:30:36.212Z</time></trkpt><trkpt lat="43.5451248" lon="11.3168191"><ele>477.0</ele><time>2026-03-28T09:30:37.211Z</time></trkpt><trkpt lat="43.545129" lon="11.3166947"><ele>477.0</ele><time>2026-03-28T09:30:38.211Z</time></trkpt><trkpt lat="43.545134" lon="11.3165701"><ele>477.00000000000006</ele><time>2026-03-28T09:30:39.211Z</time></trkpt><trkpt lat="43.5451331" lon="11.3164343"><ele>477.00000000000006</ele><time>2026-03-28T09:30:40.211Z</time></trkpt><trkpt lat="43.5451186" lon="11.3163096"><ele>477.0</ele><time>2026-03-28T09:30:41.211Z</time></trkpt><trkpt lat="43.5450831" lon="11.3161946"><ele>477.0</ele><time>2026-03-28T09:30:42.211Z</time></trkpt><trkpt lat="43.5450271" lon="11.3161093"><ele>476.6666666666667</ele><time>2026-03-28T09:30:43.212Z</time></trkpt><trkpt lat="43.5449583" lon="11.3160598"><ele>476.33333333333337</ele><time>2026-03-28T09:30:44.212Z</time></trkpt><trkpt lat="43.5448832" lon="11.3160374"><ele>476.0</ele><time>2026-03-28T09:30:45.211Z</time></trkpt><trkpt lat="43.5448184" lon="11.3160345"><ele>475.6666666666667</ele><time>2026-03-28T09:30:46.211Z</time></trkpt><trkpt lat="43.5446887" lon="11.3160761"><ele>475.33333333333337</ele><time>2026-03-28T09:30:48.211Z</time></trkpt><trkpt lat="43.5446226" lon="11.3161238"><ele>475.0</ele><time>2026-03-28T09:30:49.211Z</time></trkpt><trkpt lat="43.5445748" lon="11.3162018"><ele>474.28571428571433</ele><time>2026-03-28T09:30:50.211Z</time></trkpt><trkpt lat="43.5445299" lon="11.3162802"><ele>473.5714285714286</ele><time>2026-03-28T09:30:51.212Z</time></trkpt><trkpt lat="43.5444843" lon="11.3163632"><ele>472.8571428571429</ele><time>2026-03-28T09:30:52.211Z</time></trkpt><trkpt lat="43.5444376" lon="11.3164371"><ele>472.1428571428571</ele><time>2026-03-28T09:30:53.211Z</time></trkpt><trkpt lat="43.5443916" lon="11.3165156"><ele>471.4285714285714</ele><time>2026-03-28T09:30:54.212Z</time></trkpt><trkpt lat="43.5443413" lon="11.3165927"><ele>470.71428571428567</ele><time>2026-03-28T09:30:55.212Z</time></trkpt><trkpt lat="43.5442938" lon="11.316656"><ele>470.0</ele><time>2026-03-28T09:30:56.211Z</time></trkpt><trkpt lat="43.5442178" lon="11.3167819"><ele>472.16666666666663</ele><time>2026-03-28T09:30:58.212Z</time></trkpt><trkpt lat="43.5441682" lon="11.3168438"><ele>474.3333333333333</ele><time>2026-03-28T09:30:59.212Z</time></trkpt><trkpt lat="43.5441109" lon="11.3169039"><ele>476.5</ele><time>2026-03-28T09:31:00.211Z</time></trkpt><trkpt lat="43.5440433" lon="11.3169527"><ele>478.66666666666663</ele><time>2026-03-28T09:31:01.211Z</time></trkpt><trkpt lat="43.5439754" lon="11.3170085"><ele>480.8333333333333</ele><time>2026-03-28T09:31:02.211Z</time></trkpt><trkpt lat="43.5439019" lon="11.3170567"><ele>483.0</ele><time>2026-03-28T09:31:03.212Z</time></trkpt><trkpt lat="43.5438341" lon="11.3171157"><ele>483.0</ele><time>2026-03-28T09:31:04.211Z</time></trkpt><trkpt lat="43.543771" lon="11.3171823"><ele>483.0</ele><time>2026-03-28T09:31:05.211Z</time></trkpt><trkpt lat="43.5437138" lon="11.3172574"><ele>483.0</ele><time>2026-03-28T09:31:06.211Z</time></trkpt><trkpt lat="43.5436589" lon="11.317336"><ele>483.0</ele><time>2026-03-28T09:31:07.211Z</time></trkpt><trkpt lat="43.5436035" lon="11.3174169"><ele>483.0</ele><time>2026-03-28T09:31:08.211Z</time></trkpt><trkpt lat="43.5435422" lon="11.3175007"><ele>483.0</ele><time>2026-03-28T09:31:09.212Z</time></trkpt><trkpt lat="43.5434834" lon="11.3175832"><ele>484.0</ele><time>2026-03-28T09:31:10.211Z</time></trkpt><trkpt lat="43.5434236" lon="11.3176752"><ele>484.99999999999994</ele><time>2026-03-28T09:31:11.211Z</time></trkpt><trkpt lat="43.5433605" lon="11.3177857"><ele>485.99999999999994</ele><time>2026-03-28T09:31:12.211Z</time></trkpt><trkpt lat="43.5432873" lon="11.3179067"><ele>487.0</ele><time>2026-03-28T09:31:13.212Z</time></trkpt><trkpt lat="43.5432109" lon="11.318037"><ele>488.0</ele><time>2026-03-28T09:31:14.211Z</time></trkpt><trkpt lat="43.5431315" lon="11.3181675"><ele>488.0</ele><time>2026-03-28T09:31:15.212Z</time></trkpt><trkpt lat="43.5430481" lon="11.3182932"><ele>488.0</ele><time>2026-03-28T09:31:16.212Z</time></trkpt><trkpt lat="43.5429573" lon="11.3184136"><ele>488.0</ele><time>2026-03-28T09:31:17.212Z</time></trkpt><trkpt lat="43.5428622" lon="11.3185307"><ele>488.0</ele><time>2026-03-28T09:31:18.211Z</time></trkpt><trkpt lat="43.5427692" lon="11.3186299"><ele>488.0</ele><time>2026-03-28T09:31:19.211Z</time></trkpt><trkpt lat="43.5426763" lon="11.3187256"><ele>488.0</ele><time>2026-03-28T09:31:20.211Z</time></trkpt><trkpt lat="43.5425813" lon="11.3188246"><ele>488.0</ele><time>2026-03-28T09:31:21.211Z</time></trkpt><trkpt lat="43.5424896" lon="11.3189222"><ele>488.0</ele><time>2026-03-28T09:31:22.21Z</time></trkpt><trkpt lat="43.5423909" lon="11.3190234"><ele>488.5</ele><time>2026-03-28T09:31:23.21Z</time></trkpt><trkpt lat="43.5422884" lon="11.3191289"><ele>489.0</ele><time>2026-03-28T09:31:24.211Z</time></trkpt><trkpt lat="43.5421857" lon="11.3192321"><ele>489.5</ele><time>2026-03-28T09:31:25.211Z</time></trkpt><trkpt lat="43.5420833" lon="11.3193429"><ele>490.0</ele><time>2026-03-28T09:31:26.211Z</time></trkpt><trkpt lat="43.5419799" lon="11.3194566"><ele>490.75</ele><time>2026-03-28T09:31:27.212Z</time></trkpt><trkpt lat="43.5418826" lon="11.3195614"><ele>491.5</ele><time>2026-03-28T09:31:28.211Z</time></trkpt><trkpt lat="43.5417826" lon="11.3196636"><ele>492.25</ele><time>2026-03-28T09:31:29.211Z</time></trkpt><trkpt lat="43.5416803" lon="11.3197657"><ele>493.0</ele><time>2026-03-28T09:31:30.211Z</time></trkpt><trkpt lat="43.5415783" lon="11.3198741"><ele>493.5</ele><time>2026-03-28T09:31:31.212Z</time></trkpt><trkpt lat="43.5414769" lon="11.3199861"><ele>494.0</ele><time>2026-03-28T09:31:32.211Z</time></trkpt><trkpt lat="43.5413733" lon="11.3200927"><ele>494.5</ele><time>2026-03-28T09:31:33.211Z</time></trkpt><trkpt lat="43.5412688" lon="11.3201891"><ele>495.0</ele><time>2026-03-28T09:31:34.211Z</time></trkpt><trkpt lat="43.5411663" lon="11.3202954"><ele>496.25</ele><time>2026-03-28T09:31:35.212Z</time></trkpt><trkpt lat="43.5410715" lon="11.3204098"><ele>497.5</ele><time>2026-03-28T09:31:36.211Z</time></trkpt><trkpt lat="43.5409916" lon="11.3205428"><ele>498.75</ele><time>2026-03-28T09:31:37.212Z</time></trkpt><trkpt lat="43.540923" lon="11.3206878"><ele>500.0</ele><time>2026-03-28T09:31:38.211Z</time></trkpt><trkpt lat="43.5408554" lon="11.3208422"><ele>500.5</ele><time>2026-03-28T09:31:39.212Z</time></trkpt><trkpt lat="43.5407854" lon="11.3210031"><ele>501.0</ele><time>2026-03-28T09:31:40.211Z</time></trkpt><trkpt lat="43.5407154" lon="11.3211653"><ele>501.5</ele><time>2026-03-28T09:31:41.212Z</time></trkpt><trkpt lat="43.5406442" lon="11.3213323"><ele>502.0</ele><time>2026-03-28T09:31:42.212Z</time></trkpt><trkpt lat="43.5405722" lon="11.3215045"><ele>502.0</ele><time>2026-03-28T09:31:43.211Z</time></trkpt><trkpt lat="43.5405024" lon="11.3216593"><ele>502.0</ele><time>2026-03-28T09:31:44.211Z</time></trkpt><trkpt lat="43.5404265" lon="11.3218253"><ele>502.0</ele><time>2026-03-28T09:31:45.211Z</time></trkpt><trkpt lat="43.540354" lon="11.3220007"><ele>502.0</ele><time>2026-03-28T09:31:46.211Z</time></trkpt><trkpt lat="43.5403015" lon="11.322167"><ele>505.0</ele><time>2026-03-28T09:31:47.211Z</time></trkpt><trkpt lat="43.5402585" lon="11.3223279"><ele>508.0</ele><time>2026-03-28T09:31:48.21Z</time></trkpt><trkpt lat="43.5402141" lon="11.3224749"><ele>511.0</ele><time>2026-03-28T09:31:49.212Z</time></trkpt><trkpt lat="43.5401561" lon="11.3226061"><ele>514.0</ele><time>2026-03-28T09:31:50.21Z</time></trkpt><trkpt lat="43.5400845" lon="11.3227136"><ele>514.0</ele><time>2026-03-28T09:31:51.212Z</time></trkpt><trkpt lat="43.5399884" lon="11.3228079"><ele>514.0</ele><time>2026-03-28T09:31:52.212Z</time></trkpt><trkpt lat="43.5398865" lon="11.32291"><ele>514.0</ele><time>2026-03-28T09:31:53.211Z</time></trkpt><trkpt lat="43.5397826" lon="11.323039"><ele>514.0</ele><time>2026-03-28T09:31:54.212Z</time></trkpt><trkpt lat="43.5396931" lon="11.3231729"><ele>511.25</ele><time>2026-03-28T09:31:55.211Z</time></trkpt><trkpt lat="43.5396009" lon="11.3233402"><ele>508.5</ele><time>2026-03-28T09:31:56.21Z</time></trkpt><trkpt lat="43.5395128" lon="11.3235072"><ele>505.75</ele><time>2026-03-28T09:31:57.211Z</time></trkpt><trkpt lat="43.5394326" lon="11.3236689"><ele>503.0</ele><time>2026-03-28T09:31:58.212Z</time></trkpt><trkpt lat="43.5393542" lon="11.3238324"><ele>503.5</ele><time>2026-03-28T09:31:59.211Z</time></trkpt><trkpt lat="43.5392784" lon="11.3239922"><ele>504.0</ele><time>2026-03-28T09:32:00.211Z</time></trkpt><trkpt lat="43.539207" lon="11.3241471"><ele>504.5</ele><time>2026-03-28T09:32:01.212Z</time></trkpt><trkpt lat="43.5391395" lon="11.3243099"><ele>505.0</ele><time>2026-03-28T09:32:02.211Z</time></trkpt><trkpt lat="43.5390791" lon="11.3244775"><ele>505.0</ele><time>2026-03-28T09:32:03.211Z</time></trkpt><trkpt lat="43.5390232" lon="11.3246533"><ele>505.0</ele><time>2026-03-28T09:32:04.211Z</time></trkpt><trkpt lat="43.5389661" lon="11.324822"><ele>505.0</ele><time>2026-03-28T09:32:05.211Z</time></trkpt><trkpt lat="43.5389088" lon="11.3249892"><ele>505.0</ele><time>2026-03-28T09:32:06.212Z</time></trkpt><trkpt lat="43.5388514" lon="11.3251606"><ele>504.5</ele><time>2026-03-28T09:32:07.212Z</time></trkpt><trkpt lat="43.5387945" lon="11.3253396"><ele>504.0</ele><time>2026-03-28T09:32:08.211Z</time></trkpt><trkpt lat="43.5387428" lon="11.3255256"><ele>503.5</ele><time>2026-03-28T09:32:09.212Z</time></trkpt><trkpt lat="43.5387037" lon="11.3257005"><ele>503.0</ele><time>2026-03-28T09:32:10.211Z</time></trkpt><trkpt lat="43.5386798" lon="11.3258866"><ele>503.0</ele><time>2026-03-28T09:32:11.211Z</time></trkpt><trkpt lat="43.5386799" lon="11.3260698"><ele>503.0</ele><time>2026-03-28T09:32:12.211Z</time></trkpt><trkpt lat="43.5386963" lon="11.3262542"><ele>503.0</ele><time>2026-03-28T09:32:13.211Z</time></trkpt><trkpt lat="43.538727" lon="11.3264333"><ele>503.0</ele><time>2026-03-28T09:32:14.212Z</time></trkpt><trkpt lat="43.5387637" lon="11.32661"><ele>507.25</ele><time>2026-03-28T09:32:15.211Z</time></trkpt><trkpt lat="43.5387922" lon="11.326777"><ele>511.5</ele><time>2026-03-28T09:32:16.211Z</time></trkpt><trkpt lat="43.5388047" lon="11.3269432"><ele>515.75</ele><time>2026-03-28T09:32:17.211Z</time></trkpt><trkpt lat="43.5387982" lon="11.327097"><ele>520.0</ele><time>2026-03-28T09:32:18.211Z</time></trkpt><trkpt lat="43.5387672" lon="11.3272626"><ele>517.75</ele><time>2026-03-28T09:32:19.211Z</time></trkpt><trkpt lat="43.5387177" lon="11.327428"><ele>515.5</ele><time>2026-03-28T09:32:20.212Z</time></trkpt><trkpt lat="43.5386531" lon="11.3275898"><ele>513.25</ele><time>2026-03-28T09:32:21.211Z</time></trkpt><trkpt lat="43.5385759" lon="11.3277394"><ele>511.0</ele><time>2026-03-28T09:32:22.211Z</time></trkpt><trkpt lat="43.5384916" lon="11.3278778"><ele>511.0</ele><time>2026-03-28T09:32:23.211Z</time></trkpt><trkpt lat="43.538413" lon="11.3279956"><ele>511.0</ele><time>2026-03-28T09:32:24.211Z</time></trkpt><trkpt lat="43.5383369" lon="11.3281101"><ele>511.0</ele><time>2026-03-28T09:32:25.211Z</time></trkpt><trkpt lat="43.5382635" lon="11.3282293"><ele>511.0</ele><time>2026-03-28T09:32:26.211Z</time></trkpt><trkpt lat="43.5381929" lon="11.3283461"><ele>513.2</ele><time>2026-03-28T09:32:27.211Z</time></trkpt><trkpt lat="43.5381354" lon="11.3284517"><ele>515.4000000000001</ele><time>2026-03-28T09:32:28.211Z</time></trkpt><trkpt lat="43.5380914" lon="11.3285541"><ele>517.6</ele><time>2026-03-28T09:32:29.212Z</time></trkpt><trkpt lat="43.5380607" lon="11.3286666"><ele>519.8000000000001</ele><time>2026-03-28T09:32:30.211Z</time></trkpt><trkpt lat="43.5380389" lon="11.3287952"><ele>522.0</ele><time>2026-03-28T09:32:31.212Z</time></trkpt><trkpt lat="43.5380228" lon="11.3289403"><ele>523.5</ele><time>2026-03-28T09:32:32.211Z</time></trkpt><trkpt lat="43.5380088" lon="11.329104"><ele>525.0</ele><time>2026-03-28T09:32:33.212Z</time></trkpt><trkpt lat="43.5380028" lon="11.3292849"><ele>526.5</ele><time>2026-03-28T09:32:34.212Z</time></trkpt><trkpt lat="43.5380066" lon="11.3294766"><ele>528.0</ele><time>2026-03-28T09:32:35.212Z</time></trkpt><trkpt lat="43.5380194" lon="11.3296796"><ele>527.0</ele><time>2026-03-28T09:32:36.211Z</time></trkpt><trkpt lat="43.5380383" lon="11.3298894"><ele>526.0</ele><time>2026-03-28T09:32:37.211Z</time></trkpt><trkpt lat="43.5380594" lon="11.3301045"><ele>525.0</ele><time>2026-03-28T09:32:38.211Z</time></trkpt><trkpt lat="43.5380783" lon="11.3303045"><ele>525.0</ele><time>2026-03-28T09:32:39.211Z</time></trkpt><trkpt lat="43.5380943" lon="11.3305111"><ele>525.0</ele><time>2026-03-28T09:32:40.211Z</time></trkpt><trkpt lat="43.53811" lon="11.3307185"><ele>525.0</ele><time>2026-03-28T09:32:41.211Z</time></trkpt><trkpt lat="43.5381262" lon="11.3309266"><ele>523.25</ele><time>2026-03-28T09:32:42.212Z</time></trkpt><trkpt lat="43.5381392" lon="11.3311197"><ele>521.5</ele><time>2026-03-28T09:32:43.212Z</time></trkpt><trkpt lat="43.5381373" lon="11.3312977"><ele>519.75</ele><time>2026-03-28T09:32:44.211Z</time></trkpt><trkpt lat="43.5381127" lon="11.3314673"><ele>518.0</ele><time>2026-03-28T09:32:45.212Z</time></trkpt><trkpt lat="43.5380709" lon="11.3316271"><ele>517.0</ele><time>2026-03-28T09:32:46.212Z</time></trkpt><trkpt lat="43.5380162" lon="11.3317755"><ele>516.0</ele><time>2026-03-28T09:32:47.211Z</time></trkpt><trkpt lat="43.5379533" lon="11.3319018"><ele>515.0</ele><time>2026-03-28T09:32:48.211Z</time></trkpt><trkpt lat="43.537874" lon="11.3320304"><ele>514.0</ele><time>2026-03-28T09:32:49.211Z</time></trkpt><trkpt lat="43.5377929" lon="11.3321486"><ele>513.0</ele><time>2026-03-28T09:32:50.211Z</time></trkpt><trkpt lat="43.5377234" lon="11.3322601"><ele>512.0</ele><time>2026-03-28T09:32:51.211Z</time></trkpt><trkpt lat="43.5376636" lon="11.3323829"><ele>511.0</ele><time>2026-03-28T09:32:52.212Z</time></trkpt><trkpt lat="43.5376097" lon="11.3325173"><ele>510.0</ele><time>2026-03-28T09:32:53.211Z</time></trkpt><trkpt lat="43.537567" lon="11.3326482"><ele>509.0</ele><time>2026-03-28T09:32:54.212Z</time></trkpt><trkpt lat="43.5375283" lon="11.3327841"><ele>509.0</ele><time>2026-03-28T09:32:55.211Z</time></trkpt><trkpt lat="43.5374934" lon="11.3329153"><ele>509.0</ele><time>2026-03-28T09:32:56.211Z</time></trkpt><trkpt lat="43.5374563" lon="11.3330568"><ele>509.0</ele><time>2026-03-28T09:32:57.21Z</time></trkpt><trkpt lat="43.5374212" lon="11.3332026"><ele>509.0</ele><time>2026-03-28T09:32:58.212Z</time></trkpt><trkpt lat="43.5373969" lon="11.3333379"><ele>509.0</ele><time>2026-03-28T09:32:59.211Z</time></trkpt><trkpt lat="43.537389" lon="11.3334715"><ele>508.75</ele><time>2026-03-28T09:33:00.21Z</time></trkpt><trkpt lat="43.5373996" lon="11.3336127"><ele>508.5</ele><time>2026-03-28T09:33:01.212Z</time></trkpt><trkpt lat="43.5374163" lon="11.3337667"><ele>508.25</ele><time>2026-03-28T09:33:02.211Z</time></trkpt><trkpt lat="43.5374215" lon="11.3339306"><ele>508.0</ele><time>2026-03-28T09:33:03.211Z</time></trkpt><trkpt lat="43.5374161" lon="11.3340979"><ele>508.5</ele><time>2026-03-28T09:33:04.212Z</time></trkpt><trkpt lat="43.5374058" lon="11.3342715"><ele>509.0</ele><time>2026-03-28T09:33:05.211Z</time></trkpt><trkpt lat="43.5373845" lon="11.3344548"><ele>509.5</ele><time>2026-03-28T09:33:06.211Z</time></trkpt><trkpt lat="43.5373535" lon="11.3346209"><ele>510.0</ele><time>2026-03-28T09:33:07.211Z</time></trkpt><trkpt lat="43.5373149" lon="11.334781"><ele>511.5</ele><time>2026-03-28T09:33:08.211Z</time></trkpt><trkpt lat="43.5372784" lon="11.3349397"><ele>513.0</ele><time>2026-03-28T09:33:09.211Z</time></trkpt><trkpt lat="43.5372375" lon="11.335095"><ele>514.5</ele><time>2026-03-28T09:33:10.211Z</time></trkpt><trkpt lat="43.5371943" lon="11.3352481"><ele>516.0</ele><time>2026-03-28T09:33:11.211Z</time></trkpt><trkpt lat="43.5371439" lon="11.3353982"><ele>516.0</ele><time>2026-03-28T09:33:12.211Z</time></trkpt><trkpt lat="43.5370913" lon="11.3355336"><ele>516.0</ele><time>2026-03-28T09:33:13.211Z</time></trkpt><trkpt lat="43.5370314" lon="11.3356543"><ele>516.0</ele><time>2026-03-28T09:33:14.212Z</time></trkpt><trkpt lat="43.5369596" lon="11.3357591"><ele>516.0</ele><time>2026-03-28T09:33:15.211Z</time></trkpt><trkpt lat="43.5368741" lon="11.3358269"><ele>516.0</ele><time>2026-03-28T09:33:16.211Z</time></trkpt><trkpt lat="43.5367887" lon="11.335872"><ele>518.4</ele><time>2026-03-28T09:33:17.211Z</time></trkpt><trkpt lat="43.536691" lon="11.3359213"><ele>520.8</ele><time>2026-03-28T09:33:18.211Z</time></trkpt><trkpt lat="43.5365843" lon="11.3359716"><ele>523.1999999999999</ele><time>2026-03-28T09:33:19.212Z</time></trkpt><trkpt lat="43.536474" lon="11.3360263"><ele>525.6</ele><time>2026-03-28T09:33:20.211Z</time></trkpt><trkpt lat="43.5363698" lon="11.3360778"><ele>528.0</ele><time>2026-03-28T09:33:21.211Z</time></trkpt><trkpt lat="43.5362648" lon="11.3360829"><ele>528.1999999999999</ele><time>2026-03-28T09:33:22.212Z</time></trkpt><trkpt lat="43.5361606" lon="11.3360719"><ele>528.4</ele><time>2026-03-28T09:33:23.211Z</time></trkpt><trkpt lat="43.5360531" lon="11.336046"><ele>528.5999999999999</ele><time>2026-03-28T09:33:24.212Z</time></trkpt><trkpt lat="43.5359545" lon="11.3360353"><ele>528.8</ele><time>2026-03-28T09:33:25.211Z</time></trkpt><trkpt lat="43.5358733" lon="11.3360562"><ele>529.0</ele><time>2026-03-28T09:33:26.212Z</time></trkpt><trkpt lat="43.5358161" lon="11.3361042"><ele>529.0</ele><time>2026-03-28T09:33:27.212Z</time></trkpt><trkpt lat="43.5357509" lon="11.3362609"><ele>529.0</ele><time>2026-03-28T09:33:29.211Z</time></trkpt><trkpt lat="43.5357381" lon="11.3363682"><ele>529.0</ele><time>2026-03-28T09:33:30.211Z</time></trkpt><trkpt lat="43.5357357" lon="11.3364953"><ele>529.0</ele><time>2026-03-28T09:33:31.212Z</time></trkpt><trkpt lat="43.5357162" lon="11.3366151"><ele>529.0</ele><time>2026-03-28T09:33:32.211Z</time></trkpt><trkpt lat="43.535673" lon="11.3367204"><ele>530.2</ele><time>2026-03-28T09:33:33.211Z</time></trkpt><trkpt lat="43.5356103" lon="11.3368001"><ele>531.4</ele><time>2026-03-28T09:33:34.212Z</time></trkpt><trkpt lat="43.5355324" lon="11.3368776"><ele>532.6</ele><time>2026-03-28T09:33:35.211Z</time></trkpt><trkpt lat="43.5354363" lon="11.3369509"><ele>533.8</ele><time>2026-03-28T09:33:36.211Z</time></trkpt><trkpt lat="43.535341" lon="11.3370274"><ele>535.0</ele><time>2026-03-28T09:33:37.212Z</time></trkpt><trkpt lat="43.5352406" lon="11.3371071"><ele>535.0</ele><time>2026-03-28T09:33:38.211Z</time></trkpt><trkpt lat="43.5351382" lon="11.3371962"><ele>535.0</ele><time>2026-03-28T09:33:39.211Z</time></trkpt><trkpt lat="43.5350404" lon="11.3372824"><ele>535.0</ele><time>2026-03-28T09:33:40.212Z</time></trkpt><trkpt lat="43.5349517" lon="11.3373513"><ele>535.0</ele><time>2026-03-28T09:33:41.211Z</time></trkpt><trkpt lat="43.5348687" lon="11.3374148"><ele>535.0</ele><time>2026-03-28T09:33:42.211Z</time></trkpt><trkpt lat="43.5348001" lon="11.3374689"><ele>536.8333333333334</ele><time>2026-03-28T09:33:43.211Z</time></trkpt><trkpt lat="43.5347289" lon="11.3375266"><ele>538.6666666666667</ele><time>2026-03-28T09:33:44.212Z</time></trkpt><trkpt lat="43.5346533" lon="11.3375989"><ele>540.5</ele><time>2026-03-28T09:33:46.211Z</time></trkpt><trkpt lat="43.5345961" lon="11.3376561"><ele>542.3333333333334</ele><time>2026-03-28T09:33:47.212Z</time></trkpt><trkpt lat="43.5345262" lon="11.3377168"><ele>544.1666666666666</ele><time>2026-03-28T09:33:48.211Z</time></trkpt><trkpt lat="43.5344551" lon="11.337771"><ele>546.0</ele><time>2026-03-28T09:33:49.211Z</time></trkpt><trkpt lat="43.5343901" lon="11.3378455"><ele>546.0</ele><time>2026-03-28T09:33:50.211Z</time></trkpt><trkpt lat="43.5343345" lon="11.33794"><ele>546.0</ele><time>2026-03-28T09:33:51.211Z</time></trkpt><trkpt lat="43.5343061" lon="11.3380282"><ele>546.0</ele><time>2026-03-28T09:33:52.211Z</time></trkpt><trkpt lat="43.5343012" lon="11.3381248"><ele>546.0</ele><time>2026-03-28T09:33:53.212Z</time></trkpt><trkpt lat="43.534317" lon="11.3382193"><ele>546.0</ele><time>2026-03-28T09:33:54.211Z</time></trkpt><trkpt lat="43.5343469" lon="11.3383085"><ele>546.0</ele><time>2026-03-28T09:33:55.211Z</time></trkpt><trkpt lat="43.5343821" lon="11.3383988"><ele>546.0</ele><time>2026-03-28T09:33:56.211Z</time></trkpt><trkpt lat="43.5344291" lon="11.3384945"><ele>548.0</ele><time>2026-03-28T09:33:57.212Z</time></trkpt><trkpt lat="43.5344781" lon="11.3385969"><ele>550.0</ele><time>2026-03-28T09:33:58.211Z</time></trkpt><trkpt lat="43.5345305" lon="11.3386989"><ele>552.0</ele><time>2026-03-28T09:33:59.211Z</time></trkpt><trkpt lat="43.5345857" lon="11.3388077"><ele>554.0</ele><time>2026-03-28T09:34:00.211Z</time></trkpt><trkpt lat="43.534646" lon="11.3389224"><ele>556.0</ele><time>2026-03-28T09:34:01.212Z</time></trkpt><trkpt lat="43.5347089" lon="11.33904"><ele>563.0</ele><time>2026-03-28T09:34:02.211Z</time></trkpt><trkpt lat="43.5347692" lon="11.3391666"><ele>570.0</ele><time>2026-03-28T09:34:03.212Z</time></trkpt><trkpt lat="43.5348288" lon="11.3393018"><ele>577.0</ele><time>2026-03-28T09:34:04.211Z</time></trkpt><trkpt lat="43.5348899" lon="11.3394457"><ele>584.0</ele><time>2026-03-28T09:34:05.211Z</time></trkpt><trkpt lat="43.5349563" lon="11.3395945"><ele>582.0</ele><time>2026-03-28T09:34:06.211Z</time></trkpt><trkpt lat="43.5350183" lon="11.3397362"><ele>580.0</ele><time>2026-03-28T09:34:07.212Z</time></trkpt><trkpt lat="43.5350832" lon="11.3398723"><ele>578.0</ele><time>2026-03-28T09:34:08.212Z</time></trkpt><trkpt lat="43.535161" lon="11.3400011"><ele>576.0</ele><time>2026-03-28T09:34:09.211Z</time></trkpt><trkpt lat="43.5352499" lon="11.3401215"><ele>576.0</ele><time>2026-03-28T09:34:10.211Z</time></trkpt><trkpt lat="43.5353521" lon="11.3402322"><ele>576.0</ele><time>2026-03-28T09:34:11.212Z</time></trkpt><trkpt lat="43.5354606" lon="11.3403316"><ele>576.0</ele><time>2026-03-28T09:34:12.212Z</time></trkpt><trkpt lat="43.5355743" lon="11.3404221"><ele>576.0</ele><time>2026-03-28T09:34:13.212Z</time></trkpt><trkpt lat="43.5356902" lon="11.3405112"><ele>578.75</ele><time>2026-03-28T09:34:14.212Z</time></trkpt><trkpt lat="43.5358094" lon="11.3405939"><ele>581.5</ele><time>2026-03-28T09:34:15.211Z</time></trkpt><trkpt lat="43.535931" lon="11.3406742"><ele>584.25</ele><time>2026-03-28T09:34:16.211Z</time></trkpt><trkpt lat="43.5360548" lon="11.3407516"><ele>587.0</ele><time>2026-03-28T09:34:17.211Z</time></trkpt><trkpt lat="43.5361742" lon="11.3408268"><ele>593.0</ele><time>2026-03-28T09:34:18.212Z</time></trkpt><trkpt lat="43.5362901" lon="11.340923"><ele>599.0</ele><time>2026-03-28T09:34:19.211Z</time></trkpt><trkpt lat="43.5363925" lon="11.3410218"><ele>605.0</ele><time>2026-03-28T09:34:20.211Z</time></trkpt><trkpt lat="43.5365002" lon="11.3411064"><ele>611.0</ele><time>2026-03-28T09:34:21.211Z</time></trkpt><trkpt lat="43.5366037" lon="11.3411745"><ele>611.0</ele><time>2026-03-28T09:34:22.212Z</time></trkpt><trkpt lat="43.5367153" lon="11.341233"><ele>611.0</ele><time>2026-03-28T09:34:23.211Z</time></trkpt><trkpt lat="43.536824" lon="11.3412955"><ele>611.0</ele><time>2026-03-28T09:34:24.211Z</time></trkpt><trkpt lat="43.5369027" lon="11.3413691"><ele>611.0</ele><time>2026-03-28T09:34:25.211Z</time></trkpt><trkpt lat="43.5369538" lon="11.3414596"><ele>611.0</ele><time>2026-03-28T09:34:26.211Z</time></trkpt><trkpt lat="43.5369919" lon="11.3415654"><ele>611.2</ele><time>2026-03-28T09:34:27.212Z</time></trkpt><trkpt lat="43.5369877" lon="11.3416855"><ele>611.4000000000001</ele><time>2026-03-28T09:34:28.211Z</time></trkpt><trkpt lat="43.5369881" lon="11.3418135"><ele>611.6</ele><time>2026-03-28T09:34:29.21Z</time></trkpt><trkpt lat="43.5369863" lon="11.3419551"><ele>611.8000000000001</ele><time>2026-03-28T09:34:30.212Z</time></trkpt><trkpt lat="43.536988" lon="11.3421119"><ele>612.0</ele><time>2026-03-28T09:34:31.211Z</time></trkpt><trkpt lat="43.5369914" lon="11.3422747"><ele>612.0</ele><time>2026-03-28T09:34:32.212Z</time></trkpt><trkpt lat="43.5369946" lon="11.342425"><ele>612.0</ele><time>2026-03-28T09:34:33.211Z</time></trkpt><trkpt lat="43.5369939" lon="11.342586"><ele>612.0</ele><time>2026-03-28T09:34:34.211Z</time></trkpt><trkpt lat="43.5369927" lon="11.3427473"><ele>612.0</ele><time>2026-03-28T09:34:35.211Z</time></trkpt><trkpt lat="43.5369951" lon="11.3429167"><ele>615.25</ele><time>2026-03-28T09:34:36.211Z</time></trkpt><trkpt lat="43.5369955" lon="11.3430864"><ele>618.5</ele><time>2026-03-28T09:34:37.211Z</time></trkpt><trkpt lat="43.5369948" lon="11.343257"><ele>621.75</ele><time>2026-03-28T09:34:38.211Z</time></trkpt><trkpt lat="43.5369788" lon="11.3434205"><ele>625.0</ele><time>2026-03-28T09:34:39.211Z</time></trkpt><trkpt lat="43.536943" lon="11.3435794"><ele>625.0</ele><time>2026-03-28T09:34:40.212Z</time></trkpt><trkpt lat="43.5369002" lon="11.3437319"><ele>625.0</ele><time>2026-03-28T09:34:41.211Z</time></trkpt><trkpt lat="43.5368578" lon="11.3438895"><ele>625.0</ele><time>2026-03-28T09:34:42.211Z</time></trkpt><trkpt lat="43.5368147" lon="11.3440459"><ele>625.0</ele><time>2026-03-28T09:34:43.211Z</time></trkpt><trkpt lat="43.536769" lon="11.3441992"><ele>627.0</ele><time>2026-03-28T09:34:44.211Z</time></trkpt><trkpt lat="43.5367207" lon="11.3443596"><ele>629.0</ele><time>2026-03-28T09:34:45.212Z</time></trkpt><trkpt lat="43.5366677" lon="11.3445381"><ele>631.0</ele><time>2026-03-28T09:34:46.21Z</time></trkpt><trkpt lat="43.5366136" lon="11.344706"><ele>633.0</ele><time>2026-03-28T09:34:47.211Z</time></trkpt><trkpt lat="43.5365595" lon="11.3448782"><ele>633.75</ele><time>2026-03-28T09:34:48.211Z</time></trkpt><trkpt lat="43.5365008" lon="11.3450491"><ele>634.5</ele><time>2026-03-28T09:34:49.211Z</time></trkpt><trkpt lat="43.5364431" lon="11.34522"><ele>635.25</ele><time>2026-03-28T09:34:50.211Z</time></trkpt><trkpt lat="43.5363828" lon="11.3453939"><ele>636.0</ele><time>2026-03-28T09:34:51.211Z</time></trkpt><trkpt lat="43.5363245" lon="11.3455703"><ele>636.0</ele><time>2026-03-28T09:34:52.211Z</time></trkpt><trkpt lat="43.5362638" lon="11.3457491"><ele>636.0</ele><time>2026-03-28T09:34:53.211Z</time></trkpt><trkpt lat="43.5362023" lon="11.3459284"><ele>636.0</ele><time>2026-03-28T09:34:54.211Z</time></trkpt><trkpt lat="43.5361436" lon="11.3461063"><ele>636.0</ele><time>2026-03-28T09:34:55.212Z</time></trkpt><trkpt lat="43.5360872" lon="11.3462743"><ele>638.75</ele><time>2026-03-28T09:34:56.211Z</time></trkpt><trkpt lat="43.5360354" lon="11.3464378"><ele>641.5</ele><time>2026-03-28T09:34:57.211Z</time></trkpt><trkpt lat="43.5359875" lon="11.3465854"><ele>644.25</ele><time>2026-03-28T09:34:58.212Z</time></trkpt><trkpt lat="43.5359248" lon="11.3467323"><ele>647.0</ele><time>2026-03-28T09:34:59.211Z</time></trkpt><trkpt lat="43.5358481" lon="11.3468572"><ele>647.0</ele><time>2026-03-28T09:35:00.212Z</time></trkpt><trkpt lat="43.5357504" lon="11.3469665"><ele>647.0</ele><time>2026-03-28T09:35:01.212Z</time></trkpt><trkpt lat="43.5356398" lon="11.3470705"><ele>647.0</ele><time>2026-03-28T09:35:02.212Z</time></trkpt><trkpt lat="43.5355237" lon="11.3471772"><ele>647.0</ele><time>2026-03-28T09:35:03.212Z</time></trkpt><trkpt lat="43.5354034" lon="11.3472894"><ele>649.6666666666666</ele><time>2026-03-28T09:35:04.211Z</time></trkpt><trkpt lat="43.5352769" lon="11.3473953"><ele>652.3333333333334</ele><time>2026-03-28T09:35:05.211Z</time></trkpt><trkpt lat="43.5351524" lon="11.3475088"><ele>655.0</ele><time>2026-03-28T09:35:06.211Z</time></trkpt><trkpt lat="43.5350192" lon="11.3476289"><ele>655.0</ele><time>2026-03-28T09:35:07.211Z</time></trkpt><trkpt lat="43.5348768" lon="11.347743"><ele>655.0</ele><time>2026-03-28T09:35:08.211Z</time></trkpt><trkpt lat="43.5347362" lon="11.3478622"><ele>655.0</ele><time>2026-03-28T09:35:09.212Z</time></trkpt><trkpt lat="43.5345822" lon="11.3479894"><ele>654.0</ele><time>2026-03-28T09:35:10.211Z</time></trkpt><trkpt lat="43.5344232" lon="11.3481223"><ele>653.0</ele><time>2026-03-28T09:35:11.211Z</time></trkpt><trkpt lat="43.5342592" lon="11.3482631"><ele>652.0</ele><time>2026-03-28T09:35:12.211Z</time></trkpt><trkpt lat="43.5340931" lon="11.3484041"><ele>652.0</ele><time>2026-03-28T09:35:13.211Z</time></trkpt><trkpt lat="43.5339242" lon="11.3485427"><ele>652.0</ele><time>2026-03-28T09:35:14.212Z</time></trkpt><trkpt lat="43.5337574" lon="11.3486823"><ele>652.0</ele><time>2026-03-28T09:35:15.211Z</time></trkpt><trkpt lat="43.5335919" lon="11.3488246"><ele>654.3333333333334</ele><time>2026-03-28T09:35:16.211Z</time></trkpt><trkpt lat="43.533427" lon="11.3489659"><ele>656.6666666666666</ele><time>2026-03-28T09:35:17.211Z</time></trkpt><trkpt lat="43.5332747" lon="11.3490938"><ele>659.0</ele><time>2026-03-28T09:35:18.211Z</time></trkpt><trkpt lat="43.5331243" lon="11.3492209"><ele>659.0</ele><time>2026-03-28T09:35:19.212Z</time></trkpt><trkpt lat="43.532975" lon="11.3493482"><ele>659.0</ele><time>2026-03-28T09:35:20.211Z</time></trkpt><trkpt lat="43.5328259" lon="11.3494772"><ele>659.0</ele><time>2026-03-28T09:35:21.211Z</time></trkpt><trkpt lat="43.5326844" lon="11.3495983"><ele>657.5</ele><time>2026-03-28T09:35:22.211Z</time></trkpt><trkpt lat="43.5325554" lon="11.3497082"><ele>656.0</ele><time>2026-03-28T09:35:23.211Z</time></trkpt><trkpt lat="43.5324268" lon="11.3498124"><ele>654.5</ele><time>2026-03-28T09:35:24.212Z</time></trkpt><trkpt lat="43.532307" lon="11.3499057"><ele>653.0</ele><time>2026-03-28T09:35:25.211Z</time></trkpt><trkpt lat="43.5321999" lon="11.3499997"><ele>652.5</ele><time>2026-03-28T09:35:26.212Z</time></trkpt><trkpt lat="43.5321078" lon="11.3501019"><ele>652.0</ele><time>2026-03-28T09:35:27.212Z</time></trkpt><trkpt lat="43.5320231" lon="11.3502178"><ele>651.5</ele><time>2026-03-28T09:35:28.212Z</time></trkpt><trkpt lat="43.5319483" lon="11.3503542"><ele>651.0</ele><time>2026-03-28T09:35:29.211Z</time></trkpt><trkpt lat="43.5318771" lon="11.3505178"><ele>653.75</ele><time>2026-03-28T09:35:30.211Z</time></trkpt><trkpt lat="43.5318267" lon="11.3506765"><ele>656.5</ele><time>2026-03-28T09:35:31.21Z</time></trkpt><trkpt lat="43.5317907" lon="11.3508536"><ele>659.25</ele><time>2026-03-28T09:35:32.212Z</time></trkpt><trkpt lat="43.5317703" lon="11.3510483"><ele>662.0</ele><time>2026-03-28T09:35:33.212Z</time></trkpt><trkpt lat="43.5317511" lon="11.3512492"><ele>663.6666666666666</ele><time>2026-03-28T09:35:34.211Z</time></trkpt><trkpt lat="43.5317268" lon="11.3514548"><ele>665.3333333333334</ele><time>2026-03-28T09:35:35.211Z</time></trkpt><trkpt lat="43.5317016" lon="11.3516606"><ele>667.0</ele><time>2026-03-28T09:35:36.211Z</time></trkpt><trkpt lat="43.5316766" lon="11.3518699"><ele>667.0</ele><time>2026-03-28T09:35:37.211Z</time></trkpt><trkpt lat="43.5316525" lon="11.3520812"><ele>667.0</ele><time>2026-03-28T09:35:38.211Z</time></trkpt><trkpt lat="43.5316285" lon="11.352293"><ele>667.0</ele><time>2026-03-28T09:35:39.211Z</time></trkpt><trkpt lat="43.531605" lon="11.3525063"><ele>667.3333333333334</ele><time>2026-03-28T09:35:40.211Z</time></trkpt><trkpt lat="43.531581" lon="11.3527309"><ele>667.6666666666666</ele><time>2026-03-28T09:35:41.211Z</time></trkpt><trkpt lat="43.5315548" lon="11.3529545"><ele>668.0</ele><time>2026-03-28T09:35:42.212Z</time></trkpt><trkpt lat="43.5315286" lon="11.3531846"><ele>667.0</ele><time>2026-03-28T09:35:43.211Z</time></trkpt><trkpt lat="43.5315042" lon="11.3534185"><ele>666.0</ele><time>2026-03-28T09:35:44.212Z</time></trkpt><trkpt lat="43.5314798" lon="11.3536332"><ele>665.0</ele><time>2026-03-28T09:35:45.211Z</time></trkpt><trkpt lat="43.5314507" lon="11.3538372"><ele>664.0</ele><time>2026-03-28T09:35:46.211Z</time></trkpt><trkpt lat="43.5314099" lon="11.3540525"><ele>663.0</ele><time>2026-03-28T09:35:47.21Z</time></trkpt><trkpt lat="43.5313573" lon="11.3542624"><ele>662.0</ele><time>2026-03-28T09:35:48.211Z</time></trkpt><trkpt lat="43.5313002" lon="11.3544802"><ele>662.0</ele><time>2026-03-28T09:35:49.211Z</time></trkpt><trkpt lat="43.5312395" lon="11.354695"><ele>662.0</ele><time>2026-03-28T09:35:50.212Z</time></trkpt><trkpt lat="43.531181" lon="11.3548977"><ele>662.0</ele><time>2026-03-28T09:35:51.211Z</time></trkpt><trkpt lat="43.5311202" lon="11.3550876"><ele>662.0</ele><time>2026-03-28T09:35:52.212Z</time></trkpt><trkpt lat="43.5310548" lon="11.355266"><ele>662.0</ele><time>2026-03-28T09:35:53.211Z</time></trkpt><trkpt lat="43.5309819" lon="11.3554272"><ele>662.0</ele><time>2026-03-28T09:35:54.212Z</time></trkpt><trkpt lat="43.5309066" lon="11.3555756"><ele>662.0</ele><time>2026-03-28T09:35:55.211Z</time></trkpt><trkpt lat="43.530826" lon="11.3556976"><ele>662.4000000000001</ele><time>2026-03-28T09:35:56.211Z</time></trkpt><trkpt lat="43.5307386" lon="11.3557898"><ele>662.8000000000001</ele><time>2026-03-28T09:35:57.212Z</time></trkpt><trkpt lat="43.5306444" lon="11.3558459"><ele>663.2</ele><time>2026-03-28T09:35:58.212Z</time></trkpt><trkpt lat="43.530556" lon="11.3558704"><ele>663.6</ele><time>2026-03-28T09:35:59.211Z</time></trkpt><trkpt lat="43.5304753" lon="11.3558644"><ele>664.0</ele><time>2026-03-28T09:36:00.211Z</time></trkpt><trkpt lat="43.5303943" lon="11.3558562"><ele>664.4000000000001</ele><time>2026-03-28T09:36:01.211Z</time></trkpt><trkpt lat="43.5302838" lon="11.3558007"><ele>664.8</ele><time>2026-03-28T09:36:03.212Z</time></trkpt><trkpt lat="43.530216" lon="11.3557627"><ele>665.2</ele><time>2026-03-28T09:36:05.212Z</time></trkpt><trkpt lat="43.5301324" lon="11.3557283"><ele>665.5999999999999</ele><time>2026-03-28T09:37:09.211Z</time></trkpt><trkpt lat="43.5300226" lon="11.3556568"><ele>666.0</ele><time>2026-03-28T09:37:11.211Z</time></trkpt><trkpt lat="43.5299578" lon="11.3556141"><ele>666.0</ele><time>2026-03-28T09:37:12.212Z</time></trkpt><trkpt lat="43.5298865" lon="11.3555784"><ele>666.0</ele><time>2026-03-28T09:37:13.211Z</time></trkpt><trkpt lat="43.5298103" lon="11.3555451"><ele>666.0</ele><time>2026-03-28T09:37:14.211Z</time></trkpt><trkpt lat="43.5297219" lon="11.3555219"><ele>666.0</ele><time>2026-03-28T09:37:15.212Z</time></trkpt><trkpt lat="43.5296323" lon="11.3554926"><ele>666.0</ele><time>2026-03-28T09:37:16.211Z</time></trkpt><trkpt lat="43.5295416" lon="11.355462"><ele>666.0</ele><time>2026-03-28T09:37:17.211Z</time></trkpt><trkpt lat="43.5294447" lon="11.3554351"><ele>664.0</ele><time>2026-03-28T09:37:18.211Z</time></trkpt><trkpt lat="43.529348" lon="11.3554104"><ele>662.0</ele><time>2026-03-28T09:37:19.211Z</time></trkpt><trkpt lat="43.529258" lon="11.355382"><ele>660.0</ele><time>2026-03-28T09:37:20.211Z</time></trkpt><trkpt lat="43.5291699" lon="11.3553585"><ele>658.0</ele><time>2026-03-28T09:37:21.211Z</time></trkpt><trkpt lat="43.5290814" lon="11.3553476"><ele>656.0</ele><time>2026-03-28T09:37:22.211Z</time></trkpt><trkpt lat="43.52899" lon="11.355346"><ele>656.0</ele><time>2026-03-28T09:37:23.211Z</time></trkpt><trkpt lat="43.528888" lon="11.355381"><ele>656.0</ele><time>2026-03-28T09:37:24.21Z</time></trkpt><trkpt lat="43.5287936" lon="11.3554256"><ele>656.0</ele><time>2026-03-28T09:37:25.212Z</time></trkpt><trkpt lat="43.5287046" lon="11.3554804"><ele>656.0</ele><time>2026-03-28T09:37:26.211Z</time></trkpt><trkpt lat="43.5286103" lon="11.3555395"><ele>656.0</ele><time>2026-03-28T09:37:27.211Z</time></trkpt><trkpt lat="43.5285158" lon="11.3556002"><ele>657.5999999999999</ele><time>2026-03-28T09:37:28.212Z</time></trkpt><trkpt lat="43.5284241" lon="11.3556567"><ele>659.2</ele><time>2026-03-28T09:37:29.212Z</time></trkpt><trkpt lat="43.5283241" lon="11.3557104"><ele>660.8</ele><time>2026-03-28T09:37:30.212Z</time></trkpt><trkpt lat="43.5282354" lon="11.3557516"><ele>662.4000000000001</ele><time>2026-03-28T09:37:31.211Z</time></trkpt><trkpt lat="43.5281324" lon="11.3557775"><ele>664.0</ele><time>2026-03-28T09:37:32.211Z</time></trkpt><trkpt lat="43.5280235" lon="11.3557837"><ele>664.0</ele><time>2026-03-28T09:37:33.211Z</time></trkpt><trkpt lat="43.5279085" lon="11.3557765"><ele>664.0</ele><time>2026-03-28T09:37:34.212Z</time></trkpt><trkpt lat="43.5278002" lon="11.3557546"><ele>664.0</ele><time>2026-03-28T09:37:35.211Z</time></trkpt><trkpt lat="43.527695" lon="11.3557337"><ele>664.0</ele><time>2026-03-28T09:37:36.212Z</time></trkpt><trkpt lat="43.5275839" lon="11.3557086"><ele>664.0</ele><time>2026-03-28T09:37:37.211Z</time></trkpt><trkpt lat="43.5274726" lon="11.3556892"><ele>663.4000000000001</ele><time>2026-03-28T09:37:38.21Z</time></trkpt><trkpt lat="43.5273638" lon="11.3556772"><ele>662.8</ele><time>2026-03-28T09:37:39.212Z</time></trkpt><trkpt lat="43.5272554" lon="11.3556786"><ele>662.2</ele><time>2026-03-28T09:37:40.212Z</time></trkpt><trkpt lat="43.5271451" lon="11.3556892"><ele>661.5999999999999</ele><time>2026-03-28T09:37:41.211Z</time></trkpt><trkpt lat="43.5270363" lon="11.3557039"><ele>661.0</ele><time>2026-03-28T09:37:42.211Z</time></trkpt><trkpt lat="43.5269301" lon="11.3557121"><ele>661.0</ele><time>2026-03-28T09:37:43.212Z</time></trkpt><trkpt lat="43.5268238" lon="11.3556926"><ele>661.0</ele><time>2026-03-28T09:37:44.212Z</time></trkpt><trkpt lat="43.5267159" lon="11.35564"><ele>661.0</ele><time>2026-03-28T09:37:45.212Z</time></trkpt><trkpt lat="43.5266047" lon="11.3555766"><ele>661.0</ele><time>2026-03-28T09:37:46.211Z</time></trkpt><trkpt lat="43.5264813" lon="11.3555162"><ele>657.0</ele><time>2026-03-28T09:37:47.211Z</time></trkpt><trkpt lat="43.5263516" lon="11.3554559"><ele>653.0</ele><time>2026-03-28T09:37:48.211Z</time></trkpt><trkpt lat="43.5262279" lon="11.3553928"><ele>649.0</ele><time>2026-03-28T09:37:49.212Z</time></trkpt><trkpt lat="43.526107" lon="11.3553308"><ele>645.0</ele><time>2026-03-28T09:37:50.212Z</time></trkpt><trkpt lat="43.5259859" lon="11.3552702"><ele>645.0</ele><time>2026-03-28T09:37:51.212Z</time></trkpt><trkpt lat="43.5258755" lon="11.3552061"><ele>645.0</ele><time>2026-03-28T09:37:52.211Z</time></trkpt><trkpt lat="43.5257708" lon="11.3551416"><ele>645.0</ele><time>2026-03-28T09:37:53.212Z</time></trkpt><trkpt lat="43.5256659" lon="11.3550804"><ele>645.0</ele><time>2026-03-28T09:37:54.212Z</time></trkpt><trkpt lat="43.525565" lon="11.3550219"><ele>645.0</ele><time>2026-03-28T09:37:55.211Z</time></trkpt><trkpt lat="43.5254614" lon="11.3549679"><ele>645.0</ele><time>2026-03-28T09:37:56.212Z</time></trkpt><trkpt lat="43.5253635" lon="11.3549308"><ele>645.0</ele><time>2026-03-28T09:37:57.211Z</time></trkpt><trkpt lat="43.5252592" lon="11.3549143"><ele>645.0</ele><time>2026-03-28T09:37:58.211Z</time></trkpt><trkpt lat="43.52514" lon="11.3549282"><ele>645.0</ele><time>2026-03-28T09:37:59.211Z</time></trkpt><trkpt lat="43.5250192" lon="11.3549235"><ele>645.0</ele><time>2026-03-28T09:38:00.21Z</time></trkpt><trkpt lat="43.5248955" lon="11.3548933"><ele>645.0</ele><time>2026-03-28T09:38:01.211Z</time></trkpt><trkpt lat="43.5247714" lon="11.3548457"><ele>645.0</ele><time>2026-03-28T09:38:02.212Z</time></trkpt><trkpt lat="43.5246576" lon="11.3547991"><ele>645.0</ele><time>2026-03-28T09:38:03.212Z</time></trkpt><trkpt lat="43.5245469" lon="11.3547566"><ele>646.0</ele><time>2026-03-28T09:38:04.211Z</time></trkpt><trkpt lat="43.5244395" lon="11.3547166"><ele>647.0</ele><time>2026-03-28T09:38:05.211Z</time></trkpt><trkpt lat="43.5243385" lon="11.3546687"><ele>648.0</ele><time>2026-03-28T09:38:06.211Z</time></trkpt><trkpt lat="43.5242551" lon="11.3545996"><ele>649.0</ele><time>2026-03-28T09:38:07.212Z</time></trkpt><trkpt lat="43.5241942" lon="11.3545059"><ele>650.0</ele><time>2026-03-28T09:38:08.211Z</time></trkpt><trkpt lat="43.5241378" lon="11.3544005"><ele>647.2</ele><time>2026-03-28T09:38:09.211Z</time></trkpt><trkpt lat="43.5241145" lon="11.3542602"><ele>644.4</ele><time>2026-03-28T09:38:10.212Z</time></trkpt><trkpt lat="43.5241073" lon="11.3541104"><ele>641.6</ele><time>2026-03-28T09:38:11.212Z</time></trkpt><trkpt lat="43.5240901" lon="11.3539644"><ele>638.8</ele><time>2026-03-28T09:38:12.211Z</time></trkpt><trkpt lat="43.5240567" lon="11.3538349"><ele>636.0</ele><time>2026-03-28T09:38:13.211Z</time></trkpt><trkpt lat="43.5240262" lon="11.3537186"><ele>633.6666666666666</ele><time>2026-03-28T09:38:14.211Z</time></trkpt><trkpt lat="43.5239873" lon="11.3536308"><ele>631.3333333333334</ele><time>2026-03-28T09:38:15.211Z</time></trkpt><trkpt lat="43.5239305" lon="11.3535638"><ele>629.0</ele><time>2026-03-28T09:38:16.211Z</time></trkpt><trkpt lat="43.5238606" lon="11.353529"><ele>626.6666666666667</ele><time>2026-03-28T09:38:17.212Z</time></trkpt><trkpt lat="43.5237798" lon="11.3535278"><ele>624.3333333333334</ele><time>2026-03-28T09:38:18.211Z</time></trkpt><trkpt lat="43.5236952" lon="11.35355"><ele>622.0</ele><time>2026-03-28T09:38:19.211Z</time></trkpt><trkpt lat="43.5236097" lon="11.3535852"><ele>621.4</ele><time>2026-03-28T09:38:20.212Z</time></trkpt><trkpt lat="43.5235162" lon="11.3536286"><ele>620.8000000000001</ele><time>2026-03-28T09:38:21.211Z</time></trkpt><trkpt lat="43.5234197" lon="11.3536997"><ele>620.2</ele><time>2026-03-28T09:38:22.212Z</time></trkpt><trkpt lat="43.5233187" lon="11.3537789"><ele>619.6</ele><time>2026-03-28T09:38:23.211Z</time></trkpt><trkpt lat="43.5232199" lon="11.3538728"><ele>619.0</ele><time>2026-03-28T09:38:24.211Z</time></trkpt><trkpt lat="43.5231257" lon="11.3539503"><ele>621.4</ele><time>2026-03-28T09:38:25.212Z</time></trkpt><trkpt lat="43.523026" lon="11.3540039"><ele>623.8</ele><time>2026-03-28T09:38:26.211Z</time></trkpt><trkpt lat="43.5229209" lon="11.3540592"><ele>626.2</ele><time>2026-03-28T09:38:27.211Z</time></trkpt><trkpt lat="43.5228068" lon="11.3540786"><ele>628.6</ele><time>2026-03-28T09:38:28.21Z</time></trkpt><trkpt lat="43.5227023" lon="11.354082"><ele>631.0</ele><time>2026-03-28T09:38:29.212Z</time></trkpt><trkpt lat="43.5225926" lon="11.3540646"><ele>631.0</ele><time>2026-03-28T09:38:30.212Z</time></trkpt><trkpt lat="43.5224805" lon="11.3540297"><ele>631.0</ele><time>2026-03-28T09:38:31.211Z</time></trkpt><trkpt lat="43.52238" lon="11.353959"><ele>631.0</ele><time>2026-03-28T09:38:32.211Z</time></trkpt><trkpt lat="43.5222861" lon="11.3539116"><ele>631.0</ele><time>2026-03-28T09:38:33.212Z</time></trkpt><trkpt lat="43.5221964" lon="11.3538936"><ele>631.0</ele><time>2026-03-28T09:38:34.211Z</time></trkpt><trkpt lat="43.5221074" lon="11.3539066"><ele>629.1666666666667</ele><time>2026-03-28T09:38:35.212Z</time></trkpt><trkpt lat="43.5220222" lon="11.3539541"><ele>627.3333333333334</ele><time>2026-03-28T09:38:36.211Z</time></trkpt><trkpt lat="43.5219417" lon="11.3540241"><ele>625.5</ele><time>2026-03-28T09:38:37.212Z</time></trkpt><trkpt lat="43.5218638" lon="11.3540892"><ele>623.6666666666666</ele><time>2026-03-28T09:38:38.211Z</time></trkpt><trkpt lat="43.5217879" lon="11.3541515"><ele>621.8333333333333</ele><time>2026-03-28T09:38:39.211Z</time></trkpt><trkpt lat="43.5217211" lon="11.3542166"><ele>620.0</ele><time>2026-03-28T09:38:40.211Z</time></trkpt><trkpt lat="43.5216717" lon="11.3542912"><ele>620.0</ele><time>2026-03-28T09:38:41.211Z</time></trkpt><trkpt lat="43.5216343" lon="11.3543843"><ele>620.0</ele><time>2026-03-28T09:38:42.212Z</time></trkpt><trkpt lat="43.5216044" lon="11.3545055"><ele>620.0</ele><time>2026-03-28T09:38:43.211Z</time></trkpt><trkpt lat="43.5215749" lon="11.3546399"><ele>620.0</ele><time>2026-03-28T09:38:44.212Z</time></trkpt><trkpt lat="43.5215554" lon="11.3547719"><ele>620.0</ele><time>2026-03-28T09:38:45.211Z</time></trkpt><trkpt lat="43.5215403" lon="11.3549009"><ele>619.6666666666666</ele><time>2026-03-28T09:38:46.211Z</time></trkpt><trkpt lat="43.5215325" lon="11.3550195"><ele>619.3333333333333</ele><time>2026-03-28T09:38:47.211Z</time></trkpt><trkpt lat="43.5215363" lon="11.3551346"><ele>619.0</ele><time>2026-03-28T09:38:48.212Z</time></trkpt><trkpt lat="43.5215583" lon="11.3552411"><ele>618.6666666666666</ele><time>2026-03-28T09:38:49.212Z</time></trkpt><trkpt lat="43.5215904" lon="11.3553463"><ele>618.3333333333334</ele><time>2026-03-28T09:38:50.212Z</time></trkpt><trkpt lat="43.521637" lon="11.3554561"><ele>618.0</ele><time>2026-03-28T09:38:51.211Z</time></trkpt><trkpt lat="43.521685" lon="11.3555675"><ele>616.4</ele><time>2026-03-28T09:38:52.211Z</time></trkpt><trkpt lat="43.5217368" lon="11.3556776"><ele>614.8</ele><time>2026-03-28T09:38:53.212Z</time></trkpt><trkpt lat="43.5217889" lon="11.3557867"><ele>613.2</ele><time>2026-03-28T09:38:54.211Z</time></trkpt><trkpt lat="43.5218312" lon="11.3559028"><ele>611.6</ele><time>2026-03-28T09:38:55.211Z</time></trkpt><trkpt lat="43.5218638" lon="11.3560312"><ele>610.0</ele><time>2026-03-28T09:38:56.211Z</time></trkpt><trkpt lat="43.5218768" lon="11.3561671"><ele>610.0</ele><time>2026-03-28T09:38:57.21Z</time></trkpt><trkpt lat="43.5218709" lon="11.3563113"><ele>610.0</ele><time>2026-03-28T09:38:58.212Z</time></trkpt><trkpt lat="43.5218638" lon="11.3564476"><ele>610.0</ele><time>2026-03-28T09:38:59.211Z</time></trkpt><trkpt lat="43.5218578" lon="11.3565996"><ele>610.0</ele><time>2026-03-28T09:39:00.212Z</time></trkpt><trkpt lat="43.5218661" lon="11.3567367"><ele>610.0</ele><time>2026-03-28T09:39:01.212Z</time></trkpt><trkpt lat="43.5218856" lon="11.3568684"><ele>609.3333333333334</ele><time>2026-03-28T09:39:02.211Z</time></trkpt><trkpt lat="43.5219158" lon="11.356986"><ele>608.6666666666667</ele><time>2026-03-28T09:39:03.211Z</time></trkpt><trkpt lat="43.5219525" lon="11.3570878"><ele>608.0</ele><time>2026-03-28T09:39:04.211Z</time></trkpt><trkpt lat="43.5219827" lon="11.3571802"><ele>607.3333333333334</ele><time>2026-03-28T09:39:05.211Z</time></trkpt><trkpt lat="43.5220104" lon="11.3572614"><ele>606.6666666666666</ele><time>2026-03-28T09:39:06.212Z</time></trkpt><trkpt lat="43.5219791" lon="11.3573419"><ele>606.0</ele><time>2026-03-28T09:39:07.212Z</time></trkpt><trkpt lat="43.5218885" lon="11.3573924"><ele>608.2</ele><time>2026-03-28T09:39:09.211Z</time></trkpt><trkpt lat="43.5217504" lon="11.3573288"><ele>610.4000000000001</ele><time>2026-03-28T09:39:11.212Z</time></trkpt><trkpt lat="43.5216739" lon="11.3572856"><ele>612.6</ele><time>2026-03-28T09:39:12.211Z</time></trkpt><trkpt lat="43.52158" lon="11.3573123"><ele>614.8000000000001</ele><time>2026-03-28T09:39:13.212Z</time></trkpt><trkpt lat="43.52149" lon="11.3573476"><ele>617.0</ele><time>2026-03-28T09:39:14.212Z</time></trkpt><trkpt lat="43.5214113" lon="11.3574053"><ele>617.0</ele><time>2026-03-28T09:39:15.211Z</time></trkpt><trkpt lat="43.5213151" lon="11.3574954"><ele>617.0</ele><time>2026-03-28T09:39:16.211Z</time></trkpt><trkpt lat="43.5212158" lon="11.3575731"><ele>617.0</ele><time>2026-03-28T09:39:17.211Z</time></trkpt><trkpt lat="43.5211148" lon="11.3576474"><ele>617.0</ele><time>2026-03-28T09:39:18.21Z</time></trkpt><trkpt lat="43.5210083" lon="11.3577076"><ele>613.6666666666666</ele><time>2026-03-28T09:39:19.211Z</time></trkpt><trkpt lat="43.5209105" lon="11.3577572"><ele>610.3333333333333</ele><time>2026-03-28T09:39:20.212Z</time></trkpt><trkpt lat="43.5208225" lon="11.3578021"><ele>607.0</ele><time>2026-03-28T09:39:21.212Z</time></trkpt><trkpt lat="43.5207354" lon="11.3578351"><ele>603.6666666666666</ele><time>2026-03-28T09:39:22.212Z</time></trkpt><trkpt lat="43.5206651" lon="11.3578754"><ele>600.3333333333334</ele><time>2026-03-28T09:39:23.212Z</time></trkpt><trkpt lat="43.5205996" lon="11.3579412"><ele>597.0</ele><time>2026-03-28T09:39:24.212Z</time></trkpt><trkpt lat="43.5205582" lon="11.3580274"><ele>599.0</ele><time>2026-03-28T09:39:25.211Z</time></trkpt><trkpt lat="43.5205483" lon="11.3581321"><ele>601.0</ele><time>2026-03-28T09:39:26.211Z</time></trkpt><trkpt lat="43.5205591" lon="11.3582487"><ele>603.0</ele><time>2026-03-28T09:39:27.211Z</time></trkpt><trkpt lat="43.5205957" lon="11.358367"><ele>605.0</ele><time>2026-03-28T09:39:28.211Z</time></trkpt><trkpt lat="43.5206509" lon="11.3584827"><ele>607.0</ele><time>2026-03-28T09:39:29.211Z</time></trkpt><trkpt lat="43.520721" lon="11.3585808"><ele>607.0</ele><time>2026-03-28T09:39:30.212Z</time></trkpt><trkpt lat="43.5207916" lon="11.3586815"><ele>607.0</ele><time>2026-03-28T09:39:31.212Z</time></trkpt><trkpt lat="43.520874" lon="11.3587956"><ele>607.0</ele><time>2026-03-28T09:39:32.211Z</time></trkpt><trkpt lat="43.5209568" lon="11.3589026"><ele>607.0</ele><time>2026-03-28T09:39:33.212Z</time></trkpt><trkpt lat="43.521033" lon="11.3590025"><ele>607.0</ele><time>2026-03-28T09:39:34.211Z</time></trkpt><trkpt lat="43.5211068" lon="11.3591198"><ele>604.2</ele><time>2026-03-28T09:39:35.212Z</time></trkpt><trkpt lat="43.5211692" lon="11.3592349"><ele>601.4000000000001</ele><time>2026-03-28T09:39:36.211Z</time></trkpt><trkpt lat="43.5212005" lon="11.3593625"><ele>598.5999999999999</ele><time>2026-03-28T09:39:37.211Z</time></trkpt><trkpt lat="43.5212169" lon="11.3594909"><ele>595.8</ele><time>2026-03-28T09:39:38.211Z</time></trkpt><trkpt lat="43.5211934" lon="11.3596371"><ele>593.0</ele><time>2026-03-28T09:39:39.211Z</time></trkpt><trkpt lat="43.5211622" lon="11.3597618"><ele>591.1999999999999</ele><time>2026-03-28T09:39:40.211Z</time></trkpt><trkpt lat="43.5210803" lon="11.3598548"><ele>589.4</ele><time>2026-03-28T09:39:41.211Z</time></trkpt><trkpt lat="43.5210684" lon="11.3599659"><ele>587.5999999999999</ele><time>2026-03-28T09:39:42.211Z</time></trkpt><trkpt lat="43.5210651" lon="11.3600984"><ele>585.8</ele><time>2026-03-28T09:39:43.212Z</time></trkpt><trkpt lat="43.5210783" lon="11.3602467"><ele>584.0</ele><time>2026-03-28T09:39:44.211Z</time></trkpt><trkpt lat="43.5211094" lon="11.3603938"><ele>584.0</ele><time>2026-03-28T09:39:45.212Z</time></trkpt><trkpt lat="43.5211449" lon="11.3605271"><ele>584.0</ele><time>2026-03-28T09:39:46.212Z</time></trkpt><trkpt lat="43.5212038" lon="11.3606215"><ele>584.0</ele><time>2026-03-28T09:39:47.211Z</time></trkpt><trkpt lat="43.5212847" lon="11.3607249"><ele>584.0</ele><time>2026-03-28T09:39:48.212Z</time></trkpt><trkpt lat="43.5213653" lon="11.360808"><ele>584.0</ele><time>2026-03-28T09:39:49.212Z</time></trkpt><trkpt lat="43.5214416" lon="11.3608916"><ele>586.0</ele><time>2026-03-28T09:39:50.212Z</time></trkpt><trkpt lat="43.521512" lon="11.3609951"><ele>588.0</ele><time>2026-03-28T09:39:51.212Z</time></trkpt><trkpt lat="43.5215616" lon="11.3611009"><ele>590.0</ele><time>2026-03-28T09:39:52.212Z</time></trkpt><trkpt lat="43.5216066" lon="11.3612182"><ele>592.0</ele><time>2026-03-28T09:39:53.212Z</time></trkpt><trkpt lat="43.5216482" lon="11.3613174"><ele>594.0</ele><time>2026-03-28T09:39:54.211Z</time></trkpt><trkpt lat="43.5217096" lon="11.3614119"><ele>594.0</ele><time>2026-03-28T09:39:55.212Z</time></trkpt><trkpt lat="43.5217816" lon="11.3615099"><ele>594.0</ele><time>2026-03-28T09:39:56.211Z</time></trkpt><trkpt lat="43.5218445" lon="11.3615772"><ele>594.0</ele><time>2026-03-28T09:39:57.212Z</time></trkpt><trkpt lat="43.5219121" lon="11.3616365"><ele>594.0</ele><time>2026-03-28T09:39:58.212Z</time></trkpt><trkpt lat="43.5219743" lon="11.3616979"><ele>594.0</ele><time>2026-03-28T09:39:59.212Z</time></trkpt><trkpt lat="43.5220346" lon="11.3617563"><ele>594.0</ele><time>2026-03-28T09:40:00.212Z</time></trkpt><trkpt lat="43.522114" lon="11.3618658"><ele>594.0</ele><time>2026-03-28T09:40:02.211Z</time></trkpt><trkpt lat="43.5220916" lon="11.3619808"><ele>594.0</ele><time>2026-03-28T09:40:04.211Z</time></trkpt><trkpt lat="43.5219797" lon="11.3620302"><ele>594.0</ele><time>2026-03-28T09:40:06.211Z</time></trkpt><trkpt lat="43.5219066" lon="11.3619959"><ele>594.0</ele><time>2026-03-28T09:40:07.211Z</time></trkpt><trkpt lat="43.5217961" lon="11.3619479"><ele>594.0</ele><time>2026-03-28T09:40:08.211Z</time></trkpt><trkpt lat="43.5217013" lon="11.3619126"><ele>594.0</ele><time>2026-03-28T09:40:09.211Z</time></trkpt><trkpt lat="43.5216044" lon="11.3618889"><ele>594.0</ele><time>2026-03-28T09:40:10.212Z</time></trkpt><trkpt lat="43.5215069" lon="11.3618773"><ele>594.0</ele><time>2026-03-28T09:40:11.212Z</time></trkpt><trkpt lat="43.5214008" lon="11.3619026"><ele>594.0</ele><time>2026-03-28T09:40:12.212Z</time></trkpt><trkpt lat="43.5212909" lon="11.3619378"><ele>594.0</ele><time>2026-03-28T09:40:13.212Z</time></trkpt><trkpt lat="43.521161" lon="11.3619685"><ele>589.25</ele><time>2026-03-28T09:40:14.211Z</time></trkpt><trkpt lat="43.5210314" lon="11.3619772"><ele>584.5</ele><time>2026-03-28T09:40:15.211Z</time></trkpt><trkpt lat="43.5208938" lon="11.3619665"><ele>579.75</ele><time>2026-03-28T09:40:16.211Z</time></trkpt><trkpt lat="43.5207585" lon="11.3619385"><ele>575.0</ele><time>2026-03-28T09:40:17.212Z</time></trkpt><trkpt lat="43.5206242" lon="11.3619034"><ele>575.0</ele><time>2026-03-28T09:40:18.211Z</time></trkpt><trkpt lat="43.5204967" lon="11.3618597"><ele>575.0</ele><time>2026-03-28T09:40:19.212Z</time></trkpt><trkpt lat="43.5203699" lon="11.3618159"><ele>575.0</ele><time>2026-03-28T09:40:20.211Z</time></trkpt><trkpt lat="43.5202489" lon="11.3617663"><ele>575.0</ele><time>2026-03-28T09:40:21.211Z</time></trkpt><trkpt lat="43.5201301" lon="11.3617023"><ele>574.75</ele><time>2026-03-28T09:40:22.211Z</time></trkpt><trkpt lat="43.5200241" lon="11.3616189"><ele>574.5</ele><time>2026-03-28T09:40:23.212Z</time></trkpt><trkpt lat="43.5199192" lon="11.3615468"><ele>574.25</ele><time>2026-03-28T09:40:24.212Z</time></trkpt><trkpt lat="43.5198071" lon="11.3614841"><ele>574.0</ele><time>2026-03-28T09:40:25.211Z</time></trkpt><trkpt lat="43.5196974" lon="11.3614314"><ele>574.0</ele><time>2026-03-28T09:40:26.211Z</time></trkpt><trkpt lat="43.5195883" lon="11.361397"><ele>574.0</ele><time>2026-03-28T09:40:27.212Z</time></trkpt><trkpt lat="43.5194899" lon="11.3613836"><ele>574.0</ele><time>2026-03-28T09:40:28.211Z</time></trkpt><trkpt lat="43.5193934" lon="11.3613855"><ele>574.0</ele><time>2026-03-28T09:40:29.211Z</time></trkpt><trkpt lat="43.519297" lon="11.361443"><ele>574.0</ele><time>2026-03-28T09:40:30.211Z</time></trkpt><trkpt lat="43.5191953" lon="11.3615063"><ele>573.8</ele><time>2026-03-28T09:40:31.212Z</time></trkpt><trkpt lat="43.519093" lon="11.3615705"><ele>573.5999999999999</ele><time>2026-03-28T09:40:32.211Z</time></trkpt><trkpt lat="43.5189911" lon="11.3615114"><ele>573.4</ele><time>2026-03-28T09:40:33.211Z</time></trkpt><trkpt lat="43.5188997" lon="11.3615059"><ele>573.1999999999999</ele><time>2026-03-28T09:40:34.212Z</time></trkpt><trkpt lat="43.5188244" lon="11.3614975"><ele>573.0</ele><time>2026-03-28T09:40:35.212Z</time></trkpt><trkpt lat="43.5187374" lon="11.3615778"><ele>573.0</ele><time>2026-03-28T09:40:37.211Z</time></trkpt><trkpt lat="43.518734" lon="11.361668"><ele>573.0</ele><time>2026-03-28T09:40:38.212Z</time></trkpt><trkpt lat="43.518756" lon="11.3617743"><ele>573.0</ele><time>2026-03-28T09:40:39.211Z</time></trkpt><trkpt lat="43.5187923" lon="11.3618874"><ele>573.0</ele><time>2026-03-28T09:40:40.211Z</time></trkpt><trkpt lat="43.5188402" lon="11.3619927"><ele>573.0</ele><time>2026-03-28T09:40:41.211Z</time></trkpt><trkpt lat="43.5188851" lon="11.3620755"><ele>573.0</ele><time>2026-03-28T09:40:42.212Z</time></trkpt><trkpt lat="43.518895" lon="11.3621698"><ele>571.4</ele><time>2026-03-28T09:40:43.212Z</time></trkpt><trkpt lat="43.5188336" lon="11.3622756"><ele>569.8</ele><time>2026-03-28T09:40:45.211Z</time></trkpt><trkpt lat="43.5187132" lon="11.3622295"><ele>568.2</ele><time>2026-03-28T09:40:47.211Z</time></trkpt><trkpt lat="43.5186407" lon="11.3621546"><ele>566.6</ele><time>2026-03-28T09:40:48.21Z</time></trkpt><trkpt lat="43.518556" lon="11.3620635"><ele>565.0</ele><time>2026-03-28T09:40:49.212Z</time></trkpt><trkpt lat="43.5184528" lon="11.3619827"><ele>565.0</ele><time>2026-03-28T09:40:50.211Z</time></trkpt><trkpt lat="43.5183656" lon="11.3618967"><ele>565.0</ele><time>2026-03-28T09:40:51.212Z</time></trkpt><trkpt lat="43.5182926" lon="11.3618313"><ele>565.0</ele><time>2026-03-28T09:40:52.212Z</time></trkpt><trkpt lat="43.5182066" lon="11.3617812"><ele>565.0</ele><time>2026-03-28T09:40:53.212Z</time></trkpt><trkpt lat="43.5181186" lon="11.361755"><ele>565.0</ele><time>2026-03-28T09:40:54.211Z</time></trkpt><trkpt lat="43.5180163" lon="11.3617683"><ele>565.0</ele><time>2026-03-28T09:40:55.211Z</time></trkpt><trkpt lat="43.5179214" lon="11.3617987"><ele>565.0</ele><time>2026-03-28T09:40:56.211Z</time></trkpt><trkpt lat="43.5178327" lon="11.3618818"><ele>565.0</ele><time>2026-03-28T09:40:57.212Z</time></trkpt><trkpt lat="43.5177579" lon="11.3619525"><ele>565.0</ele><time>2026-03-28T09:40:58.212Z</time></trkpt><trkpt lat="43.5176804" lon="11.3619979"><ele>565.0</ele><time>2026-03-28T09:40:59.21Z</time></trkpt><trkpt lat="43.5176053" lon="11.3620159"><ele>565.0</ele><time>2026-03-28T09:41:00.211Z</time></trkpt><trkpt lat="43.5175325" lon="11.3620039"><ele>565.0</ele><time>2026-03-28T09:41:01.212Z</time></trkpt><trkpt lat="43.5174814" lon="11.3619365"><ele>565.0</ele><time>2026-03-28T09:41:02.211Z</time></trkpt><trkpt lat="43.5174431" lon="11.361831"><ele>565.0</ele><time>2026-03-28T09:41:03.212Z</time></trkpt><trkpt lat="43.5174162" lon="11.3617034"><ele>565.0</ele><time>2026-03-28T09:41:04.211Z</time></trkpt><trkpt lat="43.5173748" lon="11.3615864"><ele>565.0</ele><time>2026-03-28T09:41:05.211Z</time></trkpt><trkpt lat="43.5173075" lon="11.3614235"><ele>563.25</ele><time>2026-03-28T09:41:06.211Z</time></trkpt><trkpt lat="43.5172479" lon="11.3612793"><ele>561.5</ele><time>2026-03-28T09:41:07.212Z</time></trkpt><trkpt lat="43.5171662" lon="11.3611485"><ele>559.75</ele><time>2026-03-28T09:41:08.212Z</time></trkpt><trkpt lat="43.5170733" lon="11.3610325"><ele>558.0</ele><time>2026-03-28T09:41:09.212Z</time></trkpt><trkpt lat="43.5169759" lon="11.3609206"><ele>558.0</ele><time>2026-03-28T09:41:10.212Z</time></trkpt><trkpt lat="43.5168877" lon="11.3608085"><ele>558.0</ele><time>2026-03-28T09:41:11.211Z</time></trkpt><trkpt lat="43.5167975" lon="11.3607247"><ele>558.0</ele><time>2026-03-28T09:41:12.211Z</time></trkpt><trkpt lat="43.5167038" lon="11.3606547"><ele>558.0</ele><time>2026-03-28T09:41:13.211Z</time></trkpt><trkpt lat="43.5165998" lon="11.360602"><ele>558.0</ele><time>2026-03-28T09:41:14.212Z</time></trkpt><trkpt lat="43.5164913" lon="11.3605534"><ele>558.0</ele><time>2026-03-28T09:41:15.212Z</time></trkpt><trkpt lat="43.5163737" lon="11.3605652"><ele>558.0</ele><time>2026-03-28T09:41:16.211Z</time></trkpt><trkpt lat="43.5162707" lon="11.3605885"><ele>558.0</ele><time>2026-03-28T09:41:17.212Z</time></trkpt><trkpt lat="43.5161745" lon="11.3606396"><ele>558.0</ele><time>2026-03-28T09:41:18.212Z</time></trkpt><trkpt lat="43.5160795" lon="11.3607198"><ele>558.0</ele><time>2026-03-28T09:41:19.212Z</time></trkpt><trkpt lat="43.5159906" lon="11.3608186"><ele>556.1999999999999</ele><time>2026-03-28T09:41:20.211Z</time></trkpt><trkpt lat="43.5159118" lon="11.3609283"><ele>554.4</ele><time>2026-03-28T09:41:21.211Z</time></trkpt><trkpt lat="43.5158595" lon="11.3610581"><ele>552.5999999999999</ele><time>2026-03-28T09:41:22.211Z</time></trkpt><trkpt lat="43.5157848" lon="11.361174"><ele>550.8</ele><time>2026-03-28T09:41:23.211Z</time></trkpt><trkpt lat="43.5156952" lon="11.3612663"><ele>549.0</ele><time>2026-03-28T09:41:24.212Z</time></trkpt><trkpt lat="43.5155952" lon="11.3613263"><ele>551.5</ele><time>2026-03-28T09:41:25.211Z</time></trkpt><trkpt lat="43.5154835" lon="11.3613659"><ele>554.0</ele><time>2026-03-28T09:41:26.211Z</time></trkpt><trkpt lat="43.515373" lon="11.3613693"><ele>556.5</ele><time>2026-03-28T09:41:27.211Z</time></trkpt><trkpt lat="43.5152555" lon="11.3613781"><ele>559.0</ele><time>2026-03-28T09:41:28.212Z</time></trkpt><trkpt lat="43.5151383" lon="11.3613915"><ele>559.0</ele><time>2026-03-28T09:41:29.211Z</time></trkpt><trkpt lat="43.515024" lon="11.36142"><ele>559.0</ele><time>2026-03-28T09:41:30.211Z</time></trkpt><trkpt lat="43.5149109" lon="11.3614505"><ele>559.0</ele><time>2026-03-28T09:41:31.211Z</time></trkpt><trkpt lat="43.5147918" lon="11.3615382"><ele>559.0</ele><time>2026-03-28T09:41:32.211Z</time></trkpt><trkpt lat="43.5146683" lon="11.3616053"><ele>555.25</ele><time>2026-03-28T09:41:33.211Z</time></trkpt><trkpt lat="43.5145503" lon="11.3616845"><ele>551.5</ele><time>2026-03-28T09:41:34.211Z</time></trkpt><trkpt lat="43.5144192" lon="11.3617619"><ele>547.75</ele><time>2026-03-28T09:41:35.211Z</time></trkpt><trkpt lat="43.5142917" lon="11.3618355"><ele>544.0</ele><time>2026-03-28T09:41:36.211Z</time></trkpt><trkpt lat="43.5141697" lon="11.3619246"><ele>544.0</ele><time>2026-03-28T09:41:37.211Z</time></trkpt><trkpt lat="43.5140544" lon="11.3620314"><ele>544.0</ele><time>2026-03-28T09:41:38.212Z</time></trkpt><trkpt lat="43.5139405" lon="11.362141"><ele>544.0</ele><time>2026-03-28T09:41:39.212Z</time></trkpt><trkpt lat="43.5138275" lon="11.3622517"><ele>544.0</ele><time>2026-03-28T09:41:40.211Z</time></trkpt><trkpt lat="43.5137163" lon="11.362353"><ele>546.5</ele><time>2026-03-28T09:41:41.211Z</time></trkpt><trkpt lat="43.5135943" lon="11.3624464"><ele>549.0</ele><time>2026-03-28T09:41:42.211Z</time></trkpt><trkpt lat="43.5134855" lon="11.3625407"><ele>551.5</ele><time>2026-03-28T09:41:43.211Z</time></trkpt><trkpt lat="43.5133944" lon="11.3626414"><ele>554.0</ele><time>2026-03-28T09:41:44.212Z</time></trkpt><trkpt lat="43.5133208" lon="11.3627452"><ele>554.0</ele><time>2026-03-28T09:41:45.211Z</time></trkpt><trkpt lat="43.5132539" lon="11.3628454"><ele>554.0</ele><time>2026-03-28T09:41:46.211Z</time></trkpt><trkpt lat="43.5132057" lon="11.3629456"><ele>554.0</ele><time>2026-03-28T09:41:47.211Z</time></trkpt><trkpt lat="43.5131785" lon="11.3630572"><ele>554.0</ele><time>2026-03-28T09:41:48.212Z</time></trkpt><trkpt lat="43.5131656" lon="11.3631789"><ele>554.0</ele><time>2026-03-28T09:41:49.211Z</time></trkpt><trkpt lat="43.5131682" lon="11.3632974"><ele>554.0</ele><time>2026-03-28T09:41:50.211Z</time></trkpt><trkpt lat="43.5131702" lon="11.3634159"><ele>554.6</ele><time>2026-03-28T09:41:51.211Z</time></trkpt><trkpt lat="43.5131587" lon="11.3635443"><ele>555.2</ele><time>2026-03-28T09:41:52.211Z</time></trkpt><trkpt lat="43.5131198" lon="11.3636542"><ele>555.8000000000001</ele><time>2026-03-28T09:41:53.212Z</time></trkpt><trkpt lat="43.5130446" lon="11.3637405"><ele>556.4</ele><time>2026-03-28T09:41:54.211Z</time></trkpt><trkpt lat="43.5129434" lon="11.3638056"><ele>557.0</ele><time>2026-03-28T09:41:55.212Z</time></trkpt><trkpt lat="43.5128302" lon="11.3638637"><ele>553.75</ele><time>2026-03-28T09:41:56.212Z</time></trkpt><trkpt lat="43.5127136" lon="11.363938"><ele>550.5</ele><time>2026-03-28T09:41:57.212Z</time></trkpt><trkpt lat="43.5126152" lon="11.3640243"><ele>547.25</ele><time>2026-03-28T09:41:58.212Z</time></trkpt><trkpt lat="43.5125177" lon="11.3641214"><ele>544.0</ele><time>2026-03-28T09:41:59.211Z</time></trkpt><trkpt lat="43.5124177" lon="11.3642239"><ele>544.0</ele><time>2026-03-28T09:42:00.211Z</time></trkpt><trkpt lat="43.5123256" lon="11.364337"><ele>544.0</ele><time>2026-03-28T09:42:01.211Z</time></trkpt><trkpt lat="43.5122422" lon="11.3644619"><ele>544.0</ele><time>2026-03-28T09:42:02.212Z</time></trkpt><trkpt lat="43.5121607" lon="11.3645863"><ele>544.0</ele><time>2026-03-28T09:42:03.211Z</time></trkpt><trkpt lat="43.5120716" lon="11.3647139"><ele>546.5</ele><time>2026-03-28T09:42:04.212Z</time></trkpt><trkpt lat="43.5119873" lon="11.3648396"><ele>549.0</ele><time>2026-03-28T09:42:05.211Z</time></trkpt><trkpt lat="43.5119039" lon="11.364959"><ele>551.5</ele><time>2026-03-28T09:42:06.211Z</time></trkpt><trkpt lat="43.5118124" lon="11.3650701"><ele>554.0</ele><time>2026-03-28T09:42:07.211Z</time></trkpt><trkpt lat="43.5117279" lon="11.3651635"><ele>554.0</ele><time>2026-03-28T09:42:08.212Z</time></trkpt><trkpt lat="43.5116502" lon="11.3652516"><ele>554.0</ele><time>2026-03-28T09:42:09.211Z</time></trkpt><trkpt lat="43.5115728" lon="11.365338"><ele>554.0</ele><time>2026-03-28T09:42:10.211Z</time></trkpt><trkpt lat="43.5114913" lon="11.3654303"><ele>554.0</ele><time>2026-03-28T09:42:11.211Z</time></trkpt><trkpt lat="43.5114075" lon="11.3655225"><ele>554.0</ele><time>2026-03-28T09:42:12.211Z</time></trkpt><trkpt lat="43.5113317" lon="11.3655888"><ele>551.4</ele><time>2026-03-28T09:42:13.212Z</time></trkpt><trkpt lat="43.5112279" lon="11.365623"><ele>548.8</ele><time>2026-03-28T09:42:14.212Z</time></trkpt><trkpt lat="43.5111218" lon="11.3656457"><ele>546.2</ele><time>2026-03-28T09:42:15.211Z</time></trkpt><trkpt lat="43.5110061" lon="11.3656719"><ele>543.6</ele><time>2026-03-28T09:42:16.211Z</time></trkpt><trkpt lat="43.510894" lon="11.3657224"><ele>541.0</ele><time>2026-03-28T09:42:17.212Z</time></trkpt><trkpt lat="43.5107848" lon="11.3657942"><ele>541.0</ele><time>2026-03-28T09:42:18.212Z</time></trkpt><trkpt lat="43.5106778" lon="11.3658647"><ele>541.0</ele><time>2026-03-28T09:42:19.211Z</time></trkpt><trkpt lat="43.5105694" lon="11.3659436"><ele>541.0</ele><time>2026-03-28T09:42:20.211Z</time></trkpt><trkpt lat="43.5104632" lon="11.3660201"><ele>541.0</ele><time>2026-03-28T09:42:21.212Z</time></trkpt><trkpt lat="43.5103537" lon="11.3661027"><ele>540.2</ele><time>2026-03-28T09:42:22.212Z</time></trkpt><trkpt lat="43.5102437" lon="11.3661862"><ele>539.4000000000001</ele><time>2026-03-28T09:42:23.212Z</time></trkpt><trkpt lat="43.5101444" lon="11.3662535"><ele>538.6</ele><time>2026-03-28T09:42:24.212Z</time></trkpt><trkpt lat="43.5100484" lon="11.3663197"><ele>537.8000000000001</ele><time>2026-03-28T09:42:25.211Z</time></trkpt><trkpt lat="43.5099658" lon="11.3663858"><ele>537.0</ele><time>2026-03-28T09:42:26.212Z</time></trkpt><trkpt lat="43.5099031" lon="11.3664629"><ele>536.1428571428571</ele><time>2026-03-28T09:42:27.212Z</time></trkpt><trkpt lat="43.5098664" lon="11.3665571"><ele>535.2857142857142</ele><time>2026-03-28T09:42:28.212Z</time></trkpt><trkpt lat="43.509867" lon="11.3666533"><ele>534.4285714285714</ele><time>2026-03-28T09:42:29.212Z</time></trkpt><trkpt lat="43.5099028" lon="11.3667341"><ele>533.5714285714286</ele><time>2026-03-28T09:42:30.211Z</time></trkpt><trkpt lat="43.5099642" lon="11.366789"><ele>532.7142857142858</ele><time>2026-03-28T09:42:31.212Z</time></trkpt><trkpt lat="43.5100384" lon="11.3668363"><ele>531.8571428571429</ele><time>2026-03-28T09:42:32.211Z</time></trkpt><trkpt lat="43.5100971" lon="11.3669047"><ele>531.0</ele><time>2026-03-28T09:42:33.211Z</time></trkpt><trkpt lat="43.5101213" lon="11.3669971"><ele>531.0</ele><time>2026-03-28T09:42:34.211Z</time></trkpt><trkpt lat="43.5101054" lon="11.367088"><ele>531.0</ele><time>2026-03-28T09:42:35.211Z</time></trkpt><trkpt lat="43.5100468" lon="11.3671691"><ele>531.0</ele><time>2026-03-28T09:42:36.211Z</time></trkpt><trkpt lat="43.5099582" lon="11.3672236"><ele>531.0</ele><time>2026-03-28T09:42:37.211Z</time></trkpt><trkpt lat="43.5098583" lon="11.3672739"><ele>531.0</ele><time>2026-03-28T09:42:38.212Z</time></trkpt><trkpt lat="43.5097572" lon="11.367344"><ele>527.8</ele><time>2026-03-28T09:42:39.212Z</time></trkpt><trkpt lat="43.5096643" lon="11.3674348"><ele>524.6</ele><time>2026-03-28T09:42:40.211Z</time></trkpt><trkpt lat="43.5095713" lon="11.3675247"><ele>521.4</ele><time>2026-03-28T09:42:41.211Z</time></trkpt><trkpt lat="43.5094679" lon="11.3675721"><ele>518.2</ele><time>2026-03-28T09:42:42.211Z</time></trkpt><trkpt lat="43.5093718" lon="11.3675947"><ele>515.0</ele><time>2026-03-28T09:42:43.211Z</time></trkpt><trkpt lat="43.5092638" lon="11.3675643"><ele>515.0</ele><time>2026-03-28T09:42:44.211Z</time></trkpt><trkpt lat="43.5091537" lon="11.3675066"><ele>515.0</ele><time>2026-03-28T09:42:45.211Z</time></trkpt><trkpt lat="43.509036" lon="11.3674448"><ele>515.0</ele><time>2026-03-28T09:42:46.212Z</time></trkpt><trkpt lat="43.5089121" lon="11.3674046"><ele>515.0</ele><time>2026-03-28T09:42:47.212Z</time></trkpt><trkpt lat="43.508779" lon="11.3673758"><ele>513.6</ele><time>2026-03-28T09:42:48.212Z</time></trkpt><trkpt lat="43.508654" lon="11.3673479"><ele>512.2</ele><time>2026-03-28T09:42:49.211Z</time></trkpt><trkpt lat="43.5085383" lon="11.3672991"><ele>510.79999999999995</ele><time>2026-03-28T09:42:50.211Z</time></trkpt><trkpt lat="43.5084509" lon="11.3672311"><ele>509.4</ele><time>2026-03-28T09:42:51.211Z</time></trkpt><trkpt lat="43.5083805" lon="11.3671685"><ele>508.0</ele><time>2026-03-28T09:42:52.211Z</time></trkpt><trkpt lat="43.5083083" lon="11.3671342"><ele>508.00000000000006</ele><time>2026-03-28T09:42:53.211Z</time></trkpt><trkpt lat="43.5082384" lon="11.3671435"><ele>508.0</ele><time>2026-03-28T09:42:54.212Z</time></trkpt><trkpt lat="43.5081708" lon="11.3672854"><ele>508.0</ele><time>2026-03-28T09:42:56.211Z</time></trkpt><trkpt lat="43.5081779" lon="11.3673982"><ele>508.0</ele><time>2026-03-28T09:42:57.212Z</time></trkpt><trkpt lat="43.5082086" lon="11.3675015"><ele>508.00000000000006</ele><time>2026-03-28T09:42:58.211Z</time></trkpt><trkpt lat="43.508245" lon="11.3675988"><ele>508.0</ele><time>2026-03-28T09:42:59.212Z</time></trkpt><trkpt lat="43.5082643" lon="11.3676887"><ele>507.0</ele><time>2026-03-28T09:43:00.211Z</time></trkpt><trkpt lat="43.508204" lon="11.3678257"><ele>505.99999999999994</ele><time>2026-03-28T09:43:02.211Z</time></trkpt><trkpt lat="43.5081382" lon="11.3678317"><ele>504.99999999999994</ele><time>2026-03-28T09:43:03.211Z</time></trkpt><trkpt lat="43.5080679" lon="11.3678035"><ele>504.0</ele><time>2026-03-28T09:43:04.212Z</time></trkpt><trkpt lat="43.507968" lon="11.3678474"><ele>503.0</ele><time>2026-03-28T09:43:06.211Z</time></trkpt><trkpt lat="43.5079632" lon="11.3679905"><ele>500.66666666666663</ele><time>2026-03-28T09:43:08.211Z</time></trkpt><trkpt lat="43.5079782" lon="11.3680822"><ele>498.3333333333333</ele><time>2026-03-28T09:43:09.211Z</time></trkpt><trkpt lat="43.508074" lon="11.3682178"><ele>496.0</ele><time>2026-03-28T09:43:11.212Z</time></trkpt><trkpt lat="43.5081379" lon="11.368286"><ele>493.66666666666663</ele><time>2026-03-28T09:43:12.212Z</time></trkpt><trkpt lat="43.5082031" lon="11.3683252"><ele>491.3333333333333</ele><time>2026-03-28T09:43:13.211Z</time></trkpt><trkpt lat="43.5082717" lon="11.3683608"><ele>489.0</ele><time>2026-03-28T09:43:14.211Z</time></trkpt><trkpt lat="43.5083465" lon="11.3683688"><ele>489.0</ele><time>2026-03-28T09:43:15.211Z</time></trkpt><trkpt lat="43.5084357" lon="11.3684951"><ele>489.0</ele><time>2026-03-28T09:43:17.212Z</time></trkpt><trkpt lat="43.5083898" lon="11.3686579"><ele>489.0</ele><time>2026-03-28T09:43:19.211Z</time></trkpt><trkpt lat="43.5083229" lon="11.3687112"><ele>489.0</ele><time>2026-03-28T09:43:20.211Z</time></trkpt><trkpt lat="43.5082431" lon="11.3687222"><ele>489.0</ele><time>2026-03-28T09:43:21.212Z</time></trkpt><trkpt lat="43.508164" lon="11.3687372"><ele>489.0</ele><time>2026-03-28T09:43:22.212Z</time></trkpt><trkpt lat="43.508086" lon="11.3687389"><ele>489.0</ele><time>2026-03-28T09:43:23.211Z</time></trkpt><trkpt lat="43.5080076" lon="11.3687244"><ele>489.0</ele><time>2026-03-28T09:43:24.211Z</time></trkpt><trkpt lat="43.5079296" lon="11.368702"><ele>489.0</ele><time>2026-03-28T09:43:25.211Z</time></trkpt><trkpt lat="43.5078532" lon="11.3686785"><ele>489.0</ele><time>2026-03-28T09:43:26.211Z</time></trkpt><trkpt lat="43.5077681" lon="11.3686511"><ele>489.0</ele><time>2026-03-28T09:43:27.212Z</time></trkpt><trkpt lat="43.5076783" lon="11.3686077"><ele>486.6</ele><time>2026-03-28T09:43:28.211Z</time></trkpt><trkpt lat="43.5075895" lon="11.3685456"><ele>484.2</ele><time>2026-03-28T09:43:29.211Z</time></trkpt><trkpt lat="43.5075034" lon="11.3684673"><ele>481.80000000000007</ele><time>2026-03-28T09:43:30.212Z</time></trkpt><trkpt lat="43.5074205" lon="11.3683919"><ele>479.40000000000003</ele><time>2026-03-28T09:43:31.212Z</time></trkpt><trkpt lat="43.5073422" lon="11.3683396"><ele>477.0</ele><time>2026-03-28T09:43:32.212Z</time></trkpt><trkpt lat="43.5072553" lon="11.3683046"><ele>477.0</ele><time>2026-03-28T09:43:33.211Z</time></trkpt><trkpt lat="43.5071613" lon="11.3683026"><ele>477.00000000000006</ele><time>2026-03-28T09:43:34.212Z</time></trkpt><trkpt lat="43.5070716" lon="11.3683187"><ele>477.00000000000006</ele><time>2026-03-28T09:43:35.211Z</time></trkpt><trkpt lat="43.5069806" lon="11.3683417"><ele>477.0</ele><time>2026-03-28T09:43:36.212Z</time></trkpt><trkpt lat="43.5068861" lon="11.368365"><ele>477.0</ele><time>2026-03-28T09:43:37.212Z</time></trkpt><trkpt lat="43.5067861" lon="11.3683953"><ele>474.20000000000005</ele><time>2026-03-28T09:43:38.211Z</time></trkpt><trkpt lat="43.5066894" lon="11.3684377"><ele>471.40000000000003</ele><time>2026-03-28T09:43:39.212Z</time></trkpt><trkpt lat="43.5066028" lon="11.3684988"><ele>468.59999999999997</ele><time>2026-03-28T09:43:40.211Z</time></trkpt><trkpt lat="43.5065243" lon="11.3685776"><ele>465.79999999999995</ele><time>2026-03-28T09:43:41.211Z</time></trkpt><trkpt lat="43.5064485" lon="11.3686784"><ele>463.0</ele><time>2026-03-28T09:43:42.211Z</time></trkpt><trkpt lat="43.5063663" lon="11.3687918"><ele>459.75</ele><time>2026-03-28T09:43:43.211Z</time></trkpt><trkpt lat="43.5062802" lon="11.3689041"><ele>456.5</ele><time>2026-03-28T09:43:44.212Z</time></trkpt><trkpt lat="43.5061896" lon="11.3690078"><ele>453.25</ele><time>2026-03-28T09:43:45.211Z</time></trkpt><trkpt lat="43.5060953" lon="11.3691086"><ele>450.0</ele><time>2026-03-28T09:43:46.211Z</time></trkpt><trkpt lat="43.5059971" lon="11.3692068"><ele>449.75</ele><time>2026-03-28T09:43:47.212Z</time></trkpt><trkpt lat="43.5058953" lon="11.3692996"><ele>449.5</ele><time>2026-03-28T09:43:48.211Z</time></trkpt><trkpt lat="43.5057937" lon="11.3693846"><ele>449.25</ele><time>2026-03-28T09:43:49.211Z</time></trkpt><trkpt lat="43.5056917" lon="11.3694649"><ele>449.0</ele><time>2026-03-28T09:43:50.211Z</time></trkpt><trkpt lat="43.5055871" lon="11.3695296"><ele>449.0</ele><time>2026-03-28T09:43:51.212Z</time></trkpt><trkpt lat="43.5054817" lon="11.3695609"><ele>449.0</ele><time>2026-03-28T09:43:52.211Z</time></trkpt><trkpt lat="43.5053789" lon="11.369549"><ele>449.0</ele><time>2026-03-28T09:43:53.211Z</time></trkpt><trkpt lat="43.5052825" lon="11.3695041"><ele>449.0</ele><time>2026-03-28T09:43:54.211Z</time></trkpt><trkpt lat="43.5051873" lon="11.3694433"><ele>449.0</ele><time>2026-03-28T09:43:55.211Z</time></trkpt><trkpt lat="43.5050722" lon="11.3694006"><ele>448.5</ele><time>2026-03-28T09:43:56.211Z</time></trkpt><trkpt lat="43.5049571" lon="11.3693889"><ele>448.0</ele><time>2026-03-28T09:43:57.21Z</time></trkpt><trkpt lat="43.5048382" lon="11.3694087"><ele>447.5</ele><time>2026-03-28T09:43:58.211Z</time></trkpt><trkpt lat="43.5047182" lon="11.3694472"><ele>447.0</ele><time>2026-03-28T09:43:59.212Z</time></trkpt><trkpt lat="43.5046051" lon="11.3694908"><ele>447.25</ele><time>2026-03-28T09:44:00.211Z</time></trkpt><trkpt lat="43.5044857" lon="11.3695959"><ele>447.5</ele><time>2026-03-28T09:44:01.212Z</time></trkpt><trkpt lat="43.5043799" lon="11.369687"><ele>447.75</ele><time>2026-03-28T09:44:02.212Z</time></trkpt><trkpt lat="43.5042703" lon="11.3697754"><ele>448.0</ele><time>2026-03-28T09:44:03.211Z</time></trkpt><trkpt lat="43.5041572" lon="11.3698505"><ele>444.0</ele><time>2026-03-28T09:44:04.212Z</time></trkpt><trkpt lat="43.5040377" lon="11.3699156"><ele>440.0</ele><time>2026-03-28T09:44:05.211Z</time></trkpt><trkpt lat="43.5039131" lon="11.3699557"><ele>436.0</ele><time>2026-03-28T09:44:06.211Z</time></trkpt><trkpt lat="43.5037795" lon="11.369965"><ele>432.0</ele><time>2026-03-28T09:44:07.212Z</time></trkpt><trkpt lat="43.503655" lon="11.3699576"><ele>430.5</ele><time>2026-03-28T09:44:08.211Z</time></trkpt><trkpt lat="43.5035297" lon="11.369968"><ele>429.0</ele><time>2026-03-28T09:44:09.211Z</time></trkpt><trkpt lat="43.5034172" lon="11.3700063"><ele>427.5</ele><time>2026-03-28T09:44:10.211Z</time></trkpt><trkpt lat="43.503302" lon="11.3700644"><ele>426.0</ele><time>2026-03-28T09:44:11.211Z</time></trkpt><trkpt lat="43.5031875" lon="11.3701284"><ele>426.0</ele><time>2026-03-28T09:44:12.211Z</time></trkpt><trkpt lat="43.5030734" lon="11.3701944"><ele>426.0</ele><time>2026-03-28T09:44:13.212Z</time></trkpt><trkpt lat="43.5029622" lon="11.370268"><ele>426.0</ele><time>2026-03-28T09:44:14.211Z</time></trkpt><trkpt lat="43.5028533" lon="11.3703415"><ele>426.0</ele><time>2026-03-28T09:44:15.212Z</time></trkpt><trkpt lat="43.5027326" lon="11.3704169"><ele>424.0</ele><time>2026-03-28T09:44:16.211Z</time></trkpt><trkpt lat="43.5026119" lon="11.3704886"><ele>422.0</ele><time>2026-03-28T09:44:17.211Z</time></trkpt><trkpt lat="43.5024808" lon="11.3705433"><ele>420.0</ele><time>2026-03-28T09:44:18.212Z</time></trkpt><trkpt lat="43.5023435" lon="11.3706046"><ele>418.0</ele><time>2026-03-28T09:44:19.212Z</time></trkpt><trkpt lat="43.5022136" lon="11.3706462"><ele>415.75</ele><time>2026-03-28T09:44:20.211Z</time></trkpt><trkpt lat="43.5020825" lon="11.3706868"><ele>413.5</ele><time>2026-03-28T09:44:21.211Z</time></trkpt><trkpt lat="43.5019569" lon="11.3707342"><ele>411.25</ele><time>2026-03-28T09:44:22.211Z</time></trkpt><trkpt lat="43.5018335" lon="11.3707821"><ele>409.0</ele><time>2026-03-28T09:44:23.211Z</time></trkpt><trkpt lat="43.501707" lon="11.3708331"><ele>407.5</ele><time>2026-03-28T09:44:24.211Z</time></trkpt><trkpt lat="43.5015839" lon="11.3708902"><ele>406.0</ele><time>2026-03-28T09:44:25.212Z</time></trkpt><trkpt lat="43.5014671" lon="11.3709808"><ele>404.5</ele><time>2026-03-28T09:44:26.211Z</time></trkpt><trkpt lat="43.5013589" lon="11.3710979"><ele>403.0</ele><time>2026-03-28T09:44:27.211Z</time></trkpt><trkpt lat="43.5012637" lon="11.3712167"><ele>404.5</ele><time>2026-03-28T09:44:28.211Z</time></trkpt><trkpt lat="43.5011747" lon="11.3713377"><ele>406.0</ele><time>2026-03-28T09:44:29.211Z</time></trkpt><trkpt lat="43.5010838" lon="11.3714349"><ele>407.5</ele><time>2026-03-28T09:44:30.212Z</time></trkpt><trkpt lat="43.5009806" lon="11.3714896"><ele>409.0</ele><time>2026-03-28T09:44:31.212Z</time></trkpt><trkpt lat="43.50087" lon="11.3715402"><ele>409.0</ele><time>2026-03-28T09:44:32.211Z</time></trkpt><trkpt lat="43.5007562" lon="11.3714487"><ele>409.0</ele><time>2026-03-28T09:44:33.211Z</time></trkpt><trkpt lat="43.5006339" lon="11.3714029"><ele>409.0</ele><time>2026-03-28T09:44:34.211Z</time></trkpt><trkpt lat="43.5005056" lon="11.3713512"><ele>409.0</ele><time>2026-03-28T09:44:35.211Z</time></trkpt><trkpt lat="43.5003664" lon="11.3713094"><ele>407.75</ele><time>2026-03-28T09:44:36.212Z</time></trkpt><trkpt lat="43.500234" lon="11.3712897"><ele>406.5</ele><time>2026-03-28T09:44:37.212Z</time></trkpt><trkpt lat="43.5000926" lon="11.3712953"><ele>405.25</ele><time>2026-03-28T09:44:38.211Z</time></trkpt><trkpt lat="43.4999466" lon="11.3713271"><ele>404.0</ele><time>2026-03-28T09:44:39.212Z</time></trkpt><trkpt lat="43.4998034" lon="11.3713742"><ele>399.75</ele><time>2026-03-28T09:44:40.211Z</time></trkpt><trkpt lat="43.4996717" lon="11.3714359"><ele>395.5</ele><time>2026-03-28T09:44:41.21Z</time></trkpt><trkpt lat="43.4995407" lon="11.3714999"><ele>391.25</ele><time>2026-03-28T09:44:42.212Z</time></trkpt><trkpt lat="43.499402" lon="11.3715528"><ele>387.0</ele><time>2026-03-28T09:44:43.211Z</time></trkpt><trkpt lat="43.4992563" lon="11.3715962"><ele>384.6666666666667</ele><time>2026-03-28T09:44:44.212Z</time></trkpt><trkpt lat="43.4991072" lon="11.3716173"><ele>382.33333333333337</ele><time>2026-03-28T09:44:45.212Z</time></trkpt><trkpt lat="43.4989558" lon="11.3716291"><ele>380.0</ele><time>2026-03-28T09:44:46.211Z</time></trkpt><trkpt lat="43.4988074" lon="11.371648"><ele>379.0</ele><time>2026-03-28T09:44:47.211Z</time></trkpt><trkpt lat="43.4986642" lon="11.3716771"><ele>378.0</ele><time>2026-03-28T09:44:48.211Z</time></trkpt><trkpt lat="43.4985235" lon="11.3717118"><ele>377.0</ele><time>2026-03-28T09:44:49.211Z</time></trkpt><trkpt lat="43.498381" lon="11.3717482"><ele>376.0</ele><time>2026-03-28T09:44:50.211Z</time></trkpt><trkpt lat="43.4982358" lon="11.3717827"><ele>376.0</ele><time>2026-03-28T09:44:51.211Z</time></trkpt><trkpt lat="43.4980888" lon="11.3718096"><ele>376.0</ele><time>2026-03-28T09:44:52.211Z</time></trkpt><trkpt lat="43.4979405" lon="11.3718313"><ele>376.0</ele><time>2026-03-28T09:44:53.211Z</time></trkpt><trkpt lat="43.4977971" lon="11.3718381"><ele>376.0</ele><time>2026-03-28T09:44:54.211Z</time></trkpt><trkpt lat="43.4976544" lon="11.3718209"><ele>374.0</ele><time>2026-03-28T09:44:55.211Z</time></trkpt><trkpt lat="43.4975126" lon="11.3717784"><ele>372.0</ele><time>2026-03-28T09:44:56.21Z</time></trkpt><trkpt lat="43.4973806" lon="11.3717228"><ele>370.0</ele><time>2026-03-28T09:44:57.212Z</time></trkpt><trkpt lat="43.4972502" lon="11.3716654"><ele>368.0</ele><time>2026-03-28T09:44:58.211Z</time></trkpt><trkpt lat="43.497114" lon="11.3716072"><ele>367.25</ele><time>2026-03-28T09:44:59.212Z</time></trkpt><trkpt lat="43.4969752" lon="11.3715455"><ele>366.5</ele><time>2026-03-28T09:45:00.211Z</time></trkpt><trkpt lat="43.4968417" lon="11.3714758"><ele>365.75</ele><time>2026-03-28T09:45:01.211Z</time></trkpt><trkpt lat="43.4967156" lon="11.3713945"><ele>365.0</ele><time>2026-03-28T09:45:02.211Z</time></trkpt><trkpt lat="43.4965965" lon="11.3713045"><ele>365.0</ele><time>2026-03-28T09:45:03.212Z</time></trkpt><trkpt lat="43.4964831" lon="11.371226"><ele>365.0</ele><time>2026-03-28T09:45:04.212Z</time></trkpt><trkpt lat="43.4963718" lon="11.3711648"><ele>365.0</ele><time>2026-03-28T09:45:05.211Z</time></trkpt><trkpt lat="43.4962655" lon="11.3711223"><ele>365.0</ele><time>2026-03-28T09:45:06.211Z</time></trkpt><trkpt lat="43.4961633" lon="11.3710851"><ele>362.8</ele><time>2026-03-28T09:45:07.211Z</time></trkpt><trkpt lat="43.4960655" lon="11.3710438"><ele>360.6</ele><time>2026-03-28T09:45:08.211Z</time></trkpt><trkpt lat="43.4959765" lon="11.3709823"><ele>358.4</ele><time>2026-03-28T09:45:09.211Z</time></trkpt><trkpt lat="43.4959121" lon="11.3708949"><ele>356.2</ele><time>2026-03-28T09:45:10.212Z</time></trkpt><trkpt lat="43.4958762" lon="11.3707809"><ele>354.0</ele><time>2026-03-28T09:45:11.211Z</time></trkpt><trkpt lat="43.4958608" lon="11.3706495"><ele>353.4</ele><time>2026-03-28T09:45:12.212Z</time></trkpt><trkpt lat="43.4958266" lon="11.37052"><ele>352.79999999999995</ele><time>2026-03-28T09:45:13.211Z</time></trkpt><trkpt lat="43.4957602" lon="11.3704066"><ele>352.20000000000005</ele><time>2026-03-28T09:45:14.211Z</time></trkpt><trkpt lat="43.4956768" lon="11.3703044"><ele>351.6</ele><time>2026-03-28T09:45:15.212Z</time></trkpt><trkpt lat="43.4955769" lon="11.3702036"><ele>351.0</ele><time>2026-03-28T09:45:16.211Z</time></trkpt><trkpt lat="43.4954781" lon="11.3701065"><ele>349.25</ele><time>2026-03-28T09:45:17.211Z</time></trkpt><trkpt lat="43.4953838" lon="11.370008"><ele>347.5</ele><time>2026-03-28T09:45:18.212Z</time></trkpt><trkpt lat="43.4952846" lon="11.3699044"><ele>345.75</ele><time>2026-03-28T09:45:19.21Z</time></trkpt><trkpt lat="43.4951893" lon="11.3698081"><ele>344.0</ele><time>2026-03-28T09:45:20.211Z</time></trkpt><trkpt lat="43.4950892" lon="11.369707"><ele>343.25</ele><time>2026-03-28T09:45:21.211Z</time></trkpt><trkpt lat="43.4949858" lon="11.3696081"><ele>342.5</ele><time>2026-03-28T09:45:22.212Z</time></trkpt><trkpt lat="43.4948716" lon="11.369525"><ele>341.75</ele><time>2026-03-28T09:45:23.211Z</time></trkpt><trkpt lat="43.4947471" lon="11.3694612"><ele>341.0</ele><time>2026-03-28T09:45:24.212Z</time></trkpt><trkpt lat="43.4946252" lon="11.3694168"><ele>342.75</ele><time>2026-03-28T09:45:25.212Z</time></trkpt><trkpt lat="43.4945041" lon="11.3693881"><ele>344.5</ele><time>2026-03-28T09:45:26.211Z</time></trkpt><trkpt lat="43.4943778" lon="11.369354"><ele>346.25</ele><time>2026-03-28T09:45:27.211Z</time></trkpt><trkpt lat="43.4942498" lon="11.3693176"><ele>348.0</ele><time>2026-03-28T09:45:28.211Z</time></trkpt><trkpt lat="43.4941156" lon="11.3692802"><ele>348.0</ele><time>2026-03-28T09:45:29.211Z</time></trkpt><trkpt lat="43.4939743" lon="11.369243"><ele>348.0</ele><time>2026-03-28T09:45:30.211Z</time></trkpt><trkpt lat="43.4938345" lon="11.3692109"><ele>348.0</ele><time>2026-03-28T09:45:31.212Z</time></trkpt><trkpt lat="43.4936947" lon="11.3691822"><ele>348.0</ele><time>2026-03-28T09:45:32.212Z</time></trkpt><trkpt lat="43.4935493" lon="11.3691468"><ele>351.6666666666667</ele><time>2026-03-28T09:45:33.212Z</time></trkpt><trkpt lat="43.4934009" lon="11.3691069"><ele>355.33333333333337</ele><time>2026-03-28T09:45:34.211Z</time></trkpt><trkpt lat="43.4932514" lon="11.3690672"><ele>359.0</ele><time>2026-03-28T09:45:35.211Z</time></trkpt><trkpt lat="43.4931076" lon="11.369017"><ele>359.0</ele><time>2026-03-28T09:45:36.211Z</time></trkpt><trkpt lat="43.4929683" lon="11.3689577"><ele>359.0</ele><time>2026-03-28T09:45:37.212Z</time></trkpt><trkpt lat="43.4928305" lon="11.3689036"><ele>359.0</ele><time>2026-03-28T09:45:38.212Z</time></trkpt><trkpt lat="43.4926882" lon="11.3688477"><ele>359.0</ele><time>2026-03-28T09:45:39.211Z</time></trkpt><trkpt lat="43.4925477" lon="11.3687838"><ele>363.0</ele><time>2026-03-28T09:45:40.212Z</time></trkpt><trkpt lat="43.4924085" lon="11.3687052"><ele>367.0</ele><time>2026-03-28T09:45:41.211Z</time></trkpt><trkpt lat="43.4922823" lon="11.3686012"><ele>371.0</ele><time>2026-03-28T09:45:42.212Z</time></trkpt><trkpt lat="43.4921623" lon="11.3684822"><ele>375.0</ele><time>2026-03-28T09:45:43.211Z</time></trkpt><trkpt lat="43.4920399" lon="11.3683559"><ele>377.5</ele><time>2026-03-28T09:45:44.211Z</time></trkpt><trkpt lat="43.4919188" lon="11.3682342"><ele>380.0</ele><time>2026-03-28T09:45:45.211Z</time></trkpt><trkpt lat="43.4918022" lon="11.3681208"><ele>382.5</ele><time>2026-03-28T09:45:46.211Z</time></trkpt><trkpt lat="43.4916795" lon="11.3680004"><ele>385.0</ele><time>2026-03-28T09:45:47.211Z</time></trkpt><trkpt lat="43.491553" lon="11.3678817"><ele>388.6666666666667</ele><time>2026-03-28T09:45:48.212Z</time></trkpt><trkpt lat="43.4914223" lon="11.3677736"><ele>392.33333333333337</ele><time>2026-03-28T09:45:49.211Z</time></trkpt><trkpt lat="43.4912776" lon="11.3676884"><ele>396.0</ele><time>2026-03-28T09:45:50.212Z</time></trkpt><trkpt lat="43.491133" lon="11.3676055"><ele>396.20000000000005</ele><time>2026-03-28T09:45:51.211Z</time></trkpt><trkpt lat="43.4910202" lon="11.3676114"><ele>396.40000000000003</ele><time>2026-03-28T09:45:52.211Z</time></trkpt><trkpt lat="43.4909093" lon="11.3675987"><ele>396.6</ele><time>2026-03-28T09:45:53.211Z</time></trkpt><trkpt lat="43.49082" lon="11.3676043"><ele>396.8</ele><time>2026-03-28T09:45:54.212Z</time></trkpt><trkpt lat="43.4907438" lon="11.3676067"><ele>397.0</ele><time>2026-03-28T09:45:55.211Z</time></trkpt><trkpt lat="43.490638" lon="11.3676052"><ele>397.00000000000006</ele><time>2026-03-28T09:45:57.211Z</time></trkpt><trkpt lat="43.49055" lon="11.3676853"><ele>397.0</ele><time>2026-03-28T09:45:59.211Z</time></trkpt><trkpt lat="43.4905261" lon="11.3677851"><ele>397.0</ele><time>2026-03-28T09:46:00.211Z</time></trkpt><trkpt lat="43.4905326" lon="11.3678956"><ele>397.0</ele><time>2026-03-28T09:46:01.211Z</time></trkpt><trkpt lat="43.4905735" lon="11.3679988"><ele>397.00000000000006</ele><time>2026-03-28T09:46:02.212Z</time></trkpt><trkpt lat="43.4906459" lon="11.3680812"><ele>397.0</ele><time>2026-03-28T09:46:03.211Z</time></trkpt><trkpt lat="43.4907458" lon="11.3681406"><ele>396.75</ele><time>2026-03-28T09:46:04.211Z</time></trkpt><trkpt lat="43.4908526" lon="11.3681805"><ele>396.5</ele><time>2026-03-28T09:46:05.212Z</time></trkpt><trkpt lat="43.490955" lon="11.3682418"><ele>396.25</ele><time>2026-03-28T09:46:06.211Z</time></trkpt><trkpt lat="43.4910616" lon="11.3683116"><ele>396.0</ele><time>2026-03-28T09:46:07.212Z</time></trkpt><trkpt lat="43.4911678" lon="11.3683955"><ele>396.20000000000005</ele><time>2026-03-28T09:46:08.212Z</time></trkpt><trkpt lat="43.4912668" lon="11.3685021"><ele>396.40000000000003</ele><time>2026-03-28T09:46:09.212Z</time></trkpt><trkpt lat="43.49134" lon="11.3686105"><ele>396.6</ele><time>2026-03-28T09:46:10.211Z</time></trkpt><trkpt lat="43.4914036" lon="11.3687185"><ele>396.8</ele><time>2026-03-28T09:46:11.212Z</time></trkpt><trkpt lat="43.4914724" lon="11.3688341"><ele>397.0</ele><time>2026-03-28T09:46:12.211Z</time></trkpt><trkpt lat="43.4915404" lon="11.3689604"><ele>397.0</ele><time>2026-03-28T09:46:13.212Z</time></trkpt><trkpt lat="43.4916105" lon="11.3690967"><ele>397.0</ele><time>2026-03-28T09:46:14.211Z</time></trkpt><trkpt lat="43.4916795" lon="11.3692364"><ele>397.0</ele><time>2026-03-28T09:46:15.212Z</time></trkpt><trkpt lat="43.4917375" lon="11.3693637"><ele>397.0</ele><time>2026-03-28T09:46:16.211Z</time></trkpt><trkpt lat="43.4917885" lon="11.3694993"><ele>397.0</ele><time>2026-03-28T09:46:17.212Z</time></trkpt><trkpt lat="43.4918265" lon="11.3696356"><ele>397.0</ele><time>2026-03-28T09:46:18.211Z</time></trkpt><trkpt lat="43.4918437" lon="11.3697774"><ele>397.0</ele><time>2026-03-28T09:46:19.212Z</time></trkpt><trkpt lat="43.4918423" lon="11.3699211"><ele>397.0</ele><time>2026-03-28T09:46:20.212Z</time></trkpt><trkpt lat="43.4918249" lon="11.3700711"><ele>397.0</ele><time>2026-03-28T09:46:21.211Z</time></trkpt><trkpt lat="43.4917985" lon="11.3702229"><ele>396.75</ele><time>2026-03-28T09:46:22.212Z</time></trkpt><trkpt lat="43.4917633" lon="11.3703767"><ele>396.5</ele><time>2026-03-28T09:46:23.21Z</time></trkpt><trkpt lat="43.491719" lon="11.3705281"><ele>396.25</ele><time>2026-03-28T09:46:24.211Z</time></trkpt><trkpt lat="43.4916654" lon="11.3706689"><ele>396.0</ele><time>2026-03-28T09:46:25.211Z</time></trkpt><trkpt lat="43.4916082" lon="11.3707958"><ele>396.0</ele><time>2026-03-28T09:46:26.211Z</time></trkpt><trkpt lat="43.4915405" lon="11.3709252"><ele>396.0</ele><time>2026-03-28T09:46:27.212Z</time></trkpt><trkpt lat="43.4914673" lon="11.3710505"><ele>396.0</ele><time>2026-03-28T09:46:28.211Z</time></trkpt><trkpt lat="43.4913802" lon="11.3711638"><ele>396.0</ele><time>2026-03-28T09:46:29.211Z</time></trkpt><trkpt lat="43.4912783" lon="11.3712533"><ele>397.0</ele><time>2026-03-28T09:46:30.211Z</time></trkpt><trkpt lat="43.4911667" lon="11.3713172"><ele>398.0</ele><time>2026-03-28T09:46:31.211Z</time></trkpt><trkpt lat="43.4910446" lon="11.3713595"><ele>399.0</ele><time>2026-03-28T09:46:32.21Z</time></trkpt><trkpt lat="43.4909236" lon="11.3713819"><ele>400.0</ele><time>2026-03-28T09:46:33.211Z</time></trkpt><trkpt lat="43.4907977" lon="11.3713877"><ele>400.0</ele><time>2026-03-28T09:46:34.211Z</time></trkpt><trkpt lat="43.4906799" lon="11.3713913"><ele>400.0</ele><time>2026-03-28T09:46:35.211Z</time></trkpt><trkpt lat="43.4905752" lon="11.3714144"><ele>400.0</ele><time>2026-03-28T09:46:36.212Z</time></trkpt><trkpt lat="43.4904841" lon="11.3714732"><ele>400.0</ele><time>2026-03-28T09:46:37.211Z</time></trkpt><trkpt lat="43.4904169" lon="11.3715717"><ele>400.0</ele><time>2026-03-28T09:46:38.212Z</time></trkpt><trkpt lat="43.4903781" lon="11.3717068"><ele>400.0</ele><time>2026-03-28T09:46:39.212Z</time></trkpt><trkpt lat="43.4903793" lon="11.3718545"><ele>400.0</ele><time>2026-03-28T09:46:40.21Z</time></trkpt><trkpt lat="43.4904169" lon="11.3720131"><ele>400.0</ele><time>2026-03-28T09:46:41.212Z</time></trkpt><trkpt lat="43.4904836" lon="11.3721746"><ele>400.0</ele><time>2026-03-28T09:46:42.211Z</time></trkpt><trkpt lat="43.4905569" lon="11.3723354"><ele>400.5</ele><time>2026-03-28T09:46:43.212Z</time></trkpt><trkpt lat="43.4906348" lon="11.3725021"><ele>401.0</ele><time>2026-03-28T09:46:44.21Z</time></trkpt><trkpt lat="43.4907107" lon="11.3726819"><ele>401.5</ele><time>2026-03-28T09:46:45.211Z</time></trkpt><trkpt lat="43.4907648" lon="11.3728527"><ele>402.0</ele><time>2026-03-28T09:46:46.212Z</time></trkpt><trkpt lat="43.490807" lon="11.3730285"><ele>403.5</ele><time>2026-03-28T09:46:47.21Z</time></trkpt><trkpt lat="43.4908215" lon="11.373199"><ele>405.0</ele><time>2026-03-28T09:46:48.211Z</time></trkpt><trkpt lat="43.4908079" lon="11.3733836"><ele>406.5</ele><time>2026-03-28T09:46:49.212Z</time></trkpt><trkpt lat="43.4907584" lon="11.3735616"><ele>408.0</ele><time>2026-03-28T09:46:50.211Z</time></trkpt><trkpt lat="43.4906936" lon="11.3737476"><ele>408.0</ele><time>2026-03-28T09:46:51.211Z</time></trkpt><trkpt lat="43.4906334" lon="11.3739239"><ele>408.0</ele><time>2026-03-28T09:46:52.211Z</time></trkpt><trkpt lat="43.4905784" lon="11.3741109"><ele>408.0</ele><time>2026-03-28T09:46:53.211Z</time></trkpt><trkpt lat="43.4905321" lon="11.3743088"><ele>408.0</ele><time>2026-03-28T09:46:54.212Z</time></trkpt><trkpt lat="43.4904982" lon="11.3745016"><ele>408.0</ele><time>2026-03-28T09:46:55.212Z</time></trkpt><trkpt lat="43.4904711" lon="11.3746856"><ele>408.0</ele><time>2026-03-28T09:46:56.212Z</time></trkpt><trkpt lat="43.4904483" lon="11.3748805"><ele>408.0</ele><time>2026-03-28T09:46:57.211Z</time></trkpt><trkpt lat="43.490426" lon="11.3750812"><ele>408.0</ele><time>2026-03-28T09:46:58.211Z</time></trkpt><trkpt lat="43.4904113" lon="11.3752842"><ele>408.25</ele><time>2026-03-28T09:46:59.212Z</time></trkpt><trkpt lat="43.4904109" lon="11.3754691"><ele>408.5</ele><time>2026-03-28T09:47:00.212Z</time></trkpt><trkpt lat="43.4904213" lon="11.3756609"><ele>408.75</ele><time>2026-03-28T09:47:01.211Z</time></trkpt><trkpt lat="43.4904368" lon="11.3758514"><ele>409.0</ele><time>2026-03-28T09:47:02.211Z</time></trkpt><trkpt lat="43.4904544" lon="11.3760414"><ele>409.0</ele><time>2026-03-28T09:47:03.211Z</time></trkpt><trkpt lat="43.490475" lon="11.3762325"><ele>409.0</ele><time>2026-03-28T09:47:04.211Z</time></trkpt><trkpt lat="43.4904977" lon="11.3764268"><ele>409.0</ele><time>2026-03-28T09:47:05.212Z</time></trkpt><trkpt lat="43.4905204" lon="11.3766225"><ele>409.0</ele><time>2026-03-28T09:47:06.211Z</time></trkpt><trkpt lat="43.4905456" lon="11.3768199"><ele>410.5</ele><time>2026-03-28T09:47:07.21Z</time></trkpt><trkpt lat="43.4905726" lon="11.3770191"><ele>412.0</ele><time>2026-03-28T09:47:08.212Z</time></trkpt><trkpt lat="43.4906046" lon="11.3772198"><ele>413.5</ele><time>2026-03-28T09:47:09.211Z</time></trkpt><trkpt lat="43.4906348" lon="11.3774204"><ele>415.0</ele><time>2026-03-28T09:47:10.211Z</time></trkpt><trkpt lat="43.4906587" lon="11.3776065"><ele>416.25</ele><time>2026-03-28T09:47:11.211Z</time></trkpt><trkpt lat="43.4906846" lon="11.3777978"><ele>417.5</ele><time>2026-03-28T09:47:12.211Z</time></trkpt><trkpt lat="43.4907105" lon="11.377986"><ele>418.75</ele><time>2026-03-28T09:47:13.212Z</time></trkpt><trkpt lat="43.4907392" lon="11.3781767"><ele>420.0</ele><time>2026-03-28T09:47:14.211Z</time></trkpt><trkpt lat="43.4907662" lon="11.378368"><ele>421.25</ele><time>2026-03-28T09:47:15.211Z</time></trkpt><trkpt lat="43.4907901" lon="11.3785644"><ele>422.5</ele><time>2026-03-28T09:47:16.211Z</time></trkpt><trkpt lat="43.4908035" lon="11.3787672"><ele>423.75</ele><time>2026-03-28T09:47:17.212Z</time></trkpt><trkpt lat="43.4907984" lon="11.3789644"><ele>425.0</ele><time>2026-03-28T09:47:18.21Z</time></trkpt><trkpt lat="43.4907638" lon="11.3791542"><ele>425.3333333333333</ele><time>2026-03-28T09:47:19.211Z</time></trkpt><trkpt lat="43.4906972" lon="11.3793321"><ele>425.66666666666663</ele><time>2026-03-28T09:47:20.212Z</time></trkpt><trkpt lat="43.4906096" lon="11.3795003"><ele>426.0</ele><time>2026-03-28T09:47:21.212Z</time></trkpt><trkpt lat="43.4905137" lon="11.3796669"><ele>429.5</ele><time>2026-03-28T09:47:22.211Z</time></trkpt><trkpt lat="43.4904233" lon="11.3798335"><ele>433.0</ele><time>2026-03-28T09:47:23.212Z</time></trkpt><trkpt lat="43.4903481" lon="11.3800095"><ele>436.5</ele><time>2026-03-28T09:47:24.212Z</time></trkpt><trkpt lat="43.4902846" lon="11.3801918"><ele>440.0</ele><time>2026-03-28T09:47:25.211Z</time></trkpt><trkpt lat="43.4902385" lon="11.3803777"><ele>441.0</ele><time>2026-03-28T09:47:26.212Z</time></trkpt><trkpt lat="43.4902094" lon="11.3805688"><ele>442.0</ele><time>2026-03-28T09:47:27.21Z</time></trkpt><trkpt lat="43.4902085" lon="11.3807647"><ele>443.0</ele><time>2026-03-28T09:47:28.211Z</time></trkpt><trkpt lat="43.4902377" lon="11.3809575"><ele>444.0</ele><time>2026-03-28T09:47:29.211Z</time></trkpt><trkpt lat="43.4903046" lon="11.381127"><ele>444.0</ele><time>2026-03-28T09:47:30.211Z</time></trkpt><trkpt lat="43.4903825" lon="11.3812799"><ele>444.0</ele><time>2026-03-28T09:47:31.212Z</time></trkpt><trkpt lat="43.490464" lon="11.3814378"><ele>444.0</ele><time>2026-03-28T09:47:32.212Z</time></trkpt><trkpt lat="43.4905327" lon="11.3816169"><ele>444.0</ele><time>2026-03-28T09:47:33.211Z</time></trkpt><trkpt lat="43.490585" lon="11.3818048"><ele>444.25</ele><time>2026-03-28T09:47:34.21Z</time></trkpt><trkpt lat="43.4906428" lon="11.3819855"><ele>444.5</ele><time>2026-03-28T09:47:35.211Z</time></trkpt><trkpt lat="43.4907151" lon="11.382152"><ele>444.75</ele><time>2026-03-28T09:47:36.21Z</time></trkpt><trkpt lat="43.4908179" lon="11.382295"><ele>445.0</ele><time>2026-03-28T09:47:37.211Z</time></trkpt><trkpt lat="43.490929" lon="11.3823978"><ele>445.0</ele><time>2026-03-28T09:47:38.211Z</time></trkpt><trkpt lat="43.491042" lon="11.3825012"><ele>445.0</ele><time>2026-03-28T09:47:39.211Z</time></trkpt><trkpt lat="43.4911528" lon="11.3825806"><ele>445.0</ele><time>2026-03-28T09:47:40.211Z</time></trkpt><trkpt lat="43.4912363" lon="11.3827258"><ele>445.0</ele><time>2026-03-28T09:47:41.212Z</time></trkpt><trkpt lat="43.4912836" lon="11.3828856"><ele>442.25</ele><time>2026-03-28T09:47:42.212Z</time></trkpt><trkpt lat="43.4913073" lon="11.3830708"><ele>439.5</ele><time>2026-03-28T09:47:43.211Z</time></trkpt><trkpt lat="43.4913029" lon="11.3832651"><ele>436.75</ele><time>2026-03-28T09:47:44.212Z</time></trkpt><trkpt lat="43.4912823" lon="11.3834557"><ele>434.0</ele><time>2026-03-28T09:47:45.211Z</time></trkpt><trkpt lat="43.4912475" lon="11.3836342"><ele>439.5</ele><time>2026-03-28T09:47:46.211Z</time></trkpt><trkpt lat="43.4912031" lon="11.3837916"><ele>445.0</ele><time>2026-03-28T09:47:47.212Z</time></trkpt><trkpt lat="43.4911414" lon="11.3839325"><ele>450.5</ele><time>2026-03-28T09:47:48.212Z</time></trkpt><trkpt lat="43.491065" lon="11.3840625"><ele>456.0</ele><time>2026-03-28T09:47:49.21Z</time></trkpt><trkpt lat="43.4909735" lon="11.3841912"><ele>456.25</ele><time>2026-03-28T09:47:50.211Z</time></trkpt><trkpt lat="43.4908696" lon="11.3843152"><ele>456.5</ele><time>2026-03-28T09:47:51.211Z</time></trkpt><trkpt lat="43.4907677" lon="11.3844277"><ele>456.75</ele><time>2026-03-28T09:47:52.211Z</time></trkpt><trkpt lat="43.4906654" lon="11.3845372"><ele>457.0</ele><time>2026-03-28T09:47:53.211Z</time></trkpt><trkpt lat="43.4905617" lon="11.3846546"><ele>457.25</ele><time>2026-03-28T09:47:54.211Z</time></trkpt><trkpt lat="43.4904545" lon="11.3847697"><ele>457.5</ele><time>2026-03-28T09:47:55.211Z</time></trkpt><trkpt lat="43.4903562" lon="11.3848772"><ele>457.75</ele><time>2026-03-28T09:47:56.211Z</time></trkpt><trkpt lat="43.4902564" lon="11.3849896"><ele>458.0</ele><time>2026-03-28T09:47:57.21Z</time></trkpt><trkpt lat="43.4901574" lon="11.3851046"><ele>458.0</ele><time>2026-03-28T09:47:58.211Z</time></trkpt><trkpt lat="43.4900721" lon="11.3852135"><ele>458.0</ele><time>2026-03-28T09:47:59.212Z</time></trkpt><trkpt lat="43.4899935" lon="11.3853366"><ele>458.0</ele><time>2026-03-28T09:48:00.212Z</time></trkpt><trkpt lat="43.4899339" lon="11.3854841"><ele>458.0</ele><time>2026-03-28T09:48:01.211Z</time></trkpt><trkpt lat="43.4898933" lon="11.3856274"><ele>458.2</ele><time>2026-03-28T09:48:02.211Z</time></trkpt><trkpt lat="43.4898543" lon="11.3857583"><ele>458.4</ele><time>2026-03-28T09:48:03.211Z</time></trkpt><trkpt lat="43.489815" lon="11.3858874"><ele>458.59999999999997</ele><time>2026-03-28T09:48:04.211Z</time></trkpt><trkpt lat="43.4897724" lon="11.3860238"><ele>458.79999999999995</ele><time>2026-03-28T09:48:05.212Z</time></trkpt><trkpt lat="43.4897304" lon="11.3861464"><ele>459.0</ele><time>2026-03-28T09:48:06.212Z</time></trkpt><trkpt lat="43.4896915" lon="11.3862658"><ele>459.6666666666667</ele><time>2026-03-28T09:48:07.211Z</time></trkpt><trkpt lat="43.4896696" lon="11.3863797"><ele>460.33333333333337</ele><time>2026-03-28T09:48:08.212Z</time></trkpt><trkpt lat="43.4896475" lon="11.3864939"><ele>461.0</ele><time>2026-03-28T09:48:09.212Z</time></trkpt><trkpt lat="43.4896266" lon="11.3865893"><ele>461.6666666666667</ele><time>2026-03-28T09:48:10.212Z</time></trkpt><trkpt lat="43.4896036" lon="11.3866752"><ele>462.33333333333337</ele><time>2026-03-28T09:48:11.211Z</time></trkpt><trkpt lat="43.489571" lon="11.386809"><ele>463.0</ele><time>2026-03-28T09:48:13.211Z</time></trkpt><trkpt lat="43.4895505" lon="11.3869022"><ele>460.0</ele><time>2026-03-28T09:48:15.211Z</time></trkpt><trkpt lat="43.4895394" lon="11.38699"><ele>456.99999999999994</ele><time>2026-03-28T09:48:21.211Z</time></trkpt><trkpt lat="43.4895296" lon="11.3871497"><ele>453.99999999999994</ele><time>2026-03-28T09:50:54.212Z</time></trkpt><trkpt lat="43.4895187" lon="11.3873437"><ele>451.0</ele><time>2026-03-28T09:50:56.213Z</time></trkpt><trkpt lat="43.4895098" lon="11.3874726"><ele>448.0</ele><time>2026-03-28T09:50:57.213Z</time></trkpt><trkpt lat="43.4894977" lon="11.387605"><ele>448.0</ele><time>2026-03-28T09:50:58.213Z</time></trkpt><trkpt lat="43.4894806" lon="11.3877431"><ele>447.99999999999994</ele><time>2026-03-28T09:50:59.213Z</time></trkpt><trkpt lat="43.4894687" lon="11.3879004"><ele>447.99999999999994</ele><time>2026-03-28T09:51:00.211Z</time></trkpt><trkpt lat="43.4894586" lon="11.3880549"><ele>448.0</ele><time>2026-03-28T09:51:01.212Z</time></trkpt><trkpt lat="43.4894448" lon="11.3881949"><ele>448.0</ele><time>2026-03-28T09:51:02.212Z</time></trkpt><trkpt lat="43.4894295" lon="11.3883523"><ele>448.59999999999997</ele><time>2026-03-28T09:51:03.212Z</time></trkpt><trkpt lat="43.4894124" lon="11.3884965"><ele>449.19999999999993</ele><time>2026-03-28T09:51:04.212Z</time></trkpt><trkpt lat="43.4893961" lon="11.3886308"><ele>449.8</ele><time>2026-03-28T09:51:05.212Z</time></trkpt><trkpt lat="43.489378" lon="11.388748"><ele>450.4</ele><time>2026-03-28T09:51:06.212Z</time></trkpt><trkpt lat="43.4893486" lon="11.3888527"><ele>451.0</ele><time>2026-03-28T09:51:07.212Z</time></trkpt><trkpt lat="43.4893199" lon="11.3889531"><ele>451.8</ele><time>2026-03-28T09:51:08.213Z</time></trkpt><trkpt lat="43.4892935" lon="11.3890521"><ele>452.6</ele><time>2026-03-28T09:51:09.212Z</time></trkpt><trkpt lat="43.4892753" lon="11.3891588"><ele>453.4</ele><time>2026-03-28T09:51:10.213Z</time></trkpt><trkpt lat="43.4892831" lon="11.3892855"><ele>454.2</ele><time>2026-03-28T09:51:11.212Z</time></trkpt><trkpt lat="43.4893131" lon="11.3894141"><ele>455.0</ele><time>2026-03-28T09:51:12.212Z</time></trkpt><trkpt lat="43.4893545" lon="11.3895521"><ele>454.6</ele><time>2026-03-28T09:51:13.212Z</time></trkpt><trkpt lat="43.4893981" lon="11.3896754"><ele>454.2</ele><time>2026-03-28T09:51:14.212Z</time></trkpt><trkpt lat="43.4894393" lon="11.3897915"><ele>453.79999999999995</ele><time>2026-03-28T09:51:15.212Z</time></trkpt><trkpt lat="43.4894805" lon="11.3899116"><ele>453.4</ele><time>2026-03-28T09:51:16.213Z</time></trkpt><trkpt lat="43.489527" lon="11.3900369"><ele>453.0</ele><time>2026-03-28T09:51:17.213Z</time></trkpt><trkpt lat="43.4895712" lon="11.3901643"><ele>454.2</ele><time>2026-03-28T09:51:18.213Z</time></trkpt><trkpt lat="43.4896097" lon="11.390281"><ele>455.4</ele><time>2026-03-28T09:51:19.213Z</time></trkpt><trkpt lat="43.4896515" lon="11.3903959"><ele>456.59999999999997</ele><time>2026-03-28T09:51:20.212Z</time></trkpt><trkpt lat="43.4896979" lon="11.3905116"><ele>457.79999999999995</ele><time>2026-03-28T09:51:21.213Z</time></trkpt><trkpt lat="43.4897438" lon="11.3906184"><ele>459.0</ele><time>2026-03-28T09:51:22.213Z</time></trkpt><trkpt lat="43.4897885" lon="11.3907109"><ele>459.0</ele><time>2026-03-28T09:51:23.212Z</time></trkpt><trkpt lat="43.4898437" lon="11.3908018"><ele>459.0</ele><time>2026-03-28T09:51:24.212Z</time></trkpt><trkpt lat="43.4899079" lon="11.3908962"><ele>459.0</ele><time>2026-03-28T09:51:25.213Z</time></trkpt><trkpt lat="43.4899825" lon="11.3909925"><ele>459.0</ele><time>2026-03-28T09:51:26.212Z</time></trkpt><trkpt lat="43.4900628" lon="11.3910947"><ele>459.0</ele><time>2026-03-28T09:51:27.212Z</time></trkpt><trkpt lat="43.4901413" lon="11.3912145"><ele>458.25</ele><time>2026-03-28T09:51:28.212Z</time></trkpt><trkpt lat="43.490195" lon="11.3913668"><ele>457.5</ele><time>2026-03-28T09:51:29.212Z</time></trkpt><trkpt lat="43.490211" lon="11.3915306"><ele>456.75</ele><time>2026-03-28T09:51:30.213Z</time></trkpt><trkpt lat="43.4902041" lon="11.3917025"><ele>456.0</ele><time>2026-03-28T09:51:31.213Z</time></trkpt><trkpt lat="43.4901964" lon="11.3918784"><ele>456.0</ele><time>2026-03-28T09:51:32.212Z</time></trkpt><trkpt lat="43.4901914" lon="11.3920487"><ele>456.0</ele><time>2026-03-28T09:51:33.212Z</time></trkpt><trkpt lat="43.4901951" lon="11.3922224"><ele>456.0</ele><time>2026-03-28T09:51:34.212Z</time></trkpt><trkpt lat="43.4902107" lon="11.3924106"><ele>456.0</ele><time>2026-03-28T09:51:35.213Z</time></trkpt><trkpt lat="43.490247" lon="11.3926045"><ele>456.25</ele><time>2026-03-28T09:51:36.213Z</time></trkpt><trkpt lat="43.4902976" lon="11.3928006"><ele>456.5</ele><time>2026-03-28T09:51:37.212Z</time></trkpt><trkpt lat="43.4903501" lon="11.3929766"><ele>456.75</ele><time>2026-03-28T09:51:38.212Z</time></trkpt><trkpt lat="43.4903988" lon="11.3931585"><ele>457.0</ele><time>2026-03-28T09:51:39.213Z</time></trkpt><trkpt lat="43.4904139" lon="11.393356"><ele>457.75</ele><time>2026-03-28T09:51:40.212Z</time></trkpt><trkpt lat="43.4903941" lon="11.3935545"><ele>458.5</ele><time>2026-03-28T09:51:41.213Z</time></trkpt><trkpt lat="43.4903472" lon="11.3937449"><ele>459.25</ele><time>2026-03-28T09:51:42.213Z</time></trkpt><trkpt lat="43.4902843" lon="11.3939141"><ele>460.0</ele><time>2026-03-28T09:51:43.212Z</time></trkpt><trkpt lat="43.4902156" lon="11.3940745"><ele>461.33333333333337</ele><time>2026-03-28T09:51:44.212Z</time></trkpt><trkpt lat="43.4901569" lon="11.3942539"><ele>462.66666666666663</ele><time>2026-03-28T09:51:45.212Z</time></trkpt><trkpt lat="43.490115" lon="11.3944534"><ele>464.0</ele><time>2026-03-28T09:51:46.213Z</time></trkpt><trkpt lat="43.4901043" lon="11.3946682"><ele>465.66666666666663</ele><time>2026-03-28T09:51:47.212Z</time></trkpt><trkpt lat="43.4901099" lon="11.3948906"><ele>467.33333333333337</ele><time>2026-03-28T09:51:48.213Z</time></trkpt><trkpt lat="43.4901211" lon="11.3951006"><ele>469.0</ele><time>2026-03-28T09:51:49.212Z</time></trkpt><trkpt lat="43.4901314" lon="11.395321"><ele>470.33333333333337</ele><time>2026-03-28T09:51:50.213Z</time></trkpt><trkpt lat="43.490129" lon="11.395542"><ele>471.66666666666663</ele><time>2026-03-28T09:51:51.213Z</time></trkpt><trkpt lat="43.4901105" lon="11.3957649"><ele>473.0</ele><time>2026-03-28T09:51:52.211Z</time></trkpt><trkpt lat="43.4900854" lon="11.3959823"><ele>473.0</ele><time>2026-03-28T09:51:53.212Z</time></trkpt><trkpt lat="43.4900556" lon="11.3961718"><ele>473.0</ele><time>2026-03-28T09:51:54.213Z</time></trkpt><trkpt lat="43.4899998" lon="11.3963509"><ele>473.0</ele><time>2026-03-28T09:51:55.212Z</time></trkpt><trkpt lat="43.4899082" lon="11.3965091"><ele>473.0</ele><time>2026-03-28T09:51:56.212Z</time></trkpt><trkpt lat="43.489794" lon="11.3966545"><ele>473.0</ele><time>2026-03-28T09:51:57.212Z</time></trkpt><trkpt lat="43.4896868" lon="11.3968215"><ele>473.0</ele><time>2026-03-28T09:51:58.212Z</time></trkpt><trkpt lat="43.4895943" lon="11.3970051"><ele>473.0</ele><time>2026-03-28T09:51:59.213Z</time></trkpt><trkpt lat="43.4895093" lon="11.3972005"><ele>478.66666666666663</ele><time>2026-03-28T09:52:00.213Z</time></trkpt><trkpt lat="43.4894205" lon="11.3973999"><ele>484.33333333333337</ele><time>2026-03-28T09:52:01.213Z</time></trkpt><trkpt lat="43.4893303" lon="11.3975855"><ele>490.0</ele><time>2026-03-28T09:52:02.211Z</time></trkpt><trkpt lat="43.4892356" lon="11.3977828"><ele>490.0</ele><time>2026-03-28T09:52:03.213Z</time></trkpt><trkpt lat="43.4891378" lon="11.3979863"><ele>490.0</ele><time>2026-03-28T09:52:04.211Z</time></trkpt><trkpt lat="43.4890379" lon="11.3981992"><ele>490.0</ele><time>2026-03-28T09:52:05.212Z</time></trkpt><trkpt lat="43.4889374" lon="11.3984163"><ele>488.0</ele><time>2026-03-28T09:52:06.213Z</time></trkpt><trkpt lat="43.4888438" lon="11.3986212"><ele>486.0</ele><time>2026-03-28T09:52:07.213Z</time></trkpt><trkpt lat="43.4887501" lon="11.3988254"><ele>484.0</ele><time>2026-03-28T09:52:08.212Z</time></trkpt><trkpt lat="43.4886563" lon="11.3990152"><ele>488.0</ele><time>2026-03-28T09:52:09.213Z</time></trkpt><trkpt lat="43.4885733" lon="11.3991933"><ele>492.0</ele><time>2026-03-28T09:52:10.212Z</time></trkpt><trkpt lat="43.488492" lon="11.399367"><ele>496.0</ele><time>2026-03-28T09:52:11.212Z</time></trkpt><trkpt lat="43.4883986" lon="11.3995197"><ele>500.0</ele><time>2026-03-28T09:52:12.213Z</time></trkpt><trkpt lat="43.4882783" lon="11.3996312"><ele>500.25</ele><time>2026-03-28T09:52:13.212Z</time></trkpt><trkpt lat="43.4881399" lon="11.3997061"><ele>500.5</ele><time>2026-03-28T09:52:14.213Z</time></trkpt><trkpt lat="43.4879945" lon="11.3997409"><ele>500.75</ele><time>2026-03-28T09:52:15.212Z</time></trkpt><trkpt lat="43.4878665" lon="11.3997516"><ele>501.0</ele><time>2026-03-28T09:52:16.212Z</time></trkpt><trkpt lat="43.4877548" lon="11.3997455"><ele>501.0</ele><time>2026-03-28T09:52:17.212Z</time></trkpt><trkpt lat="43.4876735" lon="11.3997333"><ele>501.0</ele><time>2026-03-28T09:52:18.212Z</time></trkpt><trkpt lat="43.4875648" lon="11.3997145"><ele>501.0</ele><time>2026-03-28T09:52:20.213Z</time></trkpt><trkpt lat="43.4874854" lon="11.3996976"><ele>501.0</ele><time>2026-03-28T09:52:22.213Z</time></trkpt><trkpt lat="43.4874023" lon="11.3996262"><ele>501.0</ele><time>2026-03-28T09:52:24.212Z</time></trkpt><trkpt lat="43.4873625" lon="11.3995519"><ele>501.0</ele><time>2026-03-28T09:52:25.212Z</time></trkpt><trkpt lat="43.4873221" lon="11.3994603"><ele>501.0</ele><time>2026-03-28T09:52:26.212Z</time></trkpt><trkpt lat="43.4872722" lon="11.3993676"><ele>501.0</ele><time>2026-03-28T09:52:27.212Z</time></trkpt><trkpt lat="43.4872146" lon="11.3992765"><ele>501.0</ele><time>2026-03-28T09:52:28.213Z</time></trkpt><trkpt lat="43.4871529" lon="11.3991887"><ele>501.0</ele><time>2026-03-28T09:52:29.212Z</time></trkpt><trkpt lat="43.4870967" lon="11.3990988"><ele>501.0</ele><time>2026-03-28T09:52:30.212Z</time></trkpt><trkpt lat="43.4870562" lon="11.3989987"><ele>501.0</ele><time>2026-03-28T09:52:31.212Z</time></trkpt><trkpt lat="43.487021" lon="11.3989012"><ele>501.8333333333333</ele><time>2026-03-28T09:52:32.212Z</time></trkpt><trkpt lat="43.4869953" lon="11.3988013"><ele>502.66666666666663</ele><time>2026-03-28T09:52:33.212Z</time></trkpt><trkpt lat="43.4869842" lon="11.3986974"><ele>503.5</ele><time>2026-03-28T09:52:34.212Z</time></trkpt><trkpt lat="43.4869793" lon="11.39859"><ele>504.3333333333333</ele><time>2026-03-28T09:52:35.211Z</time></trkpt><trkpt lat="43.4869717" lon="11.398463"><ele>505.16666666666663</ele><time>2026-03-28T09:52:36.212Z</time></trkpt><trkpt lat="43.4869589" lon="11.3983257"><ele>506.0</ele><time>2026-03-28T09:52:37.213Z</time></trkpt><trkpt lat="43.4869439" lon="11.3981865"><ele>506.0</ele><time>2026-03-28T09:52:38.213Z</time></trkpt><trkpt lat="43.4869265" lon="11.3980297"><ele>506.0</ele><time>2026-03-28T09:52:39.213Z</time></trkpt><trkpt lat="43.4869098" lon="11.3978715"><ele>506.0</ele><time>2026-03-28T09:52:40.212Z</time></trkpt><trkpt lat="43.4868934" lon="11.3977155"><ele>506.0</ele><time>2026-03-28T09:52:41.213Z</time></trkpt><trkpt lat="43.486876" lon="11.397556"><ele>506.20000000000005</ele><time>2026-03-28T09:52:42.212Z</time></trkpt><trkpt lat="43.486868" lon="11.3974139"><ele>506.40000000000003</ele><time>2026-03-28T09:52:43.213Z</time></trkpt><trkpt lat="43.4868482" lon="11.397274"><ele>506.6</ele><time>2026-03-28T09:52:44.212Z</time></trkpt><trkpt lat="43.4868103" lon="11.3971229"><ele>506.8</ele><time>2026-03-28T09:52:45.211Z</time></trkpt><trkpt lat="43.4867602" lon="11.3969732"><ele>507.0</ele><time>2026-03-28T09:52:46.212Z</time></trkpt><trkpt lat="43.4867025" lon="11.3968261"><ele>507.5</ele><time>2026-03-28T09:52:47.211Z</time></trkpt><trkpt lat="43.4866454" lon="11.3966843"><ele>508.0</ele><time>2026-03-28T09:52:48.213Z</time></trkpt><trkpt lat="43.4865864" lon="11.3965478"><ele>508.5</ele><time>2026-03-28T09:52:49.213Z</time></trkpt><trkpt lat="43.4865256" lon="11.3964168"><ele>509.0</ele><time>2026-03-28T09:52:50.212Z</time></trkpt><trkpt lat="43.4864652" lon="11.3962891"><ele>509.0</ele><time>2026-03-28T09:52:51.212Z</time></trkpt><trkpt lat="43.4863953" lon="11.3961574"><ele>509.0</ele><time>2026-03-28T09:52:52.213Z</time></trkpt><trkpt lat="43.4863239" lon="11.3960358"><ele>509.0</ele><time>2026-03-28T09:52:53.212Z</time></trkpt><trkpt lat="43.4862469" lon="11.3959211"><ele>509.0</ele><time>2026-03-28T09:52:54.213Z</time></trkpt><trkpt lat="43.4861609" lon="11.3958139"><ele>509.0</ele><time>2026-03-28T09:52:55.212Z</time></trkpt><trkpt lat="43.4860687" lon="11.3957144"><ele>509.0</ele><time>2026-03-28T09:52:56.212Z</time></trkpt><trkpt lat="43.4859741" lon="11.3956104"><ele>509.0</ele><time>2026-03-28T09:52:57.212Z</time></trkpt><trkpt lat="43.4858814" lon="11.3955007"><ele>509.0</ele><time>2026-03-28T09:52:58.212Z</time></trkpt><trkpt lat="43.4858064" lon="11.39539"><ele>508.5</ele><time>2026-03-28T09:52:59.212Z</time></trkpt><trkpt lat="43.4857401" lon="11.3952643"><ele>508.0</ele><time>2026-03-28T09:53:00.213Z</time></trkpt><trkpt lat="43.4856751" lon="11.3951363"><ele>507.5</ele><time>2026-03-28T09:53:01.212Z</time></trkpt><trkpt lat="43.4856138" lon="11.3950034"><ele>507.0</ele><time>2026-03-28T09:53:02.212Z</time></trkpt><trkpt lat="43.4855565" lon="11.3948698"><ele>507.0</ele><time>2026-03-28T09:53:03.212Z</time></trkpt><trkpt lat="43.4855019" lon="11.3947317"><ele>507.00000000000006</ele><time>2026-03-28T09:53:04.211Z</time></trkpt><trkpt lat="43.4854571" lon="11.3945988"><ele>507.00000000000006</ele><time>2026-03-28T09:53:05.212Z</time></trkpt><trkpt lat="43.4854269" lon="11.3944606"><ele>507.0</ele><time>2026-03-28T09:53:06.212Z</time></trkpt><trkpt lat="43.4854054" lon="11.3943138"><ele>507.0</ele><time>2026-03-28T09:53:07.212Z</time></trkpt><trkpt lat="43.4853953" lon="11.3941567"><ele>508.0</ele><time>2026-03-28T09:53:08.212Z</time></trkpt><trkpt lat="43.4853784" lon="11.3939967"><ele>509.00000000000006</ele><time>2026-03-28T09:53:09.213Z</time></trkpt><trkpt lat="43.4853598" lon="11.3938437"><ele>510.00000000000006</ele><time>2026-03-28T09:53:10.212Z</time></trkpt><trkpt lat="43.4853284" lon="11.3937161"><ele>511.0</ele><time>2026-03-28T09:53:11.213Z</time></trkpt><trkpt lat="43.4852836" lon="11.3935945"><ele>512.0</ele><time>2026-03-28T09:53:12.213Z</time></trkpt><trkpt lat="43.4852324" lon="11.3935024"><ele>512.3333333333333</ele><time>2026-03-28T09:53:13.212Z</time></trkpt><trkpt lat="43.4851642" lon="11.3934139"><ele>512.6666666666666</ele><time>2026-03-28T09:53:14.211Z</time></trkpt><trkpt lat="43.4850951" lon="11.3933535"><ele>513.0</ele><time>2026-03-28T09:53:15.212Z</time></trkpt><trkpt lat="43.485019" lon="11.3933162"><ele>513.3333333333334</ele><time>2026-03-28T09:53:16.212Z</time></trkpt><trkpt lat="43.4849325" lon="11.3932891"><ele>513.6666666666667</ele><time>2026-03-28T09:53:17.212Z</time></trkpt><trkpt lat="43.4848335" lon="11.3932676"><ele>514.0</ele><time>2026-03-28T09:53:18.213Z</time></trkpt><trkpt lat="43.484727" lon="11.3932393"><ele>514.0</ele><time>2026-03-28T09:53:19.212Z</time></trkpt><trkpt lat="43.4846182" lon="11.3932019"><ele>514.0</ele><time>2026-03-28T09:53:20.213Z</time></trkpt><trkpt lat="43.4845246" lon="11.3931625"><ele>514.0</ele><time>2026-03-28T09:53:21.213Z</time></trkpt><trkpt lat="43.4844398" lon="11.3931145"><ele>514.0</ele><time>2026-03-28T09:53:22.213Z</time></trkpt><trkpt lat="43.4843654" lon="11.3930474"><ele>514.0</ele><time>2026-03-28T09:53:23.212Z</time></trkpt><trkpt lat="43.484303" lon="11.3929608"><ele>513.2</ele><time>2026-03-28T09:53:24.212Z</time></trkpt><trkpt lat="43.4842447" lon="11.3928627"><ele>512.4</ele><time>2026-03-28T09:53:25.213Z</time></trkpt><trkpt lat="43.4841863" lon="11.3927677"><ele>511.6</ele><time>2026-03-28T09:53:26.212Z</time></trkpt><trkpt lat="43.4841241" lon="11.3926713"><ele>510.8</ele><time>2026-03-28T09:53:27.212Z</time></trkpt><trkpt lat="43.4840639" lon="11.3925738"><ele>510.0</ele><time>2026-03-28T09:53:28.212Z</time></trkpt><trkpt lat="43.484012" lon="11.3924694"><ele>510.0</ele><time>2026-03-28T09:53:29.213Z</time></trkpt><trkpt lat="43.483959" lon="11.3923601"><ele>510.0</ele><time>2026-03-28T09:53:30.213Z</time></trkpt><trkpt lat="43.4839278" lon="11.3922582"><ele>510.0</ele><time>2026-03-28T09:53:31.213Z</time></trkpt><trkpt lat="43.4839027" lon="11.3921651"><ele>510.0</ele><time>2026-03-28T09:53:32.212Z</time></trkpt><trkpt lat="43.4838882" lon="11.3920681"><ele>510.0</ele><time>2026-03-28T09:53:33.213Z</time></trkpt><trkpt lat="43.4838538" lon="11.3919206"><ele>510.0</ele><time>2026-03-28T09:53:35.212Z</time></trkpt><trkpt lat="43.4837654" lon="11.3918235"><ele>509.14285714285717</ele><time>2026-03-28T09:53:37.212Z</time></trkpt><trkpt lat="43.4837057" lon="11.3917725"><ele>508.28571428571433</ele><time>2026-03-28T09:53:38.213Z</time></trkpt><trkpt lat="43.4836461" lon="11.3917227"><ele>507.42857142857144</ele><time>2026-03-28T09:53:39.213Z</time></trkpt><trkpt lat="43.4835855" lon="11.3916682"><ele>506.57142857142856</ele><time>2026-03-28T09:53:40.212Z</time></trkpt><trkpt lat="43.4835178" lon="11.39161"><ele>505.7142857142857</ele><time>2026-03-28T09:53:41.212Z</time></trkpt><trkpt lat="43.4834502" lon="11.3915516"><ele>504.8571428571429</ele><time>2026-03-28T09:53:42.213Z</time></trkpt><trkpt lat="43.4833856" lon="11.3914981"><ele>504.0</ele><time>2026-03-28T09:53:43.213Z</time></trkpt><trkpt lat="43.4833232" lon="11.391444"><ele>504.0</ele><time>2026-03-28T09:53:44.212Z</time></trkpt><trkpt lat="43.4832534" lon="11.3913972"><ele>504.0</ele><time>2026-03-28T09:53:45.213Z</time></trkpt><trkpt lat="43.4831838" lon="11.3913483"><ele>504.0</ele><time>2026-03-28T09:53:46.213Z</time></trkpt><trkpt lat="43.4831174" lon="11.3912922"><ele>504.0</ele><time>2026-03-28T09:53:47.212Z</time></trkpt><trkpt lat="43.4830454" lon="11.3912373"><ele>504.0</ele><time>2026-03-28T09:53:48.213Z</time></trkpt><trkpt lat="43.4829807" lon="11.3911812"><ele>504.0</ele><time>2026-03-28T09:53:49.212Z</time></trkpt><trkpt lat="43.4829178" lon="11.3911245"><ele>504.1666666666667</ele><time>2026-03-28T09:53:50.212Z</time></trkpt><trkpt lat="43.4828485" lon="11.3910646"><ele>504.33333333333337</ele><time>2026-03-28T09:53:51.213Z</time></trkpt><trkpt lat="43.4827761" lon="11.390998"><ele>504.5</ele><time>2026-03-28T09:53:52.213Z</time></trkpt><trkpt lat="43.4826999" lon="11.3909284"><ele>504.6666666666667</ele><time>2026-03-28T09:53:53.212Z</time></trkpt><trkpt lat="43.482625" lon="11.3908561"><ele>504.83333333333337</ele><time>2026-03-28T09:53:54.213Z</time></trkpt><trkpt lat="43.4825629" lon="11.3907808"><ele>505.0</ele><time>2026-03-28T09:53:55.212Z</time></trkpt><trkpt lat="43.4825086" lon="11.3906981"><ele>505.00000000000006</ele><time>2026-03-28T09:53:56.213Z</time></trkpt><trkpt lat="43.4824573" lon="11.390614"><ele>505.0</ele><time>2026-03-28T09:53:57.213Z</time></trkpt><trkpt lat="43.482412" lon="11.3905313"><ele>505.0</ele><time>2026-03-28T09:53:58.212Z</time></trkpt><trkpt lat="43.4823675" lon="11.3904494"><ele>505.0</ele><time>2026-03-28T09:53:59.212Z</time></trkpt><trkpt lat="43.4823252" lon="11.3903646"><ele>505.00000000000006</ele><time>2026-03-28T09:54:00.213Z</time></trkpt><trkpt lat="43.482287" lon="11.3902738"><ele>505.0</ele><time>2026-03-28T09:54:01.213Z</time></trkpt><trkpt lat="43.4822481" lon="11.3901811"><ele>504.83333333333337</ele><time>2026-03-28T09:54:02.213Z</time></trkpt><trkpt lat="43.4821563" lon="11.39006"><ele>504.6666666666667</ele><time>2026-03-28T09:54:04.212Z</time></trkpt><trkpt lat="43.4821097" lon="11.3899995"><ele>504.5</ele><time>2026-03-28T09:54:05.213Z</time></trkpt><trkpt lat="43.482051" lon="11.3899325"><ele>504.33333333333337</ele><time>2026-03-28T09:54:06.212Z</time></trkpt><trkpt lat="43.4819863" lon="11.3898683"><ele>504.1666666666667</ele><time>2026-03-28T09:54:07.212Z</time></trkpt><trkpt lat="43.4819207" lon="11.3897977"><ele>504.0</ele><time>2026-03-28T09:54:08.213Z</time></trkpt><trkpt lat="43.4818514" lon="11.3897134"><ele>503.6666666666667</ele><time>2026-03-28T09:54:09.213Z</time></trkpt><trkpt lat="43.4817793" lon="11.38963"><ele>503.33333333333337</ele><time>2026-03-28T09:54:10.213Z</time></trkpt><trkpt lat="43.4817129" lon="11.3895525"><ele>503.0</ele><time>2026-03-28T09:54:11.213Z</time></trkpt><trkpt lat="43.4816492" lon="11.389474"><ele>502.6666666666667</ele><time>2026-03-28T09:54:12.212Z</time></trkpt><trkpt lat="43.4815928" lon="11.3894009"><ele>502.33333333333337</ele><time>2026-03-28T09:54:13.212Z</time></trkpt><trkpt lat="43.4815326" lon="11.3893306"><ele>502.0</ele><time>2026-03-28T09:54:14.213Z</time></trkpt><trkpt lat="43.4814689" lon="11.3892723"><ele>501.99999999999994</ele><time>2026-03-28T09:54:15.212Z</time></trkpt><trkpt lat="43.4814097" lon="11.3891992"><ele>502.0</ele><time>2026-03-28T09:54:16.213Z</time></trkpt><trkpt lat="43.481362" lon="11.3891271"><ele>501.99999999999994</ele><time>2026-03-28T09:54:17.213Z</time></trkpt><trkpt lat="43.4812973" lon="11.3890658"><ele>501.99999999999994</ele><time>2026-03-28T09:54:18.213Z</time></trkpt><trkpt lat="43.4812297" lon="11.3890306"><ele>502.0</ele><time>2026-03-28T09:54:19.212Z</time></trkpt><trkpt lat="43.4811594" lon="11.3890193"><ele>501.99999999999994</ele><time>2026-03-28T09:54:20.213Z</time></trkpt><trkpt lat="43.4810903" lon="11.3890152"><ele>501.99999999999994</ele><time>2026-03-28T09:54:21.213Z</time></trkpt><trkpt lat="43.4810186" lon="11.3890003"><ele>502.33333333333337</ele><time>2026-03-28T09:54:22.213Z</time></trkpt><trkpt lat="43.4809634" lon="11.3889578"><ele>502.6666666666667</ele><time>2026-03-28T09:54:23.213Z</time></trkpt><trkpt lat="43.4809077" lon="11.388901"><ele>503.0</ele><time>2026-03-28T09:54:24.212Z</time></trkpt><trkpt lat="43.4808024" lon="11.3887985"><ele>503.33333333333337</ele><time>2026-03-28T09:54:26.212Z</time></trkpt><trkpt lat="43.4807507" lon="11.3887191"><ele>503.6666666666667</ele><time>2026-03-28T09:54:27.213Z</time></trkpt><trkpt lat="43.4807006" lon="11.3886274"><ele>504.0</ele><time>2026-03-28T09:54:28.212Z</time></trkpt><trkpt lat="43.4806483" lon="11.3885279"><ele>504.0</ele><time>2026-03-28T09:54:29.213Z</time></trkpt><trkpt lat="43.4805956" lon="11.3884328"><ele>504.0</ele><time>2026-03-28T09:54:30.212Z</time></trkpt><trkpt lat="43.4805393" lon="11.3883388"><ele>504.0</ele><time>2026-03-28T09:54:31.213Z</time></trkpt><trkpt lat="43.4804881" lon="11.3882505"><ele>504.0</ele><time>2026-03-28T09:54:32.212Z</time></trkpt><trkpt lat="43.4804381" lon="11.3881661"><ele>504.0</ele><time>2026-03-28T09:54:33.212Z</time></trkpt><trkpt lat="43.4803945" lon="11.3880752"><ele>504.0</ele><time>2026-03-28T09:54:34.212Z</time></trkpt><trkpt lat="43.480365" lon="11.387985"><ele>506.1666666666667</ele><time>2026-03-28T09:54:35.212Z</time></trkpt><trkpt lat="43.4803608" lon="11.3878097"><ele>508.33333333333337</ele><time>2026-03-28T09:54:37.212Z</time></trkpt><trkpt lat="43.4803772" lon="11.387715"><ele>510.5</ele><time>2026-03-28T09:54:38.212Z</time></trkpt><trkpt lat="43.4803969" lon="11.3876182"><ele>512.6666666666667</ele><time>2026-03-28T09:54:39.213Z</time></trkpt><trkpt lat="43.4804075" lon="11.3875156"><ele>514.8333333333334</ele><time>2026-03-28T09:54:40.212Z</time></trkpt><trkpt lat="43.480415" lon="11.3874132"><ele>517.0</ele><time>2026-03-28T09:54:41.212Z</time></trkpt><trkpt lat="43.4804016" lon="11.3873145"><ele>517.0</ele><time>2026-03-28T09:54:42.212Z</time></trkpt><trkpt lat="43.4803867" lon="11.3872141"><ele>517.0</ele><time>2026-03-28T09:54:43.212Z</time></trkpt><trkpt lat="43.4803711" lon="11.3871209"><ele>517.0</ele><time>2026-03-28T09:54:44.212Z</time></trkpt><trkpt lat="43.4803489" lon="11.38703"><ele>517.0</ele><time>2026-03-28T09:54:45.213Z</time></trkpt><trkpt lat="43.4802822" lon="11.3868864"><ele>517.0</ele><time>2026-03-28T09:54:47.212Z</time></trkpt><trkpt lat="43.4801819" lon="11.3867792"><ele>516.8333333333334</ele><time>2026-03-28T09:54:49.212Z</time></trkpt><trkpt lat="43.4800971" lon="11.3866833"><ele>516.6666666666667</ele><time>2026-03-28T09:54:51.211Z</time></trkpt><trkpt lat="43.4800298" lon="11.3866557"><ele>516.5</ele><time>2026-03-28T09:54:52.212Z</time></trkpt><trkpt lat="43.4799719" lon="11.3865953"><ele>516.3333333333334</ele><time>2026-03-28T09:54:53.213Z</time></trkpt><trkpt lat="43.4799123" lon="11.386524"><ele>516.1666666666666</ele><time>2026-03-28T09:54:54.212Z</time></trkpt><trkpt lat="43.4798596" lon="11.3864591"><ele>516.0</ele><time>2026-03-28T09:54:55.212Z</time></trkpt><trkpt lat="43.4798036" lon="11.3863938"><ele>515.6</ele><time>2026-03-28T09:54:56.213Z</time></trkpt><trkpt lat="43.4797406" lon="11.3863349"><ele>515.2</ele><time>2026-03-28T09:54:57.213Z</time></trkpt><trkpt lat="43.4796838" lon="11.3862807"><ele>514.8</ele><time>2026-03-28T09:54:58.213Z</time></trkpt><trkpt lat="43.4795821" lon="11.3861795"><ele>514.4</ele><time>2026-03-28T09:55:00.213Z</time></trkpt><trkpt lat="43.479529" lon="11.3861278"><ele>514.0</ele><time>2026-03-28T09:55:01.212Z</time></trkpt><trkpt lat="43.4794532" lon="11.3859985"><ele>514.0</ele><time>2026-03-28T09:55:03.212Z</time></trkpt><trkpt lat="43.4794169" lon="11.3859207"><ele>514.0</ele><time>2026-03-28T09:55:04.213Z</time></trkpt><trkpt lat="43.4793764" lon="11.3858186"><ele>514.0</ele><time>2026-03-28T09:55:05.213Z</time></trkpt><trkpt lat="43.4793444" lon="11.3857095"><ele>514.0</ele><time>2026-03-28T09:55:06.212Z</time></trkpt><trkpt lat="43.4793203" lon="11.3856046"><ele>514.0</ele><time>2026-03-28T09:55:07.212Z</time></trkpt><trkpt lat="43.4792967" lon="11.3855053"><ele>514.0</ele><time>2026-03-28T09:55:08.212Z</time></trkpt><trkpt lat="43.4792673" lon="11.3854065"><ele>513.6</ele><time>2026-03-28T09:55:09.213Z</time></trkpt><trkpt lat="43.479238" lon="11.3853296"><ele>513.2</ele><time>2026-03-28T09:55:10.212Z</time></trkpt><trkpt lat="43.4791964" lon="11.385261"><ele>512.8000000000001</ele><time>2026-03-28T09:55:11.213Z</time></trkpt><trkpt lat="43.4791003" lon="11.3851962"><ele>512.4</ele><time>2026-03-28T09:55:13.212Z</time></trkpt><trkpt lat="43.4789897" lon="11.3851954"><ele>512.0</ele><time>2026-03-28T09:55:15.212Z</time></trkpt><trkpt lat="43.4788562" lon="11.3851978"><ele>512.0</ele><time>2026-03-28T09:55:17.213Z</time></trkpt><trkpt lat="43.4787827" lon="11.3852113"><ele>511.99999999999994</ele><time>2026-03-28T09:55:18.213Z</time></trkpt><trkpt lat="43.478718" lon="11.3852444"><ele>512.0</ele><time>2026-03-28T09:55:19.212Z</time></trkpt><trkpt lat="43.4786539" lon="11.3852683"><ele>512.0</ele><time>2026-03-28T09:55:20.213Z</time></trkpt><trkpt lat="43.4785842" lon="11.3852763"><ele>511.99999999999994</ele><time>2026-03-28T09:55:21.212Z</time></trkpt><trkpt lat="43.4785034" lon="11.3852794"><ele>512.0</ele><time>2026-03-28T09:55:22.213Z</time></trkpt><trkpt lat="43.4784223" lon="11.3852877"><ele>512.0</ele><time>2026-03-28T09:55:23.21Z</time></trkpt><trkpt lat="43.4783359" lon="11.3852909"><ele>514.0</ele><time>2026-03-28T09:55:24.211Z</time></trkpt><trkpt lat="43.4782447" lon="11.3852841"><ele>516.0</ele><time>2026-03-28T09:55:25.211Z</time></trkpt><trkpt lat="43.4781515" lon="11.3852623"><ele>518.0</ele><time>2026-03-28T09:55:26.211Z</time></trkpt><trkpt lat="43.4780603" lon="11.3852274"><ele>520.0</ele><time>2026-03-28T09:55:27.212Z</time></trkpt><trkpt lat="43.4779816" lon="11.3851854"><ele>522.0</ele><time>2026-03-28T09:55:28.211Z</time></trkpt><trkpt lat="43.4779011" lon="11.3851354"><ele>522.1666666666666</ele><time>2026-03-28T09:55:29.212Z</time></trkpt><trkpt lat="43.477819" lon="11.3850953"><ele>522.3333333333334</ele><time>2026-03-28T09:55:30.212Z</time></trkpt><trkpt lat="43.477739" lon="11.3850574"><ele>522.5</ele><time>2026-03-28T09:55:31.212Z</time></trkpt><trkpt lat="43.4776645" lon="11.3850125"><ele>522.6666666666667</ele><time>2026-03-28T09:55:32.211Z</time></trkpt><trkpt lat="43.4775921" lon="11.3849742"><ele>522.8333333333334</ele><time>2026-03-28T09:55:33.211Z</time></trkpt><trkpt lat="43.4775193" lon="11.3849466"><ele>523.0</ele><time>2026-03-28T09:55:34.212Z</time></trkpt><trkpt lat="43.4774437" lon="11.384935"><ele>523.0</ele><time>2026-03-28T09:55:35.21Z</time></trkpt><trkpt lat="43.4773627" lon="11.3849365"><ele>523.0</ele><time>2026-03-28T09:55:36.211Z</time></trkpt><trkpt lat="43.477281" lon="11.3849477"><ele>523.0</ele><time>2026-03-28T09:55:37.211Z</time></trkpt><trkpt lat="43.4771985" lon="11.3849546"><ele>523.0</ele><time>2026-03-28T09:55:38.212Z</time></trkpt><trkpt lat="43.4771141" lon="11.384959"><ele>523.0</ele><time>2026-03-28T09:55:39.211Z</time></trkpt><trkpt lat="43.4770263" lon="11.3849587"><ele>523.0</ele><time>2026-03-28T09:55:40.211Z</time></trkpt><trkpt lat="43.4769391" lon="11.3849598"><ele>522.1999999999999</ele><time>2026-03-28T09:55:41.211Z</time></trkpt><trkpt lat="43.4768495" lon="11.3849595"><ele>521.4</ele><time>2026-03-28T09:55:42.211Z</time></trkpt><trkpt lat="43.476757" lon="11.3849563"><ele>520.5999999999999</ele><time>2026-03-28T09:55:43.211Z</time></trkpt><trkpt lat="43.476658" lon="11.3849522"><ele>519.8</ele><time>2026-03-28T09:55:44.211Z</time></trkpt><trkpt lat="43.4765557" lon="11.3849452"><ele>519.0</ele><time>2026-03-28T09:55:45.211Z</time></trkpt><trkpt lat="43.4764597" lon="11.3849402"><ele>519.0</ele><time>2026-03-28T09:55:46.211Z</time></trkpt><trkpt lat="43.4763636" lon="11.384932"><ele>519.0</ele><time>2026-03-28T09:55:47.212Z</time></trkpt><trkpt lat="43.4762606" lon="11.384923"><ele>519.0</ele><time>2026-03-28T09:55:48.211Z</time></trkpt><trkpt lat="43.4761629" lon="11.3849121"><ele>519.0</ele><time>2026-03-28T09:55:49.211Z</time></trkpt><trkpt lat="43.476072" lon="11.3848932"><ele>519.0</ele><time>2026-03-28T09:55:50.212Z</time></trkpt><trkpt lat="43.4759736" lon="11.3848622"><ele>518.4</ele><time>2026-03-28T09:55:51.212Z</time></trkpt><trkpt lat="43.4758881" lon="11.3848201"><ele>517.8</ele><time>2026-03-28T09:55:52.211Z</time></trkpt><trkpt lat="43.4758014" lon="11.3847717"><ele>517.2</ele><time>2026-03-28T09:55:53.211Z</time></trkpt><trkpt lat="43.4757205" lon="11.3847205"><ele>516.6</ele><time>2026-03-28T09:55:54.211Z</time></trkpt><trkpt lat="43.4756291" lon="11.3846605"><ele>516.0</ele><time>2026-03-28T09:55:55.212Z</time></trkpt><trkpt lat="43.4755436" lon="11.3845954"><ele>515.4</ele><time>2026-03-28T09:55:56.212Z</time></trkpt><trkpt lat="43.4754613" lon="11.3845218"><ele>514.8</ele><time>2026-03-28T09:55:57.211Z</time></trkpt><trkpt lat="43.4753774" lon="11.384444"><ele>514.1999999999999</ele><time>2026-03-28T09:55:58.211Z</time></trkpt><trkpt lat="43.4752995" lon="11.3843587"><ele>513.6</ele><time>2026-03-28T09:55:59.211Z</time></trkpt><trkpt lat="43.4752332" lon="11.3842733"><ele>513.0</ele><time>2026-03-28T09:56:00.211Z</time></trkpt><trkpt lat="43.4751754" lon="11.3841856"><ele>513.0000000000001</ele><time>2026-03-28T09:56:01.212Z</time></trkpt><trkpt lat="43.4751237" lon="11.3840999"><ele>513.0</ele><time>2026-03-28T09:56:02.211Z</time></trkpt><trkpt lat="43.4750807" lon="11.3840223"><ele>513.0</ele><time>2026-03-28T09:56:03.212Z</time></trkpt><trkpt lat="43.4750387" lon="11.3839427"><ele>513.0</ele><time>2026-03-28T09:56:04.211Z</time></trkpt><trkpt lat="43.4749966" lon="11.383866"><ele>513.0</ele><time>2026-03-28T09:56:05.211Z</time></trkpt><trkpt lat="43.4749554" lon="11.3837846"><ele>513.0000000000001</ele><time>2026-03-28T09:56:06.211Z</time></trkpt><trkpt lat="43.4749156" lon="11.383712"><ele>513.0</ele><time>2026-03-28T09:56:07.211Z</time></trkpt><trkpt lat="43.474824" lon="11.3835989"><ele>510.5</ele><time>2026-03-28T09:56:09.211Z</time></trkpt><trkpt lat="43.4747636" lon="11.3835509"><ele>508.0</ele><time>2026-03-28T09:56:10.212Z</time></trkpt><trkpt lat="43.4746921" lon="11.3835033"><ele>505.5</ele><time>2026-03-28T09:56:11.212Z</time></trkpt><trkpt lat="43.4746141" lon="11.383462"><ele>503.0</ele><time>2026-03-28T09:56:12.211Z</time></trkpt><trkpt lat="43.4745341" lon="11.3834321"><ele>500.5</ele><time>2026-03-28T09:56:13.211Z</time></trkpt><trkpt lat="43.4744459" lon="11.3834008"><ele>498.0</ele><time>2026-03-28T09:56:14.211Z</time></trkpt><trkpt lat="43.4743683" lon="11.3833736"><ele>498.0</ele><time>2026-03-28T09:56:15.211Z</time></trkpt><trkpt lat="43.4742871" lon="11.3833513"><ele>498.0</ele><time>2026-03-28T09:56:16.212Z</time></trkpt><trkpt lat="43.4741988" lon="11.3833338"><ele>498.0</ele><time>2026-03-28T09:56:17.21Z</time></trkpt><trkpt lat="43.474111" lon="11.3833325"><ele>498.0</ele><time>2026-03-28T09:56:18.211Z</time></trkpt><trkpt lat="43.4740209" lon="11.3833472"><ele>498.0</ele><time>2026-03-28T09:56:19.21Z</time></trkpt><trkpt lat="43.4739294" lon="11.3833745"><ele>498.0</ele><time>2026-03-28T09:56:20.211Z</time></trkpt><trkpt lat="43.47384" lon="11.3834166"><ele>497.3333333333333</ele><time>2026-03-28T09:56:21.211Z</time></trkpt><trkpt lat="43.473757" lon="11.3834663"><ele>496.66666666666663</ele><time>2026-03-28T09:56:22.211Z</time></trkpt><trkpt lat="43.473683" lon="11.383506"><ele>496.0</ele><time>2026-03-28T09:56:23.211Z</time></trkpt><trkpt lat="43.4736117" lon="11.3835245"><ele>495.3333333333333</ele><time>2026-03-28T09:56:24.212Z</time></trkpt><trkpt lat="43.4735458" lon="11.3835118"><ele>494.66666666666663</ele><time>2026-03-28T09:56:25.212Z</time></trkpt><trkpt lat="43.4734739" lon="11.3834743"><ele>494.0</ele><time>2026-03-28T09:56:26.212Z</time></trkpt><trkpt lat="43.4733972" lon="11.3834201"><ele>494.0</ele><time>2026-03-28T09:56:27.21Z</time></trkpt><trkpt lat="43.4733183" lon="11.3833562"><ele>494.0</ele><time>2026-03-28T09:56:28.212Z</time></trkpt><trkpt lat="43.4732462" lon="11.3832842"><ele>494.0</ele><time>2026-03-28T09:56:29.212Z</time></trkpt><trkpt lat="43.4731698" lon="11.383197"><ele>494.0</ele><time>2026-03-28T09:56:30.212Z</time></trkpt><trkpt lat="43.4731024" lon="11.3831092"><ele>494.0</ele><time>2026-03-28T09:56:31.211Z</time></trkpt><trkpt lat="43.4730299" lon="11.3830123"><ele>492.4</ele><time>2026-03-28T09:56:32.211Z</time></trkpt><trkpt lat="43.4729588" lon="11.3829162"><ele>490.79999999999995</ele><time>2026-03-28T09:56:33.211Z</time></trkpt><trkpt lat="43.4728881" lon="11.3828147"><ele>489.20000000000005</ele><time>2026-03-28T09:56:34.21Z</time></trkpt><trkpt lat="43.4728184" lon="11.3827106"><ele>487.6</ele><time>2026-03-28T09:56:35.211Z</time></trkpt><trkpt lat="43.4727533" lon="11.382606"><ele>486.0</ele><time>2026-03-28T09:56:36.212Z</time></trkpt><trkpt lat="43.4726848" lon="11.3825052"><ele>486.0</ele><time>2026-03-28T09:56:37.212Z</time></trkpt><trkpt lat="43.4726129" lon="11.3824014"><ele>486.0</ele><time>2026-03-28T09:56:38.21Z</time></trkpt><trkpt lat="43.4725445" lon="11.3822886"><ele>486.0</ele><time>2026-03-28T09:56:39.212Z</time></trkpt><trkpt lat="43.4724821" lon="11.3821753"><ele>486.0</ele><time>2026-03-28T09:56:40.212Z</time></trkpt><trkpt lat="43.472417" lon="11.3820572"><ele>486.0</ele><time>2026-03-28T09:56:41.211Z</time></trkpt><trkpt lat="43.4723528" lon="11.3819359"><ele>484.6</ele><time>2026-03-28T09:56:42.211Z</time></trkpt><trkpt lat="43.472285" lon="11.3818105"><ele>483.20000000000005</ele><time>2026-03-28T09:56:43.211Z</time></trkpt><trkpt lat="43.4722147" lon="11.3816815"><ele>481.79999999999995</ele><time>2026-03-28T09:56:44.212Z</time></trkpt><trkpt lat="43.4721526" lon="11.3815635"><ele>480.4</ele><time>2026-03-28T09:56:45.211Z</time></trkpt><trkpt lat="43.4721014" lon="11.381458"><ele>479.0</ele><time>2026-03-28T09:56:46.211Z</time></trkpt><trkpt lat="43.4720683" lon="11.3813773"><ele>478.8333333333333</ele><time>2026-03-28T09:56:47.21Z</time></trkpt><trkpt lat="43.4720474" lon="11.3812735"><ele>478.66666666666663</ele><time>2026-03-28T09:56:49.211Z</time></trkpt><trkpt lat="43.4720426" lon="11.3811683"><ele>478.5</ele><time>2026-03-28T09:57:24.211Z</time></trkpt><trkpt lat="43.4720468" lon="11.3810411"><ele>478.33333333333337</ele><time>2026-03-28T09:57:26.212Z</time></trkpt><trkpt lat="43.4720514" lon="11.3808841"><ele>478.1666666666667</ele><time>2026-03-28T09:57:28.21Z</time></trkpt><trkpt lat="43.4720484" lon="11.380791"><ele>478.0</ele><time>2026-03-28T09:57:29.211Z</time></trkpt><trkpt lat="43.4720435" lon="11.3807029"><ele>478.0</ele><time>2026-03-28T09:57:30.211Z</time></trkpt><trkpt lat="43.4720321" lon="11.3805254"><ele>477.99999999999994</ele><time>2026-03-28T09:57:32.21Z</time></trkpt><trkpt lat="43.4720218" lon="11.3804292"><ele>477.99999999999994</ele><time>2026-03-28T09:57:33.211Z</time></trkpt><trkpt lat="43.4720009" lon="11.3803227"><ele>478.0</ele><time>2026-03-28T09:57:34.211Z</time></trkpt><trkpt lat="43.4719687" lon="11.3802105"><ele>478.0</ele><time>2026-03-28T09:57:35.212Z</time></trkpt><trkpt lat="43.4719373" lon="11.3801023"><ele>477.50000000000006</ele><time>2026-03-28T09:57:36.212Z</time></trkpt><trkpt lat="43.471902" lon="11.379995"><ele>477.0</ele><time>2026-03-28T09:57:37.211Z</time></trkpt><trkpt lat="43.4718687" lon="11.3798928"><ele>476.5</ele><time>2026-03-28T09:57:38.212Z</time></trkpt><trkpt lat="43.4718362" lon="11.3797849"><ele>476.0</ele><time>2026-03-28T09:57:39.211Z</time></trkpt><trkpt lat="43.4718076" lon="11.3796802"><ele>475.50000000000006</ele><time>2026-03-28T09:57:40.211Z</time></trkpt><trkpt lat="43.4717819" lon="11.3795954"><ele>475.0</ele><time>2026-03-28T09:57:41.211Z</time></trkpt><trkpt lat="43.4717563" lon="11.3795153"><ele>473.50000000000006</ele><time>2026-03-28T09:57:42.212Z</time></trkpt><trkpt lat="43.4717309" lon="11.3794358"><ele>472.0</ele><time>2026-03-28T09:57:43.211Z</time></trkpt><trkpt lat="43.4717073" lon="11.3793477"><ele>470.5</ele><time>2026-03-28T09:57:44.211Z</time></trkpt><trkpt lat="43.4716821" lon="11.3791885"><ele>469.0</ele><time>2026-03-28T09:57:46.211Z</time></trkpt><trkpt lat="43.4716728" lon="11.3790304"><ele>467.50000000000006</ele><time>2026-03-28T09:57:48.211Z</time></trkpt><trkpt lat="43.4716718" lon="11.3789365"><ele>466.0</ele><time>2026-03-28T09:57:49.208Z</time></trkpt><trkpt lat="43.4716736" lon="11.3788437"><ele>464.50000000000006</ele><time>2026-03-28T09:57:50.208Z</time></trkpt><trkpt lat="43.4716776" lon="11.3787476"><ele>463.0</ele><time>2026-03-28T09:57:51.211Z</time></trkpt><trkpt lat="43.4716889" lon="11.3786411"><ele>461.5</ele><time>2026-03-28T09:57:52.211Z</time></trkpt><trkpt lat="43.4716982" lon="11.3785317"><ele>460.0</ele><time>2026-03-28T09:57:53.211Z</time></trkpt><trkpt lat="43.4717043" lon="11.3784197"><ele>458.50000000000006</ele><time>2026-03-28T09:57:54.212Z</time></trkpt><trkpt lat="43.4717091" lon="11.3783151"><ele>457.0</ele><time>2026-03-28T09:57:55.212Z</time></trkpt><trkpt lat="43.4717051" lon="11.3782177"><ele>457.00000000000006</ele><time>2026-03-28T09:57:56.211Z</time></trkpt><trkpt lat="43.471689" lon="11.3781247"><ele>457.0</ele><time>2026-03-28T09:57:57.211Z</time></trkpt><trkpt lat="43.4716601" lon="11.3780428"><ele>457.00000000000006</ele><time>2026-03-28T09:57:58.211Z</time></trkpt><trkpt lat="43.4716203" lon="11.3779676"><ele>457.00000000000006</ele><time>2026-03-28T09:57:59.212Z</time></trkpt><trkpt lat="43.4715733" lon="11.3778893"><ele>457.0</ele><time>2026-03-28T09:58:00.211Z</time></trkpt><trkpt lat="43.4715241" lon="11.3778134"><ele>457.00000000000006</ele><time>2026-03-28T09:58:01.212Z</time></trkpt><trkpt lat="43.471468" lon="11.3777477"><ele>457.00000000000006</ele><time>2026-03-28T09:58:02.211Z</time></trkpt><trkpt lat="43.4714031" lon="11.377672"><ele>455.1666666666667</ele><time>2026-03-28T09:58:03.212Z</time></trkpt><trkpt lat="43.4713349" lon="11.3776044"><ele>453.33333333333337</ele><time>2026-03-28T09:58:04.211Z</time></trkpt><trkpt lat="43.4712635" lon="11.377544"><ele>451.5</ele><time>2026-03-28T09:58:05.211Z</time></trkpt><trkpt lat="43.4711834" lon="11.3774925"><ele>449.66666666666663</ele><time>2026-03-28T09:58:06.211Z</time></trkpt><trkpt lat="43.4710939" lon="11.3774434"><ele>447.8333333333333</ele><time>2026-03-28T09:58:07.211Z</time></trkpt><trkpt lat="43.4710107" lon="11.3774026"><ele>446.0</ele><time>2026-03-28T09:58:08.212Z</time></trkpt><trkpt lat="43.4709319" lon="11.3773548"><ele>445.8</ele><time>2026-03-28T09:58:09.212Z</time></trkpt><trkpt lat="43.4708522" lon="11.3773042"><ele>445.6</ele><time>2026-03-28T09:58:10.212Z</time></trkpt><trkpt lat="43.4707712" lon="11.3772414"><ele>445.4</ele><time>2026-03-28T09:58:11.212Z</time></trkpt><trkpt lat="43.4706895" lon="11.3771911"><ele>445.2</ele><time>2026-03-28T09:58:12.211Z</time></trkpt><trkpt lat="43.470604" lon="11.3771441"><ele>445.0</ele><time>2026-03-28T09:58:13.211Z</time></trkpt><trkpt lat="43.4705139" lon="11.3771059"><ele>441.8</ele><time>2026-03-28T09:58:14.211Z</time></trkpt><trkpt lat="43.4704249" lon="11.3770749"><ele>438.6</ele><time>2026-03-28T09:58:15.211Z</time></trkpt><trkpt lat="43.4703332" lon="11.3770431"><ele>435.4</ele><time>2026-03-28T09:58:16.212Z</time></trkpt><trkpt lat="43.4702398" lon="11.3770097"><ele>432.2</ele><time>2026-03-28T09:58:17.211Z</time></trkpt><trkpt lat="43.470152" lon="11.3769761"><ele>429.0</ele><time>2026-03-28T09:58:18.211Z</time></trkpt><trkpt lat="43.4700685" lon="11.3769376"><ele>429.0</ele><time>2026-03-28T09:58:19.211Z</time></trkpt><trkpt lat="43.4699959" lon="11.3769012"><ele>429.0</ele><time>2026-03-28T09:58:20.212Z</time></trkpt><trkpt lat="43.4699215" lon="11.376879"><ele>429.0</ele><time>2026-03-28T09:58:21.211Z</time></trkpt><trkpt lat="43.4698463" lon="11.3768521"><ele>429.0</ele><time>2026-03-28T09:58:22.211Z</time></trkpt><trkpt lat="43.4697697" lon="11.376801"><ele>429.0</ele><time>2026-03-28T09:58:23.212Z</time></trkpt><trkpt lat="43.4696963" lon="11.3767367"><ele>429.0</ele><time>2026-03-28T09:58:24.211Z</time></trkpt><trkpt lat="43.4696304" lon="11.3766798"><ele>427.4</ele><time>2026-03-28T09:58:25.211Z</time></trkpt><trkpt lat="43.4695665" lon="11.3766232"><ele>425.79999999999995</ele><time>2026-03-28T09:58:26.211Z</time></trkpt><trkpt lat="43.4694988" lon="11.3765727"><ele>424.20000000000005</ele><time>2026-03-28T09:58:27.211Z</time></trkpt><trkpt lat="43.4694423" lon="11.3765234"><ele>422.6</ele><time>2026-03-28T09:58:28.211Z</time></trkpt><trkpt lat="43.4693338" lon="11.3764428"><ele>421.0</ele><time>2026-03-28T09:58:30.211Z</time></trkpt><trkpt lat="43.4692091" lon="11.3764224"><ele>421.00000000000006</ele><time>2026-03-28T09:58:32.21Z</time></trkpt><trkpt lat="43.4690876" lon="11.376468"><ele>421.0</ele><time>2026-03-28T09:58:34.212Z</time></trkpt><trkpt lat="43.4690265" lon="11.3765044"><ele>421.0</ele><time>2026-03-28T09:58:35.211Z</time></trkpt><trkpt lat="43.4689669" lon="11.3765341"><ele>421.0</ele><time>2026-03-28T09:58:36.21Z</time></trkpt><trkpt lat="43.4689041" lon="11.3765497"><ele>421.00000000000006</ele><time>2026-03-28T09:58:37.211Z</time></trkpt><trkpt lat="43.4687781" lon="11.3765581"><ele>421.0</ele><time>2026-03-28T09:58:39.211Z</time></trkpt><trkpt lat="43.4687095" lon="11.3765583"><ele>419.28571428571433</ele><time>2026-03-28T09:58:40.212Z</time></trkpt><trkpt lat="43.4686391" lon="11.3765578"><ele>417.57142857142856</ele><time>2026-03-28T09:58:41.212Z</time></trkpt><trkpt lat="43.4685716" lon="11.376553"><ele>415.8571428571429</ele><time>2026-03-28T09:58:42.212Z</time></trkpt><trkpt lat="43.4685016" lon="11.3765424"><ele>414.14285714285717</ele><time>2026-03-28T09:58:43.211Z</time></trkpt><trkpt lat="43.4684328" lon="11.3765268"><ele>412.42857142857144</ele><time>2026-03-28T09:58:44.211Z</time></trkpt><trkpt lat="43.4683663" lon="11.3765082"><ele>410.7142857142857</ele><time>2026-03-28T09:58:45.212Z</time></trkpt><trkpt lat="43.4682996" lon="11.3764887"><ele>409.0</ele><time>2026-03-28T09:58:46.212Z</time></trkpt><trkpt lat="43.4682306" lon="11.3764666"><ele>409.00000000000006</ele><time>2026-03-28T09:58:47.211Z</time></trkpt><trkpt lat="43.4681626" lon="11.3764406"><ele>409.0</ele><time>2026-03-28T09:58:48.211Z</time></trkpt><trkpt lat="43.4680935" lon="11.3763986"><ele>409.0</ele><time>2026-03-28T09:58:49.211Z</time></trkpt><trkpt lat="43.4680461" lon="11.3763403"><ele>409.0</ele><time>2026-03-28T09:58:50.211Z</time></trkpt><trkpt lat="43.4680324" lon="11.3761764"><ele>409.00000000000006</ele><time>2026-03-28T09:58:52.212Z</time></trkpt><trkpt lat="43.4680521" lon="11.3760875"><ele>409.0</ele><time>2026-03-28T09:58:53.21Z</time></trkpt><trkpt lat="43.4680921" lon="11.3759309"><ele>408.83333333333337</ele><time>2026-03-28T09:58:55.212Z</time></trkpt><trkpt lat="43.4681192" lon="11.375843"><ele>408.6666666666667</ele><time>2026-03-28T09:58:56.212Z</time></trkpt><trkpt lat="43.4681457" lon="11.3757549"><ele>408.5</ele><time>2026-03-28T09:58:57.211Z</time></trkpt><trkpt lat="43.4681699" lon="11.375664"><ele>408.33333333333337</ele><time>2026-03-28T09:58:58.211Z</time></trkpt><trkpt lat="43.468193" lon="11.3755748"><ele>408.1666666666667</ele><time>2026-03-28T09:58:59.211Z</time></trkpt><trkpt lat="43.4682183" lon="11.3754199"><ele>408.0</ele><time>2026-03-28T09:59:01.212Z</time></trkpt><trkpt lat="43.4682242" lon="11.375255"><ele>405.79999999999995</ele><time>2026-03-28T09:59:03.211Z</time></trkpt><trkpt lat="43.4682624" lon="11.3751212"><ele>403.6</ele><time>2026-03-28T09:59:05.212Z</time></trkpt><trkpt lat="43.4683662" lon="11.375014"><ele>401.4</ele><time>2026-03-28T09:59:07.211Z</time></trkpt><trkpt lat="43.4684399" lon="11.3749808"><ele>399.20000000000005</ele><time>2026-03-28T09:59:08.211Z</time></trkpt><trkpt lat="43.4685213" lon="11.3749557"><ele>397.0</ele><time>2026-03-28T09:59:09.211Z</time></trkpt><trkpt lat="43.4686019" lon="11.3749396"><ele>397.00000000000006</ele><time>2026-03-28T09:59:10.211Z</time></trkpt><trkpt lat="43.4686803" lon="11.3749436"><ele>397.0</ele><time>2026-03-28T09:59:11.212Z</time></trkpt><trkpt lat="43.4687622" lon="11.3749575"><ele>397.0</ele><time>2026-03-28T09:59:12.211Z</time></trkpt><trkpt lat="43.468842" lon="11.3749828"><ele>397.0</ele><time>2026-03-28T09:59:13.212Z</time></trkpt><trkpt lat="43.4689184" lon="11.375005"><ele>397.00000000000006</ele><time>2026-03-28T09:59:14.21Z</time></trkpt><trkpt lat="43.4689927" lon="11.37502"><ele>397.0</ele><time>2026-03-28T09:59:15.211Z</time></trkpt><trkpt lat="43.4690625" lon="11.3750188"><ele>396.00000000000006</ele><time>2026-03-28T09:59:16.212Z</time></trkpt><trkpt lat="43.4691242" lon="11.3749847"><ele>395.0</ele><time>2026-03-28T09:59:17.212Z</time></trkpt><trkpt lat="43.4691808" lon="11.3749467"><ele>394.0</ele><time>2026-03-28T09:59:18.211Z</time></trkpt><trkpt lat="43.4692205" lon="11.3748723"><ele>393.0</ele><time>2026-03-28T09:59:19.211Z</time></trkpt><trkpt lat="43.469253" lon="11.3747831"><ele>392.00000000000006</ele><time>2026-03-28T09:59:20.211Z</time></trkpt><trkpt lat="43.4692694" lon="11.3746904"><ele>391.0</ele><time>2026-03-28T09:59:21.212Z</time></trkpt><trkpt lat="43.4692856" lon="11.3745265"><ele>390.00000000000006</ele><time>2026-03-28T09:59:23.211Z</time></trkpt><trkpt lat="43.4693218" lon="11.3743945"><ele>389.0</ele><time>2026-03-28T09:59:25.211Z</time></trkpt><trkpt lat="43.4694165" lon="11.3743435"><ele>388.0</ele><time>2026-03-28T09:59:28.212Z</time></trkpt><trkpt lat="43.4694912" lon="11.3743083"><ele>387.0</ele><time>2026-03-28T09:59:30.212Z</time></trkpt><trkpt lat="43.4694248" lon="11.3742451"><ele>386.00000000000006</ele><time>2026-03-28T09:59:35.211Z</time></trkpt><trkpt lat="43.4693604" lon="11.3742466"><ele>385.0</ele><time>2026-03-28T09:59:36.21Z</time></trkpt><trkpt lat="43.4692655" lon="11.3742465"><ele>385.0</ele><time>2026-03-28T09:59:37.211Z</time></trkpt><trkpt lat="43.4691645" lon="11.374232"><ele>385.0</ele><time>2026-03-28T09:59:38.211Z</time></trkpt><trkpt lat="43.4690482" lon="11.3741955"><ele>385.0</ele><time>2026-03-28T09:59:39.212Z</time></trkpt><trkpt lat="43.468945" lon="11.3741149"><ele>385.0</ele><time>2026-03-28T09:59:40.212Z</time></trkpt><trkpt lat="43.4688394" lon="11.374005"><ele>384.5</ele><time>2026-03-28T09:59:41.211Z</time></trkpt><trkpt lat="43.468741" lon="11.3738762"><ele>384.0</ele><time>2026-03-28T09:59:42.212Z</time></trkpt><trkpt lat="43.4686575" lon="11.3737553"><ele>383.5</ele><time>2026-03-28T09:59:43.21Z</time></trkpt><trkpt lat="43.4685813" lon="11.3736513"><ele>383.0</ele><time>2026-03-28T09:59:44.212Z</time></trkpt><trkpt lat="43.4685027" lon="11.3735713"><ele>383.0</ele><time>2026-03-28T09:59:45.211Z</time></trkpt><trkpt lat="43.4684244" lon="11.3735077"><ele>383.0</ele><time>2026-03-28T09:59:46.211Z</time></trkpt><trkpt lat="43.4683397" lon="11.3734545"><ele>383.0</ele><time>2026-03-28T09:59:47.211Z</time></trkpt><trkpt lat="43.4682534" lon="11.3734045"><ele>383.0</ele><time>2026-03-28T09:59:48.211Z</time></trkpt><trkpt lat="43.4681743" lon="11.373366"><ele>383.0</ele><time>2026-03-28T09:59:49.212Z</time></trkpt><trkpt lat="43.4680911" lon="11.3733276"><ele>383.0</ele><time>2026-03-28T09:59:50.211Z</time></trkpt><trkpt lat="43.4680053" lon="11.3732888"><ele>383.0</ele><time>2026-03-28T09:59:51.211Z</time></trkpt><trkpt lat="43.4679443" lon="11.3732152"><ele>383.0</ele><time>2026-03-28T09:59:52.211Z</time></trkpt><trkpt lat="43.4679088" lon="11.3731149"><ele>383.0</ele><time>2026-03-28T09:59:53.211Z</time></trkpt><trkpt lat="43.4678957" lon="11.3729992"><ele>383.0</ele><time>2026-03-28T09:59:54.211Z</time></trkpt><trkpt lat="43.4678895" lon="11.3728728"><ele>383.0</ele><time>2026-03-28T09:59:55.212Z</time></trkpt><trkpt lat="43.4678666" lon="11.3727404"><ele>383.0</ele><time>2026-03-28T09:59:56.211Z</time></trkpt><trkpt lat="43.4678302" lon="11.3726032"><ele>382.25</ele><time>2026-03-28T09:59:57.211Z</time></trkpt><trkpt lat="43.4677887" lon="11.3724577"><ele>381.5</ele><time>2026-03-28T09:59:58.211Z</time></trkpt><trkpt lat="43.4677397" lon="11.3723114"><ele>380.75</ele><time>2026-03-28T09:59:59.211Z</time></trkpt><trkpt lat="43.4676824" lon="11.3721669"><ele>380.0</ele><time>2026-03-28T10:00:00.211Z</time></trkpt><trkpt lat="43.467629" lon="11.3720365"><ele>380.0</ele><time>2026-03-28T10:00:01.212Z</time></trkpt><trkpt lat="43.4675727" lon="11.3719062"><ele>380.0</ele><time>2026-03-28T10:00:02.211Z</time></trkpt><trkpt lat="43.467509" lon="11.3717901"><ele>380.0</ele><time>2026-03-28T10:00:03.211Z</time></trkpt><trkpt lat="43.4674299" lon="11.3716873"><ele>380.0</ele><time>2026-03-28T10:00:04.212Z</time></trkpt><trkpt lat="43.4673392" lon="11.371592"><ele>380.0</ele><time>2026-03-28T10:00:05.211Z</time></trkpt><trkpt lat="43.4672394" lon="11.3715013"><ele>380.0</ele><time>2026-03-28T10:00:06.211Z</time></trkpt><trkpt lat="43.4671319" lon="11.3714227"><ele>380.0</ele><time>2026-03-28T10:00:07.211Z</time></trkpt><trkpt lat="43.4670183" lon="11.3713484"><ele>380.0</ele><time>2026-03-28T10:00:08.211Z</time></trkpt><trkpt lat="43.4669068" lon="11.3712628"><ele>380.0</ele><time>2026-03-28T10:00:09.211Z</time></trkpt><trkpt lat="43.466801" lon="11.3711612"><ele>379.75</ele><time>2026-03-28T10:00:10.211Z</time></trkpt><trkpt lat="43.4667024" lon="11.3710402"><ele>379.5</ele><time>2026-03-28T10:00:11.211Z</time></trkpt><trkpt lat="43.4666088" lon="11.3708979"><ele>379.25</ele><time>2026-03-28T10:00:12.211Z</time></trkpt><trkpt lat="43.4665161" lon="11.3707482"><ele>379.0</ele><time>2026-03-28T10:00:13.212Z</time></trkpt><trkpt lat="43.4664232" lon="11.3705986"><ele>378.25</ele><time>2026-03-28T10:00:14.212Z</time></trkpt><trkpt lat="43.4663343" lon="11.3704503"><ele>377.5</ele><time>2026-03-28T10:00:15.211Z</time></trkpt><trkpt lat="43.466257" lon="11.3703009"><ele>376.75</ele><time>2026-03-28T10:00:16.212Z</time></trkpt><trkpt lat="43.466191" lon="11.3701475"><ele>376.0</ele><time>2026-03-28T10:00:17.211Z</time></trkpt><trkpt lat="43.4661211" lon="11.3699888"><ele>376.0</ele><time>2026-03-28T10:00:18.211Z</time></trkpt><trkpt lat="43.4660582" lon="11.3698229"><ele>376.0</ele><time>2026-03-28T10:00:19.211Z</time></trkpt><trkpt lat="43.466005" lon="11.3696485"><ele>376.0</ele><time>2026-03-28T10:00:20.211Z</time></trkpt><trkpt lat="43.4659541" lon="11.3694662"><ele>376.0</ele><time>2026-03-28T10:00:21.211Z</time></trkpt><trkpt lat="43.465907" lon="11.369285"><ele>375.5</ele><time>2026-03-28T10:00:22.211Z</time></trkpt><trkpt lat="43.4658584" lon="11.3691053"><ele>375.0</ele><time>2026-03-28T10:00:23.211Z</time></trkpt><trkpt lat="43.465817" lon="11.3689213"><ele>374.5</ele><time>2026-03-28T10:00:24.211Z</time></trkpt><trkpt lat="43.4657817" lon="11.3687365"><ele>374.0</ele><time>2026-03-28T10:00:25.211Z</time></trkpt><trkpt lat="43.4657619" lon="11.3685517"><ele>374.0</ele><time>2026-03-28T10:00:26.211Z</time></trkpt><trkpt lat="43.4657656" lon="11.3683691"><ele>374.0</ele><time>2026-03-28T10:00:27.211Z</time></trkpt><trkpt lat="43.4657895" lon="11.3681865"><ele>374.0</ele><time>2026-03-28T10:00:28.211Z</time></trkpt><trkpt lat="43.4658236" lon="11.3680111"><ele>374.0</ele><time>2026-03-28T10:00:29.211Z</time></trkpt><trkpt lat="43.4658555" lon="11.3678342"><ele>373.25</ele><time>2026-03-28T10:00:30.211Z</time></trkpt><trkpt lat="43.4658874" lon="11.3676541"><ele>372.5</ele><time>2026-03-28T10:00:31.211Z</time></trkpt><trkpt lat="43.4659235" lon="11.367469"><ele>371.75</ele><time>2026-03-28T10:00:32.211Z</time></trkpt><trkpt lat="43.4659634" lon="11.3672829"><ele>371.0</ele><time>2026-03-28T10:00:33.211Z</time></trkpt><trkpt lat="43.466003" lon="11.3670914"><ele>370.5</ele><time>2026-03-28T10:00:34.211Z</time></trkpt><trkpt lat="43.4660445" lon="11.3668992"><ele>370.0</ele><time>2026-03-28T10:00:35.212Z</time></trkpt><trkpt lat="43.4660872" lon="11.3667072"><ele>369.5</ele><time>2026-03-28T10:00:36.211Z</time></trkpt><trkpt lat="43.4661311" lon="11.3665158"><ele>369.0</ele><time>2026-03-28T10:00:37.212Z</time></trkpt><trkpt lat="43.4661765" lon="11.3663172"><ele>368.75</ele><time>2026-03-28T10:00:38.211Z</time></trkpt><trkpt lat="43.466217" lon="11.3661295"><ele>368.5</ele><time>2026-03-28T10:00:39.211Z</time></trkpt><trkpt lat="43.4662606" lon="11.365938"><ele>368.25</ele><time>2026-03-28T10:00:40.212Z</time></trkpt><trkpt lat="43.4663051" lon="11.3657437"><ele>368.0</ele><time>2026-03-28T10:00:41.212Z</time></trkpt><trkpt lat="43.466349" lon="11.3655454"><ele>368.6666666666667</ele><time>2026-03-28T10:00:42.212Z</time></trkpt><trkpt lat="43.4663908" lon="11.3653385"><ele>369.3333333333333</ele><time>2026-03-28T10:00:43.211Z</time></trkpt><trkpt lat="43.4664349" lon="11.36513"><ele>370.0</ele><time>2026-03-28T10:00:44.211Z</time></trkpt><trkpt lat="43.4664801" lon="11.3649201"><ele>370.0</ele><time>2026-03-28T10:00:45.212Z</time></trkpt><trkpt lat="43.4665234" lon="11.3647075"><ele>370.0</ele><time>2026-03-28T10:00:46.212Z</time></trkpt><trkpt lat="43.4665701" lon="11.364497"><ele>370.0</ele><time>2026-03-28T10:00:47.211Z</time></trkpt><trkpt lat="43.4666149" lon="11.3642883"><ele>369.75</ele><time>2026-03-28T10:00:48.212Z</time></trkpt><trkpt lat="43.4666579" lon="11.3640859"><ele>369.5</ele><time>2026-03-28T10:00:49.212Z</time></trkpt><trkpt lat="43.4667051" lon="11.3638892"><ele>369.25</ele><time>2026-03-28T10:00:50.211Z</time></trkpt><trkpt lat="43.4667456" lon="11.3637091"><ele>369.0</ele><time>2026-03-28T10:00:51.211Z</time></trkpt><trkpt lat="43.4667806" lon="11.3635434"><ele>369.0</ele><time>2026-03-28T10:00:52.212Z</time></trkpt><trkpt lat="43.4668126" lon="11.3633899"><ele>369.0</ele><time>2026-03-28T10:00:53.211Z</time></trkpt><trkpt lat="43.4668389" lon="11.3632409"><ele>369.0</ele><time>2026-03-28T10:00:54.212Z</time></trkpt><trkpt lat="43.4668434" lon="11.3630988"><ele>369.0</ele><time>2026-03-28T10:00:55.211Z</time></trkpt><trkpt lat="43.4668239" lon="11.3629646"><ele>369.0</ele><time>2026-03-28T10:00:56.211Z</time></trkpt><trkpt lat="43.4667787" lon="11.3628379"><ele>369.0</ele><time>2026-03-28T10:00:57.211Z</time></trkpt><trkpt lat="43.4667168" lon="11.3627126"><ele>369.0</ele><time>2026-03-28T10:00:58.212Z</time></trkpt><trkpt lat="43.466637" lon="11.3625851"><ele>369.0</ele><time>2026-03-28T10:00:59.211Z</time></trkpt><trkpt lat="43.4665584" lon="11.3624413"><ele>369.0</ele><time>2026-03-28T10:01:00.212Z</time></trkpt><trkpt lat="43.4664854" lon="11.3622806"><ele>368.5</ele><time>2026-03-28T10:01:01.211Z</time></trkpt><trkpt lat="43.4664208" lon="11.3621209"><ele>368.0</ele><time>2026-03-28T10:01:02.211Z</time></trkpt><trkpt lat="43.4663607" lon="11.3619511"><ele>367.5</ele><time>2026-03-28T10:01:03.211Z</time></trkpt><trkpt lat="43.4663073" lon="11.361772"><ele>367.0</ele><time>2026-03-28T10:01:04.211Z</time></trkpt><trkpt lat="43.4662649" lon="11.3615904"><ele>367.0</ele><time>2026-03-28T10:01:05.211Z</time></trkpt><trkpt lat="43.4662208" lon="11.3614282"><ele>367.0</ele><time>2026-03-28T10:01:06.211Z</time></trkpt><trkpt lat="43.4661704" lon="11.3612987"><ele>367.0</ele><time>2026-03-28T10:01:07.211Z</time></trkpt><trkpt lat="43.4661022" lon="11.3611831"><ele>367.0</ele><time>2026-03-28T10:01:08.212Z</time></trkpt><trkpt lat="43.4660145" lon="11.3610768"><ele>367.75</ele><time>2026-03-28T10:01:09.21Z</time></trkpt><trkpt lat="43.4659085" lon="11.3609832"><ele>368.5</ele><time>2026-03-28T10:01:10.211Z</time></trkpt><trkpt lat="43.4657925" lon="11.360881"><ele>369.25</ele><time>2026-03-28T10:01:11.211Z</time></trkpt><trkpt lat="43.4657005" lon="11.3607527"><ele>370.0</ele><time>2026-03-28T10:01:12.211Z</time></trkpt><trkpt lat="43.4656153" lon="11.3606019"><ele>370.5</ele><time>2026-03-28T10:01:13.21Z</time></trkpt><trkpt lat="43.4655244" lon="11.3604334"><ele>371.0</ele><time>2026-03-28T10:01:14.211Z</time></trkpt><trkpt lat="43.4654342" lon="11.3602715"><ele>371.5</ele><time>2026-03-28T10:01:15.211Z</time></trkpt><trkpt lat="43.4653347" lon="11.3601388"><ele>372.0</ele><time>2026-03-28T10:01:16.211Z</time></trkpt><trkpt lat="43.465238" lon="11.3599983"><ele>370.25</ele><time>2026-03-28T10:01:17.211Z</time></trkpt><trkpt lat="43.4651659" lon="11.359839"><ele>368.5</ele><time>2026-03-28T10:01:18.211Z</time></trkpt><trkpt lat="43.4650955" lon="11.3596698"><ele>366.75</ele><time>2026-03-28T10:01:19.212Z</time></trkpt><trkpt lat="43.4650323" lon="11.359491"><ele>365.0</ele><time>2026-03-28T10:01:20.212Z</time></trkpt><trkpt lat="43.4649923" lon="11.3592964"><ele>365.0</ele><time>2026-03-28T10:01:21.212Z</time></trkpt><trkpt lat="43.4649591" lon="11.3590986"><ele>365.0</ele><time>2026-03-28T10:01:22.211Z</time></trkpt><trkpt lat="43.4649224" lon="11.358898"><ele>365.0</ele><time>2026-03-28T10:01:23.211Z</time></trkpt><trkpt lat="43.4648875" lon="11.3586872"><ele>366.33333333333337</ele><time>2026-03-28T10:01:24.212Z</time></trkpt><trkpt lat="43.4648394" lon="11.3584777"><ele>367.6666666666667</ele><time>2026-03-28T10:01:25.212Z</time></trkpt><trkpt lat="43.464786" lon="11.358282"><ele>369.0</ele><time>2026-03-28T10:01:26.212Z</time></trkpt><trkpt lat="43.4647316" lon="11.3580968"><ele>367.75</ele><time>2026-03-28T10:01:27.211Z</time></trkpt><trkpt lat="43.4646779" lon="11.3579177"><ele>366.5</ele><time>2026-03-28T10:01:28.211Z</time></trkpt><trkpt lat="43.4645921" lon="11.3577812"><ele>365.25</ele><time>2026-03-28T10:01:29.212Z</time></trkpt><trkpt lat="43.4645126" lon="11.3576432"><ele>364.0</ele><time>2026-03-28T10:01:30.212Z</time></trkpt><trkpt lat="43.4644205" lon="11.3575221"><ele>364.0</ele><time>2026-03-28T10:01:31.212Z</time></trkpt><trkpt lat="43.4643161" lon="11.3574229"><ele>364.0</ele><time>2026-03-28T10:01:32.212Z</time></trkpt><trkpt lat="43.4642059" lon="11.3573145"><ele>364.0</ele><time>2026-03-28T10:01:33.211Z</time></trkpt><trkpt lat="43.4640896" lon="11.3572224"><ele>364.0</ele><time>2026-03-28T10:01:34.212Z</time></trkpt><trkpt lat="43.4639722" lon="11.3571572"><ele>365.0</ele><time>2026-03-28T10:01:35.212Z</time></trkpt><trkpt lat="43.4638492" lon="11.3570986"><ele>366.0</ele><time>2026-03-28T10:01:36.211Z</time></trkpt><trkpt lat="43.4637365" lon="11.357055"><ele>367.0</ele><time>2026-03-28T10:01:37.212Z</time></trkpt><trkpt lat="43.4636172" lon="11.3570595"><ele>368.0</ele><time>2026-03-28T10:01:38.211Z</time></trkpt><trkpt lat="43.4634951" lon="11.3570277"><ele>368.0</ele><time>2026-03-28T10:01:39.211Z</time></trkpt><trkpt lat="43.4633729" lon="11.3570048"><ele>368.0</ele><time>2026-03-28T10:01:40.211Z</time></trkpt><trkpt lat="43.4632618" lon="11.3569939"><ele>368.0</ele><time>2026-03-28T10:01:41.212Z</time></trkpt><trkpt lat="43.4631514" lon="11.3569728"><ele>368.0</ele><time>2026-03-28T10:01:42.211Z</time></trkpt><trkpt lat="43.4630553" lon="11.3569201"><ele>368.0</ele><time>2026-03-28T10:01:43.212Z</time></trkpt><trkpt lat="43.4629616" lon="11.35684"><ele>368.0</ele><time>2026-03-28T10:01:44.212Z</time></trkpt><trkpt lat="43.4628577" lon="11.3567366"><ele>368.0</ele><time>2026-03-28T10:01:45.211Z</time></trkpt><trkpt lat="43.4627395" lon="11.3566264"><ele>368.0</ele><time>2026-03-28T10:01:46.211Z</time></trkpt><trkpt lat="43.4626117" lon="11.3565131"><ele>367.0</ele><time>2026-03-28T10:01:47.211Z</time></trkpt><trkpt lat="43.4624867" lon="11.3563992"><ele>366.0</ele><time>2026-03-28T10:01:48.211Z</time></trkpt><trkpt lat="43.4623652" lon="11.3562906"><ele>365.0</ele><time>2026-03-28T10:01:49.212Z</time></trkpt><trkpt lat="43.4622431" lon="11.3561749"><ele>364.0</ele><time>2026-03-28T10:01:50.212Z</time></trkpt><trkpt lat="43.462124" lon="11.356056"><ele>362.0</ele><time>2026-03-28T10:01:51.212Z</time></trkpt><trkpt lat="43.4619998" lon="11.3559375"><ele>360.0</ele><time>2026-03-28T10:01:52.212Z</time></trkpt><trkpt lat="43.4618702" lon="11.3558272"><ele>358.0</ele><time>2026-03-28T10:01:53.211Z</time></trkpt><trkpt lat="43.4617501" lon="11.3557294"><ele>356.0</ele><time>2026-03-28T10:01:54.211Z</time></trkpt><trkpt lat="43.4616218" lon="11.3556343"><ele>356.0</ele><time>2026-03-28T10:01:55.211Z</time></trkpt><trkpt lat="43.4614967" lon="11.355568"><ele>356.0</ele><time>2026-03-28T10:01:56.211Z</time></trkpt><trkpt lat="43.4613907" lon="11.3555416"><ele>356.0</ele><time>2026-03-28T10:01:57.211Z</time></trkpt><trkpt lat="43.4612732" lon="11.3555432"><ele>356.0</ele><time>2026-03-28T10:01:58.211Z</time></trkpt><trkpt lat="43.461141" lon="11.3555647"><ele>355.5</ele><time>2026-03-28T10:01:59.211Z</time></trkpt><trkpt lat="43.4610063" lon="11.3555913"><ele>355.0</ele><time>2026-03-28T10:02:00.212Z</time></trkpt><trkpt lat="43.4608701" lon="11.3556098"><ele>354.5</ele><time>2026-03-28T10:02:01.211Z</time></trkpt><trkpt lat="43.460724" lon="11.3556047"><ele>354.0</ele><time>2026-03-28T10:02:02.211Z</time></trkpt><trkpt lat="43.4605824" lon="11.3555777"><ele>354.0</ele><time>2026-03-28T10:02:03.211Z</time></trkpt><trkpt lat="43.4604503" lon="11.3555413"><ele>354.0</ele><time>2026-03-28T10:02:04.211Z</time></trkpt><trkpt lat="43.4603166" lon="11.3555083"><ele>354.0</ele><time>2026-03-28T10:02:05.211Z</time></trkpt><trkpt lat="43.46019" lon="11.3555065"><ele>354.0</ele><time>2026-03-28T10:02:06.211Z</time></trkpt><trkpt lat="43.4600587" lon="11.3555284"><ele>353.25</ele><time>2026-03-28T10:02:07.212Z</time></trkpt><trkpt lat="43.4599309" lon="11.3555605"><ele>352.5</ele><time>2026-03-28T10:02:08.211Z</time></trkpt><trkpt lat="43.4597964" lon="11.3555752"><ele>351.75</ele><time>2026-03-28T10:02:09.211Z</time></trkpt><trkpt lat="43.4596567" lon="11.3555674"><ele>351.0</ele><time>2026-03-28T10:02:10.211Z</time></trkpt><trkpt lat="43.4595128" lon="11.3555469"><ele>352.25</ele><time>2026-03-28T10:02:11.211Z</time></trkpt><trkpt lat="43.459361" lon="11.3555197"><ele>353.5</ele><time>2026-03-28T10:02:12.211Z</time></trkpt><trkpt lat="43.4592173" lon="11.3554877"><ele>354.75</ele><time>2026-03-28T10:02:13.211Z</time></trkpt><trkpt lat="43.45908" lon="11.3554474"><ele>356.0</ele><time>2026-03-28T10:02:14.212Z</time></trkpt><trkpt lat="43.4589384" lon="11.3553902"><ele>356.0</ele><time>2026-03-28T10:02:15.211Z</time></trkpt><trkpt lat="43.4588094" lon="11.3553188"><ele>356.0</ele><time>2026-03-28T10:02:16.211Z</time></trkpt><trkpt lat="43.4586821" lon="11.3552293"><ele>356.0</ele><time>2026-03-28T10:02:17.211Z</time></trkpt><trkpt lat="43.4585562" lon="11.3551339"><ele>356.0</ele><time>2026-03-28T10:02:18.211Z</time></trkpt><trkpt lat="43.4584298" lon="11.3550313"><ele>354.5</ele><time>2026-03-28T10:02:19.211Z</time></trkpt><trkpt lat="43.4583092" lon="11.3549246"><ele>353.0</ele><time>2026-03-28T10:02:20.211Z</time></trkpt><trkpt lat="43.4582047" lon="11.3548335"><ele>351.5</ele><time>2026-03-28T10:02:21.212Z</time></trkpt><trkpt lat="43.458089" lon="11.3547673"><ele>350.0</ele><time>2026-03-28T10:02:22.211Z</time></trkpt><trkpt lat="43.4579655" lon="11.3547155"><ele>351.25</ele><time>2026-03-28T10:02:23.211Z</time></trkpt><trkpt lat="43.4578309" lon="11.3546715"><ele>352.5</ele><time>2026-03-28T10:02:24.21Z</time></trkpt><trkpt lat="43.457688" lon="11.3546242"><ele>353.75</ele><time>2026-03-28T10:02:25.212Z</time></trkpt><trkpt lat="43.4575433" lon="11.3545595"><ele>355.0</ele><time>2026-03-28T10:02:26.211Z</time></trkpt><trkpt lat="43.4574022" lon="11.3544847"><ele>355.0</ele><time>2026-03-28T10:02:27.211Z</time></trkpt><trkpt lat="43.4572723" lon="11.3544131"><ele>355.0</ele><time>2026-03-28T10:02:28.211Z</time></trkpt><trkpt lat="43.4571442" lon="11.3543621"><ele>355.0</ele><time>2026-03-28T10:02:29.211Z</time></trkpt><trkpt lat="43.4570077" lon="11.3543178"><ele>355.0</ele><time>2026-03-28T10:02:30.212Z</time></trkpt><trkpt lat="43.4568734" lon="11.354279"><ele>352.75</ele><time>2026-03-28T10:02:31.212Z</time></trkpt><trkpt lat="43.4567445" lon="11.3542438"><ele>350.5</ele><time>2026-03-28T10:02:32.211Z</time></trkpt><trkpt lat="43.4566056" lon="11.3542122"><ele>348.25</ele><time>2026-03-28T10:02:33.212Z</time></trkpt><trkpt lat="43.4564779" lon="11.3541972"><ele>346.0</ele><time>2026-03-28T10:02:34.212Z</time></trkpt><trkpt lat="43.4563507" lon="11.354174"><ele>345.75</ele><time>2026-03-28T10:02:35.211Z</time></trkpt><trkpt lat="43.4562258" lon="11.3541527"><ele>345.5</ele><time>2026-03-28T10:02:36.212Z</time></trkpt><trkpt lat="43.4561047" lon="11.3541266"><ele>345.25</ele><time>2026-03-28T10:02:37.212Z</time></trkpt><trkpt lat="43.4559829" lon="11.3540871"><ele>345.0</ele><time>2026-03-28T10:02:38.211Z</time></trkpt><trkpt lat="43.4558608" lon="11.3540374"><ele>345.0</ele><time>2026-03-28T10:02:39.211Z</time></trkpt><trkpt lat="43.4557415" lon="11.3539922"><ele>345.0</ele><time>2026-03-28T10:02:40.212Z</time></trkpt><trkpt lat="43.4556159" lon="11.3539463"><ele>345.0</ele><time>2026-03-28T10:02:41.212Z</time></trkpt><trkpt lat="43.4555003" lon="11.3539181"><ele>345.0</ele><time>2026-03-28T10:02:42.212Z</time></trkpt><trkpt lat="43.4553842" lon="11.3539112"><ele>344.5</ele><time>2026-03-28T10:02:43.211Z</time></trkpt><trkpt lat="43.4552773" lon="11.3539247"><ele>344.0</ele><time>2026-03-28T10:02:44.212Z</time></trkpt><trkpt lat="43.4551695" lon="11.3539539"><ele>343.5</ele><time>2026-03-28T10:02:45.211Z</time></trkpt><trkpt lat="43.455049" lon="11.3539907"><ele>343.0</ele><time>2026-03-28T10:02:46.211Z</time></trkpt><trkpt lat="43.4549353" lon="11.3540276"><ele>343.0</ele><time>2026-03-28T10:02:47.211Z</time></trkpt><trkpt lat="43.454832" lon="11.3540751"><ele>343.0</ele><time>2026-03-28T10:02:48.212Z</time></trkpt><trkpt lat="43.4547274" lon="11.3541306"><ele>343.0</ele><time>2026-03-28T10:02:49.21Z</time></trkpt><trkpt lat="43.4546254" lon="11.3542098"><ele>343.0</ele><time>2026-03-28T10:02:50.211Z</time></trkpt><trkpt lat="43.4545224" lon="11.3542798"><ele>341.59999999999997</ele><time>2026-03-28T10:02:51.211Z</time></trkpt><trkpt lat="43.4544156" lon="11.3543262"><ele>340.2</ele><time>2026-03-28T10:02:52.212Z</time></trkpt><trkpt lat="43.4543109" lon="11.3543538"><ele>338.8</ele><time>2026-03-28T10:02:53.211Z</time></trkpt><trkpt lat="43.4542083" lon="11.3543358"><ele>337.4</ele><time>2026-03-28T10:02:54.211Z</time></trkpt><trkpt lat="43.4541287" lon="11.3542959"><ele>336.0</ele><time>2026-03-28T10:02:55.212Z</time></trkpt><trkpt lat="43.4540518" lon="11.3542601"><ele>336.0</ele><time>2026-03-28T10:02:56.211Z</time></trkpt><trkpt lat="43.4539752" lon="11.3542351"><ele>336.0</ele><time>2026-03-28T10:02:57.21Z</time></trkpt><trkpt lat="43.4538873" lon="11.3542849"><ele>336.0</ele><time>2026-03-28T10:02:58.211Z</time></trkpt><trkpt lat="43.4538076" lon="11.3543247"><ele>336.0</ele><time>2026-03-28T10:02:59.212Z</time></trkpt><trkpt lat="43.4536844" lon="11.354396"><ele>336.0</ele><time>2026-03-28T10:03:00.211Z</time></trkpt><trkpt lat="43.4535642" lon="11.3544504"><ele>336.75</ele><time>2026-03-28T10:03:01.211Z</time></trkpt><trkpt lat="43.4534289" lon="11.3545152"><ele>337.5</ele><time>2026-03-28T10:03:02.212Z</time></trkpt><trkpt lat="43.4533032" lon="11.3545755"><ele>338.25</ele><time>2026-03-28T10:03:03.211Z</time></trkpt><trkpt lat="43.4531733" lon="11.3546422"><ele>339.0</ele><time>2026-03-28T10:03:04.212Z</time></trkpt><trkpt lat="43.4530518" lon="11.3547243"><ele>339.75</ele><time>2026-03-28T10:03:05.211Z</time></trkpt><trkpt lat="43.4529289" lon="11.3548064"><ele>340.5</ele><time>2026-03-28T10:03:06.212Z</time></trkpt><trkpt lat="43.4528063" lon="11.3548769"><ele>341.25</ele><time>2026-03-28T10:03:07.212Z</time></trkpt><trkpt lat="43.4526846" lon="11.3549488"><ele>342.0</ele><time>2026-03-28T10:03:08.211Z</time></trkpt><trkpt lat="43.4525548" lon="11.3550299"><ele>342.0</ele><time>2026-03-28T10:03:09.211Z</time></trkpt><trkpt lat="43.452426" lon="11.3550925"><ele>342.0</ele><time>2026-03-28T10:03:10.211Z</time></trkpt><trkpt lat="43.4522945" lon="11.3551489"><ele>342.0</ele><time>2026-03-28T10:03:11.211Z</time></trkpt><trkpt lat="43.4521622" lon="11.3552051"><ele>342.0</ele><time>2026-03-28T10:03:12.212Z</time></trkpt><trkpt lat="43.4520274" lon="11.3552479"><ele>343.75</ele><time>2026-03-28T10:03:13.211Z</time></trkpt><trkpt lat="43.4518911" lon="11.3552752"><ele>345.5</ele><time>2026-03-28T10:03:14.211Z</time></trkpt><trkpt lat="43.4517632" lon="11.3552978"><ele>347.25</ele><time>2026-03-28T10:03:15.211Z</time></trkpt><trkpt lat="43.4516361" lon="11.3553417"><ele>349.0</ele><time>2026-03-28T10:03:16.211Z</time></trkpt><trkpt lat="43.4515167" lon="11.3554191"><ele>349.0</ele><time>2026-03-28T10:03:17.211Z</time></trkpt><trkpt lat="43.4513931" lon="11.3555014"><ele>349.0</ele><time>2026-03-28T10:03:18.212Z</time></trkpt><trkpt lat="43.4512756" lon="11.3555735"><ele>349.0</ele><time>2026-03-28T10:03:19.211Z</time></trkpt><trkpt lat="43.4511584" lon="11.3556524"><ele>349.0</ele><time>2026-03-28T10:03:20.211Z</time></trkpt><trkpt lat="43.4510578" lon="11.3557615"><ele>348.5</ele><time>2026-03-28T10:03:21.211Z</time></trkpt><trkpt lat="43.450952" lon="11.3558893"><ele>348.0</ele><time>2026-03-28T10:03:22.211Z</time></trkpt><trkpt lat="43.4508424" lon="11.3560073"><ele>347.5</ele><time>2026-03-28T10:03:23.212Z</time></trkpt><trkpt lat="43.4507365" lon="11.3561185"><ele>347.0</ele><time>2026-03-28T10:03:24.211Z</time></trkpt><trkpt lat="43.4506367" lon="11.356226"><ele>347.0</ele><time>2026-03-28T10:03:25.211Z</time></trkpt><trkpt lat="43.4505422" lon="11.3563379"><ele>347.0</ele><time>2026-03-28T10:03:26.212Z</time></trkpt><trkpt lat="43.4504316" lon="11.3564507"><ele>347.0</ele><time>2026-03-28T10:03:27.212Z</time></trkpt><trkpt lat="43.4503247" lon="11.3565458"><ele>347.0</ele><time>2026-03-28T10:03:28.212Z</time></trkpt><trkpt lat="43.4502172" lon="11.3566295"><ele>345.25</ele><time>2026-03-28T10:03:29.211Z</time></trkpt><trkpt lat="43.450115" lon="11.3566991"><ele>343.5</ele><time>2026-03-28T10:03:30.212Z</time></trkpt><trkpt lat="43.450003" lon="11.35674"><ele>341.75</ele><time>2026-03-28T10:03:31.212Z</time></trkpt><trkpt lat="43.4498788" lon="11.3567524"><ele>340.0</ele><time>2026-03-28T10:03:32.211Z</time></trkpt><trkpt lat="43.4497462" lon="11.3567452"><ele>338.0</ele><time>2026-03-28T10:03:33.211Z</time></trkpt><trkpt lat="43.4496085" lon="11.3567221"><ele>336.0</ele><time>2026-03-28T10:03:34.211Z</time></trkpt><trkpt lat="43.4494753" lon="11.3566951"><ele>334.0</ele><time>2026-03-28T10:03:35.211Z</time></trkpt><trkpt lat="43.4493509" lon="11.3566556"><ele>332.0</ele><time>2026-03-28T10:03:36.211Z</time></trkpt><trkpt lat="43.4492313" lon="11.3565833"><ele>332.0</ele><time>2026-03-28T10:03:37.212Z</time></trkpt><trkpt lat="43.4491023" lon="11.3564804"><ele>332.0</ele><time>2026-03-28T10:03:38.211Z</time></trkpt><trkpt lat="43.4489636" lon="11.356367"><ele>332.0</ele><time>2026-03-28T10:03:39.211Z</time></trkpt><trkpt lat="43.4488189" lon="11.3562591"><ele>333.33333333333337</ele><time>2026-03-28T10:03:40.211Z</time></trkpt><trkpt lat="43.4486823" lon="11.3561729"><ele>334.6666666666667</ele><time>2026-03-28T10:03:41.211Z</time></trkpt><trkpt lat="43.448542" lon="11.3560906"><ele>336.0</ele><time>2026-03-28T10:03:42.211Z</time></trkpt><trkpt lat="43.4484022" lon="11.3560033"><ele>336.0</ele><time>2026-03-28T10:03:43.211Z</time></trkpt><trkpt lat="43.4482664" lon="11.355918"><ele>336.0</ele><time>2026-03-28T10:03:44.212Z</time></trkpt><trkpt lat="43.4481303" lon="11.3558399"><ele>336.0</ele><time>2026-03-28T10:03:45.21Z</time></trkpt><trkpt lat="43.4479937" lon="11.3557589"><ele>336.0</ele><time>2026-03-28T10:03:46.212Z</time></trkpt><trkpt lat="43.4478536" lon="11.3556704"><ele>334.3333333333333</ele><time>2026-03-28T10:03:47.211Z</time></trkpt><trkpt lat="43.4477135" lon="11.3555898"><ele>332.66666666666663</ele><time>2026-03-28T10:03:48.211Z</time></trkpt><trkpt lat="43.4475716" lon="11.3555234"><ele>331.0</ele><time>2026-03-28T10:03:49.211Z</time></trkpt><trkpt lat="43.447426" lon="11.3554682"><ele>333.0</ele><time>2026-03-28T10:03:50.211Z</time></trkpt><trkpt lat="43.4472721" lon="11.3554261"><ele>335.0</ele><time>2026-03-28T10:03:51.212Z</time></trkpt><trkpt lat="43.4471177" lon="11.3553913"><ele>337.0</ele><time>2026-03-28T10:03:52.211Z</time></trkpt><trkpt lat="43.4469659" lon="11.3553586"><ele>337.0</ele><time>2026-03-28T10:03:53.21Z</time></trkpt><trkpt lat="43.4468152" lon="11.3553255"><ele>337.0</ele><time>2026-03-28T10:03:54.211Z</time></trkpt><trkpt lat="43.4466677" lon="11.3552943"><ele>337.0</ele><time>2026-03-28T10:03:55.212Z</time></trkpt><trkpt lat="43.4465265" lon="11.3552739"><ele>337.0</ele><time>2026-03-28T10:03:56.212Z</time></trkpt><trkpt lat="43.4463875" lon="11.355247"><ele>335.75</ele><time>2026-03-28T10:03:57.211Z</time></trkpt><trkpt lat="43.4462463" lon="11.3552272"><ele>334.5</ele><time>2026-03-28T10:03:58.211Z</time></trkpt><trkpt lat="43.446107" lon="11.355213"><ele>333.25</ele><time>2026-03-28T10:03:59.211Z</time></trkpt><trkpt lat="43.445966" lon="11.355201"><ele>332.0</ele><time>2026-03-28T10:04:00.212Z</time></trkpt><trkpt lat="43.4458299" lon="11.3551883"><ele>332.0</ele><time>2026-03-28T10:04:01.212Z</time></trkpt><trkpt lat="43.4456957" lon="11.35515"><ele>332.0</ele><time>2026-03-28T10:04:02.211Z</time></trkpt><trkpt lat="43.4455631" lon="11.3550845"><ele>332.0</ele><time>2026-03-28T10:04:03.212Z</time></trkpt><trkpt lat="43.4454397" lon="11.3549978"><ele>332.0</ele><time>2026-03-28T10:04:04.212Z</time></trkpt><trkpt lat="43.4453227" lon="11.3548984"><ele>331.0</ele><time>2026-03-28T10:04:05.211Z</time></trkpt><trkpt lat="43.4452144" lon="11.3547919"><ele>330.0</ele><time>2026-03-28T10:04:06.212Z</time></trkpt><trkpt lat="43.4451204" lon="11.3546632"><ele>329.0</ele><time>2026-03-28T10:04:07.212Z</time></trkpt><trkpt lat="43.4450478" lon="11.3545288"><ele>328.0</ele><time>2026-03-28T10:04:08.211Z</time></trkpt><trkpt lat="43.445002" lon="11.354383"><ele>328.0</ele><time>2026-03-28T10:04:09.212Z</time></trkpt><trkpt lat="43.444976" lon="11.3542449"><ele>328.0</ele><time>2026-03-28T10:04:10.211Z</time></trkpt><trkpt lat="43.4449576" lon="11.3541169"><ele>328.0</ele><time>2026-03-28T10:04:11.21Z</time></trkpt><trkpt lat="43.4449459" lon="11.3540069"><ele>328.0</ele><time>2026-03-28T10:04:12.211Z</time></trkpt><trkpt lat="43.444927" lon="11.3538697"><ele>328.0</ele><time>2026-03-28T10:04:14.211Z</time></trkpt><trkpt lat="43.4449104" lon="11.3537783"><ele>328.0</ele><time>2026-03-28T10:04:16.211Z</time></trkpt><trkpt lat="43.4448881" lon="11.3536955"><ele>327.0</ele><time>2026-03-28T10:04:19.211Z</time></trkpt></trkseg><trkseg><trkpt lat="43.4447745" lon="11.3537275"><ele>327.0</ele><time>2026-03-28T10:14:43.211Z</time></trkpt><trkpt lat="43.4446584" lon="11.3537684"><ele>327.0</ele><time>2026-03-28T10:14:45.212Z</time></trkpt><trkpt lat="43.4445904" lon="11.3537938"><ele>327.0</ele><time>2026-03-28T10:14:46.211Z</time></trkpt><trkpt lat="43.4445202" lon="11.353819"><ele>327.0</ele><time>2026-03-28T10:14:47.211Z</time></trkpt><trkpt lat="43.4444476" lon="11.3538412"><ele>327.0</ele><time>2026-03-28T10:14:48.211Z</time></trkpt><trkpt lat="43.4443659" lon="11.3538676"><ele>327.0</ele><time>2026-03-28T10:14:49.212Z</time></trkpt><trkpt lat="43.4442855" lon="11.3538917"><ele>326.40000000000003</ele><time>2026-03-28T10:14:50.211Z</time></trkpt><trkpt lat="43.4441991" lon="11.3539223"><ele>325.8</ele><time>2026-03-28T10:14:51.211Z</time></trkpt><trkpt lat="43.4441079" lon="11.3539651"><ele>325.2</ele><time>2026-03-28T10:14:52.212Z</time></trkpt><trkpt lat="43.4440125" lon="11.3540192"><ele>324.6</ele><time>2026-03-28T10:14:53.212Z</time></trkpt><trkpt lat="43.4439081" lon="11.3540865"><ele>324.0</ele><time>2026-03-28T10:14:54.212Z</time></trkpt><trkpt lat="43.4438017" lon="11.3541557"><ele>326.5</ele><time>2026-03-28T10:14:55.211Z</time></trkpt><trkpt lat="43.4436898" lon="11.3542295"><ele>329.0</ele><time>2026-03-28T10:14:56.211Z</time></trkpt><trkpt lat="43.4435721" lon="11.3543081"><ele>331.5</ele><time>2026-03-28T10:14:57.212Z</time></trkpt><trkpt lat="43.4434563" lon="11.3543903"><ele>334.0</ele><time>2026-03-28T10:14:58.212Z</time></trkpt><trkpt lat="43.4433406" lon="11.354475"><ele>334.0</ele><time>2026-03-28T10:14:59.212Z</time></trkpt><trkpt lat="43.4432247" lon="11.3545508"><ele>334.0</ele><time>2026-03-28T10:15:00.212Z</time></trkpt><trkpt lat="43.4431072" lon="11.3546191"><ele>334.0</ele><time>2026-03-28T10:15:01.212Z</time></trkpt><trkpt lat="43.442992" lon="11.354685"><ele>334.0</ele><time>2026-03-28T10:15:02.211Z</time></trkpt><trkpt lat="43.4428773" lon="11.3547496"><ele>334.5</ele><time>2026-03-28T10:15:03.21Z</time></trkpt><trkpt lat="43.4427676" lon="11.3548207"><ele>335.0</ele><time>2026-03-28T10:15:04.212Z</time></trkpt><trkpt lat="43.4426594" lon="11.3549036"><ele>335.5</ele><time>2026-03-28T10:15:05.211Z</time></trkpt><trkpt lat="43.4425559" lon="11.3549995"><ele>336.0</ele><time>2026-03-28T10:15:06.211Z</time></trkpt><trkpt lat="43.4424618" lon="11.3550777"><ele>336.0</ele><time>2026-03-28T10:15:07.211Z</time></trkpt><trkpt lat="43.4423707" lon="11.3551546"><ele>336.0</ele><time>2026-03-28T10:15:08.211Z</time></trkpt><trkpt lat="43.4422799" lon="11.3552165"><ele>336.0</ele><time>2026-03-28T10:15:09.212Z</time></trkpt><trkpt lat="43.442194" lon="11.355256"><ele>336.0</ele><time>2026-03-28T10:15:10.212Z</time></trkpt><trkpt lat="43.4421127" lon="11.3552747"><ele>336.0</ele><time>2026-03-28T10:15:11.211Z</time></trkpt><trkpt lat="43.4420337" lon="11.3552805"><ele>339.1666666666667</ele><time>2026-03-28T10:15:12.211Z</time></trkpt><trkpt lat="43.4419599" lon="11.3552901"><ele>342.3333333333333</ele><time>2026-03-28T10:15:13.211Z</time></trkpt><trkpt lat="43.4418353" lon="11.3553001"><ele>345.5</ele><time>2026-03-28T10:15:15.21Z</time></trkpt><trkpt lat="43.4417687" lon="11.3553116"><ele>348.66666666666663</ele><time>2026-03-28T10:15:16.212Z</time></trkpt><trkpt lat="43.4416941" lon="11.355334"><ele>351.8333333333333</ele><time>2026-03-28T10:15:17.212Z</time></trkpt><trkpt lat="43.4416235" lon="11.355381"><ele>355.0</ele><time>2026-03-28T10:15:18.211Z</time></trkpt><trkpt lat="43.4415616" lon="11.3554347"><ele>355.0</ele><time>2026-03-28T10:15:19.211Z</time></trkpt><trkpt lat="43.4414975" lon="11.3555273"><ele>355.0</ele><time>2026-03-28T10:15:20.211Z</time></trkpt><trkpt lat="43.4414432" lon="11.355617"><ele>355.0</ele><time>2026-03-28T10:15:21.212Z</time></trkpt><trkpt lat="43.4413841" lon="11.3557047"><ele>355.0</ele><time>2026-03-28T10:15:22.211Z</time></trkpt><trkpt lat="43.4413121" lon="11.3557744"><ele>355.0</ele><time>2026-03-28T10:15:23.212Z</time></trkpt><trkpt lat="43.4412379" lon="11.3558238"><ele>355.0</ele><time>2026-03-28T10:15:24.212Z</time></trkpt><trkpt lat="43.4411618" lon="11.3558529"><ele>354.6</ele><time>2026-03-28T10:15:25.212Z</time></trkpt><trkpt lat="43.4410971" lon="11.3558551"><ele>354.2</ele><time>2026-03-28T10:15:26.211Z</time></trkpt><trkpt lat="43.4410139" lon="11.3557623"><ele>353.79999999999995</ele><time>2026-03-28T10:15:28.212Z</time></trkpt><trkpt lat="43.4410048" lon="11.3556326"><ele>353.4</ele><time>2026-03-28T10:15:30.212Z</time></trkpt><trkpt lat="43.4410396" lon="11.355475"><ele>353.0</ele><time>2026-03-28T10:15:32.212Z</time></trkpt><trkpt lat="43.4410532" lon="11.3553845"><ele>353.0</ele><time>2026-03-28T10:15:33.211Z</time></trkpt><trkpt lat="43.441055" lon="11.3552629"><ele>353.0</ele><time>2026-03-28T10:15:34.211Z</time></trkpt><trkpt lat="43.4410479" lon="11.3551446"><ele>353.0</ele><time>2026-03-28T10:15:35.211Z</time></trkpt><trkpt lat="43.4410372" lon="11.3550175"><ele>353.0</ele><time>2026-03-28T10:15:36.211Z</time></trkpt><trkpt lat="43.4410205" lon="11.3548861"><ele>353.0</ele><time>2026-03-28T10:15:37.211Z</time></trkpt><trkpt lat="43.4409971" lon="11.3547437"><ele>353.5</ele><time>2026-03-28T10:15:38.211Z</time></trkpt><trkpt lat="43.4409665" lon="11.3545952"><ele>354.0</ele><time>2026-03-28T10:15:39.211Z</time></trkpt><trkpt lat="43.4409331" lon="11.3544382"><ele>354.5</ele><time>2026-03-28T10:15:40.211Z</time></trkpt><trkpt lat="43.4408952" lon="11.3542784"><ele>355.0</ele><time>2026-03-28T10:15:41.212Z</time></trkpt><trkpt lat="43.4408603" lon="11.3541143"><ele>355.0</ele><time>2026-03-28T10:15:42.212Z</time></trkpt><trkpt lat="43.4408317" lon="11.3539474"><ele>355.0</ele><time>2026-03-28T10:15:43.212Z</time></trkpt><trkpt lat="43.4408123" lon="11.3537778"><ele>355.0</ele><time>2026-03-28T10:15:44.211Z</time></trkpt><trkpt lat="43.4407952" lon="11.3536034"><ele>355.0</ele><time>2026-03-28T10:15:45.212Z</time></trkpt><trkpt lat="43.4407763" lon="11.3534231"><ele>356.5</ele><time>2026-03-28T10:15:46.212Z</time></trkpt><trkpt lat="43.4407577" lon="11.3532408"><ele>358.0</ele><time>2026-03-28T10:15:47.211Z</time></trkpt><trkpt lat="43.4407375" lon="11.3530555"><ele>359.5</ele><time>2026-03-28T10:15:48.211Z</time></trkpt><trkpt lat="43.4407186" lon="11.3528665"><ele>361.0</ele><time>2026-03-28T10:15:49.21Z</time></trkpt><trkpt lat="43.4406908" lon="11.3526833"><ele>362.5</ele><time>2026-03-28T10:15:50.212Z</time></trkpt><trkpt lat="43.4406609" lon="11.3525041"><ele>364.0</ele><time>2026-03-28T10:15:51.211Z</time></trkpt><trkpt lat="43.4406319" lon="11.3523313"><ele>365.5</ele><time>2026-03-28T10:15:52.211Z</time></trkpt><trkpt lat="43.4406063" lon="11.3521612"><ele>367.0</ele><time>2026-03-28T10:15:53.212Z</time></trkpt><trkpt lat="43.4405886" lon="11.3519931"><ele>367.8</ele><time>2026-03-28T10:15:54.211Z</time></trkpt><trkpt lat="43.4405769" lon="11.351847"><ele>368.6</ele><time>2026-03-28T10:15:55.211Z</time></trkpt><trkpt lat="43.4405568" lon="11.3517195"><ele>369.40000000000003</ele><time>2026-03-28T10:15:56.211Z</time></trkpt><trkpt lat="43.4405171" lon="11.3515975"><ele>370.20000000000005</ele><time>2026-03-28T10:15:57.21Z</time></trkpt><trkpt lat="43.440464" lon="11.351476"><ele>371.0</ele><time>2026-03-28T10:15:58.211Z</time></trkpt><trkpt lat="43.4404109" lon="11.3513434"><ele>371.4</ele><time>2026-03-28T10:15:59.212Z</time></trkpt><trkpt lat="43.4403608" lon="11.3512084"><ele>371.8</ele><time>2026-03-28T10:16:00.211Z</time></trkpt><trkpt lat="43.4403146" lon="11.3510562"><ele>372.2</ele><time>2026-03-28T10:16:01.21Z</time></trkpt><trkpt lat="43.4402658" lon="11.3509349"><ele>372.59999999999997</ele><time>2026-03-28T10:16:02.212Z</time></trkpt><trkpt lat="43.4402072" lon="11.3508117"><ele>373.0</ele><time>2026-03-28T10:16:03.211Z</time></trkpt><trkpt lat="43.4401098" lon="11.3507122"><ele>373.0</ele><time>2026-03-28T10:16:04.211Z</time></trkpt><trkpt lat="43.4400064" lon="11.3506082"><ele>373.0</ele><time>2026-03-28T10:16:05.212Z</time></trkpt><trkpt lat="43.4398954" lon="11.3505186"><ele>373.0</ele><time>2026-03-28T10:16:06.211Z</time></trkpt><trkpt lat="43.4397827" lon="11.3504421"><ele>373.0</ele><time>2026-03-28T10:16:07.211Z</time></trkpt><trkpt lat="43.4396721" lon="11.3503775"><ele>374.0</ele><time>2026-03-28T10:16:08.211Z</time></trkpt><trkpt lat="43.4395578" lon="11.3503246"><ele>375.0</ele><time>2026-03-28T10:16:09.212Z</time></trkpt><trkpt lat="43.4394446" lon="11.3502774"><ele>376.0</ele><time>2026-03-28T10:16:10.212Z</time></trkpt><trkpt lat="43.4393312" lon="11.350235"><ele>377.0</ele><time>2026-03-28T10:16:11.211Z</time></trkpt><trkpt lat="43.4392223" lon="11.35019"><ele>377.0</ele><time>2026-03-28T10:16:12.212Z</time></trkpt><trkpt lat="43.4391196" lon="11.350142"><ele>377.0</ele><time>2026-03-28T10:16:13.212Z</time></trkpt><trkpt lat="43.4390161" lon="11.3500955"><ele>377.0</ele><time>2026-03-28T10:16:14.211Z</time></trkpt><trkpt lat="43.4389188" lon="11.3500465"><ele>377.0</ele><time>2026-03-28T10:16:15.212Z</time></trkpt><trkpt lat="43.4388027" lon="11.3500016"><ele>377.0</ele><time>2026-03-28T10:16:16.211Z</time></trkpt><trkpt lat="43.4386783" lon="11.3499457"><ele>376.5</ele><time>2026-03-28T10:16:17.211Z</time></trkpt><trkpt lat="43.4385433" lon="11.3498753"><ele>376.0</ele><time>2026-03-28T10:16:18.212Z</time></trkpt><trkpt lat="43.4384171" lon="11.3497912"><ele>375.5</ele><time>2026-03-28T10:16:19.211Z</time></trkpt><trkpt lat="43.4382901" lon="11.3496724"><ele>375.0</ele><time>2026-03-28T10:16:20.211Z</time></trkpt><trkpt lat="43.4381864" lon="11.3495273"><ele>378.0</ele><time>2026-03-28T10:16:21.211Z</time></trkpt><trkpt lat="43.4381013" lon="11.34935"><ele>381.0</ele><time>2026-03-28T10:16:22.212Z</time></trkpt><trkpt lat="43.4380271" lon="11.3491324"><ele>384.0</ele><time>2026-03-28T10:16:23.211Z</time></trkpt><trkpt lat="43.4379734" lon="11.3489134"><ele>382.25</ele><time>2026-03-28T10:16:24.211Z</time></trkpt><trkpt lat="43.4379201" lon="11.3487287"><ele>380.5</ele><time>2026-03-28T10:16:25.211Z</time></trkpt><trkpt lat="43.4378552" lon="11.3485673"><ele>378.75</ele><time>2026-03-28T10:16:26.212Z</time></trkpt><trkpt lat="43.4377744" lon="11.3484461"><ele>377.0</ele><time>2026-03-28T10:16:27.211Z</time></trkpt><trkpt lat="43.4376677" lon="11.3483781"><ele>377.0</ele><time>2026-03-28T10:16:28.212Z</time></trkpt><trkpt lat="43.4375482" lon="11.3483649"><ele>377.0</ele><time>2026-03-28T10:16:29.212Z</time></trkpt><trkpt lat="43.4374269" lon="11.3483785"><ele>377.0</ele><time>2026-03-28T10:16:30.211Z</time></trkpt><trkpt lat="43.4373415" lon="11.3485236"><ele>377.0</ele><time>2026-03-28T10:16:31.212Z</time></trkpt><trkpt lat="43.4372406" lon="11.3486381"><ele>377.0</ele><time>2026-03-28T10:16:32.211Z</time></trkpt><trkpt lat="43.4372228" lon="11.3488467"><ele>377.0</ele><time>2026-03-28T10:16:33.211Z</time></trkpt><trkpt lat="43.4371745" lon="11.349019"><ele>377.0</ele><time>2026-03-28T10:16:34.211Z</time></trkpt><trkpt lat="43.437125" lon="11.349178"><ele>377.0</ele><time>2026-03-28T10:16:35.211Z</time></trkpt><trkpt lat="43.4370464" lon="11.3492835"><ele>376.20000000000005</ele><time>2026-03-28T10:16:36.211Z</time></trkpt><trkpt lat="43.4369477" lon="11.349341"><ele>375.4</ele><time>2026-03-28T10:16:37.211Z</time></trkpt><trkpt lat="43.4368389" lon="11.3493688"><ele>374.6</ele><time>2026-03-28T10:16:38.211Z</time></trkpt><trkpt lat="43.4367366" lon="11.3493705"><ele>373.79999999999995</ele><time>2026-03-28T10:16:39.211Z</time></trkpt><trkpt lat="43.4366222" lon="11.3493322"><ele>373.0</ele><time>2026-03-28T10:16:40.211Z</time></trkpt><trkpt lat="43.4365433" lon="11.3492158"><ele>373.0</ele><time>2026-03-28T10:16:41.212Z</time></trkpt><trkpt lat="43.4364664" lon="11.3490891"><ele>373.0</ele><time>2026-03-28T10:16:42.212Z</time></trkpt><trkpt lat="43.4363698" lon="11.3489899"><ele>373.0</ele><time>2026-03-28T10:16:43.211Z</time></trkpt><trkpt lat="43.436262" lon="11.3488975"><ele>373.0</ele><time>2026-03-28T10:16:44.211Z</time></trkpt><trkpt lat="43.4361447" lon="11.3488144"><ele>375.5</ele><time>2026-03-28T10:16:45.211Z</time></trkpt><trkpt lat="43.4360275" lon="11.3487443"><ele>378.0</ele><time>2026-03-28T10:16:46.21Z</time></trkpt><trkpt lat="43.435905" lon="11.3486944"><ele>380.5</ele><time>2026-03-28T10:16:47.211Z</time></trkpt><trkpt lat="43.4357703" lon="11.3486795"><ele>383.0</ele><time>2026-03-28T10:16:48.211Z</time></trkpt><trkpt lat="43.4356295" lon="11.3487071"><ele>383.0</ele><time>2026-03-28T10:16:49.211Z</time></trkpt><trkpt lat="43.4354924" lon="11.3487489"><ele>383.0</ele><time>2026-03-28T10:16:50.211Z</time></trkpt><trkpt lat="43.4353669" lon="11.3487815"><ele>383.0</ele><time>2026-03-28T10:16:51.211Z</time></trkpt><trkpt lat="43.4352492" lon="11.348798"><ele>383.0</ele><time>2026-03-28T10:16:52.211Z</time></trkpt><trkpt lat="43.4351392" lon="11.3487866"><ele>383.2</ele><time>2026-03-28T10:16:53.212Z</time></trkpt><trkpt lat="43.4350377" lon="11.3487502"><ele>383.4</ele><time>2026-03-28T10:16:54.212Z</time></trkpt><trkpt lat="43.4349427" lon="11.3487254"><ele>383.59999999999997</ele><time>2026-03-28T10:16:55.211Z</time></trkpt><trkpt lat="43.4348514" lon="11.3487226"><ele>383.79999999999995</ele><time>2026-03-28T10:16:56.211Z</time></trkpt><trkpt lat="43.4347721" lon="11.3487547"><ele>384.0</ele><time>2026-03-28T10:16:57.211Z</time></trkpt><trkpt lat="43.4347081" lon="11.3488068"><ele>385.6</ele><time>2026-03-28T10:16:58.212Z</time></trkpt><trkpt lat="43.4346585" lon="11.3489056"><ele>387.2</ele><time>2026-03-28T10:16:59.211Z</time></trkpt><trkpt lat="43.4346095" lon="11.3490088"><ele>388.8</ele><time>2026-03-28T10:17:00.212Z</time></trkpt><trkpt lat="43.4345661" lon="11.349141"><ele>390.40000000000003</ele><time>2026-03-28T10:17:01.212Z</time></trkpt><trkpt lat="43.4345206" lon="11.3492716"><ele>392.0</ele><time>2026-03-28T10:17:02.211Z</time></trkpt><trkpt lat="43.4344771" lon="11.3494079"><ele>392.0</ele><time>2026-03-28T10:17:03.212Z</time></trkpt><trkpt lat="43.4344299" lon="11.3495539"><ele>392.0</ele><time>2026-03-28T10:17:04.212Z</time></trkpt><trkpt lat="43.4343733" lon="11.3496988"><ele>392.0</ele><time>2026-03-28T10:17:05.212Z</time></trkpt><trkpt lat="43.4343031" lon="11.3498386"><ele>392.0</ele><time>2026-03-28T10:17:06.212Z</time></trkpt><trkpt lat="43.4342149" lon="11.3499703"><ele>389.5</ele><time>2026-03-28T10:17:07.211Z</time></trkpt><trkpt lat="43.4341178" lon="11.3500978"><ele>387.0</ele><time>2026-03-28T10:17:08.211Z</time></trkpt><trkpt lat="43.4340151" lon="11.350227"><ele>384.5</ele><time>2026-03-28T10:17:09.21Z</time></trkpt><trkpt lat="43.4339169" lon="11.3503476"><ele>382.0</ele><time>2026-03-28T10:17:10.211Z</time></trkpt><trkpt lat="43.4338192" lon="11.350463"><ele>381.75</ele><time>2026-03-28T10:17:11.212Z</time></trkpt><trkpt lat="43.4337153" lon="11.3505753"><ele>381.5</ele><time>2026-03-28T10:17:12.212Z</time></trkpt><trkpt lat="43.4336064" lon="11.3506913"><ele>381.25</ele><time>2026-03-28T10:17:13.211Z</time></trkpt><trkpt lat="43.4334889" lon="11.350813"><ele>381.0</ele><time>2026-03-28T10:17:14.212Z</time></trkpt><trkpt lat="43.4333649" lon="11.3509293"><ele>381.0</ele><time>2026-03-28T10:17:15.212Z</time></trkpt><trkpt lat="43.4332398" lon="11.3510405"><ele>381.0</ele><time>2026-03-28T10:17:16.211Z</time></trkpt><trkpt lat="43.4331165" lon="11.351138"><ele>381.0</ele><time>2026-03-28T10:17:17.212Z</time></trkpt><trkpt lat="43.4329975" lon="11.3512276"><ele>381.0</ele><time>2026-03-28T10:17:18.211Z</time></trkpt><trkpt lat="43.4328792" lon="11.3513075"><ele>383.25</ele><time>2026-03-28T10:17:19.212Z</time></trkpt><trkpt lat="43.4327656" lon="11.3513617"><ele>385.5</ele><time>2026-03-28T10:17:20.212Z</time></trkpt><trkpt lat="43.4326494" lon="11.3513894"><ele>387.75</ele><time>2026-03-28T10:17:21.211Z</time></trkpt><trkpt lat="43.432531" lon="11.3513855"><ele>390.0</ele><time>2026-03-28T10:17:22.212Z</time></trkpt><trkpt lat="43.4324118" lon="11.3513745"><ele>391.5</ele><time>2026-03-28T10:17:23.212Z</time></trkpt><trkpt lat="43.4322908" lon="11.3513645"><ele>393.0</ele><time>2026-03-28T10:17:24.212Z</time></trkpt><trkpt lat="43.4321583" lon="11.351364"><ele>394.5</ele><time>2026-03-28T10:17:25.212Z</time></trkpt><trkpt lat="43.4320482" lon="11.3513382"><ele>396.0</ele><time>2026-03-28T10:17:26.212Z</time></trkpt><trkpt lat="43.4319575" lon="11.3512765"><ele>396.0</ele><time>2026-03-28T10:17:27.212Z</time></trkpt><trkpt lat="43.4318644" lon="11.3512334"><ele>396.0</ele><time>2026-03-28T10:17:28.211Z</time></trkpt><trkpt lat="43.4317884" lon="11.3511437"><ele>396.0</ele><time>2026-03-28T10:17:29.212Z</time></trkpt><trkpt lat="43.4317155" lon="11.3510684"><ele>396.0</ele><time>2026-03-28T10:17:30.211Z</time></trkpt><trkpt lat="43.4316484" lon="11.3509892"><ele>396.0</ele><time>2026-03-28T10:17:31.211Z</time></trkpt><trkpt lat="43.4315909" lon="11.3509035"><ele>396.0</ele><time>2026-03-28T10:17:32.21Z</time></trkpt><trkpt lat="43.4315385" lon="11.3508221"><ele>396.0</ele><time>2026-03-28T10:17:33.211Z</time></trkpt><trkpt lat="43.4314883" lon="11.3507506"><ele>396.0</ele><time>2026-03-28T10:17:34.21Z</time></trkpt><trkpt lat="43.4314348" lon="11.3506973"><ele>396.0</ele><time>2026-03-28T10:17:35.211Z</time></trkpt><trkpt lat="43.4313696" lon="11.3506654"><ele>396.0</ele><time>2026-03-28T10:17:36.212Z</time></trkpt><trkpt lat="43.4312992" lon="11.3506663"><ele>396.0</ele><time>2026-03-28T10:17:37.212Z</time></trkpt><trkpt lat="43.4312275" lon="11.3506993"><ele>396.0</ele><time>2026-03-28T10:17:38.211Z</time></trkpt><trkpt lat="43.4311499" lon="11.3507555"><ele>392.5</ele><time>2026-03-28T10:17:39.21Z</time></trkpt><trkpt lat="43.4310546" lon="11.3508211"><ele>389.0</ele><time>2026-03-28T10:17:40.211Z</time></trkpt><trkpt lat="43.4309439" lon="11.3508717"><ele>385.5</ele><time>2026-03-28T10:17:41.212Z</time></trkpt><trkpt lat="43.4308186" lon="11.3508981"><ele>382.0</ele><time>2026-03-28T10:17:42.211Z</time></trkpt><trkpt lat="43.4306885" lon="11.3508948"><ele>382.0</ele><time>2026-03-28T10:17:43.212Z</time></trkpt><trkpt lat="43.4305491" lon="11.350872"><ele>382.0</ele><time>2026-03-28T10:17:44.212Z</time></trkpt><trkpt lat="43.4304097" lon="11.3508575"><ele>382.0</ele><time>2026-03-28T10:17:45.211Z</time></trkpt><trkpt lat="43.4302845" lon="11.3508463"><ele>382.0</ele><time>2026-03-28T10:17:46.211Z</time></trkpt><trkpt lat="43.4301599" lon="11.3508458"><ele>381.25</ele><time>2026-03-28T10:17:47.211Z</time></trkpt><trkpt lat="43.4300429" lon="11.3508593"><ele>380.5</ele><time>2026-03-28T10:17:48.21Z</time></trkpt><trkpt lat="43.4299357" lon="11.3508771"><ele>379.75</ele><time>2026-03-28T10:17:49.212Z</time></trkpt><trkpt lat="43.429823" lon="11.3508878"><ele>379.0</ele><time>2026-03-28T10:17:50.211Z</time></trkpt><trkpt lat="43.4297004" lon="11.3508726"><ele>377.5</ele><time>2026-03-28T10:17:51.211Z</time></trkpt><trkpt lat="43.4295833" lon="11.35082"><ele>376.0</ele><time>2026-03-28T10:17:52.212Z</time></trkpt><trkpt lat="43.4294733" lon="11.3507479"><ele>374.5</ele><time>2026-03-28T10:17:53.211Z</time></trkpt><trkpt lat="43.4293601" lon="11.3506651"><ele>373.0</ele><time>2026-03-28T10:17:54.211Z</time></trkpt><trkpt lat="43.4292438" lon="11.3505896"><ele>373.79999999999995</ele><time>2026-03-28T10:17:55.211Z</time></trkpt><trkpt lat="43.4291379" lon="11.3505169"><ele>374.6</ele><time>2026-03-28T10:17:56.211Z</time></trkpt><trkpt lat="43.4290417" lon="11.3504539"><ele>375.4</ele><time>2026-03-28T10:17:57.211Z</time></trkpt><trkpt lat="43.4289566" lon="11.350391"><ele>376.20000000000005</ele><time>2026-03-28T10:17:58.212Z</time></trkpt><trkpt lat="43.4288741" lon="11.3503209"><ele>377.0</ele><time>2026-03-28T10:17:59.211Z</time></trkpt><trkpt lat="43.4287837" lon="11.350255"><ele>377.0</ele><time>2026-03-28T10:18:00.211Z</time></trkpt><trkpt lat="43.4287008" lon="11.3501942"><ele>377.0</ele><time>2026-03-28T10:18:01.211Z</time></trkpt><trkpt lat="43.4286244" lon="11.350127"><ele>377.0</ele><time>2026-03-28T10:18:02.211Z</time></trkpt><trkpt lat="43.4285436" lon="11.350071"><ele>377.0</ele><time>2026-03-28T10:18:03.211Z</time></trkpt><trkpt lat="43.428451" lon="11.3500374"><ele>377.0</ele><time>2026-03-28T10:18:04.211Z</time></trkpt><trkpt lat="43.4283425" lon="11.3500193"><ele>377.0</ele><time>2026-03-28T10:18:05.212Z</time></trkpt><trkpt lat="43.4282348" lon="11.3500209"><ele>377.0</ele><time>2026-03-28T10:18:06.211Z</time></trkpt><trkpt lat="43.4281215" lon="11.3500382"><ele>377.0</ele><time>2026-03-28T10:18:07.212Z</time></trkpt><trkpt lat="43.4280047" lon="11.350078"><ele>377.0</ele><time>2026-03-28T10:18:08.211Z</time></trkpt><trkpt lat="43.4278904" lon="11.3501439"><ele>377.25</ele><time>2026-03-28T10:18:09.211Z</time></trkpt><trkpt lat="43.4277759" lon="11.3502124"><ele>377.5</ele><time>2026-03-28T10:18:10.212Z</time></trkpt><trkpt lat="43.4276606" lon="11.3502664"><ele>377.75</ele><time>2026-03-28T10:18:11.212Z</time></trkpt><trkpt lat="43.4275412" lon="11.3503128"><ele>378.0</ele><time>2026-03-28T10:18:12.212Z</time></trkpt><trkpt lat="43.4274239" lon="11.3503572"><ele>378.0</ele><time>2026-03-28T10:18:13.212Z</time></trkpt><trkpt lat="43.4273049" lon="11.3503987"><ele>378.0</ele><time>2026-03-28T10:18:14.211Z</time></trkpt><trkpt lat="43.4271931" lon="11.3504435"><ele>378.0</ele><time>2026-03-28T10:18:15.211Z</time></trkpt><trkpt lat="43.4270919" lon="11.3505041"><ele>378.0</ele><time>2026-03-28T10:18:16.212Z</time></trkpt><trkpt lat="43.4270077" lon="11.3505818"><ele>380.6666666666667</ele><time>2026-03-28T10:18:17.211Z</time></trkpt><trkpt lat="43.426951" lon="11.3506683"><ele>383.33333333333337</ele><time>2026-03-28T10:18:18.211Z</time></trkpt><trkpt lat="43.4268953" lon="11.3507631"><ele>386.0</ele><time>2026-03-28T10:18:19.212Z</time></trkpt><trkpt lat="43.4268573" lon="11.3508511"><ele>388.6666666666667</ele><time>2026-03-28T10:18:20.211Z</time></trkpt><trkpt lat="43.426818" lon="11.3509494"><ele>391.33333333333337</ele><time>2026-03-28T10:18:21.212Z</time></trkpt><trkpt lat="43.4267771" lon="11.3510511"><ele>394.0</ele><time>2026-03-28T10:18:22.211Z</time></trkpt><trkpt lat="43.4267433" lon="11.3511585"><ele>394.0</ele><time>2026-03-28T10:18:23.212Z</time></trkpt><trkpt lat="43.426688" lon="11.3512675"><ele>394.0</ele><time>2026-03-28T10:18:24.212Z</time></trkpt><trkpt lat="43.426639" lon="11.35139"><ele>394.0</ele><time>2026-03-28T10:18:25.21Z</time></trkpt><trkpt lat="43.426581" lon="11.351502"><ele>394.0</ele><time>2026-03-28T10:18:26.211Z</time></trkpt><trkpt lat="43.4265031" lon="11.3516089"><ele>394.0</ele><time>2026-03-28T10:18:27.211Z</time></trkpt><trkpt lat="43.4264162" lon="11.351716"><ele>392.75</ele><time>2026-03-28T10:18:28.212Z</time></trkpt><trkpt lat="43.426321" lon="11.3518217"><ele>391.5</ele><time>2026-03-28T10:18:29.212Z</time></trkpt><trkpt lat="43.4262199" lon="11.3519147"><ele>390.25</ele><time>2026-03-28T10:18:30.212Z</time></trkpt><trkpt lat="43.4261237" lon="11.3519942"><ele>389.0</ele><time>2026-03-28T10:18:31.211Z</time></trkpt><trkpt lat="43.4260424" lon="11.3520878"><ele>392.0</ele><time>2026-03-28T10:18:32.211Z</time></trkpt><trkpt lat="43.4259653" lon="11.3522023"><ele>395.0</ele><time>2026-03-28T10:18:33.211Z</time></trkpt><trkpt lat="43.4259027" lon="11.3523404"><ele>398.0</ele><time>2026-03-28T10:18:34.211Z</time></trkpt><trkpt lat="43.4258584" lon="11.3524983"><ele>401.0</ele><time>2026-03-28T10:18:35.211Z</time></trkpt><trkpt lat="43.4258174" lon="11.3526829"><ele>401.0</ele><time>2026-03-28T10:18:36.211Z</time></trkpt><trkpt lat="43.4257818" lon="11.3528683"><ele>401.0</ele><time>2026-03-28T10:18:37.212Z</time></trkpt><trkpt lat="43.4257745" lon="11.3530366"><ele>401.0</ele><time>2026-03-28T10:18:38.211Z</time></trkpt><trkpt lat="43.425781" lon="11.3532112"><ele>401.0</ele><time>2026-03-28T10:18:39.211Z</time></trkpt><trkpt lat="43.4257826" lon="11.3533792"><ele>400.5</ele><time>2026-03-28T10:18:40.211Z</time></trkpt><trkpt lat="43.4257956" lon="11.3535512"><ele>400.0</ele><time>2026-03-28T10:18:41.212Z</time></trkpt><trkpt lat="43.4257933" lon="11.353727"><ele>399.5</ele><time>2026-03-28T10:18:42.211Z</time></trkpt><trkpt lat="43.4257635" lon="11.353901"><ele>399.0</ele><time>2026-03-28T10:18:43.212Z</time></trkpt><trkpt lat="43.4257155" lon="11.3540657"><ele>400.6</ele><time>2026-03-28T10:18:44.212Z</time></trkpt><trkpt lat="43.4256532" lon="11.3542169"><ele>402.2</ele><time>2026-03-28T10:18:45.212Z</time></trkpt><trkpt lat="43.4255706" lon="11.3543291"><ele>403.8</ele><time>2026-03-28T10:18:46.212Z</time></trkpt><trkpt lat="43.4254762" lon="11.3543763"><ele>405.40000000000003</ele><time>2026-03-28T10:18:47.212Z</time></trkpt><trkpt lat="43.4253719" lon="11.3543954"><ele>407.0</ele><time>2026-03-28T10:18:48.212Z</time></trkpt><trkpt lat="43.4252633" lon="11.3544053"><ele>409.8333333333333</ele><time>2026-03-28T10:18:49.211Z</time></trkpt><trkpt lat="43.4251677" lon="11.3544283"><ele>412.66666666666663</ele><time>2026-03-28T10:18:50.212Z</time></trkpt><trkpt lat="43.4250869" lon="11.3544763"><ele>415.5</ele><time>2026-03-28T10:18:51.212Z</time></trkpt><trkpt lat="43.4250355" lon="11.3545629"><ele>418.33333333333337</ele><time>2026-03-28T10:18:52.211Z</time></trkpt><trkpt lat="43.4250047" lon="11.3546793"><ele>421.1666666666667</ele><time>2026-03-28T10:18:53.211Z</time></trkpt><trkpt lat="43.4249625" lon="11.3547841"><ele>424.0</ele><time>2026-03-28T10:18:54.211Z</time></trkpt><trkpt lat="43.4248851" lon="11.3548213"><ele>424.0</ele><time>2026-03-28T10:18:55.211Z</time></trkpt><trkpt lat="43.4248053" lon="11.3548313"><ele>424.0</ele><time>2026-03-28T10:18:56.212Z</time></trkpt><trkpt lat="43.4247148" lon="11.3548325"><ele>424.0</ele><time>2026-03-28T10:18:57.21Z</time></trkpt><trkpt lat="43.4246093" lon="11.3548259"><ele>424.0</ele><time>2026-03-28T10:18:58.211Z</time></trkpt><trkpt lat="43.4244868" lon="11.3548182"><ele>424.0</ele><time>2026-03-28T10:18:59.211Z</time></trkpt><trkpt lat="43.4243735" lon="11.3547964"><ele>423.0</ele><time>2026-03-28T10:19:00.211Z</time></trkpt><trkpt lat="43.4242575" lon="11.3547478"><ele>422.0</ele><time>2026-03-28T10:19:01.211Z</time></trkpt><trkpt lat="43.4241633" lon="11.3546495"><ele>421.0</ele><time>2026-03-28T10:19:02.212Z</time></trkpt><trkpt lat="43.4240983" lon="11.3545524"><ele>420.0</ele><time>2026-03-28T10:19:03.212Z</time></trkpt><trkpt lat="43.4240342" lon="11.3544527"><ele>419.0</ele><time>2026-03-28T10:19:04.211Z</time></trkpt><trkpt lat="43.4239837" lon="11.354349"><ele>421.66666666666663</ele><time>2026-03-28T10:19:05.211Z</time></trkpt><trkpt lat="43.4239349" lon="11.354249"><ele>424.3333333333333</ele><time>2026-03-28T10:19:06.211Z</time></trkpt><trkpt lat="43.4239038" lon="11.3541413"><ele>427.0</ele><time>2026-03-28T10:19:07.212Z</time></trkpt><trkpt lat="43.4238823" lon="11.35403"><ele>429.66666666666663</ele><time>2026-03-28T10:19:08.212Z</time></trkpt><trkpt lat="43.423866" lon="11.3539139"><ele>432.3333333333333</ele><time>2026-03-28T10:19:09.212Z</time></trkpt><trkpt lat="43.423851" lon="11.3537946"><ele>435.0</ele><time>2026-03-28T10:19:10.211Z</time></trkpt><trkpt lat="43.4238386" lon="11.3536701"><ele>434.6</ele><time>2026-03-28T10:19:11.211Z</time></trkpt><trkpt lat="43.4238247" lon="11.3535343"><ele>434.2</ele><time>2026-03-28T10:19:12.211Z</time></trkpt><trkpt lat="43.423809" lon="11.3533825"><ele>433.79999999999995</ele><time>2026-03-28T10:19:13.212Z</time></trkpt><trkpt lat="43.4237873" lon="11.353226"><ele>433.4</ele><time>2026-03-28T10:19:14.211Z</time></trkpt><trkpt lat="43.4237649" lon="11.3530652"><ele>433.0</ele><time>2026-03-28T10:19:15.211Z</time></trkpt><trkpt lat="43.4237449" lon="11.3528997"><ele>435.0</ele><time>2026-03-28T10:19:16.211Z</time></trkpt><trkpt lat="43.4237231" lon="11.3527313"><ele>436.99999999999994</ele><time>2026-03-28T10:19:17.212Z</time></trkpt><trkpt lat="43.4237064" lon="11.3525882"><ele>438.99999999999994</ele><time>2026-03-28T10:19:18.211Z</time></trkpt><trkpt lat="43.4236951" lon="11.3524393"><ele>441.0</ele><time>2026-03-28T10:19:19.211Z</time></trkpt><trkpt lat="43.4236928" lon="11.3522894"><ele>443.0</ele><time>2026-03-28T10:19:20.211Z</time></trkpt><trkpt lat="43.4237084" lon="11.3521363"><ele>444.25</ele><time>2026-03-28T10:19:21.211Z</time></trkpt><trkpt lat="43.4237428" lon="11.3519892"><ele>445.5</ele><time>2026-03-28T10:19:22.211Z</time></trkpt><trkpt lat="43.4237878" lon="11.3518436"><ele>446.75</ele><time>2026-03-28T10:19:23.211Z</time></trkpt><trkpt lat="43.4238349" lon="11.3516956"><ele>448.0</ele><time>2026-03-28T10:19:24.211Z</time></trkpt><trkpt lat="43.4238833" lon="11.3515445"><ele>449.0</ele><time>2026-03-28T10:19:25.212Z</time></trkpt><trkpt lat="43.4239243" lon="11.3513878"><ele>450.0</ele><time>2026-03-28T10:19:26.211Z</time></trkpt><trkpt lat="43.4239634" lon="11.3512191"><ele>451.0</ele><time>2026-03-28T10:19:27.211Z</time></trkpt><trkpt lat="43.4239931" lon="11.3510429"><ele>452.0</ele><time>2026-03-28T10:19:28.211Z</time></trkpt><trkpt lat="43.4240035" lon="11.3508811"><ele>452.20000000000005</ele><time>2026-03-28T10:19:29.211Z</time></trkpt><trkpt lat="43.4240053" lon="11.3507344"><ele>452.40000000000003</ele><time>2026-03-28T10:19:30.211Z</time></trkpt><trkpt lat="43.4240135" lon="11.3505998"><ele>452.59999999999997</ele><time>2026-03-28T10:19:31.211Z</time></trkpt><trkpt lat="43.4240087" lon="11.3504754"><ele>452.79999999999995</ele><time>2026-03-28T10:19:32.211Z</time></trkpt><trkpt lat="43.4239822" lon="11.3503614"><ele>453.0</ele><time>2026-03-28T10:19:33.212Z</time></trkpt><trkpt lat="43.4239334" lon="11.3502688"><ele>454.8333333333333</ele><time>2026-03-28T10:19:34.211Z</time></trkpt><trkpt lat="43.4238674" lon="11.350212"><ele>456.66666666666663</ele><time>2026-03-28T10:19:35.211Z</time></trkpt><trkpt lat="43.4237868" lon="11.3501867"><ele>458.5</ele><time>2026-03-28T10:19:36.211Z</time></trkpt><trkpt lat="43.4237085" lon="11.3501906"><ele>460.3333333333333</ele><time>2026-03-28T10:19:37.212Z</time></trkpt><trkpt lat="43.4236221" lon="11.3502191"><ele>462.16666666666663</ele><time>2026-03-28T10:19:38.211Z</time></trkpt><trkpt lat="43.4235361" lon="11.3502489"><ele>464.0</ele><time>2026-03-28T10:19:39.211Z</time></trkpt><trkpt lat="43.4234534" lon="11.3502919"><ele>463.3333333333333</ele><time>2026-03-28T10:19:40.211Z</time></trkpt><trkpt lat="43.4233727" lon="11.3503171"><ele>462.66666666666663</ele><time>2026-03-28T10:19:41.211Z</time></trkpt><trkpt lat="43.4232953" lon="11.350377"><ele>462.0</ele><time>2026-03-28T10:19:42.211Z</time></trkpt><trkpt lat="43.423221" lon="11.3504488"><ele>461.33333333333337</ele><time>2026-03-28T10:19:43.21Z</time></trkpt><trkpt lat="43.4231575" lon="11.3505267"><ele>460.6666666666667</ele><time>2026-03-28T10:19:44.211Z</time></trkpt><trkpt lat="43.4230906" lon="11.3506062"><ele>460.0</ele><time>2026-03-28T10:19:45.212Z</time></trkpt><trkpt lat="43.423024" lon="11.3506563"><ele>460.50000000000006</ele><time>2026-03-28T10:19:46.21Z</time></trkpt><trkpt lat="43.4229584" lon="11.3506597"><ele>461.0</ele><time>2026-03-28T10:19:47.211Z</time></trkpt><trkpt lat="43.4228659" lon="11.3505644"><ele>461.5</ele><time>2026-03-28T10:19:49.212Z</time></trkpt><trkpt lat="43.4228395" lon="11.3504818"><ele>462.0</ele><time>2026-03-28T10:19:50.211Z</time></trkpt><trkpt lat="43.4228004" lon="11.3503964"><ele>462.50000000000006</ele><time>2026-03-28T10:19:51.21Z</time></trkpt><trkpt lat="43.4227749" lon="11.3502988"><ele>463.0</ele><time>2026-03-28T10:19:52.211Z</time></trkpt><trkpt lat="43.4227176" lon="11.3502237"><ele>467.2</ele><time>2026-03-28T10:19:53.21Z</time></trkpt><trkpt lat="43.4226551" lon="11.3501456"><ele>471.4</ele><time>2026-03-28T10:19:54.211Z</time></trkpt><trkpt lat="43.4225801" lon="11.3500812"><ele>475.59999999999997</ele><time>2026-03-28T10:19:55.21Z</time></trkpt><trkpt lat="43.4224916" lon="11.350022"><ele>479.79999999999995</ele><time>2026-03-28T10:19:56.212Z</time></trkpt><trkpt lat="43.422398" lon="11.3499717"><ele>484.0</ele><time>2026-03-28T10:19:57.212Z</time></trkpt><trkpt lat="43.4223099" lon="11.3499123"><ele>484.0</ele><time>2026-03-28T10:19:58.211Z</time></trkpt><trkpt lat="43.4222317" lon="11.3498419"><ele>484.0</ele><time>2026-03-28T10:19:59.211Z</time></trkpt><trkpt lat="43.4221508" lon="11.3497719"><ele>484.0</ele><time>2026-03-28T10:20:00.211Z</time></trkpt><trkpt lat="43.4220729" lon="11.3496808"><ele>484.0</ele><time>2026-03-28T10:20:01.211Z</time></trkpt><trkpt lat="43.4219792" lon="11.3495922"><ele>484.0</ele><time>2026-03-28T10:20:02.211Z</time></trkpt><trkpt lat="43.4218807" lon="11.349547"><ele>486.79999999999995</ele><time>2026-03-28T10:20:03.211Z</time></trkpt><trkpt lat="43.4217647" lon="11.3495337"><ele>489.59999999999997</ele><time>2026-03-28T10:20:04.212Z</time></trkpt><trkpt lat="43.4216499" lon="11.3495593"><ele>492.4</ele><time>2026-03-28T10:20:05.212Z</time></trkpt><trkpt lat="43.4215544" lon="11.3495638"><ele>495.2</ele><time>2026-03-28T10:20:06.211Z</time></trkpt><trkpt lat="43.4214611" lon="11.3495214"><ele>498.0</ele><time>2026-03-28T10:20:07.212Z</time></trkpt><trkpt lat="43.421394" lon="11.3494524"><ele>498.0</ele><time>2026-03-28T10:20:08.211Z</time></trkpt><trkpt lat="43.4213594" lon="11.349355"><ele>497.99999999999994</ele><time>2026-03-28T10:20:09.211Z</time></trkpt><trkpt lat="43.4213444" lon="11.3492249"><ele>497.99999999999994</ele><time>2026-03-28T10:20:10.211Z</time></trkpt><trkpt lat="43.4213358" lon="11.3490758"><ele>498.0</ele><time>2026-03-28T10:20:11.211Z</time></trkpt><trkpt lat="43.4213324" lon="11.3489019"><ele>498.0</ele><time>2026-03-28T10:20:12.211Z</time></trkpt><trkpt lat="43.421341" lon="11.348718"><ele>498.59999999999997</ele><time>2026-03-28T10:20:13.211Z</time></trkpt><trkpt lat="43.4213628" lon="11.3485583"><ele>499.19999999999993</ele><time>2026-03-28T10:20:14.211Z</time></trkpt><trkpt lat="43.4213845" lon="11.3484006"><ele>499.8</ele><time>2026-03-28T10:20:15.211Z</time></trkpt><trkpt lat="43.4213964" lon="11.3482635"><ele>500.4</ele><time>2026-03-28T10:20:16.211Z</time></trkpt><trkpt lat="43.4214049" lon="11.3481236"><ele>501.0</ele><time>2026-03-28T10:20:17.211Z</time></trkpt><trkpt lat="43.4214121" lon="11.3479967"><ele>501.0</ele><time>2026-03-28T10:20:18.211Z</time></trkpt><trkpt lat="43.4214199" lon="11.3478924"><ele>501.0</ele><time>2026-03-28T10:20:19.211Z</time></trkpt><trkpt lat="43.4214212" lon="11.3477893"><ele>501.0</ele><time>2026-03-28T10:20:20.211Z</time></trkpt><trkpt lat="43.4214149" lon="11.3476939"><ele>501.0</ele><time>2026-03-28T10:20:21.21Z</time></trkpt><trkpt lat="43.4213806" lon="11.34754"><ele>501.0</ele><time>2026-03-28T10:20:23.211Z</time></trkpt><trkpt lat="43.4213122" lon="11.3474302"><ele>501.0</ele><time>2026-03-28T10:20:25.212Z</time></trkpt><trkpt lat="43.4212385" lon="11.3473541"><ele>501.0</ele><time>2026-03-28T10:20:27.212Z</time></trkpt><trkpt lat="43.4211747" lon="11.3472973"><ele>501.0</ele><time>2026-03-28T10:20:29.212Z</time></trkpt><trkpt lat="43.4210701" lon="11.3472746"><ele>501.0</ele><time>2026-03-28T10:22:03.212Z</time></trkpt><trkpt lat="43.4210004" lon="11.347262"><ele>501.0</ele><time>2026-03-28T10:22:04.212Z</time></trkpt><trkpt lat="43.4209087" lon="11.3472584"><ele>501.0</ele><time>2026-03-28T10:22:05.211Z</time></trkpt><trkpt lat="43.4208019" lon="11.3472537"><ele>501.0</ele><time>2026-03-28T10:22:06.211Z</time></trkpt><trkpt lat="43.4206788" lon="11.3472521"><ele>501.0</ele><time>2026-03-28T10:22:07.211Z</time></trkpt><trkpt lat="43.4205677" lon="11.3472582"><ele>501.0</ele><time>2026-03-28T10:22:08.212Z</time></trkpt><trkpt lat="43.4204592" lon="11.3472065"><ele>501.0</ele><time>2026-03-28T10:22:09.211Z</time></trkpt><trkpt lat="43.4203404" lon="11.3471173"><ele>502.5</ele><time>2026-03-28T10:22:10.211Z</time></trkpt><trkpt lat="43.4202107" lon="11.3470448"><ele>504.0</ele><time>2026-03-28T10:22:11.211Z</time></trkpt><trkpt lat="43.4200705" lon="11.3469929"><ele>505.5</ele><time>2026-03-28T10:22:12.211Z</time></trkpt><trkpt lat="43.4199422" lon="11.3469719"><ele>507.0</ele><time>2026-03-28T10:22:13.211Z</time></trkpt><trkpt lat="43.4198175" lon="11.346973"><ele>507.0</ele><time>2026-03-28T10:22:14.212Z</time></trkpt><trkpt lat="43.4196974" lon="11.3469908"><ele>507.0</ele><time>2026-03-28T10:22:15.211Z</time></trkpt><trkpt lat="43.4195694" lon="11.3469756"><ele>507.0</ele><time>2026-03-28T10:22:16.211Z</time></trkpt><trkpt lat="43.4194589" lon="11.3469182"><ele>507.0</ele><time>2026-03-28T10:22:17.211Z</time></trkpt><trkpt lat="43.4193476" lon="11.3468506"><ele>505.8</ele><time>2026-03-28T10:22:18.212Z</time></trkpt><trkpt lat="43.4192473" lon="11.3467839"><ele>504.6</ele><time>2026-03-28T10:22:19.211Z</time></trkpt><trkpt lat="43.4191535" lon="11.346697"><ele>503.40000000000003</ele><time>2026-03-28T10:22:20.211Z</time></trkpt><trkpt lat="43.4190571" lon="11.3466132"><ele>502.20000000000005</ele><time>2026-03-28T10:22:21.212Z</time></trkpt><trkpt lat="43.4189715" lon="11.3465408"><ele>501.0</ele><time>2026-03-28T10:22:22.211Z</time></trkpt><trkpt lat="43.4188961" lon="11.3464707"><ele>500.6</ele><time>2026-03-28T10:22:23.211Z</time></trkpt><trkpt lat="43.4188158" lon="11.3464201"><ele>500.20000000000005</ele><time>2026-03-28T10:22:24.212Z</time></trkpt><trkpt lat="43.4187313" lon="11.3463819"><ele>499.79999999999995</ele><time>2026-03-28T10:22:25.211Z</time></trkpt><trkpt lat="43.4186396" lon="11.3463393"><ele>499.4</ele><time>2026-03-28T10:22:26.211Z</time></trkpt><trkpt lat="43.4185439" lon="11.3463094"><ele>499.0</ele><time>2026-03-28T10:22:27.211Z</time></trkpt><trkpt lat="43.418449" lon="11.3463164"><ele>502.79999999999995</ele><time>2026-03-28T10:22:28.211Z</time></trkpt><trkpt lat="43.4183635" lon="11.3463287"><ele>506.59999999999997</ele><time>2026-03-28T10:22:29.211Z</time></trkpt><trkpt lat="43.4182715" lon="11.346318"><ele>510.4</ele><time>2026-03-28T10:22:30.211Z</time></trkpt><trkpt lat="43.4181756" lon="11.3462935"><ele>514.1999999999999</ele><time>2026-03-28T10:22:31.211Z</time></trkpt><trkpt lat="43.4180711" lon="11.3462703"><ele>518.0</ele><time>2026-03-28T10:22:32.212Z</time></trkpt><trkpt lat="43.4179787" lon="11.3462526"><ele>518.8333333333333</ele><time>2026-03-28T10:22:33.212Z</time></trkpt><trkpt lat="43.4178901" lon="11.3462372"><ele>519.6666666666666</ele><time>2026-03-28T10:22:34.212Z</time></trkpt><trkpt lat="43.4178027" lon="11.3462229"><ele>520.5</ele><time>2026-03-28T10:22:35.211Z</time></trkpt><trkpt lat="43.4177275" lon="11.3462186"><ele>521.3333333333334</ele><time>2026-03-28T10:22:36.211Z</time></trkpt><trkpt lat="43.4176518" lon="11.3462201"><ele>522.1666666666667</ele><time>2026-03-28T10:22:37.212Z</time></trkpt><trkpt lat="43.417581" lon="11.3462243"><ele>523.0</ele><time>2026-03-28T10:22:38.211Z</time></trkpt><trkpt lat="43.4175123" lon="11.3462256"><ele>523.0</ele><time>2026-03-28T10:22:39.212Z</time></trkpt><trkpt lat="43.417443" lon="11.3462246"><ele>523.0</ele><time>2026-03-28T10:22:40.211Z</time></trkpt><trkpt lat="43.4173769" lon="11.3462163"><ele>523.0</ele><time>2026-03-28T10:22:41.211Z</time></trkpt><trkpt lat="43.4172672" lon="11.3462056"><ele>523.0</ele><time>2026-03-28T10:22:43.212Z</time></trkpt><trkpt lat="43.4171711" lon="11.3461014"><ele>523.0</ele><time>2026-03-28T10:22:45.211Z</time></trkpt><trkpt lat="43.4171657" lon="11.3460029"><ele>523.0</ele><time>2026-03-28T10:22:46.212Z</time></trkpt><trkpt lat="43.4171917" lon="11.3459093"><ele>523.0</ele><time>2026-03-28T10:22:47.211Z</time></trkpt><trkpt lat="43.4172416" lon="11.345813"><ele>523.0</ele><time>2026-03-28T10:22:48.212Z</time></trkpt><trkpt lat="43.4172953" lon="11.3457197"><ele>523.0</ele><time>2026-03-28T10:22:49.211Z</time></trkpt><trkpt lat="43.4173498" lon="11.3456198"><ele>523.0</ele><time>2026-03-28T10:22:50.211Z</time></trkpt><trkpt lat="43.4173941" lon="11.3455031"><ele>523.0</ele><time>2026-03-28T10:22:51.211Z</time></trkpt><trkpt lat="43.4174105" lon="11.3453923"><ele>523.0</ele><time>2026-03-28T10:22:52.212Z</time></trkpt><trkpt lat="43.4174035" lon="11.3452742"><ele>524.0</ele><time>2026-03-28T10:22:53.212Z</time></trkpt><trkpt lat="43.4173857" lon="11.3451414"><ele>525.0</ele><time>2026-03-28T10:22:54.212Z</time></trkpt><trkpt lat="43.4173696" lon="11.3450067"><ele>526.0</ele><time>2026-03-28T10:22:55.211Z</time></trkpt><trkpt lat="43.417357" lon="11.3448916"><ele>527.0</ele><time>2026-03-28T10:22:56.212Z</time></trkpt><trkpt lat="43.4173473" lon="11.3447853"><ele>528.0</ele><time>2026-03-28T10:22:57.211Z</time></trkpt><trkpt lat="43.4173507" lon="11.3446784"><ele>529.0</ele><time>2026-03-28T10:22:58.21Z</time></trkpt><trkpt lat="43.4173765" lon="11.344598"><ele>529.3333333333334</ele><time>2026-03-28T10:22:59.211Z</time></trkpt><trkpt lat="43.417433" lon="11.3445509"><ele>529.6666666666667</ele><time>2026-03-28T10:23:00.21Z</time></trkpt><trkpt lat="43.4175075" lon="11.3445377"><ele>530.0</ele><time>2026-03-28T10:23:01.209Z</time></trkpt><trkpt lat="43.4175906" lon="11.3445437"><ele>530.3333333333334</ele><time>2026-03-28T10:23:02.21Z</time></trkpt><trkpt lat="43.4176807" lon="11.3445505"><ele>530.6666666666666</ele><time>2026-03-28T10:23:03.211Z</time></trkpt><trkpt lat="43.4177695" lon="11.3445451"><ele>531.0</ele><time>2026-03-28T10:23:04.21Z</time></trkpt><trkpt lat="43.4178626" lon="11.3445146"><ele>531.0</ele><time>2026-03-28T10:23:05.21Z</time></trkpt><trkpt lat="43.4179562" lon="11.3444584"><ele>531.0</ele><time>2026-03-28T10:23:06.211Z</time></trkpt><trkpt lat="43.41804" lon="11.3443943"><ele>531.0</ele><time>2026-03-28T10:23:07.21Z</time></trkpt><trkpt lat="43.4181247" lon="11.3443158"><ele>531.0</ele><time>2026-03-28T10:23:08.21Z</time></trkpt><trkpt lat="43.4181996" lon="11.3442135"><ele>531.0</ele><time>2026-03-28T10:23:09.21Z</time></trkpt><trkpt lat="43.4182625" lon="11.3441018"><ele>534.0</ele><time>2026-03-28T10:23:10.211Z</time></trkpt><trkpt lat="43.4183183" lon="11.3439859"><ele>537.0</ele><time>2026-03-28T10:23:11.211Z</time></trkpt><trkpt lat="43.4183687" lon="11.3438662"><ele>540.0</ele><time>2026-03-28T10:23:12.209Z</time></trkpt><trkpt lat="43.4184186" lon="11.3437457"><ele>543.0</ele><time>2026-03-28T10:23:13.211Z</time></trkpt><trkpt lat="43.4184657" lon="11.3436156"><ele>546.0</ele><time>2026-03-28T10:23:14.21Z</time></trkpt><trkpt lat="43.4185015" lon="11.3434763"><ele>546.0</ele><time>2026-03-28T10:23:15.211Z</time></trkpt><trkpt lat="43.4185364" lon="11.3433435"><ele>546.0</ele><time>2026-03-28T10:23:16.211Z</time></trkpt><trkpt lat="43.4185895" lon="11.3432187"><ele>546.0</ele><time>2026-03-28T10:23:17.211Z</time></trkpt><trkpt lat="43.4186612" lon="11.3431104"><ele>546.0</ele><time>2026-03-28T10:23:18.211Z</time></trkpt><trkpt lat="43.418747" lon="11.3430052"><ele>546.0</ele><time>2026-03-28T10:23:19.211Z</time></trkpt><trkpt lat="43.4188427" lon="11.3429182"><ele>545.75</ele><time>2026-03-28T10:23:20.211Z</time></trkpt><trkpt lat="43.4189418" lon="11.3428237"><ele>545.5</ele><time>2026-03-28T10:23:21.211Z</time></trkpt><trkpt lat="43.4190476" lon="11.3427329"><ele>545.25</ele><time>2026-03-28T10:23:22.21Z</time></trkpt><trkpt lat="43.4191647" lon="11.3426307"><ele>545.0</ele><time>2026-03-28T10:23:23.211Z</time></trkpt><trkpt lat="43.4192684" lon="11.3425311"><ele>545.0</ele><time>2026-03-28T10:23:24.21Z</time></trkpt><trkpt lat="43.4193682" lon="11.3424228"><ele>545.0</ele><time>2026-03-28T10:23:25.21Z</time></trkpt><trkpt lat="43.4194677" lon="11.3422991"><ele>545.0</ele><time>2026-03-28T10:23:26.211Z</time></trkpt><trkpt lat="43.4195604" lon="11.342161"><ele>545.0</ele><time>2026-03-28T10:23:27.21Z</time></trkpt><trkpt lat="43.4196455" lon="11.3420227"><ele>542.5</ele><time>2026-03-28T10:23:28.211Z</time></trkpt><trkpt lat="43.4197208" lon="11.3418768"><ele>540.0</ele><time>2026-03-28T10:23:29.21Z</time></trkpt><trkpt lat="43.419789" lon="11.3417293"><ele>537.5</ele><time>2026-03-28T10:23:30.21Z</time></trkpt><trkpt lat="43.4198565" lon="11.3415831"><ele>535.0</ele><time>2026-03-28T10:23:31.21Z</time></trkpt><trkpt lat="43.4199152" lon="11.3414216"><ele>536.0</ele><time>2026-03-28T10:23:32.21Z</time></trkpt><trkpt lat="43.4199636" lon="11.3412558"><ele>537.0</ele><time>2026-03-28T10:23:33.211Z</time></trkpt><trkpt lat="43.4200021" lon="11.341085"><ele>538.0</ele><time>2026-03-28T10:23:34.211Z</time></trkpt><trkpt lat="43.4200301" lon="11.3409121"><ele>539.0</ele><time>2026-03-28T10:23:35.21Z</time></trkpt><trkpt lat="43.4200412" lon="11.3407405"><ele>539.0</ele><time>2026-03-28T10:23:36.211Z</time></trkpt><trkpt lat="43.4200404" lon="11.3405716"><ele>539.0</ele><time>2026-03-28T10:23:37.211Z</time></trkpt><trkpt lat="43.4200419" lon="11.3404072"><ele>539.0</ele><time>2026-03-28T10:23:38.21Z</time></trkpt><trkpt lat="43.4200586" lon="11.3402534"><ele>539.0</ele><time>2026-03-28T10:23:39.21Z</time></trkpt><trkpt lat="43.4200982" lon="11.3401232"><ele>539.3333333333333</ele><time>2026-03-28T10:23:40.211Z</time></trkpt><trkpt lat="43.4201551" lon="11.3400537"><ele>539.6666666666666</ele><time>2026-03-28T10:23:41.209Z</time></trkpt><trkpt lat="43.4202297" lon="11.3400165"><ele>540.0</ele><time>2026-03-28T10:23:42.211Z</time></trkpt><trkpt lat="43.4203069" lon="11.3399958"><ele>540.3333333333334</ele><time>2026-03-28T10:23:43.21Z</time></trkpt><trkpt lat="43.4203969" lon="11.3399832"><ele>540.6666666666667</ele><time>2026-03-28T10:23:44.211Z</time></trkpt><trkpt lat="43.4205051" lon="11.3399712"><ele>541.0</ele><time>2026-03-28T10:23:45.21Z</time></trkpt><trkpt lat="43.4206246" lon="11.3399682"><ele>541.75</ele><time>2026-03-28T10:23:46.211Z</time></trkpt><trkpt lat="43.4207259" lon="11.339964"><ele>542.5</ele><time>2026-03-28T10:23:47.21Z</time></trkpt><trkpt lat="43.4208336" lon="11.3399075"><ele>543.25</ele><time>2026-03-28T10:23:48.209Z</time></trkpt><trkpt lat="43.4209303" lon="11.3398224"><ele>544.0</ele><time>2026-03-28T10:23:49.21Z</time></trkpt><trkpt lat="43.421016" lon="11.3397061"><ele>544.0</ele><time>2026-03-28T10:23:50.21Z</time></trkpt><trkpt lat="43.4210961" lon="11.339577"><ele>544.0</ele><time>2026-03-28T10:23:51.211Z</time></trkpt><trkpt lat="43.4211632" lon="11.3394512"><ele>544.0</ele><time>2026-03-28T10:23:52.211Z</time></trkpt><trkpt lat="43.4212262" lon="11.339323"><ele>544.0</ele><time>2026-03-28T10:23:53.211Z</time></trkpt><trkpt lat="43.4212851" lon="11.3391962"><ele>544.4</ele><time>2026-03-28T10:23:54.211Z</time></trkpt><trkpt lat="43.4213359" lon="11.339072"><ele>544.8</ele><time>2026-03-28T10:23:55.21Z</time></trkpt><trkpt lat="43.421384" lon="11.3389486"><ele>545.2</ele><time>2026-03-28T10:23:56.209Z</time></trkpt><trkpt lat="43.4214334" lon="11.3388227"><ele>545.6</ele><time>2026-03-28T10:23:57.209Z</time></trkpt><trkpt lat="43.4214846" lon="11.3386887"><ele>546.0</ele><time>2026-03-28T10:23:58.211Z</time></trkpt><trkpt lat="43.4215404" lon="11.3385477"><ele>547.2</ele><time>2026-03-28T10:23:59.211Z</time></trkpt><trkpt lat="43.4215947" lon="11.3384165"><ele>548.4000000000001</ele><time>2026-03-28T10:24:00.21Z</time></trkpt><trkpt lat="43.4216392" lon="11.3383027"><ele>549.6</ele><time>2026-03-28T10:24:01.211Z</time></trkpt><trkpt lat="43.4216808" lon="11.3382064"><ele>550.8000000000001</ele><time>2026-03-28T10:24:02.211Z</time></trkpt><trkpt lat="43.4217166" lon="11.3381207"><ele>552.0</ele><time>2026-03-28T10:24:03.21Z</time></trkpt><trkpt lat="43.4217352" lon="11.3379703"><ele>552.0</ele><time>2026-03-28T10:24:05.21Z</time></trkpt><trkpt lat="43.4217102" lon="11.3378885"><ele>552.0</ele><time>2026-03-28T10:24:06.21Z</time></trkpt><trkpt lat="43.4216665" lon="11.3378024"><ele>552.0</ele><time>2026-03-28T10:24:07.21Z</time></trkpt><trkpt lat="43.4216306" lon="11.3377177"><ele>552.0</ele><time>2026-03-28T10:24:08.21Z</time></trkpt><trkpt lat="43.4216138" lon="11.3376195"><ele>552.0</ele><time>2026-03-28T10:24:09.21Z</time></trkpt><trkpt lat="43.4216243" lon="11.3375168"><ele>552.0</ele><time>2026-03-28T10:24:10.209Z</time></trkpt><trkpt lat="43.4216567" lon="11.3374375"><ele>552.0</ele><time>2026-03-28T10:24:11.211Z</time></trkpt><trkpt lat="43.4217287" lon="11.3373039"><ele>550.6</ele><time>2026-03-28T10:24:13.211Z</time></trkpt><trkpt lat="43.421808" lon="11.3371738"><ele>549.2</ele><time>2026-03-28T10:24:15.211Z</time></trkpt><trkpt lat="43.4218506" lon="11.3371074"><ele>547.8</ele><time>2026-03-28T10:24:16.211Z</time></trkpt><trkpt lat="43.4219417" lon="11.3369883"><ele>546.4</ele><time>2026-03-28T10:24:18.211Z</time></trkpt><trkpt lat="43.421992" lon="11.3369233"><ele>545.0</ele><time>2026-03-28T10:24:19.21Z</time></trkpt><trkpt lat="43.4220407" lon="11.3368571"><ele>545.0</ele><time>2026-03-28T10:24:20.211Z</time></trkpt><trkpt lat="43.4220787" lon="11.3367842"><ele>545.0</ele><time>2026-03-28T10:24:21.211Z</time></trkpt><trkpt lat="43.4221072" lon="11.3367026"><ele>545.0</ele><time>2026-03-28T10:24:22.211Z</time></trkpt><trkpt lat="43.4221053" lon="11.3365298"><ele>545.0</ele><time>2026-03-28T10:24:24.21Z</time></trkpt><trkpt lat="43.4220726" lon="11.3364515"><ele>545.0</ele><time>2026-03-28T10:24:25.211Z</time></trkpt><trkpt lat="43.4219763" lon="11.3363377"><ele>545.0</ele><time>2026-03-28T10:24:27.211Z</time></trkpt><trkpt lat="43.4219227" lon="11.3362899"><ele>544.6</ele><time>2026-03-28T10:24:28.21Z</time></trkpt><trkpt lat="43.4218686" lon="11.3362325"><ele>544.2</ele><time>2026-03-28T10:24:29.211Z</time></trkpt><trkpt lat="43.4218164" lon="11.3361789"><ele>543.8</ele><time>2026-03-28T10:24:30.211Z</time></trkpt><trkpt lat="43.4217525" lon="11.3360382"><ele>543.4</ele><time>2026-03-28T10:24:32.211Z</time></trkpt><trkpt lat="43.4217282" lon="11.3358623"><ele>543.0</ele><time>2026-03-28T10:24:34.211Z</time></trkpt><trkpt lat="43.4217064" lon="11.335761"><ele>543.0</ele><time>2026-03-28T10:24:35.21Z</time></trkpt><trkpt lat="43.4216738" lon="11.3356676"><ele>543.0</ele><time>2026-03-28T10:24:36.21Z</time></trkpt><trkpt lat="43.4216325" lon="11.3355705"><ele>543.0</ele><time>2026-03-28T10:24:37.211Z</time></trkpt><trkpt lat="43.4215789" lon="11.3354676"><ele>543.0</ele><time>2026-03-28T10:24:38.21Z</time></trkpt><trkpt lat="43.421524" lon="11.3353573"><ele>543.0</ele><time>2026-03-28T10:24:39.21Z</time></trkpt><trkpt lat="43.421468" lon="11.3352497"><ele>543.0</ele><time>2026-03-28T10:24:40.211Z</time></trkpt><trkpt lat="43.4214195" lon="11.335145"><ele>542.8333333333334</ele><time>2026-03-28T10:24:41.211Z</time></trkpt><trkpt lat="43.4213833" lon="11.3350412"><ele>542.6666666666666</ele><time>2026-03-28T10:24:42.21Z</time></trkpt><trkpt lat="43.4213575" lon="11.3349343"><ele>542.5</ele><time>2026-03-28T10:24:43.211Z</time></trkpt><trkpt lat="43.4213339" lon="11.3348158"><ele>542.3333333333333</ele><time>2026-03-28T10:24:44.211Z</time></trkpt><trkpt lat="43.4213214" lon="11.334709"><ele>542.1666666666666</ele><time>2026-03-28T10:24:45.21Z</time></trkpt><trkpt lat="43.4213219" lon="11.3345943"><ele>542.0</ele><time>2026-03-28T10:24:46.21Z</time></trkpt><trkpt lat="43.4213205" lon="11.3344743"><ele>540.6</ele><time>2026-03-28T10:24:47.211Z</time></trkpt><trkpt lat="43.4213237" lon="11.3343468"><ele>539.2</ele><time>2026-03-28T10:24:48.21Z</time></trkpt><trkpt lat="43.4213383" lon="11.3342153"><ele>537.8</ele><time>2026-03-28T10:24:49.21Z</time></trkpt><trkpt lat="43.4213572" lon="11.3340846"><ele>536.4</ele><time>2026-03-28T10:24:50.211Z</time></trkpt><trkpt lat="43.4213662" lon="11.3339492"><ele>535.0</ele><time>2026-03-28T10:24:51.211Z</time></trkpt><trkpt lat="43.4213709" lon="11.3338164"><ele>533.8333333333334</ele><time>2026-03-28T10:24:52.211Z</time></trkpt><trkpt lat="43.4213781" lon="11.3336919"><ele>532.6666666666667</ele><time>2026-03-28T10:24:53.21Z</time></trkpt><trkpt lat="43.4213835" lon="11.3335744"><ele>531.5</ele><time>2026-03-28T10:24:54.211Z</time></trkpt><trkpt lat="43.4213748" lon="11.3334585"><ele>530.3333333333334</ele><time>2026-03-28T10:24:55.21Z</time></trkpt><trkpt lat="43.4213559" lon="11.3333379"><ele>529.1666666666666</ele><time>2026-03-28T10:24:56.21Z</time></trkpt><trkpt lat="43.4213379" lon="11.3332239"><ele>528.0</ele><time>2026-03-28T10:24:57.21Z</time></trkpt><trkpt lat="43.4213209" lon="11.3331078"><ele>526.5</ele><time>2026-03-28T10:24:58.21Z</time></trkpt><trkpt lat="43.4213159" lon="11.3329934"><ele>525.0</ele><time>2026-03-28T10:24:59.211Z</time></trkpt><trkpt lat="43.4213332" lon="11.3328836"><ele>523.5</ele><time>2026-03-28T10:25:00.21Z</time></trkpt><trkpt lat="43.4213708" lon="11.3327966"><ele>522.0</ele><time>2026-03-28T10:25:01.211Z</time></trkpt><trkpt lat="43.4214284" lon="11.3327296"><ele>520.5</ele><time>2026-03-28T10:25:02.21Z</time></trkpt><trkpt lat="43.4214986" lon="11.3326535"><ele>519.0</ele><time>2026-03-28T10:25:03.21Z</time></trkpt><trkpt lat="43.4215606" lon="11.3325707"><ele>519.0</ele><time>2026-03-28T10:25:04.21Z</time></trkpt><trkpt lat="43.4216158" lon="11.3324721"><ele>519.0</ele><time>2026-03-28T10:25:05.21Z</time></trkpt><trkpt lat="43.4216623" lon="11.3323611"><ele>519.0</ele><time>2026-03-28T10:25:06.21Z</time></trkpt><trkpt lat="43.4216921" lon="11.3322339"><ele>519.0</ele><time>2026-03-28T10:25:07.21Z</time></trkpt><trkpt lat="43.4217152" lon="11.3321004"><ele>519.0</ele><time>2026-03-28T10:25:08.211Z</time></trkpt><trkpt lat="43.4217187" lon="11.3319553"><ele>517.4</ele><time>2026-03-28T10:25:09.209Z</time></trkpt><trkpt lat="43.4217092" lon="11.3318036"><ele>515.8</ele><time>2026-03-28T10:25:10.21Z</time></trkpt><trkpt lat="43.421698" lon="11.3316518"><ele>514.2</ele><time>2026-03-28T10:25:11.209Z</time></trkpt><trkpt lat="43.4216854" lon="11.3315108"><ele>512.6</ele><time>2026-03-28T10:25:12.211Z</time></trkpt><trkpt lat="43.4216695" lon="11.3313726"><ele>511.0</ele><time>2026-03-28T10:25:13.21Z</time></trkpt><trkpt lat="43.4216541" lon="11.3312413"><ele>509.4</ele><time>2026-03-28T10:25:14.21Z</time></trkpt><trkpt lat="43.4216424" lon="11.3311085"><ele>507.8</ele><time>2026-03-28T10:25:15.21Z</time></trkpt><trkpt lat="43.4216354" lon="11.3309689"><ele>506.19999999999993</ele><time>2026-03-28T10:25:16.211Z</time></trkpt><trkpt lat="43.4216336" lon="11.3308349"><ele>504.59999999999997</ele><time>2026-03-28T10:25:17.21Z</time></trkpt><trkpt lat="43.4216496" lon="11.3307091"><ele>503.0</ele><time>2026-03-28T10:25:18.211Z</time></trkpt><trkpt lat="43.4216859" lon="11.3305984"><ele>500.59999999999997</ele><time>2026-03-28T10:25:19.211Z</time></trkpt><trkpt lat="43.4217408" lon="11.3305067"><ele>498.19999999999993</ele><time>2026-03-28T10:25:20.21Z</time></trkpt><trkpt lat="43.421815" lon="11.330432"><ele>495.8</ele><time>2026-03-28T10:25:21.21Z</time></trkpt><trkpt lat="43.4218982" lon="11.3303541"><ele>493.4</ele><time>2026-03-28T10:25:22.21Z</time></trkpt><trkpt lat="43.4219776" lon="11.3302703"><ele>491.0</ele><time>2026-03-28T10:25:23.211Z</time></trkpt><trkpt lat="43.4220516" lon="11.3301888"><ele>491.0</ele><time>2026-03-28T10:25:24.211Z</time></trkpt><trkpt lat="43.4221192" lon="11.3300924"><ele>491.0</ele><time>2026-03-28T10:25:25.21Z</time></trkpt><trkpt lat="43.4221836" lon="11.329994"><ele>491.0</ele><time>2026-03-28T10:25:26.21Z</time></trkpt><trkpt lat="43.4222423" lon="11.3298973"><ele>491.0</ele><time>2026-03-28T10:25:27.21Z</time></trkpt><trkpt lat="43.4222833" lon="11.329784"><ele>491.0</ele><time>2026-03-28T10:25:28.21Z</time></trkpt><trkpt lat="43.4223093" lon="11.3296579"><ele>490.8</ele><time>2026-03-28T10:25:29.21Z</time></trkpt><trkpt lat="43.422317" lon="11.3295171"><ele>490.6</ele><time>2026-03-28T10:25:30.211Z</time></trkpt><trkpt lat="43.4223039" lon="11.3293854"><ele>490.4</ele><time>2026-03-28T10:25:31.211Z</time></trkpt><trkpt lat="43.4222686" lon="11.3292542"><ele>490.2</ele><time>2026-03-28T10:25:32.21Z</time></trkpt><trkpt lat="43.4222109" lon="11.3291294"><ele>490.0</ele><time>2026-03-28T10:25:33.21Z</time></trkpt><trkpt lat="43.4221369" lon="11.3290083"><ele>489.25</ele><time>2026-03-28T10:25:34.21Z</time></trkpt><trkpt lat="43.4220545" lon="11.3288888"><ele>488.5</ele><time>2026-03-28T10:25:35.211Z</time></trkpt><trkpt lat="43.4219652" lon="11.3287772"><ele>487.75</ele><time>2026-03-28T10:25:36.21Z</time></trkpt><trkpt lat="43.4218715" lon="11.3286636"><ele>487.0</ele><time>2026-03-28T10:25:37.211Z</time></trkpt><trkpt lat="43.4217757" lon="11.3285486"><ele>487.0</ele><time>2026-03-28T10:25:38.211Z</time></trkpt><trkpt lat="43.4216802" lon="11.3284356"><ele>487.0</ele><time>2026-03-28T10:25:39.21Z</time></trkpt><trkpt lat="43.4215915" lon="11.3283124"><ele>487.0</ele><time>2026-03-28T10:25:40.211Z</time></trkpt><trkpt lat="43.4215063" lon="11.3281838"><ele>487.0</ele><time>2026-03-28T10:25:41.209Z</time></trkpt><trkpt lat="43.421424" lon="11.328058"><ele>487.75</ele><time>2026-03-28T10:25:42.211Z</time></trkpt><trkpt lat="43.4213389" lon="11.3279301"><ele>488.5</ele><time>2026-03-28T10:25:43.21Z</time></trkpt><trkpt lat="43.4212479" lon="11.3278003"><ele>489.25</ele><time>2026-03-28T10:25:44.21Z</time></trkpt><trkpt lat="43.4211526" lon="11.3276772"><ele>490.0</ele><time>2026-03-28T10:25:45.21Z</time></trkpt><trkpt lat="43.4210611" lon="11.3275662"><ele>490.0</ele><time>2026-03-28T10:25:46.21Z</time></trkpt><trkpt lat="43.4209719" lon="11.3274474"><ele>490.0</ele><time>2026-03-28T10:25:47.21Z</time></trkpt><trkpt lat="43.4208816" lon="11.3273288"><ele>490.0</ele><time>2026-03-28T10:25:48.211Z</time></trkpt><trkpt lat="43.4207885" lon="11.3272092"><ele>490.0</ele><time>2026-03-28T10:25:49.211Z</time></trkpt><trkpt lat="43.4206971" lon="11.327084"><ele>487.5</ele><time>2026-03-28T10:25:50.21Z</time></trkpt><trkpt lat="43.4206046" lon="11.3269473"><ele>485.0</ele><time>2026-03-28T10:25:51.211Z</time></trkpt><trkpt lat="43.4205172" lon="11.3268121"><ele>482.5</ele><time>2026-03-28T10:25:52.211Z</time></trkpt><trkpt lat="43.4204437" lon="11.3266803"><ele>480.0</ele><time>2026-03-28T10:25:53.21Z</time></trkpt><trkpt lat="43.4203792" lon="11.3265487"><ele>479.8</ele><time>2026-03-28T10:25:54.211Z</time></trkpt><trkpt lat="43.4203349" lon="11.3264162"><ele>479.6</ele><time>2026-03-28T10:25:55.211Z</time></trkpt><trkpt lat="43.4203198" lon="11.3262773"><ele>479.4</ele><time>2026-03-28T10:25:56.211Z</time></trkpt><trkpt lat="43.4203298" lon="11.3261432"><ele>479.2</ele><time>2026-03-28T10:25:57.21Z</time></trkpt><trkpt lat="43.4203656" lon="11.326013"><ele>479.0</ele><time>2026-03-28T10:25:58.21Z</time></trkpt><trkpt lat="43.4204099" lon="11.3259068"><ele>479.0</ele><time>2026-03-28T10:25:59.21Z</time></trkpt><trkpt lat="43.420457" lon="11.3257936"><ele>479.0</ele><time>2026-03-28T10:26:00.21Z</time></trkpt><trkpt lat="43.4205077" lon="11.3256805"><ele>479.0</ele><time>2026-03-28T10:26:01.211Z</time></trkpt><trkpt lat="43.4205717" lon="11.3255785"><ele>479.0</ele><time>2026-03-28T10:26:02.211Z</time></trkpt><trkpt lat="43.4206466" lon="11.3254899"><ele>479.0</ele><time>2026-03-28T10:26:03.21Z</time></trkpt><trkpt lat="43.4207307" lon="11.3254112"><ele>478.4</ele><time>2026-03-28T10:26:04.211Z</time></trkpt><trkpt lat="43.4208208" lon="11.3253328"><ele>477.79999999999995</ele><time>2026-03-28T10:26:05.211Z</time></trkpt><trkpt lat="43.4209132" lon="11.3252573"><ele>477.20000000000005</ele><time>2026-03-28T10:26:06.21Z</time></trkpt><trkpt lat="43.4210136" lon="11.3251815"><ele>476.6</ele><time>2026-03-28T10:26:07.21Z</time></trkpt><trkpt lat="43.4211111" lon="11.3251055"><ele>476.0</ele><time>2026-03-28T10:26:08.21Z</time></trkpt><trkpt lat="43.4212075" lon="11.32503"><ele>476.0</ele><time>2026-03-28T10:26:09.21Z</time></trkpt><trkpt lat="43.4213063" lon="11.32495"><ele>476.0</ele><time>2026-03-28T10:26:10.211Z</time></trkpt><trkpt lat="43.4214036" lon="11.3248722"><ele>476.0</ele><time>2026-03-28T10:26:11.21Z</time></trkpt><trkpt lat="43.4214996" lon="11.3247984"><ele>476.0</ele><time>2026-03-28T10:26:12.21Z</time></trkpt><trkpt lat="43.4215888" lon="11.324723"><ele>476.0</ele><time>2026-03-28T10:26:13.21Z</time></trkpt><trkpt lat="43.4216717" lon="11.3246448"><ele>474.99999999999994</ele><time>2026-03-28T10:26:14.21Z</time></trkpt><trkpt lat="43.4217437" lon="11.3245646"><ele>474.0</ele><time>2026-03-28T10:26:15.211Z</time></trkpt><trkpt lat="43.4218004" lon="11.324468"><ele>473.0</ele><time>2026-03-28T10:26:16.211Z</time></trkpt><trkpt lat="43.4218282" lon="11.3243507"><ele>472.0</ele><time>2026-03-28T10:26:17.21Z</time></trkpt><trkpt lat="43.4218441" lon="11.3242279"><ele>470.99999999999994</ele><time>2026-03-28T10:26:18.211Z</time></trkpt><trkpt lat="43.4218598" lon="11.3241157"><ele>470.0</ele><time>2026-03-28T10:26:19.21Z</time></trkpt><trkpt lat="43.4218122" lon="11.3239654"><ele>469.4</ele><time>2026-03-28T10:26:20.21Z</time></trkpt><trkpt lat="43.4217737" lon="11.3238399"><ele>468.8</ele><time>2026-03-28T10:26:21.211Z</time></trkpt><trkpt lat="43.4217362" lon="11.3237174"><ele>468.20000000000005</ele><time>2026-03-28T10:26:22.21Z</time></trkpt><trkpt lat="43.4216973" lon="11.3235923"><ele>467.6</ele><time>2026-03-28T10:26:23.211Z</time></trkpt><trkpt lat="43.4216605" lon="11.3234664"><ele>467.0</ele><time>2026-03-28T10:26:24.21Z</time></trkpt><trkpt lat="43.4216196" lon="11.3233307"><ele>467.0</ele><time>2026-03-28T10:26:25.21Z</time></trkpt><trkpt lat="43.4215773" lon="11.3231931"><ele>467.00000000000006</ele><time>2026-03-28T10:26:26.21Z</time></trkpt><trkpt lat="43.4215374" lon="11.3230621"><ele>467.00000000000006</ele><time>2026-03-28T10:26:27.21Z</time></trkpt><trkpt lat="43.4215023" lon="11.3229437"><ele>467.0</ele><time>2026-03-28T10:26:28.21Z</time></trkpt><trkpt lat="43.4214693" lon="11.3228338"><ele>467.0</ele><time>2026-03-28T10:26:29.211Z</time></trkpt><trkpt lat="43.4214403" lon="11.322734"><ele>466.20000000000005</ele><time>2026-03-28T10:26:30.21Z</time></trkpt><trkpt lat="43.4214163" lon="11.3226431"><ele>465.40000000000003</ele><time>2026-03-28T10:26:31.21Z</time></trkpt><trkpt lat="43.4213669" lon="11.3225011"><ele>464.59999999999997</ele><time>2026-03-28T10:26:33.21Z</time></trkpt><trkpt lat="43.4212854" lon="11.3224634"><ele>463.79999999999995</ele><time>2026-03-28T10:26:35.211Z</time></trkpt><trkpt lat="43.421219" lon="11.3225642"><ele>463.0</ele><time>2026-03-28T10:26:37.21Z</time></trkpt><trkpt lat="43.4212075" lon="11.3227416"><ele>460.83333333333337</ele><time>2026-03-28T10:26:39.211Z</time></trkpt><trkpt lat="43.4212077" lon="11.3228541"><ele>458.6666666666667</ele><time>2026-03-28T10:26:40.211Z</time></trkpt><trkpt lat="43.421212" lon="11.3229678"><ele>456.5</ele><time>2026-03-28T10:26:41.209Z</time></trkpt><trkpt lat="43.4212236" lon="11.3230879"><ele>454.33333333333337</ele><time>2026-03-28T10:26:42.21Z</time></trkpt><trkpt lat="43.4212285" lon="11.3232146"><ele>452.1666666666667</ele><time>2026-03-28T10:26:43.211Z</time></trkpt><trkpt lat="43.4212353" lon="11.3233177"><ele>450.0</ele><time>2026-03-28T10:26:44.21Z</time></trkpt><trkpt lat="43.4212329" lon="11.3234088"><ele>450.00000000000006</ele><time>2026-03-28T10:26:45.21Z</time></trkpt><trkpt lat="43.4212051" lon="11.3234928"><ele>450.0</ele><time>2026-03-28T10:26:46.21Z</time></trkpt><trkpt lat="43.4211549" lon="11.3235523"><ele>450.00000000000006</ele><time>2026-03-28T10:26:47.21Z</time></trkpt><trkpt lat="43.4210793" lon="11.3235605"><ele>450.00000000000006</ele><time>2026-03-28T10:26:48.211Z</time></trkpt><trkpt lat="43.4210143" lon="11.3235107"><ele>450.0</ele><time>2026-03-28T10:26:49.21Z</time></trkpt><trkpt lat="43.4209578" lon="11.32344"><ele>450.00000000000006</ele><time>2026-03-28T10:26:50.211Z</time></trkpt><trkpt lat="43.4209308" lon="11.3233312"><ele>450.00000000000006</ele><time>2026-03-28T10:26:51.21Z</time></trkpt><trkpt lat="43.4209146" lon="11.3232139"><ele>449.0</ele><time>2026-03-28T10:26:52.21Z</time></trkpt><trkpt lat="43.4208685" lon="11.3230488"><ele>448.0</ele><time>2026-03-28T10:26:53.211Z</time></trkpt><trkpt lat="43.4208028" lon="11.322879"><ele>447.0</ele><time>2026-03-28T10:26:54.21Z</time></trkpt><trkpt lat="43.42075" lon="11.3227284"><ele>446.0</ele><time>2026-03-28T10:26:55.21Z</time></trkpt><trkpt lat="43.4207043" lon="11.3225649"><ele>446.0</ele><time>2026-03-28T10:26:56.21Z</time></trkpt><trkpt lat="43.4206568" lon="11.3224091"><ele>446.0</ele><time>2026-03-28T10:26:57.211Z</time></trkpt><trkpt lat="43.4206117" lon="11.3222543"><ele>446.0</ele><time>2026-03-28T10:26:58.21Z</time></trkpt><trkpt lat="43.4205686" lon="11.3220965"><ele>446.0</ele><time>2026-03-28T10:26:59.21Z</time></trkpt><trkpt lat="43.4205251" lon="11.3219446"><ele>441.0</ele><time>2026-03-28T10:27:00.21Z</time></trkpt><trkpt lat="43.4204688" lon="11.3218005"><ele>436.0</ele><time>2026-03-28T10:27:01.211Z</time></trkpt><trkpt lat="43.4204" lon="11.3216744"><ele>431.0</ele><time>2026-03-28T10:27:02.21Z</time></trkpt><trkpt lat="43.4203212" lon="11.3215499"><ele>426.0</ele><time>2026-03-28T10:27:03.21Z</time></trkpt><trkpt lat="43.4202351" lon="11.3214273"><ele>426.75</ele><time>2026-03-28T10:27:04.211Z</time></trkpt><trkpt lat="43.420147" lon="11.3213196"><ele>427.5</ele><time>2026-03-28T10:27:05.21Z</time></trkpt><trkpt lat="43.4200624" lon="11.3212189"><ele>428.25</ele><time>2026-03-28T10:27:06.21Z</time></trkpt><trkpt lat="43.4199768" lon="11.321117"><ele>429.0</ele><time>2026-03-28T10:27:07.21Z</time></trkpt><trkpt lat="43.4198799" lon="11.3210126"><ele>429.0</ele><time>2026-03-28T10:27:08.21Z</time></trkpt><trkpt lat="43.4197962" lon="11.3208975"><ele>429.0</ele><time>2026-03-28T10:27:09.21Z</time></trkpt><trkpt lat="43.4197257" lon="11.3207644"><ele>429.0</ele><time>2026-03-28T10:27:10.21Z</time></trkpt><trkpt lat="43.4196668" lon="11.3206284"><ele>429.0</ele><time>2026-03-28T10:27:11.21Z</time></trkpt><trkpt lat="43.4196051" lon="11.3204936"><ele>425.79999999999995</ele><time>2026-03-28T10:27:12.21Z</time></trkpt><trkpt lat="43.419549" lon="11.3203642"><ele>422.59999999999997</ele><time>2026-03-28T10:27:13.21Z</time></trkpt><trkpt lat="43.4194969" lon="11.3202384"><ele>419.4</ele><time>2026-03-28T10:27:14.21Z</time></trkpt><trkpt lat="43.4194461" lon="11.3201171"><ele>416.2</ele><time>2026-03-28T10:27:15.211Z</time></trkpt><trkpt lat="43.4193983" lon="11.3200057"><ele>413.0</ele><time>2026-03-28T10:27:16.21Z</time></trkpt><trkpt lat="43.419355" lon="11.3199071"><ele>412.99999999999994</ele><time>2026-03-28T10:27:17.211Z</time></trkpt><trkpt lat="43.4193141" lon="11.3198139"><ele>413.0</ele><time>2026-03-28T10:27:18.211Z</time></trkpt><trkpt lat="43.4192758" lon="11.3197241"><ele>413.0</ele><time>2026-03-28T10:27:19.21Z</time></trkpt><trkpt lat="43.4192424" lon="11.3196379"><ele>413.0</ele><time>2026-03-28T10:27:20.211Z</time></trkpt><trkpt lat="43.4192183" lon="11.319546"><ele>412.99999999999994</ele><time>2026-03-28T10:27:21.211Z</time></trkpt><trkpt lat="43.4192376" lon="11.3193927"><ele>413.0</ele><time>2026-03-28T10:27:23.211Z</time></trkpt><trkpt lat="43.4192939" lon="11.3192804"><ele>412.16666666666663</ele><time>2026-03-28T10:27:25.211Z</time></trkpt><trkpt lat="43.4192885" lon="11.3191554"><ele>411.3333333333333</ele><time>2026-03-28T10:27:27.209Z</time></trkpt><trkpt lat="43.4191885" lon="11.319101"><ele>410.5</ele><time>2026-03-28T10:27:29.211Z</time></trkpt><trkpt lat="43.4191227" lon="11.3191108"><ele>409.66666666666663</ele><time>2026-03-28T10:27:30.211Z</time></trkpt><trkpt lat="43.419042" lon="11.3191318"><ele>408.8333333333333</ele><time>2026-03-28T10:27:31.21Z</time></trkpt><trkpt lat="43.4189517" lon="11.3191533"><ele>408.0</ele><time>2026-03-28T10:27:32.211Z</time></trkpt><trkpt lat="43.4188577" lon="11.3191729"><ele>406.2</ele><time>2026-03-28T10:27:33.211Z</time></trkpt><trkpt lat="43.4187624" lon="11.3191955"><ele>404.4</ele><time>2026-03-28T10:27:34.211Z</time></trkpt><trkpt lat="43.4186657" lon="11.3192194"><ele>402.59999999999997</ele><time>2026-03-28T10:27:35.211Z</time></trkpt><trkpt lat="43.4185694" lon="11.3192428"><ele>400.79999999999995</ele><time>2026-03-28T10:27:36.21Z</time></trkpt><trkpt lat="43.4184718" lon="11.3192598"><ele>399.0</ele><time>2026-03-28T10:27:37.21Z</time></trkpt><trkpt lat="43.4183716" lon="11.3192774"><ele>399.0</ele><time>2026-03-28T10:27:38.21Z</time></trkpt><trkpt lat="43.4182674" lon="11.3192852"><ele>399.0</ele><time>2026-03-28T10:27:39.21Z</time></trkpt><trkpt lat="43.4181516" lon="11.3192698"><ele>399.0</ele><time>2026-03-28T10:27:40.211Z</time></trkpt><trkpt lat="43.4180365" lon="11.3192364"><ele>399.0</ele><time>2026-03-28T10:27:41.21Z</time></trkpt><trkpt lat="43.4179272" lon="11.3191898"><ele>397.79999999999995</ele><time>2026-03-28T10:27:42.21Z</time></trkpt><trkpt lat="43.4178218" lon="11.3191427"><ele>396.59999999999997</ele><time>2026-03-28T10:27:43.21Z</time></trkpt><trkpt lat="43.4177374" lon="11.3190974"><ele>395.4</ele><time>2026-03-28T10:27:44.21Z</time></trkpt><trkpt lat="43.4176548" lon="11.3190475"><ele>394.2</ele><time>2026-03-28T10:27:45.21Z</time></trkpt><trkpt lat="43.4175817" lon="11.3189912"><ele>393.0</ele><time>2026-03-28T10:27:46.21Z</time></trkpt><trkpt lat="43.4175164" lon="11.3189164"><ele>392.4</ele><time>2026-03-28T10:27:47.21Z</time></trkpt><trkpt lat="43.4174617" lon="11.3188204"><ele>391.79999999999995</ele><time>2026-03-28T10:27:48.21Z</time></trkpt><trkpt lat="43.4174165" lon="11.3186862"><ele>391.2</ele><time>2026-03-28T10:27:49.21Z</time></trkpt><trkpt lat="43.4173759" lon="11.3185231"><ele>390.6</ele><time>2026-03-28T10:27:50.21Z</time></trkpt><trkpt lat="43.4173252" lon="11.3183635"><ele>390.0</ele><time>2026-03-28T10:27:51.21Z</time></trkpt><trkpt lat="43.4172626" lon="11.3182259"><ele>390.0</ele><time>2026-03-28T10:27:52.21Z</time></trkpt><trkpt lat="43.4171858" lon="11.3181044"><ele>390.0</ele><time>2026-03-28T10:27:53.21Z</time></trkpt><trkpt lat="43.4170806" lon="11.3179934"><ele>390.0</ele><time>2026-03-28T10:27:54.21Z</time></trkpt><trkpt lat="43.416953" lon="11.3178978"><ele>390.0</ele><time>2026-03-28T10:27:55.21Z</time></trkpt><trkpt lat="43.4168137" lon="11.31784"><ele>389.75</ele><time>2026-03-28T10:27:56.21Z</time></trkpt><trkpt lat="43.4166723" lon="11.3178007"><ele>389.5</ele><time>2026-03-28T10:27:57.211Z</time></trkpt><trkpt lat="43.4165271" lon="11.317769"><ele>389.25</ele><time>2026-03-28T10:27:58.21Z</time></trkpt><trkpt lat="43.4163741" lon="11.3177478"><ele>389.0</ele><time>2026-03-28T10:27:59.211Z</time></trkpt><trkpt lat="43.4162073" lon="11.3177309"><ele>388.0</ele><time>2026-03-28T10:28:00.211Z</time></trkpt><trkpt lat="43.4160262" lon="11.3177154"><ele>387.0</ele><time>2026-03-28T10:28:01.211Z</time></trkpt><trkpt lat="43.4158346" lon="11.3176993"><ele>386.0</ele><time>2026-03-28T10:28:02.21Z</time></trkpt><trkpt lat="43.4156424" lon="11.3176848"><ele>384.3333333333333</ele><time>2026-03-28T10:28:03.21Z</time></trkpt><trkpt lat="43.4154547" lon="11.3176704"><ele>382.66666666666663</ele><time>2026-03-28T10:28:04.209Z</time></trkpt><trkpt lat="43.4152655" lon="11.317652"><ele>381.0</ele><time>2026-03-28T10:28:05.21Z</time></trkpt><trkpt lat="43.4150822" lon="11.3176317"><ele>381.0</ele><time>2026-03-28T10:28:06.211Z</time></trkpt><trkpt lat="43.4149012" lon="11.3176147"><ele>381.0</ele><time>2026-03-28T10:28:07.211Z</time></trkpt><trkpt lat="43.414713" lon="11.3175984"><ele>381.0</ele><time>2026-03-28T10:28:08.211Z</time></trkpt><trkpt lat="43.4145258" lon="11.317584"><ele>379.6666666666667</ele><time>2026-03-28T10:28:09.21Z</time></trkpt><trkpt lat="43.4143455" lon="11.3175657"><ele>378.33333333333337</ele><time>2026-03-28T10:28:10.211Z</time></trkpt><trkpt lat="43.4141711" lon="11.317548"><ele>377.0</ele><time>2026-03-28T10:28:11.21Z</time></trkpt><trkpt lat="43.4140039" lon="11.3175328"><ele>377.0</ele><time>2026-03-28T10:28:12.21Z</time></trkpt><trkpt lat="43.4138322" lon="11.3175153"><ele>377.0</ele><time>2026-03-28T10:28:13.209Z</time></trkpt><trkpt lat="43.4136572" lon="11.3174959"><ele>377.0</ele><time>2026-03-28T10:28:14.211Z</time></trkpt><trkpt lat="43.4134812" lon="11.3174797"><ele>375.6666666666667</ele><time>2026-03-28T10:28:15.209Z</time></trkpt><trkpt lat="43.4133011" lon="11.3174674"><ele>374.3333333333333</ele><time>2026-03-28T10:28:16.21Z</time></trkpt><trkpt lat="43.4131197" lon="11.3174502"><ele>373.0</ele><time>2026-03-28T10:28:17.211Z</time></trkpt><trkpt lat="43.4129363" lon="11.3174328"><ele>371.66666666666663</ele><time>2026-03-28T10:28:18.211Z</time></trkpt><trkpt lat="43.4127522" lon="11.3174178"><ele>370.3333333333333</ele><time>2026-03-28T10:28:19.21Z</time></trkpt><trkpt lat="43.4125696" lon="11.3174043"><ele>369.0</ele><time>2026-03-28T10:28:20.211Z</time></trkpt><trkpt lat="43.4123937" lon="11.3173877"><ele>369.0</ele><time>2026-03-28T10:28:21.211Z</time></trkpt><trkpt lat="43.4122303" lon="11.3173732"><ele>369.0</ele><time>2026-03-28T10:28:22.21Z</time></trkpt><trkpt lat="43.4120807" lon="11.3173612"><ele>369.0</ele><time>2026-03-28T10:28:23.21Z</time></trkpt><trkpt lat="43.4119465" lon="11.3173577"><ele>369.0</ele><time>2026-03-28T10:28:24.211Z</time></trkpt><trkpt lat="43.4118204" lon="11.3173751"><ele>368.75</ele><time>2026-03-28T10:28:25.211Z</time></trkpt><trkpt lat="43.4117053" lon="11.3174246"><ele>368.5</ele><time>2026-03-28T10:28:26.21Z</time></trkpt><trkpt lat="43.4115942" lon="11.3174965"><ele>368.25</ele><time>2026-03-28T10:28:27.21Z</time></trkpt><trkpt lat="43.4114792" lon="11.3175803"><ele>368.0</ele><time>2026-03-28T10:28:28.211Z</time></trkpt><trkpt lat="43.4113571" lon="11.3176721"><ele>368.0</ele><time>2026-03-28T10:28:29.21Z</time></trkpt><trkpt lat="43.4112304" lon="11.3177703"><ele>368.0</ele><time>2026-03-28T10:28:30.211Z</time></trkpt><trkpt lat="43.4111002" lon="11.317876"><ele>368.0</ele><time>2026-03-28T10:28:31.21Z</time></trkpt><trkpt lat="43.4109638" lon="11.3179869"><ele>368.25</ele><time>2026-03-28T10:28:32.211Z</time></trkpt><trkpt lat="43.4108368" lon="11.318085"><ele>368.5</ele><time>2026-03-28T10:28:33.209Z</time></trkpt><trkpt lat="43.410723" lon="11.318175"><ele>368.75</ele><time>2026-03-28T10:28:34.21Z</time></trkpt><trkpt lat="43.4106189" lon="11.3182584"><ele>369.0</ele><time>2026-03-28T10:28:35.21Z</time></trkpt><trkpt lat="43.4105203" lon="11.3183344"><ele>369.0</ele><time>2026-03-28T10:28:36.21Z</time></trkpt><trkpt lat="43.4104217" lon="11.3184069"><ele>369.0</ele><time>2026-03-28T10:28:37.21Z</time></trkpt><trkpt lat="43.4103122" lon="11.3184963"><ele>369.0</ele><time>2026-03-28T10:28:38.211Z</time></trkpt><trkpt lat="43.4102086" lon="11.3185892"><ele>369.0</ele><time>2026-03-28T10:28:39.21Z</time></trkpt><trkpt lat="43.4101124" lon="11.3186654"><ele>369.0</ele><time>2026-03-28T10:28:40.21Z</time></trkpt><trkpt lat="43.4100227" lon="11.3187307"><ele>369.0</ele><time>2026-03-28T10:28:41.211Z</time></trkpt><trkpt lat="43.4099387" lon="11.3187901"><ele>369.0</ele><time>2026-03-28T10:28:42.21Z</time></trkpt><trkpt lat="43.4098617" lon="11.3188511"><ele>369.0</ele><time>2026-03-28T10:28:43.211Z</time></trkpt><trkpt lat="43.4097857" lon="11.3189059"><ele>369.0</ele><time>2026-03-28T10:28:44.21Z</time></trkpt><trkpt lat="43.4097162" lon="11.318949"><ele>369.0</ele><time>2026-03-28T10:28:45.211Z</time></trkpt><trkpt lat="43.4096497" lon="11.3189776"><ele>368.5</ele><time>2026-03-28T10:28:46.211Z</time></trkpt><trkpt lat="43.4095878" lon="11.3189949"><ele>368.0</ele><time>2026-03-28T10:28:47.211Z</time></trkpt><trkpt lat="43.4094598" lon="11.3189984"><ele>367.5</ele><time>2026-03-28T10:28:49.21Z</time></trkpt><trkpt lat="43.4093853" lon="11.3189819"><ele>367.0</ele><time>2026-03-28T10:28:50.21Z</time></trkpt><trkpt lat="43.4093009" lon="11.3189603"><ele>366.5</ele><time>2026-03-28T10:28:51.211Z</time></trkpt><trkpt lat="43.4092061" lon="11.3189359"><ele>366.0</ele><time>2026-03-28T10:28:52.21Z</time></trkpt><trkpt lat="43.4090998" lon="11.3189078"><ele>366.25</ele><time>2026-03-28T10:28:53.21Z</time></trkpt><trkpt lat="43.408979" lon="11.3188735"><ele>366.5</ele><time>2026-03-28T10:28:54.211Z</time></trkpt><trkpt lat="43.4088505" lon="11.3188401"><ele>366.75</ele><time>2026-03-28T10:28:55.21Z</time></trkpt><trkpt lat="43.4087209" lon="11.3188121"><ele>367.0</ele><time>2026-03-28T10:28:56.21Z</time></trkpt><trkpt lat="43.4086003" lon="11.3187882"><ele>366.20000000000005</ele><time>2026-03-28T10:28:57.21Z</time></trkpt><trkpt lat="43.408483" lon="11.3187584"><ele>365.4</ele><time>2026-03-28T10:28:58.21Z</time></trkpt><trkpt lat="43.4083712" lon="11.3187285"><ele>364.6</ele><time>2026-03-28T10:28:59.211Z</time></trkpt><trkpt lat="43.4082669" lon="11.3187027"><ele>363.79999999999995</ele><time>2026-03-28T10:29:00.21Z</time></trkpt><trkpt lat="43.4081645" lon="11.3186758"><ele>363.0</ele><time>2026-03-28T10:29:01.211Z</time></trkpt><trkpt lat="43.4080686" lon="11.3186419"><ele>363.59999999999997</ele><time>2026-03-28T10:29:02.21Z</time></trkpt><trkpt lat="43.4079697" lon="11.318613"><ele>364.2</ele><time>2026-03-28T10:29:03.21Z</time></trkpt><trkpt lat="43.4078678" lon="11.3186156"><ele>364.8</ele><time>2026-03-28T10:29:04.211Z</time></trkpt><trkpt lat="43.4077658" lon="11.3186542"><ele>365.4</ele><time>2026-03-28T10:29:05.21Z</time></trkpt><trkpt lat="43.4076597" lon="11.3187044"><ele>366.0</ele><time>2026-03-28T10:29:06.21Z</time></trkpt><trkpt lat="43.4075459" lon="11.3187525"><ele>366.0</ele><time>2026-03-28T10:29:07.211Z</time></trkpt><trkpt lat="43.4074272" lon="11.3187925"><ele>366.0</ele><time>2026-03-28T10:29:08.21Z</time></trkpt><trkpt lat="43.4073221" lon="11.3188285"><ele>366.0</ele><time>2026-03-28T10:29:09.21Z</time></trkpt><trkpt lat="43.4072242" lon="11.318863"><ele>366.0</ele><time>2026-03-28T10:29:10.21Z</time></trkpt><trkpt lat="43.4071256" lon="11.3188912"><ele>366.0</ele><time>2026-03-28T10:29:11.21Z</time></trkpt><trkpt lat="43.4070224" lon="11.3189234"><ele>365.6</ele><time>2026-03-28T10:29:12.21Z</time></trkpt><trkpt lat="43.4069165" lon="11.3189507"><ele>365.20000000000005</ele><time>2026-03-28T10:29:13.21Z</time></trkpt><trkpt lat="43.4068149" lon="11.3189606"><ele>364.79999999999995</ele><time>2026-03-28T10:29:14.21Z</time></trkpt><trkpt lat="43.4067261" lon="11.3189693"><ele>364.4</ele><time>2026-03-28T10:29:15.21Z</time></trkpt><trkpt lat="43.4066431" lon="11.3189652"><ele>364.0</ele><time>2026-03-28T10:29:16.21Z</time></trkpt><trkpt lat="43.406565" lon="11.3189618"><ele>364.0</ele><time>2026-03-28T10:29:17.21Z</time></trkpt><trkpt lat="43.4064789" lon="11.3189463"><ele>364.0</ele><time>2026-03-28T10:29:18.211Z</time></trkpt><trkpt lat="43.4063993" lon="11.3189046"><ele>364.0</ele><time>2026-03-28T10:29:19.21Z</time></trkpt><trkpt lat="43.4063266" lon="11.3188402"><ele>364.0</ele><time>2026-03-28T10:29:20.21Z</time></trkpt><trkpt lat="43.4062541" lon="11.3187805"><ele>364.0</ele><time>2026-03-28T10:29:21.21Z</time></trkpt><trkpt lat="43.406171" lon="11.3187166"><ele>364.0</ele><time>2026-03-28T10:29:22.21Z</time></trkpt><trkpt lat="43.4060726" lon="11.3186582"><ele>363.2</ele><time>2026-03-28T10:29:23.21Z</time></trkpt><trkpt lat="43.4059792" lon="11.3186208"><ele>362.4</ele><time>2026-03-28T10:29:24.211Z</time></trkpt><trkpt lat="43.4058884" lon="11.3185862"><ele>361.6</ele><time>2026-03-28T10:29:25.21Z</time></trkpt><trkpt lat="43.4058003" lon="11.3185384"><ele>360.8</ele><time>2026-03-28T10:29:26.21Z</time></trkpt><trkpt lat="43.4057127" lon="11.318475"><ele>360.0</ele><time>2026-03-28T10:29:27.21Z</time></trkpt><trkpt lat="43.405627" lon="11.3184088"><ele>360.0</ele><time>2026-03-28T10:29:28.21Z</time></trkpt><trkpt lat="43.4055448" lon="11.3183527"><ele>360.0</ele><time>2026-03-28T10:29:29.21Z</time></trkpt><trkpt lat="43.4054682" lon="11.3182963"><ele>360.0</ele><time>2026-03-28T10:29:30.21Z</time></trkpt><trkpt lat="43.4054011" lon="11.3182437"><ele>360.0</ele><time>2026-03-28T10:29:31.211Z</time></trkpt><trkpt lat="43.4053338" lon="11.3181844"><ele>360.0</ele><time>2026-03-28T10:29:32.211Z</time></trkpt><trkpt lat="43.4052713" lon="11.318114"><ele>360.0</ele><time>2026-03-28T10:29:33.21Z</time></trkpt><trkpt lat="43.405226" lon="11.31803"><ele>358.4</ele><time>2026-03-28T10:29:34.21Z</time></trkpt><trkpt lat="43.4051936" lon="11.3179341"><ele>356.8</ele><time>2026-03-28T10:29:35.21Z</time></trkpt><trkpt lat="43.4051549" lon="11.317843"><ele>355.20000000000005</ele><time>2026-03-28T10:29:36.21Z</time></trkpt><trkpt lat="43.405097" lon="11.3177592"><ele>353.6</ele><time>2026-03-28T10:29:37.21Z</time></trkpt><trkpt lat="43.4050054" lon="11.3176938"><ele>352.0</ele><time>2026-03-28T10:29:38.21Z</time></trkpt><trkpt lat="43.4048951" lon="11.3176553"><ele>352.0</ele><time>2026-03-28T10:29:39.211Z</time></trkpt><trkpt lat="43.4047814" lon="11.3176224"><ele>352.0</ele><time>2026-03-28T10:29:40.211Z</time></trkpt><trkpt lat="43.4046436" lon="11.3175819"><ele>352.0</ele><time>2026-03-28T10:29:41.211Z</time></trkpt><trkpt lat="43.4044818" lon="11.3175428"><ele>352.0</ele><time>2026-03-28T10:29:42.21Z</time></trkpt><trkpt lat="43.4043185" lon="11.3175016"><ele>349.66666666666663</ele><time>2026-03-28T10:29:43.21Z</time></trkpt><trkpt lat="43.4041442" lon="11.3174523"><ele>347.3333333333333</ele><time>2026-03-28T10:29:44.21Z</time></trkpt><trkpt lat="43.4039599" lon="11.3173978"><ele>345.0</ele><time>2026-03-28T10:29:45.211Z</time></trkpt><trkpt lat="43.4037841" lon="11.3173407"><ele>343.6666666666667</ele><time>2026-03-28T10:29:46.21Z</time></trkpt><trkpt lat="43.4035984" lon="11.3172828"><ele>342.33333333333337</ele><time>2026-03-28T10:29:47.211Z</time></trkpt><trkpt lat="43.4034113" lon="11.3172299"><ele>341.0</ele><time>2026-03-28T10:29:48.21Z</time></trkpt><trkpt lat="43.4032305" lon="11.3171719"><ele>340.25</ele><time>2026-03-28T10:29:49.21Z</time></trkpt><trkpt lat="43.4030709" lon="11.3171202"><ele>339.5</ele><time>2026-03-28T10:29:50.211Z</time></trkpt><trkpt lat="43.4029277" lon="11.317078"><ele>338.75</ele><time>2026-03-28T10:29:51.21Z</time></trkpt><trkpt lat="43.4028038" lon="11.317037"><ele>338.0</ele><time>2026-03-28T10:29:52.211Z</time></trkpt><trkpt lat="43.4026971" lon="11.3170006"><ele>338.0</ele><time>2026-03-28T10:29:53.211Z</time></trkpt><trkpt lat="43.4025942" lon="11.3169675"><ele>338.0</ele><time>2026-03-28T10:29:54.211Z</time></trkpt><trkpt lat="43.4024732" lon="11.316929"><ele>338.0</ele><time>2026-03-28T10:29:55.211Z</time></trkpt><trkpt lat="43.4023355" lon="11.316878"><ele>338.0</ele><time>2026-03-28T10:29:56.211Z</time></trkpt><trkpt lat="43.4021846" lon="11.3168074"><ele>336.0</ele><time>2026-03-28T10:29:57.21Z</time></trkpt><trkpt lat="43.4020238" lon="11.3167266"><ele>334.0</ele><time>2026-03-28T10:29:58.21Z</time></trkpt><trkpt lat="43.4018563" lon="11.3166499"><ele>332.0</ele><time>2026-03-28T10:29:59.21Z</time></trkpt><trkpt lat="43.4016773" lon="11.3165763"><ele>332.0</ele><time>2026-03-28T10:30:00.21Z</time></trkpt><trkpt lat="43.4014897" lon="11.3165014"><ele>332.0</ele><time>2026-03-28T10:30:01.21Z</time></trkpt><trkpt lat="43.4013073" lon="11.3164175"><ele>332.0</ele><time>2026-03-28T10:30:02.21Z</time></trkpt><trkpt lat="43.4011234" lon="11.3163205"><ele>328.6666666666667</ele><time>2026-03-28T10:30:03.209Z</time></trkpt><trkpt lat="43.400948" lon="11.3162101"><ele>325.3333333333333</ele><time>2026-03-28T10:30:04.21Z</time></trkpt><trkpt lat="43.4007693" lon="11.3160861"><ele>322.0</ele><time>2026-03-28T10:30:05.21Z</time></trkpt><trkpt lat="43.4005997" lon="11.315957"><ele>321.3333333333333</ele><time>2026-03-28T10:30:06.21Z</time></trkpt><trkpt lat="43.4004489" lon="11.3158379"><ele>320.6666666666667</ele><time>2026-03-28T10:30:07.21Z</time></trkpt><trkpt lat="43.4003028" lon="11.3157249"><ele>320.0</ele><time>2026-03-28T10:30:08.21Z</time></trkpt><trkpt lat="43.4001533" lon="11.3156047"><ele>320.6666666666667</ele><time>2026-03-28T10:30:09.21Z</time></trkpt><trkpt lat="43.4000136" lon="11.3154881"><ele>321.3333333333333</ele><time>2026-03-28T10:30:10.21Z</time></trkpt><trkpt lat="43.3998656" lon="11.3153685"><ele>322.0</ele><time>2026-03-28T10:30:11.211Z</time></trkpt><trkpt lat="43.3997214" lon="11.315245"><ele>320.66666666666663</ele><time>2026-03-28T10:30:12.211Z</time></trkpt><trkpt lat="43.3995881" lon="11.3151224"><ele>319.3333333333333</ele><time>2026-03-28T10:30:13.211Z</time></trkpt><trkpt lat="43.3994663" lon="11.3150092"><ele>318.0</ele><time>2026-03-28T10:30:14.21Z</time></trkpt><trkpt lat="43.3993425" lon="11.3148696"><ele>318.0</ele><time>2026-03-28T10:30:15.21Z</time></trkpt><trkpt lat="43.3992264" lon="11.3147069"><ele>318.0</ele><time>2026-03-28T10:30:16.21Z</time></trkpt><trkpt lat="43.399122" lon="11.3145623"><ele>318.0</ele><time>2026-03-28T10:30:17.21Z</time></trkpt><trkpt lat="43.3990124" lon="11.314435"><ele>318.0</ele><time>2026-03-28T10:30:18.21Z</time></trkpt><trkpt lat="43.3988965" lon="11.3143354"><ele>318.0</ele><time>2026-03-28T10:30:19.211Z</time></trkpt><trkpt lat="43.3987847" lon="11.314237"><ele>318.0</ele><time>2026-03-28T10:30:20.21Z</time></trkpt><trkpt lat="43.3986635" lon="11.3141417"><ele>318.0</ele><time>2026-03-28T10:30:21.211Z</time></trkpt><trkpt lat="43.3985268" lon="11.3140545"><ele>317.3333333333333</ele><time>2026-03-28T10:30:22.21Z</time></trkpt><trkpt lat="43.3983706" lon="11.313983"><ele>316.66666666666663</ele><time>2026-03-28T10:30:23.21Z</time></trkpt><trkpt lat="43.3982082" lon="11.3139213"><ele>316.0</ele><time>2026-03-28T10:30:24.21Z</time></trkpt><trkpt lat="43.3980543" lon="11.3138578"><ele>313.66666666666663</ele><time>2026-03-28T10:30:25.21Z</time></trkpt><trkpt lat="43.3979068" lon="11.3137924"><ele>311.3333333333333</ele><time>2026-03-28T10:30:26.21Z</time></trkpt><trkpt lat="43.3977681" lon="11.3137085"><ele>309.0</ele><time>2026-03-28T10:30:27.21Z</time></trkpt><trkpt lat="43.3976514" lon="11.3135735"><ele>309.0</ele><time>2026-03-28T10:30:28.211Z</time></trkpt><trkpt lat="43.3975495" lon="11.3134028"><ele>309.0</ele><time>2026-03-28T10:30:29.21Z</time></trkpt><trkpt lat="43.3974477" lon="11.3132294"><ele>309.0</ele><time>2026-03-28T10:30:30.21Z</time></trkpt><trkpt lat="43.3973522" lon="11.3130679"><ele>310.0</ele><time>2026-03-28T10:30:31.21Z</time></trkpt><trkpt lat="43.3972607" lon="11.3129125"><ele>311.0</ele><time>2026-03-28T10:30:32.21Z</time></trkpt><trkpt lat="43.3971782" lon="11.3127644"><ele>312.0</ele><time>2026-03-28T10:30:33.211Z</time></trkpt><trkpt lat="43.3971027" lon="11.3126324"><ele>313.0</ele><time>2026-03-28T10:30:34.21Z</time></trkpt><trkpt lat="43.3970295" lon="11.3125023"><ele>314.25</ele><time>2026-03-28T10:30:35.21Z</time></trkpt><trkpt lat="43.3969519" lon="11.3123775"><ele>315.5</ele><time>2026-03-28T10:30:36.21Z</time></trkpt><trkpt lat="43.3968701" lon="11.312267"><ele>316.75</ele><time>2026-03-28T10:30:37.211Z</time></trkpt><trkpt lat="43.3967766" lon="11.3121643"><ele>318.0</ele><time>2026-03-28T10:30:38.211Z</time></trkpt><trkpt lat="43.3966742" lon="11.3120745"><ele>318.0</ele><time>2026-03-28T10:30:39.209Z</time></trkpt><trkpt lat="43.3965608" lon="11.3120045"><ele>318.0</ele><time>2026-03-28T10:30:40.21Z</time></trkpt><trkpt lat="43.3964337" lon="11.3119626"><ele>318.0</ele><time>2026-03-28T10:30:41.21Z</time></trkpt><trkpt lat="43.3962996" lon="11.3119342"><ele>318.0</ele><time>2026-03-28T10:30:42.211Z</time></trkpt><trkpt lat="43.3961746" lon="11.3119105"><ele>318.0</ele><time>2026-03-28T10:30:43.211Z</time></trkpt><trkpt lat="43.3960513" lon="11.3118927"><ele>318.0</ele><time>2026-03-28T10:30:44.21Z</time></trkpt><trkpt lat="43.395941" lon="11.3118835"><ele>318.0</ele><time>2026-03-28T10:30:45.21Z</time></trkpt><trkpt lat="43.3958249" lon="11.3118617"><ele>318.0</ele><time>2026-03-28T10:30:46.211Z</time></trkpt><trkpt lat="43.3956968" lon="11.3118403"><ele>318.0</ele><time>2026-03-28T10:30:47.21Z</time></trkpt><trkpt lat="43.3955665" lon="11.3118188"><ele>318.0</ele><time>2026-03-28T10:30:48.21Z</time></trkpt><trkpt lat="43.3954357" lon="11.3117929"><ele>318.0</ele><time>2026-03-28T10:30:49.211Z</time></trkpt><trkpt lat="43.3952945" lon="11.3117644"><ele>318.0</ele><time>2026-03-28T10:30:50.21Z</time></trkpt><trkpt lat="43.395148" lon="11.3117383"><ele>318.75</ele><time>2026-03-28T10:30:51.21Z</time></trkpt><trkpt lat="43.3950045" lon="11.3117176"><ele>319.5</ele><time>2026-03-28T10:30:52.211Z</time></trkpt><trkpt lat="43.3948681" lon="11.3116935"><ele>320.25</ele><time>2026-03-28T10:30:53.21Z</time></trkpt><trkpt lat="43.3947268" lon="11.3116688"><ele>321.0</ele><time>2026-03-28T10:30:54.211Z</time></trkpt><trkpt lat="43.3945825" lon="11.3116489"><ele>322.0</ele><time>2026-03-28T10:30:55.211Z</time></trkpt><trkpt lat="43.3944512" lon="11.3116362"><ele>323.0</ele><time>2026-03-28T10:30:56.21Z</time></trkpt><trkpt lat="43.3943239" lon="11.3116231"><ele>324.0</ele><time>2026-03-28T10:30:57.21Z</time></trkpt><trkpt lat="43.3941987" lon="11.311612"><ele>325.0</ele><time>2026-03-28T10:30:58.21Z</time></trkpt><trkpt lat="43.3940737" lon="11.3116056"><ele>325.0</ele><time>2026-03-28T10:30:59.21Z</time></trkpt><trkpt lat="43.3939474" lon="11.3115963"><ele>325.0</ele><time>2026-03-28T10:31:00.21Z</time></trkpt><trkpt lat="43.3938336" lon="11.3115907"><ele>325.0</ele><time>2026-03-28T10:31:01.21Z</time></trkpt><trkpt lat="43.3937293" lon="11.3115759"><ele>325.0</ele><time>2026-03-28T10:31:02.21Z</time></trkpt><trkpt lat="43.3936415" lon="11.3115451"><ele>325.0</ele><time>2026-03-28T10:31:03.211Z</time></trkpt><trkpt lat="43.3935702" lon="11.3114868"><ele>325.6</ele><time>2026-03-28T10:31:04.21Z</time></trkpt><trkpt lat="43.3935107" lon="11.3113924"><ele>326.2</ele><time>2026-03-28T10:31:05.211Z</time></trkpt><trkpt lat="43.3934712" lon="11.3112597"><ele>326.79999999999995</ele><time>2026-03-28T10:31:06.21Z</time></trkpt><trkpt lat="43.3934488" lon="11.3111007"><ele>327.4</ele><time>2026-03-28T10:31:07.21Z</time></trkpt><trkpt lat="43.3934383" lon="11.3109631"><ele>328.0</ele><time>2026-03-28T10:31:08.21Z</time></trkpt><trkpt lat="43.3934269" lon="11.3108168"><ele>328.0</ele><time>2026-03-28T10:31:09.21Z</time></trkpt><trkpt lat="43.3934166" lon="11.3106747"><ele>328.0</ele><time>2026-03-28T10:31:10.21Z</time></trkpt><trkpt lat="43.3934054" lon="11.3105286"><ele>328.0</ele><time>2026-03-28T10:31:11.211Z</time></trkpt><trkpt lat="43.3933961" lon="11.3103821"><ele>328.0</ele><time>2026-03-28T10:31:12.21Z</time></trkpt><trkpt lat="43.3933885" lon="11.3102315"><ele>328.0</ele><time>2026-03-28T10:31:13.211Z</time></trkpt><trkpt lat="43.3933796" lon="11.3100812"><ele>329.59999999999997</ele><time>2026-03-28T10:31:14.21Z</time></trkpt><trkpt lat="43.3933748" lon="11.3099251"><ele>331.2</ele><time>2026-03-28T10:31:15.211Z</time></trkpt><trkpt lat="43.3933692" lon="11.3097684"><ele>332.8</ele><time>2026-03-28T10:31:16.21Z</time></trkpt><trkpt lat="43.393365" lon="11.3096171"><ele>334.4</ele><time>2026-03-28T10:31:17.211Z</time></trkpt><trkpt lat="43.3933586" lon="11.3094706"><ele>336.0</ele><time>2026-03-28T10:31:18.211Z</time></trkpt><trkpt lat="43.3933508" lon="11.3093463"><ele>337.1666666666667</ele><time>2026-03-28T10:31:19.211Z</time></trkpt><trkpt lat="43.3933503" lon="11.3092436"><ele>338.3333333333333</ele><time>2026-03-28T10:31:20.21Z</time></trkpt><trkpt lat="43.3933485" lon="11.3091542"><ele>339.5</ele><time>2026-03-28T10:31:21.211Z</time></trkpt><trkpt lat="43.3933269" lon="11.3089923"><ele>340.66666666666663</ele><time>2026-03-28T10:31:23.21Z</time></trkpt><trkpt lat="43.3933134" lon="11.3088959"><ele>341.8333333333333</ele><time>2026-03-28T10:32:03.21Z</time></trkpt><trkpt lat="43.3933046" lon="11.3088055"><ele>343.0</ele><time>2026-03-28T10:32:09.211Z</time></trkpt><trkpt lat="43.3932858" lon="11.3087045"><ele>343.3333333333333</ele><time>2026-03-28T10:32:14.21Z</time></trkpt><trkpt lat="43.393204" lon="11.3086814"><ele>343.66666666666663</ele><time>2026-03-28T10:32:17.21Z</time></trkpt><trkpt lat="43.3931499" lon="11.3087406"><ele>344.0</ele><time>2026-03-28T10:32:18.21Z</time></trkpt><trkpt lat="43.3930841" lon="11.308794"><ele>344.3333333333333</ele><time>2026-03-28T10:32:19.21Z</time></trkpt><trkpt lat="43.393" lon="11.3088588"><ele>344.6666666666667</ele><time>2026-03-28T10:32:20.209Z</time></trkpt><trkpt lat="43.3929077" lon="11.3089289"><ele>345.0</ele><time>2026-03-28T10:32:21.211Z</time></trkpt><trkpt lat="43.3928016" lon="11.309"><ele>345.6</ele><time>2026-03-28T10:32:22.211Z</time></trkpt><trkpt lat="43.3927009" lon="11.30907"><ele>346.2</ele><time>2026-03-28T10:32:23.21Z</time></trkpt><trkpt lat="43.392613" lon="11.309126"><ele>346.79999999999995</ele><time>2026-03-28T10:32:24.209Z</time></trkpt><trkpt lat="43.3925382" lon="11.3091695"><ele>347.4</ele><time>2026-03-28T10:32:25.211Z</time></trkpt><trkpt lat="43.3924601" lon="11.3092118"><ele>348.0</ele><time>2026-03-28T10:32:26.21Z</time></trkpt><trkpt lat="43.392365" lon="11.3092582"><ele>348.0</ele><time>2026-03-28T10:32:27.211Z</time></trkpt><trkpt lat="43.3922613" lon="11.3093122"><ele>348.0</ele><time>2026-03-28T10:32:28.211Z</time></trkpt><trkpt lat="43.3921494" lon="11.309378"><ele>348.0</ele><time>2026-03-28T10:32:29.211Z</time></trkpt><trkpt lat="43.3920393" lon="11.3094419"><ele>348.0</ele><time>2026-03-28T10:32:30.21Z</time></trkpt><trkpt lat="43.3919429" lon="11.3095046"><ele>348.4</ele><time>2026-03-28T10:32:31.21Z</time></trkpt><trkpt lat="43.3918548" lon="11.3095826"><ele>348.79999999999995</ele><time>2026-03-28T10:32:32.211Z</time></trkpt><trkpt lat="43.3917779" lon="11.3096647"><ele>349.2</ele><time>2026-03-28T10:32:33.211Z</time></trkpt><trkpt lat="43.3917085" lon="11.3097458"><ele>349.6</ele><time>2026-03-28T10:32:34.21Z</time></trkpt><trkpt lat="43.3916329" lon="11.3098272"><ele>350.0</ele><time>2026-03-28T10:32:35.21Z</time></trkpt><trkpt lat="43.3915589" lon="11.3099078"><ele>348.6</ele><time>2026-03-28T10:32:36.209Z</time></trkpt><trkpt lat="43.3914768" lon="11.3099881"><ele>347.2</ele><time>2026-03-28T10:32:37.21Z</time></trkpt><trkpt lat="43.3913823" lon="11.3100691"><ele>345.79999999999995</ele><time>2026-03-28T10:32:38.21Z</time></trkpt><trkpt lat="43.3912894" lon="11.310141"><ele>344.4</ele><time>2026-03-28T10:32:39.21Z</time></trkpt><trkpt lat="43.3911817" lon="11.3102225"><ele>343.0</ele><time>2026-03-28T10:32:40.21Z</time></trkpt><trkpt lat="43.3910457" lon="11.3103028"><ele>341.66666666666663</ele><time>2026-03-28T10:32:41.21Z</time></trkpt><trkpt lat="43.3909043" lon="11.3103756"><ele>340.3333333333333</ele><time>2026-03-28T10:32:42.21Z</time></trkpt><trkpt lat="43.3907485" lon="11.3104609"><ele>339.0</ele><time>2026-03-28T10:32:43.21Z</time></trkpt><trkpt lat="43.3905839" lon="11.310493"><ele>338.6666666666667</ele><time>2026-03-28T10:32:44.211Z</time></trkpt><trkpt lat="43.3904114" lon="11.3104671"><ele>338.33333333333337</ele><time>2026-03-28T10:32:45.211Z</time></trkpt><trkpt lat="43.3902581" lon="11.3104083"><ele>338.0</ele><time>2026-03-28T10:32:46.211Z</time></trkpt><trkpt lat="43.3901031" lon="11.3103556"><ele>338.0</ele><time>2026-03-28T10:32:47.211Z</time></trkpt><trkpt lat="43.389946" lon="11.3103027"><ele>338.0</ele><time>2026-03-28T10:32:48.21Z</time></trkpt><trkpt lat="43.3897959" lon="11.3102434"><ele>338.0</ele><time>2026-03-28T10:32:49.21Z</time></trkpt><trkpt lat="43.3896537" lon="11.3101831"><ele>339.25</ele><time>2026-03-28T10:32:50.211Z</time></trkpt><trkpt lat="43.3895113" lon="11.3101292"><ele>340.5</ele><time>2026-03-28T10:32:51.21Z</time></trkpt><trkpt lat="43.3893822" lon="11.3100385"><ele>341.75</ele><time>2026-03-28T10:32:52.211Z</time></trkpt><trkpt lat="43.389269" lon="11.309914"><ele>343.0</ele><time>2026-03-28T10:32:53.21Z</time></trkpt><trkpt lat="43.3891561" lon="11.309786"><ele>343.3333333333333</ele><time>2026-03-28T10:32:54.209Z</time></trkpt><trkpt lat="43.3890365" lon="11.309662"><ele>343.6666666666667</ele><time>2026-03-28T10:32:55.21Z</time></trkpt><trkpt lat="43.3889137" lon="11.3095521"><ele>344.0</ele><time>2026-03-28T10:32:56.211Z</time></trkpt><trkpt lat="43.3887812" lon="11.3094438"><ele>344.0</ele><time>2026-03-28T10:32:57.211Z</time></trkpt><trkpt lat="43.388643" lon="11.3093331"><ele>344.0</ele><time>2026-03-28T10:32:58.21Z</time></trkpt><trkpt lat="43.3885175" lon="11.3092162"><ele>344.0</ele><time>2026-03-28T10:32:59.21Z</time></trkpt><trkpt lat="43.388388" lon="11.3090884"><ele>344.0</ele><time>2026-03-28T10:33:00.21Z</time></trkpt><trkpt lat="43.3882549" lon="11.3089563"><ele>344.0</ele><time>2026-03-28T10:33:01.211Z</time></trkpt><trkpt lat="43.3881218" lon="11.3088414"><ele>344.0</ele><time>2026-03-28T10:33:02.211Z</time></trkpt><trkpt lat="43.3879836" lon="11.3087344"><ele>344.0</ele><time>2026-03-28T10:33:03.21Z</time></trkpt><trkpt lat="43.3878554" lon="11.3086344"><ele>344.0</ele><time>2026-03-28T10:33:04.211Z</time></trkpt><trkpt lat="43.3877343" lon="11.3085449"><ele>344.0</ele><time>2026-03-28T10:33:05.21Z</time></trkpt><trkpt lat="43.3876032" lon="11.3084635"><ele>344.0</ele><time>2026-03-28T10:33:06.211Z</time></trkpt><trkpt lat="43.3874664" lon="11.308424"><ele>344.0</ele><time>2026-03-28T10:33:07.21Z</time></trkpt><trkpt lat="43.3873329" lon="11.3084381"><ele>344.0</ele><time>2026-03-28T10:33:08.21Z</time></trkpt><trkpt lat="43.3872087" lon="11.3084988"><ele>344.0</ele><time>2026-03-28T10:33:09.21Z</time></trkpt><trkpt lat="43.387095" lon="11.308605"><ele>344.0</ele><time>2026-03-28T10:33:10.211Z</time></trkpt><trkpt lat="43.3869793" lon="11.3087344"><ele>344.0</ele><time>2026-03-28T10:33:11.21Z</time></trkpt><trkpt lat="43.3868575" lon="11.3088783"><ele>344.0</ele><time>2026-03-28T10:33:12.21Z</time></trkpt><trkpt lat="43.386734" lon="11.3090402"><ele>344.0</ele><time>2026-03-28T10:33:13.21Z</time></trkpt><trkpt lat="43.3866121" lon="11.3092029"><ele>344.0</ele><time>2026-03-28T10:33:14.211Z</time></trkpt><trkpt lat="43.3864852" lon="11.3093669"><ele>344.0</ele><time>2026-03-28T10:33:15.211Z</time></trkpt><trkpt lat="43.3863724" lon="11.309514"><ele>344.0</ele><time>2026-03-28T10:33:16.211Z</time></trkpt><trkpt lat="43.3862634" lon="11.3096585"><ele>343.0</ele><time>2026-03-28T10:33:17.211Z</time></trkpt><trkpt lat="43.3861624" lon="11.3097997"><ele>342.0</ele><time>2026-03-28T10:33:18.21Z</time></trkpt><trkpt lat="43.3860573" lon="11.3099422"><ele>341.0</ele><time>2026-03-28T10:33:19.211Z</time></trkpt><trkpt lat="43.3859472" lon="11.3100939"><ele>340.0</ele><time>2026-03-28T10:33:20.21Z</time></trkpt><trkpt lat="43.3858296" lon="11.3102507"><ele>340.0</ele><time>2026-03-28T10:33:21.21Z</time></trkpt><trkpt lat="43.3857016" lon="11.3104047"><ele>340.0</ele><time>2026-03-28T10:33:22.21Z</time></trkpt><trkpt lat="43.3855641" lon="11.3105438"><ele>340.0</ele><time>2026-03-28T10:33:23.211Z</time></trkpt><trkpt lat="43.3854314" lon="11.3106647"><ele>341.0</ele><time>2026-03-28T10:33:24.21Z</time></trkpt><trkpt lat="43.3853055" lon="11.3107743"><ele>342.0</ele><time>2026-03-28T10:33:25.211Z</time></trkpt><trkpt lat="43.3851887" lon="11.3108796"><ele>343.0</ele><time>2026-03-28T10:33:26.211Z</time></trkpt><trkpt lat="43.3850718" lon="11.3110041"><ele>344.0</ele><time>2026-03-28T10:33:27.21Z</time></trkpt><trkpt lat="43.3849594" lon="11.3111433"><ele>344.0</ele><time>2026-03-28T10:33:28.21Z</time></trkpt><trkpt lat="43.3848555" lon="11.3112681"><ele>344.0</ele><time>2026-03-28T10:33:29.211Z</time></trkpt><trkpt lat="43.3847719" lon="11.3114066"><ele>344.0</ele><time>2026-03-28T10:33:30.211Z</time></trkpt><trkpt lat="43.3847201" lon="11.3115783"><ele>344.0</ele><time>2026-03-28T10:33:31.211Z</time></trkpt><trkpt lat="43.384706" lon="11.3117672"><ele>342.75</ele><time>2026-03-28T10:33:32.21Z</time></trkpt><trkpt lat="43.3847353" lon="11.3119432"><ele>341.5</ele><time>2026-03-28T10:33:33.21Z</time></trkpt><trkpt lat="43.3847788" lon="11.3121208"><ele>340.25</ele><time>2026-03-28T10:33:34.21Z</time></trkpt><trkpt lat="43.3848124" lon="11.3122805"><ele>339.0</ele><time>2026-03-28T10:33:35.21Z</time></trkpt><trkpt lat="43.3848529" lon="11.3124271"><ele>339.0</ele><time>2026-03-28T10:33:36.21Z</time></trkpt><trkpt lat="43.3848718" lon="11.3125875"><ele>339.0</ele><time>2026-03-28T10:33:37.211Z</time></trkpt><trkpt lat="43.3848524" lon="11.312741"><ele>339.0</ele><time>2026-03-28T10:33:38.21Z</time></trkpt><trkpt lat="43.3847941" lon="11.3128618"><ele>339.0</ele><time>2026-03-28T10:33:39.211Z</time></trkpt><trkpt lat="43.3847113" lon="11.312927"><ele>339.0</ele><time>2026-03-28T10:33:40.21Z</time></trkpt><trkpt lat="43.3846141" lon="11.3129394"><ele>339.0</ele><time>2026-03-28T10:33:41.211Z</time></trkpt><trkpt lat="43.3845177" lon="11.3128927"><ele>339.0</ele><time>2026-03-28T10:33:42.211Z</time></trkpt><trkpt lat="43.3844278" lon="11.3127977"><ele>339.0</ele><time>2026-03-28T10:33:43.209Z</time></trkpt><trkpt lat="43.3843345" lon="11.3126844"><ele>339.0</ele><time>2026-03-28T10:33:44.21Z</time></trkpt><trkpt lat="43.384234" lon="11.3125657"><ele>339.0</ele><time>2026-03-28T10:33:45.21Z</time></trkpt><trkpt lat="43.3841446" lon="11.3124437"><ele>339.0</ele><time>2026-03-28T10:33:46.21Z</time></trkpt><trkpt lat="43.3840541" lon="11.3122965"><ele>339.0</ele><time>2026-03-28T10:33:47.211Z</time></trkpt><trkpt lat="43.38398" lon="11.3121208"><ele>339.0</ele><time>2026-03-28T10:33:48.21Z</time></trkpt><trkpt lat="43.3839172" lon="11.3119388"><ele>338.25</ele><time>2026-03-28T10:33:49.21Z</time></trkpt><trkpt lat="43.3838569" lon="11.3117737"><ele>337.5</ele><time>2026-03-28T10:33:50.21Z</time></trkpt><trkpt lat="43.3837968" lon="11.3116126"><ele>336.75</ele><time>2026-03-28T10:33:51.21Z</time></trkpt><trkpt lat="43.3837385" lon="11.3114507"><ele>336.0</ele><time>2026-03-28T10:33:52.21Z</time></trkpt><trkpt lat="43.3836712" lon="11.3112997"><ele>336.0</ele><time>2026-03-28T10:33:53.211Z</time></trkpt><trkpt lat="43.3835823" lon="11.3111816"><ele>336.0</ele><time>2026-03-28T10:33:54.21Z</time></trkpt><trkpt lat="43.3834595" lon="11.3110908"><ele>336.0</ele><time>2026-03-28T10:33:55.21Z</time></trkpt><trkpt lat="43.3833182" lon="11.3110268"><ele>336.0</ele><time>2026-03-28T10:33:56.211Z</time></trkpt><trkpt lat="43.3831601" lon="11.3109755"><ele>334.0</ele><time>2026-03-28T10:33:57.21Z</time></trkpt><trkpt lat="43.3829971" lon="11.3109255"><ele>332.0</ele><time>2026-03-28T10:33:58.211Z</time></trkpt><trkpt lat="43.3828285" lon="11.3108647"><ele>330.0</ele><time>2026-03-28T10:33:59.21Z</time></trkpt><trkpt lat="43.3826735" lon="11.3108072"><ele>330.0</ele><time>2026-03-28T10:34:00.21Z</time></trkpt><trkpt lat="43.3825197" lon="11.3107578"><ele>330.0</ele><time>2026-03-28T10:34:01.21Z</time></trkpt><trkpt lat="43.382368" lon="11.310709"><ele>330.0</ele><time>2026-03-28T10:34:02.21Z</time></trkpt><trkpt lat="43.3822217" lon="11.310659"><ele>329.3333333333333</ele><time>2026-03-28T10:34:03.21Z</time></trkpt><trkpt lat="43.3820692" lon="11.3106012"><ele>328.66666666666663</ele><time>2026-03-28T10:34:04.21Z</time></trkpt><trkpt lat="43.3819154" lon="11.3105305"><ele>328.0</ele><time>2026-03-28T10:34:05.211Z</time></trkpt><trkpt lat="43.3817626" lon="11.3104468"><ele>328.0</ele><time>2026-03-28T10:34:06.211Z</time></trkpt><trkpt lat="43.3816177" lon="11.3103561"><ele>328.0</ele><time>2026-03-28T10:34:07.21Z</time></trkpt><trkpt lat="43.3814718" lon="11.3102636"><ele>328.0</ele><time>2026-03-28T10:34:08.211Z</time></trkpt><trkpt lat="43.381324" lon="11.3101723"><ele>328.0</ele><time>2026-03-28T10:34:09.211Z</time></trkpt><trkpt lat="43.381185" lon="11.3100896"><ele>328.0</ele><time>2026-03-28T10:34:10.211Z</time></trkpt><trkpt lat="43.3810403" lon="11.3100028"><ele>328.0</ele><time>2026-03-28T10:34:11.21Z</time></trkpt><trkpt lat="43.3808964" lon="11.3099163"><ele>328.0</ele><time>2026-03-28T10:34:12.209Z</time></trkpt><trkpt lat="43.3807537" lon="11.3098373"><ele>328.0</ele><time>2026-03-28T10:34:13.211Z</time></trkpt><trkpt lat="43.3806076" lon="11.3097823"><ele>328.0</ele><time>2026-03-28T10:34:14.211Z</time></trkpt><trkpt lat="43.3804705" lon="11.3097568"><ele>328.0</ele><time>2026-03-28T10:34:15.21Z</time></trkpt><trkpt lat="43.3803282" lon="11.3097504"><ele>328.0</ele><time>2026-03-28T10:34:16.211Z</time></trkpt><trkpt lat="43.3801931" lon="11.3097526"><ele>328.0</ele><time>2026-03-28T10:34:17.21Z</time></trkpt><trkpt lat="43.3800546" lon="11.309769"><ele>328.0</ele><time>2026-03-28T10:34:18.211Z</time></trkpt><trkpt lat="43.3799176" lon="11.3097982"><ele>328.0</ele><time>2026-03-28T10:34:19.21Z</time></trkpt><trkpt lat="43.3797834" lon="11.3098303"><ele>328.25</ele><time>2026-03-28T10:34:20.21Z</time></trkpt><trkpt lat="43.3796609" lon="11.3098581"><ele>328.5</ele><time>2026-03-28T10:34:21.21Z</time></trkpt><trkpt lat="43.3795468" lon="11.3098827"><ele>328.75</ele><time>2026-03-28T10:34:22.21Z</time></trkpt><trkpt lat="43.3794384" lon="11.3099071"><ele>329.0</ele><time>2026-03-28T10:34:23.21Z</time></trkpt><trkpt lat="43.3793359" lon="11.3099393"><ele>329.0</ele><time>2026-03-28T10:34:24.209Z</time></trkpt><trkpt lat="43.379242" lon="11.3099693"><ele>329.0</ele><time>2026-03-28T10:34:25.211Z</time></trkpt><trkpt lat="43.3791737" lon="11.3099877"><ele>329.0</ele><time>2026-03-28T10:34:26.211Z</time></trkpt><trkpt lat="43.3790875" lon="11.3100046"><ele>329.0</ele><time>2026-03-28T10:34:28.21Z</time></trkpt><trkpt lat="43.3789938" lon="11.3100531"><ele>329.0</ele><time>2026-03-28T10:34:30.211Z</time></trkpt><trkpt lat="43.3789372" lon="11.3101002"><ele>329.0</ele><time>2026-03-28T10:34:31.21Z</time></trkpt><trkpt lat="43.3788642" lon="11.3101535"><ele>330.0</ele><time>2026-03-28T10:34:32.211Z</time></trkpt><trkpt lat="43.3787737" lon="11.3101997"><ele>331.0</ele><time>2026-03-28T10:34:33.21Z</time></trkpt><trkpt lat="43.3786804" lon="11.310241"><ele>332.0</ele><time>2026-03-28T10:34:34.21Z</time></trkpt><trkpt lat="43.3785653" lon="11.3102879"><ele>333.0</ele><time>2026-03-28T10:34:35.21Z</time></trkpt><trkpt lat="43.3784479" lon="11.3103362"><ele>334.0</ele><time>2026-03-28T10:34:36.21Z</time></trkpt><trkpt lat="43.3783244" lon="11.3103832"><ele>334.0</ele><time>2026-03-28T10:34:37.21Z</time></trkpt><trkpt lat="43.3781945" lon="11.3104261"><ele>334.0</ele><time>2026-03-28T10:34:38.21Z</time></trkpt><trkpt lat="43.3780675" lon="11.3104663"><ele>334.0</ele><time>2026-03-28T10:34:39.211Z</time></trkpt><trkpt lat="43.377935" lon="11.3105053"><ele>334.0</ele><time>2026-03-28T10:34:40.21Z</time></trkpt><trkpt lat="43.3777957" lon="11.3105427"><ele>336.75</ele><time>2026-03-28T10:34:41.21Z</time></trkpt><trkpt lat="43.37765" lon="11.3105835"><ele>339.5</ele><time>2026-03-28T10:34:42.21Z</time></trkpt><trkpt lat="43.3775034" lon="11.3106305"><ele>342.25</ele><time>2026-03-28T10:34:43.21Z</time></trkpt><trkpt lat="43.3773705" lon="11.3106896"><ele>345.0</ele><time>2026-03-28T10:34:44.21Z</time></trkpt><trkpt lat="43.3772349" lon="11.3107658"><ele>347.3333333333333</ele><time>2026-03-28T10:34:45.211Z</time></trkpt><trkpt lat="43.3770985" lon="11.31085"><ele>349.66666666666663</ele><time>2026-03-28T10:34:46.21Z</time></trkpt><trkpt lat="43.3769582" lon="11.3109333"><ele>352.0</ele><time>2026-03-28T10:34:47.21Z</time></trkpt><trkpt lat="43.3768236" lon="11.3110214"><ele>352.0</ele><time>2026-03-28T10:34:48.21Z</time></trkpt><trkpt lat="43.3766889" lon="11.3111075"><ele>352.0</ele><time>2026-03-28T10:34:49.211Z</time></trkpt><trkpt lat="43.3765491" lon="11.311195"><ele>352.0</ele><time>2026-03-28T10:34:50.21Z</time></trkpt><trkpt lat="43.3764087" lon="11.3112814"><ele>354.25</ele><time>2026-03-28T10:34:51.211Z</time></trkpt><trkpt lat="43.3762694" lon="11.3113711"><ele>356.5</ele><time>2026-03-28T10:34:52.21Z</time></trkpt><trkpt lat="43.3761384" lon="11.3114634"><ele>358.75</ele><time>2026-03-28T10:34:53.21Z</time></trkpt><trkpt lat="43.3760248" lon="11.3115692"><ele>361.0</ele><time>2026-03-28T10:34:54.21Z</time></trkpt><trkpt lat="43.3759244" lon="11.3116925"><ele>361.0</ele><time>2026-03-28T10:34:55.211Z</time></trkpt><trkpt lat="43.3758397" lon="11.3118149"><ele>361.0</ele><time>2026-03-28T10:34:56.21Z</time></trkpt><trkpt lat="43.3757679" lon="11.3119179"><ele>361.0</ele><time>2026-03-28T10:34:57.21Z</time></trkpt><trkpt lat="43.3757072" lon="11.3120076"><ele>361.0</ele><time>2026-03-28T10:34:58.21Z</time></trkpt><trkpt lat="43.3756546" lon="11.3120911"><ele>361.0</ele><time>2026-03-28T10:34:59.21Z</time></trkpt><trkpt lat="43.3756014" lon="11.3121723"><ele>361.3333333333333</ele><time>2026-03-28T10:35:00.21Z</time></trkpt><trkpt lat="43.375525" lon="11.3122886"><ele>361.66666666666663</ele><time>2026-03-28T10:35:02.21Z</time></trkpt><trkpt lat="43.3754664" lon="11.3123494"><ele>362.0</ele><time>2026-03-28T10:35:04.211Z</time></trkpt><trkpt lat="43.3754129" lon="11.3124098"><ele>362.3333333333333</ele><time>2026-03-28T10:35:08.211Z</time></trkpt><trkpt lat="43.3753666" lon="11.3124902"><ele>362.6666666666667</ele><time>2026-03-28T10:35:13.21Z</time></trkpt><trkpt lat="43.3754211" lon="11.3125648"><ele>363.0</ele><time>2026-03-28T10:35:15.21Z</time></trkpt><trkpt lat="43.375527" lon="11.3126926"><ele>363.0</ele><time>2026-03-28T10:35:17.21Z</time></trkpt><trkpt lat="43.375598" lon="11.3127812"><ele>363.0</ele><time>2026-03-28T10:35:18.21Z</time></trkpt><trkpt lat="43.3756742" lon="11.3128863"><ele>363.0</ele><time>2026-03-28T10:35:19.211Z</time></trkpt><trkpt lat="43.3757497" lon="11.3129903"><ele>363.0</ele><time>2026-03-28T10:35:20.21Z</time></trkpt><trkpt lat="43.3758238" lon="11.3131024"><ele>363.0</ele><time>2026-03-28T10:35:21.21Z</time></trkpt><trkpt lat="43.375892" lon="11.3132109"><ele>362.59999999999997</ele><time>2026-03-28T10:35:22.21Z</time></trkpt><trkpt lat="43.3759623" lon="11.3133232"><ele>362.2</ele><time>2026-03-28T10:35:23.21Z</time></trkpt><trkpt lat="43.3760366" lon="11.3134285"><ele>361.8</ele><time>2026-03-28T10:35:24.21Z</time></trkpt><trkpt lat="43.3761087" lon="11.3135299"><ele>361.4</ele><time>2026-03-28T10:35:25.21Z</time></trkpt><trkpt lat="43.3761791" lon="11.3136371"><ele>361.0</ele><time>2026-03-28T10:35:26.21Z</time></trkpt><trkpt lat="43.3762467" lon="11.3137404"><ele>361.0</ele><time>2026-03-28T10:35:27.209Z</time></trkpt><trkpt lat="43.3763101" lon="11.3138307"><ele>361.0</ele><time>2026-03-28T10:35:28.211Z</time></trkpt><trkpt lat="43.3763722" lon="11.3139105"><ele>361.0</ele><time>2026-03-28T10:35:29.21Z</time></trkpt><trkpt lat="43.3764236" lon="11.3139858"><ele>361.0</ele><time>2026-03-28T10:35:30.211Z</time></trkpt><trkpt lat="43.3764593" lon="11.3141376"><ele>361.0</ele><time>2026-03-28T10:35:32.211Z</time></trkpt><trkpt lat="43.3764359" lon="11.3142357"><ele>361.0</ele><time>2026-03-28T10:35:33.21Z</time></trkpt><trkpt lat="43.3763803" lon="11.3143234"><ele>359.20000000000005</ele><time>2026-03-28T10:35:34.211Z</time></trkpt><trkpt lat="43.3763106" lon="11.3144073"><ele>357.40000000000003</ele><time>2026-03-28T10:35:35.21Z</time></trkpt><trkpt lat="43.376238" lon="11.3145035"><ele>355.6</ele><time>2026-03-28T10:35:36.21Z</time></trkpt><trkpt lat="43.376163" lon="11.3146033"><ele>353.8</ele><time>2026-03-28T10:35:37.211Z</time></trkpt><trkpt lat="43.3760966" lon="11.3146959"><ele>352.0</ele><time>2026-03-28T10:35:38.21Z</time></trkpt><trkpt lat="43.3760291" lon="11.3147931"><ele>351.6</ele><time>2026-03-28T10:35:39.211Z</time></trkpt><trkpt lat="43.3759585" lon="11.3148931"><ele>351.20000000000005</ele><time>2026-03-28T10:35:40.211Z</time></trkpt><trkpt lat="43.3758864" lon="11.314993"><ele>350.8</ele><time>2026-03-28T10:35:41.21Z</time></trkpt><trkpt lat="43.3758074" lon="11.3151022"><ele>350.4</ele><time>2026-03-28T10:35:42.21Z</time></trkpt><trkpt lat="43.3757326" lon="11.3152097"><ele>350.0</ele><time>2026-03-28T10:35:43.211Z</time></trkpt><trkpt lat="43.3756714" lon="11.3153006"><ele>350.0</ele><time>2026-03-28T10:35:44.211Z</time></trkpt><trkpt lat="43.3756192" lon="11.3153841"><ele>350.0</ele><time>2026-03-28T10:35:45.21Z</time></trkpt><trkpt lat="43.3755787" lon="11.3154653"><ele>350.0</ele><time>2026-03-28T10:35:46.21Z</time></trkpt><trkpt lat="43.3755367" lon="11.3155347"><ele>350.0</ele><time>2026-03-28T10:35:47.21Z</time></trkpt><trkpt lat="43.3754552" lon="11.3156328"><ele>350.0</ele><time>2026-03-28T10:35:49.21Z</time></trkpt><trkpt lat="43.3753736" lon="11.3157317"><ele>350.0</ele><time>2026-03-28T10:35:51.211Z</time></trkpt><trkpt lat="43.375299" lon="11.3158477"><ele>346.5</ele><time>2026-03-28T10:35:53.21Z</time></trkpt><trkpt lat="43.3752608" lon="11.3159945"><ele>343.0</ele><time>2026-03-28T10:35:55.21Z</time></trkpt><trkpt lat="43.3752619" lon="11.3161438"><ele>339.5</ele><time>2026-03-28T10:35:57.21Z</time></trkpt><trkpt lat="43.3752845" lon="11.3162981"><ele>336.0</ele><time>2026-03-28T10:35:59.21Z</time></trkpt><trkpt lat="43.3753061" lon="11.3164849"><ele>336.0</ele><time>2026-03-28T10:36:01.21Z</time></trkpt><trkpt lat="43.3753095" lon="11.3166001"><ele>336.0</ele><time>2026-03-28T10:36:02.21Z</time></trkpt><trkpt lat="43.3753117" lon="11.3167164"><ele>336.0</ele><time>2026-03-28T10:36:03.211Z</time></trkpt><trkpt lat="43.375314" lon="11.3168375"><ele>336.0</ele><time>2026-03-28T10:36:04.21Z</time></trkpt><trkpt lat="43.3753119" lon="11.3169597"><ele>336.0</ele><time>2026-03-28T10:36:05.21Z</time></trkpt><trkpt lat="43.3753061" lon="11.3170805"><ele>336.0</ele><time>2026-03-28T10:36:06.211Z</time></trkpt><trkpt lat="43.3753" lon="11.3171993"><ele>335.8333333333333</ele><time>2026-03-28T10:36:07.21Z</time></trkpt><trkpt lat="43.3752894" lon="11.3173173"><ele>335.6666666666667</ele><time>2026-03-28T10:36:08.211Z</time></trkpt><trkpt lat="43.3752713" lon="11.3174247"><ele>335.5</ele><time>2026-03-28T10:36:09.211Z</time></trkpt><trkpt lat="43.3752504" lon="11.3175376"><ele>335.33333333333337</ele><time>2026-03-28T10:36:10.21Z</time></trkpt><trkpt lat="43.3752285" lon="11.3176476"><ele>335.1666666666667</ele><time>2026-03-28T10:36:11.21Z</time></trkpt><trkpt lat="43.3752046" lon="11.3177536"><ele>335.0</ele><time>2026-03-28T10:36:12.211Z</time></trkpt><trkpt lat="43.3751797" lon="11.3178679"><ele>335.0</ele><time>2026-03-28T10:36:13.211Z</time></trkpt><trkpt lat="43.3751538" lon="11.3179724"><ele>335.0</ele><time>2026-03-28T10:36:14.21Z</time></trkpt><trkpt lat="43.3751323" lon="11.3180749"><ele>335.0</ele><time>2026-03-28T10:36:15.21Z</time></trkpt><trkpt lat="43.3751195" lon="11.3181916"><ele>335.0</ele><time>2026-03-28T10:36:16.21Z</time></trkpt><trkpt lat="43.3751159" lon="11.3182921"><ele>335.0</ele><time>2026-03-28T10:36:17.211Z</time></trkpt><trkpt lat="43.3751232" lon="11.31841"><ele>335.0</ele><time>2026-03-28T10:36:18.21Z</time></trkpt><trkpt lat="43.3751362" lon="11.3185317"><ele>334.6</ele><time>2026-03-28T10:36:19.21Z</time></trkpt><trkpt lat="43.3751514" lon="11.3186587"><ele>334.2</ele><time>2026-03-28T10:36:20.211Z</time></trkpt><trkpt lat="43.375171" lon="11.3187833"><ele>333.79999999999995</ele><time>2026-03-28T10:36:21.21Z</time></trkpt><trkpt lat="43.3751907" lon="11.3189026"><ele>333.4</ele><time>2026-03-28T10:36:22.21Z</time></trkpt><trkpt lat="43.3752073" lon="11.3190367"><ele>333.0</ele><time>2026-03-28T10:36:23.21Z</time></trkpt><trkpt lat="43.375223" lon="11.3191702"><ele>331.79999999999995</ele><time>2026-03-28T10:36:24.211Z</time></trkpt><trkpt lat="43.3752396" lon="11.3193016"><ele>330.6</ele><time>2026-03-28T10:36:25.21Z</time></trkpt><trkpt lat="43.3752556" lon="11.3194377"><ele>329.4</ele><time>2026-03-28T10:36:26.21Z</time></trkpt><trkpt lat="43.3752726" lon="11.3195757"><ele>328.20000000000005</ele><time>2026-03-28T10:36:27.211Z</time></trkpt><trkpt lat="43.3752907" lon="11.3197267"><ele>327.0</ele><time>2026-03-28T10:36:28.21Z</time></trkpt><trkpt lat="43.3753121" lon="11.3198885"><ele>327.0</ele><time>2026-03-28T10:36:29.21Z</time></trkpt><trkpt lat="43.3753352" lon="11.3200602"><ele>327.0</ele><time>2026-03-28T10:36:30.211Z</time></trkpt><trkpt lat="43.3753584" lon="11.3202411"><ele>327.0</ele><time>2026-03-28T10:36:31.209Z</time></trkpt><trkpt lat="43.3753842" lon="11.3204304"><ele>327.0</ele><time>2026-03-28T10:36:32.21Z</time></trkpt><trkpt lat="43.3754085" lon="11.3206188"><ele>326.25</ele><time>2026-03-28T10:36:33.211Z</time></trkpt><trkpt lat="43.3754301" lon="11.3208021"><ele>325.5</ele><time>2026-03-28T10:36:34.211Z</time></trkpt><trkpt lat="43.3754542" lon="11.3209807"><ele>324.75</ele><time>2026-03-28T10:36:35.21Z</time></trkpt><trkpt lat="43.3754804" lon="11.3211528"><ele>324.0</ele><time>2026-03-28T10:36:36.21Z</time></trkpt><trkpt lat="43.3755076" lon="11.321315"><ele>322.75</ele><time>2026-03-28T10:36:37.21Z</time></trkpt><trkpt lat="43.3755196" lon="11.321476"><ele>321.5</ele><time>2026-03-28T10:36:38.21Z</time></trkpt><trkpt lat="43.3755116" lon="11.3216375"><ele>320.25</ele><time>2026-03-28T10:36:39.211Z</time></trkpt><trkpt lat="43.3754796" lon="11.3217988"><ele>319.0</ele><time>2026-03-28T10:36:40.21Z</time></trkpt><trkpt lat="43.3754215" lon="11.3219575"><ele>319.0</ele><time>2026-03-28T10:36:41.211Z</time></trkpt><trkpt lat="43.3753634" lon="11.3220988"><ele>319.0</ele><time>2026-03-28T10:36:42.21Z</time></trkpt><trkpt lat="43.3753039" lon="11.3222277"><ele>319.0</ele><time>2026-03-28T10:36:43.21Z</time></trkpt><trkpt lat="43.3752645" lon="11.3223595"><ele>319.0</ele><time>2026-03-28T10:36:44.211Z</time></trkpt><trkpt lat="43.3752491" lon="11.3224942"><ele>319.0</ele><time>2026-03-28T10:36:45.21Z</time></trkpt><trkpt lat="43.3752533" lon="11.3226299"><ele>319.2</ele><time>2026-03-28T10:36:46.211Z</time></trkpt><trkpt lat="43.3752676" lon="11.3227675"><ele>319.4</ele><time>2026-03-28T10:36:47.21Z</time></trkpt><trkpt lat="43.3753" lon="11.3229117"><ele>319.6</ele><time>2026-03-28T10:36:48.21Z</time></trkpt><trkpt lat="43.3753406" lon="11.3230484"><ele>319.8</ele><time>2026-03-28T10:36:49.21Z</time></trkpt><trkpt lat="43.3753855" lon="11.3231764"><ele>320.0</ele><time>2026-03-28T10:36:50.21Z</time></trkpt><trkpt lat="43.375434" lon="11.3233051"><ele>319.8</ele><time>2026-03-28T10:36:51.211Z</time></trkpt><trkpt lat="43.3754808" lon="11.3234247"><ele>319.6</ele><time>2026-03-28T10:36:52.211Z</time></trkpt><trkpt lat="43.3755288" lon="11.3235391"><ele>319.4</ele><time>2026-03-28T10:36:53.21Z</time></trkpt><trkpt lat="43.3755803" lon="11.323657"><ele>319.2</ele><time>2026-03-28T10:36:54.209Z</time></trkpt><trkpt lat="43.3756291" lon="11.3237771"><ele>319.0</ele><time>2026-03-28T10:36:55.21Z</time></trkpt><trkpt lat="43.3756699" lon="11.3239055"><ele>319.0</ele><time>2026-03-28T10:36:56.21Z</time></trkpt><trkpt lat="43.3756867" lon="11.3240423"><ele>319.0</ele><time>2026-03-28T10:36:57.21Z</time></trkpt><trkpt lat="43.3756725" lon="11.324172"><ele>319.0</ele><time>2026-03-28T10:36:58.21Z</time></trkpt><trkpt lat="43.3756334" lon="11.3242985"><ele>319.0</ele><time>2026-03-28T10:36:59.211Z</time></trkpt><trkpt lat="43.3755783" lon="11.3244097"><ele>319.0</ele><time>2026-03-28T10:37:00.21Z</time></trkpt><trkpt lat="43.3755126" lon="11.3244975"><ele>317.0</ele><time>2026-03-28T10:37:01.21Z</time></trkpt><trkpt lat="43.375442" lon="11.3245685"><ele>315.0</ele><time>2026-03-28T10:37:02.211Z</time></trkpt><trkpt lat="43.3753678" lon="11.324638"><ele>313.0</ele><time>2026-03-28T10:37:03.21Z</time></trkpt><trkpt lat="43.375299" lon="11.3247051"><ele>311.0</ele><time>2026-03-28T10:37:04.209Z</time></trkpt><trkpt lat="43.3752278" lon="11.3247782"><ele>309.0</ele><time>2026-03-28T10:37:05.21Z</time></trkpt><trkpt lat="43.3751566" lon="11.3248652"><ele>307.0</ele><time>2026-03-28T10:37:06.211Z</time></trkpt><trkpt lat="43.3750822" lon="11.3249559"><ele>307.0</ele><time>2026-03-28T10:37:07.21Z</time></trkpt><trkpt lat="43.3750053" lon="11.3250434"><ele>307.0</ele><time>2026-03-28T10:37:08.21Z</time></trkpt><trkpt lat="43.3749307" lon="11.3251271"><ele>307.0</ele><time>2026-03-28T10:37:09.21Z</time></trkpt><trkpt lat="43.3748538" lon="11.3251886"><ele>307.0</ele><time>2026-03-28T10:37:10.209Z</time></trkpt><trkpt lat="43.3747714" lon="11.3252335"><ele>307.0</ele><time>2026-03-28T10:37:11.21Z</time></trkpt><trkpt lat="43.3746855" lon="11.3252766"><ele>305.2</ele><time>2026-03-28T10:37:12.209Z</time></trkpt><trkpt lat="43.3745915" lon="11.325318"><ele>303.4</ele><time>2026-03-28T10:37:13.21Z</time></trkpt><trkpt lat="43.3744933" lon="11.325362"><ele>301.6</ele><time>2026-03-28T10:37:14.21Z</time></trkpt><trkpt lat="43.3743945" lon="11.3254067"><ele>299.8</ele><time>2026-03-28T10:37:15.21Z</time></trkpt><trkpt lat="43.3742922" lon="11.3254541"><ele>298.0</ele><time>2026-03-28T10:37:16.211Z</time></trkpt><trkpt lat="43.3741879" lon="11.3255021"><ele>298.0</ele><time>2026-03-28T10:37:17.211Z</time></trkpt><trkpt lat="43.374083" lon="11.3255478"><ele>298.0</ele><time>2026-03-28T10:37:18.211Z</time></trkpt><trkpt lat="43.3739752" lon="11.3255958"><ele>298.0</ele><time>2026-03-28T10:37:19.21Z</time></trkpt><trkpt lat="43.3738722" lon="11.3256439"><ele>298.0</ele><time>2026-03-28T10:37:20.21Z</time></trkpt><trkpt lat="43.3737704" lon="11.3256918"><ele>298.0</ele><time>2026-03-28T10:37:21.21Z</time></trkpt><trkpt lat="43.3736751" lon="11.3257292"><ele>297.4</ele><time>2026-03-28T10:37:22.211Z</time></trkpt><trkpt lat="43.3735755" lon="11.3257807"><ele>296.8</ele><time>2026-03-28T10:37:23.211Z</time></trkpt><trkpt lat="43.3734816" lon="11.3258472"><ele>296.2</ele><time>2026-03-28T10:37:24.211Z</time></trkpt><trkpt lat="43.3733879" lon="11.3259243"><ele>295.6</ele><time>2026-03-28T10:37:25.21Z</time></trkpt><trkpt lat="43.3733009" lon="11.3260156"><ele>295.0</ele><time>2026-03-28T10:37:26.21Z</time></trkpt><trkpt lat="43.3732151" lon="11.326101"><ele>295.0</ele><time>2026-03-28T10:37:27.211Z</time></trkpt><trkpt lat="43.3731286" lon="11.3261831"><ele>295.0</ele><time>2026-03-28T10:37:28.211Z</time></trkpt><trkpt lat="43.3730468" lon="11.3262619"><ele>295.0</ele><time>2026-03-28T10:37:29.21Z</time></trkpt><trkpt lat="43.3729704" lon="11.3263412"><ele>295.0</ele><time>2026-03-28T10:37:30.21Z</time></trkpt><trkpt lat="43.3728929" lon="11.3264246"><ele>295.0</ele><time>2026-03-28T10:37:31.211Z</time></trkpt><trkpt lat="43.3728157" lon="11.3265087"><ele>294.2</ele><time>2026-03-28T10:37:32.21Z</time></trkpt><trkpt lat="43.3727458" lon="11.3265833"><ele>293.4</ele><time>2026-03-28T10:37:33.21Z</time></trkpt><trkpt lat="43.3726783" lon="11.3266467"><ele>292.6</ele><time>2026-03-28T10:37:34.21Z</time></trkpt><trkpt lat="43.3726049" lon="11.3267097"><ele>291.8</ele><time>2026-03-28T10:37:35.21Z</time></trkpt><trkpt lat="43.3725217" lon="11.326776"><ele>291.0</ele><time>2026-03-28T10:37:36.211Z</time></trkpt><trkpt lat="43.3724233" lon="11.3268429"><ele>291.0</ele><time>2026-03-28T10:37:37.211Z</time></trkpt><trkpt lat="43.3723116" lon="11.326906"><ele>291.0</ele><time>2026-03-28T10:37:38.21Z</time></trkpt><trkpt lat="43.3721963" lon="11.326955"><ele>291.0</ele><time>2026-03-28T10:37:39.21Z</time></trkpt><trkpt lat="43.3720808" lon="11.3269945"><ele>291.0</ele><time>2026-03-28T10:37:40.21Z</time></trkpt><trkpt lat="43.3719656" lon="11.3270286"><ele>289.0</ele><time>2026-03-28T10:37:41.211Z</time></trkpt><trkpt lat="43.3718395" lon="11.3270615"><ele>287.0</ele><time>2026-03-28T10:37:42.21Z</time></trkpt><trkpt lat="43.3717198" lon="11.3270845"><ele>285.0</ele><time>2026-03-28T10:37:43.211Z</time></trkpt><trkpt lat="43.3716042" lon="11.3270979"><ele>283.0</ele><time>2026-03-28T10:37:44.21Z</time></trkpt><trkpt lat="43.3714934" lon="11.3271072"><ele>283.0</ele><time>2026-03-28T10:37:45.211Z</time></trkpt><trkpt lat="43.3713834" lon="11.327115"><ele>283.0</ele><time>2026-03-28T10:37:46.21Z</time></trkpt><trkpt lat="43.3712702" lon="11.3271169"><ele>283.0</ele><time>2026-03-28T10:37:47.209Z</time></trkpt><trkpt lat="43.3711457" lon="11.3271248"><ele>283.0</ele><time>2026-03-28T10:37:48.21Z</time></trkpt><trkpt lat="43.3710179" lon="11.3271433"><ele>280.75</ele><time>2026-03-28T10:37:49.21Z</time></trkpt><trkpt lat="43.3708925" lon="11.3271718"><ele>278.5</ele><time>2026-03-28T10:37:50.211Z</time></trkpt><trkpt lat="43.370769" lon="11.3272035"><ele>276.25</ele><time>2026-03-28T10:37:51.21Z</time></trkpt><trkpt lat="43.3706388" lon="11.3272346"><ele>274.0</ele><time>2026-03-28T10:37:52.21Z</time></trkpt><trkpt lat="43.3705082" lon="11.3272673"><ele>272.25</ele><time>2026-03-28T10:37:53.21Z</time></trkpt><trkpt lat="43.3703735" lon="11.3272978"><ele>270.5</ele><time>2026-03-28T10:37:54.211Z</time></trkpt><trkpt lat="43.3702459" lon="11.3273218"><ele>268.75</ele><time>2026-03-28T10:37:55.211Z</time></trkpt><trkpt lat="43.3701275" lon="11.3273482"><ele>267.0</ele><time>2026-03-28T10:37:56.209Z</time></trkpt><trkpt lat="43.3700217" lon="11.3273989"><ele>267.0</ele><time>2026-03-28T10:37:57.211Z</time></trkpt><trkpt lat="43.3699221" lon="11.3274867"><ele>267.0</ele><time>2026-03-28T10:37:58.21Z</time></trkpt><trkpt lat="43.3698373" lon="11.327599"><ele>267.0</ele><time>2026-03-28T10:37:59.211Z</time></trkpt><trkpt lat="43.3697726" lon="11.3277121"><ele>267.0</ele><time>2026-03-28T10:38:00.21Z</time></trkpt><trkpt lat="43.3697088" lon="11.3278065"><ele>267.0</ele><time>2026-03-28T10:38:01.211Z</time></trkpt><trkpt lat="43.3696283" lon="11.3278575"><ele>266.0</ele><time>2026-03-28T10:38:02.211Z</time></trkpt><trkpt lat="43.3695404" lon="11.3278593"><ele>265.0</ele><time>2026-03-28T10:38:03.21Z</time></trkpt><trkpt lat="43.3694429" lon="11.3278287"><ele>264.0</ele><time>2026-03-28T10:38:04.211Z</time></trkpt><trkpt lat="43.3693394" lon="11.3277761"><ele>263.0</ele><time>2026-03-28T10:38:05.211Z</time></trkpt><trkpt lat="43.3692239" lon="11.3277073"><ele>262.0</ele><time>2026-03-28T10:38:06.211Z</time></trkpt><trkpt lat="43.3691144" lon="11.3276323"><ele>262.0</ele><time>2026-03-28T10:38:07.21Z</time></trkpt><trkpt lat="43.3690057" lon="11.32756"><ele>262.0</ele><time>2026-03-28T10:38:08.21Z</time></trkpt><trkpt lat="43.3688925" lon="11.3274934"><ele>262.0</ele><time>2026-03-28T10:38:09.21Z</time></trkpt><trkpt lat="43.3687829" lon="11.3274271"><ele>262.0</ele><time>2026-03-28T10:38:10.211Z</time></trkpt><trkpt lat="43.3686746" lon="11.3273688"><ele>262.4</ele><time>2026-03-28T10:38:11.21Z</time></trkpt><trkpt lat="43.3685596" lon="11.3273506"><ele>262.79999999999995</ele><time>2026-03-28T10:38:12.21Z</time></trkpt><trkpt lat="43.3684488" lon="11.3273829"><ele>263.2</ele><time>2026-03-28T10:38:13.211Z</time></trkpt><trkpt lat="43.368346" lon="11.3274365"><ele>263.59999999999997</ele><time>2026-03-28T10:38:14.211Z</time></trkpt><trkpt lat="43.3682502" lon="11.3274867"><ele>264.0</ele><time>2026-03-28T10:38:15.21Z</time></trkpt><trkpt lat="43.368164" lon="11.3275353"><ele>264.0</ele><time>2026-03-28T10:38:16.211Z</time></trkpt><trkpt lat="43.3681032" lon="11.3275984"><ele>264.0</ele><time>2026-03-28T10:38:17.21Z</time></trkpt><trkpt lat="43.3680667" lon="11.3276835"><ele>264.0</ele><time>2026-03-28T10:38:18.211Z</time></trkpt><trkpt lat="43.3680543" lon="11.3277979"><ele>264.0</ele><time>2026-03-28T10:38:19.21Z</time></trkpt><trkpt lat="43.3680549" lon="11.3279352"><ele>264.0</ele><time>2026-03-28T10:38:20.21Z</time></trkpt><trkpt lat="43.3680391" lon="11.3280819"><ele>264.0</ele><time>2026-03-28T10:38:21.211Z</time></trkpt><trkpt lat="43.3679893" lon="11.3282167"><ele>261.75</ele><time>2026-03-28T10:38:22.21Z</time></trkpt><trkpt lat="43.3679068" lon="11.3283339"><ele>259.5</ele><time>2026-03-28T10:38:23.21Z</time></trkpt><trkpt lat="43.3678095" lon="11.3284455"><ele>257.25</ele><time>2026-03-28T10:38:24.211Z</time></trkpt><trkpt lat="43.3676987" lon="11.3285634"><ele>255.0</ele><time>2026-03-28T10:38:25.209Z</time></trkpt><trkpt lat="43.3675799" lon="11.3286863"><ele>255.0</ele><time>2026-03-28T10:38:26.21Z</time></trkpt><trkpt lat="43.3674585" lon="11.3288092"><ele>255.0</ele><time>2026-03-28T10:38:27.211Z</time></trkpt><trkpt lat="43.3673275" lon="11.328948"><ele>255.0</ele><time>2026-03-28T10:38:28.21Z</time></trkpt><trkpt lat="43.3671926" lon="11.329093"><ele>255.66666666666669</ele><time>2026-03-28T10:38:29.211Z</time></trkpt><trkpt lat="43.367056" lon="11.3292357"><ele>256.33333333333337</ele><time>2026-03-28T10:38:30.211Z</time></trkpt><trkpt lat="43.3669286" lon="11.329373"><ele>257.0</ele><time>2026-03-28T10:38:31.21Z</time></trkpt><trkpt lat="43.366806" lon="11.3295193"><ele>257.0</ele><time>2026-03-28T10:38:32.211Z</time></trkpt><trkpt lat="43.3666802" lon="11.3296577"><ele>257.0</ele><time>2026-03-28T10:38:33.21Z</time></trkpt><trkpt lat="43.3665626" lon="11.3297856"><ele>257.0</ele><time>2026-03-28T10:38:34.21Z</time></trkpt><trkpt lat="43.3664551" lon="11.3299049"><ele>257.0</ele><time>2026-03-28T10:38:35.211Z</time></trkpt><trkpt lat="43.3663513" lon="11.330021"><ele>258.0</ele><time>2026-03-28T10:38:36.21Z</time></trkpt><trkpt lat="43.3662494" lon="11.330127"><ele>259.0</ele><time>2026-03-28T10:38:37.211Z</time></trkpt><trkpt lat="43.3661562" lon="11.3302258"><ele>260.0</ele><time>2026-03-28T10:38:38.211Z</time></trkpt><trkpt lat="43.3660734" lon="11.3303152"><ele>261.0</ele><time>2026-03-28T10:38:39.21Z</time></trkpt><trkpt lat="43.3659966" lon="11.3303804"><ele>262.0</ele><time>2026-03-28T10:38:40.211Z</time></trkpt><trkpt lat="43.3659268" lon="11.3304108"><ele>262.0</ele><time>2026-03-28T10:38:41.21Z</time></trkpt><trkpt lat="43.3658342" lon="11.3304144"><ele>262.0</ele><time>2026-03-28T10:38:43.21Z</time></trkpt><trkpt lat="43.3657533" lon="11.330404"><ele>262.0</ele><time>2026-03-28T10:38:46.209Z</time></trkpt><trkpt lat="43.3656828" lon="11.3303926"><ele>262.0</ele><time>2026-03-28T10:38:51.211Z</time></trkpt><trkpt lat="43.3656015" lon="11.3304285"><ele>262.0</ele><time>2026-03-28T10:39:34.211Z</time></trkpt><trkpt lat="43.3656331" lon="11.3305291"><ele>262.0</ele><time>2026-03-28T10:39:37.21Z</time></trkpt><trkpt lat="43.3656874" lon="11.3305992"><ele>260.6</ele><time>2026-03-28T10:39:38.21Z</time></trkpt><trkpt lat="43.3657417" lon="11.3306962"><ele>259.2</ele><time>2026-03-28T10:39:39.21Z</time></trkpt><trkpt lat="43.3657823" lon="11.3308254"><ele>257.8</ele><time>2026-03-28T10:39:40.211Z</time></trkpt><trkpt lat="43.3658112" lon="11.3309613"><ele>256.4</ele><time>2026-03-28T10:39:41.21Z</time></trkpt><trkpt lat="43.365839" lon="11.331096"><ele>255.0</ele><time>2026-03-28T10:39:42.211Z</time></trkpt><trkpt lat="43.3658703" lon="11.3312335"><ele>255.0</ele><time>2026-03-28T10:39:43.211Z</time></trkpt><trkpt lat="43.3658969" lon="11.3313595"><ele>255.0</ele><time>2026-03-28T10:39:44.211Z</time></trkpt><trkpt lat="43.3659215" lon="11.3314819"><ele>255.0</ele><time>2026-03-28T10:39:45.21Z</time></trkpt><trkpt lat="43.3659475" lon="11.331611"><ele>255.0</ele><time>2026-03-28T10:39:46.21Z</time></trkpt><trkpt lat="43.3659783" lon="11.331742"><ele>255.0</ele><time>2026-03-28T10:39:47.21Z</time></trkpt><trkpt lat="43.3660128" lon="11.3318912"><ele>254.25</ele><time>2026-03-28T10:39:48.21Z</time></trkpt><trkpt lat="43.366048" lon="11.3320415"><ele>253.5</ele><time>2026-03-28T10:39:49.211Z</time></trkpt><trkpt lat="43.3660913" lon="11.3322001"><ele>252.75</ele><time>2026-03-28T10:39:50.21Z</time></trkpt><trkpt lat="43.3661477" lon="11.3323621"><ele>252.0</ele><time>2026-03-28T10:39:51.21Z</time></trkpt><trkpt lat="43.3662147" lon="11.3325245"><ele>252.0</ele><time>2026-03-28T10:39:52.211Z</time></trkpt><trkpt lat="43.3662902" lon="11.3326796"><ele>252.0</ele><time>2026-03-28T10:39:53.211Z</time></trkpt><trkpt lat="43.3663628" lon="11.3328245"><ele>252.0</ele><time>2026-03-28T10:39:54.21Z</time></trkpt><trkpt lat="43.3664315" lon="11.3329568"><ele>252.0</ele><time>2026-03-28T10:39:55.211Z</time></trkpt><trkpt lat="43.3665022" lon="11.3330738"><ele>252.0</ele><time>2026-03-28T10:39:56.211Z</time></trkpt><trkpt lat="43.3665804" lon="11.3331759"><ele>252.0</ele><time>2026-03-28T10:39:57.21Z</time></trkpt><trkpt lat="43.3666658" lon="11.3332512"><ele>252.0</ele><time>2026-03-28T10:39:58.21Z</time></trkpt><trkpt lat="43.3667602" lon="11.3333112"><ele>252.0</ele><time>2026-03-28T10:39:59.21Z</time></trkpt><trkpt lat="43.3668643" lon="11.333359"><ele>252.0</ele><time>2026-03-28T10:40:00.21Z</time></trkpt><trkpt lat="43.3669733" lon="11.3333978"><ele>252.0</ele><time>2026-03-28T10:40:01.211Z</time></trkpt><trkpt lat="43.367093" lon="11.3334303"><ele>252.0</ele><time>2026-03-28T10:40:02.21Z</time></trkpt><trkpt lat="43.367223" lon="11.3334573"><ele>252.0</ele><time>2026-03-28T10:40:03.21Z</time></trkpt><trkpt lat="43.3673594" lon="11.3334818"><ele>252.0</ele><time>2026-03-28T10:40:04.21Z</time></trkpt><trkpt lat="43.3674955" lon="11.3335036"><ele>252.25</ele><time>2026-03-28T10:40:05.211Z</time></trkpt><trkpt lat="43.3676282" lon="11.3335271"><ele>252.5</ele><time>2026-03-28T10:40:06.209Z</time></trkpt><trkpt lat="43.3677552" lon="11.333554"><ele>252.75</ele><time>2026-03-28T10:40:07.209Z</time></trkpt><trkpt lat="43.3678798" lon="11.3335746"><ele>253.0</ele><time>2026-03-28T10:40:08.211Z</time></trkpt><trkpt lat="43.3680004" lon="11.3335935"><ele>254.0</ele><time>2026-03-28T10:40:09.211Z</time></trkpt><trkpt lat="43.3681261" lon="11.3336222"><ele>255.0</ele><time>2026-03-28T10:40:10.211Z</time></trkpt><trkpt lat="43.3682612" lon="11.3336537"><ele>256.0</ele><time>2026-03-28T10:40:11.211Z</time></trkpt><trkpt lat="43.3684106" lon="11.3336865"><ele>257.0</ele><time>2026-03-28T10:40:12.21Z</time></trkpt><trkpt lat="43.3685712" lon="11.3337215"><ele>257.0</ele><time>2026-03-28T10:40:13.21Z</time></trkpt><trkpt lat="43.3687344" lon="11.3337605"><ele>257.0</ele><time>2026-03-28T10:40:14.21Z</time></trkpt><trkpt lat="43.3688967" lon="11.3338052"><ele>257.0</ele><time>2026-03-28T10:40:15.21Z</time></trkpt><trkpt lat="43.3690643" lon="11.3338533"><ele>258.33333333333337</ele><time>2026-03-28T10:40:16.21Z</time></trkpt><trkpt lat="43.3692357" lon="11.3339124"><ele>259.6666666666667</ele><time>2026-03-28T10:40:17.21Z</time></trkpt><trkpt lat="43.3693971" lon="11.3339876"><ele>261.0</ele><time>2026-03-28T10:40:18.21Z</time></trkpt><trkpt lat="43.3695573" lon="11.334068"><ele>263.6666666666667</ele><time>2026-03-28T10:40:19.211Z</time></trkpt><trkpt lat="43.3697183" lon="11.3341375"><ele>266.33333333333337</ele><time>2026-03-28T10:40:20.21Z</time></trkpt><trkpt lat="43.3698734" lon="11.3342115"><ele>269.0</ele><time>2026-03-28T10:40:21.21Z</time></trkpt><trkpt lat="43.3700244" lon="11.3342787"><ele>269.0</ele><time>2026-03-28T10:40:22.211Z</time></trkpt><trkpt lat="43.3701688" lon="11.334342"><ele>269.0</ele><time>2026-03-28T10:40:23.21Z</time></trkpt><trkpt lat="43.3703129" lon="11.3344088"><ele>269.0</ele><time>2026-03-28T10:40:24.21Z</time></trkpt><trkpt lat="43.3704602" lon="11.3344757"><ele>271.33333333333337</ele><time>2026-03-28T10:40:25.211Z</time></trkpt><trkpt lat="43.3706067" lon="11.3345431"><ele>273.6666666666667</ele><time>2026-03-28T10:40:26.21Z</time></trkpt><trkpt lat="43.3707553" lon="11.3346163"><ele>276.0</ele><time>2026-03-28T10:40:27.21Z</time></trkpt><trkpt lat="43.3708974" lon="11.3346849"><ele>275.25</ele><time>2026-03-28T10:40:28.21Z</time></trkpt><trkpt lat="43.3710314" lon="11.3347502"><ele>274.5</ele><time>2026-03-28T10:40:29.211Z</time></trkpt><trkpt lat="43.3711672" lon="11.3348175"><ele>273.75</ele><time>2026-03-28T10:40:30.211Z</time></trkpt><trkpt lat="43.3713048" lon="11.334888"><ele>273.0</ele><time>2026-03-28T10:40:31.211Z</time></trkpt><trkpt lat="43.3714488" lon="11.334963"><ele>276.6666666666667</ele><time>2026-03-28T10:40:32.21Z</time></trkpt><trkpt lat="43.3715986" lon="11.3350412"><ele>280.33333333333337</ele><time>2026-03-28T10:40:33.211Z</time></trkpt><trkpt lat="43.3717522" lon="11.3351185"><ele>284.0</ele><time>2026-03-28T10:40:34.211Z</time></trkpt><trkpt lat="43.3719115" lon="11.3351939"><ele>284.0</ele><time>2026-03-28T10:40:35.209Z</time></trkpt><trkpt lat="43.3720762" lon="11.3352676"><ele>284.0</ele><time>2026-03-28T10:40:36.21Z</time></trkpt><trkpt lat="43.3722445" lon="11.335344"><ele>284.0</ele><time>2026-03-28T10:40:37.21Z</time></trkpt><trkpt lat="43.3724146" lon="11.3354259"><ele>284.33333333333337</ele><time>2026-03-28T10:40:38.21Z</time></trkpt><trkpt lat="43.3725846" lon="11.3355222"><ele>284.6666666666667</ele><time>2026-03-28T10:40:39.21Z</time></trkpt><trkpt lat="43.3727465" lon="11.3356282"><ele>285.0</ele><time>2026-03-28T10:40:40.21Z</time></trkpt><trkpt lat="43.372899" lon="11.3357261"><ele>287.6666666666667</ele><time>2026-03-28T10:40:41.21Z</time></trkpt><trkpt lat="43.3730637" lon="11.3358103"><ele>290.33333333333337</ele><time>2026-03-28T10:40:42.209Z</time></trkpt><trkpt lat="43.3732456" lon="11.3358673"><ele>293.0</ele><time>2026-03-28T10:40:43.21Z</time></trkpt><trkpt lat="43.3734347" lon="11.3359099"><ele>293.0</ele><time>2026-03-28T10:40:44.211Z</time></trkpt><trkpt lat="43.3736259" lon="11.3359443"><ele>293.0</ele><time>2026-03-28T10:40:45.211Z</time></trkpt><trkpt lat="43.3738043" lon="11.335963"><ele>293.0</ele><time>2026-03-28T10:40:46.21Z</time></trkpt><trkpt lat="43.3739846" lon="11.3359828"><ele>294.0</ele><time>2026-03-28T10:40:47.211Z</time></trkpt><trkpt lat="43.3741705" lon="11.3360069"><ele>295.0</ele><time>2026-03-28T10:40:48.21Z</time></trkpt><trkpt lat="43.3743486" lon="11.3360277"><ele>296.0</ele><time>2026-03-28T10:40:49.21Z</time></trkpt><trkpt lat="43.3745104" lon="11.3360484"><ele>296.0</ele><time>2026-03-28T10:40:50.21Z</time></trkpt><trkpt lat="43.3746634" lon="11.3360672"><ele>296.0</ele><time>2026-03-28T10:40:51.21Z</time></trkpt><trkpt lat="43.3748245" lon="11.3360914"><ele>296.0</ele><time>2026-03-28T10:40:52.211Z</time></trkpt><trkpt lat="43.3749943" lon="11.3361284"><ele>296.6666666666667</ele><time>2026-03-28T10:40:53.21Z</time></trkpt><trkpt lat="43.3751707" lon="11.3361857"><ele>297.3333333333333</ele><time>2026-03-28T10:40:54.21Z</time></trkpt><trkpt lat="43.3753501" lon="11.3362563"><ele>298.0</ele><time>2026-03-28T10:40:55.211Z</time></trkpt><trkpt lat="43.3755175" lon="11.3363299"><ele>297.3333333333333</ele><time>2026-03-28T10:40:56.211Z</time></trkpt><trkpt lat="43.3756863" lon="11.336408"><ele>296.6666666666667</ele><time>2026-03-28T10:40:57.211Z</time></trkpt><trkpt lat="43.375857" lon="11.3364885"><ele>296.0</ele><time>2026-03-28T10:40:58.21Z</time></trkpt><trkpt lat="43.3760295" lon="11.3365792"><ele>296.0</ele><time>2026-03-28T10:40:59.209Z</time></trkpt><trkpt lat="43.3762035" lon="11.3366807"><ele>296.0</ele><time>2026-03-28T10:41:00.21Z</time></trkpt><trkpt lat="43.3763774" lon="11.3367859"><ele>296.0</ele><time>2026-03-28T10:41:01.21Z</time></trkpt><trkpt lat="43.3765454" lon="11.3368956"><ele>296.0</ele><time>2026-03-28T10:41:02.21Z</time></trkpt><trkpt lat="43.3767044" lon="11.3370092"><ele>296.0</ele><time>2026-03-28T10:41:03.21Z</time></trkpt><trkpt lat="43.3768602" lon="11.3371382"><ele>296.0</ele><time>2026-03-28T10:41:04.211Z</time></trkpt><trkpt lat="43.3770079" lon="11.3372811"><ele>296.0</ele><time>2026-03-28T10:41:05.209Z</time></trkpt><trkpt lat="43.3771498" lon="11.3374321"><ele>296.0</ele><time>2026-03-28T10:41:06.21Z</time></trkpt><trkpt lat="43.3772813" lon="11.3375998"><ele>296.0</ele><time>2026-03-28T10:41:07.211Z</time></trkpt><trkpt lat="43.3773879" lon="11.3377854"><ele>297.0</ele><time>2026-03-28T10:41:08.21Z</time></trkpt><trkpt lat="43.3774769" lon="11.3379572"><ele>298.0</ele><time>2026-03-28T10:41:09.21Z</time></trkpt><trkpt lat="43.3775713" lon="11.3381274"><ele>299.0</ele><time>2026-03-28T10:41:10.211Z</time></trkpt><trkpt lat="43.3776652" lon="11.3382931"><ele>300.33333333333337</ele><time>2026-03-28T10:41:11.21Z</time></trkpt><trkpt lat="43.3777579" lon="11.3384575"><ele>301.6666666666667</ele><time>2026-03-28T10:41:12.211Z</time></trkpt><trkpt lat="43.3778495" lon="11.3386292"><ele>303.0</ele><time>2026-03-28T10:41:13.211Z</time></trkpt><trkpt lat="43.3779416" lon="11.3387948"><ele>308.6666666666667</ele><time>2026-03-28T10:41:14.211Z</time></trkpt><trkpt lat="43.3780486" lon="11.3389453"><ele>314.33333333333337</ele><time>2026-03-28T10:41:15.21Z</time></trkpt><trkpt lat="43.3781711" lon="11.3390787"><ele>320.0</ele><time>2026-03-28T10:41:16.21Z</time></trkpt><trkpt lat="43.3783012" lon="11.3391977"><ele>320.0</ele><time>2026-03-28T10:41:17.211Z</time></trkpt><trkpt lat="43.3784322" lon="11.3393123"><ele>320.0</ele><time>2026-03-28T10:41:18.211Z</time></trkpt><trkpt lat="43.378561" lon="11.3394194"><ele>320.0</ele><time>2026-03-28T10:41:19.21Z</time></trkpt><trkpt lat="43.3786817" lon="11.3395167"><ele>320.0</ele><time>2026-03-28T10:41:20.21Z</time></trkpt><trkpt lat="43.3787985" lon="11.3396071"><ele>322.0</ele><time>2026-03-28T10:41:21.21Z</time></trkpt><trkpt lat="43.3789065" lon="11.3396927"><ele>324.0</ele><time>2026-03-28T10:41:22.21Z</time></trkpt><trkpt lat="43.3790202" lon="11.3397805"><ele>326.0</ele><time>2026-03-28T10:41:23.21Z</time></trkpt><trkpt lat="43.3791274" lon="11.3398623"><ele>328.0</ele><time>2026-03-28T10:41:24.211Z</time></trkpt><trkpt lat="43.3792388" lon="11.3399508"><ele>329.25</ele><time>2026-03-28T10:41:25.21Z</time></trkpt><trkpt lat="43.3793526" lon="11.3400409"><ele>330.5</ele><time>2026-03-28T10:41:26.211Z</time></trkpt><trkpt lat="43.3794705" lon="11.3401316"><ele>331.75</ele><time>2026-03-28T10:41:27.211Z</time></trkpt><trkpt lat="43.3795911" lon="11.3402232"><ele>333.0</ele><time>2026-03-28T10:41:28.211Z</time></trkpt><trkpt lat="43.3797141" lon="11.3403272"><ele>334.0</ele><time>2026-03-28T10:41:29.211Z</time></trkpt><trkpt lat="43.3798415" lon="11.3404326"><ele>335.0</ele><time>2026-03-28T10:41:30.21Z</time></trkpt><trkpt lat="43.3799694" lon="11.3405316"><ele>336.0</ele><time>2026-03-28T10:41:31.211Z</time></trkpt><trkpt lat="43.3800959" lon="11.3406252"><ele>337.0</ele><time>2026-03-28T10:41:32.21Z</time></trkpt><trkpt lat="43.3802234" lon="11.3407172"><ele>337.75</ele><time>2026-03-28T10:41:33.211Z</time></trkpt><trkpt lat="43.3803532" lon="11.3408007"><ele>338.5</ele><time>2026-03-28T10:41:34.21Z</time></trkpt><trkpt lat="43.3804903" lon="11.3408794"><ele>339.25</ele><time>2026-03-28T10:41:35.21Z</time></trkpt><trkpt lat="43.3806348" lon="11.3409491"><ele>340.0</ele><time>2026-03-28T10:41:36.21Z</time></trkpt><trkpt lat="43.380773" lon="11.3409993"><ele>341.75</ele><time>2026-03-28T10:41:37.211Z</time></trkpt><trkpt lat="43.3809094" lon="11.3410316"><ele>343.5</ele><time>2026-03-28T10:41:38.21Z</time></trkpt><trkpt lat="43.3810537" lon="11.3410612"><ele>345.25</ele><time>2026-03-28T10:41:39.21Z</time></trkpt><trkpt lat="43.3811959" lon="11.3410942"><ele>347.0</ele><time>2026-03-28T10:41:40.211Z</time></trkpt><trkpt lat="43.3813368" lon="11.3411277"><ele>347.75</ele><time>2026-03-28T10:41:41.209Z</time></trkpt><trkpt lat="43.3814779" lon="11.3411711"><ele>348.5</ele><time>2026-03-28T10:41:42.21Z</time></trkpt><trkpt lat="43.381615" lon="11.3412327"><ele>349.25</ele><time>2026-03-28T10:41:43.21Z</time></trkpt><trkpt lat="43.3817384" lon="11.3413099"><ele>350.0</ele><time>2026-03-28T10:41:44.211Z</time></trkpt><trkpt lat="43.3818606" lon="11.3414066"><ele>350.25</ele><time>2026-03-28T10:41:45.21Z</time></trkpt><trkpt lat="43.3819771" lon="11.3415259"><ele>350.5</ele><time>2026-03-28T10:41:46.21Z</time></trkpt><trkpt lat="43.3820982" lon="11.341649"><ele>350.75</ele><time>2026-03-28T10:41:47.21Z</time></trkpt><trkpt lat="43.3822288" lon="11.3417502"><ele>351.0</ele><time>2026-03-28T10:41:48.211Z</time></trkpt><trkpt lat="43.3823441" lon="11.341828"><ele>351.0</ele><time>2026-03-28T10:41:49.211Z</time></trkpt><trkpt lat="43.3824375" lon="11.3418883"><ele>351.0</ele><time>2026-03-28T10:41:50.21Z</time></trkpt><trkpt lat="43.3825166" lon="11.3419353"><ele>351.0</ele><time>2026-03-28T10:41:51.21Z</time></trkpt><trkpt lat="43.3825864" lon="11.3419768"><ele>351.0</ele><time>2026-03-28T10:41:52.21Z</time></trkpt><trkpt lat="43.3826516" lon="11.3420227"><ele>351.0</ele><time>2026-03-28T10:41:53.21Z</time></trkpt><trkpt lat="43.3827049" lon="11.3421613"><ele>351.4</ele><time>2026-03-28T10:41:55.211Z</time></trkpt><trkpt lat="43.3826815" lon="11.3422463"><ele>351.8</ele><time>2026-03-28T10:41:56.21Z</time></trkpt><trkpt lat="43.3826192" lon="11.3423182"><ele>352.2</ele><time>2026-03-28T10:41:57.21Z</time></trkpt><trkpt lat="43.3825257" lon="11.3423791"><ele>352.59999999999997</ele><time>2026-03-28T10:41:58.21Z</time></trkpt><trkpt lat="43.3824134" lon="11.3424505"><ele>353.0</ele><time>2026-03-28T10:41:59.21Z</time></trkpt><trkpt lat="43.3822921" lon="11.3425288"><ele>354.0</ele><time>2026-03-28T10:42:00.21Z</time></trkpt><trkpt lat="43.3821754" lon="11.3426067"><ele>355.0</ele><time>2026-03-28T10:42:01.21Z</time></trkpt><trkpt lat="43.3820483" lon="11.342696"><ele>356.0</ele><time>2026-03-28T10:42:02.21Z</time></trkpt><trkpt lat="43.3819181" lon="11.3427851"><ele>357.0</ele><time>2026-03-28T10:42:03.211Z</time></trkpt><trkpt lat="43.3817866" lon="11.3428703"><ele>357.0</ele><time>2026-03-28T10:42:04.21Z</time></trkpt><trkpt lat="43.3816607" lon="11.3429549"><ele>357.0</ele><time>2026-03-28T10:42:05.21Z</time></trkpt><trkpt lat="43.3815351" lon="11.3430539"><ele>357.0</ele><time>2026-03-28T10:42:06.21Z</time></trkpt><trkpt lat="43.3814175" lon="11.3431778"><ele>357.0</ele><time>2026-03-28T10:42:07.21Z</time></trkpt><trkpt lat="43.3812996" lon="11.3433111"><ele>356.6666666666667</ele><time>2026-03-28T10:42:08.21Z</time></trkpt><trkpt lat="43.3811781" lon="11.3434458"><ele>356.33333333333337</ele><time>2026-03-28T10:42:09.211Z</time></trkpt><trkpt lat="43.3810557" lon="11.3435828"><ele>356.0</ele><time>2026-03-28T10:42:10.21Z</time></trkpt><trkpt lat="43.3809371" lon="11.3437175"><ele>356.0</ele><time>2026-03-28T10:42:11.21Z</time></trkpt><trkpt lat="43.3808282" lon="11.3438416"><ele>356.0</ele><time>2026-03-28T10:42:12.21Z</time></trkpt><trkpt lat="43.3807298" lon="11.343959"><ele>356.0</ele><time>2026-03-28T10:42:13.21Z</time></trkpt><trkpt lat="43.3806382" lon="11.3440693"><ele>356.0</ele><time>2026-03-28T10:42:14.21Z</time></trkpt><trkpt lat="43.3805522" lon="11.3441712"><ele>356.0</ele><time>2026-03-28T10:42:15.211Z</time></trkpt><trkpt lat="43.3804656" lon="11.344298"><ele>356.0</ele><time>2026-03-28T10:42:16.211Z</time></trkpt><trkpt lat="43.3803926" lon="11.3444618"><ele>356.0</ele><time>2026-03-28T10:42:17.21Z</time></trkpt><trkpt lat="43.3803268" lon="11.344648"><ele>356.0</ele><time>2026-03-28T10:42:18.211Z</time></trkpt><trkpt lat="43.3802618" lon="11.3448443"><ele>356.0</ele><time>2026-03-28T10:42:19.211Z</time></trkpt><trkpt lat="43.380194" lon="11.3450481"><ele>356.0</ele><time>2026-03-28T10:42:20.211Z</time></trkpt><trkpt lat="43.38013" lon="11.3452567"><ele>356.0</ele><time>2026-03-28T10:42:21.211Z</time></trkpt><trkpt lat="43.3800658" lon="11.3454555"><ele>355.6666666666667</ele><time>2026-03-28T10:42:22.211Z</time></trkpt><trkpt lat="43.380001" lon="11.3456613"><ele>355.3333333333333</ele><time>2026-03-28T10:42:23.209Z</time></trkpt><trkpt lat="43.3799396" lon="11.3458675"><ele>355.0</ele><time>2026-03-28T10:42:24.211Z</time></trkpt><trkpt lat="43.3798756" lon="11.346078"><ele>355.0</ele><time>2026-03-28T10:42:25.21Z</time></trkpt><trkpt lat="43.3798034" lon="11.3462838"><ele>355.0</ele><time>2026-03-28T10:42:26.21Z</time></trkpt><trkpt lat="43.3797245" lon="11.3464862"><ele>355.0</ele><time>2026-03-28T10:42:27.21Z</time></trkpt><trkpt lat="43.3796396" lon="11.3466868"><ele>353.3333333333333</ele><time>2026-03-28T10:42:28.21Z</time></trkpt><trkpt lat="43.3795485" lon="11.3468887"><ele>351.6666666666667</ele><time>2026-03-28T10:42:29.21Z</time></trkpt><trkpt lat="43.3794605" lon="11.3470793"><ele>350.0</ele><time>2026-03-28T10:42:30.21Z</time></trkpt><trkpt lat="43.3793726" lon="11.3472571"><ele>350.0</ele><time>2026-03-28T10:42:31.21Z</time></trkpt><trkpt lat="43.37927" lon="11.3474175"><ele>350.0</ele><time>2026-03-28T10:42:32.211Z</time></trkpt><trkpt lat="43.3791555" lon="11.3475603"><ele>350.0</ele><time>2026-03-28T10:42:33.211Z</time></trkpt><trkpt lat="43.3790405" lon="11.3476836"><ele>350.0</ele><time>2026-03-28T10:42:34.21Z</time></trkpt><trkpt lat="43.3789223" lon="11.3478077"><ele>350.0</ele><time>2026-03-28T10:42:35.21Z</time></trkpt><trkpt lat="43.3788046" lon="11.3479341"><ele>350.0</ele><time>2026-03-28T10:42:36.211Z</time></trkpt><trkpt lat="43.3786849" lon="11.3480638"><ele>349.5</ele><time>2026-03-28T10:42:37.211Z</time></trkpt><trkpt lat="43.378566" lon="11.3481849"><ele>349.0</ele><time>2026-03-28T10:42:38.21Z</time></trkpt><trkpt lat="43.37845" lon="11.3483016"><ele>348.5</ele><time>2026-03-28T10:42:39.21Z</time></trkpt><trkpt lat="43.3783343" lon="11.3484143"><ele>348.0</ele><time>2026-03-28T10:42:40.211Z</time></trkpt><trkpt lat="43.3782161" lon="11.3485285"><ele>348.0</ele><time>2026-03-28T10:42:41.21Z</time></trkpt><trkpt lat="43.3780905" lon="11.3486407"><ele>348.0</ele><time>2026-03-28T10:42:42.21Z</time></trkpt><trkpt lat="43.3779597" lon="11.3487427"><ele>348.0</ele><time>2026-03-28T10:42:43.21Z</time></trkpt><trkpt lat="43.3778285" lon="11.3488314"><ele>348.0</ele><time>2026-03-28T10:42:44.21Z</time></trkpt><trkpt lat="43.377698" lon="11.3489062"><ele>347.5</ele><time>2026-03-28T10:42:45.21Z</time></trkpt><trkpt lat="43.3775623" lon="11.3489695"><ele>347.0</ele><time>2026-03-28T10:42:46.211Z</time></trkpt><trkpt lat="43.3774258" lon="11.3490371"><ele>346.5</ele><time>2026-03-28T10:42:47.21Z</time></trkpt><trkpt lat="43.3772979" lon="11.3491116"><ele>346.0</ele><time>2026-03-28T10:42:48.21Z</time></trkpt><trkpt lat="43.3771773" lon="11.3491911"><ele>346.0</ele><time>2026-03-28T10:42:49.21Z</time></trkpt><trkpt lat="43.3770496" lon="11.349282"><ele>346.0</ele><time>2026-03-28T10:42:50.21Z</time></trkpt><trkpt lat="43.3769128" lon="11.3493808"><ele>346.0</ele><time>2026-03-28T10:42:51.21Z</time></trkpt><trkpt lat="43.3767729" lon="11.3494814"><ele>346.0</ele><time>2026-03-28T10:42:52.21Z</time></trkpt><trkpt lat="43.376643" lon="11.3495853"><ele>346.0</ele><time>2026-03-28T10:42:53.21Z</time></trkpt><trkpt lat="43.3765133" lon="11.3496909"><ele>346.0</ele><time>2026-03-28T10:42:54.211Z</time></trkpt><trkpt lat="43.3763854" lon="11.3497927"><ele>346.0</ele><time>2026-03-28T10:42:55.21Z</time></trkpt><trkpt lat="43.3762644" lon="11.3498897"><ele>344.75</ele><time>2026-03-28T10:42:56.21Z</time></trkpt><trkpt lat="43.3761516" lon="11.3499751"><ele>343.5</ele><time>2026-03-28T10:42:57.211Z</time></trkpt><trkpt lat="43.3760411" lon="11.3500574"><ele>342.25</ele><time>2026-03-28T10:42:58.211Z</time></trkpt><trkpt lat="43.375935" lon="11.3501396"><ele>341.0</ele><time>2026-03-28T10:42:59.21Z</time></trkpt><trkpt lat="43.3758274" lon="11.3502245"><ele>341.0</ele><time>2026-03-28T10:43:00.21Z</time></trkpt><trkpt lat="43.3757195" lon="11.3503079"><ele>341.0</ele><time>2026-03-28T10:43:01.211Z</time></trkpt><trkpt lat="43.3756043" lon="11.3503945"><ele>341.0</ele><time>2026-03-28T10:43:02.21Z</time></trkpt><trkpt lat="43.3754865" lon="11.3504826"><ele>341.0</ele><time>2026-03-28T10:43:03.211Z</time></trkpt><trkpt lat="43.3753788" lon="11.3505659"><ele>340.5</ele><time>2026-03-28T10:43:04.211Z</time></trkpt><trkpt lat="43.3752749" lon="11.3506524"><ele>340.0</ele><time>2026-03-28T10:43:05.21Z</time></trkpt><trkpt lat="43.3751688" lon="11.3507356"><ele>339.5</ele><time>2026-03-28T10:43:06.211Z</time></trkpt><trkpt lat="43.3750538" lon="11.3508261"><ele>339.0</ele><time>2026-03-28T10:43:07.21Z</time></trkpt><trkpt lat="43.3749325" lon="11.3509216"><ele>339.0</ele><time>2026-03-28T10:43:08.21Z</time></trkpt><trkpt lat="43.3748033" lon="11.3510216"><ele>339.0</ele><time>2026-03-28T10:43:09.211Z</time></trkpt><trkpt lat="43.3746739" lon="11.3511283"><ele>339.0</ele><time>2026-03-28T10:43:10.21Z</time></trkpt><trkpt lat="43.3745555" lon="11.3512343"><ele>339.0</ele><time>2026-03-28T10:43:11.21Z</time></trkpt><trkpt lat="43.3744491" lon="11.3513361"><ele>339.0</ele><time>2026-03-28T10:43:12.211Z</time></trkpt><trkpt lat="43.3743619" lon="11.3514331"><ele>339.0</ele><time>2026-03-28T10:43:13.211Z</time></trkpt><trkpt lat="43.3742939" lon="11.3515236"><ele>339.0</ele><time>2026-03-28T10:43:14.211Z</time></trkpt><trkpt lat="43.3742381" lon="11.351614"><ele>339.0</ele><time>2026-03-28T10:43:15.21Z</time></trkpt><trkpt lat="43.374188" lon="11.3517089"><ele>339.0</ele><time>2026-03-28T10:43:16.21Z</time></trkpt><trkpt lat="43.3741511" lon="11.3517884"><ele>339.0</ele><time>2026-03-28T10:43:17.21Z</time></trkpt><trkpt lat="43.3741203" lon="11.3518675"><ele>339.0</ele><time>2026-03-28T10:43:18.21Z</time></trkpt><trkpt lat="43.3740726" lon="11.3519824"><ele>339.0</ele><time>2026-03-28T10:43:20.211Z</time></trkpt><trkpt lat="43.3740054" lon="11.3520414"><ele>339.0</ele><time>2026-03-28T10:43:22.21Z</time></trkpt><trkpt lat="43.3739028" lon="11.3520548"><ele>339.0</ele><time>2026-03-28T10:43:24.21Z</time></trkpt><trkpt lat="43.3737822" lon="11.3520503"><ele>339.0</ele><time>2026-03-28T10:43:26.21Z</time></trkpt><trkpt lat="43.3737156" lon="11.3520362"><ele>337.8333333333333</ele><time>2026-03-28T10:43:27.211Z</time></trkpt><trkpt lat="43.3736443" lon="11.3520206"><ele>336.6666666666667</ele><time>2026-03-28T10:43:28.211Z</time></trkpt><trkpt lat="43.3735658" lon="11.3520021"><ele>335.5</ele><time>2026-03-28T10:43:29.21Z</time></trkpt><trkpt lat="43.373495" lon="11.3519808"><ele>334.33333333333337</ele><time>2026-03-28T10:43:30.211Z</time></trkpt><trkpt lat="43.3734188" lon="11.3519581"><ele>333.1666666666667</ele><time>2026-03-28T10:43:31.21Z</time></trkpt><trkpt lat="43.3733298" lon="11.3519407"><ele>332.0</ele><time>2026-03-28T10:43:32.211Z</time></trkpt><trkpt lat="43.3732351" lon="11.3519292"><ele>332.0</ele><time>2026-03-28T10:43:33.21Z</time></trkpt><trkpt lat="43.3731366" lon="11.351919"><ele>332.0</ele><time>2026-03-28T10:43:34.211Z</time></trkpt><trkpt lat="43.3730289" lon="11.3519014"><ele>332.0</ele><time>2026-03-28T10:43:35.21Z</time></trkpt><trkpt lat="43.3729161" lon="11.3518763"><ele>332.0</ele><time>2026-03-28T10:43:36.21Z</time></trkpt><trkpt lat="43.3727988" lon="11.3518513"><ele>332.0</ele><time>2026-03-28T10:43:37.211Z</time></trkpt><trkpt lat="43.3726846" lon="11.3518133"><ele>333.20000000000005</ele><time>2026-03-28T10:43:38.21Z</time></trkpt><trkpt lat="43.3725892" lon="11.3517672"><ele>334.4</ele><time>2026-03-28T10:43:39.21Z</time></trkpt><trkpt lat="43.3724894" lon="11.3517125"><ele>335.6</ele><time>2026-03-28T10:43:40.211Z</time></trkpt><trkpt lat="43.3724072" lon="11.3516413"><ele>336.79999999999995</ele><time>2026-03-28T10:43:41.21Z</time></trkpt><trkpt lat="43.3723423" lon="11.3515487"><ele>338.0</ele><time>2026-03-28T10:43:42.21Z</time></trkpt><trkpt lat="43.3722791" lon="11.3514566"><ele>338.0</ele><time>2026-03-28T10:43:43.211Z</time></trkpt><trkpt lat="43.37219" lon="11.3513908"><ele>338.0</ele><time>2026-03-28T10:43:44.21Z</time></trkpt><trkpt lat="43.3720884" lon="11.3513278"><ele>338.0</ele><time>2026-03-28T10:43:45.211Z</time></trkpt><trkpt lat="43.3719834" lon="11.3512715"><ele>338.0</ele><time>2026-03-28T10:43:46.211Z</time></trkpt><trkpt lat="43.3718794" lon="11.3512357"><ele>338.0</ele><time>2026-03-28T10:43:47.211Z</time></trkpt><trkpt lat="43.3717784" lon="11.3512226"><ele>336.2</ele><time>2026-03-28T10:43:48.21Z</time></trkpt><trkpt lat="43.371677" lon="11.3512322"><ele>334.4</ele><time>2026-03-28T10:43:49.211Z</time></trkpt><trkpt lat="43.3715788" lon="11.3512568"><ele>332.59999999999997</ele><time>2026-03-28T10:43:50.211Z</time></trkpt><trkpt lat="43.3714825" lon="11.3512958"><ele>330.79999999999995</ele><time>2026-03-28T10:43:51.211Z</time></trkpt><trkpt lat="43.3713813" lon="11.3513548"><ele>329.0</ele><time>2026-03-28T10:43:52.211Z</time></trkpt><trkpt lat="43.3712778" lon="11.3514213"><ele>329.0</ele><time>2026-03-28T10:43:53.21Z</time></trkpt><trkpt lat="43.3711659" lon="11.351486"><ele>329.0</ele><time>2026-03-28T10:43:54.211Z</time></trkpt><trkpt lat="43.371058" lon="11.3515502"><ele>329.0</ele><time>2026-03-28T10:43:55.211Z</time></trkpt><trkpt lat="43.3709566" lon="11.351584"><ele>329.0</ele><time>2026-03-28T10:43:56.21Z</time></trkpt><trkpt lat="43.3708502" lon="11.3515828"><ele>329.0</ele><time>2026-03-28T10:43:57.21Z</time></trkpt><trkpt lat="43.370752" lon="11.3515514"><ele>329.0</ele><time>2026-03-28T10:43:58.21Z</time></trkpt><trkpt lat="43.3706669" lon="11.3514952"><ele>329.0</ele><time>2026-03-28T10:43:59.21Z</time></trkpt><trkpt lat="43.3705911" lon="11.3514075"><ele>329.0</ele><time>2026-03-28T10:44:00.21Z</time></trkpt><trkpt lat="43.3705127" lon="11.3513011"><ele>329.0</ele><time>2026-03-28T10:44:01.211Z</time></trkpt><trkpt lat="43.3704362" lon="11.3511882"><ele>329.0</ele><time>2026-03-28T10:44:02.21Z</time></trkpt><trkpt lat="43.3703665" lon="11.3510779"><ele>329.0</ele><time>2026-03-28T10:44:03.21Z</time></trkpt><trkpt lat="43.3702962" lon="11.3509664"><ele>329.0</ele><time>2026-03-28T10:44:04.21Z</time></trkpt><trkpt lat="43.3702296" lon="11.3508597"><ele>329.0</ele><time>2026-03-28T10:44:05.211Z</time></trkpt><trkpt lat="43.3701563" lon="11.3507429"><ele>329.0</ele><time>2026-03-28T10:44:06.21Z</time></trkpt><trkpt lat="43.3700982" lon="11.3506086"><ele>329.0</ele><time>2026-03-28T10:44:07.211Z</time></trkpt><trkpt lat="43.370033" lon="11.3504873"><ele>329.0</ele><time>2026-03-28T10:44:08.21Z</time></trkpt><trkpt lat="43.3699549" lon="11.3503754"><ele>329.0</ele><time>2026-03-28T10:44:09.21Z</time></trkpt><trkpt lat="43.3698653" lon="11.3502667"><ele>329.0</ele><time>2026-03-28T10:44:10.21Z</time></trkpt><trkpt lat="43.3697672" lon="11.3501591"><ele>328.79999999999995</ele><time>2026-03-28T10:44:11.21Z</time></trkpt><trkpt lat="43.3696765" lon="11.350038"><ele>328.59999999999997</ele><time>2026-03-28T10:44:12.211Z</time></trkpt><trkpt lat="43.3696126" lon="11.3499074"><ele>328.4</ele><time>2026-03-28T10:44:13.211Z</time></trkpt><trkpt lat="43.369575" lon="11.3497759"><ele>328.2</ele><time>2026-03-28T10:44:14.211Z</time></trkpt><trkpt lat="43.3695557" lon="11.349648"><ele>328.0</ele><time>2026-03-28T10:44:15.209Z</time></trkpt><trkpt lat="43.3695502" lon="11.3495261"><ele>327.5</ele><time>2026-03-28T10:44:16.21Z</time></trkpt><trkpt lat="43.3695546" lon="11.3494264"><ele>327.0</ele><time>2026-03-28T10:44:17.211Z</time></trkpt><trkpt lat="43.3695552" lon="11.3493153"><ele>326.5</ele><time>2026-03-28T10:44:18.21Z</time></trkpt><trkpt lat="43.3695566" lon="11.3491971"><ele>326.0</ele><time>2026-03-28T10:44:19.21Z</time></trkpt><trkpt lat="43.3695494" lon="11.3491109"><ele>325.5</ele><time>2026-03-28T10:44:20.21Z</time></trkpt><trkpt lat="43.36953" lon="11.3490215"><ele>325.0</ele><time>2026-03-28T10:44:21.21Z</time></trkpt><trkpt lat="43.3694617" lon="11.348859"><ele>324.4</ele><time>2026-03-28T10:44:23.211Z</time></trkpt><trkpt lat="43.3693872" lon="11.3487663"><ele>323.8</ele><time>2026-03-28T10:44:24.209Z</time></trkpt><trkpt lat="43.3693223" lon="11.3486695"><ele>323.20000000000005</ele><time>2026-03-28T10:44:25.211Z</time></trkpt><trkpt lat="43.3692475" lon="11.3485705"><ele>322.6</ele><time>2026-03-28T10:44:26.21Z</time></trkpt><trkpt lat="43.3691688" lon="11.348472"><ele>322.0</ele><time>2026-03-28T10:44:27.211Z</time></trkpt><trkpt lat="43.3690873" lon="11.3483681"><ele>322.0</ele><time>2026-03-28T10:44:28.21Z</time></trkpt><trkpt lat="43.3690115" lon="11.3482548"><ele>322.0</ele><time>2026-03-28T10:44:29.21Z</time></trkpt><trkpt lat="43.3689303" lon="11.3481435"><ele>322.0</ele><time>2026-03-28T10:44:30.21Z</time></trkpt><trkpt lat="43.3688419" lon="11.3480379"><ele>322.0</ele><time>2026-03-28T10:44:31.21Z</time></trkpt><trkpt lat="43.3687542" lon="11.3479259"><ele>322.25</ele><time>2026-03-28T10:44:32.211Z</time></trkpt><trkpt lat="43.3686659" lon="11.3478179"><ele>322.5</ele><time>2026-03-28T10:44:33.211Z</time></trkpt><trkpt lat="43.3685724" lon="11.3477219"><ele>322.75</ele><time>2026-03-28T10:44:34.211Z</time></trkpt><trkpt lat="43.3684738" lon="11.3476246"><ele>323.0</ele><time>2026-03-28T10:44:35.21Z</time></trkpt><trkpt lat="43.3683766" lon="11.3475344"><ele>323.0</ele><time>2026-03-28T10:44:36.21Z</time></trkpt><trkpt lat="43.3682879" lon="11.3474521"><ele>323.0</ele><time>2026-03-28T10:44:37.21Z</time></trkpt><trkpt lat="43.368217" lon="11.3473584"><ele>323.0</ele><time>2026-03-28T10:44:38.211Z</time></trkpt><trkpt lat="43.3681524" lon="11.3472597"><ele>323.0</ele><time>2026-03-28T10:44:39.21Z</time></trkpt><trkpt lat="43.3680738" lon="11.3471853"><ele>323.0</ele><time>2026-03-28T10:44:40.21Z</time></trkpt><trkpt lat="43.3679921" lon="11.3471266"><ele>322.83333333333337</ele><time>2026-03-28T10:44:41.21Z</time></trkpt><trkpt lat="43.3679024" lon="11.3470756"><ele>322.6666666666667</ele><time>2026-03-28T10:44:42.21Z</time></trkpt><trkpt lat="43.3678215" lon="11.3470301"><ele>322.5</ele><time>2026-03-28T10:44:43.211Z</time></trkpt><trkpt lat="43.3677444" lon="11.346985"><ele>322.3333333333333</ele><time>2026-03-28T10:44:44.211Z</time></trkpt><trkpt lat="43.3676604" lon="11.3469447"><ele>322.16666666666663</ele><time>2026-03-28T10:44:45.21Z</time></trkpt><trkpt lat="43.3675754" lon="11.346911"><ele>322.0</ele><time>2026-03-28T10:44:46.211Z</time></trkpt><trkpt lat="43.367492" lon="11.3468658"><ele>322.0</ele><time>2026-03-28T10:44:47.211Z</time></trkpt><trkpt lat="43.3674074" lon="11.3468277"><ele>322.0</ele><time>2026-03-28T10:44:48.211Z</time></trkpt><trkpt lat="43.3673279" lon="11.346789"><ele>322.0</ele><time>2026-03-28T10:44:49.21Z</time></trkpt><trkpt lat="43.3672513" lon="11.3467524"><ele>322.0</ele><time>2026-03-28T10:44:50.21Z</time></trkpt><trkpt lat="43.367174" lon="11.3467193"><ele>322.0</ele><time>2026-03-28T10:44:51.21Z</time></trkpt><trkpt lat="43.3670908" lon="11.346691"><ele>322.0</ele><time>2026-03-28T10:44:52.209Z</time></trkpt><trkpt lat="43.3670179" lon="11.3466694"><ele>322.16666666666663</ele><time>2026-03-28T10:44:53.209Z</time></trkpt><trkpt lat="43.3669458" lon="11.3466496"><ele>322.3333333333333</ele><time>2026-03-28T10:44:54.209Z</time></trkpt><trkpt lat="43.3668729" lon="11.3466352"><ele>322.5</ele><time>2026-03-28T10:44:55.209Z</time></trkpt><trkpt lat="43.366808" lon="11.346609"><ele>322.6666666666667</ele><time>2026-03-28T10:44:56.21Z</time></trkpt><trkpt lat="43.3666987" lon="11.3465839"><ele>322.83333333333337</ele><time>2026-03-28T10:44:58.21Z</time></trkpt><trkpt lat="43.3666103" lon="11.346585"><ele>323.0</ele><time>2026-03-28T10:45:00.209Z</time></trkpt><trkpt lat="43.3665464" lon="11.3466286"><ele>323.0</ele><time>2026-03-28T10:45:02.21Z</time></trkpt><trkpt lat="43.3665264" lon="11.3467285"><ele>323.0</ele><time>2026-03-28T10:45:04.209Z</time></trkpt><trkpt lat="43.3665592" lon="11.346871"><ele>323.0</ele><time>2026-03-28T10:45:06.209Z</time></trkpt><trkpt lat="43.3665946" lon="11.3469924"><ele>323.0</ele><time>2026-03-28T10:45:08.209Z</time></trkpt><trkpt lat="43.3666384" lon="11.3471354"><ele>323.0</ele><time>2026-03-28T10:45:10.209Z</time></trkpt><trkpt lat="43.3666902" lon="11.3472641"><ele>322.83333333333337</ele><time>2026-03-28T10:45:12.209Z</time></trkpt><trkpt lat="43.3666569" lon="11.3473745"><ele>322.6666666666667</ele><time>2026-03-28T10:45:14.21Z</time></trkpt><trkpt lat="43.3665508" lon="11.3474316"><ele>322.5</ele><time>2026-03-28T10:45:16.209Z</time></trkpt><trkpt lat="43.3664728" lon="11.3474585"><ele>322.3333333333333</ele><time>2026-03-28T10:45:17.21Z</time></trkpt><trkpt lat="43.3663944" lon="11.3474839"><ele>322.16666666666663</ele><time>2026-03-28T10:45:18.209Z</time></trkpt><trkpt lat="43.3663155" lon="11.3475163"><ele>322.0</ele><time>2026-03-28T10:45:19.209Z</time></trkpt><trkpt lat="43.3662332" lon="11.347549"><ele>320.20000000000005</ele><time>2026-03-28T10:45:20.209Z</time></trkpt><trkpt lat="43.3661485" lon="11.3475813"><ele>318.40000000000003</ele><time>2026-03-28T10:45:21.21Z</time></trkpt><trkpt lat="43.3660604" lon="11.3476129"><ele>316.6</ele><time>2026-03-28T10:45:22.21Z</time></trkpt><trkpt lat="43.3659697" lon="11.3476477"><ele>314.8</ele><time>2026-03-28T10:45:23.21Z</time></trkpt><trkpt lat="43.3658827" lon="11.3476831"><ele>313.0</ele><time>2026-03-28T10:45:24.21Z</time></trkpt><trkpt lat="43.3657856" lon="11.3477217"><ele>313.0</ele><time>2026-03-28T10:45:25.209Z</time></trkpt><trkpt lat="43.3656742" lon="11.3477617"><ele>313.0</ele><time>2026-03-28T10:45:26.209Z</time></trkpt><trkpt lat="43.3655632" lon="11.3478067"><ele>313.0</ele><time>2026-03-28T10:45:27.21Z</time></trkpt><trkpt lat="43.3654593" lon="11.3478462"><ele>313.0</ele><time>2026-03-28T10:45:28.209Z</time></trkpt><trkpt lat="43.3653575" lon="11.3478829"><ele>313.0</ele><time>2026-03-28T10:45:29.209Z</time></trkpt><trkpt lat="43.3652604" lon="11.3479199"><ele>311.0</ele><time>2026-03-28T10:45:30.209Z</time></trkpt><trkpt lat="43.3651569" lon="11.3479569"><ele>309.0</ele><time>2026-03-28T10:45:31.209Z</time></trkpt><trkpt lat="43.3650478" lon="11.3479925"><ele>307.0</ele><time>2026-03-28T10:45:32.21Z</time></trkpt><trkpt lat="43.3649364" lon="11.3480361"><ele>305.0</ele><time>2026-03-28T10:45:33.21Z</time></trkpt><trkpt lat="43.3648239" lon="11.3480789"><ele>304.8</ele><time>2026-03-28T10:45:34.208Z</time></trkpt><trkpt lat="43.3647155" lon="11.3481178"><ele>304.6</ele><time>2026-03-28T10:45:35.21Z</time></trkpt><trkpt lat="43.3646118" lon="11.3481621"><ele>304.4</ele><time>2026-03-28T10:45:36.21Z</time></trkpt><trkpt lat="43.3645102" lon="11.3482089"><ele>304.2</ele><time>2026-03-28T10:45:37.21Z</time></trkpt><trkpt lat="43.364405" lon="11.3482581"><ele>304.0</ele><time>2026-03-28T10:45:38.209Z</time></trkpt><trkpt lat="43.3642943" lon="11.3483182"><ele>302.75</ele><time>2026-03-28T10:45:39.209Z</time></trkpt><trkpt lat="43.3641834" lon="11.3483865"><ele>301.5</ele><time>2026-03-28T10:45:40.209Z</time></trkpt><trkpt lat="43.3640712" lon="11.3484496"><ele>300.25</ele><time>2026-03-28T10:45:41.209Z</time></trkpt><trkpt lat="43.3639549" lon="11.3485191"><ele>299.0</ele><time>2026-03-28T10:45:42.209Z</time></trkpt><trkpt lat="43.3638384" lon="11.3485921"><ele>297.5</ele><time>2026-03-28T10:45:43.21Z</time></trkpt><trkpt lat="43.363722" lon="11.3486613"><ele>296.0</ele><time>2026-03-28T10:45:44.209Z</time></trkpt><trkpt lat="43.3636028" lon="11.3487311"><ele>294.5</ele><time>2026-03-28T10:45:45.209Z</time></trkpt><trkpt lat="43.3634779" lon="11.348808"><ele>293.0</ele><time>2026-03-28T10:45:46.21Z</time></trkpt><trkpt lat="43.3633563" lon="11.3488834"><ele>292.75</ele><time>2026-03-28T10:45:47.209Z</time></trkpt><trkpt lat="43.3632334" lon="11.3489565"><ele>292.5</ele><time>2026-03-28T10:45:48.21Z</time></trkpt><trkpt lat="43.3631176" lon="11.3490331"><ele>292.25</ele><time>2026-03-28T10:45:49.209Z</time></trkpt><trkpt lat="43.3630076" lon="11.3491236"><ele>292.0</ele><time>2026-03-28T10:45:50.209Z</time></trkpt><trkpt lat="43.3629021" lon="11.3492343"><ele>290.75</ele><time>2026-03-28T10:45:51.209Z</time></trkpt><trkpt lat="43.3628047" lon="11.3493638"><ele>289.5</ele><time>2026-03-28T10:45:52.21Z</time></trkpt><trkpt lat="43.3627091" lon="11.3494947"><ele>288.25</ele><time>2026-03-28T10:45:53.209Z</time></trkpt><trkpt lat="43.3626184" lon="11.3496252"><ele>287.0</ele><time>2026-03-28T10:45:54.209Z</time></trkpt><trkpt lat="43.3625241" lon="11.3497513"><ele>287.0</ele><time>2026-03-28T10:45:55.208Z</time></trkpt><trkpt lat="43.3624351" lon="11.3498863"><ele>287.0</ele><time>2026-03-28T10:45:56.209Z</time></trkpt><trkpt lat="43.3623492" lon="11.3500242"><ele>287.0</ele><time>2026-03-28T10:45:57.209Z</time></trkpt><trkpt lat="43.3622576" lon="11.3501508"><ele>287.0</ele><time>2026-03-28T10:45:58.209Z</time></trkpt><trkpt lat="43.3621721" lon="11.350282"><ele>286.5</ele><time>2026-03-28T10:45:59.209Z</time></trkpt><trkpt lat="43.3620872" lon="11.3504174"><ele>286.0</ele><time>2026-03-28T10:46:00.209Z</time></trkpt><trkpt lat="43.3620004" lon="11.3505461"><ele>285.5</ele><time>2026-03-28T10:46:01.209Z</time></trkpt><trkpt lat="43.3619165" lon="11.3506723"><ele>285.0</ele><time>2026-03-28T10:46:02.21Z</time></trkpt><trkpt lat="43.3618294" lon="11.3507991"><ele>286.4</ele><time>2026-03-28T10:46:03.209Z</time></trkpt><trkpt lat="43.3617398" lon="11.3509216"><ele>287.8</ele><time>2026-03-28T10:46:04.21Z</time></trkpt><trkpt lat="43.3616562" lon="11.3510339"><ele>289.2</ele><time>2026-03-28T10:46:05.21Z</time></trkpt><trkpt lat="43.3615923" lon="11.3511411"><ele>290.6</ele><time>2026-03-28T10:46:06.209Z</time></trkpt><trkpt lat="43.361547" lon="11.3512473"><ele>292.0</ele><time>2026-03-28T10:46:07.21Z</time></trkpt><trkpt lat="43.3615303" lon="11.3513487"><ele>293.16666666666663</ele><time>2026-03-28T10:46:08.209Z</time></trkpt><trkpt lat="43.3615368" lon="11.3514478"><ele>294.3333333333333</ele><time>2026-03-28T10:46:09.209Z</time></trkpt><trkpt lat="43.361565" lon="11.3515391"><ele>295.5</ele><time>2026-03-28T10:46:10.209Z</time></trkpt><trkpt lat="43.3616126" lon="11.351612"><ele>296.6666666666667</ele><time>2026-03-28T10:46:11.21Z</time></trkpt><trkpt lat="43.3616744" lon="11.3516827"><ele>297.83333333333337</ele><time>2026-03-28T10:46:12.209Z</time></trkpt><trkpt lat="43.3617247" lon="11.3517773"><ele>299.0</ele><time>2026-03-28T10:46:13.21Z</time></trkpt><trkpt lat="43.3617615" lon="11.3518995"><ele>299.0</ele><time>2026-03-28T10:46:14.21Z</time></trkpt><trkpt lat="43.3617855" lon="11.3520308"><ele>299.0</ele><time>2026-03-28T10:46:15.21Z</time></trkpt><trkpt lat="43.3617977" lon="11.3521408"><ele>299.0</ele><time>2026-03-28T10:46:16.208Z</time></trkpt><trkpt lat="43.3618105" lon="11.3522449"><ele>299.0</ele><time>2026-03-28T10:46:17.21Z</time></trkpt><trkpt lat="43.3618168" lon="11.3523658"><ele>299.0</ele><time>2026-03-28T10:46:18.209Z</time></trkpt><trkpt lat="43.3618089" lon="11.3524771"><ele>299.0</ele><time>2026-03-28T10:46:19.21Z</time></trkpt><trkpt lat="43.3617829" lon="11.3525762"><ele>299.1666666666667</ele><time>2026-03-28T10:46:20.209Z</time></trkpt><trkpt lat="43.3617481" lon="11.3526691"><ele>299.33333333333337</ele><time>2026-03-28T10:46:21.21Z</time></trkpt><trkpt lat="43.3617015" lon="11.3527635"><ele>299.5</ele><time>2026-03-28T10:46:22.21Z</time></trkpt><trkpt lat="43.3616476" lon="11.3528526"><ele>299.6666666666667</ele><time>2026-03-28T10:46:23.21Z</time></trkpt><trkpt lat="43.3615893" lon="11.3529315"><ele>299.8333333333333</ele><time>2026-03-28T10:46:24.209Z</time></trkpt><trkpt lat="43.3615243" lon="11.353006"><ele>300.0</ele><time>2026-03-28T10:46:25.21Z</time></trkpt><trkpt lat="43.3614554" lon="11.3530689"><ele>299.5</ele><time>2026-03-28T10:46:26.21Z</time></trkpt><trkpt lat="43.3613871" lon="11.3531193"><ele>299.0</ele><time>2026-03-28T10:46:27.209Z</time></trkpt><trkpt lat="43.3613146" lon="11.3531354"><ele>298.5</ele><time>2026-03-28T10:46:28.21Z</time></trkpt><trkpt lat="43.3612392" lon="11.3531053"><ele>298.0</ele><time>2026-03-28T10:46:29.209Z</time></trkpt><trkpt lat="43.3611648" lon="11.3530418"><ele>297.5</ele><time>2026-03-28T10:46:30.209Z</time></trkpt><trkpt lat="43.3610866" lon="11.3529607"><ele>297.0</ele><time>2026-03-28T10:46:31.209Z</time></trkpt><trkpt lat="43.3610061" lon="11.3528676"><ele>297.0</ele><time>2026-03-28T10:46:32.209Z</time></trkpt><trkpt lat="43.3609408" lon="11.3527939"><ele>297.0</ele><time>2026-03-28T10:46:33.209Z</time></trkpt><trkpt lat="43.3608803" lon="11.3527133"><ele>297.0</ele><time>2026-03-28T10:46:34.21Z</time></trkpt><trkpt lat="43.360822" lon="11.3526419"><ele>297.0</ele><time>2026-03-28T10:46:35.21Z</time></trkpt><trkpt lat="43.3607735" lon="11.352585"><ele>297.0</ele><time>2026-03-28T10:46:36.21Z</time></trkpt><trkpt lat="43.3606798" lon="11.3524994"><ele>297.0</ele><time>2026-03-28T10:46:38.21Z</time></trkpt><trkpt lat="43.3605717" lon="11.3525267"><ele>294.8</ele><time>2026-03-28T10:46:40.209Z</time></trkpt><trkpt lat="43.3605026" lon="11.3525828"><ele>292.6</ele><time>2026-03-28T10:46:41.21Z</time></trkpt><trkpt lat="43.3604198" lon="11.3526636"><ele>290.40000000000003</ele><time>2026-03-28T10:46:42.209Z</time></trkpt><trkpt lat="43.3603278" lon="11.3527476"><ele>288.2</ele><time>2026-03-28T10:46:43.209Z</time></trkpt><trkpt lat="43.360217" lon="11.3528522"><ele>286.0</ele><time>2026-03-28T10:46:44.21Z</time></trkpt><trkpt lat="43.3600961" lon="11.3529663"><ele>286.0</ele><time>2026-03-28T10:46:45.209Z</time></trkpt><trkpt lat="43.3599684" lon="11.3530888"><ele>286.0</ele><time>2026-03-28T10:46:46.21Z</time></trkpt><trkpt lat="43.3598357" lon="11.3532191"><ele>286.0</ele><time>2026-03-28T10:46:47.21Z</time></trkpt><trkpt lat="43.3596994" lon="11.353349"><ele>285.66666666666663</ele><time>2026-03-28T10:46:48.21Z</time></trkpt><trkpt lat="43.359559" lon="11.3534696"><ele>285.3333333333333</ele><time>2026-03-28T10:46:49.21Z</time></trkpt><trkpt lat="43.3594201" lon="11.3535866"><ele>285.0</ele><time>2026-03-28T10:46:50.209Z</time></trkpt><trkpt lat="43.3592853" lon="11.3536981"><ele>285.0</ele><time>2026-03-28T10:46:51.21Z</time></trkpt><trkpt lat="43.359154" lon="11.3538059"><ele>285.0</ele><time>2026-03-28T10:46:52.21Z</time></trkpt><trkpt lat="43.3590197" lon="11.3539177"><ele>285.0</ele><time>2026-03-28T10:46:53.21Z</time></trkpt><trkpt lat="43.358888" lon="11.3540316"><ele>287.0</ele><time>2026-03-28T10:46:54.21Z</time></trkpt><trkpt lat="43.3587708" lon="11.3541383"><ele>289.0</ele><time>2026-03-28T10:46:55.209Z</time></trkpt><trkpt lat="43.3586582" lon="11.3542442"><ele>291.0</ele><time>2026-03-28T10:46:56.209Z</time></trkpt><trkpt lat="43.3585408" lon="11.3543506"><ele>293.0</ele><time>2026-03-28T10:46:57.209Z</time></trkpt><trkpt lat="43.3584214" lon="11.3544603"><ele>293.0</ele><time>2026-03-28T10:46:58.209Z</time></trkpt><trkpt lat="43.3582967" lon="11.3545607"><ele>293.0</ele><time>2026-03-28T10:46:59.21Z</time></trkpt><trkpt lat="43.3581715" lon="11.3546703"><ele>293.0</ele><time>2026-03-28T10:47:00.209Z</time></trkpt><trkpt lat="43.3580466" lon="11.3547861"><ele>293.0</ele><time>2026-03-28T10:47:01.21Z</time></trkpt><trkpt lat="43.3579186" lon="11.3548942"><ele>293.75</ele><time>2026-03-28T10:47:02.209Z</time></trkpt><trkpt lat="43.3577907" lon="11.3550045"><ele>294.5</ele><time>2026-03-28T10:47:03.209Z</time></trkpt><trkpt lat="43.3576655" lon="11.3551163"><ele>295.25</ele><time>2026-03-28T10:47:04.21Z</time></trkpt><trkpt lat="43.3575412" lon="11.355225"><ele>296.0</ele><time>2026-03-28T10:47:05.209Z</time></trkpt><trkpt lat="43.3574208" lon="11.355332"><ele>296.0</ele><time>2026-03-28T10:47:06.209Z</time></trkpt><trkpt lat="43.3572998" lon="11.3554413"><ele>296.0</ele><time>2026-03-28T10:47:07.21Z</time></trkpt><trkpt lat="43.357178" lon="11.3555455"><ele>296.0</ele><time>2026-03-28T10:47:08.209Z</time></trkpt><trkpt lat="43.3570659" lon="11.3556416"><ele>296.0</ele><time>2026-03-28T10:47:09.209Z</time></trkpt><trkpt lat="43.3569623" lon="11.3557376"><ele>298.25</ele><time>2026-03-28T10:47:10.21Z</time></trkpt><trkpt lat="43.3568573" lon="11.3558359"><ele>300.5</ele><time>2026-03-28T10:47:11.209Z</time></trkpt><trkpt lat="43.3567575" lon="11.3559269"><ele>302.75</ele><time>2026-03-28T10:47:12.209Z</time></trkpt><trkpt lat="43.3566719" lon="11.3560015"><ele>305.0</ele><time>2026-03-28T10:47:13.21Z</time></trkpt><trkpt lat="43.3565855" lon="11.3560761"><ele>305.0</ele><time>2026-03-28T10:47:14.209Z</time></trkpt><trkpt lat="43.3565101" lon="11.3561416"><ele>305.0</ele><time>2026-03-28T10:47:15.209Z</time></trkpt><trkpt lat="43.3564368" lon="11.3562082"><ele>305.0</ele><time>2026-03-28T10:47:16.21Z</time></trkpt><trkpt lat="43.356357" lon="11.3562784"><ele>305.0</ele><time>2026-03-28T10:47:17.21Z</time></trkpt><trkpt lat="43.3562877" lon="11.3563417"><ele>305.0</ele><time>2026-03-28T10:47:18.209Z</time></trkpt><trkpt lat="43.3562271" lon="11.3564063"><ele>305.0</ele><time>2026-03-28T10:47:19.208Z</time></trkpt><trkpt lat="43.3561825" lon="11.3564853"><ele>304.83333333333337</ele><time>2026-03-28T10:47:20.21Z</time></trkpt><trkpt lat="43.3561534" lon="11.3565689"><ele>304.6666666666667</ele><time>2026-03-28T10:47:21.209Z</time></trkpt><trkpt lat="43.3561375" lon="11.3566758"><ele>304.5</ele><time>2026-03-28T10:47:22.209Z</time></trkpt><trkpt lat="43.3561263" lon="11.3567919"><ele>304.3333333333333</ele><time>2026-03-28T10:47:23.21Z</time></trkpt><trkpt lat="43.3561053" lon="11.3568851"><ele>304.16666666666663</ele><time>2026-03-28T10:47:24.21Z</time></trkpt><trkpt lat="43.3560736" lon="11.3569716"><ele>304.0</ele><time>2026-03-28T10:47:25.21Z</time></trkpt><trkpt lat="43.3560348" lon="11.3570657"><ele>304.0</ele><time>2026-03-28T10:47:26.209Z</time></trkpt><trkpt lat="43.3559787" lon="11.3571761"><ele>304.0</ele><time>2026-03-28T10:47:27.21Z</time></trkpt><trkpt lat="43.3559221" lon="11.3572715"><ele>304.0</ele><time>2026-03-28T10:47:28.209Z</time></trkpt><trkpt lat="43.3558644" lon="11.3573577"><ele>304.0</ele><time>2026-03-28T10:47:29.209Z</time></trkpt><trkpt lat="43.3558112" lon="11.3574528"><ele>304.0</ele><time>2026-03-28T10:47:30.21Z</time></trkpt><trkpt lat="43.3557592" lon="11.3575433"><ele>304.0</ele><time>2026-03-28T10:47:31.209Z</time></trkpt><trkpt lat="43.355698" lon="11.3576407"><ele>303.0</ele><time>2026-03-28T10:47:32.209Z</time></trkpt><trkpt lat="43.3556365" lon="11.3577365"><ele>302.0</ele><time>2026-03-28T10:47:33.209Z</time></trkpt><trkpt lat="43.3555615" lon="11.3577891"><ele>301.0</ele><time>2026-03-28T10:47:34.209Z</time></trkpt><trkpt lat="43.3554768" lon="11.3578039"><ele>300.0</ele><time>2026-03-28T10:47:35.21Z</time></trkpt><trkpt lat="43.3554056" lon="11.357793"><ele>299.0</ele><time>2026-03-28T10:47:36.209Z</time></trkpt><trkpt lat="43.3553404" lon="11.3577971"><ele>298.0</ele><time>2026-03-28T10:47:37.209Z</time></trkpt><trkpt lat="43.3552769" lon="11.3578326"><ele>297.5</ele><time>2026-03-28T10:47:38.21Z</time></trkpt><trkpt lat="43.3552329" lon="11.357907"><ele>297.0</ele><time>2026-03-28T10:47:39.21Z</time></trkpt><trkpt lat="43.3551945" lon="11.3580054"><ele>296.5</ele><time>2026-03-28T10:47:40.209Z</time></trkpt><trkpt lat="43.3551591" lon="11.3581238"><ele>296.0</ele><time>2026-03-28T10:47:41.21Z</time></trkpt><trkpt lat="43.3551191" lon="11.3582516"><ele>295.5</ele><time>2026-03-28T10:47:42.21Z</time></trkpt><trkpt lat="43.3550868" lon="11.3583732"><ele>295.0</ele><time>2026-03-28T10:47:43.21Z</time></trkpt><trkpt lat="43.3550559" lon="11.3584888"><ele>294.3333333333333</ele><time>2026-03-28T10:47:44.209Z</time></trkpt><trkpt lat="43.3550164" lon="11.3585822"><ele>293.66666666666663</ele><time>2026-03-28T10:47:45.209Z</time></trkpt><trkpt lat="43.3549742" lon="11.3586632"><ele>293.0</ele><time>2026-03-28T10:47:46.21Z</time></trkpt><trkpt lat="43.3548891" lon="11.3587037"><ele>292.3333333333333</ele><time>2026-03-28T10:47:47.209Z</time></trkpt><trkpt lat="43.3548061" lon="11.3587237"><ele>291.6666666666667</ele><time>2026-03-28T10:47:48.21Z</time></trkpt><trkpt lat="43.3547087" lon="11.3586904"><ele>291.0</ele><time>2026-03-28T10:47:49.209Z</time></trkpt><trkpt lat="43.3546071" lon="11.3586566"><ele>289.8</ele><time>2026-03-28T10:47:50.21Z</time></trkpt><trkpt lat="43.3545152" lon="11.3586095"><ele>288.6</ele><time>2026-03-28T10:47:51.209Z</time></trkpt><trkpt lat="43.3544257" lon="11.3585574"><ele>287.4</ele><time>2026-03-28T10:47:52.21Z</time></trkpt><trkpt lat="43.3543373" lon="11.3585022"><ele>286.2</ele><time>2026-03-28T10:47:53.21Z</time></trkpt><trkpt lat="43.3542637" lon="11.3584265"><ele>285.0</ele><time>2026-03-28T10:47:54.209Z</time></trkpt><trkpt lat="43.3541895" lon="11.3583642"><ele>285.0</ele><time>2026-03-28T10:47:55.21Z</time></trkpt><trkpt lat="43.3541175" lon="11.358315"><ele>285.0</ele><time>2026-03-28T10:47:56.21Z</time></trkpt><trkpt lat="43.3540304" lon="11.3582812"><ele>285.0</ele><time>2026-03-28T10:47:57.209Z</time></trkpt><trkpt lat="43.3539466" lon="11.3582748"><ele>285.0</ele><time>2026-03-28T10:47:58.21Z</time></trkpt><trkpt lat="43.3538584" lon="11.358282"><ele>285.0</ele><time>2026-03-28T10:47:59.209Z</time></trkpt><trkpt lat="43.3537635" lon="11.3582922"><ele>285.0</ele><time>2026-03-28T10:48:00.209Z</time></trkpt><trkpt lat="43.353674" lon="11.3582935"><ele>283.6666666666667</ele><time>2026-03-28T10:48:01.21Z</time></trkpt><trkpt lat="43.3535875" lon="11.3582894"><ele>282.3333333333333</ele><time>2026-03-28T10:48:02.209Z</time></trkpt><trkpt lat="43.3534936" lon="11.358285"><ele>281.0</ele><time>2026-03-28T10:48:03.209Z</time></trkpt><trkpt lat="43.3534114" lon="11.3582785"><ele>279.66666666666663</ele><time>2026-03-28T10:48:04.209Z</time></trkpt><trkpt lat="43.3533364" lon="11.3582755"><ele>278.3333333333333</ele><time>2026-03-28T10:48:05.209Z</time></trkpt><trkpt lat="43.3532592" lon="11.3582977"><ele>277.0</ele><time>2026-03-28T10:48:06.209Z</time></trkpt><trkpt lat="43.353185" lon="11.3583549"><ele>277.0</ele><time>2026-03-28T10:48:07.209Z</time></trkpt><trkpt lat="43.353116" lon="11.3584511"><ele>277.0</ele><time>2026-03-28T10:48:08.209Z</time></trkpt><trkpt lat="43.3530558" lon="11.3585568"><ele>277.0</ele><time>2026-03-28T10:48:09.21Z</time></trkpt><trkpt lat="43.3529851" lon="11.35864"><ele>277.0</ele><time>2026-03-28T10:48:10.209Z</time></trkpt><trkpt lat="43.3528981" lon="11.3586929"><ele>277.0</ele><time>2026-03-28T10:48:11.21Z</time></trkpt><trkpt lat="43.3527964" lon="11.3587113"><ele>274.5</ele><time>2026-03-28T10:48:12.21Z</time></trkpt><trkpt lat="43.3526834" lon="11.3587224"><ele>272.0</ele><time>2026-03-28T10:48:13.21Z</time></trkpt><trkpt lat="43.3525706" lon="11.35872"><ele>269.5</ele><time>2026-03-28T10:48:14.21Z</time></trkpt><trkpt lat="43.3524513" lon="11.358724"><ele>267.0</ele><time>2026-03-28T10:48:15.209Z</time></trkpt><trkpt lat="43.3523387" lon="11.3587317"><ele>267.0</ele><time>2026-03-28T10:48:16.21Z</time></trkpt><trkpt lat="43.3522319" lon="11.3587491"><ele>267.0</ele><time>2026-03-28T10:48:17.21Z</time></trkpt><trkpt lat="43.3521266" lon="11.3587722"><ele>267.0</ele><time>2026-03-28T10:48:18.21Z</time></trkpt><trkpt lat="43.3520325" lon="11.3588177"><ele>267.0</ele><time>2026-03-28T10:48:19.209Z</time></trkpt><trkpt lat="43.3519431" lon="11.3588787"><ele>267.0</ele><time>2026-03-28T10:48:20.21Z</time></trkpt><trkpt lat="43.3518587" lon="11.3589683"><ele>266.2</ele><time>2026-03-28T10:48:21.209Z</time></trkpt><trkpt lat="43.3517906" lon="11.3590817"><ele>265.4</ele><time>2026-03-28T10:48:22.21Z</time></trkpt><trkpt lat="43.3517424" lon="11.3592078"><ele>264.6</ele><time>2026-03-28T10:48:23.21Z</time></trkpt><trkpt lat="43.3517062" lon="11.359333"><ele>263.8</ele><time>2026-03-28T10:48:24.209Z</time></trkpt><trkpt lat="43.3516505" lon="11.3594382"><ele>263.0</ele><time>2026-03-28T10:48:25.209Z</time></trkpt><trkpt lat="43.3515778" lon="11.3595208"><ele>263.0</ele><time>2026-03-28T10:48:26.209Z</time></trkpt><trkpt lat="43.3514971" lon="11.3595762"><ele>263.0</ele><time>2026-03-28T10:48:27.21Z</time></trkpt><trkpt lat="43.3514204" lon="11.3596254"><ele>263.0</ele><time>2026-03-28T10:48:28.209Z</time></trkpt><trkpt lat="43.3513432" lon="11.3597085"><ele>263.0</ele><time>2026-03-28T10:48:29.208Z</time></trkpt><trkpt lat="43.3512798" lon="11.3598165"><ele>263.0</ele><time>2026-03-28T10:48:30.209Z</time></trkpt><trkpt lat="43.3512345" lon="11.3599419"><ele>259.5</ele><time>2026-03-28T10:48:31.209Z</time></trkpt><trkpt lat="43.3512023" lon="11.3600861"><ele>256.0</ele><time>2026-03-28T10:48:32.209Z</time></trkpt><trkpt lat="43.3511844" lon="11.3602462"><ele>252.5</ele><time>2026-03-28T10:48:33.21Z</time></trkpt><trkpt lat="43.3511778" lon="11.360427"><ele>249.0</ele><time>2026-03-28T10:48:34.209Z</time></trkpt><trkpt lat="43.3511733" lon="11.3605973"><ele>248.75</ele><time>2026-03-28T10:48:35.209Z</time></trkpt><trkpt lat="43.3511596" lon="11.3607582"><ele>248.5</ele><time>2026-03-28T10:48:36.209Z</time></trkpt><trkpt lat="43.3511231" lon="11.3609137"><ele>248.25</ele><time>2026-03-28T10:48:37.209Z</time></trkpt><trkpt lat="43.3510752" lon="11.3610746"><ele>248.0</ele><time>2026-03-28T10:48:38.21Z</time></trkpt><trkpt lat="43.3510333" lon="11.3612195"><ele>248.0</ele><time>2026-03-28T10:48:39.209Z</time></trkpt><trkpt lat="43.3509942" lon="11.3613602"><ele>248.0</ele><time>2026-03-28T10:48:40.209Z</time></trkpt><trkpt lat="43.3509539" lon="11.3614849"><ele>248.0</ele><time>2026-03-28T10:48:41.209Z</time></trkpt><trkpt lat="43.3508958" lon="11.3615946"><ele>248.0</ele><time>2026-03-28T10:48:42.209Z</time></trkpt><trkpt lat="43.350837" lon="11.3617101"><ele>248.0</ele><time>2026-03-28T10:48:43.209Z</time></trkpt><trkpt lat="43.3507543" lon="11.3617993"><ele>248.0</ele><time>2026-03-28T10:48:44.21Z</time></trkpt><trkpt lat="43.3506789" lon="11.361897"><ele>248.0</ele><time>2026-03-28T10:48:45.209Z</time></trkpt><trkpt lat="43.3506188" lon="11.3620174"><ele>248.0</ele><time>2026-03-28T10:48:46.209Z</time></trkpt><trkpt lat="43.3505636" lon="11.3621483"><ele>248.0</ele><time>2026-03-28T10:48:47.21Z</time></trkpt><trkpt lat="43.350535" lon="11.3622934"><ele>248.0</ele><time>2026-03-28T10:48:48.21Z</time></trkpt><trkpt lat="43.3505075" lon="11.3624456"><ele>245.0</ele><time>2026-03-28T10:48:49.209Z</time></trkpt><trkpt lat="43.3504786" lon="11.3626173"><ele>242.0</ele><time>2026-03-28T10:48:50.21Z</time></trkpt><trkpt lat="43.3504587" lon="11.362787"><ele>239.0</ele><time>2026-03-28T10:48:51.21Z</time></trkpt><trkpt lat="43.3504453" lon="11.3629637"><ele>236.0</ele><time>2026-03-28T10:48:52.208Z</time></trkpt><trkpt lat="43.35043" lon="11.3631442"><ele>235.5</ele><time>2026-03-28T10:48:53.209Z</time></trkpt><trkpt lat="43.3504215" lon="11.3633125"><ele>235.0</ele><time>2026-03-28T10:48:54.21Z</time></trkpt><trkpt lat="43.3504118" lon="11.3634812"><ele>234.5</ele><time>2026-03-28T10:48:55.21Z</time></trkpt><trkpt lat="43.3503973" lon="11.3636561"><ele>234.0</ele><time>2026-03-28T10:48:56.21Z</time></trkpt><trkpt lat="43.350378" lon="11.3638238"><ele>234.0</ele><time>2026-03-28T10:48:57.21Z</time></trkpt><trkpt lat="43.3503529" lon="11.3639917"><ele>234.0</ele><time>2026-03-28T10:48:58.21Z</time></trkpt><trkpt lat="43.3503306" lon="11.3641497"><ele>234.0</ele><time>2026-03-28T10:48:59.21Z</time></trkpt><trkpt lat="43.3503108" lon="11.3643141"><ele>234.0</ele><time>2026-03-28T10:49:00.209Z</time></trkpt><trkpt lat="43.3502878" lon="11.3644757"><ele>234.0</ele><time>2026-03-28T10:49:01.21Z</time></trkpt><trkpt lat="43.3502643" lon="11.3646364"><ele>234.0</ele><time>2026-03-28T10:49:02.209Z</time></trkpt><trkpt lat="43.3502353" lon="11.3647976"><ele>234.0</ele><time>2026-03-28T10:49:03.209Z</time></trkpt><trkpt lat="43.3502003" lon="11.3649714"><ele>234.0</ele><time>2026-03-28T10:49:04.21Z</time></trkpt><trkpt lat="43.3501581" lon="11.3651473"><ele>233.75</ele><time>2026-03-28T10:49:05.209Z</time></trkpt><trkpt lat="43.3501098" lon="11.3653256"><ele>233.5</ele><time>2026-03-28T10:49:06.209Z</time></trkpt><trkpt lat="43.3500541" lon="11.3655029"><ele>233.25</ele><time>2026-03-28T10:49:07.209Z</time></trkpt><trkpt lat="43.3499902" lon="11.365679"><ele>233.0</ele><time>2026-03-28T10:49:08.209Z</time></trkpt><trkpt lat="43.3499279" lon="11.3658409"><ele>233.0</ele><time>2026-03-28T10:49:09.209Z</time></trkpt><trkpt lat="43.3498691" lon="11.3660079"><ele>233.0</ele><time>2026-03-28T10:49:10.209Z</time></trkpt><trkpt lat="43.3498102" lon="11.3661685"><ele>233.0</ele><time>2026-03-28T10:49:11.209Z</time></trkpt><trkpt lat="43.3497455" lon="11.3663275"><ele>233.0</ele><time>2026-03-28T10:49:12.209Z</time></trkpt><trkpt lat="43.3496776" lon="11.3664828"><ele>232.75</ele><time>2026-03-28T10:49:13.209Z</time></trkpt><trkpt lat="43.3496098" lon="11.3666389"><ele>232.5</ele><time>2026-03-28T10:49:14.209Z</time></trkpt><trkpt lat="43.3495511" lon="11.3667912"><ele>232.25</ele><time>2026-03-28T10:49:15.209Z</time></trkpt><trkpt lat="43.3495054" lon="11.366938"><ele>232.0</ele><time>2026-03-28T10:49:16.209Z</time></trkpt><trkpt lat="43.3494572" lon="11.3670665"><ele>231.99999999999997</ele><time>2026-03-28T10:49:17.21Z</time></trkpt><trkpt lat="43.3494215" lon="11.3671713"><ele>232.0</ele><time>2026-03-28T10:49:18.208Z</time></trkpt><trkpt lat="43.3493964" lon="11.3672553"><ele>232.0</ele><time>2026-03-28T10:49:19.209Z</time></trkpt><trkpt lat="43.3493588" lon="11.3673668"><ele>232.0</ele><time>2026-03-28T10:49:21.208Z</time></trkpt><trkpt lat="43.3492934" lon="11.3674415"><ele>231.99999999999997</ele><time>2026-03-28T10:49:23.209Z</time></trkpt><trkpt lat="43.3492307" lon="11.3674498"><ele>232.0</ele><time>2026-03-28T10:49:24.21Z</time></trkpt><trkpt lat="43.3491424" lon="11.3674355"><ele>232.49999999999997</ele><time>2026-03-28T10:49:25.209Z</time></trkpt><trkpt lat="43.3490465" lon="11.3674294"><ele>233.0</ele><time>2026-03-28T10:49:26.209Z</time></trkpt><trkpt lat="43.3489567" lon="11.3674285"><ele>233.5</ele><time>2026-03-28T10:49:27.209Z</time></trkpt><trkpt lat="43.3488793" lon="11.3674299"><ele>234.0</ele><time>2026-03-28T10:49:28.209Z</time></trkpt><trkpt lat="43.3488114" lon="11.367432"><ele>234.49999999999997</ele><time>2026-03-28T10:49:29.208Z</time></trkpt><trkpt lat="43.3486932" lon="11.3674262"><ele>235.0</ele><time>2026-03-28T10:49:31.209Z</time></trkpt><trkpt lat="43.3486243" lon="11.3674186"><ele>234.14285714285714</ele><time>2026-03-28T10:49:32.21Z</time></trkpt><trkpt lat="43.3485517" lon="11.3674125"><ele>233.28571428571428</ele><time>2026-03-28T10:49:33.21Z</time></trkpt><trkpt lat="43.3484858" lon="11.3674103"><ele>232.42857142857142</ele><time>2026-03-28T10:49:34.21Z</time></trkpt><trkpt lat="43.34842" lon="11.3674066"><ele>231.57142857142856</ele><time>2026-03-28T10:49:35.209Z</time></trkpt><trkpt lat="43.3483339" lon="11.3673963"><ele>230.71428571428572</ele><time>2026-03-28T10:49:37.209Z</time></trkpt><trkpt lat="43.3482659" lon="11.367376"><ele>229.85714285714283</ele><time>2026-03-28T10:49:41.209Z</time></trkpt><trkpt lat="43.3481991" lon="11.3673837"><ele>229.0</ele><time>2026-03-28T10:49:46.209Z</time></trkpt><trkpt lat="43.3481398" lon="11.3674314"><ele>228.99999999999997</ele><time>2026-03-28T10:50:14.21Z</time></trkpt><trkpt lat="43.3480631" lon="11.3674502"><ele>229.0</ele><time>2026-03-28T10:50:16.209Z</time></trkpt><trkpt lat="43.3479678" lon="11.3674506"><ele>229.0</ele><time>2026-03-28T10:50:18.21Z</time></trkpt><trkpt lat="43.3478993" lon="11.3674345"><ele>229.0</ele><time>2026-03-28T10:50:20.21Z</time></trkpt><trkpt lat="43.3478219" lon="11.3673796"><ele>228.99999999999997</ele><time>2026-03-28T10:50:22.21Z</time></trkpt><trkpt lat="43.3477222" lon="11.3673078"><ele>229.0</ele><time>2026-03-28T10:50:24.209Z</time></trkpt><trkpt lat="43.3476512" lon="11.3672588"><ele>228.6</ele><time>2026-03-28T10:50:25.21Z</time></trkpt><trkpt lat="43.3475696" lon="11.3672026"><ele>228.2</ele><time>2026-03-28T10:50:26.209Z</time></trkpt><trkpt lat="43.3474866" lon="11.3671347"><ele>227.79999999999998</ele><time>2026-03-28T10:50:27.209Z</time></trkpt><trkpt lat="43.3474073" lon="11.3670462"><ele>227.39999999999998</ele><time>2026-03-28T10:50:28.21Z</time></trkpt><trkpt lat="43.3473304" lon="11.3669337"><ele>227.0</ele><time>2026-03-28T10:50:29.209Z</time></trkpt><trkpt lat="43.3472556" lon="11.3668069"><ele>227.25</ele><time>2026-03-28T10:50:30.208Z</time></trkpt><trkpt lat="43.3471815" lon="11.3666626"><ele>227.5</ele><time>2026-03-28T10:50:31.209Z</time></trkpt><trkpt lat="43.3471229" lon="11.366491"><ele>227.75</ele><time>2026-03-28T10:50:32.209Z</time></trkpt><trkpt lat="43.3470996" lon="11.3662954"><ele>228.0</ele><time>2026-03-28T10:50:33.209Z</time></trkpt><trkpt lat="43.3471084" lon="11.366085"><ele>229.5</ele><time>2026-03-28T10:50:34.209Z</time></trkpt><trkpt lat="43.3471228" lon="11.3658766"><ele>231.0</ele><time>2026-03-28T10:50:35.21Z</time></trkpt><trkpt lat="43.3471257" lon="11.3656744"><ele>232.5</ele><time>2026-03-28T10:50:36.21Z</time></trkpt><trkpt lat="43.34713" lon="11.3654715"><ele>234.0</ele><time>2026-03-28T10:50:37.209Z</time></trkpt><trkpt lat="43.3471333" lon="11.3652691"><ele>235.0</ele><time>2026-03-28T10:50:38.209Z</time></trkpt><trkpt lat="43.3471384" lon="11.3650879"><ele>236.0</ele><time>2026-03-28T10:50:39.21Z</time></trkpt><trkpt lat="43.3471455" lon="11.3649093"><ele>237.0</ele><time>2026-03-28T10:50:40.209Z</time></trkpt><trkpt lat="43.3471543" lon="11.3647459"><ele>238.0</ele><time>2026-03-28T10:50:41.209Z</time></trkpt><trkpt lat="43.3471855" lon="11.3645863"><ele>237.5</ele><time>2026-03-28T10:50:42.209Z</time></trkpt><trkpt lat="43.3472526" lon="11.364435"><ele>237.0</ele><time>2026-03-28T10:50:43.209Z</time></trkpt><trkpt lat="43.3473373" lon="11.3642824"><ele>236.5</ele><time>2026-03-28T10:50:44.209Z</time></trkpt><trkpt lat="43.3474377" lon="11.3641415"><ele>236.0</ele><time>2026-03-28T10:50:45.209Z</time></trkpt><trkpt lat="43.3475457" lon="11.3639989"><ele>240.33333333333334</ele><time>2026-03-28T10:50:46.208Z</time></trkpt><trkpt lat="43.3476603" lon="11.3638514"><ele>244.66666666666669</ele><time>2026-03-28T10:50:47.209Z</time></trkpt><trkpt lat="43.3477711" lon="11.3636973"><ele>249.0</ele><time>2026-03-28T10:50:48.209Z</time></trkpt><trkpt lat="43.3478804" lon="11.3635457"><ele>249.0</ele><time>2026-03-28T10:50:49.209Z</time></trkpt><trkpt lat="43.3479877" lon="11.3634115"><ele>249.0</ele><time>2026-03-28T10:50:50.209Z</time></trkpt><trkpt lat="43.3480922" lon="11.3632813"><ele>249.0</ele><time>2026-03-28T10:50:51.209Z</time></trkpt><trkpt lat="43.3481637" lon="11.3631335"><ele>249.0</ele><time>2026-03-28T10:50:52.21Z</time></trkpt><trkpt lat="43.348198" lon="11.3629568"><ele>248.0</ele><time>2026-03-28T10:50:53.209Z</time></trkpt><trkpt lat="43.3482015" lon="11.3627543"><ele>247.0</ele><time>2026-03-28T10:50:54.21Z</time></trkpt><trkpt lat="43.3482072" lon="11.3625356"><ele>246.0</ele><time>2026-03-28T10:50:55.209Z</time></trkpt><trkpt lat="43.3482086" lon="11.3623053"><ele>246.0</ele><time>2026-03-28T10:50:56.21Z</time></trkpt><trkpt lat="43.3482119" lon="11.3620881"><ele>246.0</ele><time>2026-03-28T10:50:57.209Z</time></trkpt><trkpt lat="43.3482158" lon="11.3618617"><ele>246.0</ele><time>2026-03-28T10:50:58.21Z</time></trkpt><trkpt lat="43.3482307" lon="11.3616397"><ele>246.0</ele><time>2026-03-28T10:50:59.209Z</time></trkpt><trkpt lat="43.3482623" lon="11.3614191"><ele>246.0</ele><time>2026-03-28T10:51:00.209Z</time></trkpt><trkpt lat="43.3482728" lon="11.3612008"><ele>246.0</ele><time>2026-03-28T10:51:01.209Z</time></trkpt><trkpt lat="43.3482488" lon="11.360989"><ele>245.75</ele><time>2026-03-28T10:51:02.21Z</time></trkpt><trkpt lat="43.348189" lon="11.3608075"><ele>245.5</ele><time>2026-03-28T10:51:03.209Z</time></trkpt><trkpt lat="43.3480875" lon="11.3606571"><ele>245.25</ele><time>2026-03-28T10:51:04.21Z</time></trkpt><trkpt lat="43.3479609" lon="11.3605515"><ele>245.0</ele><time>2026-03-28T10:51:05.209Z</time></trkpt><trkpt lat="43.347821" lon="11.3605057"><ele>249.0</ele><time>2026-03-28T10:51:06.209Z</time></trkpt><trkpt lat="43.3476813" lon="11.3605016"><ele>253.0</ele><time>2026-03-28T10:51:07.209Z</time></trkpt><trkpt lat="43.3475271" lon="11.360546"><ele>257.0</ele><time>2026-03-28T10:51:08.21Z</time></trkpt><trkpt lat="43.3473659" lon="11.3606183"><ele>260.0</ele><time>2026-03-28T10:51:09.209Z</time></trkpt><trkpt lat="43.3471897" lon="11.3606922"><ele>263.0</ele><time>2026-03-28T10:51:10.209Z</time></trkpt><trkpt lat="43.3470133" lon="11.3607695"><ele>266.0</ele><time>2026-03-28T10:51:11.21Z</time></trkpt><trkpt lat="43.3468544" lon="11.360829"><ele>266.0</ele><time>2026-03-28T10:51:12.21Z</time></trkpt><trkpt lat="43.3467223" lon="11.3608759"><ele>266.0</ele><time>2026-03-28T10:51:13.21Z</time></trkpt><trkpt lat="43.3466112" lon="11.360914"><ele>266.0</ele><time>2026-03-28T10:51:14.209Z</time></trkpt><trkpt lat="43.3465205" lon="11.3609427"><ele>266.0</ele><time>2026-03-28T10:51:15.209Z</time></trkpt><trkpt lat="43.3464326" lon="11.3609363"><ele>266.0</ele><time>2026-03-28T10:51:16.21Z</time></trkpt><trkpt lat="43.3463493" lon="11.3608888"><ele>266.1666666666667</ele><time>2026-03-28T10:51:17.209Z</time></trkpt><trkpt lat="43.3462791" lon="11.3608113"><ele>266.33333333333337</ele><time>2026-03-28T10:51:18.21Z</time></trkpt><trkpt lat="43.3462356" lon="11.3607085"><ele>266.5</ele><time>2026-03-28T10:51:19.209Z</time></trkpt><trkpt lat="43.3462108" lon="11.3605867"><ele>266.6666666666667</ele><time>2026-03-28T10:51:20.21Z</time></trkpt><trkpt lat="43.3461997" lon="11.3604788"><ele>266.8333333333333</ele><time>2026-03-28T10:51:21.209Z</time></trkpt><trkpt lat="43.3461791" lon="11.3603767"><ele>267.0</ele><time>2026-03-28T10:51:22.209Z</time></trkpt><trkpt lat="43.3461495" lon="11.3603002"><ele>267.0</ele><time>2026-03-28T10:51:23.21Z</time></trkpt><trkpt lat="43.3460712" lon="11.3601919"><ele>267.0</ele><time>2026-03-28T10:51:25.209Z</time></trkpt><trkpt lat="43.3459587" lon="11.3601122"><ele>267.0</ele><time>2026-03-28T10:51:27.209Z</time></trkpt><trkpt lat="43.3458527" lon="11.3600509"><ele>267.0</ele><time>2026-03-28T10:51:29.21Z</time></trkpt><trkpt lat="43.3457619" lon="11.360039"><ele>267.0</ele><time>2026-03-28T10:51:31.21Z</time></trkpt><trkpt lat="43.3457318" lon="11.3601468"><ele>267.0</ele><time>2026-03-28T10:51:33.209Z</time></trkpt><trkpt lat="43.3457348" lon="11.3602358"><ele>267.0</ele><time>2026-03-28T10:51:34.209Z</time></trkpt><trkpt lat="43.3457288" lon="11.3603421"><ele>267.0</ele><time>2026-03-28T10:51:35.21Z</time></trkpt><trkpt lat="43.3456938" lon="11.3604422"><ele>267.0</ele><time>2026-03-28T10:51:36.209Z</time></trkpt><trkpt lat="43.3456319" lon="11.3605409"><ele>267.0</ele><time>2026-03-28T10:51:37.209Z</time></trkpt><trkpt lat="43.3455576" lon="11.3606455"><ele>267.0</ele><time>2026-03-28T10:51:38.209Z</time></trkpt><trkpt lat="43.3454902" lon="11.360758"><ele>268.4</ele><time>2026-03-28T10:51:39.209Z</time></trkpt><trkpt lat="43.3454284" lon="11.3608728"><ele>269.79999999999995</ele><time>2026-03-28T10:51:40.209Z</time></trkpt><trkpt lat="43.3453776" lon="11.3609858"><ele>271.2</ele><time>2026-03-28T10:51:41.209Z</time></trkpt><trkpt lat="43.3453363" lon="11.3610996"><ele>272.59999999999997</ele><time>2026-03-28T10:51:42.21Z</time></trkpt><trkpt lat="43.3453173" lon="11.3612263"><ele>274.0</ele><time>2026-03-28T10:51:43.209Z</time></trkpt><trkpt lat="43.3453277" lon="11.3613637"><ele>274.0</ele><time>2026-03-28T10:51:44.209Z</time></trkpt><trkpt lat="43.3453557" lon="11.3614873"><ele>274.0</ele><time>2026-03-28T10:51:45.209Z</time></trkpt><trkpt lat="43.3453998" lon="11.3616025"><ele>274.0</ele><time>2026-03-28T10:51:46.21Z</time></trkpt><trkpt lat="43.345449" lon="11.361712"><ele>274.0</ele><time>2026-03-28T10:51:47.209Z</time></trkpt><trkpt lat="43.3454945" lon="11.3618067"><ele>274.0</ele><time>2026-03-28T10:51:48.21Z</time></trkpt><trkpt lat="43.3455286" lon="11.361884"><ele>274.0</ele><time>2026-03-28T10:51:49.209Z</time></trkpt><trkpt lat="43.3455563" lon="11.3619943"><ele>273.8333333333333</ele><time>2026-03-28T10:51:51.209Z</time></trkpt><trkpt lat="43.3455787" lon="11.3621149"><ele>273.66666666666663</ele><time>2026-03-28T10:51:54.209Z</time></trkpt><trkpt lat="43.3455834" lon="11.362218"><ele>273.5</ele><time>2026-03-28T10:51:57.209Z</time></trkpt><trkpt lat="43.3455177" lon="11.3622559"><ele>273.3333333333333</ele><time>2026-03-28T10:52:03.209Z</time></trkpt><trkpt lat="43.3454427" lon="11.3623483"><ele>273.1666666666667</ele><time>2026-03-28T10:52:05.21Z</time></trkpt><trkpt lat="43.3454001" lon="11.3624258"><ele>273.0</ele><time>2026-03-28T10:52:06.209Z</time></trkpt><trkpt lat="43.3453621" lon="11.3624988"><ele>273.0</ele><time>2026-03-28T10:52:07.21Z</time></trkpt><trkpt lat="43.3452938" lon="11.3626387"><ele>273.0</ele><time>2026-03-28T10:52:09.209Z</time></trkpt><trkpt lat="43.3452566" lon="11.3627099"><ele>273.0</ele><time>2026-03-28T10:52:10.209Z</time></trkpt><trkpt lat="43.3452159" lon="11.3627921"><ele>273.0</ele><time>2026-03-28T10:52:11.209Z</time></trkpt><trkpt lat="43.3451702" lon="11.3628765"><ele>273.0</ele><time>2026-03-28T10:52:12.209Z</time></trkpt><trkpt lat="43.3451261" lon="11.3629711"><ele>273.0</ele><time>2026-03-28T10:52:13.209Z</time></trkpt><trkpt lat="43.3450815" lon="11.3630685"><ele>273.4</ele><time>2026-03-28T10:52:14.209Z</time></trkpt><trkpt lat="43.345035" lon="11.3631635"><ele>273.8</ele><time>2026-03-28T10:52:15.21Z</time></trkpt><trkpt lat="43.3449852" lon="11.3632678"><ele>274.2</ele><time>2026-03-28T10:52:16.209Z</time></trkpt><trkpt lat="43.3449352" lon="11.3633809"><ele>274.6</ele><time>2026-03-28T10:52:17.209Z</time></trkpt><trkpt lat="43.344877" lon="11.3634886"><ele>275.0</ele><time>2026-03-28T10:52:18.209Z</time></trkpt><trkpt lat="43.3448205" lon="11.3635821"><ele>275.0</ele><time>2026-03-28T10:52:19.209Z</time></trkpt><trkpt lat="43.3447679" lon="11.3636703"><ele>275.0</ele><time>2026-03-28T10:52:20.209Z</time></trkpt><trkpt lat="43.3447133" lon="11.3637744"><ele>275.0</ele><time>2026-03-28T10:52:21.209Z</time></trkpt><trkpt lat="43.3446629" lon="11.3639026"><ele>275.0</ele><time>2026-03-28T10:52:22.208Z</time></trkpt><trkpt lat="43.3446129" lon="11.3640333"><ele>275.0</ele><time>2026-03-28T10:52:23.209Z</time></trkpt><trkpt lat="43.3445648" lon="11.3641562"><ele>274.6</ele><time>2026-03-28T10:52:24.21Z</time></trkpt><trkpt lat="43.3445242" lon="11.364279"><ele>274.2</ele><time>2026-03-28T10:52:25.21Z</time></trkpt><trkpt lat="43.3444798" lon="11.3643929"><ele>273.8</ele><time>2026-03-28T10:52:26.209Z</time></trkpt><trkpt lat="43.3444339" lon="11.3645056"><ele>273.4</ele><time>2026-03-28T10:52:27.209Z</time></trkpt><trkpt lat="43.3443829" lon="11.3646153"><ele>273.0</ele><time>2026-03-28T10:52:28.209Z</time></trkpt><trkpt lat="43.3443209" lon="11.3647276"><ele>274.2</ele><time>2026-03-28T10:52:29.209Z</time></trkpt><trkpt lat="43.3442626" lon="11.3648456"><ele>275.4</ele><time>2026-03-28T10:52:30.209Z</time></trkpt><trkpt lat="43.3442036" lon="11.3649715"><ele>276.59999999999997</ele><time>2026-03-28T10:52:31.21Z</time></trkpt><trkpt lat="43.3441388" lon="11.365103"><ele>277.8</ele><time>2026-03-28T10:52:32.209Z</time></trkpt><trkpt lat="43.3440758" lon="11.3652251"><ele>279.0</ele><time>2026-03-28T10:52:33.209Z</time></trkpt><trkpt lat="43.3440109" lon="11.3653464"><ele>279.0</ele><time>2026-03-28T10:52:34.209Z</time></trkpt><trkpt lat="43.3439422" lon="11.3654727"><ele>279.0</ele><time>2026-03-28T10:52:35.209Z</time></trkpt><trkpt lat="43.3438782" lon="11.3656178"><ele>279.0</ele><time>2026-03-28T10:52:36.209Z</time></trkpt><trkpt lat="43.3438081" lon="11.3657598"><ele>279.0</ele><time>2026-03-28T10:52:37.21Z</time></trkpt><trkpt lat="43.3437443" lon="11.3659065"><ele>278.0</ele><time>2026-03-28T10:52:38.21Z</time></trkpt><trkpt lat="43.3436781" lon="11.3660444"><ele>277.0</ele><time>2026-03-28T10:52:39.21Z</time></trkpt><trkpt lat="43.3436084" lon="11.3661827"><ele>276.0</ele><time>2026-03-28T10:52:40.209Z</time></trkpt><trkpt lat="43.3435414" lon="11.3663211"><ele>275.0</ele><time>2026-03-28T10:52:41.209Z</time></trkpt><trkpt lat="43.3434771" lon="11.3664552"><ele>277.75</ele><time>2026-03-28T10:52:42.21Z</time></trkpt><trkpt lat="43.343413" lon="11.3665817"><ele>280.5</ele><time>2026-03-28T10:52:43.21Z</time></trkpt><trkpt lat="43.3433514" lon="11.3667089"><ele>283.25</ele><time>2026-03-28T10:52:44.209Z</time></trkpt><trkpt lat="43.3432819" lon="11.3668385"><ele>286.0</ele><time>2026-03-28T10:52:45.209Z</time></trkpt><trkpt lat="43.3432066" lon="11.3669636"><ele>286.0</ele><time>2026-03-28T10:52:46.21Z</time></trkpt><trkpt lat="43.3431196" lon="11.3670853"><ele>286.0</ele><time>2026-03-28T10:52:47.209Z</time></trkpt><trkpt lat="43.3430306" lon="11.3672093"><ele>286.0</ele><time>2026-03-28T10:52:48.209Z</time></trkpt><trkpt lat="43.3429451" lon="11.3673258"><ele>286.0</ele><time>2026-03-28T10:52:49.209Z</time></trkpt><trkpt lat="43.3428632" lon="11.367452"><ele>285.5</ele><time>2026-03-28T10:52:50.209Z</time></trkpt><trkpt lat="43.3427966" lon="11.3675998"><ele>285.0</ele><time>2026-03-28T10:52:51.209Z</time></trkpt><trkpt lat="43.3427405" lon="11.3677498"><ele>284.5</ele><time>2026-03-28T10:52:52.209Z</time></trkpt><trkpt lat="43.3426789" lon="11.367914"><ele>284.0</ele><time>2026-03-28T10:52:53.21Z</time></trkpt><trkpt lat="43.3426326" lon="11.3680565"><ele>284.0</ele><time>2026-03-28T10:52:54.209Z</time></trkpt><trkpt lat="43.3425759" lon="11.3681998"><ele>284.0</ele><time>2026-03-28T10:52:55.209Z</time></trkpt><trkpt lat="43.3425051" lon="11.3683468"><ele>284.0</ele><time>2026-03-28T10:52:56.209Z</time></trkpt><trkpt lat="43.3424206" lon="11.3684857"><ele>284.0</ele><time>2026-03-28T10:52:57.21Z</time></trkpt><trkpt lat="43.3423135" lon="11.3686052"><ele>283.5</ele><time>2026-03-28T10:52:58.209Z</time></trkpt><trkpt lat="43.3421952" lon="11.3687046"><ele>283.0</ele><time>2026-03-28T10:52:59.21Z</time></trkpt><trkpt lat="43.34207" lon="11.3687965"><ele>282.5</ele><time>2026-03-28T10:53:00.209Z</time></trkpt><trkpt lat="43.3419529" lon="11.3688785"><ele>282.0</ele><time>2026-03-28T10:53:01.21Z</time></trkpt><trkpt lat="43.341836" lon="11.3689629"><ele>283.25</ele><time>2026-03-28T10:53:02.21Z</time></trkpt><trkpt lat="43.3417167" lon="11.3690523"><ele>284.5</ele><time>2026-03-28T10:53:03.21Z</time></trkpt><trkpt lat="43.3415981" lon="11.3691406"><ele>285.75</ele><time>2026-03-28T10:53:04.21Z</time></trkpt><trkpt lat="43.3414763" lon="11.3692387"><ele>287.0</ele><time>2026-03-28T10:53:05.21Z</time></trkpt><trkpt lat="43.341355" lon="11.3693413"><ele>288.5</ele><time>2026-03-28T10:53:06.209Z</time></trkpt><trkpt lat="43.3412341" lon="11.3694433"><ele>290.0</ele><time>2026-03-28T10:53:07.209Z</time></trkpt><trkpt lat="43.3411154" lon="11.3695366"><ele>291.5</ele><time>2026-03-28T10:53:08.209Z</time></trkpt><trkpt lat="43.3410068" lon="11.3696138"><ele>293.0</ele><time>2026-03-28T10:53:09.209Z</time></trkpt><trkpt lat="43.34091" lon="11.369695"><ele>293.0</ele><time>2026-03-28T10:53:10.209Z</time></trkpt><trkpt lat="43.340811" lon="11.3697792"><ele>293.0</ele><time>2026-03-28T10:53:11.21Z</time></trkpt><trkpt lat="43.3407067" lon="11.3698606"><ele>293.0</ele><time>2026-03-28T10:53:12.21Z</time></trkpt><trkpt lat="43.3406077" lon="11.3699343"><ele>293.0</ele><time>2026-03-28T10:53:13.21Z</time></trkpt><trkpt lat="43.3405091" lon="11.3700198"><ele>292.5</ele><time>2026-03-28T10:53:14.209Z</time></trkpt><trkpt lat="43.3404087" lon="11.3701174"><ele>292.0</ele><time>2026-03-28T10:53:15.21Z</time></trkpt><trkpt lat="43.3403038" lon="11.3702312"><ele>291.5</ele><time>2026-03-28T10:53:16.209Z</time></trkpt><trkpt lat="43.3402109" lon="11.3703574"><ele>291.0</ele><time>2026-03-28T10:53:17.209Z</time></trkpt><trkpt lat="43.34011" lon="11.3704934"><ele>290.5</ele><time>2026-03-28T10:53:18.209Z</time></trkpt><trkpt lat="43.3399975" lon="11.3706186"><ele>290.0</ele><time>2026-03-28T10:53:19.209Z</time></trkpt><trkpt lat="43.3398892" lon="11.3707313"><ele>289.5</ele><time>2026-03-28T10:53:20.21Z</time></trkpt><trkpt lat="43.3397727" lon="11.3708287"><ele>289.0</ele><time>2026-03-28T10:53:21.209Z</time></trkpt><trkpt lat="43.3396501" lon="11.3709188"><ele>289.0</ele><time>2026-03-28T10:53:22.209Z</time></trkpt><trkpt lat="43.3395266" lon="11.3710107"><ele>289.0</ele><time>2026-03-28T10:53:23.209Z</time></trkpt><trkpt lat="43.3394016" lon="11.3710988"><ele>289.0</ele><time>2026-03-28T10:53:24.209Z</time></trkpt><trkpt lat="43.3392737" lon="11.3711926"><ele>289.0</ele><time>2026-03-28T10:53:25.209Z</time></trkpt><trkpt lat="43.3391418" lon="11.3712924"><ele>290.0</ele><time>2026-03-28T10:53:26.21Z</time></trkpt><trkpt lat="43.3390177" lon="11.3713903"><ele>291.0</ele><time>2026-03-28T10:53:27.209Z</time></trkpt><trkpt lat="43.3388977" lon="11.3714737"><ele>292.0</ele><time>2026-03-28T10:53:28.209Z</time></trkpt><trkpt lat="43.3387796" lon="11.3715566"><ele>293.0</ele><time>2026-03-28T10:53:29.21Z</time></trkpt><trkpt lat="43.3386637" lon="11.3716366"><ele>294.0</ele><time>2026-03-28T10:53:30.209Z</time></trkpt><trkpt lat="43.338551" lon="11.3717149"><ele>295.0</ele><time>2026-03-28T10:53:31.21Z</time></trkpt><trkpt lat="43.3384464" lon="11.371792"><ele>296.0</ele><time>2026-03-28T10:53:32.209Z</time></trkpt><trkpt lat="43.3383527" lon="11.3718551"><ele>297.0</ele><time>2026-03-28T10:53:33.209Z</time></trkpt><trkpt lat="43.338276" lon="11.3719118"><ele>298.0</ele><time>2026-03-28T10:53:34.209Z</time></trkpt><trkpt lat="43.3382162" lon="11.3719468"><ele>298.0</ele><time>2026-03-28T10:53:35.209Z</time></trkpt><trkpt lat="43.3381175" lon="11.3719284"><ele>298.0</ele><time>2026-03-28T10:53:37.21Z</time></trkpt><trkpt lat="43.3380512" lon="11.3717955"><ele>298.0</ele><time>2026-03-28T10:53:39.21Z</time></trkpt><trkpt lat="43.3380211" lon="11.3717175"><ele>298.0</ele><time>2026-03-28T10:53:40.209Z</time></trkpt><trkpt lat="43.3379321" lon="11.3716084"><ele>298.0</ele><time>2026-03-28T10:53:42.209Z</time></trkpt><trkpt lat="43.3378695" lon="11.3715973"><ele>297.3333333333333</ele><time>2026-03-28T10:53:43.209Z</time></trkpt><trkpt lat="43.3377969" lon="11.3716175"><ele>296.66666666666663</ele><time>2026-03-28T10:53:44.209Z</time></trkpt><trkpt lat="43.3377256" lon="11.3716634"><ele>296.0</ele><time>2026-03-28T10:53:45.209Z</time></trkpt><trkpt lat="43.3376488" lon="11.3717197"><ele>295.3333333333333</ele><time>2026-03-28T10:53:46.209Z</time></trkpt><trkpt lat="43.3375774" lon="11.3717655"><ele>294.6666666666667</ele><time>2026-03-28T10:53:47.21Z</time></trkpt><trkpt lat="43.3374976" lon="11.3718088"><ele>294.0</ele><time>2026-03-28T10:53:48.209Z</time></trkpt><trkpt lat="43.3374187" lon="11.3718503"><ele>294.0</ele><time>2026-03-28T10:53:49.209Z</time></trkpt><trkpt lat="43.3373376" lon="11.3719114"><ele>294.0</ele><time>2026-03-28T10:53:50.209Z</time></trkpt><trkpt lat="43.3372635" lon="11.3719944"><ele>294.0</ele><time>2026-03-28T10:53:51.209Z</time></trkpt><trkpt lat="43.3372147" lon="11.3720932"><ele>294.0</ele><time>2026-03-28T10:53:52.21Z</time></trkpt><trkpt lat="43.3371765" lon="11.372197"><ele>294.0</ele><time>2026-03-28T10:53:53.209Z</time></trkpt><trkpt lat="43.3371322" lon="11.3723102"><ele>292.8</ele><time>2026-03-28T10:53:54.209Z</time></trkpt><trkpt lat="43.3370757" lon="11.3724047"><ele>291.59999999999997</ele><time>2026-03-28T10:53:55.209Z</time></trkpt><trkpt lat="43.3370007" lon="11.3724822"><ele>290.4</ele><time>2026-03-28T10:53:56.21Z</time></trkpt><trkpt lat="43.3369132" lon="11.3725323"><ele>289.2</ele><time>2026-03-28T10:53:57.209Z</time></trkpt><trkpt lat="43.336819" lon="11.3725831"><ele>288.0</ele><time>2026-03-28T10:53:58.209Z</time></trkpt><trkpt lat="43.3367192" lon="11.3726334"><ele>288.0</ele><time>2026-03-28T10:53:59.209Z</time></trkpt><trkpt lat="43.3366135" lon="11.3726805"><ele>288.0</ele><time>2026-03-28T10:54:00.21Z</time></trkpt><trkpt lat="43.336503" lon="11.3727327"><ele>288.0</ele><time>2026-03-28T10:54:01.209Z</time></trkpt><trkpt lat="43.3363813" lon="11.3727902"><ele>288.0</ele><time>2026-03-28T10:54:02.209Z</time></trkpt><trkpt lat="43.3362537" lon="11.3728502"><ele>286.75</ele><time>2026-03-28T10:54:03.209Z</time></trkpt><trkpt lat="43.3361367" lon="11.372904"><ele>285.5</ele><time>2026-03-28T10:54:04.209Z</time></trkpt><trkpt lat="43.3360249" lon="11.3729566"><ele>284.25</ele><time>2026-03-28T10:54:05.209Z</time></trkpt><trkpt lat="43.3359158" lon="11.3730135"><ele>283.0</ele><time>2026-03-28T10:54:06.21Z</time></trkpt><trkpt lat="43.3358036" lon="11.3730621"><ele>283.0</ele><time>2026-03-28T10:54:07.21Z</time></trkpt><trkpt lat="43.3356892" lon="11.3731093"><ele>283.0</ele><time>2026-03-28T10:54:08.209Z</time></trkpt><trkpt lat="43.3355733" lon="11.3731539"><ele>283.0</ele><time>2026-03-28T10:54:09.209Z</time></trkpt><trkpt lat="43.3354512" lon="11.3731877"><ele>283.0</ele><time>2026-03-28T10:54:10.209Z</time></trkpt><trkpt lat="43.3353233" lon="11.3732096"><ele>282.25</ele><time>2026-03-28T10:54:11.209Z</time></trkpt><trkpt lat="43.3351931" lon="11.3732297"><ele>281.5</ele><time>2026-03-28T10:54:12.21Z</time></trkpt><trkpt lat="43.3350691" lon="11.3732453"><ele>280.75</ele><time>2026-03-28T10:54:13.209Z</time></trkpt><trkpt lat="43.3349413" lon="11.3732624"><ele>280.0</ele><time>2026-03-28T10:54:14.21Z</time></trkpt><trkpt lat="43.3348152" lon="11.3732844"><ele>278.25</ele><time>2026-03-28T10:54:15.209Z</time></trkpt><trkpt lat="43.3346891" lon="11.3733075"><ele>276.5</ele><time>2026-03-28T10:54:16.209Z</time></trkpt><trkpt lat="43.3345592" lon="11.3733187"><ele>274.75</ele><time>2026-03-28T10:54:17.21Z</time></trkpt><trkpt lat="43.3344283" lon="11.373329"><ele>273.0</ele><time>2026-03-28T10:54:18.209Z</time></trkpt><trkpt lat="43.3343056" lon="11.3733434"><ele>273.0</ele><time>2026-03-28T10:54:19.209Z</time></trkpt><trkpt lat="43.3341925" lon="11.3733624"><ele>273.0</ele><time>2026-03-28T10:54:20.21Z</time></trkpt><trkpt lat="43.3340823" lon="11.3733803"><ele>273.0</ele><time>2026-03-28T10:54:21.209Z</time></trkpt><trkpt lat="43.3339748" lon="11.3734001"><ele>273.0</ele><time>2026-03-28T10:54:22.209Z</time></trkpt><trkpt lat="43.333863" lon="11.3734109"><ele>273.0</ele><time>2026-03-28T10:54:23.21Z</time></trkpt><trkpt lat="43.3337468" lon="11.3734194"><ele>273.25</ele><time>2026-03-28T10:54:24.209Z</time></trkpt><trkpt lat="43.3336268" lon="11.3734393"><ele>273.5</ele><time>2026-03-28T10:54:25.21Z</time></trkpt><trkpt lat="43.3335049" lon="11.3734613"><ele>273.75</ele><time>2026-03-28T10:54:26.208Z</time></trkpt><trkpt lat="43.3333831" lon="11.3734898"><ele>274.0</ele><time>2026-03-28T10:54:27.209Z</time></trkpt><trkpt lat="43.3332664" lon="11.3735249"><ele>274.0</ele><time>2026-03-28T10:54:28.209Z</time></trkpt><trkpt lat="43.3331483" lon="11.3735608"><ele>274.0</ele><time>2026-03-28T10:54:29.209Z</time></trkpt><trkpt lat="43.3330352" lon="11.373609"><ele>274.0</ele><time>2026-03-28T10:54:30.209Z</time></trkpt><trkpt lat="43.3329214" lon="11.3736696"><ele>274.0</ele><time>2026-03-28T10:54:31.209Z</time></trkpt><trkpt lat="43.3328053" lon="11.3737234"><ele>274.25</ele><time>2026-03-28T10:54:32.209Z</time></trkpt><trkpt lat="43.3326859" lon="11.3737749"><ele>274.5</ele><time>2026-03-28T10:54:33.209Z</time></trkpt><trkpt lat="43.3325651" lon="11.3738301"><ele>274.75</ele><time>2026-03-28T10:54:34.21Z</time></trkpt><trkpt lat="43.3324499" lon="11.3738888"><ele>275.0</ele><time>2026-03-28T10:54:35.21Z</time></trkpt><trkpt lat="43.3323527" lon="11.3739627"><ele>275.0</ele><time>2026-03-28T10:54:36.209Z</time></trkpt><trkpt lat="43.3322677" lon="11.3740627"><ele>275.0</ele><time>2026-03-28T10:54:37.209Z</time></trkpt><trkpt lat="43.3321974" lon="11.374174"><ele>275.0</ele><time>2026-03-28T10:54:38.21Z</time></trkpt><trkpt lat="43.332127" lon="11.3742961"><ele>275.0</ele><time>2026-03-28T10:54:39.209Z</time></trkpt><trkpt lat="43.332053" lon="11.3744153"><ele>275.0</ele><time>2026-03-28T10:54:40.209Z</time></trkpt><trkpt lat="43.3319767" lon="11.3745362"><ele>275.8</ele><time>2026-03-28T10:54:41.21Z</time></trkpt><trkpt lat="43.3319029" lon="11.3746585"><ele>276.6</ele><time>2026-03-28T10:54:42.209Z</time></trkpt><trkpt lat="43.3318378" lon="11.3747638"><ele>277.4</ele><time>2026-03-28T10:54:43.21Z</time></trkpt><trkpt lat="43.3317677" lon="11.3748636"><ele>278.2</ele><time>2026-03-28T10:54:44.209Z</time></trkpt><trkpt lat="43.3317018" lon="11.3749696"><ele>279.0</ele><time>2026-03-28T10:54:45.209Z</time></trkpt><trkpt lat="43.3316481" lon="11.3750766"><ele>279.0</ele><time>2026-03-28T10:54:46.209Z</time></trkpt><trkpt lat="43.3316127" lon="11.3751813"><ele>279.0</ele><time>2026-03-28T10:54:47.208Z</time></trkpt><trkpt lat="43.331581" lon="11.3752934"><ele>279.0</ele><time>2026-03-28T10:54:48.209Z</time></trkpt><trkpt lat="43.3315437" lon="11.3753948"><ele>279.0</ele><time>2026-03-28T10:54:49.21Z</time></trkpt><trkpt lat="43.3314907" lon="11.375478"><ele>279.0</ele><time>2026-03-28T10:54:50.209Z</time></trkpt><trkpt lat="43.3314146" lon="11.375542"><ele>279.0</ele><time>2026-03-28T10:54:51.209Z</time></trkpt><trkpt lat="43.3313238" lon="11.3755923"><ele>278.8</ele><time>2026-03-28T10:54:52.209Z</time></trkpt><trkpt lat="43.3312245" lon="11.3756339"><ele>278.59999999999997</ele><time>2026-03-28T10:54:53.21Z</time></trkpt><trkpt lat="43.3311362" lon="11.3756756"><ele>278.4</ele><time>2026-03-28T10:54:54.209Z</time></trkpt><trkpt lat="43.3310532" lon="11.3757061"><ele>278.2</ele><time>2026-03-28T10:54:55.21Z</time></trkpt><trkpt lat="43.3309608" lon="11.3757409"><ele>278.0</ele><time>2026-03-28T10:54:56.209Z</time></trkpt><trkpt lat="43.3308777" lon="11.3757777"><ele>278.0</ele><time>2026-03-28T10:54:57.209Z</time></trkpt><trkpt lat="43.3308044" lon="11.3758079"><ele>278.0</ele><time>2026-03-28T10:54:58.21Z</time></trkpt><trkpt lat="43.3307296" lon="11.3758421"><ele>278.0</ele><time>2026-03-28T10:54:59.209Z</time></trkpt><trkpt lat="43.3306503" lon="11.375877"><ele>278.0</ele><time>2026-03-28T10:55:00.21Z</time></trkpt><trkpt lat="43.3305763" lon="11.3758996"><ele>278.0</ele><time>2026-03-28T10:55:01.209Z</time></trkpt><trkpt lat="43.3304953" lon="11.3759223"><ele>278.0</ele><time>2026-03-28T10:55:02.21Z</time></trkpt><trkpt lat="43.330406" lon="11.3759328"><ele>278.0</ele><time>2026-03-28T10:55:03.209Z</time></trkpt><trkpt lat="43.33031" lon="11.3759261"><ele>278.0</ele><time>2026-03-28T10:55:04.209Z</time></trkpt><trkpt lat="43.330209" lon="11.3759186"><ele>278.0</ele><time>2026-03-28T10:55:05.209Z</time></trkpt><trkpt lat="43.3301064" lon="11.3759091"><ele>278.0</ele><time>2026-03-28T10:55:06.209Z</time></trkpt><trkpt lat="43.330012" lon="11.3758923"><ele>278.0</ele><time>2026-03-28T10:55:07.209Z</time></trkpt><trkpt lat="43.329919" lon="11.375871"><ele>278.0</ele><time>2026-03-28T10:55:08.209Z</time></trkpt><trkpt lat="43.3298165" lon="11.3758446"><ele>278.0</ele><time>2026-03-28T10:55:09.209Z</time></trkpt><trkpt lat="43.3297106" lon="11.3758028"><ele>278.0</ele><time>2026-03-28T10:55:10.209Z</time></trkpt><trkpt lat="43.3296032" lon="11.3757496"><ele>278.0</ele><time>2026-03-28T10:55:11.209Z</time></trkpt><trkpt lat="43.3295014" lon="11.375713"><ele>278.0</ele><time>2026-03-28T10:55:12.209Z</time></trkpt><trkpt lat="43.3293904" lon="11.3756948"><ele>277.6</ele><time>2026-03-28T10:55:13.21Z</time></trkpt><trkpt lat="43.3292836" lon="11.37569"><ele>277.20000000000005</ele><time>2026-03-28T10:55:14.21Z</time></trkpt><trkpt lat="43.3291854" lon="11.3756963"><ele>276.8</ele><time>2026-03-28T10:55:15.21Z</time></trkpt><trkpt lat="43.3290864" lon="11.3757146"><ele>276.40000000000003</ele><time>2026-03-28T10:55:16.209Z</time></trkpt><trkpt lat="43.3289894" lon="11.3757438"><ele>276.0</ele><time>2026-03-28T10:55:17.209Z</time></trkpt><trkpt lat="43.3289024" lon="11.3757798"><ele>274.5</ele><time>2026-03-28T10:55:18.209Z</time></trkpt><trkpt lat="43.3288237" lon="11.3758116"><ele>273.0</ele><time>2026-03-28T10:55:19.21Z</time></trkpt><trkpt lat="43.3287428" lon="11.37583"><ele>271.5</ele><time>2026-03-28T10:55:20.209Z</time></trkpt><trkpt lat="43.3286567" lon="11.3758095"><ele>270.0</ele><time>2026-03-28T10:55:21.209Z</time></trkpt><trkpt lat="43.3285849" lon="11.3757535"><ele>268.5</ele><time>2026-03-28T10:55:22.21Z</time></trkpt><trkpt lat="43.3285206" lon="11.3756669"><ele>267.0</ele><time>2026-03-28T10:55:23.209Z</time></trkpt><trkpt lat="43.3284717" lon="11.3755721"><ele>266.0</ele><time>2026-03-28T10:55:24.209Z</time></trkpt><trkpt lat="43.3284182" lon="11.3754795"><ele>265.0</ele><time>2026-03-28T10:55:25.209Z</time></trkpt><trkpt lat="43.3283524" lon="11.3753737"><ele>264.0</ele><time>2026-03-28T10:55:26.209Z</time></trkpt><trkpt lat="43.328286" lon="11.3752583"><ele>263.0</ele><time>2026-03-28T10:55:27.209Z</time></trkpt><trkpt lat="43.3282179" lon="11.3751446"><ele>262.0</ele><time>2026-03-28T10:55:28.21Z</time></trkpt><trkpt lat="43.3281448" lon="11.3750451"><ele>261.4</ele><time>2026-03-28T10:55:29.209Z</time></trkpt><trkpt lat="43.328055" lon="11.3749701"><ele>260.79999999999995</ele><time>2026-03-28T10:55:30.21Z</time></trkpt><trkpt lat="43.3279638" lon="11.3749269"><ele>260.2</ele><time>2026-03-28T10:55:31.209Z</time></trkpt><trkpt lat="43.3278659" lon="11.3749116"><ele>259.59999999999997</ele><time>2026-03-28T10:55:32.208Z</time></trkpt><trkpt lat="43.3277657" lon="11.374903"><ele>259.0</ele><time>2026-03-28T10:55:33.21Z</time></trkpt><trkpt lat="43.327664" lon="11.3748911"><ele>259.0</ele><time>2026-03-28T10:55:34.209Z</time></trkpt><trkpt lat="43.3275604" lon="11.3748848"><ele>259.0</ele><time>2026-03-28T10:55:35.209Z</time></trkpt><trkpt lat="43.3274502" lon="11.374875"><ele>259.0</ele><time>2026-03-28T10:55:36.209Z</time></trkpt><trkpt lat="43.3273337" lon="11.3748654"><ele>259.0</ele><time>2026-03-28T10:55:37.21Z</time></trkpt><trkpt lat="43.3272134" lon="11.3748681"><ele>257.25</ele><time>2026-03-28T10:55:38.21Z</time></trkpt><trkpt lat="43.3270878" lon="11.3748723"><ele>255.5</ele><time>2026-03-28T10:55:39.209Z</time></trkpt><trkpt lat="43.3269617" lon="11.3748826"><ele>253.75</ele><time>2026-03-28T10:55:40.209Z</time></trkpt><trkpt lat="43.3268351" lon="11.3748978"><ele>252.0</ele><time>2026-03-28T10:55:41.209Z</time></trkpt><trkpt lat="43.3267076" lon="11.3749161"><ele>252.0</ele><time>2026-03-28T10:55:42.209Z</time></trkpt><trkpt lat="43.3265848" lon="11.3749456"><ele>252.0</ele><time>2026-03-28T10:55:43.21Z</time></trkpt><trkpt lat="43.3264564" lon="11.3749818"><ele>252.0</ele><time>2026-03-28T10:55:44.21Z</time></trkpt><trkpt lat="43.3263249" lon="11.3750251"><ele>252.0</ele><time>2026-03-28T10:55:45.209Z</time></trkpt><trkpt lat="43.3261957" lon="11.3750734"><ele>251.25</ele><time>2026-03-28T10:55:46.209Z</time></trkpt><trkpt lat="43.3260776" lon="11.3751203"><ele>250.5</ele><time>2026-03-28T10:55:47.21Z</time></trkpt><trkpt lat="43.3259578" lon="11.3751656"><ele>249.75</ele><time>2026-03-28T10:55:48.209Z</time></trkpt><trkpt lat="43.3258394" lon="11.3751973"><ele>249.0</ele><time>2026-03-28T10:55:49.209Z</time></trkpt><trkpt lat="43.3257238" lon="11.375232"><ele>249.0</ele><time>2026-03-28T10:55:50.209Z</time></trkpt><trkpt lat="43.3256179" lon="11.3752855"><ele>249.0</ele><time>2026-03-28T10:55:51.209Z</time></trkpt><trkpt lat="43.3255162" lon="11.3753674"><ele>249.0</ele><time>2026-03-28T10:55:52.21Z</time></trkpt><trkpt lat="43.3254194" lon="11.3754701"><ele>249.0</ele><time>2026-03-28T10:55:53.209Z</time></trkpt><trkpt lat="43.3253194" lon="11.3755724"><ele>249.25</ele><time>2026-03-28T10:55:54.21Z</time></trkpt><trkpt lat="43.3252194" lon="11.3756842"><ele>249.5</ele><time>2026-03-28T10:55:55.209Z</time></trkpt><trkpt lat="43.3251272" lon="11.3757976"><ele>249.75</ele><time>2026-03-28T10:55:56.209Z</time></trkpt><trkpt lat="43.3250322" lon="11.3759097"><ele>250.0</ele><time>2026-03-28T10:55:57.21Z</time></trkpt><trkpt lat="43.3249367" lon="11.3760201"><ele>250.0</ele><time>2026-03-28T10:55:58.209Z</time></trkpt><trkpt lat="43.3248448" lon="11.3761258"><ele>250.0</ele><time>2026-03-28T10:55:59.209Z</time></trkpt><trkpt lat="43.3247592" lon="11.3762236"><ele>250.0</ele><time>2026-03-28T10:56:00.209Z</time></trkpt><trkpt lat="43.3246697" lon="11.3763209"><ele>250.0</ele><time>2026-03-28T10:56:01.209Z</time></trkpt><trkpt lat="43.3245804" lon="11.3764102"><ele>250.8</ele><time>2026-03-28T10:56:02.209Z</time></trkpt><trkpt lat="43.3245011" lon="11.3765045"><ele>251.6</ele><time>2026-03-28T10:56:03.21Z</time></trkpt><trkpt lat="43.324422" lon="11.3765946"><ele>252.39999999999998</ele><time>2026-03-28T10:56:04.209Z</time></trkpt><trkpt lat="43.3243402" lon="11.3766851"><ele>253.2</ele><time>2026-03-28T10:56:05.21Z</time></trkpt><trkpt lat="43.3242723" lon="11.3767757"><ele>254.0</ele><time>2026-03-28T10:56:06.209Z</time></trkpt><trkpt lat="43.3242075" lon="11.3768253"><ele>254.0</ele><time>2026-03-28T10:56:07.209Z</time></trkpt><trkpt lat="43.3241347" lon="11.3768388"><ele>254.0</ele><time>2026-03-28T10:56:08.209Z</time></trkpt><trkpt lat="43.3240574" lon="11.3768312"><ele>254.0</ele><time>2026-03-28T10:56:09.209Z</time></trkpt><trkpt lat="43.3239907" lon="11.3768091"><ele>254.0</ele><time>2026-03-28T10:56:10.21Z</time></trkpt><trkpt lat="43.3239235" lon="11.376777"><ele>254.0</ele><time>2026-03-28T10:56:11.209Z</time></trkpt><trkpt lat="43.3239014" lon="11.3766813"><ele>254.0</ele><time>2026-03-28T10:56:12.21Z</time></trkpt><trkpt lat="43.323894" lon="11.37659"><ele>254.0</ele><time>2026-03-28T10:56:13.209Z</time></trkpt><trkpt lat="43.3239151" lon="11.3764855"><ele>254.00000000000003</ele><time>2026-03-28T10:56:14.209Z</time></trkpt><trkpt lat="43.323951" lon="11.3763829"><ele>254.0</ele><time>2026-03-28T10:56:15.209Z</time></trkpt><trkpt lat="43.3239922" lon="11.376298"><ele>254.0</ele><time>2026-03-28T10:56:16.209Z</time></trkpt><trkpt lat="43.3240326" lon="11.3762169"><ele>254.0</ele><time>2026-03-28T10:56:17.209Z</time></trkpt><trkpt lat="43.3240674" lon="11.3761433"><ele>254.00000000000003</ele><time>2026-03-28T10:56:18.209Z</time></trkpt><trkpt lat="43.3240711" lon="11.3760033"><ele>254.0</ele><time>2026-03-28T10:56:20.209Z</time></trkpt><trkpt lat="43.323964" lon="11.3759309"><ele>248.39999999999998</ele><time>2026-03-28T10:56:22.209Z</time></trkpt><trkpt lat="43.3238761" lon="11.3759285"><ele>242.79999999999998</ele><time>2026-03-28T10:56:23.209Z</time></trkpt><trkpt lat="43.3237767" lon="11.3759349"><ele>237.20000000000002</ele><time>2026-03-28T10:56:24.21Z</time></trkpt><trkpt lat="43.323672" lon="11.3759387"><ele>231.60000000000002</ele><time>2026-03-28T10:56:25.21Z</time></trkpt><trkpt lat="43.323568" lon="11.3759437"><ele>226.0</ele><time>2026-03-28T10:56:26.209Z</time></trkpt><trkpt lat="43.323472" lon="11.3759528"><ele>225.99999999999997</ele><time>2026-03-28T10:56:27.209Z</time></trkpt><trkpt lat="43.3233857" lon="11.3759578"><ele>226.0</ele><time>2026-03-28T10:56:28.209Z</time></trkpt><trkpt lat="43.3233066" lon="11.3759503"><ele>226.0</ele><time>2026-03-28T10:56:29.209Z</time></trkpt><trkpt lat="43.3232303" lon="11.3759522"><ele>226.0</ele><time>2026-03-28T10:56:30.209Z</time></trkpt><trkpt lat="43.3231527" lon="11.3759694"><ele>225.99999999999997</ele><time>2026-03-28T10:56:31.209Z</time></trkpt><trkpt lat="43.3230877" lon="11.3760355"><ele>226.0</ele><time>2026-03-28T10:56:32.209Z</time></trkpt><trkpt lat="43.3230303" lon="11.3761297"><ele>223.4</ele><time>2026-03-28T10:56:33.209Z</time></trkpt><trkpt lat="43.3229846" lon="11.3762404"><ele>220.8</ele><time>2026-03-28T10:56:34.209Z</time></trkpt><trkpt lat="43.3229276" lon="11.3763609"><ele>218.20000000000002</ele><time>2026-03-28T10:56:35.209Z</time></trkpt><trkpt lat="43.3228586" lon="11.3764746"><ele>215.60000000000002</ele><time>2026-03-28T10:56:36.21Z</time></trkpt><trkpt lat="43.3227897" lon="11.3765939"><ele>213.0</ele><time>2026-03-28T10:56:37.21Z</time></trkpt><trkpt lat="43.322717" lon="11.3767125"><ele>213.0</ele><time>2026-03-28T10:56:38.209Z</time></trkpt><trkpt lat="43.3226417" lon="11.3768284"><ele>213.0</ele><time>2026-03-28T10:56:39.209Z</time></trkpt><trkpt lat="43.3225627" lon="11.3769378"><ele>213.0</ele><time>2026-03-28T10:56:40.21Z</time></trkpt><trkpt lat="43.3224818" lon="11.3770342"><ele>213.0</ele><time>2026-03-28T10:56:41.209Z</time></trkpt><trkpt lat="43.3223979" lon="11.3771098"><ele>213.0</ele><time>2026-03-28T10:56:42.21Z</time></trkpt><trkpt lat="43.3222954" lon="11.3771482"><ele>211.60000000000002</ele><time>2026-03-28T10:56:43.21Z</time></trkpt><trkpt lat="43.3221928" lon="11.3771542"><ele>210.20000000000002</ele><time>2026-03-28T10:56:44.21Z</time></trkpt><trkpt lat="43.322088" lon="11.3771448"><ele>208.8</ele><time>2026-03-28T10:56:45.209Z</time></trkpt><trkpt lat="43.3219786" lon="11.3771377"><ele>207.4</ele><time>2026-03-28T10:56:46.209Z</time></trkpt><trkpt lat="43.3218654" lon="11.3771225"><ele>206.0</ele><time>2026-03-28T10:56:47.208Z</time></trkpt><trkpt lat="43.3217537" lon="11.3771099"><ele>206.0</ele><time>2026-03-28T10:56:48.21Z</time></trkpt><trkpt lat="43.3216542" lon="11.3770774"><ele>206.0</ele><time>2026-03-28T10:56:49.21Z</time></trkpt><trkpt lat="43.3215727" lon="11.3770129"><ele>206.0</ele><time>2026-03-28T10:56:50.21Z</time></trkpt><trkpt lat="43.3215243" lon="11.3769199"><ele>206.0</ele><time>2026-03-28T10:56:51.21Z</time></trkpt><trkpt lat="43.321489" lon="11.3768084"><ele>206.0</ele><time>2026-03-28T10:56:52.209Z</time></trkpt><trkpt lat="43.3214377" lon="11.3766871"><ele>206.0</ele><time>2026-03-28T10:56:53.209Z</time></trkpt><trkpt lat="43.3213728" lon="11.3765629"><ele>206.0</ele><time>2026-03-28T10:56:54.209Z</time></trkpt><trkpt lat="43.3213007" lon="11.3764429"><ele>206.0</ele><time>2026-03-28T10:56:55.21Z</time></trkpt><trkpt lat="43.3212287" lon="11.3763209"><ele>206.0</ele><time>2026-03-28T10:56:56.21Z</time></trkpt><trkpt lat="43.3211575" lon="11.3762217"><ele>206.0</ele><time>2026-03-28T10:56:57.209Z</time></trkpt><trkpt lat="43.3210856" lon="11.3761377"><ele>207.00000000000003</ele><time>2026-03-28T10:56:58.209Z</time></trkpt><trkpt lat="43.3210129" lon="11.3760677"><ele>208.0</ele><time>2026-03-28T10:56:59.209Z</time></trkpt><trkpt lat="43.3209388" lon="11.3760187"><ele>209.0</ele><time>2026-03-28T10:57:00.21Z</time></trkpt><trkpt lat="43.3208672" lon="11.3759968"><ele>210.0</ele><time>2026-03-28T10:57:01.209Z</time></trkpt><trkpt lat="43.3208016" lon="11.3760016"><ele>211.00000000000003</ele><time>2026-03-28T10:57:02.209Z</time></trkpt><trkpt lat="43.3206992" lon="11.3760397"><ele>212.0</ele><time>2026-03-28T10:57:04.209Z</time></trkpt><trkpt lat="43.3206484" lon="11.3760968"><ele>213.50000000000003</ele><time>2026-03-28T10:57:06.21Z</time></trkpt><trkpt lat="43.3205586" lon="11.376119"><ele>215.0</ele><time>2026-03-28T10:58:39.21Z</time></trkpt><trkpt lat="43.320509" lon="11.3760535"><ele>216.5</ele><time>2026-03-28T10:58:42.209Z</time></trkpt><trkpt lat="43.3204988" lon="11.3759626"><ele>218.0</ele><time>2026-03-28T10:58:43.209Z</time></trkpt><trkpt lat="43.3204935" lon="11.3758725"><ele>219.50000000000003</ele><time>2026-03-28T10:58:44.209Z</time></trkpt><trkpt lat="43.3204929" lon="11.3757498"><ele>221.0</ele><time>2026-03-28T10:58:45.209Z</time></trkpt><trkpt lat="43.3204875" lon="11.3756257"><ele>220.60000000000002</ele><time>2026-03-28T10:58:46.21Z</time></trkpt><trkpt lat="43.3204434" lon="11.3755046"><ele>220.20000000000002</ele><time>2026-03-28T10:58:47.209Z</time></trkpt><trkpt lat="43.3203791" lon="11.3753871"><ele>219.79999999999998</ele><time>2026-03-28T10:58:48.21Z</time></trkpt><trkpt lat="43.3203175" lon="11.3752863"><ele>219.39999999999998</ele><time>2026-03-28T10:58:49.209Z</time></trkpt><trkpt lat="43.3202669" lon="11.3751845"><ele>219.0</ele><time>2026-03-28T10:58:50.209Z</time></trkpt><trkpt lat="43.3202286" lon="11.3750756"><ele>219.0</ele><time>2026-03-28T10:58:51.208Z</time></trkpt><trkpt lat="43.3202203" lon="11.3749446"><ele>218.99999999999997</ele><time>2026-03-28T10:58:52.209Z</time></trkpt><trkpt lat="43.3202387" lon="11.3748024"><ele>218.99999999999997</ele><time>2026-03-28T10:58:53.21Z</time></trkpt><trkpt lat="43.3202699" lon="11.3746745"><ele>219.0</ele><time>2026-03-28T10:58:54.21Z</time></trkpt><trkpt lat="43.3203055" lon="11.3745391"><ele>219.0</ele><time>2026-03-28T10:58:55.208Z</time></trkpt><trkpt lat="43.3203456" lon="11.3743819"><ele>219.5</ele><time>2026-03-28T10:58:56.209Z</time></trkpt><trkpt lat="43.3203895" lon="11.3742205"><ele>220.0</ele><time>2026-03-28T10:58:57.21Z</time></trkpt><trkpt lat="43.3204309" lon="11.3740632"><ele>220.5</ele><time>2026-03-28T10:58:58.209Z</time></trkpt><trkpt lat="43.3204792" lon="11.3739088"><ele>221.0</ele><time>2026-03-28T10:58:59.209Z</time></trkpt><trkpt lat="43.320531" lon="11.373763"><ele>223.0</ele><time>2026-03-28T10:59:00.21Z</time></trkpt><trkpt lat="43.3205866" lon="11.3736228"><ele>225.0</ele><time>2026-03-28T10:59:01.209Z</time></trkpt><trkpt lat="43.3206498" lon="11.3734852"><ele>227.0</ele><time>2026-03-28T10:59:02.209Z</time></trkpt><trkpt lat="43.3207123" lon="11.3733486"><ele>229.0</ele><time>2026-03-28T10:59:03.209Z</time></trkpt><trkpt lat="43.3207779" lon="11.3732131"><ele>229.0</ele><time>2026-03-28T10:59:04.21Z</time></trkpt><trkpt lat="43.3208438" lon="11.3730813"><ele>229.0</ele><time>2026-03-28T10:59:05.209Z</time></trkpt><trkpt lat="43.3209106" lon="11.3729514"><ele>229.0</ele><time>2026-03-28T10:59:06.21Z</time></trkpt><trkpt lat="43.3209667" lon="11.3728181"><ele>229.0</ele><time>2026-03-28T10:59:07.21Z</time></trkpt><trkpt lat="43.3210092" lon="11.3726665"><ele>231.25</ele><time>2026-03-28T10:59:08.209Z</time></trkpt><trkpt lat="43.321039" lon="11.3724998"><ele>233.5</ele><time>2026-03-28T10:59:09.209Z</time></trkpt><trkpt lat="43.3210652" lon="11.3723356"><ele>235.75</ele><time>2026-03-28T10:59:10.209Z</time></trkpt><trkpt lat="43.3210911" lon="11.3721634"><ele>238.0</ele><time>2026-03-28T10:59:11.209Z</time></trkpt><trkpt lat="43.3211201" lon="11.3719846"><ele>240.25</ele><time>2026-03-28T10:59:12.209Z</time></trkpt><trkpt lat="43.32115" lon="11.371796"><ele>242.5</ele><time>2026-03-28T10:59:13.209Z</time></trkpt><trkpt lat="43.3211756" lon="11.3716037"><ele>244.75</ele><time>2026-03-28T10:59:14.21Z</time></trkpt><trkpt lat="43.3211956" lon="11.3714007"><ele>247.0</ele><time>2026-03-28T10:59:15.21Z</time></trkpt><trkpt lat="43.3212194" lon="11.371199"><ele>246.33333333333331</ele><time>2026-03-28T10:59:16.208Z</time></trkpt><trkpt lat="43.3212611" lon="11.3709998"><ele>245.66666666666669</ele><time>2026-03-28T10:59:17.21Z</time></trkpt><trkpt lat="43.3213223" lon="11.370802"><ele>245.0</ele><time>2026-03-28T10:59:18.21Z</time></trkpt><trkpt lat="43.3214002" lon="11.3706136"><ele>246.75</ele><time>2026-03-28T10:59:19.209Z</time></trkpt><trkpt lat="43.3214886" lon="11.3704289"><ele>248.5</ele><time>2026-03-28T10:59:20.209Z</time></trkpt><trkpt lat="43.3215687" lon="11.3702607"><ele>250.25</ele><time>2026-03-28T10:59:21.21Z</time></trkpt><trkpt lat="43.3216409" lon="11.3701114"><ele>252.0</ele><time>2026-03-28T10:59:22.209Z</time></trkpt><trkpt lat="43.3217128" lon="11.3699719"><ele>252.0</ele><time>2026-03-28T10:59:23.209Z</time></trkpt><trkpt lat="43.321779" lon="11.3698462"><ele>252.0</ele><time>2026-03-28T10:59:24.209Z</time></trkpt><trkpt lat="43.3218496" lon="11.3697157"><ele>252.0</ele><time>2026-03-28T10:59:25.21Z</time></trkpt><trkpt lat="43.3219098" lon="11.369591"><ele>252.0</ele><time>2026-03-28T10:59:26.209Z</time></trkpt><trkpt lat="43.3219602" lon="11.3694885"><ele>252.0</ele><time>2026-03-28T10:59:27.21Z</time></trkpt><trkpt lat="43.3219998" lon="11.3693986"><ele>253.5</ele><time>2026-03-28T10:59:28.209Z</time></trkpt><trkpt lat="43.3220169" lon="11.3692899"><ele>255.0</ele><time>2026-03-28T10:59:29.209Z</time></trkpt><trkpt lat="43.3220074" lon="11.3691944"><ele>256.5</ele><time>2026-03-28T10:59:30.209Z</time></trkpt><trkpt lat="43.3219586" lon="11.369121"><ele>258.0</ele><time>2026-03-28T10:59:31.209Z</time></trkpt><trkpt lat="43.3218455" lon="11.3691975"><ele>259.5</ele><time>2026-03-28T10:59:32.209Z</time></trkpt><trkpt lat="43.3217713" lon="11.3692714"><ele>261.0</ele><time>2026-03-28T10:59:33.21Z</time></trkpt><trkpt lat="43.3216825" lon="11.3693575"><ele>261.0</ele><time>2026-03-28T10:59:34.209Z</time></trkpt><trkpt lat="43.3215814" lon="11.3694208"><ele>261.0</ele><time>2026-03-28T10:59:35.209Z</time></trkpt><trkpt lat="43.3214744" lon="11.3694147"><ele>261.0</ele><time>2026-03-28T10:59:36.209Z</time></trkpt><trkpt lat="43.3213805" lon="11.369361"><ele>261.0</ele><time>2026-03-28T10:59:37.209Z</time></trkpt><trkpt lat="43.3212943" lon="11.3692794"><ele>261.0</ele><time>2026-03-28T10:59:38.209Z</time></trkpt><trkpt lat="43.32121" lon="11.3691883"><ele>261.40000000000003</ele><time>2026-03-28T10:59:39.21Z</time></trkpt><trkpt lat="43.3211237" lon="11.3690908"><ele>261.8</ele><time>2026-03-28T10:59:40.209Z</time></trkpt><trkpt lat="43.3210446" lon="11.3690091"><ele>262.20000000000005</ele><time>2026-03-28T10:59:41.209Z</time></trkpt><trkpt lat="43.3209789" lon="11.3689254"><ele>262.6</ele><time>2026-03-28T10:59:42.209Z</time></trkpt><trkpt lat="43.3209502" lon="11.3688144"><ele>263.0</ele><time>2026-03-28T10:59:43.209Z</time></trkpt><trkpt lat="43.3209398" lon="11.3686958"><ele>263.0</ele><time>2026-03-28T10:59:44.209Z</time></trkpt><trkpt lat="43.3209725" lon="11.3685805"><ele>263.0</ele><time>2026-03-28T10:59:45.209Z</time></trkpt><trkpt lat="43.3210071" lon="11.3684361"><ele>263.0</ele><time>2026-03-28T10:59:46.209Z</time></trkpt><trkpt lat="43.3210422" lon="11.3682866"><ele>263.0</ele><time>2026-03-28T10:59:47.209Z</time></trkpt><trkpt lat="43.3210633" lon="11.3681292"><ele>263.0</ele><time>2026-03-28T10:59:48.21Z</time></trkpt><trkpt lat="43.3210732" lon="11.3679783"><ele>264.0</ele><time>2026-03-28T10:59:49.209Z</time></trkpt><trkpt lat="43.3210858" lon="11.3678107"><ele>265.0</ele><time>2026-03-28T10:59:50.209Z</time></trkpt><trkpt lat="43.3210919" lon="11.3676406"><ele>266.0</ele><time>2026-03-28T10:59:51.209Z</time></trkpt><trkpt lat="43.3210989" lon="11.3674641"><ele>267.0</ele><time>2026-03-28T10:59:52.21Z</time></trkpt><trkpt lat="43.3211066" lon="11.3672825"><ele>268.0</ele><time>2026-03-28T10:59:53.209Z</time></trkpt><trkpt lat="43.3211076" lon="11.3671192"><ele>269.0</ele><time>2026-03-28T10:59:54.209Z</time></trkpt><trkpt lat="43.3211057" lon="11.3669661"><ele>270.0</ele><time>2026-03-28T10:59:55.209Z</time></trkpt><trkpt lat="43.3211046" lon="11.3668044"><ele>271.0</ele><time>2026-03-28T10:59:56.209Z</time></trkpt><trkpt lat="43.3210944" lon="11.366643"><ele>271.0</ele><time>2026-03-28T10:59:57.209Z</time></trkpt><trkpt lat="43.321074" lon="11.3664765"><ele>271.0</ele><time>2026-03-28T10:59:58.209Z</time></trkpt><trkpt lat="43.321048" lon="11.3663085"><ele>271.0</ele><time>2026-03-28T10:59:59.208Z</time></trkpt><trkpt lat="43.3210235" lon="11.3661499"><ele>271.0</ele><time>2026-03-28T11:00:00.208Z</time></trkpt><trkpt lat="43.3209986" lon="11.3659959"><ele>271.0</ele><time>2026-03-28T11:00:01.21Z</time></trkpt><trkpt lat="43.320968" lon="11.3658325"><ele>271.0</ele><time>2026-03-28T11:00:02.209Z</time></trkpt><trkpt lat="43.320923" lon="11.3656581"><ele>271.0</ele><time>2026-03-28T11:00:03.209Z</time></trkpt><trkpt lat="43.320867" lon="11.3654866"><ele>271.0</ele><time>2026-03-28T11:00:04.21Z</time></trkpt><trkpt lat="43.3208062" lon="11.3653145"><ele>271.25</ele><time>2026-03-28T11:00:05.209Z</time></trkpt><trkpt lat="43.3207436" lon="11.3651518"><ele>271.5</ele><time>2026-03-28T11:00:06.209Z</time></trkpt><trkpt lat="43.3206829" lon="11.3650032"><ele>271.75</ele><time>2026-03-28T11:00:07.21Z</time></trkpt><trkpt lat="43.3206197" lon="11.3648625"><ele>272.0</ele><time>2026-03-28T11:00:08.209Z</time></trkpt><trkpt lat="43.3205496" lon="11.3647294"><ele>272.5</ele><time>2026-03-28T11:00:09.209Z</time></trkpt><trkpt lat="43.3204821" lon="11.3645986"><ele>273.0</ele><time>2026-03-28T11:00:10.21Z</time></trkpt><trkpt lat="43.320415" lon="11.364474"><ele>273.5</ele><time>2026-03-28T11:00:11.21Z</time></trkpt><trkpt lat="43.3203492" lon="11.3643601"><ele>274.0</ele><time>2026-03-28T11:00:12.209Z</time></trkpt><trkpt lat="43.3202734" lon="11.3642331"><ele>274.0</ele><time>2026-03-28T11:00:13.209Z</time></trkpt><trkpt lat="43.3201891" lon="11.3640985"><ele>274.0</ele><time>2026-03-28T11:00:14.209Z</time></trkpt><trkpt lat="43.3201045" lon="11.3639661"><ele>274.0</ele><time>2026-03-28T11:00:15.21Z</time></trkpt><trkpt lat="43.3200203" lon="11.3638316"><ele>274.0</ele><time>2026-03-28T11:00:16.209Z</time></trkpt><trkpt lat="43.3199332" lon="11.3637038"><ele>274.59999999999997</ele><time>2026-03-28T11:00:17.209Z</time></trkpt><trkpt lat="43.3198519" lon="11.3635903"><ele>275.2</ele><time>2026-03-28T11:00:18.209Z</time></trkpt><trkpt lat="43.3197752" lon="11.3634865"><ele>275.79999999999995</ele><time>2026-03-28T11:00:19.21Z</time></trkpt><trkpt lat="43.3196981" lon="11.3633923"><ele>276.4</ele><time>2026-03-28T11:00:20.209Z</time></trkpt><trkpt lat="43.3196236" lon="11.3632928"><ele>277.0</ele><time>2026-03-28T11:00:21.209Z</time></trkpt><trkpt lat="43.3195614" lon="11.3631797"><ele>277.0</ele><time>2026-03-28T11:00:22.209Z</time></trkpt><trkpt lat="43.3195006" lon="11.3630568"><ele>277.0</ele><time>2026-03-28T11:00:23.209Z</time></trkpt><trkpt lat="43.3194529" lon="11.3629382"><ele>277.0</ele><time>2026-03-28T11:00:24.209Z</time></trkpt><trkpt lat="43.319424" lon="11.3628204"><ele>277.0</ele><time>2026-03-28T11:00:25.21Z</time></trkpt><trkpt lat="43.319391" lon="11.3627056"><ele>277.0</ele><time>2026-03-28T11:00:26.209Z</time></trkpt><trkpt lat="43.3193328" lon="11.3625819"><ele>275.25</ele><time>2026-03-28T11:00:27.209Z</time></trkpt><trkpt lat="43.3192603" lon="11.3624575"><ele>273.5</ele><time>2026-03-28T11:00:28.21Z</time></trkpt><trkpt lat="43.3191883" lon="11.36234"><ele>271.75</ele><time>2026-03-28T11:00:29.209Z</time></trkpt><trkpt lat="43.3191144" lon="11.3622293"><ele>270.0</ele><time>2026-03-28T11:00:30.21Z</time></trkpt><trkpt lat="43.319037" lon="11.3621152"><ele>269.0</ele><time>2026-03-28T11:00:31.209Z</time></trkpt><trkpt lat="43.3189598" lon="11.3619867"><ele>268.0</ele><time>2026-03-28T11:00:32.209Z</time></trkpt><trkpt lat="43.3188864" lon="11.3618662"><ele>267.0</ele><time>2026-03-28T11:00:33.208Z</time></trkpt><trkpt lat="43.3188144" lon="11.3617381"><ele>266.0</ele><time>2026-03-28T11:00:34.209Z</time></trkpt><trkpt lat="43.3187461" lon="11.361606"><ele>266.0</ele><time>2026-03-28T11:00:35.209Z</time></trkpt><trkpt lat="43.3186819" lon="11.3614673"><ele>266.0</ele><time>2026-03-28T11:00:36.209Z</time></trkpt><trkpt lat="43.3186262" lon="11.3613212"><ele>266.0</ele><time>2026-03-28T11:00:37.21Z</time></trkpt><trkpt lat="43.3185813" lon="11.361172"><ele>266.0</ele><time>2026-03-28T11:00:38.208Z</time></trkpt><trkpt lat="43.3185348" lon="11.361029"><ele>264.0</ele><time>2026-03-28T11:00:39.209Z</time></trkpt><trkpt lat="43.3184784" lon="11.3608855"><ele>262.0</ele><time>2026-03-28T11:00:40.209Z</time></trkpt><trkpt lat="43.3184145" lon="11.3607502"><ele>260.0</ele><time>2026-03-28T11:00:41.209Z</time></trkpt><trkpt lat="43.3183533" lon="11.3606161"><ele>258.0</ele><time>2026-03-28T11:00:42.209Z</time></trkpt><trkpt lat="43.3182925" lon="11.3604755"><ele>256.25</ele><time>2026-03-28T11:00:43.21Z</time></trkpt><trkpt lat="43.3182332" lon="11.360335"><ele>254.5</ele><time>2026-03-28T11:00:44.21Z</time></trkpt><trkpt lat="43.3181667" lon="11.3601961"><ele>252.75</ele><time>2026-03-28T11:00:45.209Z</time></trkpt><trkpt lat="43.31809" lon="11.360066"><ele>251.0</ele><time>2026-03-28T11:00:46.21Z</time></trkpt><trkpt lat="43.3180099" lon="11.359942"><ele>251.0</ele><time>2026-03-28T11:00:47.21Z</time></trkpt><trkpt lat="43.3179353" lon="11.3598057"><ele>251.0</ele><time>2026-03-28T11:00:48.209Z</time></trkpt><trkpt lat="43.31787" lon="11.3596518"><ele>251.0</ele><time>2026-03-28T11:00:49.209Z</time></trkpt><trkpt lat="43.3178142" lon="11.3594863"><ele>251.0</ele><time>2026-03-28T11:00:50.209Z</time></trkpt><trkpt lat="43.3177734" lon="11.3593061"><ele>248.5</ele><time>2026-03-28T11:00:51.21Z</time></trkpt><trkpt lat="43.3177373" lon="11.359125"><ele>246.0</ele><time>2026-03-28T11:00:52.209Z</time></trkpt><trkpt lat="43.3176987" lon="11.3589569"><ele>243.5</ele><time>2026-03-28T11:00:53.21Z</time></trkpt><trkpt lat="43.3176523" lon="11.3587973"><ele>241.0</ele><time>2026-03-28T11:00:54.209Z</time></trkpt><trkpt lat="43.3175949" lon="11.3586556"><ele>240.0</ele><time>2026-03-28T11:00:55.209Z</time></trkpt><trkpt lat="43.3175173" lon="11.3585368"><ele>239.0</ele><time>2026-03-28T11:00:56.21Z</time></trkpt><trkpt lat="43.3174236" lon="11.3584382"><ele>238.0</ele><time>2026-03-28T11:00:57.209Z</time></trkpt><trkpt lat="43.3173124" lon="11.3583657"><ele>237.0</ele><time>2026-03-28T11:00:58.209Z</time></trkpt><trkpt lat="43.3171948" lon="11.3583268"><ele>235.25</ele><time>2026-03-28T11:00:59.21Z</time></trkpt><trkpt lat="43.317076" lon="11.3583182"><ele>233.5</ele><time>2026-03-28T11:01:00.209Z</time></trkpt><trkpt lat="43.3169624" lon="11.3583167"><ele>231.75</ele><time>2026-03-28T11:01:01.21Z</time></trkpt><trkpt lat="43.3168465" lon="11.3582957"><ele>230.0</ele><time>2026-03-28T11:01:02.209Z</time></trkpt><trkpt lat="43.3167394" lon="11.3582409"><ele>230.0</ele><time>2026-03-28T11:01:03.21Z</time></trkpt><trkpt lat="43.316648" lon="11.3581491"><ele>230.0</ele><time>2026-03-28T11:01:04.21Z</time></trkpt><trkpt lat="43.3165633" lon="11.3580342"><ele>230.0</ele><time>2026-03-28T11:01:05.209Z</time></trkpt><trkpt lat="43.3164815" lon="11.3579036"><ele>230.0</ele><time>2026-03-28T11:01:06.209Z</time></trkpt><trkpt lat="43.3164035" lon="11.3577683"><ele>229.25</ele><time>2026-03-28T11:01:07.209Z</time></trkpt><trkpt lat="43.3163249" lon="11.3576317"><ele>228.5</ele><time>2026-03-28T11:01:08.21Z</time></trkpt><trkpt lat="43.3162321" lon="11.357496"><ele>227.75</ele><time>2026-03-28T11:01:09.21Z</time></trkpt><trkpt lat="43.3161555" lon="11.3573449"><ele>227.0</ele><time>2026-03-28T11:01:10.209Z</time></trkpt><trkpt lat="43.316107" lon="11.3571841"><ele>226.8</ele><time>2026-03-28T11:01:11.21Z</time></trkpt><trkpt lat="43.3160767" lon="11.357029"><ele>226.6</ele><time>2026-03-28T11:01:12.209Z</time></trkpt><trkpt lat="43.316057" lon="11.3568921"><ele>226.40000000000003</ele><time>2026-03-28T11:01:13.209Z</time></trkpt><trkpt lat="43.3160436" lon="11.3567718"><ele>226.20000000000002</ele><time>2026-03-28T11:01:14.21Z</time></trkpt><trkpt lat="43.3160382" lon="11.3566584"><ele>226.0</ele><time>2026-03-28T11:01:15.209Z</time></trkpt><trkpt lat="43.3160342" lon="11.3565682"><ele>225.99999999999997</ele><time>2026-03-28T11:01:16.209Z</time></trkpt><trkpt lat="43.3160272" lon="11.3564121"><ele>226.0</ele><time>2026-03-28T11:01:18.208Z</time></trkpt><trkpt lat="43.316021" lon="11.3563122"><ele>226.0</ele><time>2026-03-28T11:01:20.21Z</time></trkpt><trkpt lat="43.3160239" lon="11.3562176"><ele>226.0</ele><time>2026-03-28T11:01:23.209Z</time></trkpt><trkpt lat="43.3160341" lon="11.3561201"><ele>225.99999999999997</ele><time>2026-03-28T11:01:26.209Z</time></trkpt><trkpt lat="43.3161053" lon="11.355991"><ele>226.0</ele><time>2026-03-28T11:01:28.21Z</time></trkpt><trkpt lat="43.3161454" lon="11.3559133"><ele>225.83333333333331</ele><time>2026-03-28T11:01:29.21Z</time></trkpt><trkpt lat="43.316199" lon="11.3558245"><ele>225.66666666666666</ele><time>2026-03-28T11:01:30.21Z</time></trkpt><trkpt lat="43.3162621" lon="11.3557311"><ele>225.5</ele><time>2026-03-28T11:01:31.21Z</time></trkpt><trkpt lat="43.3163214" lon="11.3556417"><ele>225.33333333333331</ele><time>2026-03-28T11:01:32.21Z</time></trkpt><trkpt lat="43.3163675" lon="11.3555517"><ele>225.16666666666666</ele><time>2026-03-28T11:01:33.21Z</time></trkpt><trkpt lat="43.3163913" lon="11.3554445"><ele>225.0</ele><time>2026-03-28T11:01:34.209Z</time></trkpt><trkpt lat="43.3163769" lon="11.3553485"><ele>225.00000000000003</ele><time>2026-03-28T11:01:35.209Z</time></trkpt><trkpt lat="43.3163237" lon="11.355273"><ele>225.0</ele><time>2026-03-28T11:01:36.21Z</time></trkpt><trkpt lat="43.3162553" lon="11.355238"><ele>225.00000000000003</ele><time>2026-03-28T11:01:37.209Z</time></trkpt><trkpt lat="43.3161789" lon="11.3552491"><ele>225.00000000000003</ele><time>2026-03-28T11:01:38.21Z</time></trkpt><trkpt lat="43.3161255" lon="11.3553111"><ele>225.0</ele><time>2026-03-28T11:01:39.21Z</time></trkpt><trkpt lat="43.316098" lon="11.3553953"><ele>225.00000000000003</ele><time>2026-03-28T11:01:40.21Z</time></trkpt><trkpt lat="43.3160946" lon="11.3555031"><ele>225.00000000000003</ele><time>2026-03-28T11:01:41.21Z</time></trkpt><trkpt lat="43.316082" lon="11.3556277"><ele>225.0</ele><time>2026-03-28T11:01:42.21Z</time></trkpt><trkpt lat="43.3160451" lon="11.3557523"><ele>225.0</ele><time>2026-03-28T11:01:43.209Z</time></trkpt><trkpt lat="43.315991" lon="11.355862"><ele>225.0</ele><time>2026-03-28T11:01:44.209Z</time></trkpt><trkpt lat="43.315943" lon="11.3559368"><ele>225.0</ele><time>2026-03-28T11:01:45.209Z</time></trkpt><trkpt lat="43.3158608" lon="11.3560001"><ele>225.0</ele><time>2026-03-28T11:01:47.209Z</time></trkpt><trkpt lat="43.31578" lon="11.3559581"><ele>225.0</ele><time>2026-03-28T11:01:51.209Z</time></trkpt><trkpt lat="43.3157252" lon="11.3559112"><ele>225.0</ele><time>2026-03-28T11:01:55.209Z</time></trkpt><trkpt lat="43.3156606" lon="11.355898"><ele>225.0</ele><time>2026-03-28T11:02:02.209Z</time></trkpt><trkpt lat="43.3155622" lon="11.3558685"><ele>225.0</ele><time>2026-03-28T11:02:04.209Z</time></trkpt><trkpt lat="43.3154979" lon="11.3558459"><ele>225.0</ele><time>2026-03-28T11:02:05.208Z</time></trkpt><trkpt lat="43.3154168" lon="11.355824"><ele>225.0</ele><time>2026-03-28T11:02:06.209Z</time></trkpt><trkpt lat="43.3153336" lon="11.3558108"><ele>225.0</ele><time>2026-03-28T11:02:07.209Z</time></trkpt><trkpt lat="43.3152508" lon="11.3558113"><ele>225.8</ele><time>2026-03-28T11:02:08.208Z</time></trkpt><trkpt lat="43.3151668" lon="11.3558418"><ele>226.6</ele><time>2026-03-28T11:02:09.208Z</time></trkpt><trkpt lat="43.3150899" lon="11.355903"><ele>227.39999999999998</ele><time>2026-03-28T11:02:10.208Z</time></trkpt><trkpt lat="43.3150161" lon="11.3559803"><ele>228.2</ele><time>2026-03-28T11:02:11.208Z</time></trkpt><trkpt lat="43.3149341" lon="11.3560588"><ele>229.0</ele><time>2026-03-28T11:02:12.208Z</time></trkpt><trkpt lat="43.3148485" lon="11.3561335"><ele>228.99999999999997</ele><time>2026-03-28T11:02:13.209Z</time></trkpt><trkpt lat="43.3147798" lon="11.3562006"><ele>229.0</ele><time>2026-03-28T11:02:14.208Z</time></trkpt><trkpt lat="43.3147153" lon="11.3562667"><ele>229.0</ele><time>2026-03-28T11:02:15.208Z</time></trkpt><trkpt lat="43.3146514" lon="11.3563281"><ele>229.0</ele><time>2026-03-28T11:02:16.208Z</time></trkpt><trkpt lat="43.3145938" lon="11.3563825"><ele>228.99999999999997</ele><time>2026-03-28T11:02:17.208Z</time></trkpt><trkpt lat="43.3145373" lon="11.3564255"><ele>229.0</ele><time>2026-03-28T11:02:18.209Z</time></trkpt><trkpt lat="43.3144373" lon="11.3563222"><ele>231.79999999999998</ele><time>2026-03-28T11:02:20.209Z</time></trkpt><trkpt lat="43.3144351" lon="11.3562287"><ele>234.59999999999997</ele><time>2026-03-28T11:02:21.208Z</time></trkpt><trkpt lat="43.3144644" lon="11.3561314"><ele>237.4</ele><time>2026-03-28T11:02:22.208Z</time></trkpt><trkpt lat="43.3145028" lon="11.3560134"><ele>240.2</ele><time>2026-03-28T11:02:23.208Z</time></trkpt><trkpt lat="43.3145446" lon="11.3558916"><ele>243.0</ele><time>2026-03-28T11:02:24.208Z</time></trkpt><trkpt lat="43.3145853" lon="11.3557448"><ele>243.0</ele><time>2026-03-28T11:02:25.208Z</time></trkpt><trkpt lat="43.3146143" lon="11.3555911"><ele>243.0</ele><time>2026-03-28T11:02:26.208Z</time></trkpt><trkpt lat="43.3146358" lon="11.3554372"><ele>243.0</ele><time>2026-03-28T11:02:27.209Z</time></trkpt><trkpt lat="43.3146519" lon="11.3552872"><ele>243.0</ele><time>2026-03-28T11:02:28.209Z</time></trkpt><trkpt lat="43.3146648" lon="11.3551256"><ele>245.2</ele><time>2026-03-28T11:02:29.209Z</time></trkpt><trkpt lat="43.3146656" lon="11.3549723"><ele>247.4</ele><time>2026-03-28T11:02:30.209Z</time></trkpt><trkpt lat="43.3146568" lon="11.3548275"><ele>249.59999999999997</ele><time>2026-03-28T11:02:31.208Z</time></trkpt><trkpt lat="43.3146362" lon="11.3546897"><ele>251.79999999999998</ele><time>2026-03-28T11:02:32.209Z</time></trkpt><trkpt lat="43.314596" lon="11.3545471"><ele>254.0</ele><time>2026-03-28T11:02:33.208Z</time></trkpt><trkpt lat="43.3145402" lon="11.3544329"><ele>255.0</ele><time>2026-03-28T11:02:34.208Z</time></trkpt><trkpt lat="43.3144883" lon="11.3543406"><ele>255.99999999999997</ele><time>2026-03-28T11:02:35.209Z</time></trkpt><trkpt lat="43.3144289" lon="11.3542448"><ele>257.0</ele><time>2026-03-28T11:02:36.209Z</time></trkpt><trkpt lat="43.3143643" lon="11.3541467"><ele>258.0</ele><time>2026-03-28T11:02:37.209Z</time></trkpt><trkpt lat="43.3143072" lon="11.3540301"><ele>259.0</ele><time>2026-03-28T11:02:38.208Z</time></trkpt><trkpt lat="43.3142567" lon="11.3538934"><ele>258.2</ele><time>2026-03-28T11:02:39.208Z</time></trkpt><trkpt lat="43.3142103" lon="11.3537764"><ele>257.4</ele><time>2026-03-28T11:02:40.209Z</time></trkpt><trkpt lat="43.3141392" lon="11.3536639"><ele>256.6</ele><time>2026-03-28T11:02:41.208Z</time></trkpt><trkpt lat="43.3140508" lon="11.3535541"><ele>255.8</ele><time>2026-03-28T11:02:42.207Z</time></trkpt><trkpt lat="43.3139538" lon="11.3534484"><ele>255.0</ele><time>2026-03-28T11:02:43.208Z</time></trkpt><trkpt lat="43.3138565" lon="11.3533428"><ele>258.5</ele><time>2026-03-28T11:02:44.208Z</time></trkpt><trkpt lat="43.3137601" lon="11.3532354"><ele>262.0</ele><time>2026-03-28T11:02:45.208Z</time></trkpt><trkpt lat="43.3136702" lon="11.3531223"><ele>265.5</ele><time>2026-03-28T11:02:46.209Z</time></trkpt><trkpt lat="43.3135899" lon="11.3530071"><ele>269.0</ele><time>2026-03-28T11:02:47.208Z</time></trkpt><trkpt lat="43.3135111" lon="11.3528902"><ele>269.0</ele><time>2026-03-28T11:02:48.209Z</time></trkpt><trkpt lat="43.3134345" lon="11.352771"><ele>269.0</ele><time>2026-03-28T11:02:49.208Z</time></trkpt><trkpt lat="43.3133614" lon="11.3526522"><ele>269.0</ele><time>2026-03-28T11:02:50.208Z</time></trkpt><trkpt lat="43.3132921" lon="11.3525322"><ele>269.0</ele><time>2026-03-28T11:02:51.209Z</time></trkpt><trkpt lat="43.3132243" lon="11.3524045"><ele>269.0</ele><time>2026-03-28T11:02:52.209Z</time></trkpt><trkpt lat="43.3131668" lon="11.3522901"><ele>269.0</ele><time>2026-03-28T11:02:53.208Z</time></trkpt><trkpt lat="43.3131063" lon="11.352173"><ele>269.0</ele><time>2026-03-28T11:02:54.209Z</time></trkpt><trkpt lat="43.3130455" lon="11.3520482"><ele>269.0</ele><time>2026-03-28T11:02:55.208Z</time></trkpt><trkpt lat="43.3129861" lon="11.3519077"><ele>269.0</ele><time>2026-03-28T11:02:56.208Z</time></trkpt><trkpt lat="43.3129364" lon="11.3517666"><ele>270.4</ele><time>2026-03-28T11:02:57.209Z</time></trkpt><trkpt lat="43.3128982" lon="11.3516211"><ele>271.79999999999995</ele><time>2026-03-28T11:02:58.208Z</time></trkpt><trkpt lat="43.3128671" lon="11.3514875"><ele>273.20000000000005</ele><time>2026-03-28T11:02:59.208Z</time></trkpt><trkpt lat="43.3128419" lon="11.3513557"><ele>274.6</ele><time>2026-03-28T11:03:00.209Z</time></trkpt><trkpt lat="43.3128133" lon="11.3512206"><ele>276.0</ele><time>2026-03-28T11:03:01.208Z</time></trkpt><trkpt lat="43.3127824" lon="11.3510828"><ele>276.6</ele><time>2026-03-28T11:03:02.208Z</time></trkpt><trkpt lat="43.31275" lon="11.3509412"><ele>277.20000000000005</ele><time>2026-03-28T11:03:03.208Z</time></trkpt><trkpt lat="43.3127167" lon="11.350803"><ele>277.79999999999995</ele><time>2026-03-28T11:03:04.209Z</time></trkpt><trkpt lat="43.3126824" lon="11.3506739"><ele>278.4</ele><time>2026-03-28T11:03:05.208Z</time></trkpt><trkpt lat="43.3126417" lon="11.3505349"><ele>279.0</ele><time>2026-03-28T11:03:06.208Z</time></trkpt><trkpt lat="43.3125989" lon="11.3504004"><ele>279.0</ele><time>2026-03-28T11:03:07.208Z</time></trkpt><trkpt lat="43.3125526" lon="11.3502715"><ele>279.0</ele><time>2026-03-28T11:03:08.208Z</time></trkpt><trkpt lat="43.3125088" lon="11.3501337"><ele>279.0</ele><time>2026-03-28T11:03:09.208Z</time></trkpt><trkpt lat="43.3124853" lon="11.3499971"><ele>279.0</ele><time>2026-03-28T11:03:10.209Z</time></trkpt><trkpt lat="43.3124936" lon="11.349891"><ele>279.0</ele><time>2026-03-28T11:03:11.207Z</time></trkpt><trkpt lat="43.312498" lon="11.3497761"><ele>278.2857142857143</ele><time>2026-03-28T11:03:12.209Z</time></trkpt><trkpt lat="43.3125392" lon="11.3496887"><ele>277.57142857142856</ele><time>2026-03-28T11:03:13.208Z</time></trkpt><trkpt lat="43.3125758" lon="11.3496034"><ele>276.8571428571429</ele><time>2026-03-28T11:03:14.208Z</time></trkpt><trkpt lat="43.312617" lon="11.3495091"><ele>276.1428571428571</ele><time>2026-03-28T11:03:15.209Z</time></trkpt><trkpt lat="43.3126538" lon="11.3494159"><ele>275.42857142857144</ele><time>2026-03-28T11:03:16.208Z</time></trkpt><trkpt lat="43.3126854" lon="11.3493194"><ele>274.7142857142857</ele><time>2026-03-28T11:03:17.209Z</time></trkpt><trkpt lat="43.3127113" lon="11.3492342"><ele>274.0</ele><time>2026-03-28T11:03:18.208Z</time></trkpt><trkpt lat="43.3127363" lon="11.3491353"><ele>274.00000000000006</ele><time>2026-03-28T11:03:19.209Z</time></trkpt><trkpt lat="43.3127407" lon="11.3490484"><ele>274.0</ele><time>2026-03-28T11:03:20.208Z</time></trkpt><trkpt lat="43.3127349" lon="11.3489529"><ele>274.0</ele><time>2026-03-28T11:03:21.208Z</time></trkpt><trkpt lat="43.3127158" lon="11.3488618"><ele>274.0</ele><time>2026-03-28T11:03:22.208Z</time></trkpt><trkpt lat="43.3126907" lon="11.3487634"><ele>274.0</ele><time>2026-03-28T11:03:23.209Z</time></trkpt><trkpt lat="43.3126646" lon="11.348665"><ele>274.00000000000006</ele><time>2026-03-28T11:03:24.208Z</time></trkpt><trkpt lat="43.3126323" lon="11.3485612"><ele>274.0</ele><time>2026-03-28T11:03:25.208Z</time></trkpt><trkpt lat="43.3125939" lon="11.3484589"><ele>273.3333333333333</ele><time>2026-03-28T11:03:26.208Z</time></trkpt><trkpt lat="43.3125493" lon="11.3483765"><ele>272.66666666666663</ele><time>2026-03-28T11:03:27.208Z</time></trkpt><trkpt lat="43.3125076" lon="11.3483035"><ele>272.0</ele><time>2026-03-28T11:03:28.208Z</time></trkpt><trkpt lat="43.3124655" lon="11.3482319"><ele>271.3333333333333</ele><time>2026-03-28T11:03:29.208Z</time></trkpt><trkpt lat="43.3123828" lon="11.3481201"><ele>270.6666666666667</ele><time>2026-03-28T11:03:31.209Z</time></trkpt><trkpt lat="43.3123118" lon="11.3480432"><ele>270.0</ele><time>2026-03-28T11:03:33.209Z</time></trkpt><trkpt lat="43.3122429" lon="11.3480915"><ele>269.0</ele><time>2026-03-28T11:03:35.208Z</time></trkpt><trkpt lat="43.3121796" lon="11.3482512"><ele>268.0</ele><time>2026-03-28T11:03:37.208Z</time></trkpt><trkpt lat="43.3121373" lon="11.3483482"><ele>267.0</ele><time>2026-03-28T11:03:38.209Z</time></trkpt><trkpt lat="43.3120857" lon="11.3484526"><ele>266.0</ele><time>2026-03-28T11:03:39.208Z</time></trkpt><trkpt lat="43.3120485" lon="11.3485825"><ele>265.0</ele><time>2026-03-28T11:03:40.208Z</time></trkpt><trkpt lat="43.3120112" lon="11.3487162"><ele>265.0</ele><time>2026-03-28T11:03:41.209Z</time></trkpt><trkpt lat="43.3119769" lon="11.348857"><ele>265.0</ele><time>2026-03-28T11:03:42.209Z</time></trkpt><trkpt lat="43.3119402" lon="11.3489939"><ele>265.0</ele><time>2026-03-28T11:03:43.208Z</time></trkpt><trkpt lat="43.3118992" lon="11.3491291"><ele>265.0</ele><time>2026-03-28T11:03:44.209Z</time></trkpt><trkpt lat="43.3118525" lon="11.3492609"><ele>265.0</ele><time>2026-03-28T11:03:45.209Z</time></trkpt><trkpt lat="43.3117986" lon="11.3493905"><ele>264.4</ele><time>2026-03-28T11:03:46.208Z</time></trkpt><trkpt lat="43.3117406" lon="11.3495058"><ele>263.8</ele><time>2026-03-28T11:03:47.207Z</time></trkpt><trkpt lat="43.3116764" lon="11.349603"><ele>263.2</ele><time>2026-03-28T11:03:48.209Z</time></trkpt><trkpt lat="43.3116003" lon="11.3496823"><ele>262.6</ele><time>2026-03-28T11:03:49.208Z</time></trkpt><trkpt lat="43.3115086" lon="11.3497571"><ele>262.0</ele><time>2026-03-28T11:03:50.208Z</time></trkpt><trkpt lat="43.3114046" lon="11.3498221"><ele>262.0</ele><time>2026-03-28T11:03:51.208Z</time></trkpt><trkpt lat="43.311291" lon="11.3498733"><ele>262.0</ele><time>2026-03-28T11:03:52.209Z</time></trkpt><trkpt lat="43.3111767" lon="11.3499174"><ele>262.0</ele><time>2026-03-28T11:03:53.208Z</time></trkpt><trkpt lat="43.3110718" lon="11.3499569"><ele>262.0</ele><time>2026-03-28T11:03:54.208Z</time></trkpt><trkpt lat="43.3109833" lon="11.349992"><ele>262.0</ele><time>2026-03-28T11:03:55.208Z</time></trkpt><trkpt lat="43.3109037" lon="11.3500183"><ele>262.0</ele><time>2026-03-28T11:03:56.208Z</time></trkpt><trkpt lat="43.3108257" lon="11.3500487"><ele>262.0</ele><time>2026-03-28T11:03:57.208Z</time></trkpt><trkpt lat="43.3107435" lon="11.3500762"><ele>262.0</ele><time>2026-03-28T11:03:58.208Z</time></trkpt><trkpt lat="43.310672" lon="11.3501064"><ele>262.0</ele><time>2026-03-28T11:03:59.209Z</time></trkpt><trkpt lat="43.3105955" lon="11.350151"><ele>262.0</ele><time>2026-03-28T11:04:00.208Z</time></trkpt><trkpt lat="43.3105189" lon="11.350209"><ele>262.0</ele><time>2026-03-28T11:04:01.207Z</time></trkpt><trkpt lat="43.3104384" lon="11.350263"><ele>262.0</ele><time>2026-03-28T11:04:02.209Z</time></trkpt><trkpt lat="43.3103387" lon="11.3503359"><ele>262.0</ele><time>2026-03-28T11:04:03.208Z</time></trkpt><trkpt lat="43.3102651" lon="11.3504329"><ele>262.0</ele><time>2026-03-28T11:04:04.209Z</time></trkpt><trkpt lat="43.3101871" lon="11.3505422"><ele>262.0</ele><time>2026-03-28T11:04:05.209Z</time></trkpt><trkpt lat="43.310116" lon="11.3506347"><ele>262.0</ele><time>2026-03-28T11:04:06.208Z</time></trkpt><trkpt lat="43.3100493" lon="11.3507258"><ele>261.8</ele><time>2026-03-28T11:04:07.208Z</time></trkpt><trkpt lat="43.3099858" lon="11.3508232"><ele>261.6</ele><time>2026-03-28T11:04:08.209Z</time></trkpt><trkpt lat="43.3099242" lon="11.3509124"><ele>261.40000000000003</ele><time>2026-03-28T11:04:09.208Z</time></trkpt><trkpt lat="43.3098584" lon="11.3510172"><ele>261.2</ele><time>2026-03-28T11:04:10.208Z</time></trkpt><trkpt lat="43.3097979" lon="11.3511456"><ele>261.0</ele><time>2026-03-28T11:04:11.208Z</time></trkpt><trkpt lat="43.3097372" lon="11.3512902"><ele>262.0</ele><time>2026-03-28T11:04:12.208Z</time></trkpt><trkpt lat="43.309678" lon="11.35144"><ele>263.0</ele><time>2026-03-28T11:04:13.208Z</time></trkpt><trkpt lat="43.3096295" lon="11.3515921"><ele>264.0</ele><time>2026-03-28T11:04:14.209Z</time></trkpt><trkpt lat="43.3095946" lon="11.3517409"><ele>265.0</ele><time>2026-03-28T11:04:15.208Z</time></trkpt><trkpt lat="43.3095631" lon="11.3518952"><ele>265.0</ele><time>2026-03-28T11:04:16.208Z</time></trkpt><trkpt lat="43.3095384" lon="11.3520267"><ele>265.0</ele><time>2026-03-28T11:04:17.208Z</time></trkpt><trkpt lat="43.309514" lon="11.3521607"><ele>265.0</ele><time>2026-03-28T11:04:18.209Z</time></trkpt><trkpt lat="43.3094857" lon="11.3522999"><ele>265.0</ele><time>2026-03-28T11:04:19.208Z</time></trkpt><trkpt lat="43.3094578" lon="11.3524444"><ele>265.0</ele><time>2026-03-28T11:04:20.208Z</time></trkpt><trkpt lat="43.3094317" lon="11.3525895"><ele>265.0</ele><time>2026-03-28T11:04:21.208Z</time></trkpt><trkpt lat="43.3094089" lon="11.3527281"><ele>265.0</ele><time>2026-03-28T11:04:22.208Z</time></trkpt><trkpt lat="43.309386" lon="11.3528609"><ele>265.0</ele><time>2026-03-28T11:04:23.208Z</time></trkpt><trkpt lat="43.3093644" lon="11.3530044"><ele>265.0</ele><time>2026-03-28T11:04:24.209Z</time></trkpt><trkpt lat="43.3093405" lon="11.3531529"><ele>265.0</ele><time>2026-03-28T11:04:25.209Z</time></trkpt><trkpt lat="43.3093144" lon="11.3533012"><ele>265.0</ele><time>2026-03-28T11:04:26.208Z</time></trkpt><trkpt lat="43.309286" lon="11.3534465"><ele>265.0</ele><time>2026-03-28T11:04:27.209Z</time></trkpt><trkpt lat="43.3092678" lon="11.3535954"><ele>265.0</ele><time>2026-03-28T11:04:28.208Z</time></trkpt><trkpt lat="43.3092621" lon="11.3537599"><ele>265.0</ele><time>2026-03-28T11:04:29.209Z</time></trkpt><trkpt lat="43.3092529" lon="11.3539162"><ele>264.25</ele><time>2026-03-28T11:04:30.208Z</time></trkpt><trkpt lat="43.3092451" lon="11.3540834"><ele>263.5</ele><time>2026-03-28T11:04:31.207Z</time></trkpt><trkpt lat="43.3092337" lon="11.3542573"><ele>262.75</ele><time>2026-03-28T11:04:32.208Z</time></trkpt><trkpt lat="43.3092281" lon="11.3544311"><ele>262.0</ele><time>2026-03-28T11:04:33.209Z</time></trkpt><trkpt lat="43.309223" lon="11.3545907"><ele>262.2</ele><time>2026-03-28T11:04:34.208Z</time></trkpt><trkpt lat="43.3092258" lon="11.3547443"><ele>262.4</ele><time>2026-03-28T11:04:35.209Z</time></trkpt><trkpt lat="43.3092294" lon="11.3548896"><ele>262.6</ele><time>2026-03-28T11:04:36.209Z</time></trkpt><trkpt lat="43.3092386" lon="11.3550256"><ele>262.8</ele><time>2026-03-28T11:04:37.208Z</time></trkpt><trkpt lat="43.3092642" lon="11.3551458"><ele>263.0</ele><time>2026-03-28T11:04:38.209Z</time></trkpt><trkpt lat="43.309284" lon="11.3552768"><ele>263.0</ele><time>2026-03-28T11:04:39.209Z</time></trkpt><trkpt lat="43.3093082" lon="11.3554011"><ele>263.0</ele><time>2026-03-28T11:04:40.208Z</time></trkpt><trkpt lat="43.3093418" lon="11.3555261"><ele>263.0</ele><time>2026-03-28T11:04:41.208Z</time></trkpt><trkpt lat="43.3093658" lon="11.3556477"><ele>263.0</ele><time>2026-03-28T11:04:42.208Z</time></trkpt><trkpt lat="43.3094047" lon="11.3557572"><ele>263.0</ele><time>2026-03-28T11:04:43.208Z</time></trkpt><trkpt lat="43.3094318" lon="11.3558691"><ele>262.6</ele><time>2026-03-28T11:04:44.208Z</time></trkpt><trkpt lat="43.3094539" lon="11.3559891"><ele>262.20000000000005</ele><time>2026-03-28T11:04:45.209Z</time></trkpt><trkpt lat="43.3094786" lon="11.3561105"><ele>261.8</ele><time>2026-03-28T11:04:46.209Z</time></trkpt><trkpt lat="43.3095064" lon="11.3562357"><ele>261.40000000000003</ele><time>2026-03-28T11:04:47.209Z</time></trkpt><trkpt lat="43.3095258" lon="11.3563581"><ele>261.0</ele><time>2026-03-28T11:04:48.208Z</time></trkpt><trkpt lat="43.3095294" lon="11.3564728"><ele>259.8</ele><time>2026-03-28T11:04:49.208Z</time></trkpt><trkpt lat="43.3095176" lon="11.3565829"><ele>258.6</ele><time>2026-03-28T11:04:50.207Z</time></trkpt><trkpt lat="43.3094963" lon="11.3566989"><ele>257.4</ele><time>2026-03-28T11:04:51.209Z</time></trkpt><trkpt lat="43.3094715" lon="11.3568241"><ele>256.2</ele><time>2026-03-28T11:04:52.209Z</time></trkpt><trkpt lat="43.3094418" lon="11.356955"><ele>255.0</ele><time>2026-03-28T11:04:53.208Z</time></trkpt><trkpt lat="43.3094077" lon="11.357072"><ele>255.0</ele><time>2026-03-28T11:04:54.208Z</time></trkpt><trkpt lat="43.309369" lon="11.3571801"><ele>255.0</ele><time>2026-03-28T11:04:55.209Z</time></trkpt><trkpt lat="43.309316" lon="11.3572731"><ele>255.0</ele><time>2026-03-28T11:04:56.209Z</time></trkpt><trkpt lat="43.3092392" lon="11.3573709"><ele>255.0</ele><time>2026-03-28T11:04:57.209Z</time></trkpt><trkpt lat="43.3091583" lon="11.3574547"><ele>255.0</ele><time>2026-03-28T11:04:58.208Z</time></trkpt><trkpt lat="43.3090832" lon="11.3575384"><ele>254.6</ele><time>2026-03-28T11:04:59.208Z</time></trkpt><trkpt lat="43.3090098" lon="11.3576211"><ele>254.2</ele><time>2026-03-28T11:05:00.209Z</time></trkpt><trkpt lat="43.3089423" lon="11.3576935"><ele>253.8</ele><time>2026-03-28T11:05:01.209Z</time></trkpt><trkpt lat="43.3088671" lon="11.3577659"><ele>253.4</ele><time>2026-03-28T11:05:02.208Z</time></trkpt><trkpt lat="43.3087882" lon="11.3578406"><ele>253.0</ele><time>2026-03-28T11:05:03.209Z</time></trkpt><trkpt lat="43.3087098" lon="11.3579191"><ele>251.8</ele><time>2026-03-28T11:05:04.208Z</time></trkpt><trkpt lat="43.3086306" lon="11.357995"><ele>250.60000000000002</ele><time>2026-03-28T11:05:05.209Z</time></trkpt><trkpt lat="43.3085434" lon="11.3580731"><ele>249.39999999999998</ele><time>2026-03-28T11:05:06.207Z</time></trkpt><trkpt lat="43.3084519" lon="11.3581472"><ele>248.2</ele><time>2026-03-28T11:05:07.209Z</time></trkpt><trkpt lat="43.3083555" lon="11.3582183"><ele>247.0</ele><time>2026-03-28T11:05:08.208Z</time></trkpt><trkpt lat="43.3082585" lon="11.3582999"><ele>247.0</ele><time>2026-03-28T11:05:09.208Z</time></trkpt><trkpt lat="43.3081613" lon="11.3583759"><ele>247.0</ele><time>2026-03-28T11:05:10.208Z</time></trkpt><trkpt lat="43.3080656" lon="11.3584634"><ele>247.0</ele><time>2026-03-28T11:05:11.208Z</time></trkpt><trkpt lat="43.3079751" lon="11.3585615"><ele>247.0</ele><time>2026-03-28T11:05:12.209Z</time></trkpt><trkpt lat="43.3078861" lon="11.3586656"><ele>244.75</ele><time>2026-03-28T11:05:13.208Z</time></trkpt><trkpt lat="43.3077958" lon="11.3587574"><ele>242.5</ele><time>2026-03-28T11:05:14.208Z</time></trkpt><trkpt lat="43.3077065" lon="11.358858"><ele>240.25</ele><time>2026-03-28T11:05:15.208Z</time></trkpt><trkpt lat="43.307619" lon="11.358961"><ele>238.0</ele><time>2026-03-28T11:05:16.208Z</time></trkpt><trkpt lat="43.3075327" lon="11.3590618"><ele>238.0</ele><time>2026-03-28T11:05:17.208Z</time></trkpt><trkpt lat="43.30744" lon="11.3591681"><ele>238.0</ele><time>2026-03-28T11:05:18.208Z</time></trkpt><trkpt lat="43.3073464" lon="11.3592741"><ele>238.0</ele><time>2026-03-28T11:05:19.208Z</time></trkpt><trkpt lat="43.3072537" lon="11.3593867"><ele>238.0</ele><time>2026-03-28T11:05:20.208Z</time></trkpt><trkpt lat="43.3071691" lon="11.3594884"><ele>238.60000000000002</ele><time>2026-03-28T11:05:21.208Z</time></trkpt><trkpt lat="43.3070829" lon="11.3595922"><ele>239.20000000000002</ele><time>2026-03-28T11:05:22.209Z</time></trkpt><trkpt lat="43.3069968" lon="11.3597004"><ele>239.8</ele><time>2026-03-28T11:05:23.208Z</time></trkpt><trkpt lat="43.3069134" lon="11.3598022"><ele>240.4</ele><time>2026-03-28T11:05:24.208Z</time></trkpt><trkpt lat="43.3068386" lon="11.3598944"><ele>241.0</ele><time>2026-03-28T11:05:25.209Z</time></trkpt><trkpt lat="43.3067661" lon="11.3599907"><ele>241.0</ele><time>2026-03-28T11:05:26.208Z</time></trkpt><trkpt lat="43.306697" lon="11.3601008"><ele>241.00000000000003</ele><time>2026-03-28T11:05:27.208Z</time></trkpt><trkpt lat="43.3066251" lon="11.3602131"><ele>241.00000000000003</ele><time>2026-03-28T11:05:28.208Z</time></trkpt><trkpt lat="43.3065523" lon="11.3603215"><ele>241.0</ele><time>2026-03-28T11:05:29.208Z</time></trkpt><trkpt lat="43.3064881" lon="11.3604375"><ele>241.0</ele><time>2026-03-28T11:05:30.209Z</time></trkpt><trkpt lat="43.3064195" lon="11.3605497"><ele>243.20000000000002</ele><time>2026-03-28T11:05:31.208Z</time></trkpt><trkpt lat="43.3063474" lon="11.360652"><ele>245.40000000000003</ele><time>2026-03-28T11:05:32.208Z</time></trkpt><trkpt lat="43.3062706" lon="11.3607574"><ele>247.6</ele><time>2026-03-28T11:05:33.209Z</time></trkpt><trkpt lat="43.3062028" lon="11.360868"><ele>249.8</ele><time>2026-03-28T11:05:34.208Z</time></trkpt><trkpt lat="43.3061441" lon="11.3609914"><ele>252.0</ele><time>2026-03-28T11:05:35.208Z</time></trkpt><trkpt lat="43.3060889" lon="11.3611109"><ele>252.0</ele><time>2026-03-28T11:05:36.208Z</time></trkpt><trkpt lat="43.306042" lon="11.3612202"><ele>252.0</ele><time>2026-03-28T11:05:37.209Z</time></trkpt><trkpt lat="43.305996" lon="11.3613164"><ele>252.0</ele><time>2026-03-28T11:05:38.208Z</time></trkpt><trkpt lat="43.3059479" lon="11.3614068"><ele>252.0</ele><time>2026-03-28T11:05:39.209Z</time></trkpt><trkpt lat="43.305893" lon="11.3614854"><ele>252.0</ele><time>2026-03-28T11:05:40.209Z</time></trkpt><trkpt lat="43.3058258" lon="11.3615586"><ele>252.0</ele><time>2026-03-28T11:05:41.209Z</time></trkpt><trkpt lat="43.3057478" lon="11.3616269"><ele>251.0</ele><time>2026-03-28T11:05:42.208Z</time></trkpt><trkpt lat="43.305656" lon="11.3616675"><ele>250.0</ele><time>2026-03-28T11:05:43.209Z</time></trkpt><trkpt lat="43.3055665" lon="11.3616978"><ele>249.0</ele><time>2026-03-28T11:05:44.209Z</time></trkpt><trkpt lat="43.3054744" lon="11.3617152"><ele>248.0</ele><time>2026-03-28T11:05:45.208Z</time></trkpt><trkpt lat="43.3053882" lon="11.3617269"><ele>247.0</ele><time>2026-03-28T11:05:46.208Z</time></trkpt><trkpt lat="43.3053062" lon="11.3617478"><ele>246.99999999999997</ele><time>2026-03-28T11:05:47.209Z</time></trkpt><trkpt lat="43.3052213" lon="11.3617663"><ele>247.0</ele><time>2026-03-28T11:05:48.208Z</time></trkpt><trkpt lat="43.3051447" lon="11.3617759"><ele>247.0</ele><time>2026-03-28T11:05:49.209Z</time></trkpt><trkpt lat="43.3050724" lon="11.3617909"><ele>247.0</ele><time>2026-03-28T11:05:50.209Z</time></trkpt><trkpt lat="43.3049971" lon="11.3618057"><ele>246.99999999999997</ele><time>2026-03-28T11:05:51.208Z</time></trkpt><trkpt lat="43.3049255" lon="11.3618237"><ele>247.0</ele><time>2026-03-28T11:05:52.209Z</time></trkpt><trkpt lat="43.3048478" lon="11.361835"><ele>246.99999999999997</ele><time>2026-03-28T11:05:53.208Z</time></trkpt><trkpt lat="43.3047732" lon="11.3618353"><ele>247.0</ele><time>2026-03-28T11:05:54.209Z</time></trkpt><trkpt lat="43.3046986" lon="11.3618357"><ele>247.0</ele><time>2026-03-28T11:05:55.209Z</time></trkpt><trkpt lat="43.3046168" lon="11.3618382"><ele>247.0</ele><time>2026-03-28T11:05:56.208Z</time></trkpt><trkpt lat="43.3045239" lon="11.3618576"><ele>246.99999999999997</ele><time>2026-03-28T11:05:57.208Z</time></trkpt><trkpt lat="43.3044246" lon="11.3618898"><ele>247.0</ele><time>2026-03-28T11:05:58.209Z</time></trkpt><trkpt lat="43.3043262" lon="11.3619432"><ele>245.0</ele><time>2026-03-28T11:05:59.208Z</time></trkpt><trkpt lat="43.3042258" lon="11.3620129"><ele>243.0</ele><time>2026-03-28T11:06:00.208Z</time></trkpt><trkpt lat="43.3041265" lon="11.3620831"><ele>241.0</ele><time>2026-03-28T11:06:01.208Z</time></trkpt><trkpt lat="43.3040257" lon="11.3621613"><ele>239.0</ele><time>2026-03-28T11:06:02.209Z</time></trkpt><trkpt lat="43.3039234" lon="11.3622473"><ele>240.75</ele><time>2026-03-28T11:06:03.208Z</time></trkpt><trkpt lat="43.3038238" lon="11.3623317"><ele>242.5</ele><time>2026-03-28T11:06:04.208Z</time></trkpt><trkpt lat="43.3037255" lon="11.3624146"><ele>244.25</ele><time>2026-03-28T11:06:05.208Z</time></trkpt><trkpt lat="43.3036304" lon="11.3625142"><ele>246.0</ele><time>2026-03-28T11:06:06.209Z</time></trkpt><trkpt lat="43.3035452" lon="11.3626257"><ele>246.0</ele><time>2026-03-28T11:06:07.208Z</time></trkpt><trkpt lat="43.3034792" lon="11.3627525"><ele>246.00000000000003</ele><time>2026-03-28T11:06:08.208Z</time></trkpt><trkpt lat="43.3034327" lon="11.3628871"><ele>246.00000000000003</ele><time>2026-03-28T11:06:09.208Z</time></trkpt><trkpt lat="43.3034071" lon="11.3630303"><ele>246.0</ele><time>2026-03-28T11:06:10.208Z</time></trkpt><trkpt lat="43.303392" lon="11.3631712"><ele>246.0</ele><time>2026-03-28T11:06:11.208Z</time></trkpt><trkpt lat="43.3033754" lon="11.3633092"><ele>246.0</ele><time>2026-03-28T11:06:12.209Z</time></trkpt><trkpt lat="43.3033594" lon="11.3634392"><ele>246.00000000000003</ele><time>2026-03-28T11:06:13.209Z</time></trkpt><trkpt lat="43.3033393" lon="11.3635671"><ele>246.00000000000003</ele><time>2026-03-28T11:06:14.208Z</time></trkpt><trkpt lat="43.3033062" lon="11.3636862"><ele>246.0</ele><time>2026-03-28T11:06:15.208Z</time></trkpt><trkpt lat="43.3032567" lon="11.3637938"><ele>246.0</ele><time>2026-03-28T11:06:16.208Z</time></trkpt><trkpt lat="43.3031927" lon="11.3638772"><ele>246.0</ele><time>2026-03-28T11:06:17.209Z</time></trkpt><trkpt lat="43.3031105" lon="11.3639317"><ele>246.0</ele><time>2026-03-28T11:06:18.208Z</time></trkpt><trkpt lat="43.303017" lon="11.3639616"><ele>246.0</ele><time>2026-03-28T11:06:19.208Z</time></trkpt><trkpt lat="43.3029273" lon="11.3639743"><ele>246.0</ele><time>2026-03-28T11:06:20.208Z</time></trkpt><trkpt lat="43.3028473" lon="11.3639734"><ele>246.0</ele><time>2026-03-28T11:06:21.208Z</time></trkpt><trkpt lat="43.3027808" lon="11.3639734"><ele>246.0</ele><time>2026-03-28T11:06:22.208Z</time></trkpt><trkpt lat="43.3027128" lon="11.363975"><ele>247.4</ele><time>2026-03-28T11:06:23.209Z</time></trkpt><trkpt lat="43.3026359" lon="11.3639845"><ele>248.8</ele><time>2026-03-28T11:06:24.209Z</time></trkpt><trkpt lat="43.302549" lon="11.3640036"><ele>250.20000000000002</ele><time>2026-03-28T11:06:25.208Z</time></trkpt><trkpt lat="43.3024551" lon="11.3640485"><ele>251.60000000000002</ele><time>2026-03-28T11:06:26.208Z</time></trkpt><trkpt lat="43.3023559" lon="11.3641028"><ele>253.0</ele><time>2026-03-28T11:06:27.208Z</time></trkpt><trkpt lat="43.3022611" lon="11.3641602"><ele>250.4</ele><time>2026-03-28T11:06:28.209Z</time></trkpt><trkpt lat="43.3021709" lon="11.3642216"><ele>247.8</ele><time>2026-03-28T11:06:29.208Z</time></trkpt><trkpt lat="43.3020861" lon="11.3642861"><ele>245.2</ele><time>2026-03-28T11:06:30.209Z</time></trkpt><trkpt lat="43.3020049" lon="11.364366"><ele>242.6</ele><time>2026-03-28T11:06:31.208Z</time></trkpt><trkpt lat="43.3019356" lon="11.3644632"><ele>240.0</ele><time>2026-03-28T11:06:32.207Z</time></trkpt><trkpt lat="43.3018777" lon="11.364571"><ele>240.0</ele><time>2026-03-28T11:06:33.209Z</time></trkpt><trkpt lat="43.301834" lon="11.364681"><ele>240.0</ele><time>2026-03-28T11:06:34.208Z</time></trkpt><trkpt lat="43.3017919" lon="11.364803"><ele>240.0</ele><time>2026-03-28T11:06:35.208Z</time></trkpt><trkpt lat="43.3017508" lon="11.3649362"><ele>240.0</ele><time>2026-03-28T11:06:36.209Z</time></trkpt><trkpt lat="43.3017056" lon="11.3650615"><ele>240.0</ele><time>2026-03-28T11:06:37.209Z</time></trkpt><trkpt lat="43.3016406" lon="11.365175"><ele>240.6</ele><time>2026-03-28T11:06:38.209Z</time></trkpt><trkpt lat="43.3015552" lon="11.365268"><ele>241.2</ele><time>2026-03-28T11:06:39.209Z</time></trkpt><trkpt lat="43.3014661" lon="11.3653401"><ele>241.8</ele><time>2026-03-28T11:06:40.209Z</time></trkpt><trkpt lat="43.3013779" lon="11.3654037"><ele>242.4</ele><time>2026-03-28T11:06:41.209Z</time></trkpt><trkpt lat="43.3012888" lon="11.3654578"><ele>243.0</ele><time>2026-03-28T11:06:42.208Z</time></trkpt><trkpt lat="43.3011989" lon="11.3655105"><ele>242.60000000000002</ele><time>2026-03-28T11:06:43.209Z</time></trkpt><trkpt lat="43.3011027" lon="11.365576"><ele>242.20000000000002</ele><time>2026-03-28T11:06:44.209Z</time></trkpt><trkpt lat="43.3010095" lon="11.3656361"><ele>241.8</ele><time>2026-03-28T11:06:45.208Z</time></trkpt><trkpt lat="43.3009142" lon="11.3656883"><ele>241.4</ele><time>2026-03-28T11:06:46.208Z</time></trkpt><trkpt lat="43.3008128" lon="11.3657303"><ele>241.0</ele><time>2026-03-28T11:06:47.209Z</time></trkpt><trkpt lat="43.3007091" lon="11.3657433"><ele>241.0</ele><time>2026-03-28T11:06:48.208Z</time></trkpt><trkpt lat="43.3006096" lon="11.3657405"><ele>241.00000000000003</ele><time>2026-03-28T11:06:49.208Z</time></trkpt><trkpt lat="43.3005087" lon="11.3657427"><ele>241.00000000000003</ele><time>2026-03-28T11:06:50.208Z</time></trkpt><trkpt lat="43.3004146" lon="11.3657485"><ele>241.0</ele><time>2026-03-28T11:06:51.208Z</time></trkpt><trkpt lat="43.3003138" lon="11.3657568"><ele>241.0</ele><time>2026-03-28T11:06:52.209Z</time></trkpt><trkpt lat="43.3002103" lon="11.3657744"><ele>241.60000000000002</ele><time>2026-03-28T11:06:53.208Z</time></trkpt><trkpt lat="43.3001198" lon="11.3658096"><ele>242.20000000000002</ele><time>2026-03-28T11:06:54.208Z</time></trkpt><trkpt lat="43.3000269" lon="11.3658704"><ele>242.79999999999998</ele><time>2026-03-28T11:06:55.208Z</time></trkpt><trkpt lat="43.2999428" lon="11.3659414"><ele>243.39999999999998</ele><time>2026-03-28T11:06:56.208Z</time></trkpt><trkpt lat="43.2998642" lon="11.3660225"><ele>244.0</ele><time>2026-03-28T11:06:57.209Z</time></trkpt><trkpt lat="43.2997937" lon="11.3661001"><ele>242.83333333333331</ele><time>2026-03-28T11:06:58.209Z</time></trkpt><trkpt lat="43.2997284" lon="11.3661667"><ele>241.66666666666666</ele><time>2026-03-28T11:06:59.209Z</time></trkpt><trkpt lat="43.2996688" lon="11.3662283"><ele>240.5</ele><time>2026-03-28T11:07:00.208Z</time></trkpt><trkpt lat="43.299611" lon="11.3663024"><ele>239.33333333333331</ele><time>2026-03-28T11:07:01.208Z</time></trkpt><trkpt lat="43.299541" lon="11.3663931"><ele>238.16666666666666</ele><time>2026-03-28T11:07:02.208Z</time></trkpt><trkpt lat="43.2994669" lon="11.3664865"><ele>237.0</ele><time>2026-03-28T11:07:03.208Z</time></trkpt><trkpt lat="43.2993838" lon="11.3665838"><ele>237.0</ele><time>2026-03-28T11:07:04.209Z</time></trkpt><trkpt lat="43.2993035" lon="11.3666868"><ele>237.0</ele><time>2026-03-28T11:07:05.209Z</time></trkpt><trkpt lat="43.2992308" lon="11.3667884"><ele>237.0</ele><time>2026-03-28T11:07:06.208Z</time></trkpt><trkpt lat="43.299164" lon="11.3668931"><ele>237.0</ele><time>2026-03-28T11:07:07.208Z</time></trkpt><trkpt lat="43.2990943" lon="11.3670111"><ele>237.0</ele><time>2026-03-28T11:07:08.209Z</time></trkpt><trkpt lat="43.2990345" lon="11.3671385"><ele>237.39999999999998</ele><time>2026-03-28T11:07:09.208Z</time></trkpt><trkpt lat="43.2989857" lon="11.3672684"><ele>237.79999999999998</ele><time>2026-03-28T11:07:10.208Z</time></trkpt><trkpt lat="43.2989363" lon="11.3673814"><ele>238.2</ele><time>2026-03-28T11:07:11.209Z</time></trkpt><trkpt lat="43.2988893" lon="11.3675067"><ele>238.6</ele><time>2026-03-28T11:07:12.208Z</time></trkpt><trkpt lat="43.2988446" lon="11.3676292"><ele>239.0</ele><time>2026-03-28T11:07:13.209Z</time></trkpt><trkpt lat="43.2987981" lon="11.3677581"><ele>238.2</ele><time>2026-03-28T11:07:14.208Z</time></trkpt><trkpt lat="43.2987495" lon="11.3678732"><ele>237.39999999999998</ele><time>2026-03-28T11:07:15.209Z</time></trkpt><trkpt lat="43.2986979" lon="11.3679883"><ele>236.6</ele><time>2026-03-28T11:07:16.208Z</time></trkpt><trkpt lat="43.2986452" lon="11.3680976"><ele>235.8</ele><time>2026-03-28T11:07:17.208Z</time></trkpt><trkpt lat="43.2985885" lon="11.3682068"><ele>235.0</ele><time>2026-03-28T11:07:18.209Z</time></trkpt><trkpt lat="43.2985263" lon="11.3682984"><ele>234.99999999999997</ele><time>2026-03-28T11:07:19.208Z</time></trkpt><trkpt lat="43.2984598" lon="11.36836"><ele>235.0</ele><time>2026-03-28T11:07:20.209Z</time></trkpt><trkpt lat="43.2983879" lon="11.3684146"><ele>235.0</ele><time>2026-03-28T11:07:21.208Z</time></trkpt><trkpt lat="43.2983099" lon="11.368464"><ele>235.0</ele><time>2026-03-28T11:07:22.209Z</time></trkpt><trkpt lat="43.2982299" lon="11.3685034"><ele>234.99999999999997</ele><time>2026-03-28T11:07:23.208Z</time></trkpt><trkpt lat="43.2981402" lon="11.3685295"><ele>235.0</ele><time>2026-03-28T11:07:24.209Z</time></trkpt><trkpt lat="43.2980622" lon="11.3685418"><ele>235.49999999999997</ele><time>2026-03-28T11:07:25.208Z</time></trkpt><trkpt lat="43.2979891" lon="11.3685485"><ele>236.0</ele><time>2026-03-28T11:07:26.208Z</time></trkpt><trkpt lat="43.297917" lon="11.3685368"><ele>236.5</ele><time>2026-03-28T11:07:27.208Z</time></trkpt><trkpt lat="43.2978399" lon="11.3685142"><ele>237.0</ele><time>2026-03-28T11:07:28.207Z</time></trkpt><trkpt lat="43.2977594" lon="11.368479"><ele>237.49999999999997</ele><time>2026-03-28T11:07:29.209Z</time></trkpt><trkpt lat="43.2976743" lon="11.3684348"><ele>238.0</ele><time>2026-03-28T11:07:30.208Z</time></trkpt><trkpt lat="43.2975802" lon="11.368389"><ele>238.0</ele><time>2026-03-28T11:07:31.209Z</time></trkpt><trkpt lat="43.2974939" lon="11.3683391"><ele>238.0</ele><time>2026-03-28T11:07:32.208Z</time></trkpt><trkpt lat="43.2974096" lon="11.3682854"><ele>238.0</ele><time>2026-03-28T11:07:33.209Z</time></trkpt><trkpt lat="43.2973228" lon="11.3682312"><ele>238.0</ele><time>2026-03-28T11:07:34.208Z</time></trkpt><trkpt lat="43.2972403" lon="11.368195"><ele>238.0</ele><time>2026-03-28T11:07:35.209Z</time></trkpt><trkpt lat="43.2971523" lon="11.3681591"><ele>237.4</ele><time>2026-03-28T11:07:36.208Z</time></trkpt><trkpt lat="43.2970577" lon="11.3681203"><ele>236.8</ele><time>2026-03-28T11:07:37.208Z</time></trkpt><trkpt lat="43.2969568" lon="11.3680915"><ele>236.2</ele><time>2026-03-28T11:07:38.209Z</time></trkpt><trkpt lat="43.2968507" lon="11.3680672"><ele>235.6</ele><time>2026-03-28T11:07:39.209Z</time></trkpt><trkpt lat="43.2967395" lon="11.368049"><ele>235.0</ele><time>2026-03-28T11:07:40.208Z</time></trkpt><trkpt lat="43.296624" lon="11.3680359"><ele>235.0</ele><time>2026-03-28T11:07:41.208Z</time></trkpt><trkpt lat="43.2965075" lon="11.3680417"><ele>235.0</ele><time>2026-03-28T11:07:42.209Z</time></trkpt><trkpt lat="43.296389" lon="11.3680584"><ele>235.0</ele><time>2026-03-28T11:07:43.208Z</time></trkpt><trkpt lat="43.2962732" lon="11.3680762"><ele>235.0</ele><time>2026-03-28T11:07:44.209Z</time></trkpt><trkpt lat="43.2961614" lon="11.3681054"><ele>237.0</ele><time>2026-03-28T11:07:45.208Z</time></trkpt><trkpt lat="43.2960522" lon="11.3681488"><ele>239.0</ele><time>2026-03-28T11:07:46.208Z</time></trkpt><trkpt lat="43.2959482" lon="11.3682028"><ele>241.0</ele><time>2026-03-28T11:07:47.209Z</time></trkpt><trkpt lat="43.2958457" lon="11.3682607"><ele>243.0</ele><time>2026-03-28T11:07:48.208Z</time></trkpt><trkpt lat="43.2957487" lon="11.368312"><ele>245.0</ele><time>2026-03-28T11:07:49.209Z</time></trkpt><trkpt lat="43.2956556" lon="11.368324"><ele>243.6</ele><time>2026-03-28T11:07:50.209Z</time></trkpt><trkpt lat="43.2955661" lon="11.3683354"><ele>242.2</ele><time>2026-03-28T11:07:51.209Z</time></trkpt><trkpt lat="43.2954764" lon="11.3683521"><ele>240.8</ele><time>2026-03-28T11:07:52.208Z</time></trkpt><trkpt lat="43.2953816" lon="11.3683748"><ele>239.4</ele><time>2026-03-28T11:07:53.208Z</time></trkpt><trkpt lat="43.2952877" lon="11.3684088"><ele>238.0</ele><time>2026-03-28T11:07:54.209Z</time></trkpt><trkpt lat="43.2951996" lon="11.3684542"><ele>238.0</ele><time>2026-03-28T11:07:55.208Z</time></trkpt><trkpt lat="43.2951106" lon="11.3685218"><ele>238.0</ele><time>2026-03-28T11:07:56.208Z</time></trkpt><trkpt lat="43.295022" lon="11.3686199"><ele>238.0</ele><time>2026-03-28T11:07:57.208Z</time></trkpt><trkpt lat="43.2949419" lon="11.3687404"><ele>238.0</ele><time>2026-03-28T11:07:58.208Z</time></trkpt><trkpt lat="43.2948728" lon="11.3688766"><ele>238.75</ele><time>2026-03-28T11:07:59.208Z</time></trkpt><trkpt lat="43.2948024" lon="11.3689995"><ele>239.5</ele><time>2026-03-28T11:08:00.209Z</time></trkpt><trkpt lat="43.2947177" lon="11.3691075"><ele>240.25</ele><time>2026-03-28T11:08:01.208Z</time></trkpt><trkpt lat="43.2946256" lon="11.3691957"><ele>241.0</ele><time>2026-03-28T11:08:02.208Z</time></trkpt><trkpt lat="43.2945266" lon="11.3692773"><ele>238.8</ele><time>2026-03-28T11:08:03.208Z</time></trkpt><trkpt lat="43.294425" lon="11.3693477"><ele>236.60000000000002</ele><time>2026-03-28T11:08:04.209Z</time></trkpt><trkpt lat="43.2943243" lon="11.369413"><ele>234.4</ele><time>2026-03-28T11:08:05.208Z</time></trkpt><trkpt lat="43.2942251" lon="11.3694785"><ele>232.2</ele><time>2026-03-28T11:08:06.209Z</time></trkpt><trkpt lat="43.2941264" lon="11.3695421"><ele>230.0</ele><time>2026-03-28T11:08:07.208Z</time></trkpt><trkpt lat="43.2940272" lon="11.3696067"><ele>230.0</ele><time>2026-03-28T11:08:08.209Z</time></trkpt><trkpt lat="43.2939286" lon="11.3696723"><ele>230.0</ele><time>2026-03-28T11:08:09.208Z</time></trkpt><trkpt lat="43.2938283" lon="11.3697392"><ele>230.0</ele><time>2026-03-28T11:08:10.208Z</time></trkpt><trkpt lat="43.2937281" lon="11.369801"><ele>230.0</ele><time>2026-03-28T11:08:11.208Z</time></trkpt><trkpt lat="43.2936293" lon="11.369853"><ele>230.0</ele><time>2026-03-28T11:08:12.208Z</time></trkpt><trkpt lat="43.2935277" lon="11.3698947"><ele>229.0</ele><time>2026-03-28T11:08:13.208Z</time></trkpt><trkpt lat="43.293433" lon="11.3699329"><ele>228.0</ele><time>2026-03-28T11:08:14.209Z</time></trkpt><trkpt lat="43.2933501" lon="11.3699663"><ele>227.0</ele><time>2026-03-28T11:08:15.208Z</time></trkpt><trkpt lat="43.293271" lon="11.3699952"><ele>226.0</ele><time>2026-03-28T11:08:16.209Z</time></trkpt><trkpt lat="43.2931796" lon="11.3700244"><ele>225.0</ele><time>2026-03-28T11:08:17.209Z</time></trkpt><trkpt lat="43.2930771" lon="11.3700564"><ele>224.25</ele><time>2026-03-28T11:08:18.208Z</time></trkpt><trkpt lat="43.2929609" lon="11.3700776"><ele>223.5</ele><time>2026-03-28T11:08:19.208Z</time></trkpt><trkpt lat="43.2928466" lon="11.3700795"><ele>222.75</ele><time>2026-03-28T11:08:20.209Z</time></trkpt><trkpt lat="43.2927252" lon="11.3700792"><ele>222.0</ele><time>2026-03-28T11:08:21.209Z</time></trkpt><trkpt lat="43.2926025" lon="11.3700742"><ele>222.0</ele><time>2026-03-28T11:08:22.209Z</time></trkpt><trkpt lat="43.2924799" lon="11.3700644"><ele>222.0</ele><time>2026-03-28T11:08:23.209Z</time></trkpt><trkpt lat="43.2923711" lon="11.3700536"><ele>222.0</ele><time>2026-03-28T11:08:24.209Z</time></trkpt><trkpt lat="43.2922651" lon="11.3700544"><ele>222.0</ele><time>2026-03-28T11:08:25.208Z</time></trkpt><trkpt lat="43.2921703" lon="11.3700571"><ele>222.0</ele><time>2026-03-28T11:08:26.208Z</time></trkpt><trkpt lat="43.2920762" lon="11.3700673"><ele>222.2</ele><time>2026-03-28T11:08:27.209Z</time></trkpt><trkpt lat="43.291975" lon="11.3700818"><ele>222.39999999999998</ele><time>2026-03-28T11:08:28.209Z</time></trkpt><trkpt lat="43.2918664" lon="11.3700992"><ele>222.60000000000002</ele><time>2026-03-28T11:08:29.208Z</time></trkpt><trkpt lat="43.2917498" lon="11.3701279"><ele>222.8</ele><time>2026-03-28T11:08:30.208Z</time></trkpt><trkpt lat="43.2916377" lon="11.3701744"><ele>223.0</ele><time>2026-03-28T11:08:31.207Z</time></trkpt><trkpt lat="43.2915348" lon="11.3702304"><ele>223.0</ele><time>2026-03-28T11:08:32.209Z</time></trkpt><trkpt lat="43.291442" lon="11.3702882"><ele>223.0</ele><time>2026-03-28T11:08:33.208Z</time></trkpt><trkpt lat="43.2913539" lon="11.3703495"><ele>223.0</ele><time>2026-03-28T11:08:34.208Z</time></trkpt><trkpt lat="43.291266" lon="11.3704116"><ele>223.0</ele><time>2026-03-28T11:08:35.208Z</time></trkpt><trkpt lat="43.2911873" lon="11.3704705"><ele>223.0</ele><time>2026-03-28T11:08:36.208Z</time></trkpt><trkpt lat="43.2911091" lon="11.3705234"><ele>223.33333333333331</ele><time>2026-03-28T11:08:37.207Z</time></trkpt><trkpt lat="43.2910318" lon="11.3705679"><ele>223.66666666666666</ele><time>2026-03-28T11:08:38.209Z</time></trkpt><trkpt lat="43.2909619" lon="11.3706003"><ele>224.0</ele><time>2026-03-28T11:08:39.208Z</time></trkpt><trkpt lat="43.290883" lon="11.3706299"><ele>224.33333333333331</ele><time>2026-03-28T11:08:40.209Z</time></trkpt><trkpt lat="43.2908012" lon="11.3706577"><ele>224.66666666666666</ele><time>2026-03-28T11:08:41.209Z</time></trkpt><trkpt lat="43.2907332" lon="11.3706937"><ele>225.0</ele><time>2026-03-28T11:08:42.208Z</time></trkpt><trkpt lat="43.2906593" lon="11.3707384"><ele>224.42857142857147</ele><time>2026-03-28T11:08:43.208Z</time></trkpt><trkpt lat="43.290588" lon="11.3707904"><ele>223.85714285714286</ele><time>2026-03-28T11:08:44.208Z</time></trkpt><trkpt lat="43.2905286" lon="11.3708504"><ele>223.2857142857143</ele><time>2026-03-28T11:08:45.208Z</time></trkpt><trkpt lat="43.2904836" lon="11.3709216"><ele>222.71428571428572</ele><time>2026-03-28T11:08:46.208Z</time></trkpt><trkpt lat="43.290445" lon="11.3709996"><ele>222.14285714285717</ele><time>2026-03-28T11:08:47.208Z</time></trkpt><trkpt lat="43.2904137" lon="11.3710847"><ele>221.57142857142858</ele><time>2026-03-28T11:08:48.209Z</time></trkpt><trkpt lat="43.2903806" lon="11.3711735"><ele>221.0</ele><time>2026-03-28T11:08:49.208Z</time></trkpt><trkpt lat="43.2903444" lon="11.3712519"><ele>221.00000000000003</ele><time>2026-03-28T11:08:50.209Z</time></trkpt><trkpt lat="43.2903003" lon="11.371329"><ele>221.0</ele><time>2026-03-28T11:08:51.208Z</time></trkpt><trkpt lat="43.2902424" lon="11.3713882"><ele>221.0</ele><time>2026-03-28T11:08:52.209Z</time></trkpt><trkpt lat="43.2901763" lon="11.3714305"><ele>221.0</ele><time>2026-03-28T11:08:53.209Z</time></trkpt><trkpt lat="43.2901122" lon="11.3714738"><ele>221.0</ele><time>2026-03-28T11:08:54.208Z</time></trkpt><trkpt lat="43.2900461" lon="11.3715174"><ele>221.00000000000003</ele><time>2026-03-28T11:08:55.208Z</time></trkpt><trkpt lat="43.289982" lon="11.3715776"><ele>221.0</ele><time>2026-03-28T11:08:56.208Z</time></trkpt><trkpt lat="43.2899384" lon="11.3716568"><ele>221.66666666666669</ele><time>2026-03-28T11:08:57.208Z</time></trkpt><trkpt lat="43.2899198" lon="11.371744"><ele>222.33333333333334</ele><time>2026-03-28T11:08:58.208Z</time></trkpt><trkpt lat="43.2899154" lon="11.3719101"><ele>223.0</ele><time>2026-03-28T11:09:00.208Z</time></trkpt><trkpt lat="43.2899028" lon="11.3719974"><ele>223.66666666666669</ele><time>2026-03-28T11:09:01.209Z</time></trkpt><trkpt lat="43.2898621" lon="11.3720794"><ele>224.33333333333334</ele><time>2026-03-28T11:09:02.209Z</time></trkpt><trkpt lat="43.2898041" lon="11.3721432"><ele>225.0</ele><time>2026-03-28T11:09:03.208Z</time></trkpt><trkpt lat="43.2897348" lon="11.3721931"><ele>223.66666666666666</ele><time>2026-03-28T11:09:04.207Z</time></trkpt><trkpt lat="43.2896622" lon="11.3722382"><ele>222.33333333333331</ele><time>2026-03-28T11:09:05.208Z</time></trkpt><trkpt lat="43.2895848" lon="11.3722766"><ele>221.0</ele><time>2026-03-28T11:09:06.208Z</time></trkpt><trkpt lat="43.2895059" lon="11.3723102"><ele>219.66666666666666</ele><time>2026-03-28T11:09:07.209Z</time></trkpt><trkpt lat="43.2894331" lon="11.3723481"><ele>218.33333333333331</ele><time>2026-03-28T11:09:08.209Z</time></trkpt><trkpt lat="43.2893634" lon="11.3723875"><ele>217.0</ele><time>2026-03-28T11:09:09.208Z</time></trkpt><trkpt lat="43.2892964" lon="11.3724237"><ele>216.99999999999997</ele><time>2026-03-28T11:09:10.207Z</time></trkpt><trkpt lat="43.2892292" lon="11.3724652"><ele>217.0</ele><time>2026-03-28T11:09:11.208Z</time></trkpt><trkpt lat="43.2891777" lon="11.3725372"><ele>217.0</ele><time>2026-03-28T11:09:12.208Z</time></trkpt><trkpt lat="43.2891426" lon="11.3726234"><ele>217.0</ele><time>2026-03-28T11:09:13.208Z</time></trkpt><trkpt lat="43.2891212" lon="11.3727308"><ele>216.99999999999997</ele><time>2026-03-28T11:09:14.209Z</time></trkpt><trkpt lat="43.2891107" lon="11.3728486"><ele>217.0</ele><time>2026-03-28T11:09:15.209Z</time></trkpt><trkpt lat="43.2891102" lon="11.3729703"><ele>215.6</ele><time>2026-03-28T11:09:16.208Z</time></trkpt><trkpt lat="43.2891092" lon="11.373095"><ele>214.2</ele><time>2026-03-28T11:09:17.208Z</time></trkpt><trkpt lat="43.2891039" lon="11.3732221"><ele>212.8</ele><time>2026-03-28T11:09:18.208Z</time></trkpt><trkpt lat="43.2890968" lon="11.3733615"><ele>211.4</ele><time>2026-03-28T11:09:19.209Z</time></trkpt><trkpt lat="43.2890945" lon="11.3735035"><ele>210.0</ele><time>2026-03-28T11:09:20.208Z</time></trkpt><trkpt lat="43.2890929" lon="11.3736446"><ele>210.0</ele><time>2026-03-28T11:09:21.209Z</time></trkpt><trkpt lat="43.2890916" lon="11.3737884"><ele>210.0</ele><time>2026-03-28T11:09:22.209Z</time></trkpt><trkpt lat="43.2890973" lon="11.3739332"><ele>210.0</ele><time>2026-03-28T11:09:23.208Z</time></trkpt><trkpt lat="43.2891032" lon="11.3740794"><ele>210.0</ele><time>2026-03-28T11:09:24.208Z</time></trkpt><trkpt lat="43.2891089" lon="11.374227"><ele>210.0</ele><time>2026-03-28T11:09:25.209Z</time></trkpt><trkpt lat="43.2891128" lon="11.3743808"><ele>208.0</ele><time>2026-03-28T11:09:26.207Z</time></trkpt><trkpt lat="43.2891188" lon="11.3745451"><ele>206.0</ele><time>2026-03-28T11:09:27.208Z</time></trkpt><trkpt lat="43.2891287" lon="11.3747109"><ele>204.0</ele><time>2026-03-28T11:09:28.208Z</time></trkpt><trkpt lat="43.2891374" lon="11.3748836"><ele>202.0</ele><time>2026-03-28T11:09:29.208Z</time></trkpt><trkpt lat="43.2891438" lon="11.3750594"><ele>200.0</ele><time>2026-03-28T11:09:30.209Z</time></trkpt><trkpt lat="43.2891476" lon="11.3752364"><ele>198.0</ele><time>2026-03-28T11:09:31.207Z</time></trkpt><trkpt lat="43.2891525" lon="11.3754254"><ele>196.0</ele><time>2026-03-28T11:09:32.209Z</time></trkpt><trkpt lat="43.28916" lon="11.3756148"><ele>194.0</ele><time>2026-03-28T11:09:33.208Z</time></trkpt><trkpt lat="43.2891665" lon="11.3758011"><ele>192.0</ele><time>2026-03-28T11:09:34.208Z</time></trkpt><trkpt lat="43.2891684" lon="11.3759884"><ele>190.0</ele><time>2026-03-28T11:09:35.208Z</time></trkpt><trkpt lat="43.2891689" lon="11.3761811"><ele>188.0</ele><time>2026-03-28T11:09:36.208Z</time></trkpt><trkpt lat="43.2891764" lon="11.3763729"><ele>186.0</ele><time>2026-03-28T11:09:37.208Z</time></trkpt><trkpt lat="43.2891928" lon="11.3765732"><ele>185.75</ele><time>2026-03-28T11:09:38.209Z</time></trkpt><trkpt lat="43.2892028" lon="11.376776"><ele>185.5</ele><time>2026-03-28T11:09:39.209Z</time></trkpt><trkpt lat="43.2892167" lon="11.3769692"><ele>185.25</ele><time>2026-03-28T11:09:40.209Z</time></trkpt><trkpt lat="43.2892351" lon="11.3771641"><ele>185.0</ele><time>2026-03-28T11:09:41.208Z</time></trkpt><trkpt lat="43.2892476" lon="11.377354"><ele>185.0</ele><time>2026-03-28T11:09:42.209Z</time></trkpt><trkpt lat="43.2892545" lon="11.3775221"><ele>185.0</ele><time>2026-03-28T11:09:43.207Z</time></trkpt><trkpt lat="43.2892454" lon="11.3776742"><ele>185.0</ele><time>2026-03-28T11:09:44.209Z</time></trkpt><trkpt lat="43.2892052" lon="11.3777833"><ele>185.0</ele><time>2026-03-28T11:09:45.209Z</time></trkpt><trkpt lat="43.2891623" lon="11.3778922"><ele>185.0</ele><time>2026-03-28T11:09:46.209Z</time></trkpt><trkpt lat="43.289068" lon="11.3779171"><ele>185.0</ele><time>2026-03-28T11:09:47.208Z</time></trkpt><trkpt lat="43.2889855" lon="11.3779741"><ele>185.0</ele><time>2026-03-28T11:09:48.209Z</time></trkpt><trkpt lat="43.2888978" lon="11.3780173"><ele>185.0</ele><time>2026-03-28T11:09:49.208Z</time></trkpt><trkpt lat="43.2888093" lon="11.3780676"><ele>185.0</ele><time>2026-03-28T11:09:50.209Z</time></trkpt><trkpt lat="43.2887164" lon="11.3781191"><ele>185.0</ele><time>2026-03-28T11:09:51.209Z</time></trkpt><trkpt lat="43.2886035" lon="11.3781892"><ele>187.6</ele><time>2026-03-28T11:09:52.208Z</time></trkpt><trkpt lat="43.2885121" lon="11.3782466"><ele>190.2</ele><time>2026-03-28T11:09:53.209Z</time></trkpt><trkpt lat="43.2884137" lon="11.3783198"><ele>192.8</ele><time>2026-03-28T11:09:54.208Z</time></trkpt><trkpt lat="43.2883207" lon="11.3784123"><ele>195.4</ele><time>2026-03-28T11:09:55.209Z</time></trkpt><trkpt lat="43.288245" lon="11.3784932"><ele>198.0</ele><time>2026-03-28T11:09:56.208Z</time></trkpt><trkpt lat="43.288172" lon="11.3786096"><ele>198.0</ele><time>2026-03-28T11:09:57.208Z</time></trkpt><trkpt lat="43.2881005" lon="11.3787186"><ele>198.0</ele><time>2026-03-28T11:09:58.208Z</time></trkpt><trkpt lat="43.2880482" lon="11.3788236"><ele>198.0</ele><time>2026-03-28T11:09:59.208Z</time></trkpt><trkpt lat="43.2880223" lon="11.378934"><ele>198.0</ele><time>2026-03-28T11:10:00.209Z</time></trkpt><trkpt lat="43.2880108" lon="11.3790627"><ele>198.0</ele><time>2026-03-28T11:10:01.208Z</time></trkpt><trkpt lat="43.2880075" lon="11.3791619"><ele>198.0</ele><time>2026-03-28T11:10:02.209Z</time></trkpt><trkpt lat="43.2880103" lon="11.3792513"><ele>198.0</ele><time>2026-03-28T11:10:03.208Z</time></trkpt><trkpt lat="43.2880187" lon="11.3793887"><ele>198.0</ele><time>2026-03-28T11:10:05.208Z</time></trkpt><trkpt lat="43.2880267" lon="11.3794885"><ele>198.0</ele><time>2026-03-28T11:10:24.208Z</time></trkpt><trkpt lat="43.2879848" lon="11.3795634"><ele>198.0</ele><time>2026-03-28T11:10:26.209Z</time></trkpt><trkpt lat="43.2879233" lon="11.3795977"><ele>198.0</ele><time>2026-03-28T11:10:27.209Z</time></trkpt><trkpt lat="43.2878572" lon="11.3796279"><ele>198.0</ele><time>2026-03-28T11:10:28.208Z</time></trkpt><trkpt lat="43.2877334" lon="11.3796869"><ele>198.0</ele><time>2026-03-28T11:10:30.209Z</time></trkpt><trkpt lat="43.2876457" lon="11.3797312"><ele>198.0</ele><time>2026-03-28T11:10:31.208Z</time></trkpt><trkpt lat="43.2875448" lon="11.3797752"><ele>198.0</ele><time>2026-03-28T11:10:32.208Z</time></trkpt><trkpt lat="43.2874371" lon="11.3798257"><ele>198.0</ele><time>2026-03-28T11:10:33.208Z</time></trkpt><trkpt lat="43.2873344" lon="11.3798651"><ele>198.0</ele><time>2026-03-28T11:10:34.208Z</time></trkpt><trkpt lat="43.287219" lon="11.3798877"><ele>197.25</ele><time>2026-03-28T11:10:35.208Z</time></trkpt><trkpt lat="43.287101" lon="11.3798916"><ele>196.5</ele><time>2026-03-28T11:10:36.209Z</time></trkpt><trkpt lat="43.2869898" lon="11.3798795"><ele>195.75</ele><time>2026-03-28T11:10:37.208Z</time></trkpt><trkpt lat="43.2868695" lon="11.3798598"><ele>195.0</ele><time>2026-03-28T11:10:38.209Z</time></trkpt><trkpt lat="43.2867541" lon="11.3798308"><ele>195.0</ele><time>2026-03-28T11:10:39.209Z</time></trkpt><trkpt lat="43.286643" lon="11.3798002"><ele>195.0</ele><time>2026-03-28T11:10:40.208Z</time></trkpt><trkpt lat="43.2865278" lon="11.3797638"><ele>195.0</ele><time>2026-03-28T11:10:41.209Z</time></trkpt><trkpt lat="43.2864114" lon="11.3797124"><ele>195.0</ele><time>2026-03-28T11:10:42.208Z</time></trkpt><trkpt lat="43.2862936" lon="11.3796471"><ele>195.5</ele><time>2026-03-28T11:10:43.209Z</time></trkpt><trkpt lat="43.2861759" lon="11.3795742"><ele>196.0</ele><time>2026-03-28T11:10:44.209Z</time></trkpt><trkpt lat="43.2860663" lon="11.3795032"><ele>196.5</ele><time>2026-03-28T11:10:45.207Z</time></trkpt><trkpt lat="43.2859561" lon="11.37943"><ele>197.0</ele><time>2026-03-28T11:10:46.208Z</time></trkpt><trkpt lat="43.2858536" lon="11.3793537"><ele>197.0</ele><time>2026-03-28T11:10:47.208Z</time></trkpt><trkpt lat="43.2857489" lon="11.3792761"><ele>197.0</ele><time>2026-03-28T11:10:48.209Z</time></trkpt><trkpt lat="43.2856434" lon="11.3792027"><ele>197.0</ele><time>2026-03-28T11:10:49.209Z</time></trkpt><trkpt lat="43.2855371" lon="11.3791378"><ele>197.0</ele><time>2026-03-28T11:10:50.209Z</time></trkpt><trkpt lat="43.2854251" lon="11.3790818"><ele>196.25</ele><time>2026-03-28T11:10:51.208Z</time></trkpt><trkpt lat="43.2853047" lon="11.3790421"><ele>195.5</ele><time>2026-03-28T11:10:52.208Z</time></trkpt><trkpt lat="43.2851806" lon="11.3790133"><ele>194.75</ele><time>2026-03-28T11:10:53.209Z</time></trkpt><trkpt lat="43.2850609" lon="11.3789974"><ele>194.0</ele><time>2026-03-28T11:10:54.209Z</time></trkpt><trkpt lat="43.2849366" lon="11.3789833"><ele>194.0</ele><time>2026-03-28T11:10:55.209Z</time></trkpt><trkpt lat="43.2848031" lon="11.3789675"><ele>194.0</ele><time>2026-03-28T11:10:56.208Z</time></trkpt><trkpt lat="43.2846676" lon="11.3789533"><ele>194.0</ele><time>2026-03-28T11:10:57.207Z</time></trkpt><trkpt lat="43.2845382" lon="11.3789391"><ele>194.0</ele><time>2026-03-28T11:10:58.209Z</time></trkpt><trkpt lat="43.2844098" lon="11.3789146"><ele>193.75</ele><time>2026-03-28T11:10:59.208Z</time></trkpt><trkpt lat="43.2842828" lon="11.3788838"><ele>193.5</ele><time>2026-03-28T11:11:00.208Z</time></trkpt><trkpt lat="43.2841677" lon="11.378797"><ele>193.25</ele><time>2026-03-28T11:11:01.208Z</time></trkpt><trkpt lat="43.2840684" lon="11.3786626"><ele>193.0</ele><time>2026-03-28T11:11:02.208Z</time></trkpt><trkpt lat="43.2839845" lon="11.3785172"><ele>190.0</ele><time>2026-03-28T11:11:03.209Z</time></trkpt><trkpt lat="43.2839184" lon="11.3783559"><ele>187.0</ele><time>2026-03-28T11:11:04.208Z</time></trkpt><trkpt lat="43.2838547" lon="11.3782022"><ele>184.0</ele><time>2026-03-28T11:11:05.208Z</time></trkpt><trkpt lat="43.2837698" lon="11.3780645"><ele>181.0</ele><time>2026-03-28T11:11:06.208Z</time></trkpt><trkpt lat="43.2836693" lon="11.3779452"><ele>180.5</ele><time>2026-03-28T11:11:07.209Z</time></trkpt><trkpt lat="43.2835462" lon="11.3778566"><ele>180.0</ele><time>2026-03-28T11:11:08.208Z</time></trkpt><trkpt lat="43.2834042" lon="11.3777979"><ele>179.5</ele><time>2026-03-28T11:11:09.209Z</time></trkpt><trkpt lat="43.2832653" lon="11.3777772"><ele>179.0</ele><time>2026-03-28T11:11:10.208Z</time></trkpt><trkpt lat="43.2831216" lon="11.3777833"><ele>178.75</ele><time>2026-03-28T11:11:11.208Z</time></trkpt><trkpt lat="43.2829823" lon="11.3778213"><ele>178.5</ele><time>2026-03-28T11:11:12.208Z</time></trkpt><trkpt lat="43.2828452" lon="11.3778735"><ele>178.25</ele><time>2026-03-28T11:11:13.209Z</time></trkpt><trkpt lat="43.2827169" lon="11.3779212"><ele>178.0</ele><time>2026-03-28T11:11:14.209Z</time></trkpt><trkpt lat="43.2825909" lon="11.3779476"><ele>178.0</ele><time>2026-03-28T11:11:15.208Z</time></trkpt><trkpt lat="43.2824653" lon="11.3779395"><ele>178.0</ele><time>2026-03-28T11:11:16.209Z</time></trkpt><trkpt lat="43.2823448" lon="11.3778934"><ele>178.0</ele><time>2026-03-28T11:11:17.208Z</time></trkpt><trkpt lat="43.282235" lon="11.3778174"><ele>178.0</ele><time>2026-03-28T11:11:18.208Z</time></trkpt><trkpt lat="43.282145" lon="11.3777128"><ele>177.8</ele><time>2026-03-28T11:11:19.209Z</time></trkpt><trkpt lat="43.2820695" lon="11.3775832"><ele>177.60000000000002</ele><time>2026-03-28T11:11:20.208Z</time></trkpt><trkpt lat="43.2820147" lon="11.3774395"><ele>177.39999999999998</ele><time>2026-03-28T11:11:21.208Z</time></trkpt><trkpt lat="43.2819738" lon="11.3773003"><ele>177.2</ele><time>2026-03-28T11:11:22.208Z</time></trkpt><trkpt lat="43.2819431" lon="11.3771737"><ele>177.0</ele><time>2026-03-28T11:11:23.209Z</time></trkpt><trkpt lat="43.2819165" lon="11.3770572"><ele>176.66666666666666</ele><time>2026-03-28T11:11:24.208Z</time></trkpt><trkpt lat="43.2818934" lon="11.3769637"><ele>176.33333333333334</ele><time>2026-03-28T11:11:25.208Z</time></trkpt><trkpt lat="43.281874" lon="11.3768724"><ele>176.0</ele><time>2026-03-28T11:11:26.209Z</time></trkpt><trkpt lat="43.2818663" lon="11.3767689"><ele>175.66666666666669</ele><time>2026-03-28T11:11:27.209Z</time></trkpt><trkpt lat="43.2818904" lon="11.3766567"><ele>175.33333333333334</ele><time>2026-03-28T11:11:28.208Z</time></trkpt><trkpt lat="43.2819418" lon="11.3765392"><ele>175.0</ele><time>2026-03-28T11:11:29.209Z</time></trkpt><trkpt lat="43.2819785" lon="11.3764277"><ele>175.4</ele><time>2026-03-28T11:11:30.208Z</time></trkpt><trkpt lat="43.281984" lon="11.3762955"><ele>175.8</ele><time>2026-03-28T11:11:31.208Z</time></trkpt><trkpt lat="43.2819569" lon="11.3761755"><ele>176.2</ele><time>2026-03-28T11:11:32.208Z</time></trkpt><trkpt lat="43.281895" lon="11.3760721"><ele>176.6</ele><time>2026-03-28T11:11:33.208Z</time></trkpt><trkpt lat="43.2818122" lon="11.376013"><ele>177.0</ele><time>2026-03-28T11:11:34.208Z</time></trkpt><trkpt lat="43.2817164" lon="11.3760027"><ele>177.0</ele><time>2026-03-28T11:11:35.209Z</time></trkpt><trkpt lat="43.2816256" lon="11.376042"><ele>177.0</ele><time>2026-03-28T11:11:36.209Z</time></trkpt><trkpt lat="43.2815554" lon="11.3761279"><ele>177.0</ele><time>2026-03-28T11:11:37.208Z</time></trkpt><trkpt lat="43.2814934" lon="11.3762429"><ele>177.0</ele><time>2026-03-28T11:11:38.208Z</time></trkpt><trkpt lat="43.2814178" lon="11.3763502"><ele>177.0</ele><time>2026-03-28T11:11:39.208Z</time></trkpt><trkpt lat="43.2813188" lon="11.3764252"><ele>176.75</ele><time>2026-03-28T11:11:40.208Z</time></trkpt><trkpt lat="43.2812084" lon="11.3764735"><ele>176.5</ele><time>2026-03-28T11:11:41.208Z</time></trkpt><trkpt lat="43.2810854" lon="11.3765233"><ele>176.25</ele><time>2026-03-28T11:11:42.209Z</time></trkpt><trkpt lat="43.2809599" lon="11.3765737"><ele>176.0</ele><time>2026-03-28T11:11:43.208Z</time></trkpt><trkpt lat="43.2808182" lon="11.3766255"><ele>176.0</ele><time>2026-03-28T11:11:44.209Z</time></trkpt><trkpt lat="43.2806711" lon="11.3766805"><ele>176.0</ele><time>2026-03-28T11:11:45.208Z</time></trkpt><trkpt lat="43.2805349" lon="11.3767301"><ele>176.0</ele><time>2026-03-28T11:11:46.208Z</time></trkpt><trkpt lat="43.2803901" lon="11.3767789"><ele>176.0</ele><time>2026-03-28T11:11:47.208Z</time></trkpt><trkpt lat="43.2802442" lon="11.3768216"><ele>176.75</ele><time>2026-03-28T11:11:48.208Z</time></trkpt><trkpt lat="43.2801007" lon="11.3768587"><ele>177.5</ele><time>2026-03-28T11:11:49.209Z</time></trkpt><trkpt lat="43.2799516" lon="11.3768932"><ele>178.25</ele><time>2026-03-28T11:11:50.208Z</time></trkpt><trkpt lat="43.279802" lon="11.3769188"><ele>179.0</ele><time>2026-03-28T11:11:51.208Z</time></trkpt><trkpt lat="43.2796507" lon="11.3769352"><ele>179.25</ele><time>2026-03-28T11:11:52.208Z</time></trkpt><trkpt lat="43.2795009" lon="11.3769418"><ele>179.5</ele><time>2026-03-28T11:11:53.208Z</time></trkpt><trkpt lat="43.2793504" lon="11.3769414"><ele>179.75</ele><time>2026-03-28T11:11:54.208Z</time></trkpt><trkpt lat="43.2792034" lon="11.3769395"><ele>180.0</ele><time>2026-03-28T11:11:55.209Z</time></trkpt><trkpt lat="43.2790587" lon="11.3769291"><ele>179.0</ele><time>2026-03-28T11:11:56.208Z</time></trkpt><trkpt lat="43.2789116" lon="11.3769073"><ele>178.0</ele><time>2026-03-28T11:11:57.209Z</time></trkpt><trkpt lat="43.278762" lon="11.3768791"><ele>177.0</ele><time>2026-03-28T11:11:58.208Z</time></trkpt><trkpt lat="43.2786099" lon="11.3768485"><ele>177.0</ele><time>2026-03-28T11:11:59.209Z</time></trkpt><trkpt lat="43.2784546" lon="11.3768149"><ele>177.0</ele><time>2026-03-28T11:12:00.209Z</time></trkpt><trkpt lat="43.2782959" lon="11.3767775"><ele>177.0</ele><time>2026-03-28T11:12:01.208Z</time></trkpt><trkpt lat="43.2781351" lon="11.376742"><ele>176.66666666666666</ele><time>2026-03-28T11:12:02.208Z</time></trkpt><trkpt lat="43.2779709" lon="11.3767125"><ele>176.33333333333331</ele><time>2026-03-28T11:12:03.208Z</time></trkpt><trkpt lat="43.2778053" lon="11.3766849"><ele>176.0</ele><time>2026-03-28T11:12:04.208Z</time></trkpt><trkpt lat="43.2776331" lon="11.3766587"><ele>176.0</ele><time>2026-03-28T11:12:05.207Z</time></trkpt><trkpt lat="43.2774507" lon="11.3766411"><ele>176.0</ele><time>2026-03-28T11:12:06.208Z</time></trkpt><trkpt lat="43.2772671" lon="11.3766363"><ele>176.0</ele><time>2026-03-28T11:12:07.208Z</time></trkpt><trkpt lat="43.2770973" lon="11.3766476"><ele>177.0</ele><time>2026-03-28T11:12:08.209Z</time></trkpt><trkpt lat="43.2769201" lon="11.376672"><ele>178.0</ele><time>2026-03-28T11:12:09.209Z</time></trkpt><trkpt lat="43.276743" lon="11.3767058"><ele>179.0</ele><time>2026-03-28T11:12:10.209Z</time></trkpt><trkpt lat="43.2765666" lon="11.3767502"><ele>179.33333333333331</ele><time>2026-03-28T11:12:11.209Z</time></trkpt><trkpt lat="43.2763982" lon="11.3768044"><ele>179.66666666666666</ele><time>2026-03-28T11:12:12.208Z</time></trkpt><trkpt lat="43.2762257" lon="11.376865"><ele>180.0</ele><time>2026-03-28T11:12:13.208Z</time></trkpt><trkpt lat="43.2760523" lon="11.3769262"><ele>180.0</ele><time>2026-03-28T11:12:14.208Z</time></trkpt><trkpt lat="43.2758802" lon="11.3769952"><ele>180.0</ele><time>2026-03-28T11:12:15.208Z</time></trkpt><trkpt lat="43.2757137" lon="11.3770661"><ele>180.0</ele><time>2026-03-28T11:12:16.209Z</time></trkpt><trkpt lat="43.2755522" lon="11.3771336"><ele>179.66666666666666</ele><time>2026-03-28T11:12:17.208Z</time></trkpt><trkpt lat="43.275383" lon="11.3772033"><ele>179.33333333333331</ele><time>2026-03-28T11:12:18.209Z</time></trkpt><trkpt lat="43.2752147" lon="11.3772757"><ele>179.0</ele><time>2026-03-28T11:12:19.208Z</time></trkpt><trkpt lat="43.2750446" lon="11.377349"><ele>179.0</ele><time>2026-03-28T11:12:20.209Z</time></trkpt><trkpt lat="43.2748821" lon="11.3774152"><ele>179.0</ele><time>2026-03-28T11:12:21.207Z</time></trkpt><trkpt lat="43.2747206" lon="11.3774808"><ele>179.0</ele><time>2026-03-28T11:12:22.208Z</time></trkpt><trkpt lat="43.2745693" lon="11.377545"><ele>179.66666666666666</ele><time>2026-03-28T11:12:23.208Z</time></trkpt><trkpt lat="43.2744217" lon="11.3776074"><ele>180.33333333333334</ele><time>2026-03-28T11:12:24.208Z</time></trkpt><trkpt lat="43.2742744" lon="11.3776709"><ele>181.0</ele><time>2026-03-28T11:12:25.207Z</time></trkpt><trkpt lat="43.2741212" lon="11.3777325"><ele>181.0</ele><time>2026-03-28T11:12:26.208Z</time></trkpt><trkpt lat="43.2739682" lon="11.3777947"><ele>181.0</ele><time>2026-03-28T11:12:27.208Z</time></trkpt><trkpt lat="43.2738185" lon="11.3778583"><ele>181.0</ele><time>2026-03-28T11:12:28.208Z</time></trkpt><trkpt lat="43.2736709" lon="11.3779232"><ele>179.66666666666669</ele><time>2026-03-28T11:12:29.209Z</time></trkpt><trkpt lat="43.2735238" lon="11.3779855"><ele>178.33333333333334</ele><time>2026-03-28T11:12:30.207Z</time></trkpt><trkpt lat="43.2733777" lon="11.3780458"><ele>177.0</ele><time>2026-03-28T11:12:31.209Z</time></trkpt><trkpt lat="43.2732275" lon="11.3781069"><ele>177.0</ele><time>2026-03-28T11:12:32.208Z</time></trkpt><trkpt lat="43.2730762" lon="11.3781684"><ele>177.0</ele><time>2026-03-28T11:12:33.208Z</time></trkpt><trkpt lat="43.2729228" lon="11.3782352"><ele>177.0</ele><time>2026-03-28T11:12:34.209Z</time></trkpt><trkpt lat="43.2727688" lon="11.3783009"><ele>177.0</ele><time>2026-03-28T11:12:35.209Z</time></trkpt><trkpt lat="43.2726139" lon="11.3783629"><ele>177.0</ele><time>2026-03-28T11:12:36.209Z</time></trkpt><trkpt lat="43.2724608" lon="11.378419"><ele>177.0</ele><time>2026-03-28T11:12:37.209Z</time></trkpt><trkpt lat="43.2723056" lon="11.3784753"><ele>177.0</ele><time>2026-03-28T11:12:38.209Z</time></trkpt><trkpt lat="43.2721464" lon="11.3785288"><ele>177.0</ele><time>2026-03-28T11:12:39.208Z</time></trkpt><trkpt lat="43.2719851" lon="11.378573"><ele>177.0</ele><time>2026-03-28T11:12:40.209Z</time></trkpt><trkpt lat="43.2718226" lon="11.3786047"><ele>177.0</ele><time>2026-03-28T11:12:41.208Z</time></trkpt><trkpt lat="43.2716598" lon="11.3786267"><ele>177.0</ele><time>2026-03-28T11:12:42.209Z</time></trkpt><trkpt lat="43.2714987" lon="11.3786374"><ele>177.0</ele><time>2026-03-28T11:12:43.208Z</time></trkpt><trkpt lat="43.2713386" lon="11.3786399"><ele>176.66666666666666</ele><time>2026-03-28T11:12:44.207Z</time></trkpt><trkpt lat="43.2711793" lon="11.3786349"><ele>176.33333333333331</ele><time>2026-03-28T11:12:45.208Z</time></trkpt><trkpt lat="43.271021" lon="11.3786206"><ele>176.0</ele><time>2026-03-28T11:12:46.208Z</time></trkpt><trkpt lat="43.270863" lon="11.3785957"><ele>176.0</ele><time>2026-03-28T11:12:47.208Z</time></trkpt><trkpt lat="43.2707016" lon="11.3785605"><ele>176.0</ele><time>2026-03-28T11:12:48.208Z</time></trkpt><trkpt lat="43.2705404" lon="11.3785138"><ele>176.0</ele><time>2026-03-28T11:12:49.208Z</time></trkpt><trkpt lat="43.2703815" lon="11.3784567"><ele>176.33333333333331</ele><time>2026-03-28T11:12:50.208Z</time></trkpt><trkpt lat="43.2702252" lon="11.3783906"><ele>176.66666666666666</ele><time>2026-03-28T11:12:51.209Z</time></trkpt><trkpt lat="43.270072" lon="11.3783154"><ele>177.0</ele><time>2026-03-28T11:12:52.208Z</time></trkpt><trkpt lat="43.2699235" lon="11.3782315"><ele>177.0</ele><time>2026-03-28T11:12:53.209Z</time></trkpt><trkpt lat="43.2697791" lon="11.3781392"><ele>177.0</ele><time>2026-03-28T11:12:54.208Z</time></trkpt><trkpt lat="43.2696393" lon="11.3780398"><ele>177.0</ele><time>2026-03-28T11:12:55.209Z</time></trkpt><trkpt lat="43.2695033" lon="11.3779339"><ele>179.33333333333334</ele><time>2026-03-28T11:12:56.208Z</time></trkpt><trkpt lat="43.2693735" lon="11.3778166"><ele>181.66666666666669</ele><time>2026-03-28T11:12:57.209Z</time></trkpt><trkpt lat="43.2692518" lon="11.3776839"><ele>184.0</ele><time>2026-03-28T11:12:58.209Z</time></trkpt><trkpt lat="43.2691404" lon="11.3775382"><ele>184.0</ele><time>2026-03-28T11:12:59.208Z</time></trkpt><trkpt lat="43.2690314" lon="11.3773953"><ele>184.0</ele><time>2026-03-28T11:13:00.209Z</time></trkpt><trkpt lat="43.2689297" lon="11.377275"><ele>184.0</ele><time>2026-03-28T11:13:01.209Z</time></trkpt><trkpt lat="43.268832" lon="11.3771733"><ele>184.0</ele><time>2026-03-28T11:13:02.208Z</time></trkpt><trkpt lat="43.2687334" lon="11.377087"><ele>182.75</ele><time>2026-03-28T11:13:03.208Z</time></trkpt><trkpt lat="43.2686316" lon="11.3770097"><ele>181.5</ele><time>2026-03-28T11:13:04.208Z</time></trkpt><trkpt lat="43.268529" lon="11.3769435"><ele>180.25</ele><time>2026-03-28T11:13:05.208Z</time></trkpt><trkpt lat="43.2684299" lon="11.3768857"><ele>179.0</ele><time>2026-03-28T11:13:06.209Z</time></trkpt><trkpt lat="43.2683213" lon="11.3768256"><ele>179.0</ele><time>2026-03-28T11:13:07.209Z</time></trkpt><trkpt lat="43.2682035" lon="11.376761"><ele>179.0</ele><time>2026-03-28T11:13:08.209Z</time></trkpt><trkpt lat="43.2680856" lon="11.3766967"><ele>179.0</ele><time>2026-03-28T11:13:09.208Z</time></trkpt><trkpt lat="43.2679609" lon="11.3766306"><ele>179.0</ele><time>2026-03-28T11:13:10.207Z</time></trkpt><trkpt lat="43.2678426" lon="11.3765742"><ele>178.5</ele><time>2026-03-28T11:13:11.209Z</time></trkpt><trkpt lat="43.2677246" lon="11.3765271"><ele>178.0</ele><time>2026-03-28T11:13:12.209Z</time></trkpt><trkpt lat="43.2676047" lon="11.3764921"><ele>177.5</ele><time>2026-03-28T11:13:13.208Z</time></trkpt><trkpt lat="43.2674932" lon="11.3764616"><ele>177.0</ele><time>2026-03-28T11:13:14.208Z</time></trkpt><trkpt lat="43.2673753" lon="11.3764267"><ele>176.75</ele><time>2026-03-28T11:13:15.208Z</time></trkpt><trkpt lat="43.2672548" lon="11.3763842"><ele>176.5</ele><time>2026-03-28T11:13:16.208Z</time></trkpt><trkpt lat="43.267132" lon="11.3763297"><ele>176.25</ele><time>2026-03-28T11:13:17.208Z</time></trkpt><trkpt lat="43.2670061" lon="11.3762674"><ele>176.0</ele><time>2026-03-28T11:13:18.209Z</time></trkpt><trkpt lat="43.2668768" lon="11.3762013"><ele>176.0</ele><time>2026-03-28T11:13:19.208Z</time></trkpt><trkpt lat="43.2667438" lon="11.376136"><ele>176.0</ele><time>2026-03-28T11:13:20.209Z</time></trkpt><trkpt lat="43.2666085" lon="11.3760675"><ele>176.0</ele><time>2026-03-28T11:13:21.208Z</time></trkpt><trkpt lat="43.2664736" lon="11.3759966"><ele>176.0</ele><time>2026-03-28T11:13:22.208Z</time></trkpt><trkpt lat="43.2663453" lon="11.375928"><ele>176.0</ele><time>2026-03-28T11:13:23.208Z</time></trkpt><trkpt lat="43.2662133" lon="11.37586"><ele>176.0</ele><time>2026-03-28T11:13:24.209Z</time></trkpt><trkpt lat="43.2660817" lon="11.3757934"><ele>176.0</ele><time>2026-03-28T11:13:25.208Z</time></trkpt><trkpt lat="43.2659547" lon="11.375726"><ele>176.0</ele><time>2026-03-28T11:13:26.208Z</time></trkpt><trkpt lat="43.2658293" lon="11.3756593"><ele>176.0</ele><time>2026-03-28T11:13:27.209Z</time></trkpt><trkpt lat="43.2657012" lon="11.3755896"><ele>176.0</ele><time>2026-03-28T11:13:28.208Z</time></trkpt><trkpt lat="43.2655718" lon="11.3755227"><ele>176.0</ele><time>2026-03-28T11:13:29.208Z</time></trkpt><trkpt lat="43.2654425" lon="11.3754594"><ele>176.0</ele><time>2026-03-28T11:13:30.208Z</time></trkpt><trkpt lat="43.2653186" lon="11.3753956"><ele>176.0</ele><time>2026-03-28T11:13:31.208Z</time></trkpt><trkpt lat="43.2651958" lon="11.3753325"><ele>176.0</ele><time>2026-03-28T11:13:32.208Z</time></trkpt><trkpt lat="43.2650728" lon="11.3752693"><ele>176.0</ele><time>2026-03-28T11:13:33.208Z</time></trkpt><trkpt lat="43.2649467" lon="11.3752002"><ele>176.0</ele><time>2026-03-28T11:13:34.208Z</time></trkpt><trkpt lat="43.2648198" lon="11.3751281"><ele>176.0</ele><time>2026-03-28T11:13:35.209Z</time></trkpt><trkpt lat="43.2646918" lon="11.3750524"><ele>176.0</ele><time>2026-03-28T11:13:36.208Z</time></trkpt><trkpt lat="43.2645574" lon="11.3749876"><ele>176.0</ele><time>2026-03-28T11:13:37.209Z</time></trkpt><trkpt lat="43.2644255" lon="11.3749179"><ele>176.0</ele><time>2026-03-28T11:13:38.208Z</time></trkpt><trkpt lat="43.2643051" lon="11.3748558"><ele>176.0</ele><time>2026-03-28T11:13:39.208Z</time></trkpt><trkpt lat="43.2641915" lon="11.3748038"><ele>176.0</ele><time>2026-03-28T11:13:40.209Z</time></trkpt><trkpt lat="43.2640755" lon="11.3747433"><ele>176.0</ele><time>2026-03-28T11:13:41.208Z</time></trkpt><trkpt lat="43.2639533" lon="11.3746784"><ele>176.0</ele><time>2026-03-28T11:13:42.209Z</time></trkpt><trkpt lat="43.2638264" lon="11.3746135"><ele>176.0</ele><time>2026-03-28T11:13:43.208Z</time></trkpt><trkpt lat="43.2636954" lon="11.3745434"><ele>176.0</ele><time>2026-03-28T11:13:44.209Z</time></trkpt><trkpt lat="43.2635622" lon="11.3744697"><ele>176.0</ele><time>2026-03-28T11:13:45.208Z</time></trkpt><trkpt lat="43.2634294" lon="11.3743956"><ele>176.0</ele><time>2026-03-28T11:13:46.209Z</time></trkpt><trkpt lat="43.2632907" lon="11.374323"><ele>176.0</ele><time>2026-03-28T11:13:47.208Z</time></trkpt><trkpt lat="43.2631579" lon="11.3742588"><ele>176.0</ele><time>2026-03-28T11:13:48.208Z</time></trkpt><trkpt lat="43.2630213" lon="11.3741893"><ele>176.0</ele><time>2026-03-28T11:13:49.208Z</time></trkpt><trkpt lat="43.2628972" lon="11.3741251"><ele>176.0</ele><time>2026-03-28T11:13:50.208Z</time></trkpt><trkpt lat="43.2627784" lon="11.3740637"><ele>176.20000000000002</ele><time>2026-03-28T11:13:51.208Z</time></trkpt><trkpt lat="43.2626696" lon="11.3740074"><ele>176.4</ele><time>2026-03-28T11:13:52.209Z</time></trkpt><trkpt lat="43.2625771" lon="11.3739562"><ele>176.6</ele><time>2026-03-28T11:13:53.208Z</time></trkpt><trkpt lat="43.2624971" lon="11.373905"><ele>176.8</ele><time>2026-03-28T11:13:54.209Z</time></trkpt><trkpt lat="43.2624296" lon="11.3738458"><ele>177.0</ele><time>2026-03-28T11:13:55.208Z</time></trkpt><trkpt lat="43.2623669" lon="11.3737718"><ele>177.83333333333334</ele><time>2026-03-28T11:13:56.208Z</time></trkpt><trkpt lat="43.2623208" lon="11.3736793"><ele>178.66666666666666</ele><time>2026-03-28T11:13:57.208Z</time></trkpt><trkpt lat="43.2623104" lon="11.3735748"><ele>179.5</ele><time>2026-03-28T11:13:58.209Z</time></trkpt><trkpt lat="43.2623245" lon="11.3734573"><ele>180.33333333333331</ele><time>2026-03-28T11:13:59.208Z</time></trkpt><trkpt lat="43.2623578" lon="11.3733478"><ele>181.16666666666666</ele><time>2026-03-28T11:14:00.208Z</time></trkpt><trkpt lat="43.2624063" lon="11.3732411"><ele>182.0</ele><time>2026-03-28T11:14:01.208Z</time></trkpt><trkpt lat="43.262471" lon="11.3731339"><ele>182.0</ele><time>2026-03-28T11:14:02.208Z</time></trkpt><trkpt lat="43.2625456" lon="11.3730303"><ele>182.0</ele><time>2026-03-28T11:14:03.208Z</time></trkpt><trkpt lat="43.2626247" lon="11.3729336"><ele>182.0</ele><time>2026-03-28T11:14:04.208Z</time></trkpt><trkpt lat="43.2627117" lon="11.3728319"><ele>182.0</ele><time>2026-03-28T11:14:05.208Z</time></trkpt><trkpt lat="43.262799" lon="11.3727247"><ele>182.0</ele><time>2026-03-28T11:14:06.209Z</time></trkpt><trkpt lat="43.2628909" lon="11.3726158"><ele>182.75</ele><time>2026-03-28T11:14:07.208Z</time></trkpt><trkpt lat="43.2629852" lon="11.372508"><ele>183.5</ele><time>2026-03-28T11:14:08.209Z</time></trkpt><trkpt lat="43.2630775" lon="11.3723932"><ele>184.25</ele><time>2026-03-28T11:14:09.208Z</time></trkpt><trkpt lat="43.2631673" lon="11.3722715"><ele>185.0</ele><time>2026-03-28T11:14:10.208Z</time></trkpt><trkpt lat="43.2632541" lon="11.3721442"><ele>187.25</ele><time>2026-03-28T11:14:11.209Z</time></trkpt><trkpt lat="43.2633359" lon="11.3720094"><ele>189.5</ele><time>2026-03-28T11:14:12.208Z</time></trkpt><trkpt lat="43.2634118" lon="11.3718706"><ele>191.75</ele><time>2026-03-28T11:14:13.208Z</time></trkpt><trkpt lat="43.2634687" lon="11.3717181"><ele>194.0</ele><time>2026-03-28T11:14:14.209Z</time></trkpt><trkpt lat="43.2635136" lon="11.3715519"><ele>194.0</ele><time>2026-03-28T11:14:15.208Z</time></trkpt><trkpt lat="43.2635415" lon="11.3713749"><ele>194.0</ele><time>2026-03-28T11:14:16.209Z</time></trkpt><trkpt lat="43.2635578" lon="11.3711902"><ele>194.0</ele><time>2026-03-28T11:14:17.207Z</time></trkpt><trkpt lat="43.2635646" lon="11.3709967"><ele>194.0</ele><time>2026-03-28T11:14:18.208Z</time></trkpt><trkpt lat="43.2635643" lon="11.3707977"><ele>195.0</ele><time>2026-03-28T11:14:19.208Z</time></trkpt><trkpt lat="43.2635566" lon="11.370596"><ele>196.0</ele><time>2026-03-28T11:14:20.208Z</time></trkpt><trkpt lat="43.2635482" lon="11.3703965"><ele>197.0</ele><time>2026-03-28T11:14:21.208Z</time></trkpt><trkpt lat="43.2635403" lon="11.3702015"><ele>198.0</ele><time>2026-03-28T11:14:22.208Z</time></trkpt><trkpt lat="43.2635318" lon="11.3700072"><ele>198.0</ele><time>2026-03-28T11:14:23.208Z</time></trkpt><trkpt lat="43.2635228" lon="11.3698155"><ele>198.0</ele><time>2026-03-28T11:14:24.209Z</time></trkpt><trkpt lat="43.2635135" lon="11.3696262"><ele>198.0</ele><time>2026-03-28T11:14:25.208Z</time></trkpt><trkpt lat="43.2635052" lon="11.3694401"><ele>198.0</ele><time>2026-03-28T11:14:26.209Z</time></trkpt><trkpt lat="43.2634953" lon="11.369255"><ele>197.75</ele><time>2026-03-28T11:14:27.208Z</time></trkpt><trkpt lat="43.2634859" lon="11.3690714"><ele>197.5</ele><time>2026-03-28T11:14:28.208Z</time></trkpt><trkpt lat="43.2634766" lon="11.368888"><ele>197.25</ele><time>2026-03-28T11:14:29.209Z</time></trkpt><trkpt lat="43.2634671" lon="11.3687073"><ele>197.0</ele><time>2026-03-28T11:14:30.208Z</time></trkpt><trkpt lat="43.2634583" lon="11.3685305"><ele>197.75</ele><time>2026-03-28T11:14:31.208Z</time></trkpt><trkpt lat="43.2634501" lon="11.3683527"><ele>198.5</ele><time>2026-03-28T11:14:32.208Z</time></trkpt><trkpt lat="43.2634481" lon="11.3681598"><ele>199.25</ele><time>2026-03-28T11:14:33.209Z</time></trkpt><trkpt lat="43.2634585" lon="11.3679538"><ele>200.0</ele><time>2026-03-28T11:14:34.209Z</time></trkpt><trkpt lat="43.2634898" lon="11.3677458"><ele>200.0</ele><time>2026-03-28T11:14:35.208Z</time></trkpt><trkpt lat="43.2635356" lon="11.367569"><ele>200.0</ele><time>2026-03-28T11:14:36.209Z</time></trkpt><trkpt lat="43.2635914" lon="11.3673886"><ele>200.0</ele><time>2026-03-28T11:14:37.208Z</time></trkpt><trkpt lat="43.2636582" lon="11.3672146"><ele>200.0</ele><time>2026-03-28T11:14:38.208Z</time></trkpt><trkpt lat="43.2637425" lon="11.3670555"><ele>199.0</ele><time>2026-03-28T11:14:39.208Z</time></trkpt><trkpt lat="43.2638467" lon="11.366914"><ele>198.0</ele><time>2026-03-28T11:14:40.208Z</time></trkpt><trkpt lat="43.2639649" lon="11.3667965"><ele>197.0</ele><time>2026-03-28T11:14:41.208Z</time></trkpt><trkpt lat="43.2640984" lon="11.3666983"><ele>196.0</ele><time>2026-03-28T11:14:42.208Z</time></trkpt><trkpt lat="43.2642376" lon="11.36661"><ele>199.66666666666666</ele><time>2026-03-28T11:14:43.208Z</time></trkpt><trkpt lat="43.2643883" lon="11.3665465"><ele>203.33333333333331</ele><time>2026-03-28T11:14:44.209Z</time></trkpt><trkpt lat="43.2645358" lon="11.3665254"><ele>207.0</ele><time>2026-03-28T11:14:45.209Z</time></trkpt><trkpt lat="43.2646856" lon="11.3665143"><ele>208.66666666666669</ele><time>2026-03-28T11:14:46.208Z</time></trkpt><trkpt lat="43.2648348" lon="11.3665086"><ele>210.33333333333334</ele><time>2026-03-28T11:14:47.208Z</time></trkpt><trkpt lat="43.2649885" lon="11.3665099"><ele>212.0</ele><time>2026-03-28T11:14:48.208Z</time></trkpt><trkpt lat="43.2651429" lon="11.3665093"><ele>212.0</ele><time>2026-03-28T11:14:49.208Z</time></trkpt><trkpt lat="43.2652861" lon="11.3665079"><ele>212.0</ele><time>2026-03-28T11:14:50.208Z</time></trkpt><trkpt lat="43.2654291" lon="11.3665058"><ele>212.0</ele><time>2026-03-28T11:14:51.209Z</time></trkpt><trkpt lat="43.2655713" lon="11.3664913"><ele>212.0</ele><time>2026-03-28T11:14:52.209Z</time></trkpt><trkpt lat="43.2657119" lon="11.3664619"><ele>212.0</ele><time>2026-03-28T11:14:53.209Z</time></trkpt><trkpt lat="43.2658531" lon="11.3664253"><ele>212.0</ele><time>2026-03-28T11:14:54.208Z</time></trkpt><trkpt lat="43.2659802" lon="11.3663879"><ele>212.0</ele><time>2026-03-28T11:14:55.208Z</time></trkpt><trkpt lat="43.2661051" lon="11.3663432"><ele>212.0</ele><time>2026-03-28T11:14:56.208Z</time></trkpt><trkpt lat="43.2662295" lon="11.3662964"><ele>212.0</ele><time>2026-03-28T11:14:57.208Z</time></trkpt><trkpt lat="43.2663566" lon="11.3662517"><ele>212.0</ele><time>2026-03-28T11:14:58.208Z</time></trkpt><trkpt lat="43.2664844" lon="11.3662032"><ele>212.0</ele><time>2026-03-28T11:14:59.208Z</time></trkpt><trkpt lat="43.2666179" lon="11.3661518"><ele>212.0</ele><time>2026-03-28T11:15:00.209Z</time></trkpt><trkpt lat="43.2667543" lon="11.3660971"><ele>213.25</ele><time>2026-03-28T11:15:01.209Z</time></trkpt><trkpt lat="43.2668882" lon="11.3660323"><ele>214.5</ele><time>2026-03-28T11:15:02.208Z</time></trkpt><trkpt lat="43.2670081" lon="11.3659596"><ele>215.75</ele><time>2026-03-28T11:15:03.209Z</time></trkpt><trkpt lat="43.2671263" lon="11.3658792"><ele>217.0</ele><time>2026-03-28T11:15:04.208Z</time></trkpt><trkpt lat="43.2672363" lon="11.3657926"><ele>216.75</ele><time>2026-03-28T11:15:05.208Z</time></trkpt><trkpt lat="43.2673454" lon="11.365694"><ele>216.5</ele><time>2026-03-28T11:15:06.209Z</time></trkpt><trkpt lat="43.2674572" lon="11.3655859"><ele>216.25</ele><time>2026-03-28T11:15:07.208Z</time></trkpt><trkpt lat="43.2675661" lon="11.3654653"><ele>216.0</ele><time>2026-03-28T11:15:08.209Z</time></trkpt><trkpt lat="43.2676706" lon="11.3653314"><ele>215.0</ele><time>2026-03-28T11:15:09.209Z</time></trkpt><trkpt lat="43.2677709" lon="11.36519"><ele>214.0</ele><time>2026-03-28T11:15:10.208Z</time></trkpt><trkpt lat="43.2678691" lon="11.3650453"><ele>213.0</ele><time>2026-03-28T11:15:11.208Z</time></trkpt><trkpt lat="43.2679649" lon="11.3648949"><ele>212.0</ele><time>2026-03-28T11:15:12.209Z</time></trkpt><trkpt lat="43.2680582" lon="11.3647382"><ele>213.0</ele><time>2026-03-28T11:15:13.208Z</time></trkpt><trkpt lat="43.2681525" lon="11.3645804"><ele>214.0</ele><time>2026-03-28T11:15:14.208Z</time></trkpt><trkpt lat="43.2682489" lon="11.3644236"><ele>215.0</ele><time>2026-03-28T11:15:15.209Z</time></trkpt><trkpt lat="43.2683489" lon="11.3642639"><ele>215.0</ele><time>2026-03-28T11:15:16.209Z</time></trkpt><trkpt lat="43.2684496" lon="11.3641026"><ele>215.0</ele><time>2026-03-28T11:15:17.208Z</time></trkpt><trkpt lat="43.2685516" lon="11.3639391"><ele>215.0</ele><time>2026-03-28T11:15:18.207Z</time></trkpt><trkpt lat="43.2686562" lon="11.3637741"><ele>215.66666666666669</ele><time>2026-03-28T11:15:19.208Z</time></trkpt><trkpt lat="43.2687651" lon="11.3636125"><ele>216.33333333333331</ele><time>2026-03-28T11:15:20.208Z</time></trkpt><trkpt lat="43.2688744" lon="11.363451"><ele>217.0</ele><time>2026-03-28T11:15:21.208Z</time></trkpt><trkpt lat="43.2689814" lon="11.3632907"><ele>217.0</ele><time>2026-03-28T11:15:22.209Z</time></trkpt><trkpt lat="43.2690895" lon="11.3631314"><ele>217.0</ele><time>2026-03-28T11:15:23.209Z</time></trkpt><trkpt lat="43.2692022" lon="11.3629665"><ele>217.0</ele><time>2026-03-28T11:15:24.209Z</time></trkpt><trkpt lat="43.2693147" lon="11.3628004"><ele>217.5</ele><time>2026-03-28T11:15:25.209Z</time></trkpt><trkpt lat="43.2694192" lon="11.3626492"><ele>218.0</ele><time>2026-03-28T11:15:26.208Z</time></trkpt><trkpt lat="43.2695076" lon="11.3625167"><ele>218.5</ele><time>2026-03-28T11:15:27.209Z</time></trkpt><trkpt lat="43.2695914" lon="11.3623968"><ele>219.0</ele><time>2026-03-28T11:15:28.208Z</time></trkpt><trkpt lat="43.2696674" lon="11.3622899"><ele>220.39999999999998</ele><time>2026-03-28T11:15:29.208Z</time></trkpt><trkpt lat="43.2697351" lon="11.3621942"><ele>221.79999999999998</ele><time>2026-03-28T11:15:30.208Z</time></trkpt><trkpt lat="43.2698011" lon="11.3621007"><ele>223.20000000000002</ele><time>2026-03-28T11:15:31.209Z</time></trkpt><trkpt lat="43.2698647" lon="11.3620084"><ele>224.60000000000002</ele><time>2026-03-28T11:15:32.208Z</time></trkpt><trkpt lat="43.2699177" lon="11.3619197"><ele>226.0</ele><time>2026-03-28T11:15:33.209Z</time></trkpt><trkpt lat="43.2699703" lon="11.3618261"><ele>226.0</ele><time>2026-03-28T11:15:34.208Z</time></trkpt><trkpt lat="43.2700197" lon="11.3617236"><ele>226.00000000000003</ele><time>2026-03-28T11:15:35.208Z</time></trkpt><trkpt lat="43.270064" lon="11.3616119"><ele>226.00000000000003</ele><time>2026-03-28T11:15:36.209Z</time></trkpt><trkpt lat="43.2701069" lon="11.3614964"><ele>226.0</ele><time>2026-03-28T11:15:37.208Z</time></trkpt><trkpt lat="43.2701422" lon="11.3613889"><ele>226.0</ele><time>2026-03-28T11:15:38.209Z</time></trkpt><trkpt lat="43.2701749" lon="11.3612744"><ele>225.60000000000002</ele><time>2026-03-28T11:15:39.208Z</time></trkpt><trkpt lat="43.2702069" lon="11.3611584"><ele>225.20000000000002</ele><time>2026-03-28T11:15:40.208Z</time></trkpt><trkpt lat="43.2702404" lon="11.3610354"><ele>224.79999999999998</ele><time>2026-03-28T11:15:41.208Z</time></trkpt><trkpt lat="43.2702768" lon="11.3609056"><ele>224.39999999999998</ele><time>2026-03-28T11:15:42.208Z</time></trkpt><trkpt lat="43.2703139" lon="11.3607728"><ele>224.0</ele><time>2026-03-28T11:15:43.208Z</time></trkpt><trkpt lat="43.2703495" lon="11.3606431"><ele>223.79999999999998</ele><time>2026-03-28T11:15:44.207Z</time></trkpt><trkpt lat="43.2703891" lon="11.3605079"><ele>223.59999999999997</ele><time>2026-03-28T11:15:45.209Z</time></trkpt><trkpt lat="43.2704333" lon="11.3603746"><ele>223.4</ele><time>2026-03-28T11:15:46.208Z</time></trkpt><trkpt lat="43.2704713" lon="11.3602351"><ele>223.2</ele><time>2026-03-28T11:15:47.208Z</time></trkpt><trkpt lat="43.2705128" lon="11.3600933"><ele>223.0</ele><time>2026-03-28T11:15:48.208Z</time></trkpt><trkpt lat="43.2705594" lon="11.3599386"><ele>223.0</ele><time>2026-03-28T11:15:49.208Z</time></trkpt><trkpt lat="43.2706059" lon="11.3597686"><ele>223.0</ele><time>2026-03-28T11:15:50.208Z</time></trkpt><trkpt lat="43.2706525" lon="11.3596004"><ele>223.0</ele><time>2026-03-28T11:15:51.208Z</time></trkpt><trkpt lat="43.2707002" lon="11.3594378"><ele>223.0</ele><time>2026-03-28T11:15:52.208Z</time></trkpt><trkpt lat="43.270744" lon="11.3592834"><ele>223.5</ele><time>2026-03-28T11:15:53.208Z</time></trkpt><trkpt lat="43.2707878" lon="11.3591272"><ele>224.0</ele><time>2026-03-28T11:15:54.208Z</time></trkpt><trkpt lat="43.2708325" lon="11.358967"><ele>224.5</ele><time>2026-03-28T11:15:55.208Z</time></trkpt><trkpt lat="43.2708835" lon="11.3588127"><ele>225.0</ele><time>2026-03-28T11:15:56.208Z</time></trkpt><trkpt lat="43.2709443" lon="11.3586602"><ele>225.5</ele><time>2026-03-28T11:15:57.208Z</time></trkpt><trkpt lat="43.2710196" lon="11.3585121"><ele>226.0</ele><time>2026-03-28T11:15:58.209Z</time></trkpt><trkpt lat="43.2711079" lon="11.3583704"><ele>226.5</ele><time>2026-03-28T11:15:59.209Z</time></trkpt><trkpt lat="43.2711932" lon="11.3582471"><ele>227.0</ele><time>2026-03-28T11:16:00.208Z</time></trkpt><trkpt lat="43.2712849" lon="11.3581262"><ele>226.8</ele><time>2026-03-28T11:16:01.209Z</time></trkpt><trkpt lat="43.2713761" lon="11.3580171"><ele>226.6</ele><time>2026-03-28T11:16:02.208Z</time></trkpt><trkpt lat="43.2714633" lon="11.3579201"><ele>226.40000000000003</ele><time>2026-03-28T11:16:03.209Z</time></trkpt><trkpt lat="43.2715451" lon="11.3578289"><ele>226.20000000000002</ele><time>2026-03-28T11:16:04.209Z</time></trkpt><trkpt lat="43.2716252" lon="11.3577371"><ele>226.0</ele><time>2026-03-28T11:16:05.208Z</time></trkpt><trkpt lat="43.2717024" lon="11.3576544"><ele>225.4</ele><time>2026-03-28T11:16:06.208Z</time></trkpt><trkpt lat="43.2717631" lon="11.3575896"><ele>224.8</ele><time>2026-03-28T11:16:07.207Z</time></trkpt><trkpt lat="43.2717907" lon="11.3574354"><ele>224.20000000000002</ele><time>2026-03-28T11:16:09.209Z</time></trkpt><trkpt lat="43.2717063" lon="11.357312"><ele>223.60000000000002</ele><time>2026-03-28T11:16:11.208Z</time></trkpt><trkpt lat="43.2716113" lon="11.3572169"><ele>223.0</ele><time>2026-03-28T11:16:13.209Z</time></trkpt><trkpt lat="43.27153" lon="11.3571285"><ele>223.0</ele><time>2026-03-28T11:16:15.209Z</time></trkpt><trkpt lat="43.2714785" lon="11.3570736"><ele>223.0</ele><time>2026-03-28T11:16:16.209Z</time></trkpt><trkpt lat="43.2713983" lon="11.3569896"><ele>223.0</ele><time>2026-03-28T11:16:18.208Z</time></trkpt><trkpt lat="43.2713251" lon="11.3569096"><ele>223.0</ele><time>2026-03-28T11:16:20.208Z</time></trkpt><trkpt lat="43.2712345" lon="11.3568083"><ele>223.0</ele><time>2026-03-28T11:16:22.209Z</time></trkpt><trkpt lat="43.271143" lon="11.3567128"><ele>222.85714285714286</ele><time>2026-03-28T11:16:24.208Z</time></trkpt><trkpt lat="43.2710929" lon="11.3566593"><ele>222.71428571428572</ele><time>2026-03-28T11:16:25.208Z</time></trkpt><trkpt lat="43.2710376" lon="11.3566048"><ele>222.57142857142856</ele><time>2026-03-28T11:16:26.208Z</time></trkpt><trkpt lat="43.2709736" lon="11.3565382"><ele>222.42857142857144</ele><time>2026-03-28T11:16:27.208Z</time></trkpt><trkpt lat="43.2709096" lon="11.3564759"><ele>222.2857142857143</ele><time>2026-03-28T11:16:28.209Z</time></trkpt><trkpt lat="43.2708506" lon="11.3564204"><ele>222.14285714285714</ele><time>2026-03-28T11:16:29.208Z</time></trkpt><trkpt lat="43.2707914" lon="11.356361"><ele>222.0</ele><time>2026-03-28T11:16:30.208Z</time></trkpt><trkpt lat="43.2707284" lon="11.3562974"><ele>220.33333333333334</ele><time>2026-03-28T11:16:31.207Z</time></trkpt><trkpt lat="43.2706629" lon="11.3562256"><ele>218.66666666666669</ele><time>2026-03-28T11:16:32.208Z</time></trkpt><trkpt lat="43.2705884" lon="11.3561442"><ele>217.0</ele><time>2026-03-28T11:16:33.208Z</time></trkpt><trkpt lat="43.2705148" lon="11.3560701"><ele>215.33333333333334</ele><time>2026-03-28T11:16:34.209Z</time></trkpt><trkpt lat="43.2704386" lon="11.3560044"><ele>213.66666666666669</ele><time>2026-03-28T11:16:35.209Z</time></trkpt><trkpt lat="43.2703626" lon="11.3559602"><ele>212.0</ele><time>2026-03-28T11:16:36.208Z</time></trkpt><trkpt lat="43.2702843" lon="11.3559339"><ele>211.66666666666669</ele><time>2026-03-28T11:16:37.209Z</time></trkpt><trkpt lat="43.2702023" lon="11.3559204"><ele>211.33333333333334</ele><time>2026-03-28T11:16:38.208Z</time></trkpt><trkpt lat="43.2701189" lon="11.3559185"><ele>211.0</ele><time>2026-03-28T11:16:39.209Z</time></trkpt><trkpt lat="43.2700311" lon="11.3559185"><ele>210.66666666666669</ele><time>2026-03-28T11:16:40.208Z</time></trkpt><trkpt lat="43.2699436" lon="11.3559221"><ele>210.33333333333334</ele><time>2026-03-28T11:16:41.208Z</time></trkpt><trkpt lat="43.2698489" lon="11.3559369"><ele>210.0</ele><time>2026-03-28T11:16:42.208Z</time></trkpt><trkpt lat="43.2697512" lon="11.3559651"><ele>207.6</ele><time>2026-03-28T11:16:43.208Z</time></trkpt><trkpt lat="43.2696578" lon="11.3560093"><ele>205.2</ele><time>2026-03-28T11:16:44.209Z</time></trkpt><trkpt lat="43.2695695" lon="11.3560663"><ele>202.8</ele><time>2026-03-28T11:16:45.209Z</time></trkpt><trkpt lat="43.2694876" lon="11.3561287"><ele>200.4</ele><time>2026-03-28T11:16:46.209Z</time></trkpt><trkpt lat="43.2694099" lon="11.3561917"><ele>198.0</ele><time>2026-03-28T11:16:47.208Z</time></trkpt><trkpt lat="43.2693371" lon="11.3562731"><ele>198.0</ele><time>2026-03-28T11:16:48.209Z</time></trkpt><trkpt lat="43.2692671" lon="11.3563688"><ele>198.0</ele><time>2026-03-28T11:16:49.208Z</time></trkpt><trkpt lat="43.2691965" lon="11.3564827"><ele>198.0</ele><time>2026-03-28T11:16:50.208Z</time></trkpt><trkpt lat="43.2691343" lon="11.3566051"><ele>198.0</ele><time>2026-03-28T11:16:51.208Z</time></trkpt><trkpt lat="43.269077" lon="11.3567358"><ele>198.0</ele><time>2026-03-28T11:16:52.209Z</time></trkpt><trkpt lat="43.269029" lon="11.3568738"><ele>198.8</ele><time>2026-03-28T11:16:53.208Z</time></trkpt><trkpt lat="43.2689931" lon="11.3570124"><ele>199.60000000000002</ele><time>2026-03-28T11:16:54.209Z</time></trkpt><trkpt lat="43.2689689" lon="11.3571539"><ele>200.39999999999998</ele><time>2026-03-28T11:16:55.208Z</time></trkpt><trkpt lat="43.2689533" lon="11.3573051"><ele>201.2</ele><time>2026-03-28T11:16:56.208Z</time></trkpt><trkpt lat="43.268946" lon="11.3574606"><ele>202.0</ele><time>2026-03-28T11:16:57.208Z</time></trkpt><trkpt lat="43.268939" lon="11.3576191"><ele>198.75</ele><time>2026-03-28T11:16:58.208Z</time></trkpt><trkpt lat="43.2689343" lon="11.3577814"><ele>195.5</ele><time>2026-03-28T11:16:59.209Z</time></trkpt><trkpt lat="43.2689324" lon="11.3579434"><ele>192.25</ele><time>2026-03-28T11:17:00.208Z</time></trkpt><trkpt lat="43.2689296" lon="11.3581051"><ele>189.0</ele><time>2026-03-28T11:17:01.208Z</time></trkpt><trkpt lat="43.2689218" lon="11.358267"><ele>189.0</ele><time>2026-03-28T11:17:02.208Z</time></trkpt><trkpt lat="43.2689019" lon="11.3584199"><ele>189.0</ele><time>2026-03-28T11:17:03.209Z</time></trkpt><trkpt lat="43.2688666" lon="11.3585705"><ele>189.0</ele><time>2026-03-28T11:17:04.208Z</time></trkpt><trkpt lat="43.2688186" lon="11.3587205"><ele>189.0</ele><time>2026-03-28T11:17:05.208Z</time></trkpt><trkpt lat="43.2687622" lon="11.3588538"><ele>189.25</ele><time>2026-03-28T11:17:06.208Z</time></trkpt><trkpt lat="43.2686877" lon="11.3589831"><ele>189.5</ele><time>2026-03-28T11:17:07.208Z</time></trkpt><trkpt lat="43.2686027" lon="11.359102"><ele>189.75</ele><time>2026-03-28T11:17:08.208Z</time></trkpt><trkpt lat="43.2685009" lon="11.3592043"><ele>190.0</ele><time>2026-03-28T11:17:09.207Z</time></trkpt><trkpt lat="43.2683879" lon="11.3592796"><ele>190.0</ele><time>2026-03-28T11:17:10.207Z</time></trkpt><trkpt lat="43.2682608" lon="11.3593371"><ele>190.0</ele><time>2026-03-28T11:17:11.208Z</time></trkpt><trkpt lat="43.268131" lon="11.3593872"><ele>190.0</ele><time>2026-03-28T11:17:12.207Z</time></trkpt><trkpt lat="43.2679967" lon="11.3594035"><ele>190.0</ele><time>2026-03-28T11:17:13.207Z</time></trkpt><trkpt lat="43.2678638" lon="11.3593916"><ele>189.0</ele><time>2026-03-28T11:17:14.207Z</time></trkpt><trkpt lat="43.2677308" lon="11.3593562"><ele>188.0</ele><time>2026-03-28T11:17:15.208Z</time></trkpt><trkpt lat="43.267603" lon="11.3592995"><ele>187.0</ele><time>2026-03-28T11:17:16.207Z</time></trkpt><trkpt lat="43.2674768" lon="11.3592454"><ele>186.0</ele><time>2026-03-28T11:17:17.208Z</time></trkpt><trkpt lat="43.267348" lon="11.3591914"><ele>185.75</ele><time>2026-03-28T11:17:18.207Z</time></trkpt><trkpt lat="43.2672216" lon="11.3591391"><ele>185.5</ele><time>2026-03-28T11:17:19.207Z</time></trkpt><trkpt lat="43.2670948" lon="11.359089"><ele>185.25</ele><time>2026-03-28T11:17:20.207Z</time></trkpt><trkpt lat="43.2669679" lon="11.3590382"><ele>185.0</ele><time>2026-03-28T11:17:21.207Z</time></trkpt><trkpt lat="43.2668407" lon="11.3589873"><ele>185.0</ele><time>2026-03-28T11:17:22.208Z</time></trkpt><trkpt lat="43.266712" lon="11.358935"><ele>185.0</ele><time>2026-03-28T11:17:23.207Z</time></trkpt><trkpt lat="43.2665842" lon="11.3588747"><ele>185.0</ele><time>2026-03-28T11:17:24.208Z</time></trkpt><trkpt lat="43.2664543" lon="11.358816"><ele>185.0</ele><time>2026-03-28T11:17:25.207Z</time></trkpt><trkpt lat="43.2663267" lon="11.3587645"><ele>185.0</ele><time>2026-03-28T11:17:26.208Z</time></trkpt><trkpt lat="43.2661922" lon="11.3587123"><ele>185.0</ele><time>2026-03-28T11:17:27.208Z</time></trkpt><trkpt lat="43.2660516" lon="11.358657"><ele>185.0</ele><time>2026-03-28T11:17:28.207Z</time></trkpt><trkpt lat="43.2659058" lon="11.3585951"><ele>185.0</ele><time>2026-03-28T11:17:29.207Z</time></trkpt><trkpt lat="43.2657622" lon="11.3585344"><ele>185.0</ele><time>2026-03-28T11:17:30.208Z</time></trkpt><trkpt lat="43.2656281" lon="11.358473"><ele>185.0</ele><time>2026-03-28T11:17:31.207Z</time></trkpt><trkpt lat="43.2654989" lon="11.3584137"><ele>185.0</ele><time>2026-03-28T11:17:32.208Z</time></trkpt><trkpt lat="43.265378" lon="11.3583587"><ele>185.0</ele><time>2026-03-28T11:17:33.208Z</time></trkpt><trkpt lat="43.2652694" lon="11.3583133"><ele>184.8</ele><time>2026-03-28T11:17:34.207Z</time></trkpt><trkpt lat="43.2651667" lon="11.3582767"><ele>184.6</ele><time>2026-03-28T11:17:35.207Z</time></trkpt><trkpt lat="43.2650652" lon="11.3582357"><ele>184.39999999999998</ele><time>2026-03-28T11:17:36.207Z</time></trkpt><trkpt lat="43.2649692" lon="11.3582013"><ele>184.2</ele><time>2026-03-28T11:17:37.208Z</time></trkpt><trkpt lat="43.2648824" lon="11.3582069"><ele>184.0</ele><time>2026-03-28T11:17:38.208Z</time></trkpt><trkpt lat="43.2647932" lon="11.3582315"><ele>184.6</ele><time>2026-03-28T11:17:39.208Z</time></trkpt><trkpt lat="43.2647064" lon="11.3582828"><ele>185.2</ele><time>2026-03-28T11:17:40.208Z</time></trkpt><trkpt lat="43.2646219" lon="11.3583665"><ele>185.79999999999998</ele><time>2026-03-28T11:17:41.208Z</time></trkpt><trkpt lat="43.2645499" lon="11.3584803"><ele>186.39999999999998</ele><time>2026-03-28T11:17:42.207Z</time></trkpt><trkpt lat="43.2644736" lon="11.3586115"><ele>187.0</ele><time>2026-03-28T11:17:43.208Z</time></trkpt><trkpt lat="43.2643931" lon="11.3587573"><ele>186.25</ele><time>2026-03-28T11:17:44.208Z</time></trkpt><trkpt lat="43.2643061" lon="11.3589118"><ele>185.5</ele><time>2026-03-28T11:17:45.207Z</time></trkpt><trkpt lat="43.2642065" lon="11.3590606"><ele>184.75</ele><time>2026-03-28T11:17:46.207Z</time></trkpt><trkpt lat="43.2641016" lon="11.3591839"><ele>184.0</ele><time>2026-03-28T11:17:47.208Z</time></trkpt><trkpt lat="43.2639924" lon="11.3592822"><ele>183.75</ele><time>2026-03-28T11:17:48.207Z</time></trkpt><trkpt lat="43.2638741" lon="11.359369"><ele>183.5</ele><time>2026-03-28T11:17:49.207Z</time></trkpt><trkpt lat="43.263756" lon="11.3594519"><ele>183.25</ele><time>2026-03-28T11:17:50.207Z</time></trkpt><trkpt lat="43.2636355" lon="11.359537"><ele>183.0</ele><time>2026-03-28T11:17:51.207Z</time></trkpt><trkpt lat="43.2635174" lon="11.3596282"><ele>182.75</ele><time>2026-03-28T11:17:52.207Z</time></trkpt><trkpt lat="43.2633992" lon="11.3597289"><ele>182.5</ele><time>2026-03-28T11:17:53.208Z</time></trkpt><trkpt lat="43.2632866" lon="11.3598424"><ele>182.25</ele><time>2026-03-28T11:17:54.207Z</time></trkpt><trkpt lat="43.2631753" lon="11.3599628"><ele>182.0</ele><time>2026-03-28T11:17:55.207Z</time></trkpt><trkpt lat="43.2630644" lon="11.3600776"><ele>182.25</ele><time>2026-03-28T11:17:56.207Z</time></trkpt><trkpt lat="43.2629548" lon="11.3601953"><ele>182.5</ele><time>2026-03-28T11:17:57.207Z</time></trkpt><trkpt lat="43.2628461" lon="11.360316"><ele>182.75</ele><time>2026-03-28T11:17:58.207Z</time></trkpt><trkpt lat="43.2627374" lon="11.360435"><ele>183.0</ele><time>2026-03-28T11:17:59.207Z</time></trkpt><trkpt lat="43.2626305" lon="11.3605647"><ele>183.0</ele><time>2026-03-28T11:18:00.207Z</time></trkpt><trkpt lat="43.262524" lon="11.3606961"><ele>183.0</ele><time>2026-03-28T11:18:01.208Z</time></trkpt><trkpt lat="43.2624162" lon="11.3608305"><ele>183.0</ele><time>2026-03-28T11:18:02.207Z</time></trkpt><trkpt lat="43.2623111" lon="11.3609692"><ele>183.0</ele><time>2026-03-28T11:18:03.207Z</time></trkpt><trkpt lat="43.2622071" lon="11.3611094"><ele>182.75</ele><time>2026-03-28T11:18:04.207Z</time></trkpt><trkpt lat="43.262095" lon="11.3612415"><ele>182.5</ele><time>2026-03-28T11:18:05.207Z</time></trkpt><trkpt lat="43.2619742" lon="11.3613595"><ele>182.25</ele><time>2026-03-28T11:18:06.206Z</time></trkpt><trkpt lat="43.2618455" lon="11.3614737"><ele>182.0</ele><time>2026-03-28T11:18:07.207Z</time></trkpt><trkpt lat="43.2617121" lon="11.3615783"><ele>182.0</ele><time>2026-03-28T11:18:08.208Z</time></trkpt><trkpt lat="43.2615757" lon="11.3616746"><ele>182.0</ele><time>2026-03-28T11:18:09.206Z</time></trkpt><trkpt lat="43.2614328" lon="11.3617584"><ele>182.0</ele><time>2026-03-28T11:18:10.207Z</time></trkpt><trkpt lat="43.2612873" lon="11.3618368"><ele>182.0</ele><time>2026-03-28T11:18:11.206Z</time></trkpt><trkpt lat="43.2611395" lon="11.3618977"><ele>182.0</ele><time>2026-03-28T11:18:12.207Z</time></trkpt><trkpt lat="43.2609882" lon="11.361942"><ele>182.0</ele><time>2026-03-28T11:18:13.207Z</time></trkpt><trkpt lat="43.2608322" lon="11.3619673"><ele>182.0</ele><time>2026-03-28T11:18:14.207Z</time></trkpt><trkpt lat="43.2606763" lon="11.3619726"><ele>182.0</ele><time>2026-03-28T11:18:15.208Z</time></trkpt><trkpt lat="43.2605245" lon="11.3619522"><ele>182.0</ele><time>2026-03-28T11:18:16.208Z</time></trkpt><trkpt lat="43.2603729" lon="11.361919"><ele>183.0</ele><time>2026-03-28T11:18:17.207Z</time></trkpt><trkpt lat="43.2602201" lon="11.3618786"><ele>184.0</ele><time>2026-03-28T11:18:18.208Z</time></trkpt><trkpt lat="43.2600707" lon="11.3618327"><ele>185.0</ele><time>2026-03-28T11:18:19.207Z</time></trkpt><trkpt lat="43.25992" lon="11.3617872"><ele>187.66666666666666</ele><time>2026-03-28T11:18:20.207Z</time></trkpt><trkpt lat="43.2597715" lon="11.3617356"><ele>190.33333333333331</ele><time>2026-03-28T11:18:21.207Z</time></trkpt><trkpt lat="43.259625" lon="11.3616765"><ele>193.0</ele><time>2026-03-28T11:18:22.207Z</time></trkpt><trkpt lat="43.2594822" lon="11.3616084"><ele>193.0</ele><time>2026-03-28T11:18:23.207Z</time></trkpt><trkpt lat="43.2593429" lon="11.3615364"><ele>193.0</ele><time>2026-03-28T11:18:24.207Z</time></trkpt><trkpt lat="43.2591997" lon="11.361463"><ele>193.0</ele><time>2026-03-28T11:18:25.208Z</time></trkpt><trkpt lat="43.2590592" lon="11.3613892"><ele>193.66666666666666</ele><time>2026-03-28T11:18:26.207Z</time></trkpt><trkpt lat="43.2589258" lon="11.3613074"><ele>194.33333333333331</ele><time>2026-03-28T11:18:27.207Z</time></trkpt><trkpt lat="43.2587932" lon="11.3612011"><ele>195.0</ele><time>2026-03-28T11:18:28.207Z</time></trkpt><trkpt lat="43.2586615" lon="11.3610839"><ele>195.0</ele><time>2026-03-28T11:18:29.207Z</time></trkpt><trkpt lat="43.2585294" lon="11.3609656"><ele>195.0</ele><time>2026-03-28T11:18:30.208Z</time></trkpt><trkpt lat="43.2583916" lon="11.3608366"><ele>195.0</ele><time>2026-03-28T11:18:31.207Z</time></trkpt><trkpt lat="43.258254" lon="11.3607093"><ele>195.0</ele><time>2026-03-28T11:18:32.207Z</time></trkpt><trkpt lat="43.2581302" lon="11.3605885"><ele>195.0</ele><time>2026-03-28T11:18:33.208Z</time></trkpt><trkpt lat="43.258002" lon="11.3604846"><ele>195.0</ele><time>2026-03-28T11:18:34.208Z</time></trkpt><trkpt lat="43.2578769" lon="11.360404"><ele>195.0</ele><time>2026-03-28T11:18:35.208Z</time></trkpt><trkpt lat="43.2577419" lon="11.3603307"><ele>195.0</ele><time>2026-03-28T11:18:36.208Z</time></trkpt><trkpt lat="43.2576013" lon="11.3602653"><ele>195.0</ele><time>2026-03-28T11:18:37.208Z</time></trkpt><trkpt lat="43.2574636" lon="11.3602031"><ele>195.0</ele><time>2026-03-28T11:18:38.208Z</time></trkpt><trkpt lat="43.2573378" lon="11.3601532"><ele>195.0</ele><time>2026-03-28T11:18:39.207Z</time></trkpt><trkpt lat="43.2571999" lon="11.3601137"><ele>196.0</ele><time>2026-03-28T11:18:40.207Z</time></trkpt><trkpt lat="43.2570576" lon="11.3600889"><ele>197.0</ele><time>2026-03-28T11:18:41.208Z</time></trkpt><trkpt lat="43.2569133" lon="11.3600804"><ele>198.0</ele><time>2026-03-28T11:18:42.208Z</time></trkpt><trkpt lat="43.2567636" lon="11.3600839"><ele>199.0</ele><time>2026-03-28T11:18:43.207Z</time></trkpt><trkpt lat="43.2566143" lon="11.3601059"><ele>199.0</ele><time>2026-03-28T11:18:44.207Z</time></trkpt><trkpt lat="43.2564686" lon="11.3601373"><ele>199.0</ele><time>2026-03-28T11:18:45.207Z</time></trkpt><trkpt lat="43.2563213" lon="11.3601779"><ele>199.0</ele><time>2026-03-28T11:18:46.208Z</time></trkpt><trkpt lat="43.2561741" lon="11.3602304"><ele>200.33333333333331</ele><time>2026-03-28T11:18:47.207Z</time></trkpt><trkpt lat="43.2560305" lon="11.3603118"><ele>201.66666666666669</ele><time>2026-03-28T11:18:48.208Z</time></trkpt><trkpt lat="43.2558889" lon="11.3604119"><ele>203.0</ele><time>2026-03-28T11:18:49.208Z</time></trkpt><trkpt lat="43.2557451" lon="11.3605182"><ele>206.66666666666669</ele><time>2026-03-28T11:18:50.207Z</time></trkpt><trkpt lat="43.2556108" lon="11.3606111"><ele>210.33333333333331</ele><time>2026-03-28T11:18:51.208Z</time></trkpt><trkpt lat="43.2554751" lon="11.3606966"><ele>214.0</ele><time>2026-03-28T11:18:52.208Z</time></trkpt><trkpt lat="43.2553476" lon="11.3608094"><ele>214.0</ele><time>2026-03-28T11:18:53.207Z</time></trkpt><trkpt lat="43.255223" lon="11.3609477"><ele>214.0</ele><time>2026-03-28T11:18:54.208Z</time></trkpt><trkpt lat="43.2551094" lon="11.3611057"><ele>214.0</ele><time>2026-03-28T11:18:55.207Z</time></trkpt><trkpt lat="43.2550137" lon="11.3612739"><ele>214.0</ele><time>2026-03-28T11:18:56.208Z</time></trkpt><trkpt lat="43.2549305" lon="11.3614387"><ele>214.0</ele><time>2026-03-28T11:18:57.207Z</time></trkpt><trkpt lat="43.2548412" lon="11.3616066"><ele>214.0</ele><time>2026-03-28T11:18:58.207Z</time></trkpt><trkpt lat="43.2547517" lon="11.3617733"><ele>214.0</ele><time>2026-03-28T11:18:59.208Z</time></trkpt><trkpt lat="43.2546515" lon="11.3619376"><ele>215.5</ele><time>2026-03-28T11:19:00.207Z</time></trkpt><trkpt lat="43.2545379" lon="11.3620725"><ele>217.0</ele><time>2026-03-28T11:19:01.207Z</time></trkpt><trkpt lat="43.2544206" lon="11.3621741"><ele>218.5</ele><time>2026-03-28T11:19:02.208Z</time></trkpt><trkpt lat="43.2542978" lon="11.3622598"><ele>220.0</ele><time>2026-03-28T11:19:03.207Z</time></trkpt><trkpt lat="43.2541613" lon="11.3623235"><ele>220.0</ele><time>2026-03-28T11:19:04.208Z</time></trkpt><trkpt lat="43.2540152" lon="11.362364"><ele>220.0</ele><time>2026-03-28T11:19:05.208Z</time></trkpt><trkpt lat="43.2538668" lon="11.3623893"><ele>220.0</ele><time>2026-03-28T11:19:06.208Z</time></trkpt><trkpt lat="43.2537253" lon="11.3624082"><ele>220.0</ele><time>2026-03-28T11:19:07.207Z</time></trkpt><trkpt lat="43.2535813" lon="11.3624291"><ele>221.25</ele><time>2026-03-28T11:19:08.207Z</time></trkpt><trkpt lat="43.2534546" lon="11.3624612"><ele>222.5</ele><time>2026-03-28T11:19:09.207Z</time></trkpt><trkpt lat="43.2533286" lon="11.3625003"><ele>223.75</ele><time>2026-03-28T11:19:10.207Z</time></trkpt><trkpt lat="43.2532031" lon="11.3625438"><ele>225.0</ele><time>2026-03-28T11:19:11.208Z</time></trkpt><trkpt lat="43.2530821" lon="11.3625971"><ele>225.75</ele><time>2026-03-28T11:19:12.208Z</time></trkpt><trkpt lat="43.2529641" lon="11.3626575"><ele>226.5</ele><time>2026-03-28T11:19:13.207Z</time></trkpt><trkpt lat="43.2528473" lon="11.3627263"><ele>227.25</ele><time>2026-03-28T11:19:14.207Z</time></trkpt><trkpt lat="43.2527296" lon="11.3627958"><ele>228.0</ele><time>2026-03-28T11:19:15.208Z</time></trkpt><trkpt lat="43.2526084" lon="11.3628713"><ele>228.0</ele><time>2026-03-28T11:19:16.207Z</time></trkpt><trkpt lat="43.2524991" lon="11.3629531"><ele>228.0</ele><time>2026-03-28T11:19:17.207Z</time></trkpt><trkpt lat="43.2524053" lon="11.3630449"><ele>228.0</ele><time>2026-03-28T11:19:18.207Z</time></trkpt><trkpt lat="43.25231" lon="11.3631479"><ele>228.0</ele><time>2026-03-28T11:19:19.207Z</time></trkpt><trkpt lat="43.25221" lon="11.3632579"><ele>229.25</ele><time>2026-03-28T11:19:20.208Z</time></trkpt><trkpt lat="43.2521028" lon="11.3633716"><ele>230.5</ele><time>2026-03-28T11:19:21.207Z</time></trkpt><trkpt lat="43.2519953" lon="11.3634662"><ele>231.75</ele><time>2026-03-28T11:19:22.207Z</time></trkpt><trkpt lat="43.2518735" lon="11.3635443"><ele>233.0</ele><time>2026-03-28T11:19:23.207Z</time></trkpt><trkpt lat="43.2517465" lon="11.363597"><ele>233.0</ele><time>2026-03-28T11:19:24.207Z</time></trkpt><trkpt lat="43.2516114" lon="11.3636217"><ele>233.0</ele><time>2026-03-28T11:19:25.207Z</time></trkpt><trkpt lat="43.2514749" lon="11.3636151"><ele>233.0</ele><time>2026-03-28T11:19:26.208Z</time></trkpt><trkpt lat="43.2513454" lon="11.3635825"><ele>233.0</ele><time>2026-03-28T11:19:27.208Z</time></trkpt><trkpt lat="43.251214" lon="11.3635379"><ele>231.0</ele><time>2026-03-28T11:19:28.207Z</time></trkpt><trkpt lat="43.2510906" lon="11.363489"><ele>229.0</ele><time>2026-03-28T11:19:29.207Z</time></trkpt><trkpt lat="43.2509688" lon="11.3634357"><ele>227.0</ele><time>2026-03-28T11:19:30.208Z</time></trkpt><trkpt lat="43.2508484" lon="11.3633797"><ele>225.0</ele><time>2026-03-28T11:19:31.207Z</time></trkpt><trkpt lat="43.2507226" lon="11.3633399"><ele>224.5</ele><time>2026-03-28T11:19:32.207Z</time></trkpt><trkpt lat="43.2505873" lon="11.363304"><ele>224.0</ele><time>2026-03-28T11:19:33.208Z</time></trkpt><trkpt lat="43.250451" lon="11.3632612"><ele>223.5</ele><time>2026-03-28T11:19:34.207Z</time></trkpt><trkpt lat="43.2503413" lon="11.363234"><ele>223.0</ele><time>2026-03-28T11:19:35.207Z</time></trkpt><trkpt lat="43.2502547" lon="11.3632111"><ele>222.99999999999997</ele><time>2026-03-28T11:19:36.207Z</time></trkpt><trkpt lat="43.2501856" lon="11.3631882"><ele>223.0</ele><time>2026-03-28T11:19:37.208Z</time></trkpt><trkpt lat="43.2500746" lon="11.3631518"><ele>223.0</ele><time>2026-03-28T11:19:39.208Z</time></trkpt><trkpt lat="43.2499888" lon="11.3631261"><ele>223.0</ele><time>2026-03-28T11:19:41.207Z</time></trkpt><trkpt lat="43.2499258" lon="11.3630792"><ele>222.99999999999997</ele><time>2026-03-28T11:20:19.208Z</time></trkpt><trkpt lat="43.2498223" lon="11.3630693"><ele>223.0</ele><time>2026-03-28T11:20:21.207Z</time></trkpt><trkpt lat="43.2497497" lon="11.3630674"><ele>224.0</ele><time>2026-03-28T11:20:22.207Z</time></trkpt><trkpt lat="43.2496613" lon="11.3630651"><ele>225.0</ele><time>2026-03-28T11:20:23.208Z</time></trkpt><trkpt lat="43.2495623" lon="11.3630716"><ele>226.0</ele><time>2026-03-28T11:20:24.207Z</time></trkpt><trkpt lat="43.2494537" lon="11.363101"><ele>227.0</ele><time>2026-03-28T11:20:25.208Z</time></trkpt><trkpt lat="43.2493319" lon="11.3631542"><ele>228.0</ele><time>2026-03-28T11:20:26.207Z</time></trkpt><trkpt lat="43.2492068" lon="11.363248"><ele>228.0</ele><time>2026-03-28T11:20:27.207Z</time></trkpt><trkpt lat="43.2491001" lon="11.3633492"><ele>228.0</ele><time>2026-03-28T11:20:28.206Z</time></trkpt><trkpt lat="43.2490038" lon="11.3634577"><ele>228.0</ele><time>2026-03-28T11:20:29.208Z</time></trkpt><trkpt lat="43.2489227" lon="11.3635673"><ele>228.0</ele><time>2026-03-28T11:20:30.208Z</time></trkpt><trkpt lat="43.2488449" lon="11.3636814"><ele>228.0</ele><time>2026-03-28T11:20:31.207Z</time></trkpt><trkpt lat="43.2487622" lon="11.3637978"><ele>228.0</ele><time>2026-03-28T11:20:32.208Z</time></trkpt><trkpt lat="43.2486812" lon="11.363911"><ele>228.0</ele><time>2026-03-28T11:20:33.207Z</time></trkpt><trkpt lat="43.2486082" lon="11.3640136"><ele>228.0</ele><time>2026-03-28T11:20:34.207Z</time></trkpt><trkpt lat="43.2485381" lon="11.3641053"><ele>228.0</ele><time>2026-03-28T11:20:35.207Z</time></trkpt><trkpt lat="43.2484666" lon="11.3641985"><ele>227.8</ele><time>2026-03-28T11:20:36.207Z</time></trkpt><trkpt lat="43.2483982" lon="11.3642978"><ele>227.60000000000002</ele><time>2026-03-28T11:20:37.207Z</time></trkpt><trkpt lat="43.2483433" lon="11.3644094"><ele>227.39999999999998</ele><time>2026-03-28T11:20:38.207Z</time></trkpt><trkpt lat="43.2483068" lon="11.3645338"><ele>227.2</ele><time>2026-03-28T11:20:39.207Z</time></trkpt><trkpt lat="43.2482841" lon="11.3646701"><ele>227.0</ele><time>2026-03-28T11:20:40.207Z</time></trkpt><trkpt lat="43.2482696" lon="11.3648145"><ele>226.6</ele><time>2026-03-28T11:20:41.207Z</time></trkpt><trkpt lat="43.2482687" lon="11.3649549"><ele>226.2</ele><time>2026-03-28T11:20:42.207Z</time></trkpt><trkpt lat="43.2482729" lon="11.3650759"><ele>225.8</ele><time>2026-03-28T11:20:43.207Z</time></trkpt><trkpt lat="43.2482651" lon="11.3652038"><ele>225.4</ele><time>2026-03-28T11:20:44.207Z</time></trkpt><trkpt lat="43.2482394" lon="11.3653293"><ele>225.0</ele><time>2026-03-28T11:20:45.207Z</time></trkpt><trkpt lat="43.2481972" lon="11.3654557"><ele>224.6</ele><time>2026-03-28T11:20:46.207Z</time></trkpt><trkpt lat="43.2481382" lon="11.3655664"><ele>224.2</ele><time>2026-03-28T11:20:47.207Z</time></trkpt><trkpt lat="43.2480735" lon="11.3656616"><ele>223.8</ele><time>2026-03-28T11:20:48.207Z</time></trkpt><trkpt lat="43.2480019" lon="11.365767"><ele>223.4</ele><time>2026-03-28T11:20:49.208Z</time></trkpt><trkpt lat="43.2479291" lon="11.3658612"><ele>223.0</ele><time>2026-03-28T11:20:50.207Z</time></trkpt><trkpt lat="43.2478423" lon="11.3659383"><ele>223.0</ele><time>2026-03-28T11:20:51.207Z</time></trkpt><trkpt lat="43.2477411" lon="11.3660002"><ele>223.0</ele><time>2026-03-28T11:20:52.207Z</time></trkpt><trkpt lat="43.2476273" lon="11.3660458"><ele>223.0</ele><time>2026-03-28T11:20:53.207Z</time></trkpt><trkpt lat="43.2475074" lon="11.3660752"><ele>223.0</ele><time>2026-03-28T11:20:54.208Z</time></trkpt><trkpt lat="43.2473797" lon="11.3660996"><ele>222.5</ele><time>2026-03-28T11:20:55.208Z</time></trkpt><trkpt lat="43.2472485" lon="11.3661329"><ele>222.0</ele><time>2026-03-28T11:20:56.207Z</time></trkpt><trkpt lat="43.2471245" lon="11.3661733"><ele>221.5</ele><time>2026-03-28T11:20:57.208Z</time></trkpt><trkpt lat="43.2470083" lon="11.3662119"><ele>221.0</ele><time>2026-03-28T11:20:58.207Z</time></trkpt><trkpt lat="43.2468847" lon="11.3662532"><ele>221.0</ele><time>2026-03-28T11:20:59.208Z</time></trkpt><trkpt lat="43.2467627" lon="11.3663022"><ele>221.0</ele><time>2026-03-28T11:21:00.207Z</time></trkpt><trkpt lat="43.246644" lon="11.3663586"><ele>221.0</ele><time>2026-03-28T11:21:01.207Z</time></trkpt><trkpt lat="43.2465236" lon="11.3664205"><ele>221.0</ele><time>2026-03-28T11:21:02.208Z</time></trkpt><trkpt lat="43.2464086" lon="11.3664881"><ele>221.75</ele><time>2026-03-28T11:21:03.207Z</time></trkpt><trkpt lat="43.2463121" lon="11.3665567"><ele>222.5</ele><time>2026-03-28T11:21:04.207Z</time></trkpt><trkpt lat="43.2462156" lon="11.3666413"><ele>223.25</ele><time>2026-03-28T11:21:05.208Z</time></trkpt><trkpt lat="43.2461182" lon="11.3667353"><ele>224.0</ele><time>2026-03-28T11:21:06.208Z</time></trkpt><trkpt lat="43.2460145" lon="11.3668371"><ele>224.0</ele><time>2026-03-28T11:21:07.208Z</time></trkpt><trkpt lat="43.2459079" lon="11.3669514"><ele>224.0</ele><time>2026-03-28T11:21:08.207Z</time></trkpt><trkpt lat="43.2457973" lon="11.367068"><ele>224.0</ele><time>2026-03-28T11:21:09.207Z</time></trkpt><trkpt lat="43.2456854" lon="11.3671681"><ele>224.0</ele><time>2026-03-28T11:21:10.207Z</time></trkpt><trkpt lat="43.245566" lon="11.3672591"><ele>223.0</ele><time>2026-03-28T11:21:11.208Z</time></trkpt><trkpt lat="43.2454377" lon="11.3673393"><ele>222.0</ele><time>2026-03-28T11:21:12.207Z</time></trkpt><trkpt lat="43.2453042" lon="11.3674008"><ele>221.0</ele><time>2026-03-28T11:21:13.207Z</time></trkpt><trkpt lat="43.2451591" lon="11.3674542"><ele>220.0</ele><time>2026-03-28T11:21:14.207Z</time></trkpt><trkpt lat="43.2450135" lon="11.3675027"><ele>220.0</ele><time>2026-03-28T11:21:15.208Z</time></trkpt><trkpt lat="43.2448574" lon="11.3675525"><ele>220.0</ele><time>2026-03-28T11:21:16.208Z</time></trkpt><trkpt lat="43.2447024" lon="11.3676007"><ele>220.0</ele><time>2026-03-28T11:21:17.207Z</time></trkpt><trkpt lat="43.2445638" lon="11.3676441"><ele>220.75</ele><time>2026-03-28T11:21:18.207Z</time></trkpt><trkpt lat="43.2444338" lon="11.3676859"><ele>221.5</ele><time>2026-03-28T11:21:19.206Z</time></trkpt><trkpt lat="43.2443004" lon="11.3677328"><ele>222.25</ele><time>2026-03-28T11:21:20.208Z</time></trkpt><trkpt lat="43.244176" lon="11.3677768"><ele>223.0</ele><time>2026-03-28T11:21:21.208Z</time></trkpt><trkpt lat="43.2440626" lon="11.3678119"><ele>223.49999999999997</ele><time>2026-03-28T11:21:22.207Z</time></trkpt><trkpt lat="43.2439619" lon="11.367844"><ele>224.0</ele><time>2026-03-28T11:21:23.207Z</time></trkpt><trkpt lat="43.2438777" lon="11.3678726"><ele>224.5</ele><time>2026-03-28T11:21:24.207Z</time></trkpt><trkpt lat="43.2438054" lon="11.367895"><ele>225.0</ele><time>2026-03-28T11:21:25.207Z</time></trkpt><trkpt lat="43.2437398" lon="11.3679121"><ele>225.49999999999997</ele><time>2026-03-28T11:21:26.207Z</time></trkpt><trkpt lat="43.2436314" lon="11.3679395"><ele>226.0</ele><time>2026-03-28T11:21:28.208Z</time></trkpt><trkpt lat="43.2435485" lon="11.3679565"><ele>225.99999999999997</ele><time>2026-03-28T11:21:30.207Z</time></trkpt><trkpt lat="43.2434747" lon="11.3679759"><ele>226.0</ele><time>2026-03-28T11:21:33.208Z</time></trkpt><trkpt lat="43.243405" lon="11.3680057"><ele>226.0</ele><time>2026-03-28T11:22:04.208Z</time></trkpt><trkpt lat="43.2432933" lon="11.3680275"><ele>226.0</ele><time>2026-03-28T11:22:06.208Z</time></trkpt><trkpt lat="43.2432278" lon="11.3680427"><ele>225.99999999999997</ele><time>2026-03-28T11:22:07.207Z</time></trkpt><trkpt lat="43.2431577" lon="11.3680641"><ele>226.0</ele><time>2026-03-28T11:22:08.207Z</time></trkpt><trkpt lat="43.2430819" lon="11.3680862"><ele>225.20000000000002</ele><time>2026-03-28T11:22:09.207Z</time></trkpt><trkpt lat="43.2429975" lon="11.368113"><ele>224.40000000000003</ele><time>2026-03-28T11:22:10.207Z</time></trkpt><trkpt lat="43.2429068" lon="11.3681508"><ele>223.6</ele><time>2026-03-28T11:22:11.207Z</time></trkpt><trkpt lat="43.242806" lon="11.3682099"><ele>222.8</ele><time>2026-03-28T11:22:12.208Z</time></trkpt><trkpt lat="43.2427023" lon="11.368289"><ele>222.0</ele><time>2026-03-28T11:22:13.208Z</time></trkpt><trkpt lat="43.2425996" lon="11.3683824"><ele>222.0</ele><time>2026-03-28T11:22:14.208Z</time></trkpt><trkpt lat="43.2424945" lon="11.3684974"><ele>222.0</ele><time>2026-03-28T11:22:15.208Z</time></trkpt><trkpt lat="43.242394" lon="11.368623"><ele>222.0</ele><time>2026-03-28T11:22:16.208Z</time></trkpt><trkpt lat="43.2422908" lon="11.3687578"><ele>222.0</ele><time>2026-03-28T11:22:17.207Z</time></trkpt><trkpt lat="43.2421893" lon="11.3688936"><ele>221.5</ele><time>2026-03-28T11:22:18.206Z</time></trkpt><trkpt lat="43.2420885" lon="11.3690317"><ele>221.0</ele><time>2026-03-28T11:22:19.208Z</time></trkpt><trkpt lat="43.2419921" lon="11.3691581"><ele>220.5</ele><time>2026-03-28T11:22:20.207Z</time></trkpt><trkpt lat="43.2418904" lon="11.3692928"><ele>220.0</ele><time>2026-03-28T11:22:21.207Z</time></trkpt><trkpt lat="43.2417765" lon="11.3694334"><ele>220.0</ele><time>2026-03-28T11:22:22.207Z</time></trkpt><trkpt lat="43.2416578" lon="11.3695757"><ele>220.0</ele><time>2026-03-28T11:22:23.208Z</time></trkpt><trkpt lat="43.2415453" lon="11.3697014"><ele>220.0</ele><time>2026-03-28T11:22:24.208Z</time></trkpt><trkpt lat="43.2414253" lon="11.3698317"><ele>218.75</ele><time>2026-03-28T11:22:25.207Z</time></trkpt><trkpt lat="43.2413079" lon="11.3699609"><ele>217.5</ele><time>2026-03-28T11:22:26.207Z</time></trkpt><trkpt lat="43.2411917" lon="11.3700746"><ele>216.25</ele><time>2026-03-28T11:22:27.208Z</time></trkpt><trkpt lat="43.2410759" lon="11.3701789"><ele>215.0</ele><time>2026-03-28T11:22:28.207Z</time></trkpt><trkpt lat="43.2409626" lon="11.3702777"><ele>215.0</ele><time>2026-03-28T11:22:29.207Z</time></trkpt><trkpt lat="43.2408497" lon="11.3703807"><ele>215.0</ele><time>2026-03-28T11:22:30.207Z</time></trkpt><trkpt lat="43.2407368" lon="11.3704871"><ele>215.0</ele><time>2026-03-28T11:22:31.206Z</time></trkpt><trkpt lat="43.240629" lon="11.3706011"><ele>215.0</ele><time>2026-03-28T11:22:32.207Z</time></trkpt><trkpt lat="43.2405294" lon="11.370724"><ele>215.5</ele><time>2026-03-28T11:22:33.207Z</time></trkpt><trkpt lat="43.2404375" lon="11.3708624"><ele>216.0</ele><time>2026-03-28T11:22:34.207Z</time></trkpt><trkpt lat="43.2403448" lon="11.371008"><ele>216.5</ele><time>2026-03-28T11:22:35.208Z</time></trkpt><trkpt lat="43.2402585" lon="11.3711532"><ele>217.0</ele><time>2026-03-28T11:22:36.208Z</time></trkpt><trkpt lat="43.2401807" lon="11.3712891"><ele>216.25</ele><time>2026-03-28T11:22:37.208Z</time></trkpt><trkpt lat="43.2401085" lon="11.3714225"><ele>215.5</ele><time>2026-03-28T11:22:38.207Z</time></trkpt><trkpt lat="43.2400321" lon="11.3715593"><ele>214.75</ele><time>2026-03-28T11:22:39.207Z</time></trkpt><trkpt lat="43.2399561" lon="11.3717014"><ele>214.0</ele><time>2026-03-28T11:22:40.207Z</time></trkpt><trkpt lat="43.2398895" lon="11.3718346"><ele>214.0</ele><time>2026-03-28T11:22:41.207Z</time></trkpt><trkpt lat="43.2398253" lon="11.3719716"><ele>214.0</ele><time>2026-03-28T11:22:42.207Z</time></trkpt><trkpt lat="43.2397629" lon="11.3721151"><ele>214.0</ele><time>2026-03-28T11:22:43.207Z</time></trkpt><trkpt lat="43.2396972" lon="11.372257"><ele>214.0</ele><time>2026-03-28T11:22:44.207Z</time></trkpt><trkpt lat="43.2396352" lon="11.3723927"><ele>213.79999999999998</ele><time>2026-03-28T11:22:45.208Z</time></trkpt><trkpt lat="43.2395707" lon="11.3725082"><ele>213.59999999999997</ele><time>2026-03-28T11:22:46.208Z</time></trkpt><trkpt lat="43.2394858" lon="11.3726072"><ele>213.4</ele><time>2026-03-28T11:22:47.207Z</time></trkpt><trkpt lat="43.2393866" lon="11.3726629"><ele>213.2</ele><time>2026-03-28T11:22:48.208Z</time></trkpt><trkpt lat="43.2392694" lon="11.3726927"><ele>213.0</ele><time>2026-03-28T11:22:49.208Z</time></trkpt><trkpt lat="43.2391347" lon="11.3726964"><ele>213.0</ele><time>2026-03-28T11:22:50.207Z</time></trkpt><trkpt lat="43.2389916" lon="11.3726998"><ele>213.0</ele><time>2026-03-28T11:22:51.208Z</time></trkpt><trkpt lat="43.2388588" lon="11.3727143"><ele>213.0</ele><time>2026-03-28T11:22:52.207Z</time></trkpt><trkpt lat="43.2387388" lon="11.3727513"><ele>213.0</ele><time>2026-03-28T11:22:53.207Z</time></trkpt><trkpt lat="43.2386281" lon="11.3727969"><ele>213.0</ele><time>2026-03-28T11:22:54.207Z</time></trkpt><trkpt lat="43.2385283" lon="11.3728454"><ele>213.0</ele><time>2026-03-28T11:22:55.208Z</time></trkpt><trkpt lat="43.2384351" lon="11.372904"><ele>213.0</ele><time>2026-03-28T11:22:56.207Z</time></trkpt><trkpt lat="43.2383508" lon="11.3729807"><ele>213.0</ele><time>2026-03-28T11:22:57.207Z</time></trkpt><trkpt lat="43.2382869" lon="11.3730788"><ele>213.0</ele><time>2026-03-28T11:22:58.207Z</time></trkpt><trkpt lat="43.2382428" lon="11.3731972"><ele>211.4</ele><time>2026-03-28T11:22:59.207Z</time></trkpt><trkpt lat="43.2382273" lon="11.373332"><ele>209.8</ele><time>2026-03-28T11:23:00.208Z</time></trkpt><trkpt lat="43.2382313" lon="11.3734743"><ele>208.2</ele><time>2026-03-28T11:23:01.207Z</time></trkpt><trkpt lat="43.2382382" lon="11.3736035"><ele>206.6</ele><time>2026-03-28T11:23:02.207Z</time></trkpt><trkpt lat="43.2382421" lon="11.3737461"><ele>205.0</ele><time>2026-03-28T11:23:03.207Z</time></trkpt><trkpt lat="43.2382534" lon="11.3738666"><ele>204.8</ele><time>2026-03-28T11:23:04.208Z</time></trkpt><trkpt lat="43.2382599" lon="11.3739886"><ele>204.6</ele><time>2026-03-28T11:23:05.207Z</time></trkpt><trkpt lat="43.2382724" lon="11.3741142"><ele>204.39999999999998</ele><time>2026-03-28T11:23:06.207Z</time></trkpt><trkpt lat="43.2382849" lon="11.3742397"><ele>204.2</ele><time>2026-03-28T11:23:07.207Z</time></trkpt><trkpt lat="43.2382957" lon="11.3743696"><ele>204.0</ele><time>2026-03-28T11:23:08.207Z</time></trkpt><trkpt lat="43.2383005" lon="11.3745048"><ele>204.0</ele><time>2026-03-28T11:23:09.207Z</time></trkpt><trkpt lat="43.2383003" lon="11.3746454"><ele>204.0</ele><time>2026-03-28T11:23:10.207Z</time></trkpt><trkpt lat="43.238298" lon="11.3747739"><ele>204.0</ele><time>2026-03-28T11:23:11.207Z</time></trkpt><trkpt lat="43.2382722" lon="11.3749092"><ele>204.0</ele><time>2026-03-28T11:23:12.206Z</time></trkpt><trkpt lat="43.2382205" lon="11.3750359"><ele>204.0</ele><time>2026-03-28T11:23:13.206Z</time></trkpt><trkpt lat="43.2381448" lon="11.3751493"><ele>204.0</ele><time>2026-03-28T11:23:14.208Z</time></trkpt><trkpt lat="43.2380463" lon="11.3752433"><ele>204.0</ele><time>2026-03-28T11:23:15.207Z</time></trkpt><trkpt lat="43.2379351" lon="11.3753356"><ele>204.0</ele><time>2026-03-28T11:23:16.207Z</time></trkpt><trkpt lat="43.2378193" lon="11.3754368"><ele>204.0</ele><time>2026-03-28T11:23:17.208Z</time></trkpt><trkpt lat="43.2377129" lon="11.3755439"><ele>202.75</ele><time>2026-03-28T11:23:18.207Z</time></trkpt><trkpt lat="43.2376147" lon="11.3756506"><ele>201.5</ele><time>2026-03-28T11:23:19.207Z</time></trkpt><trkpt lat="43.2375132" lon="11.3757576"><ele>200.25</ele><time>2026-03-28T11:23:20.207Z</time></trkpt><trkpt lat="43.2374207" lon="11.3758562"><ele>199.0</ele><time>2026-03-28T11:23:21.206Z</time></trkpt><trkpt lat="43.2373414" lon="11.3759529"><ele>198.39999999999998</ele><time>2026-03-28T11:23:22.207Z</time></trkpt><trkpt lat="43.2372554" lon="11.3760534"><ele>197.8</ele><time>2026-03-28T11:23:23.207Z</time></trkpt><trkpt lat="43.2371646" lon="11.3761486"><ele>197.2</ele><time>2026-03-28T11:23:24.207Z</time></trkpt><trkpt lat="43.2370827" lon="11.3762329"><ele>196.60000000000002</ele><time>2026-03-28T11:23:25.207Z</time></trkpt><trkpt lat="43.2369868" lon="11.3763019"><ele>196.0</ele><time>2026-03-28T11:23:26.207Z</time></trkpt><trkpt lat="43.2368752" lon="11.376347"><ele>196.0</ele><time>2026-03-28T11:23:27.207Z</time></trkpt><trkpt lat="43.2367506" lon="11.3763746"><ele>196.0</ele><time>2026-03-28T11:23:28.207Z</time></trkpt><trkpt lat="43.2366335" lon="11.3763661"><ele>196.0</ele><time>2026-03-28T11:23:29.207Z</time></trkpt><trkpt lat="43.2365234" lon="11.3763298"><ele>196.0</ele><time>2026-03-28T11:23:30.207Z</time></trkpt><trkpt lat="43.236423" lon="11.3762604"><ele>194.0</ele><time>2026-03-28T11:23:31.207Z</time></trkpt><trkpt lat="43.2363395" lon="11.3761601"><ele>192.0</ele><time>2026-03-28T11:23:32.207Z</time></trkpt><trkpt lat="43.2362698" lon="11.3760299"><ele>190.0</ele><time>2026-03-28T11:23:33.207Z</time></trkpt><trkpt lat="43.2362285" lon="11.3758924"><ele>188.0</ele><time>2026-03-28T11:23:34.207Z</time></trkpt><trkpt lat="43.2362036" lon="11.3757533"><ele>186.0</ele><time>2026-03-28T11:23:35.208Z</time></trkpt><trkpt lat="43.2361935" lon="11.3755953"><ele>185.0</ele><time>2026-03-28T11:23:36.208Z</time></trkpt><trkpt lat="43.2362016" lon="11.3754335"><ele>184.0</ele><time>2026-03-28T11:23:37.207Z</time></trkpt><trkpt lat="43.2362311" lon="11.3752882"><ele>183.0</ele><time>2026-03-28T11:23:38.207Z</time></trkpt><trkpt lat="43.2362799" lon="11.375142"><ele>182.0</ele><time>2026-03-28T11:23:39.208Z</time></trkpt><trkpt lat="43.2363459" lon="11.3750077"><ele>182.0</ele><time>2026-03-28T11:23:40.207Z</time></trkpt><trkpt lat="43.2364098" lon="11.3748792"><ele>182.0</ele><time>2026-03-28T11:23:41.207Z</time></trkpt><trkpt lat="43.2364583" lon="11.3747266"><ele>182.0</ele><time>2026-03-28T11:23:42.207Z</time></trkpt><trkpt lat="43.2364973" lon="11.374566"><ele>182.0</ele><time>2026-03-28T11:23:43.207Z</time></trkpt><trkpt lat="43.2365305" lon="11.3744131"><ele>183.0</ele><time>2026-03-28T11:23:44.207Z</time></trkpt><trkpt lat="43.2365559" lon="11.374262"><ele>184.0</ele><time>2026-03-28T11:23:45.208Z</time></trkpt><trkpt lat="43.2365712" lon="11.3741188"><ele>185.0</ele><time>2026-03-28T11:23:46.207Z</time></trkpt><trkpt lat="43.236574" lon="11.3739727"><ele>186.0</ele><time>2026-03-28T11:23:47.207Z</time></trkpt><trkpt lat="43.2365569" lon="11.3738293"><ele>187.0</ele><time>2026-03-28T11:23:48.207Z</time></trkpt><trkpt lat="43.2365122" lon="11.3736926"><ele>185.75</ele><time>2026-03-28T11:23:49.208Z</time></trkpt><trkpt lat="43.2364443" lon="11.3735718"><ele>184.5</ele><time>2026-03-28T11:23:50.207Z</time></trkpt><trkpt lat="43.2363538" lon="11.373488"><ele>183.25</ele><time>2026-03-28T11:23:51.208Z</time></trkpt><trkpt lat="43.2362447" lon="11.3734381"><ele>182.0</ele><time>2026-03-28T11:23:52.207Z</time></trkpt><trkpt lat="43.2361176" lon="11.3734238"><ele>182.0</ele><time>2026-03-28T11:23:53.208Z</time></trkpt><trkpt lat="43.2359725" lon="11.373433"><ele>182.0</ele><time>2026-03-28T11:23:54.208Z</time></trkpt><trkpt lat="43.2358258" lon="11.3734523"><ele>182.0</ele><time>2026-03-28T11:23:55.208Z</time></trkpt><trkpt lat="43.2356832" lon="11.3734689"><ele>182.0</ele><time>2026-03-28T11:23:56.208Z</time></trkpt><trkpt lat="43.2355338" lon="11.3734767"><ele>180.75</ele><time>2026-03-28T11:23:57.207Z</time></trkpt><trkpt lat="43.2353879" lon="11.3734866"><ele>179.5</ele><time>2026-03-28T11:23:58.207Z</time></trkpt><trkpt lat="43.2352412" lon="11.3735059"><ele>178.25</ele><time>2026-03-28T11:23:59.208Z</time></trkpt><trkpt lat="43.2350927" lon="11.3735213"><ele>177.0</ele><time>2026-03-28T11:24:00.208Z</time></trkpt><trkpt lat="43.2349395" lon="11.373535"><ele>177.33333333333334</ele><time>2026-03-28T11:24:01.207Z</time></trkpt><trkpt lat="43.2347845" lon="11.3735463"><ele>177.66666666666669</ele><time>2026-03-28T11:24:02.208Z</time></trkpt><trkpt lat="43.2346339" lon="11.3735566"><ele>178.0</ele><time>2026-03-28T11:24:03.207Z</time></trkpt><trkpt lat="43.2344824" lon="11.3735694"><ele>178.0</ele><time>2026-03-28T11:24:04.208Z</time></trkpt><trkpt lat="43.2343424" lon="11.3735822"><ele>178.0</ele><time>2026-03-28T11:24:05.207Z</time></trkpt><trkpt lat="43.2342005" lon="11.3735918"><ele>178.0</ele><time>2026-03-28T11:24:06.206Z</time></trkpt><trkpt lat="43.2340516" lon="11.3736047"><ele>178.0</ele><time>2026-03-28T11:24:07.207Z</time></trkpt><trkpt lat="43.2339099" lon="11.373623"><ele>178.33333333333334</ele><time>2026-03-28T11:24:08.208Z</time></trkpt><trkpt lat="43.2337699" lon="11.3736602"><ele>178.66666666666666</ele><time>2026-03-28T11:24:09.207Z</time></trkpt><trkpt lat="43.2336279" lon="11.3737273"><ele>179.0</ele><time>2026-03-28T11:24:10.207Z</time></trkpt><trkpt lat="43.2334829" lon="11.3738163"><ele>179.0</ele><time>2026-03-28T11:24:11.207Z</time></trkpt><trkpt lat="43.2333367" lon="11.3739097"><ele>179.0</ele><time>2026-03-28T11:24:12.208Z</time></trkpt><trkpt lat="43.233197" lon="11.3740073"><ele>179.0</ele><time>2026-03-28T11:24:13.207Z</time></trkpt><trkpt lat="43.2330649" lon="11.374105"><ele>179.0</ele><time>2026-03-28T11:24:14.208Z</time></trkpt><trkpt lat="43.2329294" lon="11.3741999"><ele>179.0</ele><time>2026-03-28T11:24:15.207Z</time></trkpt><trkpt lat="43.2327949" lon="11.3742899"><ele>179.0</ele><time>2026-03-28T11:24:16.207Z</time></trkpt><trkpt lat="43.2326572" lon="11.3743869"><ele>179.0</ele><time>2026-03-28T11:24:17.207Z</time></trkpt><trkpt lat="43.2325208" lon="11.374482"><ele>179.0</ele><time>2026-03-28T11:24:18.208Z</time></trkpt><trkpt lat="43.2323939" lon="11.3745655"><ele>179.0</ele><time>2026-03-28T11:24:19.208Z</time></trkpt><trkpt lat="43.2322671" lon="11.3746538"><ele>179.0</ele><time>2026-03-28T11:24:20.208Z</time></trkpt><trkpt lat="43.232142" lon="11.3747449"><ele>179.0</ele><time>2026-03-28T11:24:21.206Z</time></trkpt><trkpt lat="43.2320232" lon="11.3748332"><ele>179.0</ele><time>2026-03-28T11:24:22.207Z</time></trkpt><trkpt lat="43.2319105" lon="11.3749187"><ele>179.0</ele><time>2026-03-28T11:24:23.208Z</time></trkpt><trkpt lat="43.2317953" lon="11.3750063"><ele>179.0</ele><time>2026-03-28T11:24:24.208Z</time></trkpt><trkpt lat="43.2316774" lon="11.3750932"><ele>179.0</ele><time>2026-03-28T11:24:25.208Z</time></trkpt><trkpt lat="43.2315549" lon="11.3751785"><ele>179.0</ele><time>2026-03-28T11:24:26.207Z</time></trkpt><trkpt lat="43.2314261" lon="11.3752575"><ele>179.0</ele><time>2026-03-28T11:24:27.207Z</time></trkpt><trkpt lat="43.231292" lon="11.3753442"><ele>179.0</ele><time>2026-03-28T11:24:28.208Z</time></trkpt><trkpt lat="43.2311561" lon="11.3754412"><ele>179.0</ele><time>2026-03-28T11:24:29.206Z</time></trkpt><trkpt lat="43.2310156" lon="11.3755446"><ele>179.0</ele><time>2026-03-28T11:24:30.207Z</time></trkpt><trkpt lat="43.2308724" lon="11.3756495"><ele>179.0</ele><time>2026-03-28T11:24:31.208Z</time></trkpt><trkpt lat="43.2307262" lon="11.3757557"><ele>180.66666666666666</ele><time>2026-03-28T11:24:32.207Z</time></trkpt><trkpt lat="43.2305796" lon="11.3758622"><ele>182.33333333333334</ele><time>2026-03-28T11:24:33.208Z</time></trkpt><trkpt lat="43.2304346" lon="11.3759681"><ele>184.0</ele><time>2026-03-28T11:24:34.207Z</time></trkpt><trkpt lat="43.2302936" lon="11.3760748"><ele>184.0</ele><time>2026-03-28T11:24:35.207Z</time></trkpt><trkpt lat="43.2301538" lon="11.3761761"><ele>184.0</ele><time>2026-03-28T11:24:36.208Z</time></trkpt><trkpt lat="43.2300103" lon="11.3762776"><ele>184.0</ele><time>2026-03-28T11:24:37.207Z</time></trkpt><trkpt lat="43.2298678" lon="11.3763829"><ele>184.66666666666669</ele><time>2026-03-28T11:24:38.207Z</time></trkpt><trkpt lat="43.2297316" lon="11.3764944"><ele>185.33333333333334</ele><time>2026-03-28T11:24:39.208Z</time></trkpt><trkpt lat="43.2295985" lon="11.3766087"><ele>186.0</ele><time>2026-03-28T11:24:40.207Z</time></trkpt><trkpt lat="43.2294721" lon="11.3767161"><ele>186.0</ele><time>2026-03-28T11:24:41.207Z</time></trkpt><trkpt lat="43.2293426" lon="11.3768238"><ele>186.0</ele><time>2026-03-28T11:24:42.207Z</time></trkpt><trkpt lat="43.2292137" lon="11.3769318"><ele>186.0</ele><time>2026-03-28T11:24:43.208Z</time></trkpt><trkpt lat="43.2290817" lon="11.3770346"><ele>187.33333333333334</ele><time>2026-03-28T11:24:44.207Z</time></trkpt><trkpt lat="43.2289437" lon="11.3771205"><ele>188.66666666666669</ele><time>2026-03-28T11:24:45.206Z</time></trkpt><trkpt lat="43.2288008" lon="11.3771883"><ele>190.0</ele><time>2026-03-28T11:24:46.207Z</time></trkpt><trkpt lat="43.2286533" lon="11.377242"><ele>186.0</ele><time>2026-03-28T11:24:47.207Z</time></trkpt><trkpt lat="43.2285006" lon="11.3772744"><ele>182.0</ele><time>2026-03-28T11:24:48.207Z</time></trkpt><trkpt lat="43.2283457" lon="11.3772883"><ele>178.0</ele><time>2026-03-28T11:24:49.207Z</time></trkpt><trkpt lat="43.228194" lon="11.3772959"><ele>178.0</ele><time>2026-03-28T11:24:50.207Z</time></trkpt><trkpt lat="43.228042" lon="11.3773102"><ele>178.0</ele><time>2026-03-28T11:24:51.207Z</time></trkpt><trkpt lat="43.2278967" lon="11.3773267"><ele>178.0</ele><time>2026-03-28T11:24:52.208Z</time></trkpt><trkpt lat="43.2277467" lon="11.3773368"><ele>178.0</ele><time>2026-03-28T11:24:53.207Z</time></trkpt><trkpt lat="43.2276001" lon="11.377333"><ele>178.0</ele><time>2026-03-28T11:24:54.207Z</time></trkpt><trkpt lat="43.2274512" lon="11.3773135"><ele>178.0</ele><time>2026-03-28T11:24:55.207Z</time></trkpt><trkpt lat="43.2273024" lon="11.3772792"><ele>178.0</ele><time>2026-03-28T11:24:56.207Z</time></trkpt><trkpt lat="43.2271557" lon="11.3772227"><ele>179.0</ele><time>2026-03-28T11:24:57.207Z</time></trkpt><trkpt lat="43.2270122" lon="11.3771452"><ele>180.0</ele><time>2026-03-28T11:24:58.206Z</time></trkpt><trkpt lat="43.2268763" lon="11.3770522"><ele>181.0</ele><time>2026-03-28T11:24:59.207Z</time></trkpt><trkpt lat="43.2267416" lon="11.376951"><ele>181.0</ele><time>2026-03-28T11:25:00.207Z</time></trkpt><trkpt lat="43.2266148" lon="11.3768482"><ele>181.0</ele><time>2026-03-28T11:25:01.207Z</time></trkpt><trkpt lat="43.2264978" lon="11.3767286"><ele>181.0</ele><time>2026-03-28T11:25:02.208Z</time></trkpt><trkpt lat="43.226392" lon="11.3765858"><ele>181.0</ele><time>2026-03-28T11:25:03.207Z</time></trkpt><trkpt lat="43.2262966" lon="11.3764258"><ele>180.33333333333334</ele><time>2026-03-28T11:25:04.208Z</time></trkpt><trkpt lat="43.2262126" lon="11.376253"><ele>179.66666666666666</ele><time>2026-03-28T11:25:05.207Z</time></trkpt><trkpt lat="43.2261426" lon="11.3760664"><ele>179.0</ele><time>2026-03-28T11:25:06.208Z</time></trkpt><trkpt lat="43.2260846" lon="11.3758717"><ele>179.0</ele><time>2026-03-28T11:25:07.208Z</time></trkpt><trkpt lat="43.226044" lon="11.3756676"><ele>179.0</ele><time>2026-03-28T11:25:08.208Z</time></trkpt><trkpt lat="43.2260273" lon="11.3754663"><ele>179.0</ele><time>2026-03-28T11:25:09.207Z</time></trkpt><trkpt lat="43.2260338" lon="11.3752587"><ele>178.66666666666666</ele><time>2026-03-28T11:25:10.208Z</time></trkpt><trkpt lat="43.2260538" lon="11.3750452"><ele>178.33333333333334</ele><time>2026-03-28T11:25:11.208Z</time></trkpt><trkpt lat="43.2260734" lon="11.3748232"><ele>178.0</ele><time>2026-03-28T11:25:12.207Z</time></trkpt><trkpt lat="43.2260921" lon="11.374599"><ele>177.66666666666669</ele><time>2026-03-28T11:25:13.207Z</time></trkpt><trkpt lat="43.2261109" lon="11.3743739"><ele>177.33333333333334</ele><time>2026-03-28T11:25:14.208Z</time></trkpt><trkpt lat="43.2261232" lon="11.3741588"><ele>177.0</ele><time>2026-03-28T11:25:15.207Z</time></trkpt><trkpt lat="43.2261274" lon="11.373946"><ele>177.33333333333334</ele><time>2026-03-28T11:25:16.207Z</time></trkpt><trkpt lat="43.2261133" lon="11.373734"><ele>177.66666666666669</ele><time>2026-03-28T11:25:17.207Z</time></trkpt><trkpt lat="43.226075" lon="11.3735269"><ele>178.0</ele><time>2026-03-28T11:25:18.207Z</time></trkpt><trkpt lat="43.226025" lon="11.3733264"><ele>178.0</ele><time>2026-03-28T11:25:19.207Z</time></trkpt><trkpt lat="43.2259703" lon="11.373139"><ele>178.0</ele><time>2026-03-28T11:25:20.208Z</time></trkpt><trkpt lat="43.2259157" lon="11.3729689"><ele>178.0</ele><time>2026-03-28T11:25:21.208Z</time></trkpt><trkpt lat="43.2258692" lon="11.3728047"><ele>178.0</ele><time>2026-03-28T11:25:22.207Z</time></trkpt><trkpt lat="43.2258272" lon="11.3726583"><ele>178.4</ele><time>2026-03-28T11:25:23.207Z</time></trkpt><trkpt lat="43.2257884" lon="11.3725269"><ele>178.8</ele><time>2026-03-28T11:25:24.208Z</time></trkpt><trkpt lat="43.2257477" lon="11.3724161"><ele>179.2</ele><time>2026-03-28T11:25:25.208Z</time></trkpt><trkpt lat="43.2256952" lon="11.3723185"><ele>179.6</ele><time>2026-03-28T11:25:26.208Z</time></trkpt><trkpt lat="43.2256301" lon="11.3722431"><ele>180.0</ele><time>2026-03-28T11:25:27.207Z</time></trkpt><trkpt lat="43.2255484" lon="11.3722067"><ele>180.0</ele><time>2026-03-28T11:25:28.207Z</time></trkpt><trkpt lat="43.2254626" lon="11.3722093"><ele>180.0</ele><time>2026-03-28T11:25:29.207Z</time></trkpt><trkpt lat="43.2253883" lon="11.3722573"><ele>180.0</ele><time>2026-03-28T11:25:30.207Z</time></trkpt><trkpt lat="43.2253236" lon="11.3723447"><ele>180.0</ele><time>2026-03-28T11:25:31.208Z</time></trkpt><trkpt lat="43.2252686" lon="11.3724589"><ele>180.0</ele><time>2026-03-28T11:25:32.207Z</time></trkpt><trkpt lat="43.2252221" lon="11.3725875"><ele>180.0</ele><time>2026-03-28T11:25:33.207Z</time></trkpt><trkpt lat="43.2251741" lon="11.3727241"><ele>180.0</ele><time>2026-03-28T11:25:34.208Z</time></trkpt><trkpt lat="43.2251267" lon="11.372863"><ele>180.0</ele><time>2026-03-28T11:25:35.207Z</time></trkpt><trkpt lat="43.2250717" lon="11.3729919"><ele>180.0</ele><time>2026-03-28T11:25:36.208Z</time></trkpt><trkpt lat="43.2250076" lon="11.373125"><ele>180.0</ele><time>2026-03-28T11:25:37.207Z</time></trkpt><trkpt lat="43.2249283" lon="11.3732462"><ele>180.0</ele><time>2026-03-28T11:25:38.208Z</time></trkpt><trkpt lat="43.2248329" lon="11.3733574"><ele>180.0</ele><time>2026-03-28T11:25:39.208Z</time></trkpt><trkpt lat="43.224724" lon="11.3734426"><ele>180.0</ele><time>2026-03-28T11:25:40.207Z</time></trkpt><trkpt lat="43.2246046" lon="11.3735059"><ele>180.0</ele><time>2026-03-28T11:25:41.208Z</time></trkpt><trkpt lat="43.2244841" lon="11.3735422"><ele>182.0</ele><time>2026-03-28T11:25:42.207Z</time></trkpt><trkpt lat="43.224371" lon="11.3735487"><ele>184.0</ele><time>2026-03-28T11:25:43.207Z</time></trkpt><trkpt lat="43.2242553" lon="11.3735309"><ele>186.0</ele><time>2026-03-28T11:25:44.207Z</time></trkpt><trkpt lat="43.224137" lon="11.3734929"><ele>188.0</ele><time>2026-03-28T11:25:45.208Z</time></trkpt><trkpt lat="43.2240166" lon="11.3734301"><ele>192.5</ele><time>2026-03-28T11:25:46.207Z</time></trkpt><trkpt lat="43.2238995" lon="11.3733377"><ele>197.0</ele><time>2026-03-28T11:25:47.206Z</time></trkpt><trkpt lat="43.2237966" lon="11.3732242"><ele>201.5</ele><time>2026-03-28T11:25:48.207Z</time></trkpt><trkpt lat="43.2237189" lon="11.3730994"><ele>206.0</ele><time>2026-03-28T11:25:49.207Z</time></trkpt><trkpt lat="43.2236548" lon="11.3729583"><ele>206.0</ele><time>2026-03-28T11:25:50.207Z</time></trkpt><trkpt lat="43.2236105" lon="11.3728073"><ele>206.0</ele><time>2026-03-28T11:25:51.207Z</time></trkpt><trkpt lat="43.2235912" lon="11.3726573"><ele>206.0</ele><time>2026-03-28T11:25:52.207Z</time></trkpt><trkpt lat="43.2236001" lon="11.3724981"><ele>206.0</ele><time>2026-03-28T11:25:53.208Z</time></trkpt><trkpt lat="43.2236238" lon="11.3723367"><ele>206.0</ele><time>2026-03-28T11:25:54.208Z</time></trkpt><trkpt lat="43.2236445" lon="11.3721638"><ele>206.0</ele><time>2026-03-28T11:25:55.208Z</time></trkpt><trkpt lat="43.2236503" lon="11.3719925"><ele>206.0</ele><time>2026-03-28T11:25:56.208Z</time></trkpt><trkpt lat="43.223653" lon="11.3718313"><ele>206.0</ele><time>2026-03-28T11:25:57.208Z</time></trkpt><trkpt lat="43.2236004" lon="11.3716777"><ele>206.0</ele><time>2026-03-28T11:25:58.207Z</time></trkpt><trkpt lat="43.223546" lon="11.3715345"><ele>206.0</ele><time>2026-03-28T11:25:59.207Z</time></trkpt><trkpt lat="43.2234776" lon="11.3714081"><ele>206.0</ele><time>2026-03-28T11:26:00.208Z</time></trkpt><trkpt lat="43.2233917" lon="11.3713092"><ele>206.0</ele><time>2026-03-28T11:26:01.207Z</time></trkpt><trkpt lat="43.2233033" lon="11.3712425"><ele>206.0</ele><time>2026-03-28T11:26:02.207Z</time></trkpt><trkpt lat="43.2232112" lon="11.3712048"><ele>206.4</ele><time>2026-03-28T11:26:03.206Z</time></trkpt><trkpt lat="43.2231176" lon="11.37121"><ele>206.8</ele><time>2026-03-28T11:26:04.207Z</time></trkpt><trkpt lat="43.223031" lon="11.3712456"><ele>207.20000000000002</ele><time>2026-03-28T11:26:05.207Z</time></trkpt><trkpt lat="43.2229439" lon="11.3713168"><ele>207.60000000000002</ele><time>2026-03-28T11:26:06.208Z</time></trkpt><trkpt lat="43.2228654" lon="11.3714124"><ele>208.0</ele><time>2026-03-28T11:26:07.207Z</time></trkpt><trkpt lat="43.2228006" lon="11.371513"><ele>208.0</ele><time>2026-03-28T11:26:08.207Z</time></trkpt><trkpt lat="43.222732" lon="11.371634"><ele>208.0</ele><time>2026-03-28T11:26:09.208Z</time></trkpt><trkpt lat="43.2226631" lon="11.371764"><ele>208.0</ele><time>2026-03-28T11:26:10.208Z</time></trkpt><trkpt lat="43.2225945" lon="11.371895"><ele>208.0</ele><time>2026-03-28T11:26:11.207Z</time></trkpt><trkpt lat="43.2225261" lon="11.372017"><ele>208.0</ele><time>2026-03-28T11:26:12.207Z</time></trkpt><trkpt lat="43.2224438" lon="11.3721333"><ele>208.0</ele><time>2026-03-28T11:26:13.208Z</time></trkpt><trkpt lat="43.2223594" lon="11.3722429"><ele>208.0</ele><time>2026-03-28T11:26:14.208Z</time></trkpt><trkpt lat="43.2222658" lon="11.3723525"><ele>208.0</ele><time>2026-03-28T11:26:15.208Z</time></trkpt><trkpt lat="43.2221614" lon="11.3724526"><ele>211.25</ele><time>2026-03-28T11:26:16.207Z</time></trkpt><trkpt lat="43.2220465" lon="11.3725366"><ele>214.5</ele><time>2026-03-28T11:26:17.208Z</time></trkpt><trkpt lat="43.2219218" lon="11.3726076"><ele>217.75</ele><time>2026-03-28T11:26:18.206Z</time></trkpt><trkpt lat="43.2217953" lon="11.3726543"><ele>221.0</ele><time>2026-03-28T11:26:19.208Z</time></trkpt><trkpt lat="43.2216708" lon="11.3726857"><ele>221.0</ele><time>2026-03-28T11:26:20.207Z</time></trkpt><trkpt lat="43.2215455" lon="11.3727172"><ele>221.0</ele><time>2026-03-28T11:26:21.207Z</time></trkpt><trkpt lat="43.2214182" lon="11.3727482"><ele>221.0</ele><time>2026-03-28T11:26:22.207Z</time></trkpt><trkpt lat="43.2212857" lon="11.3727778"><ele>221.0</ele><time>2026-03-28T11:26:23.207Z</time></trkpt><trkpt lat="43.221151" lon="11.372808"><ele>222.5</ele><time>2026-03-28T11:26:24.208Z</time></trkpt><trkpt lat="43.2210167" lon="11.3728349"><ele>224.0</ele><time>2026-03-28T11:26:25.207Z</time></trkpt><trkpt lat="43.2208757" lon="11.3728643"><ele>225.5</ele><time>2026-03-28T11:26:26.208Z</time></trkpt><trkpt lat="43.2207322" lon="11.3728937"><ele>227.0</ele><time>2026-03-28T11:26:27.208Z</time></trkpt><trkpt lat="43.220591" lon="11.3729243"><ele>228.0</ele><time>2026-03-28T11:26:28.207Z</time></trkpt><trkpt lat="43.2204509" lon="11.3729557"><ele>229.0</ele><time>2026-03-28T11:26:29.208Z</time></trkpt><trkpt lat="43.2203094" lon="11.3729845"><ele>230.0</ele><time>2026-03-28T11:26:30.208Z</time></trkpt><trkpt lat="43.2201701" lon="11.3730158"><ele>231.0</ele><time>2026-03-28T11:26:31.207Z</time></trkpt><trkpt lat="43.2200309" lon="11.3730436"><ele>231.0</ele><time>2026-03-28T11:26:32.207Z</time></trkpt><trkpt lat="43.2198932" lon="11.3730696"><ele>231.0</ele><time>2026-03-28T11:26:33.206Z</time></trkpt><trkpt lat="43.2197543" lon="11.3730907"><ele>231.0</ele><time>2026-03-28T11:26:34.208Z</time></trkpt><trkpt lat="43.2196149" lon="11.3731014"><ele>231.0</ele><time>2026-03-28T11:26:35.208Z</time></trkpt><trkpt lat="43.2194793" lon="11.3730944"><ele>234.25</ele><time>2026-03-28T11:26:36.207Z</time></trkpt><trkpt lat="43.2193395" lon="11.3730809"><ele>237.5</ele><time>2026-03-28T11:26:37.208Z</time></trkpt><trkpt lat="43.2192124" lon="11.3730589"><ele>240.75</ele><time>2026-03-28T11:26:38.207Z</time></trkpt><trkpt lat="43.2190873" lon="11.3730384"><ele>244.0</ele><time>2026-03-28T11:26:39.208Z</time></trkpt><trkpt lat="43.2189686" lon="11.3730146"><ele>246.0</ele><time>2026-03-28T11:26:40.208Z</time></trkpt><trkpt lat="43.2188536" lon="11.372971"><ele>248.0</ele><time>2026-03-28T11:26:41.207Z</time></trkpt><trkpt lat="43.2187274" lon="11.3729186"><ele>250.0</ele><time>2026-03-28T11:26:42.207Z</time></trkpt><trkpt lat="43.2185982" lon="11.3728503"><ele>252.0</ele><time>2026-03-28T11:26:43.208Z</time></trkpt><trkpt lat="43.2184709" lon="11.3727851"><ele>252.0</ele><time>2026-03-28T11:26:44.208Z</time></trkpt><trkpt lat="43.2183524" lon="11.3727249"><ele>252.0</ele><time>2026-03-28T11:26:45.208Z</time></trkpt><trkpt lat="43.2182414" lon="11.3726704"><ele>252.0</ele><time>2026-03-28T11:26:46.207Z</time></trkpt><trkpt lat="43.2181433" lon="11.372619"><ele>252.0</ele><time>2026-03-28T11:26:47.207Z</time></trkpt><trkpt lat="43.2180517" lon="11.372566"><ele>252.0</ele><time>2026-03-28T11:26:48.208Z</time></trkpt><trkpt lat="43.2179682" lon="11.3725232"><ele>250.33333333333334</ele><time>2026-03-28T11:26:49.208Z</time></trkpt><trkpt lat="43.2178886" lon="11.3724861"><ele>248.66666666666669</ele><time>2026-03-28T11:26:50.207Z</time></trkpt><trkpt lat="43.2178141" lon="11.3724473"><ele>247.0</ele><time>2026-03-28T11:26:51.208Z</time></trkpt><trkpt lat="43.2177452" lon="11.3724101"><ele>245.33333333333334</ele><time>2026-03-28T11:26:52.208Z</time></trkpt><trkpt lat="43.217665" lon="11.3723719"><ele>243.66666666666669</ele><time>2026-03-28T11:26:53.208Z</time></trkpt><trkpt lat="43.2175964" lon="11.3723357"><ele>242.0</ele><time>2026-03-28T11:26:54.207Z</time></trkpt><trkpt lat="43.2174935" lon="11.3722694"><ele>242.0</ele><time>2026-03-28T11:26:56.207Z</time></trkpt><trkpt lat="43.2174087" lon="11.3722646"><ele>242.0</ele><time>2026-03-28T11:26:58.207Z</time></trkpt><trkpt lat="43.2173961" lon="11.3723634"><ele>242.0</ele><time>2026-03-28T11:27:00.206Z</time></trkpt><trkpt lat="43.2174521" lon="11.3724775"><ele>242.0</ele><time>2026-03-28T11:27:02.208Z</time></trkpt><trkpt lat="43.2175269" lon="11.3726018"><ele>242.0</ele><time>2026-03-28T11:27:04.207Z</time></trkpt><trkpt lat="43.2176471" lon="11.3728089"><ele>242.00000000000003</ele><time>2026-03-28T11:27:07.208Z</time></trkpt><trkpt lat="43.2176943" lon="11.3728894"><ele>242.0</ele><time>2026-03-28T11:27:08.208Z</time></trkpt><trkpt lat="43.2177444" lon="11.3729749"><ele>242.0</ele><time>2026-03-28T11:27:09.207Z</time></trkpt><trkpt lat="43.2177994" lon="11.3730776"><ele>242.0</ele><time>2026-03-28T11:27:10.208Z</time></trkpt><trkpt lat="43.2178583" lon="11.3731863"><ele>242.00000000000003</ele><time>2026-03-28T11:27:11.208Z</time></trkpt><trkpt lat="43.2179195" lon="11.3732924"><ele>242.0</ele><time>2026-03-28T11:27:12.208Z</time></trkpt><trkpt lat="43.2179743" lon="11.3733979"><ele>239.39999999999998</ele><time>2026-03-28T11:27:13.208Z</time></trkpt><trkpt lat="43.2180262" lon="11.3735147"><ele>236.79999999999998</ele><time>2026-03-28T11:27:14.207Z</time></trkpt><trkpt lat="43.2180748" lon="11.3736385"><ele>234.2</ele><time>2026-03-28T11:27:15.208Z</time></trkpt><trkpt lat="43.2181191" lon="11.3737642"><ele>231.6</ele><time>2026-03-28T11:27:16.207Z</time></trkpt><trkpt lat="43.2181629" lon="11.3738903"><ele>229.0</ele><time>2026-03-28T11:27:17.207Z</time></trkpt><trkpt lat="43.2181989" lon="11.3740176"><ele>228.39999999999998</ele><time>2026-03-28T11:27:18.206Z</time></trkpt><trkpt lat="43.2182285" lon="11.3741544"><ele>227.79999999999998</ele><time>2026-03-28T11:27:19.207Z</time></trkpt><trkpt lat="43.218249" lon="11.374295"><ele>227.20000000000002</ele><time>2026-03-28T11:27:20.207Z</time></trkpt><trkpt lat="43.2182609" lon="11.3744367"><ele>226.60000000000002</ele><time>2026-03-28T11:27:21.207Z</time></trkpt><trkpt lat="43.2182635" lon="11.3745863"><ele>226.0</ele><time>2026-03-28T11:27:22.207Z</time></trkpt><trkpt lat="43.2182587" lon="11.3747454"><ele>223.75</ele><time>2026-03-28T11:27:23.208Z</time></trkpt><trkpt lat="43.2182421" lon="11.3749064"><ele>221.5</ele><time>2026-03-28T11:27:24.207Z</time></trkpt><trkpt lat="43.2182038" lon="11.375074"><ele>219.25</ele><time>2026-03-28T11:27:25.207Z</time></trkpt><trkpt lat="43.218164" lon="11.3752441"><ele>217.0</ele><time>2026-03-28T11:27:26.207Z</time></trkpt><trkpt lat="43.2181189" lon="11.3754135"><ele>214.5</ele><time>2026-03-28T11:27:27.207Z</time></trkpt><trkpt lat="43.2180725" lon="11.3755736"><ele>212.0</ele><time>2026-03-28T11:27:28.207Z</time></trkpt><trkpt lat="43.2180227" lon="11.3757234"><ele>209.5</ele><time>2026-03-28T11:27:29.206Z</time></trkpt><trkpt lat="43.2179723" lon="11.3758762"><ele>207.0</ele><time>2026-03-28T11:27:30.208Z</time></trkpt><trkpt lat="43.2179156" lon="11.3760274"><ele>207.0</ele><time>2026-03-28T11:27:31.208Z</time></trkpt><trkpt lat="43.217858" lon="11.3761709"><ele>207.0</ele><time>2026-03-28T11:27:32.208Z</time></trkpt><trkpt lat="43.2177975" lon="11.3763051"><ele>207.0</ele><time>2026-03-28T11:27:33.207Z</time></trkpt><trkpt lat="43.2177268" lon="11.3764327"><ele>207.0</ele><time>2026-03-28T11:27:34.207Z</time></trkpt><trkpt lat="43.2176534" lon="11.3765552"><ele>205.75</ele><time>2026-03-28T11:27:35.207Z</time></trkpt><trkpt lat="43.2175848" lon="11.3766876"><ele>204.5</ele><time>2026-03-28T11:27:36.208Z</time></trkpt><trkpt lat="43.2175039" lon="11.3768299"><ele>203.25</ele><time>2026-03-28T11:27:37.207Z</time></trkpt><trkpt lat="43.2174172" lon="11.376975"><ele>202.0</ele><time>2026-03-28T11:27:38.207Z</time></trkpt><trkpt lat="43.217336" lon="11.3771196"><ele>198.75</ele><time>2026-03-28T11:27:39.207Z</time></trkpt><trkpt lat="43.2172577" lon="11.377261"><ele>195.5</ele><time>2026-03-28T11:27:40.207Z</time></trkpt><trkpt lat="43.2171742" lon="11.3774001"><ele>192.25</ele><time>2026-03-28T11:27:41.207Z</time></trkpt><trkpt lat="43.2170906" lon="11.3775448"><ele>189.0</ele><time>2026-03-28T11:27:42.208Z</time></trkpt><trkpt lat="43.2169988" lon="11.3776976"><ele>189.0</ele><time>2026-03-28T11:27:43.208Z</time></trkpt><trkpt lat="43.2169073" lon="11.377851"><ele>189.0</ele><time>2026-03-28T11:27:44.207Z</time></trkpt><trkpt lat="43.2168177" lon="11.3780026"><ele>189.0</ele><time>2026-03-28T11:27:45.208Z</time></trkpt><trkpt lat="43.2167292" lon="11.3781582"><ele>189.0</ele><time>2026-03-28T11:27:46.208Z</time></trkpt><trkpt lat="43.2166415" lon="11.3783124"><ele>186.66666666666666</ele><time>2026-03-28T11:27:47.208Z</time></trkpt><trkpt lat="43.2165533" lon="11.3784715"><ele>184.33333333333331</ele><time>2026-03-28T11:27:48.207Z</time></trkpt><trkpt lat="43.2164499" lon="11.3786474"><ele>182.0</ele><time>2026-03-28T11:27:49.207Z</time></trkpt><trkpt lat="43.2163408" lon="11.3788314"><ele>180.33333333333331</ele><time>2026-03-28T11:27:50.208Z</time></trkpt><trkpt lat="43.2162345" lon="11.3790019"><ele>178.66666666666666</ele><time>2026-03-28T11:27:51.207Z</time></trkpt><trkpt lat="43.2161353" lon="11.379176"><ele>177.0</ele><time>2026-03-28T11:27:52.207Z</time></trkpt><trkpt lat="43.2160397" lon="11.3793524"><ele>177.0</ele><time>2026-03-28T11:27:53.208Z</time></trkpt><trkpt lat="43.2159557" lon="11.3795386"><ele>177.0</ele><time>2026-03-28T11:27:54.207Z</time></trkpt><trkpt lat="43.2159017" lon="11.3797429"><ele>177.0</ele><time>2026-03-28T11:27:55.207Z</time></trkpt><trkpt lat="43.2158623" lon="11.3799709"><ele>177.0</ele><time>2026-03-28T11:27:56.207Z</time></trkpt><trkpt lat="43.2158249" lon="11.3802245"><ele>177.0</ele><time>2026-03-28T11:27:57.208Z</time></trkpt><trkpt lat="43.2157883" lon="11.3804783"><ele>177.0</ele><time>2026-03-28T11:27:58.207Z</time></trkpt><trkpt lat="43.2157547" lon="11.3807307"><ele>176.33333333333334</ele><time>2026-03-28T11:27:59.207Z</time></trkpt><trkpt lat="43.2157234" lon="11.3809717"><ele>175.66666666666669</ele><time>2026-03-28T11:28:00.208Z</time></trkpt><trkpt lat="43.215692" lon="11.3812099"><ele>175.0</ele><time>2026-03-28T11:28:01.208Z</time></trkpt><trkpt lat="43.2156616" lon="11.3814429"><ele>174.66666666666669</ele><time>2026-03-28T11:28:02.208Z</time></trkpt><trkpt lat="43.2156334" lon="11.3816728"><ele>174.33333333333334</ele><time>2026-03-28T11:28:03.207Z</time></trkpt><trkpt lat="43.2156052" lon="11.3818996"><ele>174.0</ele><time>2026-03-28T11:28:04.208Z</time></trkpt><trkpt lat="43.2155768" lon="11.3821233"><ele>174.0</ele><time>2026-03-28T11:28:05.208Z</time></trkpt><trkpt lat="43.2155504" lon="11.3823432"><ele>174.0</ele><time>2026-03-28T11:28:06.208Z</time></trkpt><trkpt lat="43.2155238" lon="11.3825615"><ele>174.0</ele><time>2026-03-28T11:28:07.207Z</time></trkpt><trkpt lat="43.2154955" lon="11.3827936"><ele>173.66666666666666</ele><time>2026-03-28T11:28:08.208Z</time></trkpt><trkpt lat="43.2154652" lon="11.3830228"><ele>173.33333333333331</ele><time>2026-03-28T11:28:09.208Z</time></trkpt><trkpt lat="43.2154334" lon="11.383245"><ele>173.0</ele><time>2026-03-28T11:28:10.208Z</time></trkpt><trkpt lat="43.2154031" lon="11.3834697"><ele>173.0</ele><time>2026-03-28T11:28:11.207Z</time></trkpt><trkpt lat="43.2153714" lon="11.3837007"><ele>173.0</ele><time>2026-03-28T11:28:12.207Z</time></trkpt><trkpt lat="43.2153408" lon="11.3839265"><ele>173.0</ele><time>2026-03-28T11:28:13.207Z</time></trkpt><trkpt lat="43.2153098" lon="11.3841373"><ele>173.0</ele><time>2026-03-28T11:28:14.207Z</time></trkpt><trkpt lat="43.2152795" lon="11.3843538"><ele>173.0</ele><time>2026-03-28T11:28:15.207Z</time></trkpt><trkpt lat="43.2152502" lon="11.3845758"><ele>173.0</ele><time>2026-03-28T11:28:16.208Z</time></trkpt><trkpt lat="43.215225" lon="11.3847868"><ele>173.0</ele><time>2026-03-28T11:28:17.207Z</time></trkpt><trkpt lat="43.2152" lon="11.3850037"><ele>173.0</ele><time>2026-03-28T11:28:18.207Z</time></trkpt><trkpt lat="43.2151712" lon="11.3852197"><ele>173.0</ele><time>2026-03-28T11:28:19.208Z</time></trkpt><trkpt lat="43.2151403" lon="11.385423"><ele>172.33333333333331</ele><time>2026-03-28T11:28:20.207Z</time></trkpt><trkpt lat="43.2151108" lon="11.3856275"><ele>171.66666666666666</ele><time>2026-03-28T11:28:21.208Z</time></trkpt><trkpt lat="43.2150885" lon="11.3858358"><ele>171.0</ele><time>2026-03-28T11:28:22.207Z</time></trkpt><trkpt lat="43.2150715" lon="11.3860436"><ele>171.0</ele><time>2026-03-28T11:28:23.208Z</time></trkpt><trkpt lat="43.2150623" lon="11.3862566"><ele>171.0</ele><time>2026-03-28T11:28:24.207Z</time></trkpt><trkpt lat="43.2150643" lon="11.3864795"><ele>171.0</ele><time>2026-03-28T11:28:25.207Z</time></trkpt><trkpt lat="43.2150748" lon="11.3867074"><ele>170.33333333333334</ele><time>2026-03-28T11:28:26.208Z</time></trkpt><trkpt lat="43.2150869" lon="11.3869398"><ele>169.66666666666669</ele><time>2026-03-28T11:28:27.208Z</time></trkpt><trkpt lat="43.2150955" lon="11.3871807"><ele>169.0</ele><time>2026-03-28T11:28:28.207Z</time></trkpt><trkpt lat="43.2150986" lon="11.3874272"><ele>169.0</ele><time>2026-03-28T11:28:29.208Z</time></trkpt><trkpt lat="43.215095" lon="11.3876687"><ele>169.0</ele><time>2026-03-28T11:28:30.208Z</time></trkpt><trkpt lat="43.21509" lon="11.3878715"><ele>169.0</ele><time>2026-03-28T11:28:31.207Z</time></trkpt><trkpt lat="43.2151131" lon="11.3880345"><ele>169.0</ele><time>2026-03-28T11:28:32.207Z</time></trkpt><trkpt lat="43.2151719" lon="11.3881891"><ele>169.75</ele><time>2026-03-28T11:28:33.207Z</time></trkpt><trkpt lat="43.215267" lon="11.3882958"><ele>170.5</ele><time>2026-03-28T11:28:34.207Z</time></trkpt><trkpt lat="43.2153758" lon="11.3883456"><ele>171.25</ele><time>2026-03-28T11:28:35.207Z</time></trkpt><trkpt lat="43.2155065" lon="11.3883652"><ele>172.0</ele><time>2026-03-28T11:28:36.208Z</time></trkpt><trkpt lat="43.2156475" lon="11.3883751"><ele>174.66666666666669</ele><time>2026-03-28T11:28:37.208Z</time></trkpt><trkpt lat="43.2157995" lon="11.3884101"><ele>177.33333333333334</ele><time>2026-03-28T11:28:38.207Z</time></trkpt><trkpt lat="43.2159319" lon="11.3885111"><ele>180.0</ele><time>2026-03-28T11:28:39.207Z</time></trkpt><trkpt lat="43.2160517" lon="11.3886467"><ele>180.0</ele><time>2026-03-28T11:28:40.207Z</time></trkpt><trkpt lat="43.2161641" lon="11.3887965"><ele>180.0</ele><time>2026-03-28T11:28:41.207Z</time></trkpt><trkpt lat="43.216272" lon="11.38894"><ele>180.0</ele><time>2026-03-28T11:28:42.208Z</time></trkpt><trkpt lat="43.2163924" lon="11.389091"><ele>183.25</ele><time>2026-03-28T11:28:43.207Z</time></trkpt><trkpt lat="43.2165246" lon="11.3892087"><ele>186.5</ele><time>2026-03-28T11:28:44.208Z</time></trkpt><trkpt lat="43.2166538" lon="11.3892979"><ele>189.75</ele><time>2026-03-28T11:28:45.208Z</time></trkpt><trkpt lat="43.216787" lon="11.3893822"><ele>193.0</ele><time>2026-03-28T11:28:46.207Z</time></trkpt><trkpt lat="43.216916" lon="11.3894843"><ele>193.0</ele><time>2026-03-28T11:28:47.207Z</time></trkpt><trkpt lat="43.2170406" lon="11.3895939"><ele>193.0</ele><time>2026-03-28T11:28:48.207Z</time></trkpt><trkpt lat="43.2171552" lon="11.3897282"><ele>193.0</ele><time>2026-03-28T11:28:49.208Z</time></trkpt><trkpt lat="43.2172511" lon="11.3898854"><ele>193.0</ele><time>2026-03-28T11:28:50.207Z</time></trkpt><trkpt lat="43.2173314" lon="11.3900628"><ele>197.0</ele><time>2026-03-28T11:28:51.208Z</time></trkpt><trkpt lat="43.2173892" lon="11.3902546"><ele>201.0</ele><time>2026-03-28T11:28:52.207Z</time></trkpt><trkpt lat="43.2174295" lon="11.3904455"><ele>205.0</ele><time>2026-03-28T11:28:53.208Z</time></trkpt><trkpt lat="43.2174703" lon="11.3906403"><ele>209.0</ele><time>2026-03-28T11:28:54.207Z</time></trkpt><trkpt lat="43.2175104" lon="11.3908319"><ele>209.25</ele><time>2026-03-28T11:28:55.207Z</time></trkpt><trkpt lat="43.2175526" lon="11.3910213"><ele>209.5</ele><time>2026-03-28T11:28:56.208Z</time></trkpt><trkpt lat="43.2175921" lon="11.39121"><ele>209.75</ele><time>2026-03-28T11:28:57.208Z</time></trkpt><trkpt lat="43.2176298" lon="11.3913924"><ele>210.0</ele><time>2026-03-28T11:28:58.207Z</time></trkpt><trkpt lat="43.2176683" lon="11.3915629"><ele>208.75</ele><time>2026-03-28T11:28:59.207Z</time></trkpt><trkpt lat="43.2177135" lon="11.3917214"><ele>207.5</ele><time>2026-03-28T11:29:00.207Z</time></trkpt><trkpt lat="43.2177797" lon="11.3918733"><ele>206.25</ele><time>2026-03-28T11:29:01.208Z</time></trkpt><trkpt lat="43.2178641" lon="11.3920086"><ele>205.0</ele><time>2026-03-28T11:29:02.207Z</time></trkpt><trkpt lat="43.2179694" lon="11.3921228"><ele>204.33333333333331</ele><time>2026-03-28T11:29:03.207Z</time></trkpt><trkpt lat="43.2180948" lon="11.3922178"><ele>203.66666666666669</ele><time>2026-03-28T11:29:04.207Z</time></trkpt><trkpt lat="43.2182349" lon="11.3923046"><ele>203.0</ele><time>2026-03-28T11:29:05.207Z</time></trkpt><trkpt lat="43.2183804" lon="11.3923835"><ele>203.0</ele><time>2026-03-28T11:29:06.208Z</time></trkpt><trkpt lat="43.2185139" lon="11.3924595"><ele>203.0</ele><time>2026-03-28T11:29:07.207Z</time></trkpt><trkpt lat="43.2186549" lon="11.392541"><ele>203.0</ele><time>2026-03-28T11:29:08.208Z</time></trkpt><trkpt lat="43.218806" lon="11.3926222"><ele>203.0</ele><time>2026-03-28T11:29:09.207Z</time></trkpt><trkpt lat="43.2189567" lon="11.3927035"><ele>203.0</ele><time>2026-03-28T11:29:10.207Z</time></trkpt><trkpt lat="43.2190921" lon="11.3927781"><ele>203.0</ele><time>2026-03-28T11:29:11.207Z</time></trkpt><trkpt lat="43.2192266" lon="11.3928496"><ele>203.5</ele><time>2026-03-28T11:29:12.207Z</time></trkpt><trkpt lat="43.2193564" lon="11.3929179"><ele>204.0</ele><time>2026-03-28T11:29:13.207Z</time></trkpt><trkpt lat="43.2194821" lon="11.3929832"><ele>204.5</ele><time>2026-03-28T11:29:14.208Z</time></trkpt><trkpt lat="43.2196102" lon="11.3930496"><ele>205.0</ele><time>2026-03-28T11:29:15.207Z</time></trkpt><trkpt lat="43.2197373" lon="11.3931165"><ele>207.75</ele><time>2026-03-28T11:29:16.207Z</time></trkpt><trkpt lat="43.2198584" lon="11.3931818"><ele>210.5</ele><time>2026-03-28T11:29:17.207Z</time></trkpt><trkpt lat="43.2199715" lon="11.3932542"><ele>213.25</ele><time>2026-03-28T11:29:18.207Z</time></trkpt><trkpt lat="43.2200757" lon="11.3933535"><ele>216.0</ele><time>2026-03-28T11:29:19.207Z</time></trkpt><trkpt lat="43.2201756" lon="11.3934888"><ele>216.0</ele><time>2026-03-28T11:29:20.207Z</time></trkpt><trkpt lat="43.2202611" lon="11.3936541"><ele>216.0</ele><time>2026-03-28T11:29:21.206Z</time></trkpt><trkpt lat="43.2203323" lon="11.3938243"><ele>216.0</ele><time>2026-03-28T11:29:22.208Z</time></trkpt><trkpt lat="43.2203922" lon="11.394005"><ele>216.0</ele><time>2026-03-28T11:29:23.206Z</time></trkpt><trkpt lat="43.2204327" lon="11.3942032"><ele>215.0</ele><time>2026-03-28T11:29:24.207Z</time></trkpt><trkpt lat="43.220464" lon="11.3944097"><ele>214.0</ele><time>2026-03-28T11:29:25.207Z</time></trkpt><trkpt lat="43.2205182" lon="11.3946119"><ele>213.0</ele><time>2026-03-28T11:29:26.207Z</time></trkpt><trkpt lat="43.2205912" lon="11.3948052"><ele>213.75</ele><time>2026-03-28T11:29:27.208Z</time></trkpt><trkpt lat="43.2206622" lon="11.3949843"><ele>214.5</ele><time>2026-03-28T11:29:28.207Z</time></trkpt><trkpt lat="43.2207327" lon="11.3951643"><ele>215.25</ele><time>2026-03-28T11:29:29.207Z</time></trkpt><trkpt lat="43.2207954" lon="11.3953518"><ele>216.0</ele><time>2026-03-28T11:29:30.207Z</time></trkpt><trkpt lat="43.2208338" lon="11.3955521"><ele>216.0</ele><time>2026-03-28T11:29:31.207Z</time></trkpt><trkpt lat="43.2208541" lon="11.3957576"><ele>216.0</ele><time>2026-03-28T11:29:32.207Z</time></trkpt><trkpt lat="43.2208623" lon="11.3959624"><ele>216.0</ele><time>2026-03-28T11:29:33.207Z</time></trkpt><trkpt lat="43.2208641" lon="11.3961666"><ele>216.0</ele><time>2026-03-28T11:29:34.207Z</time></trkpt><trkpt lat="43.2208674" lon="11.3963715"><ele>217.0</ele><time>2026-03-28T11:29:35.207Z</time></trkpt><trkpt lat="43.220875" lon="11.3965789"><ele>218.0</ele><time>2026-03-28T11:29:36.208Z</time></trkpt><trkpt lat="43.2208924" lon="11.3967834"><ele>219.0</ele><time>2026-03-28T11:29:37.208Z</time></trkpt><trkpt lat="43.2209283" lon="11.3969901"><ele>218.33333333333331</ele><time>2026-03-28T11:29:38.207Z</time></trkpt><trkpt lat="43.2209839" lon="11.3971929"><ele>217.66666666666666</ele><time>2026-03-28T11:29:39.207Z</time></trkpt><trkpt lat="43.2210447" lon="11.3973896"><ele>217.0</ele><time>2026-03-28T11:29:40.208Z</time></trkpt><trkpt lat="43.2211023" lon="11.3975916"><ele>217.0</ele><time>2026-03-28T11:29:41.208Z</time></trkpt><trkpt lat="43.2211642" lon="11.3977971"><ele>217.0</ele><time>2026-03-28T11:29:42.208Z</time></trkpt><trkpt lat="43.2212322" lon="11.3979934"><ele>217.0</ele><time>2026-03-28T11:29:43.207Z</time></trkpt><trkpt lat="43.2213032" lon="11.3981694"><ele>217.25</ele><time>2026-03-28T11:29:44.207Z</time></trkpt><trkpt lat="43.2213728" lon="11.3983491"><ele>217.5</ele><time>2026-03-28T11:29:45.208Z</time></trkpt><trkpt lat="43.2214455" lon="11.398522"><ele>217.75</ele><time>2026-03-28T11:29:46.207Z</time></trkpt><trkpt lat="43.2215205" lon="11.3986951"><ele>218.0</ele><time>2026-03-28T11:29:47.207Z</time></trkpt><trkpt lat="43.2215969" lon="11.3988668"><ele>219.0</ele><time>2026-03-28T11:29:48.207Z</time></trkpt><trkpt lat="43.2216749" lon="11.3990366"><ele>220.0</ele><time>2026-03-28T11:29:49.208Z</time></trkpt><trkpt lat="43.2217499" lon="11.3992105"><ele>221.0</ele><time>2026-03-28T11:29:50.207Z</time></trkpt><trkpt lat="43.2218266" lon="11.3993908"><ele>222.0</ele><time>2026-03-28T11:29:51.208Z</time></trkpt><trkpt lat="43.2219084" lon="11.3995739"><ele>221.66666666666669</ele><time>2026-03-28T11:29:52.207Z</time></trkpt><trkpt lat="43.2219914" lon="11.3997623"><ele>221.33333333333334</ele><time>2026-03-28T11:29:53.208Z</time></trkpt><trkpt lat="43.2220715" lon="11.3999469"><ele>221.0</ele><time>2026-03-28T11:29:54.207Z</time></trkpt><trkpt lat="43.2221454" lon="11.4001211"><ele>221.0</ele><time>2026-03-28T11:29:55.208Z</time></trkpt><trkpt lat="43.2222214" lon="11.4002946"><ele>221.0</ele><time>2026-03-28T11:29:56.208Z</time></trkpt><trkpt lat="43.2222978" lon="11.4004647"><ele>221.0</ele><time>2026-03-28T11:29:57.207Z</time></trkpt><trkpt lat="43.2223759" lon="11.4006285"><ele>221.0</ele><time>2026-03-28T11:29:58.207Z</time></trkpt><trkpt lat="43.2224618" lon="11.4007753"><ele>223.25</ele><time>2026-03-28T11:29:59.208Z</time></trkpt><trkpt lat="43.2225675" lon="11.4008957"><ele>225.5</ele><time>2026-03-28T11:30:00.207Z</time></trkpt><trkpt lat="43.222681" lon="11.4009783"><ele>227.75</ele><time>2026-03-28T11:30:01.208Z</time></trkpt><trkpt lat="43.2227921" lon="11.401023"><ele>230.0</ele><time>2026-03-28T11:30:02.207Z</time></trkpt><trkpt lat="43.2228999" lon="11.4010465"><ele>230.0</ele><time>2026-03-28T11:30:03.207Z</time></trkpt><trkpt lat="43.2230094" lon="11.401075"><ele>230.0</ele><time>2026-03-28T11:30:04.207Z</time></trkpt><trkpt lat="43.2231228" lon="11.4011347"><ele>230.0</ele><time>2026-03-28T11:30:05.207Z</time></trkpt><trkpt lat="43.2232193" lon="11.4012213"><ele>230.0</ele><time>2026-03-28T11:30:06.207Z</time></trkpt><trkpt lat="43.2233062" lon="11.4013374"><ele>229.0</ele><time>2026-03-28T11:30:07.207Z</time></trkpt><trkpt lat="43.2233729" lon="11.4014884"><ele>228.0</ele><time>2026-03-28T11:30:08.207Z</time></trkpt><trkpt lat="43.2234343" lon="11.4016543"><ele>227.0</ele><time>2026-03-28T11:30:09.208Z</time></trkpt><trkpt lat="43.2234837" lon="11.4018107"><ele>226.0</ele><time>2026-03-28T11:30:10.208Z</time></trkpt><trkpt lat="43.2235216" lon="11.4019586"><ele>226.0</ele><time>2026-03-28T11:30:11.208Z</time></trkpt><trkpt lat="43.2235575" lon="11.4021007"><ele>226.0</ele><time>2026-03-28T11:30:12.207Z</time></trkpt><trkpt lat="43.2236092" lon="11.4022411"><ele>226.0</ele><time>2026-03-28T11:30:13.207Z</time></trkpt><trkpt lat="43.2236903" lon="11.4023754"><ele>226.0</ele><time>2026-03-28T11:30:14.207Z</time></trkpt><trkpt lat="43.2237933" lon="11.4024988"><ele>225.25</ele><time>2026-03-28T11:30:15.208Z</time></trkpt><trkpt lat="43.223902" lon="11.4026089"><ele>224.5</ele><time>2026-03-28T11:30:16.208Z</time></trkpt><trkpt lat="43.2240064" lon="11.4027006"><ele>223.75</ele><time>2026-03-28T11:30:17.207Z</time></trkpt><trkpt lat="43.2241105" lon="11.402786"><ele>223.0</ele><time>2026-03-28T11:30:18.207Z</time></trkpt><trkpt lat="43.2242231" lon="11.4028529"><ele>221.5</ele><time>2026-03-28T11:30:19.208Z</time></trkpt><trkpt lat="43.2243445" lon="11.4028997"><ele>220.0</ele><time>2026-03-28T11:30:20.208Z</time></trkpt><trkpt lat="43.2244664" lon="11.4029301"><ele>218.5</ele><time>2026-03-28T11:30:21.207Z</time></trkpt><trkpt lat="43.2245928" lon="11.402953"><ele>217.0</ele><time>2026-03-28T11:30:22.206Z</time></trkpt><trkpt lat="43.2247092" lon="11.4029715"><ele>217.0</ele><time>2026-03-28T11:30:23.207Z</time></trkpt><trkpt lat="43.2248251" lon="11.4029898"><ele>217.0</ele><time>2026-03-28T11:30:24.207Z</time></trkpt><trkpt lat="43.2249484" lon="11.4030093"><ele>217.0</ele><time>2026-03-28T11:30:25.208Z</time></trkpt><trkpt lat="43.2250722" lon="11.4030422"><ele>217.0</ele><time>2026-03-28T11:30:26.208Z</time></trkpt><trkpt lat="43.2251784" lon="11.4030895"><ele>217.0</ele><time>2026-03-28T11:30:27.207Z</time></trkpt><trkpt lat="43.2252812" lon="11.4031463"><ele>217.0</ele><time>2026-03-28T11:30:28.207Z</time></trkpt><trkpt lat="43.2253849" lon="11.4032163"><ele>217.0</ele><time>2026-03-28T11:30:29.208Z</time></trkpt><trkpt lat="43.2254894" lon="11.4032929"><ele>217.0</ele><time>2026-03-28T11:30:30.207Z</time></trkpt><trkpt lat="43.2255969" lon="11.4033654"><ele>218.25</ele><time>2026-03-28T11:30:31.207Z</time></trkpt><trkpt lat="43.2257057" lon="11.4034376"><ele>219.5</ele><time>2026-03-28T11:30:32.207Z</time></trkpt><trkpt lat="43.2258202" lon="11.4035185"><ele>220.75</ele><time>2026-03-28T11:30:33.207Z</time></trkpt><trkpt lat="43.2259298" lon="11.4035937"><ele>222.0</ele><time>2026-03-28T11:30:34.207Z</time></trkpt><trkpt lat="43.2260415" lon="11.4036706"><ele>222.0</ele><time>2026-03-28T11:30:35.207Z</time></trkpt><trkpt lat="43.2261541" lon="11.4037469"><ele>222.0</ele><time>2026-03-28T11:30:36.207Z</time></trkpt><trkpt lat="43.2262629" lon="11.4038227"><ele>222.0</ele><time>2026-03-28T11:30:37.207Z</time></trkpt><trkpt lat="43.2263634" lon="11.403892"><ele>222.0</ele><time>2026-03-28T11:30:38.207Z</time></trkpt><trkpt lat="43.2264604" lon="11.4039609"><ele>220.5</ele><time>2026-03-28T11:30:39.207Z</time></trkpt><trkpt lat="43.2265537" lon="11.404032"><ele>219.0</ele><time>2026-03-28T11:30:40.207Z</time></trkpt><trkpt lat="43.2266505" lon="11.4041064"><ele>217.5</ele><time>2026-03-28T11:30:41.207Z</time></trkpt><trkpt lat="43.2267555" lon="11.4041861"><ele>216.0</ele><time>2026-03-28T11:30:42.207Z</time></trkpt><trkpt lat="43.2268602" lon="11.404273"><ele>216.0</ele><time>2026-03-28T11:30:43.207Z</time></trkpt><trkpt lat="43.2269728" lon="11.4043864"><ele>216.0</ele><time>2026-03-28T11:30:44.208Z</time></trkpt><trkpt lat="43.2270748" lon="11.4045495"><ele>216.0</ele><time>2026-03-28T11:30:45.208Z</time></trkpt><trkpt lat="43.227164" lon="11.4047449"><ele>213.0</ele><time>2026-03-28T11:30:46.208Z</time></trkpt><trkpt lat="43.2272279" lon="11.4049396"><ele>210.0</ele><time>2026-03-28T11:30:47.207Z</time></trkpt><trkpt lat="43.227265" lon="11.4051515"><ele>207.0</ele><time>2026-03-28T11:30:48.208Z</time></trkpt><trkpt lat="43.2272719" lon="11.4053734"><ele>207.0</ele><time>2026-03-28T11:30:49.207Z</time></trkpt><trkpt lat="43.2272519" lon="11.4055891"><ele>207.0</ele><time>2026-03-28T11:30:50.208Z</time></trkpt><trkpt lat="43.2272037" lon="11.4058033"><ele>207.0</ele><time>2026-03-28T11:30:51.208Z</time></trkpt><trkpt lat="43.2271187" lon="11.4060082"><ele>207.0</ele><time>2026-03-28T11:30:52.208Z</time></trkpt><trkpt lat="43.2270085" lon="11.4061774"><ele>207.0</ele><time>2026-03-28T11:30:53.207Z</time></trkpt><trkpt lat="43.2268825" lon="11.4063256"><ele>207.0</ele><time>2026-03-28T11:30:54.207Z</time></trkpt><trkpt lat="43.2267618" lon="11.4064415"><ele>207.25</ele><time>2026-03-28T11:30:55.208Z</time></trkpt><trkpt lat="43.2266511" lon="11.4065466"><ele>207.5</ele><time>2026-03-28T11:30:56.207Z</time></trkpt><trkpt lat="43.2265535" lon="11.4066656"><ele>207.75</ele><time>2026-03-28T11:30:57.207Z</time></trkpt><trkpt lat="43.2264772" lon="11.4068009"><ele>208.0</ele><time>2026-03-28T11:30:58.207Z</time></trkpt><trkpt lat="43.2264136" lon="11.4069681"><ele>208.25</ele><time>2026-03-28T11:30:59.207Z</time></trkpt><trkpt lat="43.2263609" lon="11.407148"><ele>208.5</ele><time>2026-03-28T11:31:00.208Z</time></trkpt><trkpt lat="43.2263105" lon="11.4073136"><ele>208.75</ele><time>2026-03-28T11:31:01.208Z</time></trkpt><trkpt lat="43.2262538" lon="11.4074726"><ele>209.0</ele><time>2026-03-28T11:31:02.208Z</time></trkpt><trkpt lat="43.2261839" lon="11.407613"><ele>209.25</ele><time>2026-03-28T11:31:03.207Z</time></trkpt><trkpt lat="43.2260956" lon="11.4077468"><ele>209.5</ele><time>2026-03-28T11:31:04.208Z</time></trkpt><trkpt lat="43.2259935" lon="11.4078733"><ele>209.75</ele><time>2026-03-28T11:31:05.207Z</time></trkpt><trkpt lat="43.2258829" lon="11.407988"><ele>210.0</ele><time>2026-03-28T11:31:06.207Z</time></trkpt><trkpt lat="43.2257766" lon="11.4080961"><ele>208.25</ele><time>2026-03-28T11:31:07.207Z</time></trkpt><trkpt lat="43.2256873" lon="11.4082267"><ele>206.5</ele><time>2026-03-28T11:31:08.207Z</time></trkpt><trkpt lat="43.2256211" lon="11.408386"><ele>204.75</ele><time>2026-03-28T11:31:09.207Z</time></trkpt><trkpt lat="43.225579" lon="11.4085601"><ele>203.0</ele><time>2026-03-28T11:31:10.208Z</time></trkpt><trkpt lat="43.2255674" lon="11.4087327"><ele>202.25</ele><time>2026-03-28T11:31:11.207Z</time></trkpt><trkpt lat="43.2255858" lon="11.4089191"><ele>201.5</ele><time>2026-03-28T11:31:12.207Z</time></trkpt><trkpt lat="43.2256392" lon="11.4091058"><ele>200.75</ele><time>2026-03-28T11:31:13.208Z</time></trkpt><trkpt lat="43.2257108" lon="11.4092988"><ele>200.0</ele><time>2026-03-28T11:31:14.206Z</time></trkpt><trkpt lat="43.2257744" lon="11.4094921"><ele>200.66666666666669</ele><time>2026-03-28T11:31:15.207Z</time></trkpt><trkpt lat="43.2258187" lon="11.4096908"><ele>201.33333333333331</ele><time>2026-03-28T11:31:16.207Z</time></trkpt><trkpt lat="43.2258562" lon="11.4099029"><ele>202.0</ele><time>2026-03-28T11:31:17.206Z</time></trkpt><trkpt lat="43.2258857" lon="11.4101056"><ele>202.0</ele><time>2026-03-28T11:31:18.207Z</time></trkpt><trkpt lat="43.2259116" lon="11.4102832"><ele>202.0</ele><time>2026-03-28T11:31:19.206Z</time></trkpt><trkpt lat="43.2259331" lon="11.4104466"><ele>202.0</ele><time>2026-03-28T11:31:20.206Z</time></trkpt><trkpt lat="43.2259554" lon="11.4106008"><ele>202.0</ele><time>2026-03-28T11:31:21.206Z</time></trkpt><trkpt lat="43.2259737" lon="11.4107458"><ele>201.39999999999998</ele><time>2026-03-28T11:31:22.205Z</time></trkpt><trkpt lat="43.2259894" lon="11.4108944"><ele>200.79999999999998</ele><time>2026-03-28T11:31:23.206Z</time></trkpt><trkpt lat="43.2259984" lon="11.4110367"><ele>200.2</ele><time>2026-03-28T11:31:24.206Z</time></trkpt><trkpt lat="43.2259982" lon="11.4111867"><ele>199.6</ele><time>2026-03-28T11:31:25.206Z</time></trkpt><trkpt lat="43.2259885" lon="11.4113341"><ele>199.0</ele><time>2026-03-28T11:31:26.207Z</time></trkpt><trkpt lat="43.2259888" lon="11.4114795"><ele>198.25</ele><time>2026-03-28T11:31:27.207Z</time></trkpt><trkpt lat="43.2260258" lon="11.4116119"><ele>197.5</ele><time>2026-03-28T11:31:28.207Z</time></trkpt><trkpt lat="43.2261017" lon="11.4117212"><ele>196.75</ele><time>2026-03-28T11:31:29.207Z</time></trkpt><trkpt lat="43.2262043" lon="11.4118077"><ele>196.0</ele><time>2026-03-28T11:31:30.207Z</time></trkpt><trkpt lat="43.2262896" lon="11.4119191"><ele>196.0</ele><time>2026-03-28T11:31:31.206Z</time></trkpt><trkpt lat="43.2263527" lon="11.4120544"><ele>196.0</ele><time>2026-03-28T11:31:32.206Z</time></trkpt><trkpt lat="43.2264058" lon="11.4121888"><ele>196.0</ele><time>2026-03-28T11:31:33.207Z</time></trkpt><trkpt lat="43.2264511" lon="11.412332"><ele>196.0</ele><time>2026-03-28T11:31:34.206Z</time></trkpt><trkpt lat="43.2264825" lon="11.4124729"><ele>192.8</ele><time>2026-03-28T11:31:35.206Z</time></trkpt><trkpt lat="43.2265089" lon="11.4126031"><ele>189.60000000000002</ele><time>2026-03-28T11:31:36.206Z</time></trkpt><trkpt lat="43.2265288" lon="11.4127223"><ele>186.4</ele><time>2026-03-28T11:31:37.206Z</time></trkpt><trkpt lat="43.2265485" lon="11.412838"><ele>183.2</ele><time>2026-03-28T11:31:38.206Z</time></trkpt><trkpt lat="43.2265699" lon="11.4129534"><ele>180.0</ele><time>2026-03-28T11:31:39.207Z</time></trkpt><trkpt lat="43.2265977" lon="11.4130703"><ele>178.6</ele><time>2026-03-28T11:31:40.206Z</time></trkpt><trkpt lat="43.2266339" lon="11.4131902"><ele>177.2</ele><time>2026-03-28T11:31:41.207Z</time></trkpt><trkpt lat="43.2266725" lon="11.4133034"><ele>175.8</ele><time>2026-03-28T11:31:42.206Z</time></trkpt><trkpt lat="43.2267141" lon="11.4134217"><ele>174.4</ele><time>2026-03-28T11:31:43.206Z</time></trkpt><trkpt lat="43.2267585" lon="11.4135578"><ele>173.0</ele><time>2026-03-28T11:31:44.207Z</time></trkpt><trkpt lat="43.2268067" lon="11.413707"><ele>172.5</ele><time>2026-03-28T11:31:45.206Z</time></trkpt><trkpt lat="43.2268572" lon="11.4138609"><ele>172.0</ele><time>2026-03-28T11:31:46.207Z</time></trkpt><trkpt lat="43.2269038" lon="11.4140092"><ele>171.5</ele><time>2026-03-28T11:31:47.207Z</time></trkpt><trkpt lat="43.2269413" lon="11.4141558"><ele>171.0</ele><time>2026-03-28T11:31:48.206Z</time></trkpt><trkpt lat="43.2269795" lon="11.4142955"><ele>171.0</ele><time>2026-03-28T11:31:49.207Z</time></trkpt><trkpt lat="43.227014" lon="11.4144248"><ele>171.0</ele><time>2026-03-28T11:31:50.206Z</time></trkpt><trkpt lat="43.2270434" lon="11.4145306"><ele>171.0</ele><time>2026-03-28T11:31:51.206Z</time></trkpt><trkpt lat="43.2270724" lon="11.4146177"><ele>171.0</ele><time>2026-03-28T11:31:52.206Z</time></trkpt><trkpt lat="43.2271072" lon="11.4146922"><ele>171.0</ele><time>2026-03-28T11:31:53.206Z</time></trkpt><trkpt lat="43.2271438" lon="11.4147693"><ele>171.0</ele><time>2026-03-28T11:31:54.207Z</time></trkpt><trkpt lat="43.2271755" lon="11.4148559"><ele>171.0</ele><time>2026-03-28T11:31:55.206Z</time></trkpt><trkpt lat="43.2271965" lon="11.4149499"><ele>171.0</ele><time>2026-03-28T11:31:56.206Z</time></trkpt><trkpt lat="43.2272156" lon="11.4150368"><ele>171.0</ele><time>2026-03-28T11:31:57.207Z</time></trkpt><trkpt lat="43.227323" lon="11.4151337"><ele>171.0</ele><time>2026-03-28T11:31:59.207Z</time></trkpt><trkpt lat="43.2274015" lon="11.4151638"><ele>171.0</ele><time>2026-03-28T11:32:00.206Z</time></trkpt><trkpt lat="43.2274784" lon="11.4152254"><ele>171.0</ele><time>2026-03-28T11:32:01.206Z</time></trkpt><trkpt lat="43.2275436" lon="11.4153003"><ele>170.4</ele><time>2026-03-28T11:32:02.207Z</time></trkpt><trkpt lat="43.227597" lon="11.4153742"><ele>169.8</ele><time>2026-03-28T11:32:03.206Z</time></trkpt><trkpt lat="43.2276529" lon="11.4154712"><ele>169.20000000000002</ele><time>2026-03-28T11:32:04.206Z</time></trkpt><trkpt lat="43.2276937" lon="11.415592"><ele>168.60000000000002</ele><time>2026-03-28T11:32:05.206Z</time></trkpt><trkpt lat="43.22773" lon="11.4157278"><ele>168.0</ele><time>2026-03-28T11:32:06.206Z</time></trkpt><trkpt lat="43.2277635" lon="11.4158465"><ele>167.8</ele><time>2026-03-28T11:32:07.207Z</time></trkpt><trkpt lat="43.2277982" lon="11.4159578"><ele>167.60000000000002</ele><time>2026-03-28T11:32:08.206Z</time></trkpt><trkpt lat="43.227833" lon="11.4160782"><ele>167.39999999999998</ele><time>2026-03-28T11:32:09.206Z</time></trkpt><trkpt lat="43.2278699" lon="11.4161964"><ele>167.2</ele><time>2026-03-28T11:32:10.206Z</time></trkpt><trkpt lat="43.2279032" lon="11.416313"><ele>167.0</ele><time>2026-03-28T11:32:11.206Z</time></trkpt><trkpt lat="43.2279369" lon="11.4164381"><ele>166.8</ele><time>2026-03-28T11:32:12.206Z</time></trkpt><trkpt lat="43.2279745" lon="11.4165666"><ele>166.6</ele><time>2026-03-28T11:32:13.206Z</time></trkpt><trkpt lat="43.2280118" lon="11.4166953"><ele>166.4</ele><time>2026-03-28T11:32:14.206Z</time></trkpt><trkpt lat="43.2280457" lon="11.4168107"><ele>166.20000000000002</ele><time>2026-03-28T11:32:15.206Z</time></trkpt><trkpt lat="43.2280804" lon="11.4169264"><ele>166.0</ele><time>2026-03-28T11:32:16.206Z</time></trkpt><trkpt lat="43.2281135" lon="11.4170468"><ele>166.0</ele><time>2026-03-28T11:32:17.206Z</time></trkpt><trkpt lat="43.228141" lon="11.4171516"><ele>166.0</ele><time>2026-03-28T11:32:18.206Z</time></trkpt><trkpt lat="43.2281705" lon="11.4172464"><ele>166.0</ele><time>2026-03-28T11:32:19.205Z</time></trkpt><trkpt lat="43.2282008" lon="11.4173377"><ele>166.0</ele><time>2026-03-28T11:32:20.206Z</time></trkpt><trkpt lat="43.2282349" lon="11.4174367"><ele>166.0</ele><time>2026-03-28T11:32:21.206Z</time></trkpt><trkpt lat="43.2282653" lon="11.4175288"><ele>166.0</ele><time>2026-03-28T11:32:22.206Z</time></trkpt><trkpt lat="43.2282894" lon="11.4176167"><ele>165.85714285714286</ele><time>2026-03-28T11:32:23.207Z</time></trkpt><trkpt lat="43.2283118" lon="11.4177114"><ele>165.71428571428572</ele><time>2026-03-28T11:32:24.206Z</time></trkpt><trkpt lat="43.2283339" lon="11.4178029"><ele>165.57142857142858</ele><time>2026-03-28T11:32:25.207Z</time></trkpt><trkpt lat="43.2283586" lon="11.417894"><ele>165.42857142857144</ele><time>2026-03-28T11:32:26.206Z</time></trkpt><trkpt lat="43.2283865" lon="11.4179887"><ele>165.28571428571428</ele><time>2026-03-28T11:32:27.207Z</time></trkpt><trkpt lat="43.2284139" lon="11.4180854"><ele>165.14285714285717</ele><time>2026-03-28T11:32:28.206Z</time></trkpt><trkpt lat="43.2284437" lon="11.4181796"><ele>165.0</ele><time>2026-03-28T11:32:29.206Z</time></trkpt><trkpt lat="43.2284736" lon="11.4182676"><ele>165.00000000000003</ele><time>2026-03-28T11:32:30.206Z</time></trkpt><trkpt lat="43.2284958" lon="11.4183494"><ele>165.0</ele><time>2026-03-28T11:32:31.207Z</time></trkpt><trkpt lat="43.2285337" lon="11.4184929"><ele>165.0</ele><time>2026-03-28T11:32:33.206Z</time></trkpt><trkpt lat="43.2285528" lon="11.4185803"><ele>165.0</ele><time>2026-03-28T11:32:34.206Z</time></trkpt><trkpt lat="43.2285738" lon="11.4186699"><ele>165.0</ele><time>2026-03-28T11:32:35.207Z</time></trkpt><trkpt lat="43.2285989" lon="11.418753"><ele>165.00000000000003</ele><time>2026-03-28T11:32:36.207Z</time></trkpt><trkpt lat="43.2286272" lon="11.4188439"><ele>165.0</ele><time>2026-03-28T11:32:37.207Z</time></trkpt><trkpt lat="43.2286563" lon="11.4189419"><ele>165.16666666666666</ele><time>2026-03-28T11:32:38.206Z</time></trkpt><trkpt lat="43.2286861" lon="11.419049"><ele>165.33333333333334</ele><time>2026-03-28T11:32:39.207Z</time></trkpt><trkpt lat="43.2287131" lon="11.4191577"><ele>165.5</ele><time>2026-03-28T11:32:40.206Z</time></trkpt><trkpt lat="43.2287423" lon="11.4192728"><ele>165.66666666666669</ele><time>2026-03-28T11:32:41.206Z</time></trkpt><trkpt lat="43.2287797" lon="11.4193951"><ele>165.83333333333334</ele><time>2026-03-28T11:32:42.206Z</time></trkpt><trkpt lat="43.2288134" lon="11.4195053"><ele>166.0</ele><time>2026-03-28T11:32:43.206Z</time></trkpt><trkpt lat="43.2288451" lon="11.4196103"><ele>165.83333333333334</ele><time>2026-03-28T11:32:44.206Z</time></trkpt><trkpt lat="43.2288776" lon="11.4197161"><ele>165.66666666666669</ele><time>2026-03-28T11:32:45.206Z</time></trkpt><trkpt lat="43.22891" lon="11.4198187"><ele>165.5</ele><time>2026-03-28T11:32:46.206Z</time></trkpt><trkpt lat="43.2289377" lon="11.4199173"><ele>165.33333333333334</ele><time>2026-03-28T11:32:47.206Z</time></trkpt><trkpt lat="43.2289667" lon="11.4200072"><ele>165.16666666666666</ele><time>2026-03-28T11:32:48.206Z</time></trkpt><trkpt lat="43.2289925" lon="11.420105"><ele>165.0</ele><time>2026-03-28T11:32:49.205Z</time></trkpt><trkpt lat="43.2290255" lon="11.420224"><ele>165.0</ele><time>2026-03-28T11:32:50.207Z</time></trkpt><trkpt lat="43.2290581" lon="11.4203517"><ele>165.0</ele><time>2026-03-28T11:32:51.206Z</time></trkpt><trkpt lat="43.2290968" lon="11.4204764"><ele>165.0</ele><time>2026-03-28T11:32:52.206Z</time></trkpt><trkpt lat="43.2291349" lon="11.4205911"><ele>165.0</ele><time>2026-03-28T11:32:53.207Z</time></trkpt><trkpt lat="43.2291632" lon="11.4206904"><ele>165.0</ele><time>2026-03-28T11:32:54.206Z</time></trkpt><trkpt lat="43.2291923" lon="11.4207992"><ele>165.0</ele><time>2026-03-28T11:32:55.207Z</time></trkpt><trkpt lat="43.2292237" lon="11.4209166"><ele>165.0</ele><time>2026-03-28T11:32:56.206Z</time></trkpt><trkpt lat="43.2292547" lon="11.4210375"><ele>165.0</ele><time>2026-03-28T11:32:57.206Z</time></trkpt><trkpt lat="43.2292852" lon="11.4211578"><ele>165.0</ele><time>2026-03-28T11:32:58.206Z</time></trkpt><trkpt lat="43.229317" lon="11.4212788"><ele>165.0</ele><time>2026-03-28T11:32:59.207Z</time></trkpt><trkpt lat="43.2293476" lon="11.421393"><ele>165.0</ele><time>2026-03-28T11:33:00.206Z</time></trkpt><trkpt lat="43.2293765" lon="11.4215012"><ele>165.0</ele><time>2026-03-28T11:33:01.207Z</time></trkpt><trkpt lat="43.229405" lon="11.4216076"><ele>165.0</ele><time>2026-03-28T11:33:02.207Z</time></trkpt><trkpt lat="43.22943" lon="11.4217074"><ele>165.0</ele><time>2026-03-28T11:33:03.206Z</time></trkpt><trkpt lat="43.2294602" lon="11.4218136"><ele>165.0</ele><time>2026-03-28T11:33:04.207Z</time></trkpt><trkpt lat="43.2294888" lon="11.4219085"><ele>165.0</ele><time>2026-03-28T11:33:05.206Z</time></trkpt><trkpt lat="43.2295159" lon="11.4220007"><ele>165.0</ele><time>2026-03-28T11:33:06.207Z</time></trkpt><trkpt lat="43.2295429" lon="11.4220915"><ele>165.0</ele><time>2026-03-28T11:33:07.206Z</time></trkpt><trkpt lat="43.2295878" lon="11.4222346"><ele>165.0</ele><time>2026-03-28T11:33:09.207Z</time></trkpt><trkpt lat="43.2295678" lon="11.4223476"><ele>165.0</ele><time>2026-03-28T11:33:11.206Z</time></trkpt><trkpt lat="43.2294511" lon="11.4224288"><ele>165.0</ele><time>2026-03-28T11:33:13.206Z</time></trkpt><trkpt lat="43.2293843" lon="11.4224863"><ele>165.0</ele><time>2026-03-28T11:33:14.206Z</time></trkpt><trkpt lat="43.2293145" lon="11.4225656"><ele>165.0</ele><time>2026-03-28T11:33:15.206Z</time></trkpt><trkpt lat="43.2292438" lon="11.4226662"><ele>165.0</ele><time>2026-03-28T11:33:16.207Z</time></trkpt><trkpt lat="43.2291738" lon="11.4227759"><ele>165.0</ele><time>2026-03-28T11:33:17.207Z</time></trkpt><trkpt lat="43.229109" lon="11.4228772"><ele>165.0</ele><time>2026-03-28T11:33:18.207Z</time></trkpt><trkpt lat="43.22905" lon="11.4229653"><ele>164.83333333333334</ele><time>2026-03-28T11:33:19.207Z</time></trkpt><trkpt lat="43.2289907" lon="11.4230526"><ele>164.66666666666666</ele><time>2026-03-28T11:33:20.206Z</time></trkpt><trkpt lat="43.2289284" lon="11.4231442"><ele>164.5</ele><time>2026-03-28T11:33:21.206Z</time></trkpt><trkpt lat="43.2288618" lon="11.4232224"><ele>164.33333333333331</ele><time>2026-03-28T11:33:22.207Z</time></trkpt><trkpt lat="43.2287939" lon="11.4232773"><ele>164.16666666666666</ele><time>2026-03-28T11:33:23.206Z</time></trkpt><trkpt lat="43.228725" lon="11.4233251"><ele>164.0</ele><time>2026-03-28T11:33:24.206Z</time></trkpt><trkpt lat="43.2286551" lon="11.423374"><ele>163.99999999999997</ele><time>2026-03-28T11:33:25.206Z</time></trkpt><trkpt lat="43.2285947" lon="11.423427"><ele>164.0</ele><time>2026-03-28T11:33:26.206Z</time></trkpt><trkpt lat="43.2285483" lon="11.423501"><ele>164.0</ele><time>2026-03-28T11:33:27.206Z</time></trkpt><trkpt lat="43.2285326" lon="11.423589"><ele>164.0</ele><time>2026-03-28T11:33:28.206Z</time></trkpt><trkpt lat="43.2285498" lon="11.4236792"><ele>164.0</ele><time>2026-03-28T11:33:29.206Z</time></trkpt><trkpt lat="43.2285895" lon="11.4237726"><ele>163.99999999999997</ele><time>2026-03-28T11:33:30.206Z</time></trkpt><trkpt lat="43.2286266" lon="11.4238752"><ele>164.0</ele><time>2026-03-28T11:33:31.206Z</time></trkpt><trkpt lat="43.228652" lon="11.4239871"><ele>163.79999999999998</ele><time>2026-03-28T11:33:32.207Z</time></trkpt><trkpt lat="43.2286689" lon="11.4241121"><ele>163.6</ele><time>2026-03-28T11:33:33.206Z</time></trkpt><trkpt lat="43.2286843" lon="11.424238"><ele>163.4</ele><time>2026-03-28T11:33:34.206Z</time></trkpt><trkpt lat="43.2286999" lon="11.4243702"><ele>163.2</ele><time>2026-03-28T11:33:35.207Z</time></trkpt><trkpt lat="43.2287166" lon="11.4245106"><ele>163.0</ele><time>2026-03-28T11:33:36.206Z</time></trkpt><trkpt lat="43.2287351" lon="11.4246553"><ele>162.8</ele><time>2026-03-28T11:33:37.207Z</time></trkpt><trkpt lat="43.2287553" lon="11.4247986"><ele>162.60000000000002</ele><time>2026-03-28T11:33:38.206Z</time></trkpt><trkpt lat="43.2287732" lon="11.4249433"><ele>162.39999999999998</ele><time>2026-03-28T11:33:39.206Z</time></trkpt><trkpt lat="43.2287868" lon="11.4250829"><ele>162.2</ele><time>2026-03-28T11:33:40.206Z</time></trkpt><trkpt lat="43.2288048" lon="11.4252238"><ele>162.0</ele><time>2026-03-28T11:33:41.207Z</time></trkpt><trkpt lat="43.2288219" lon="11.4253735"><ele>162.0</ele><time>2026-03-28T11:33:42.207Z</time></trkpt><trkpt lat="43.2288389" lon="11.4255195"><ele>162.0</ele><time>2026-03-28T11:33:43.207Z</time></trkpt><trkpt lat="43.2288578" lon="11.4256727"><ele>162.0</ele><time>2026-03-28T11:33:44.206Z</time></trkpt><trkpt lat="43.2288782" lon="11.4258378"><ele>162.0</ele><time>2026-03-28T11:33:45.207Z</time></trkpt><trkpt lat="43.2288981" lon="11.4259856"><ele>162.0</ele><time>2026-03-28T11:33:46.207Z</time></trkpt><trkpt lat="43.2289184" lon="11.4261278"><ele>162.0</ele><time>2026-03-28T11:33:47.207Z</time></trkpt><trkpt lat="43.2289324" lon="11.426274"><ele>162.0</ele><time>2026-03-28T11:33:48.206Z</time></trkpt><trkpt lat="43.2289505" lon="11.4264201"><ele>162.0</ele><time>2026-03-28T11:33:49.206Z</time></trkpt><trkpt lat="43.2289652" lon="11.4265671"><ele>162.0</ele><time>2026-03-28T11:33:50.206Z</time></trkpt><trkpt lat="43.228983" lon="11.4267206"><ele>162.0</ele><time>2026-03-28T11:33:51.206Z</time></trkpt><trkpt lat="43.2290041" lon="11.4268815"><ele>162.0</ele><time>2026-03-28T11:33:52.207Z</time></trkpt><trkpt lat="43.2290249" lon="11.4270489"><ele>162.0</ele><time>2026-03-28T11:33:53.206Z</time></trkpt><trkpt lat="43.2290438" lon="11.4272173"><ele>162.0</ele><time>2026-03-28T11:33:54.207Z</time></trkpt><trkpt lat="43.2290651" lon="11.4274012"><ele>162.0</ele><time>2026-03-28T11:33:55.207Z</time></trkpt><trkpt lat="43.2290882" lon="11.4276065"><ele>162.0</ele><time>2026-03-28T11:33:56.207Z</time></trkpt><trkpt lat="43.2291087" lon="11.4278033"><ele>162.0</ele><time>2026-03-28T11:33:57.207Z</time></trkpt><trkpt lat="43.2291311" lon="11.4279913"><ele>162.0</ele><time>2026-03-28T11:33:58.206Z</time></trkpt><trkpt lat="43.22915" lon="11.4281768"><ele>162.25</ele><time>2026-03-28T11:33:59.206Z</time></trkpt><trkpt lat="43.2291297" lon="11.428363"><ele>162.5</ele><time>2026-03-28T11:34:00.207Z</time></trkpt><trkpt lat="43.2290717" lon="11.4285464"><ele>162.75</ele><time>2026-03-28T11:34:01.206Z</time></trkpt><trkpt lat="43.2289781" lon="11.4287069"><ele>163.0</ele><time>2026-03-28T11:34:02.206Z</time></trkpt><trkpt lat="43.2288553" lon="11.4288456"><ele>162.33333333333334</ele><time>2026-03-28T11:34:03.206Z</time></trkpt><trkpt lat="43.2287221" lon="11.4289806"><ele>161.66666666666666</ele><time>2026-03-28T11:34:04.206Z</time></trkpt><trkpt lat="43.2285836" lon="11.4291066"><ele>161.0</ele><time>2026-03-28T11:34:05.207Z</time></trkpt><trkpt lat="43.2284318" lon="11.4292492"><ele>161.0</ele><time>2026-03-28T11:34:06.206Z</time></trkpt><trkpt lat="43.2282818" lon="11.4294119"><ele>161.0</ele><time>2026-03-28T11:34:07.206Z</time></trkpt><trkpt lat="43.2281357" lon="11.4296074"><ele>161.0</ele><time>2026-03-28T11:34:08.207Z</time></trkpt><trkpt lat="43.2280066" lon="11.4298105"><ele>160.66666666666666</ele><time>2026-03-28T11:34:09.206Z</time></trkpt><trkpt lat="43.227879" lon="11.4300107"><ele>160.33333333333334</ele><time>2026-03-28T11:34:10.206Z</time></trkpt><trkpt lat="43.2277589" lon="11.4302055"><ele>160.0</ele><time>2026-03-28T11:34:11.207Z</time></trkpt><trkpt lat="43.227639" lon="11.4304045"><ele>160.0</ele><time>2026-03-28T11:34:12.206Z</time></trkpt><trkpt lat="43.2275177" lon="11.4306111"><ele>160.0</ele><time>2026-03-28T11:34:13.206Z</time></trkpt><trkpt lat="43.227394" lon="11.430822"><ele>160.0</ele><time>2026-03-28T11:34:14.207Z</time></trkpt><trkpt lat="43.2272695" lon="11.4310317"><ele>160.0</ele><time>2026-03-28T11:34:15.207Z</time></trkpt><trkpt lat="43.2271448" lon="11.4312441"><ele>160.0</ele><time>2026-03-28T11:34:16.207Z</time></trkpt><trkpt lat="43.2270218" lon="11.4314554"><ele>160.0</ele><time>2026-03-28T11:34:17.207Z</time></trkpt><trkpt lat="43.226898" lon="11.4316662"><ele>160.66666666666669</ele><time>2026-03-28T11:34:18.206Z</time></trkpt><trkpt lat="43.2267743" lon="11.4318747"><ele>161.33333333333334</ele><time>2026-03-28T11:34:19.206Z</time></trkpt><trkpt lat="43.2266496" lon="11.432086"><ele>162.0</ele><time>2026-03-28T11:34:20.206Z</time></trkpt><trkpt lat="43.2265324" lon="11.4322932"><ele>162.0</ele><time>2026-03-28T11:34:21.206Z</time></trkpt><trkpt lat="43.226417" lon="11.432513"><ele>162.0</ele><time>2026-03-28T11:34:22.206Z</time></trkpt><trkpt lat="43.2263064" lon="11.4327438"><ele>162.0</ele><time>2026-03-28T11:34:23.207Z</time></trkpt><trkpt lat="43.2262003" lon="11.4329846"><ele>162.0</ele><time>2026-03-28T11:34:24.206Z</time></trkpt><trkpt lat="43.2260951" lon="11.4332273"><ele>162.0</ele><time>2026-03-28T11:34:25.206Z</time></trkpt><trkpt lat="43.2259864" lon="11.4334706"><ele>162.0</ele><time>2026-03-28T11:34:26.207Z</time></trkpt><trkpt lat="43.2258747" lon="11.4337228"><ele>161.66666666666666</ele><time>2026-03-28T11:34:27.206Z</time></trkpt><trkpt lat="43.225766" lon="11.4339805"><ele>161.33333333333331</ele><time>2026-03-28T11:34:28.207Z</time></trkpt><trkpt lat="43.2256551" lon="11.434235"><ele>161.0</ele><time>2026-03-28T11:34:29.207Z</time></trkpt><trkpt lat="43.2255515" lon="11.4344774"><ele>161.0</ele><time>2026-03-28T11:34:30.206Z</time></trkpt><trkpt lat="43.2254507" lon="11.434722"><ele>161.0</ele><time>2026-03-28T11:34:31.207Z</time></trkpt><trkpt lat="43.2253515" lon="11.4349635"><ele>161.0</ele><time>2026-03-28T11:34:32.207Z</time></trkpt><trkpt lat="43.225251" lon="11.4352009"><ele>161.0</ele><time>2026-03-28T11:34:33.207Z</time></trkpt><trkpt lat="43.2251486" lon="11.4354378"><ele>161.0</ele><time>2026-03-28T11:34:34.206Z</time></trkpt><trkpt lat="43.2250457" lon="11.4356811"><ele>161.0</ele><time>2026-03-28T11:34:35.206Z</time></trkpt><trkpt lat="43.2249427" lon="11.4359257"><ele>161.33333333333331</ele><time>2026-03-28T11:34:36.206Z</time></trkpt><trkpt lat="43.2248359" lon="11.4361717"><ele>161.66666666666666</ele><time>2026-03-28T11:34:37.206Z</time></trkpt><trkpt lat="43.2247278" lon="11.4364186"><ele>162.0</ele><time>2026-03-28T11:34:38.206Z</time></trkpt><trkpt lat="43.224621" lon="11.4366687"><ele>162.0</ele><time>2026-03-28T11:34:39.206Z</time></trkpt><trkpt lat="43.2245152" lon="11.436917"><ele>162.0</ele><time>2026-03-28T11:34:40.206Z</time></trkpt><trkpt lat="43.2244111" lon="11.4371636"><ele>162.0</ele><time>2026-03-28T11:34:41.206Z</time></trkpt><trkpt lat="43.2243078" lon="11.4374102"><ele>162.0</ele><time>2026-03-28T11:34:42.206Z</time></trkpt><trkpt lat="43.2242017" lon="11.4376601"><ele>162.0</ele><time>2026-03-28T11:34:43.207Z</time></trkpt><trkpt lat="43.2240938" lon="11.4379124"><ele>162.0</ele><time>2026-03-28T11:34:44.206Z</time></trkpt><trkpt lat="43.2239839" lon="11.4381669"><ele>161.33333333333334</ele><time>2026-03-28T11:34:45.206Z</time></trkpt><trkpt lat="43.2238756" lon="11.4384199"><ele>160.66666666666669</ele><time>2026-03-28T11:34:46.206Z</time></trkpt><trkpt lat="43.2237741" lon="11.4386606"><ele>160.0</ele><time>2026-03-28T11:34:47.206Z</time></trkpt><trkpt lat="43.2236726" lon="11.438904"><ele>160.0</ele><time>2026-03-28T11:34:48.206Z</time></trkpt><trkpt lat="43.2235706" lon="11.4391483"><ele>160.0</ele><time>2026-03-28T11:34:49.206Z</time></trkpt><trkpt lat="43.2234676" lon="11.4393918"><ele>160.0</ele><time>2026-03-28T11:34:50.206Z</time></trkpt><trkpt lat="43.2233627" lon="11.4396367"><ele>160.0</ele><time>2026-03-28T11:34:51.207Z</time></trkpt><trkpt lat="43.2232569" lon="11.4398849"><ele>160.0</ele><time>2026-03-28T11:34:52.206Z</time></trkpt><trkpt lat="43.2231505" lon="11.4401366"><ele>160.0</ele><time>2026-03-28T11:34:53.207Z</time></trkpt><trkpt lat="43.2230418" lon="11.4403907"><ele>159.33333333333334</ele><time>2026-03-28T11:34:54.207Z</time></trkpt><trkpt lat="43.2229302" lon="11.4406504"><ele>158.66666666666666</ele><time>2026-03-28T11:34:55.206Z</time></trkpt><trkpt lat="43.2228167" lon="11.4409152"><ele>158.0</ele><time>2026-03-28T11:34:56.206Z</time></trkpt><trkpt lat="43.2227033" lon="11.4411827"><ele>158.66666666666666</ele><time>2026-03-28T11:34:57.206Z</time></trkpt><trkpt lat="43.2225939" lon="11.4414418"><ele>159.33333333333334</ele><time>2026-03-28T11:34:58.207Z</time></trkpt><trkpt lat="43.2224904" lon="11.4416851"><ele>160.0</ele><time>2026-03-28T11:34:59.206Z</time></trkpt><trkpt lat="43.2223893" lon="11.4419196"><ele>159.66666666666669</ele><time>2026-03-28T11:35:00.206Z</time></trkpt><trkpt lat="43.2222944" lon="11.4421391"><ele>159.33333333333334</ele><time>2026-03-28T11:35:01.206Z</time></trkpt><trkpt lat="43.2222038" lon="11.4423556"><ele>159.0</ele><time>2026-03-28T11:35:02.206Z</time></trkpt><trkpt lat="43.2221222" lon="11.4425684"><ele>159.0</ele><time>2026-03-28T11:35:03.207Z</time></trkpt><trkpt lat="43.2220606" lon="11.4427966"><ele>159.0</ele><time>2026-03-28T11:35:04.206Z</time></trkpt><trkpt lat="43.2220221" lon="11.4430283"><ele>159.0</ele><time>2026-03-28T11:35:05.207Z</time></trkpt><trkpt lat="43.2219969" lon="11.4432334"><ele>159.2</ele><time>2026-03-28T11:35:06.206Z</time></trkpt><trkpt lat="43.2219754" lon="11.4434119"><ele>159.4</ele><time>2026-03-28T11:35:07.206Z</time></trkpt><trkpt lat="43.2219604" lon="11.4435656"><ele>159.6</ele><time>2026-03-28T11:35:08.206Z</time></trkpt><trkpt lat="43.2219477" lon="11.4437081"><ele>159.8</ele><time>2026-03-28T11:35:09.205Z</time></trkpt><trkpt lat="43.2219387" lon="11.4438417"><ele>160.0</ele><time>2026-03-28T11:35:10.207Z</time></trkpt><trkpt lat="43.2219307" lon="11.443976"><ele>160.4</ele><time>2026-03-28T11:35:11.206Z</time></trkpt><trkpt lat="43.2219235" lon="11.4440978"><ele>160.8</ele><time>2026-03-28T11:35:12.206Z</time></trkpt><trkpt lat="43.2219167" lon="11.4441959"><ele>161.2</ele><time>2026-03-28T11:35:13.207Z</time></trkpt><trkpt lat="43.2219096" lon="11.4442893"><ele>161.6</ele><time>2026-03-28T11:35:14.206Z</time></trkpt><trkpt lat="43.2219019" lon="11.4444557"><ele>162.0</ele><time>2026-03-28T11:35:16.206Z</time></trkpt><trkpt lat="43.2218228" lon="11.444559"><ele>162.0</ele><time>2026-03-28T11:35:18.206Z</time></trkpt><trkpt lat="43.2217551" lon="11.4445725"><ele>162.0</ele><time>2026-03-28T11:35:19.206Z</time></trkpt><trkpt lat="43.2216725" lon="11.4445695"><ele>162.0</ele><time>2026-03-28T11:35:20.207Z</time></trkpt><trkpt lat="43.2215751" lon="11.4445507"><ele>162.0</ele><time>2026-03-28T11:35:21.206Z</time></trkpt><trkpt lat="43.221461" lon="11.4445277"><ele>162.0</ele><time>2026-03-28T11:35:22.206Z</time></trkpt><trkpt lat="43.2213292" lon="11.4445021"><ele>162.0</ele><time>2026-03-28T11:35:23.205Z</time></trkpt><trkpt lat="43.2211849" lon="11.4444729"><ele>162.0</ele><time>2026-03-28T11:35:24.207Z</time></trkpt><trkpt lat="43.2210395" lon="11.4444469"><ele>162.0</ele><time>2026-03-28T11:35:25.207Z</time></trkpt><trkpt lat="43.2208999" lon="11.4444256"><ele>162.0</ele><time>2026-03-28T11:35:26.206Z</time></trkpt><trkpt lat="43.2207633" lon="11.4444068"><ele>161.75</ele><time>2026-03-28T11:35:27.206Z</time></trkpt><trkpt lat="43.2206244" lon="11.4443899"><ele>161.5</ele><time>2026-03-28T11:35:28.206Z</time></trkpt><trkpt lat="43.2204853" lon="11.44439"><ele>161.25</ele><time>2026-03-28T11:35:29.206Z</time></trkpt><trkpt lat="43.2203433" lon="11.4444083"><ele>161.0</ele><time>2026-03-28T11:35:30.207Z</time></trkpt><trkpt lat="43.2202011" lon="11.4444507"><ele>161.0</ele><time>2026-03-28T11:35:31.206Z</time></trkpt><trkpt lat="43.2200604" lon="11.4445124"><ele>161.0</ele><time>2026-03-28T11:35:32.206Z</time></trkpt><trkpt lat="43.2199158" lon="11.4445765"><ele>161.0</ele><time>2026-03-28T11:35:33.207Z</time></trkpt><trkpt lat="43.2197651" lon="11.444636"><ele>163.33333333333331</ele><time>2026-03-28T11:35:34.206Z</time></trkpt><trkpt lat="43.2196097" lon="11.444693"><ele>165.66666666666666</ele><time>2026-03-28T11:35:35.207Z</time></trkpt><trkpt lat="43.21946" lon="11.44476"><ele>168.0</ele><time>2026-03-28T11:35:36.206Z</time></trkpt><trkpt lat="43.2193078" lon="11.4448424"><ele>168.0</ele><time>2026-03-28T11:35:37.206Z</time></trkpt><trkpt lat="43.2191528" lon="11.4449333"><ele>168.0</ele><time>2026-03-28T11:35:38.207Z</time></trkpt><trkpt lat="43.2189974" lon="11.4450311"><ele>168.0</ele><time>2026-03-28T11:35:39.206Z</time></trkpt><trkpt lat="43.2188585" lon="11.4451329"><ele>168.0</ele><time>2026-03-28T11:35:40.206Z</time></trkpt><trkpt lat="43.2187258" lon="11.4452352"><ele>168.0</ele><time>2026-03-28T11:35:41.207Z</time></trkpt><trkpt lat="43.2185989" lon="11.4453328"><ele>168.0</ele><time>2026-03-28T11:35:42.206Z</time></trkpt><trkpt lat="43.2184814" lon="11.4454353"><ele>168.0</ele><time>2026-03-28T11:35:43.207Z</time></trkpt><trkpt lat="43.2183742" lon="11.4455554"><ele>168.0</ele><time>2026-03-28T11:35:44.207Z</time></trkpt><trkpt lat="43.2182695" lon="11.4456859"><ele>168.0</ele><time>2026-03-28T11:35:45.206Z</time></trkpt><trkpt lat="43.2181663" lon="11.4458204"><ele>168.0</ele><time>2026-03-28T11:35:46.206Z</time></trkpt><trkpt lat="43.2180623" lon="11.4459598"><ele>168.0</ele><time>2026-03-28T11:35:47.206Z</time></trkpt><trkpt lat="43.217965" lon="11.4460902"><ele>168.75</ele><time>2026-03-28T11:35:48.206Z</time></trkpt><trkpt lat="43.2178748" lon="11.4462136"><ele>169.5</ele><time>2026-03-28T11:35:49.207Z</time></trkpt><trkpt lat="43.2177861" lon="11.4463373"><ele>170.25</ele><time>2026-03-28T11:35:50.206Z</time></trkpt><trkpt lat="43.2177045" lon="11.4464543"><ele>171.0</ele><time>2026-03-28T11:35:51.206Z</time></trkpt><trkpt lat="43.2176171" lon="11.4465792"><ele>171.0</ele><time>2026-03-28T11:35:52.207Z</time></trkpt><trkpt lat="43.2175289" lon="11.4467094"><ele>171.0</ele><time>2026-03-28T11:35:53.206Z</time></trkpt><trkpt lat="43.217435" lon="11.4468497"><ele>171.0</ele><time>2026-03-28T11:35:54.206Z</time></trkpt><trkpt lat="43.2173401" lon="11.4469942"><ele>171.0</ele><time>2026-03-28T11:35:55.206Z</time></trkpt><trkpt lat="43.2172511" lon="11.4471388"><ele>170.0</ele><time>2026-03-28T11:35:56.206Z</time></trkpt><trkpt lat="43.2171583" lon="11.4472861"><ele>169.0</ele><time>2026-03-28T11:35:57.207Z</time></trkpt><trkpt lat="43.2170634" lon="11.4474345"><ele>168.0</ele><time>2026-03-28T11:35:58.206Z</time></trkpt><trkpt lat="43.2169661" lon="11.4475915"><ele>167.0</ele><time>2026-03-28T11:35:59.206Z</time></trkpt><trkpt lat="43.2168711" lon="11.4477524"><ele>167.0</ele><time>2026-03-28T11:36:00.207Z</time></trkpt><trkpt lat="43.2167792" lon="11.4479147"><ele>167.0</ele><time>2026-03-28T11:36:01.206Z</time></trkpt><trkpt lat="43.2166909" lon="11.4480738"><ele>167.0</ele><time>2026-03-28T11:36:02.206Z</time></trkpt><trkpt lat="43.2166084" lon="11.448235"><ele>167.0</ele><time>2026-03-28T11:36:03.205Z</time></trkpt><trkpt lat="43.2165292" lon="11.4483775"><ele>166.75</ele><time>2026-03-28T11:36:04.206Z</time></trkpt><trkpt lat="43.2164491" lon="11.4485137"><ele>166.5</ele><time>2026-03-28T11:36:05.206Z</time></trkpt><trkpt lat="43.2163621" lon="11.4486221"><ele>166.25</ele><time>2026-03-28T11:36:06.206Z</time></trkpt><trkpt lat="43.2162636" lon="11.448692"><ele>166.0</ele><time>2026-03-28T11:36:07.206Z</time></trkpt><trkpt lat="43.2161481" lon="11.4487385"><ele>166.0</ele><time>2026-03-28T11:36:08.206Z</time></trkpt><trkpt lat="43.2160266" lon="11.4487593"><ele>166.0</ele><time>2026-03-28T11:36:09.206Z</time></trkpt><trkpt lat="43.2158933" lon="11.4487836"><ele>166.0</ele><time>2026-03-28T11:36:10.207Z</time></trkpt><trkpt lat="43.2157504" lon="11.4488323"><ele>166.0</ele><time>2026-03-28T11:36:11.206Z</time></trkpt><trkpt lat="43.2156068" lon="11.4489091"><ele>166.0</ele><time>2026-03-28T11:36:12.206Z</time></trkpt><trkpt lat="43.2154592" lon="11.4489981"><ele>166.0</ele><time>2026-03-28T11:36:13.206Z</time></trkpt><trkpt lat="43.2153021" lon="11.4490814"><ele>166.0</ele><time>2026-03-28T11:36:14.207Z</time></trkpt><trkpt lat="43.2151408" lon="11.4491627"><ele>166.0</ele><time>2026-03-28T11:36:15.207Z</time></trkpt><trkpt lat="43.2149888" lon="11.4492342"><ele>166.0</ele><time>2026-03-28T11:36:16.207Z</time></trkpt><trkpt lat="43.2148333" lon="11.4493013"><ele>166.0</ele><time>2026-03-28T11:36:17.206Z</time></trkpt><trkpt lat="43.2146769" lon="11.4493638"><ele>164.66666666666669</ele><time>2026-03-28T11:36:18.206Z</time></trkpt><trkpt lat="43.214518" lon="11.4494256"><ele>163.33333333333334</ele><time>2026-03-28T11:36:19.207Z</time></trkpt><trkpt lat="43.2143518" lon="11.4494824"><ele>162.0</ele><time>2026-03-28T11:36:20.206Z</time></trkpt><trkpt lat="43.2141813" lon="11.4495184"><ele>162.0</ele><time>2026-03-28T11:36:21.207Z</time></trkpt><trkpt lat="43.2140124" lon="11.4495389"><ele>162.0</ele><time>2026-03-28T11:36:22.206Z</time></trkpt><trkpt lat="43.2138392" lon="11.4495439"><ele>162.0</ele><time>2026-03-28T11:36:23.206Z</time></trkpt><trkpt lat="43.2136644" lon="11.4495466"><ele>162.0</ele><time>2026-03-28T11:36:24.206Z</time></trkpt><trkpt lat="43.2134899" lon="11.4495401"><ele>162.0</ele><time>2026-03-28T11:36:25.207Z</time></trkpt><trkpt lat="43.2133162" lon="11.4495217"><ele>162.0</ele><time>2026-03-28T11:36:26.206Z</time></trkpt><trkpt lat="43.2131404" lon="11.4494996"><ele>162.0</ele><time>2026-03-28T11:36:27.206Z</time></trkpt><trkpt lat="43.2129624" lon="11.4494851"><ele>162.0</ele><time>2026-03-28T11:36:28.206Z</time></trkpt><trkpt lat="43.2127849" lon="11.4494722"><ele>162.0</ele><time>2026-03-28T11:36:29.206Z</time></trkpt><trkpt lat="43.2126081" lon="11.4494579"><ele>162.0</ele><time>2026-03-28T11:36:30.207Z</time></trkpt><trkpt lat="43.2124331" lon="11.4494455"><ele>162.0</ele><time>2026-03-28T11:36:31.206Z</time></trkpt><trkpt lat="43.2122721" lon="11.4494369"><ele>162.0</ele><time>2026-03-28T11:36:32.207Z</time></trkpt><trkpt lat="43.2121158" lon="11.4494275"><ele>162.33333333333334</ele><time>2026-03-28T11:36:33.206Z</time></trkpt><trkpt lat="43.2119581" lon="11.4494145"><ele>162.66666666666669</ele><time>2026-03-28T11:36:34.206Z</time></trkpt><trkpt lat="43.211799" lon="11.4494045"><ele>163.0</ele><time>2026-03-28T11:36:35.207Z</time></trkpt><trkpt lat="43.2116367" lon="11.4494061"><ele>161.66666666666669</ele><time>2026-03-28T11:36:36.206Z</time></trkpt><trkpt lat="43.2114734" lon="11.4494214"><ele>160.33333333333334</ele><time>2026-03-28T11:36:37.206Z</time></trkpt><trkpt lat="43.2113121" lon="11.4494523"><ele>159.0</ele><time>2026-03-28T11:36:38.205Z</time></trkpt><trkpt lat="43.2111579" lon="11.449501"><ele>159.0</ele><time>2026-03-28T11:36:39.207Z</time></trkpt><trkpt lat="43.2110139" lon="11.4495761"><ele>159.0</ele><time>2026-03-28T11:36:40.207Z</time></trkpt><trkpt lat="43.2108718" lon="11.4496725"><ele>159.0</ele><time>2026-03-28T11:36:41.207Z</time></trkpt><trkpt lat="43.2107339" lon="11.4497847"><ele>159.0</ele><time>2026-03-28T11:36:42.206Z</time></trkpt><trkpt lat="43.2106082" lon="11.4499164"><ele>159.0</ele><time>2026-03-28T11:36:43.206Z</time></trkpt><trkpt lat="43.2104844" lon="11.450055"><ele>159.0</ele><time>2026-03-28T11:36:44.207Z</time></trkpt><trkpt lat="43.2103604" lon="11.450197"><ele>159.0</ele><time>2026-03-28T11:36:45.207Z</time></trkpt><trkpt lat="43.2102393" lon="11.4503437"><ele>159.0</ele><time>2026-03-28T11:36:46.206Z</time></trkpt><trkpt lat="43.2101146" lon="11.4504954"><ele>159.0</ele><time>2026-03-28T11:36:47.206Z</time></trkpt><trkpt lat="43.209991" lon="11.4506303"><ele>159.66666666666666</ele><time>2026-03-28T11:36:48.207Z</time></trkpt><trkpt lat="43.2098721" lon="11.4507595"><ele>160.33333333333331</ele><time>2026-03-28T11:36:49.206Z</time></trkpt><trkpt lat="43.2097538" lon="11.4508903"><ele>161.0</ele><time>2026-03-28T11:36:50.207Z</time></trkpt><trkpt lat="43.2096336" lon="11.4510286"><ele>161.0</ele><time>2026-03-28T11:36:51.207Z</time></trkpt><trkpt lat="43.20951" lon="11.4511659"><ele>161.0</ele><time>2026-03-28T11:36:52.206Z</time></trkpt><trkpt lat="43.2093831" lon="11.451296"><ele>161.0</ele><time>2026-03-28T11:36:53.206Z</time></trkpt><trkpt lat="43.2092572" lon="11.451425"><ele>161.0</ele><time>2026-03-28T11:36:54.206Z</time></trkpt><trkpt lat="43.2091312" lon="11.4515585"><ele>161.0</ele><time>2026-03-28T11:36:55.206Z</time></trkpt><trkpt lat="43.2090003" lon="11.4516937"><ele>161.0</ele><time>2026-03-28T11:36:56.206Z</time></trkpt><trkpt lat="43.2088704" lon="11.4518268"><ele>160.66666666666666</ele><time>2026-03-28T11:36:57.206Z</time></trkpt><trkpt lat="43.2087489" lon="11.451956"><ele>160.33333333333334</ele><time>2026-03-28T11:36:58.206Z</time></trkpt><trkpt lat="43.2086274" lon="11.4520925"><ele>160.0</ele><time>2026-03-28T11:36:59.206Z</time></trkpt><trkpt lat="43.208507" lon="11.4522318"><ele>159.66666666666669</ele><time>2026-03-28T11:37:00.206Z</time></trkpt><trkpt lat="43.2083856" lon="11.4523705"><ele>159.33333333333334</ele><time>2026-03-28T11:37:01.206Z</time></trkpt><trkpt lat="43.2082667" lon="11.4525077"><ele>159.0</ele><time>2026-03-28T11:37:02.207Z</time></trkpt><trkpt lat="43.2081422" lon="11.4526388"><ele>159.0</ele><time>2026-03-28T11:37:03.207Z</time></trkpt><trkpt lat="43.2080106" lon="11.4527556"><ele>159.0</ele><time>2026-03-28T11:37:04.206Z</time></trkpt><trkpt lat="43.2078764" lon="11.4528712"><ele>159.0</ele><time>2026-03-28T11:37:05.207Z</time></trkpt><trkpt lat="43.2077417" lon="11.4529848"><ele>159.0</ele><time>2026-03-28T11:37:06.206Z</time></trkpt><trkpt lat="43.2076059" lon="11.4530857"><ele>159.0</ele><time>2026-03-28T11:37:07.206Z</time></trkpt><trkpt lat="43.207463" lon="11.4531748"><ele>159.0</ele><time>2026-03-28T11:37:08.207Z</time></trkpt><trkpt lat="43.2073189" lon="11.4532518"><ele>158.66666666666666</ele><time>2026-03-28T11:37:09.207Z</time></trkpt><trkpt lat="43.2071741" lon="11.4533191"><ele>158.33333333333331</ele><time>2026-03-28T11:37:10.207Z</time></trkpt><trkpt lat="43.2070327" lon="11.4533877"><ele>158.0</ele><time>2026-03-28T11:37:11.206Z</time></trkpt><trkpt lat="43.2068913" lon="11.4534557"><ele>158.0</ele><time>2026-03-28T11:37:12.206Z</time></trkpt><trkpt lat="43.2067509" lon="11.4535191"><ele>158.0</ele><time>2026-03-28T11:37:13.206Z</time></trkpt><trkpt lat="43.2066067" lon="11.4535823"><ele>158.0</ele><time>2026-03-28T11:37:14.207Z</time></trkpt><trkpt lat="43.2064657" lon="11.4536389"><ele>158.0</ele><time>2026-03-28T11:37:15.206Z</time></trkpt><trkpt lat="43.206319" lon="11.4536916"><ele>158.0</ele><time>2026-03-28T11:37:16.206Z</time></trkpt><trkpt lat="43.2061695" lon="11.453747"><ele>158.0</ele><time>2026-03-28T11:37:17.207Z</time></trkpt><trkpt lat="43.2060189" lon="11.4538033"><ele>158.0</ele><time>2026-03-28T11:37:18.206Z</time></trkpt><trkpt lat="43.2058661" lon="11.4538638"><ele>158.0</ele><time>2026-03-28T11:37:19.207Z</time></trkpt><trkpt lat="43.2057268" lon="11.4539184"><ele>158.0</ele><time>2026-03-28T11:37:20.206Z</time></trkpt><trkpt lat="43.2055903" lon="11.4539715"><ele>158.0</ele><time>2026-03-28T11:37:21.206Z</time></trkpt><trkpt lat="43.205452" lon="11.454026"><ele>158.0</ele><time>2026-03-28T11:37:22.206Z</time></trkpt><trkpt lat="43.2053145" lon="11.4540817"><ele>158.0</ele><time>2026-03-28T11:37:23.206Z</time></trkpt><trkpt lat="43.2051863" lon="11.4541307"><ele>158.0</ele><time>2026-03-28T11:37:24.207Z</time></trkpt><trkpt lat="43.2050493" lon="11.454175"><ele>158.0</ele><time>2026-03-28T11:37:25.206Z</time></trkpt><trkpt lat="43.2049095" lon="11.454219"><ele>158.0</ele><time>2026-03-28T11:37:26.206Z</time></trkpt><trkpt lat="43.2047676" lon="11.4542739"><ele>158.0</ele><time>2026-03-28T11:37:27.206Z</time></trkpt><trkpt lat="43.2046202" lon="11.4543303"><ele>158.0</ele><time>2026-03-28T11:37:28.207Z</time></trkpt><trkpt lat="43.2044672" lon="11.454384"><ele>158.0</ele><time>2026-03-28T11:37:29.206Z</time></trkpt><trkpt lat="43.2043096" lon="11.4544455"><ele>158.0</ele><time>2026-03-28T11:37:30.205Z</time></trkpt><trkpt lat="43.2041487" lon="11.4545089"><ele>158.0</ele><time>2026-03-28T11:37:31.206Z</time></trkpt><trkpt lat="43.2039853" lon="11.4545742"><ele>158.0</ele><time>2026-03-28T11:37:32.206Z</time></trkpt><trkpt lat="43.2038206" lon="11.4546387"><ele>158.0</ele><time>2026-03-28T11:37:33.205Z</time></trkpt><trkpt lat="43.2036606" lon="11.4546981"><ele>158.0</ele><time>2026-03-28T11:37:34.205Z</time></trkpt><trkpt lat="43.2034986" lon="11.4547617"><ele>158.0</ele><time>2026-03-28T11:37:35.206Z</time></trkpt><trkpt lat="43.2033381" lon="11.4548285"><ele>158.0</ele><time>2026-03-28T11:37:36.206Z</time></trkpt><trkpt lat="43.2031763" lon="11.4548929"><ele>158.0</ele><time>2026-03-28T11:37:37.206Z</time></trkpt><trkpt lat="43.2030148" lon="11.4549633"><ele>158.0</ele><time>2026-03-28T11:37:38.207Z</time></trkpt><trkpt lat="43.2028525" lon="11.4550376"><ele>157.66666666666666</ele><time>2026-03-28T11:37:39.206Z</time></trkpt><trkpt lat="43.2026886" lon="11.4551121"><ele>157.33333333333334</ele><time>2026-03-28T11:37:40.205Z</time></trkpt><trkpt lat="43.2025255" lon="11.4551795"><ele>157.0</ele><time>2026-03-28T11:37:41.207Z</time></trkpt><trkpt lat="43.2023648" lon="11.4552461"><ele>158.66666666666669</ele><time>2026-03-28T11:37:42.206Z</time></trkpt><trkpt lat="43.2022096" lon="11.4553128"><ele>160.33333333333334</ele><time>2026-03-28T11:37:43.206Z</time></trkpt><trkpt lat="43.2020589" lon="11.4553798"><ele>162.0</ele><time>2026-03-28T11:37:44.206Z</time></trkpt><trkpt lat="43.2019229" lon="11.4554048"><ele>162.0</ele><time>2026-03-28T11:37:45.206Z</time></trkpt><trkpt lat="43.2018024" lon="11.4553917"><ele>162.0</ele><time>2026-03-28T11:37:46.207Z</time></trkpt><trkpt lat="43.2016825" lon="11.4553573"><ele>162.0</ele><time>2026-03-28T11:37:47.207Z</time></trkpt><trkpt lat="43.2015562" lon="11.4553203"><ele>162.0</ele><time>2026-03-28T11:37:48.207Z</time></trkpt><trkpt lat="43.2014415" lon="11.4552851"><ele>162.16666666666666</ele><time>2026-03-28T11:37:49.206Z</time></trkpt><trkpt lat="43.2013412" lon="11.4552555"><ele>162.33333333333334</ele><time>2026-03-28T11:37:50.206Z</time></trkpt><trkpt lat="43.2012458" lon="11.4552295"><ele>162.5</ele><time>2026-03-28T11:37:51.206Z</time></trkpt><trkpt lat="43.2011524" lon="11.4552064"><ele>162.66666666666669</ele><time>2026-03-28T11:37:52.206Z</time></trkpt><trkpt lat="43.2010711" lon="11.4551999"><ele>162.83333333333334</ele><time>2026-03-28T11:37:53.207Z</time></trkpt><trkpt lat="43.2010079" lon="11.4552203"><ele>163.0</ele><time>2026-03-28T11:37:54.207Z</time></trkpt><trkpt lat="43.2009303" lon="11.4553296"><ele>163.0</ele><time>2026-03-28T11:37:56.207Z</time></trkpt><trkpt lat="43.2008903" lon="11.4554163"><ele>163.0</ele><time>2026-03-28T11:37:57.207Z</time></trkpt><trkpt lat="43.2008436" lon="11.4554988"><ele>163.0</ele><time>2026-03-28T11:37:58.207Z</time></trkpt><trkpt lat="43.2007807" lon="11.455602"><ele>163.0</ele><time>2026-03-28T11:37:59.206Z</time></trkpt><trkpt lat="43.2007162" lon="11.4556939"><ele>163.0</ele><time>2026-03-28T11:38:00.205Z</time></trkpt><trkpt lat="43.2006586" lon="11.4557737"><ele>163.0</ele><time>2026-03-28T11:38:01.207Z</time></trkpt><trkpt lat="43.2006013" lon="11.4558581"><ele>162.5</ele><time>2026-03-28T11:38:02.206Z</time></trkpt><trkpt lat="43.200545" lon="11.4559415"><ele>162.0</ele><time>2026-03-28T11:38:03.207Z</time></trkpt><trkpt lat="43.200493" lon="11.4560118"><ele>161.5</ele><time>2026-03-28T11:38:04.206Z</time></trkpt><trkpt lat="43.2004396" lon="11.4560889"><ele>161.0</ele><time>2026-03-28T11:38:05.207Z</time></trkpt><trkpt lat="43.2003806" lon="11.4561765"><ele>160.5</ele><time>2026-03-28T11:38:06.206Z</time></trkpt><trkpt lat="43.2003217" lon="11.4562653"><ele>160.0</ele><time>2026-03-28T11:38:07.206Z</time></trkpt><trkpt lat="43.2002683" lon="11.4563464"><ele>161.0</ele><time>2026-03-28T11:38:08.206Z</time></trkpt><trkpt lat="43.2002137" lon="11.4564225"><ele>162.0</ele><time>2026-03-28T11:38:09.206Z</time></trkpt><trkpt lat="43.200158" lon="11.4564974"><ele>163.0</ele><time>2026-03-28T11:38:10.206Z</time></trkpt><trkpt lat="43.2001017" lon="11.4565637"><ele>164.0</ele><time>2026-03-28T11:38:11.206Z</time></trkpt><trkpt lat="43.2000442" lon="11.4566303"><ele>165.0</ele><time>2026-03-28T11:38:12.206Z</time></trkpt><trkpt lat="43.1999842" lon="11.456704"><ele>166.0</ele><time>2026-03-28T11:38:13.206Z</time></trkpt><trkpt lat="43.1999145" lon="11.4567873"><ele>166.0</ele><time>2026-03-28T11:38:14.207Z</time></trkpt><trkpt lat="43.1998393" lon="11.4568793"><ele>166.0</ele><time>2026-03-28T11:38:15.206Z</time></trkpt><trkpt lat="43.1997661" lon="11.456978"><ele>166.0</ele><time>2026-03-28T11:38:16.207Z</time></trkpt><trkpt lat="43.199688" lon="11.4570905"><ele>166.0</ele><time>2026-03-28T11:38:17.207Z</time></trkpt><trkpt lat="43.1996058" lon="11.4572056"><ele>166.0</ele><time>2026-03-28T11:38:18.206Z</time></trkpt><trkpt lat="43.1995145" lon="11.4573187"><ele>165.8</ele><time>2026-03-28T11:38:19.206Z</time></trkpt><trkpt lat="43.1994306" lon="11.4574148"><ele>165.60000000000002</ele><time>2026-03-28T11:38:20.207Z</time></trkpt><trkpt lat="43.1993575" lon="11.4575"><ele>165.4</ele><time>2026-03-28T11:38:21.207Z</time></trkpt><trkpt lat="43.1992936" lon="11.4575745"><ele>165.2</ele><time>2026-03-28T11:38:22.206Z</time></trkpt><trkpt lat="43.1992289" lon="11.4576495"><ele>165.0</ele><time>2026-03-28T11:38:23.206Z</time></trkpt><trkpt lat="43.199163" lon="11.4577229"><ele>165.0</ele><time>2026-03-28T11:38:24.206Z</time></trkpt><trkpt lat="43.1990957" lon="11.4577967"><ele>165.0</ele><time>2026-03-28T11:38:25.206Z</time></trkpt><trkpt lat="43.1990347" lon="11.4578706"><ele>165.0</ele><time>2026-03-28T11:38:26.207Z</time></trkpt><trkpt lat="43.1989744" lon="11.4579458"><ele>165.0</ele><time>2026-03-28T11:38:27.207Z</time></trkpt><trkpt lat="43.1989195" lon="11.458016"><ele>165.0</ele><time>2026-03-28T11:38:28.207Z</time></trkpt><trkpt lat="43.1988686" lon="11.4580829"><ele>165.0</ele><time>2026-03-28T11:38:29.206Z</time></trkpt><trkpt lat="43.1988132" lon="11.4581613"><ele>164.0</ele><time>2026-03-28T11:38:30.206Z</time></trkpt><trkpt lat="43.1987566" lon="11.4582435"><ele>163.0</ele><time>2026-03-28T11:38:31.206Z</time></trkpt><trkpt lat="43.1986941" lon="11.4583422"><ele>162.0</ele><time>2026-03-28T11:38:32.207Z</time></trkpt><trkpt lat="43.1986253" lon="11.4584499"><ele>161.0</ele><time>2026-03-28T11:38:33.207Z</time></trkpt><trkpt lat="43.1985491" lon="11.4585756"><ele>160.0</ele><time>2026-03-28T11:38:34.206Z</time></trkpt><trkpt lat="43.1984659" lon="11.4587079"><ele>159.5</ele><time>2026-03-28T11:38:35.206Z</time></trkpt><trkpt lat="43.1983783" lon="11.4588502"><ele>159.0</ele><time>2026-03-28T11:38:36.207Z</time></trkpt><trkpt lat="43.1982917" lon="11.4589968"><ele>158.5</ele><time>2026-03-28T11:38:37.207Z</time></trkpt><trkpt lat="43.1982" lon="11.4591468"><ele>158.0</ele><time>2026-03-28T11:38:38.206Z</time></trkpt><trkpt lat="43.1981083" lon="11.4592945"><ele>157.25</ele><time>2026-03-28T11:38:39.206Z</time></trkpt><trkpt lat="43.1980166" lon="11.4594481"><ele>156.5</ele><time>2026-03-28T11:38:40.206Z</time></trkpt><trkpt lat="43.197923" lon="11.4596046"><ele>155.75</ele><time>2026-03-28T11:38:41.206Z</time></trkpt><trkpt lat="43.1978259" lon="11.4597612"><ele>155.0</ele><time>2026-03-28T11:38:42.207Z</time></trkpt><trkpt lat="43.1977321" lon="11.4599112"><ele>155.0</ele><time>2026-03-28T11:38:43.207Z</time></trkpt><trkpt lat="43.1976332" lon="11.4600591"><ele>155.0</ele><time>2026-03-28T11:38:44.206Z</time></trkpt><trkpt lat="43.197534" lon="11.4602045"><ele>155.0</ele><time>2026-03-28T11:38:45.206Z</time></trkpt><trkpt lat="43.1974354" lon="11.4603562"><ele>155.0</ele><time>2026-03-28T11:38:46.207Z</time></trkpt><trkpt lat="43.1973347" lon="11.4605116"><ele>155.33333333333331</ele><time>2026-03-28T11:38:47.206Z</time></trkpt><trkpt lat="43.1972337" lon="11.4606693"><ele>155.66666666666666</ele><time>2026-03-28T11:38:48.206Z</time></trkpt><trkpt lat="43.1971296" lon="11.4608302"><ele>156.0</ele><time>2026-03-28T11:38:49.206Z</time></trkpt><trkpt lat="43.1970207" lon="11.4609947"><ele>156.0</ele><time>2026-03-28T11:38:50.206Z</time></trkpt><trkpt lat="43.19691" lon="11.4611625"><ele>156.0</ele><time>2026-03-28T11:38:51.207Z</time></trkpt><trkpt lat="43.196795" lon="11.4613434"><ele>156.0</ele><time>2026-03-28T11:38:52.207Z</time></trkpt><trkpt lat="43.1966796" lon="11.4615216"><ele>155.66666666666666</ele><time>2026-03-28T11:38:53.207Z</time></trkpt><trkpt lat="43.1965622" lon="11.4617001"><ele>155.33333333333331</ele><time>2026-03-28T11:38:54.206Z</time></trkpt><trkpt lat="43.1964442" lon="11.4618925"><ele>155.0</ele><time>2026-03-28T11:38:55.207Z</time></trkpt><trkpt lat="43.1963285" lon="11.4620916"><ele>153.66666666666666</ele><time>2026-03-28T11:38:56.207Z</time></trkpt><trkpt lat="43.1962186" lon="11.4622989"><ele>152.33333333333334</ele><time>2026-03-28T11:38:57.206Z</time></trkpt><trkpt lat="43.1961197" lon="11.4624914"><ele>151.0</ele><time>2026-03-28T11:38:58.206Z</time></trkpt><trkpt lat="43.1960265" lon="11.4626923"><ele>151.0</ele><time>2026-03-28T11:38:59.206Z</time></trkpt><trkpt lat="43.1959489" lon="11.4628966"><ele>151.0</ele><time>2026-03-28T11:39:00.207Z</time></trkpt><trkpt lat="43.195876" lon="11.46311"><ele>151.0</ele><time>2026-03-28T11:39:01.206Z</time></trkpt><trkpt lat="43.1957968" lon="11.46332"><ele>151.0</ele><time>2026-03-28T11:39:02.206Z</time></trkpt><trkpt lat="43.1957169" lon="11.4635304"><ele>151.0</ele><time>2026-03-28T11:39:03.207Z</time></trkpt><trkpt lat="43.1956387" lon="11.4637371"><ele>151.0</ele><time>2026-03-28T11:39:04.207Z</time></trkpt><trkpt lat="43.19556" lon="11.4639399"><ele>151.0</ele><time>2026-03-28T11:39:05.207Z</time></trkpt><trkpt lat="43.1954832" lon="11.4641332"><ele>151.0</ele><time>2026-03-28T11:39:06.207Z</time></trkpt><trkpt lat="43.1954022" lon="11.4643256"><ele>151.0</ele><time>2026-03-28T11:39:07.206Z</time></trkpt><trkpt lat="43.1953208" lon="11.464514"><ele>151.5</ele><time>2026-03-28T11:39:08.206Z</time></trkpt><trkpt lat="43.1952416" lon="11.4647014"><ele>152.0</ele><time>2026-03-28T11:39:09.207Z</time></trkpt><trkpt lat="43.1951671" lon="11.4648817"><ele>152.5</ele><time>2026-03-28T11:39:10.206Z</time></trkpt><trkpt lat="43.1951011" lon="11.4650381"><ele>153.0</ele><time>2026-03-28T11:39:11.207Z</time></trkpt><trkpt lat="43.1950425" lon="11.46518"><ele>153.0</ele><time>2026-03-28T11:39:12.206Z</time></trkpt><trkpt lat="43.1949925" lon="11.4653066"><ele>153.0</ele><time>2026-03-28T11:39:13.207Z</time></trkpt><trkpt lat="43.1949492" lon="11.4654304"><ele>153.0</ele><time>2026-03-28T11:39:14.207Z</time></trkpt><trkpt lat="43.1949219" lon="11.4655608"><ele>153.0</ele><time>2026-03-28T11:39:15.206Z</time></trkpt><trkpt lat="43.1949223" lon="11.4656882"><ele>153.0</ele><time>2026-03-28T11:39:16.206Z</time></trkpt><trkpt lat="43.1949528" lon="11.4658065"><ele>153.4</ele><time>2026-03-28T11:39:17.206Z</time></trkpt><trkpt lat="43.1950086" lon="11.4659158"><ele>153.8</ele><time>2026-03-28T11:39:18.207Z</time></trkpt><trkpt lat="43.1950801" lon="11.4660205"><ele>154.2</ele><time>2026-03-28T11:39:19.207Z</time></trkpt><trkpt lat="43.1951621" lon="11.4661278"><ele>154.6</ele><time>2026-03-28T11:39:20.207Z</time></trkpt><trkpt lat="43.1952476" lon="11.4662402"><ele>155.0</ele><time>2026-03-28T11:39:21.206Z</time></trkpt><trkpt lat="43.195322" lon="11.4663583"><ele>155.75</ele><time>2026-03-28T11:39:22.206Z</time></trkpt><trkpt lat="43.1953804" lon="11.4664995"><ele>156.5</ele><time>2026-03-28T11:39:23.207Z</time></trkpt><trkpt lat="43.195418" lon="11.466658"><ele>157.25</ele><time>2026-03-28T11:39:24.206Z</time></trkpt><trkpt lat="43.1954436" lon="11.466829"><ele>158.0</ele><time>2026-03-28T11:39:25.207Z</time></trkpt><trkpt lat="43.1954629" lon="11.4670024"><ele>158.5</ele><time>2026-03-28T11:39:26.206Z</time></trkpt><trkpt lat="43.195486" lon="11.4671801"><ele>159.0</ele><time>2026-03-28T11:39:27.206Z</time></trkpt><trkpt lat="43.195519" lon="11.4673344"><ele>159.5</ele><time>2026-03-28T11:39:28.206Z</time></trkpt><trkpt lat="43.195566" lon="11.467462"><ele>160.0</ele><time>2026-03-28T11:39:29.207Z</time></trkpt><trkpt lat="43.1956325" lon="11.4675625"><ele>161.0</ele><time>2026-03-28T11:39:30.206Z</time></trkpt><trkpt lat="43.1957112" lon="11.4676268"><ele>162.0</ele><time>2026-03-28T11:39:31.206Z</time></trkpt><trkpt lat="43.1957981" lon="11.4676752"><ele>163.0</ele><time>2026-03-28T11:39:32.206Z</time></trkpt><trkpt lat="43.1958796" lon="11.4677093"><ele>164.0</ele><time>2026-03-28T11:39:33.206Z</time></trkpt><trkpt lat="43.1959683" lon="11.467741"><ele>165.0</ele><time>2026-03-28T11:39:34.206Z</time></trkpt><trkpt lat="43.1960553" lon="11.4677871"><ele>165.0</ele><time>2026-03-28T11:39:35.207Z</time></trkpt><trkpt lat="43.1961423" lon="11.4678559"><ele>165.0</ele><time>2026-03-28T11:39:36.207Z</time></trkpt><trkpt lat="43.1962265" lon="11.4679417"><ele>165.0</ele><time>2026-03-28T11:39:37.206Z</time></trkpt><trkpt lat="43.1963066" lon="11.4680468"><ele>165.0</ele><time>2026-03-28T11:39:38.206Z</time></trkpt><trkpt lat="43.1963881" lon="11.468167"><ele>165.0</ele><time>2026-03-28T11:39:39.206Z</time></trkpt><trkpt lat="43.1964606" lon="11.4682857"><ele>167.0</ele><time>2026-03-28T11:39:40.206Z</time></trkpt><trkpt lat="43.196526" lon="11.4684081"><ele>169.0</ele><time>2026-03-28T11:39:41.206Z</time></trkpt><trkpt lat="43.1965764" lon="11.4685436"><ele>171.0</ele><time>2026-03-28T11:39:42.207Z</time></trkpt><trkpt lat="43.1966054" lon="11.4686952"><ele>173.0</ele><time>2026-03-28T11:39:43.206Z</time></trkpt><trkpt lat="43.1966256" lon="11.4688474"><ele>175.0</ele><time>2026-03-28T11:39:44.206Z</time></trkpt><trkpt lat="43.1966679" lon="11.4689736"><ele>176.2</ele><time>2026-03-28T11:39:45.207Z</time></trkpt><trkpt lat="43.1967299" lon="11.4690902"><ele>177.4</ele><time>2026-03-28T11:39:46.206Z</time></trkpt><trkpt lat="43.196798" lon="11.469205"><ele>178.60000000000002</ele><time>2026-03-28T11:39:47.206Z</time></trkpt><trkpt lat="43.1968706" lon="11.4693145"><ele>179.8</ele><time>2026-03-28T11:39:48.206Z</time></trkpt><trkpt lat="43.1969407" lon="11.4694315"><ele>181.0</ele><time>2026-03-28T11:39:49.207Z</time></trkpt><trkpt lat="43.1970032" lon="11.4695582"><ele>181.25</ele><time>2026-03-28T11:39:50.206Z</time></trkpt><trkpt lat="43.1970607" lon="11.469694"><ele>181.5</ele><time>2026-03-28T11:39:51.206Z</time></trkpt><trkpt lat="43.1971153" lon="11.4698393"><ele>181.75</ele><time>2026-03-28T11:39:52.206Z</time></trkpt><trkpt lat="43.19717" lon="11.4699884"><ele>182.0</ele><time>2026-03-28T11:39:53.206Z</time></trkpt><trkpt lat="43.1972173" lon="11.4701323"><ele>182.0</ele><time>2026-03-28T11:39:54.206Z</time></trkpt><trkpt lat="43.1972719" lon="11.4702704"><ele>182.0</ele><time>2026-03-28T11:39:55.206Z</time></trkpt><trkpt lat="43.1973336" lon="11.4703821"><ele>182.0</ele><time>2026-03-28T11:39:56.206Z</time></trkpt><trkpt lat="43.1974085" lon="11.470479"><ele>182.0</ele><time>2026-03-28T11:39:57.207Z</time></trkpt><trkpt lat="43.1974977" lon="11.4705439"><ele>182.0</ele><time>2026-03-28T11:39:58.206Z</time></trkpt><trkpt lat="43.1975953" lon="11.4705885"><ele>185.6</ele><time>2026-03-28T11:39:59.207Z</time></trkpt><trkpt lat="43.1977002" lon="11.4706111"><ele>189.2</ele><time>2026-03-28T11:40:00.206Z</time></trkpt><trkpt lat="43.1977983" lon="11.470622"><ele>192.8</ele><time>2026-03-28T11:40:01.206Z</time></trkpt><trkpt lat="43.1978953" lon="11.4706508"><ele>196.4</ele><time>2026-03-28T11:40:02.207Z</time></trkpt><trkpt lat="43.1979878" lon="11.4707036"><ele>200.0</ele><time>2026-03-28T11:40:03.207Z</time></trkpt><trkpt lat="43.198078" lon="11.4707716"><ele>200.0</ele><time>2026-03-28T11:40:04.206Z</time></trkpt><trkpt lat="43.1981613" lon="11.4708573"><ele>200.0</ele><time>2026-03-28T11:40:05.206Z</time></trkpt><trkpt lat="43.1982429" lon="11.4709617"><ele>200.0</ele><time>2026-03-28T11:40:06.207Z</time></trkpt><trkpt lat="43.1983198" lon="11.4710855"><ele>200.0</ele><time>2026-03-28T11:40:07.206Z</time></trkpt><trkpt lat="43.1983875" lon="11.4712281"><ele>202.5</ele><time>2026-03-28T11:40:08.206Z</time></trkpt><trkpt lat="43.1984466" lon="11.4713907"><ele>205.0</ele><time>2026-03-28T11:40:09.206Z</time></trkpt><trkpt lat="43.1984939" lon="11.4715659"><ele>207.5</ele><time>2026-03-28T11:40:10.206Z</time></trkpt><trkpt lat="43.1985228" lon="11.4717337"><ele>210.0</ele><time>2026-03-28T11:40:11.207Z</time></trkpt><trkpt lat="43.1985366" lon="11.4719218"><ele>210.75</ele><time>2026-03-28T11:40:12.206Z</time></trkpt><trkpt lat="43.19853" lon="11.4721241"><ele>211.5</ele><time>2026-03-28T11:40:13.206Z</time></trkpt><trkpt lat="43.1985091" lon="11.4723079"><ele>212.25</ele><time>2026-03-28T11:40:14.206Z</time></trkpt><trkpt lat="43.1984973" lon="11.4724865"><ele>213.0</ele><time>2026-03-28T11:40:15.207Z</time></trkpt><trkpt lat="43.1984972" lon="11.4726526"><ele>213.0</ele><time>2026-03-28T11:40:16.206Z</time></trkpt><trkpt lat="43.1985067" lon="11.47281"><ele>213.0</ele><time>2026-03-28T11:40:17.205Z</time></trkpt><trkpt lat="43.1985449" lon="11.4729543"><ele>213.0</ele><time>2026-03-28T11:40:18.206Z</time></trkpt><trkpt lat="43.1986074" lon="11.4731059"><ele>213.0</ele><time>2026-03-28T11:40:19.206Z</time></trkpt><trkpt lat="43.1986729" lon="11.4732478"><ele>213.2</ele><time>2026-03-28T11:40:20.207Z</time></trkpt><trkpt lat="43.1987425" lon="11.4733738"><ele>213.4</ele><time>2026-03-28T11:40:21.207Z</time></trkpt><trkpt lat="43.1988013" lon="11.4734943"><ele>213.59999999999997</ele><time>2026-03-28T11:40:22.206Z</time></trkpt><trkpt lat="43.198839" lon="11.4736212"><ele>213.79999999999998</ele><time>2026-03-28T11:40:23.207Z</time></trkpt><trkpt lat="43.1988639" lon="11.4737673"><ele>214.0</ele><time>2026-03-28T11:40:24.207Z</time></trkpt><trkpt lat="43.1988621" lon="11.4739287"><ele>211.75</ele><time>2026-03-28T11:40:25.207Z</time></trkpt><trkpt lat="43.1988606" lon="11.4741021"><ele>209.5</ele><time>2026-03-28T11:40:26.207Z</time></trkpt><trkpt lat="43.1988822" lon="11.4742718"><ele>207.25</ele><time>2026-03-28T11:40:27.206Z</time></trkpt><trkpt lat="43.1989255" lon="11.4744456"><ele>205.0</ele><time>2026-03-28T11:40:28.206Z</time></trkpt><trkpt lat="43.1989899" lon="11.4746049"><ele>203.5</ele><time>2026-03-28T11:40:29.206Z</time></trkpt><trkpt lat="43.1990596" lon="11.4747389"><ele>202.0</ele><time>2026-03-28T11:40:30.206Z</time></trkpt><trkpt lat="43.1991342" lon="11.4748771"><ele>200.5</ele><time>2026-03-28T11:40:31.207Z</time></trkpt><trkpt lat="43.1992088" lon="11.475015"><ele>199.0</ele><time>2026-03-28T11:40:32.207Z</time></trkpt><trkpt lat="43.1992804" lon="11.475156"><ele>199.0</ele><time>2026-03-28T11:40:33.206Z</time></trkpt><trkpt lat="43.1993556" lon="11.475289"><ele>199.0</ele><time>2026-03-28T11:40:34.206Z</time></trkpt><trkpt lat="43.1994344" lon="11.4754049"><ele>199.0</ele><time>2026-03-28T11:40:35.206Z</time></trkpt><trkpt lat="43.1995219" lon="11.4755177"><ele>199.0</ele><time>2026-03-28T11:40:36.207Z</time></trkpt><trkpt lat="43.1996074" lon="11.475616"><ele>200.75</ele><time>2026-03-28T11:40:37.206Z</time></trkpt><trkpt lat="43.1997028" lon="11.4757006"><ele>202.5</ele><time>2026-03-28T11:40:38.207Z</time></trkpt><trkpt lat="43.1998099" lon="11.4757727"><ele>204.25</ele><time>2026-03-28T11:40:39.206Z</time></trkpt><trkpt lat="43.1999189" lon="11.4758464"><ele>206.0</ele><time>2026-03-28T11:40:40.207Z</time></trkpt><trkpt lat="43.2000198" lon="11.4759433"><ele>206.0</ele><time>2026-03-28T11:40:41.206Z</time></trkpt><trkpt lat="43.2001015" lon="11.4760483"><ele>206.0</ele><time>2026-03-28T11:40:42.207Z</time></trkpt><trkpt lat="43.2001884" lon="11.4761499"><ele>206.0</ele><time>2026-03-28T11:40:43.207Z</time></trkpt><trkpt lat="43.2002827" lon="11.4762451"><ele>206.0</ele><time>2026-03-28T11:40:44.206Z</time></trkpt><trkpt lat="43.2003826" lon="11.4763429"><ele>207.0</ele><time>2026-03-28T11:40:45.207Z</time></trkpt><trkpt lat="43.2004869" lon="11.476453"><ele>208.0</ele><time>2026-03-28T11:40:46.206Z</time></trkpt><trkpt lat="43.2005959" lon="11.4765792"><ele>209.0</ele><time>2026-03-28T11:40:47.207Z</time></trkpt><trkpt lat="43.200689" lon="11.4767168"><ele>210.0</ele><time>2026-03-28T11:40:48.205Z</time></trkpt><trkpt lat="43.2007669" lon="11.4768684"><ele>210.0</ele><time>2026-03-28T11:40:49.206Z</time></trkpt><trkpt lat="43.2008381" lon="11.4770251"><ele>210.0</ele><time>2026-03-28T11:40:50.205Z</time></trkpt><trkpt lat="43.2009086" lon="11.4771836"><ele>210.0</ele><time>2026-03-28T11:40:51.206Z</time></trkpt><trkpt lat="43.2009832" lon="11.4773453"><ele>210.0</ele><time>2026-03-28T11:40:52.207Z</time></trkpt><trkpt lat="43.2010511" lon="11.4775117"><ele>209.0</ele><time>2026-03-28T11:40:53.207Z</time></trkpt><trkpt lat="43.2011114" lon="11.477682"><ele>208.0</ele><time>2026-03-28T11:40:54.206Z</time></trkpt><trkpt lat="43.2011781" lon="11.4778514"><ele>207.0</ele><time>2026-03-28T11:40:55.206Z</time></trkpt><trkpt lat="43.2012518" lon="11.4780163"><ele>206.0</ele><time>2026-03-28T11:40:56.206Z</time></trkpt><trkpt lat="43.2013211" lon="11.4781835"><ele>206.75</ele><time>2026-03-28T11:40:57.207Z</time></trkpt><trkpt lat="43.2013915" lon="11.478353"><ele>207.5</ele><time>2026-03-28T11:40:58.206Z</time></trkpt><trkpt lat="43.201463" lon="11.4785256"><ele>208.25</ele><time>2026-03-28T11:40:59.206Z</time></trkpt><trkpt lat="43.2015316" lon="11.4787033"><ele>209.0</ele><time>2026-03-28T11:41:00.206Z</time></trkpt><trkpt lat="43.2015952" lon="11.4788897"><ele>210.33333333333334</ele><time>2026-03-28T11:41:01.207Z</time></trkpt><trkpt lat="43.201657" lon="11.4790829"><ele>211.66666666666669</ele><time>2026-03-28T11:41:02.206Z</time></trkpt><trkpt lat="43.201719" lon="11.4792782"><ele>213.0</ele><time>2026-03-28T11:41:03.206Z</time></trkpt><trkpt lat="43.2017752" lon="11.4794783"><ele>212.66666666666669</ele><time>2026-03-28T11:41:04.206Z</time></trkpt><trkpt lat="43.2018294" lon="11.4796764"><ele>212.33333333333334</ele><time>2026-03-28T11:41:05.207Z</time></trkpt><trkpt lat="43.2018842" lon="11.4798736"><ele>212.0</ele><time>2026-03-28T11:41:06.206Z</time></trkpt><trkpt lat="43.2019479" lon="11.4800668"><ele>212.0</ele><time>2026-03-28T11:41:07.207Z</time></trkpt><trkpt lat="43.2020132" lon="11.4802516"><ele>212.0</ele><time>2026-03-28T11:41:08.206Z</time></trkpt><trkpt lat="43.202085" lon="11.480429"><ele>212.0</ele><time>2026-03-28T11:41:09.207Z</time></trkpt><trkpt lat="43.2021487" lon="11.4806131"><ele>212.0</ele><time>2026-03-28T11:41:10.206Z</time></trkpt><trkpt lat="43.2021952" lon="11.4808095"><ele>212.5</ele><time>2026-03-28T11:41:11.207Z</time></trkpt><trkpt lat="43.2022286" lon="11.4810069"><ele>213.0</ele><time>2026-03-28T11:41:12.206Z</time></trkpt><trkpt lat="43.2022573" lon="11.4812039"><ele>213.5</ele><time>2026-03-28T11:41:13.207Z</time></trkpt><trkpt lat="43.2022827" lon="11.4813985"><ele>214.0</ele><time>2026-03-28T11:41:14.206Z</time></trkpt><trkpt lat="43.202303" lon="11.4815742"><ele>214.0</ele><time>2026-03-28T11:41:15.207Z</time></trkpt><trkpt lat="43.2023182" lon="11.4817543"><ele>214.0</ele><time>2026-03-28T11:41:16.207Z</time></trkpt><trkpt lat="43.2023154" lon="11.481933"><ele>214.0</ele><time>2026-03-28T11:41:17.206Z</time></trkpt><trkpt lat="43.2022944" lon="11.4821042"><ele>214.0</ele><time>2026-03-28T11:41:18.206Z</time></trkpt><trkpt lat="43.2022618" lon="11.4822674"><ele>216.25</ele><time>2026-03-28T11:41:19.206Z</time></trkpt><trkpt lat="43.202232" lon="11.4824404"><ele>218.5</ele><time>2026-03-28T11:41:20.206Z</time></trkpt><trkpt lat="43.2022112" lon="11.4826154"><ele>220.75</ele><time>2026-03-28T11:41:21.207Z</time></trkpt><trkpt lat="43.2022031" lon="11.4827897"><ele>223.0</ele><time>2026-03-28T11:41:22.206Z</time></trkpt><trkpt lat="43.2022076" lon="11.4829488"><ele>225.8</ele><time>2026-03-28T11:41:23.206Z</time></trkpt><trkpt lat="43.202203" lon="11.4831052"><ele>228.60000000000002</ele><time>2026-03-28T11:41:24.207Z</time></trkpt><trkpt lat="43.2021733" lon="11.4832448"><ele>231.39999999999998</ele><time>2026-03-28T11:41:25.207Z</time></trkpt><trkpt lat="43.2021215" lon="11.4833666"><ele>234.2</ele><time>2026-03-28T11:41:26.206Z</time></trkpt><trkpt lat="43.2020566" lon="11.4834827"><ele>237.0</ele><time>2026-03-28T11:41:27.206Z</time></trkpt><trkpt lat="43.2019853" lon="11.4835991"><ele>237.0</ele><time>2026-03-28T11:41:28.206Z</time></trkpt><trkpt lat="43.2019148" lon="11.4837203"><ele>237.0</ele><time>2026-03-28T11:41:29.206Z</time></trkpt><trkpt lat="43.2018487" lon="11.4838378"><ele>237.0</ele><time>2026-03-28T11:41:30.207Z</time></trkpt><trkpt lat="43.2018111" lon="11.4839456"><ele>237.0</ele><time>2026-03-28T11:41:31.206Z</time></trkpt><trkpt lat="43.2017911" lon="11.4840617"><ele>237.0</ele><time>2026-03-28T11:41:32.206Z</time></trkpt><trkpt lat="43.2017968" lon="11.4841733"><ele>239.66666666666666</ele><time>2026-03-28T11:41:33.207Z</time></trkpt><trkpt lat="43.2018238" lon="11.4842718"><ele>242.33333333333331</ele><time>2026-03-28T11:41:34.207Z</time></trkpt><trkpt lat="43.2018628" lon="11.4843666"><ele>245.0</ele><time>2026-03-28T11:41:35.207Z</time></trkpt><trkpt lat="43.201909" lon="11.4844619"><ele>247.66666666666666</ele><time>2026-03-28T11:41:36.207Z</time></trkpt><trkpt lat="43.2019552" lon="11.484563"><ele>250.33333333333331</ele><time>2026-03-28T11:41:37.207Z</time></trkpt><trkpt lat="43.202003" lon="11.4846667"><ele>253.0</ele><time>2026-03-28T11:41:38.206Z</time></trkpt><trkpt lat="43.2020431" lon="11.484783"><ele>253.2</ele><time>2026-03-28T11:41:39.206Z</time></trkpt><trkpt lat="43.2020743" lon="11.4849083"><ele>253.4</ele><time>2026-03-28T11:41:40.207Z</time></trkpt><trkpt lat="43.2021025" lon="11.4850461"><ele>253.59999999999997</ele><time>2026-03-28T11:41:41.207Z</time></trkpt><trkpt lat="43.2021333" lon="11.4851905"><ele>253.79999999999998</ele><time>2026-03-28T11:41:42.207Z</time></trkpt><trkpt lat="43.2021586" lon="11.4853353"><ele>254.0</ele><time>2026-03-28T11:41:43.207Z</time></trkpt><trkpt lat="43.2021843" lon="11.4854695"><ele>254.0</ele><time>2026-03-28T11:41:44.206Z</time></trkpt><trkpt lat="43.2022148" lon="11.4855946"><ele>253.99999999999997</ele><time>2026-03-28T11:41:45.205Z</time></trkpt><trkpt lat="43.2022429" lon="11.4857335"><ele>253.99999999999997</ele><time>2026-03-28T11:41:46.206Z</time></trkpt><trkpt lat="43.202281" lon="11.4858754"><ele>254.0</ele><time>2026-03-28T11:41:47.206Z</time></trkpt><trkpt lat="43.2023322" lon="11.4860138"><ele>254.0</ele><time>2026-03-28T11:41:48.207Z</time></trkpt><trkpt lat="43.2023892" lon="11.4861363"><ele>254.5</ele><time>2026-03-28T11:41:49.207Z</time></trkpt><trkpt lat="43.2024613" lon="11.4862582"><ele>255.0</ele><time>2026-03-28T11:41:50.206Z</time></trkpt><trkpt lat="43.2025374" lon="11.4863726"><ele>255.5</ele><time>2026-03-28T11:41:51.206Z</time></trkpt><trkpt lat="43.2026232" lon="11.4864826"><ele>256.0</ele><time>2026-03-28T11:41:52.205Z</time></trkpt><trkpt lat="43.202714" lon="11.4865847"><ele>254.4</ele><time>2026-03-28T11:41:53.207Z</time></trkpt><trkpt lat="43.2027976" lon="11.4866897"><ele>252.8</ele><time>2026-03-28T11:41:54.206Z</time></trkpt><trkpt lat="43.2028796" lon="11.4867905"><ele>251.20000000000002</ele><time>2026-03-28T11:41:55.206Z</time></trkpt><trkpt lat="43.2029554" lon="11.4868822"><ele>249.60000000000002</ele><time>2026-03-28T11:41:56.207Z</time></trkpt><trkpt lat="43.2030306" lon="11.4869799"><ele>248.0</ele><time>2026-03-28T11:41:57.206Z</time></trkpt><trkpt lat="43.2031102" lon="11.4870782"><ele>248.2</ele><time>2026-03-28T11:41:58.206Z</time></trkpt><trkpt lat="43.2031852" lon="11.4871785"><ele>248.4</ele><time>2026-03-28T11:41:59.206Z</time></trkpt><trkpt lat="43.2032607" lon="11.4872766"><ele>248.59999999999997</ele><time>2026-03-28T11:42:00.206Z</time></trkpt><trkpt lat="43.2033401" lon="11.4873776"><ele>248.79999999999998</ele><time>2026-03-28T11:42:01.206Z</time></trkpt><trkpt lat="43.2034225" lon="11.4874799"><ele>249.0</ele><time>2026-03-28T11:42:02.206Z</time></trkpt><trkpt lat="43.2035082" lon="11.4875837"><ele>249.0</ele><time>2026-03-28T11:42:03.206Z</time></trkpt><trkpt lat="43.2035923" lon="11.487698"><ele>249.0</ele><time>2026-03-28T11:42:04.206Z</time></trkpt><trkpt lat="43.2036652" lon="11.4878163"><ele>249.0</ele><time>2026-03-28T11:42:05.206Z</time></trkpt><trkpt lat="43.2037316" lon="11.4879391"><ele>249.0</ele><time>2026-03-28T11:42:06.207Z</time></trkpt><trkpt lat="43.203798" lon="11.4880621"><ele>245.75</ele><time>2026-03-28T11:42:07.207Z</time></trkpt><trkpt lat="43.2038671" lon="11.4881889"><ele>242.5</ele><time>2026-03-28T11:42:08.206Z</time></trkpt><trkpt lat="43.203938" lon="11.4883153"><ele>239.25</ele><time>2026-03-28T11:42:09.207Z</time></trkpt><trkpt lat="43.2040145" lon="11.4884462"><ele>236.0</ele><time>2026-03-28T11:42:10.206Z</time></trkpt><trkpt lat="43.2040977" lon="11.4885789"><ele>239.0</ele><time>2026-03-28T11:42:11.207Z</time></trkpt><trkpt lat="43.204188" lon="11.4887096"><ele>242.0</ele><time>2026-03-28T11:42:12.206Z</time></trkpt><trkpt lat="43.2042816" lon="11.4888385"><ele>245.0</ele><time>2026-03-28T11:42:13.207Z</time></trkpt><trkpt lat="43.2043735" lon="11.4889785"><ele>248.0</ele><time>2026-03-28T11:42:14.206Z</time></trkpt><trkpt lat="43.2044512" lon="11.4891179"><ele>248.0</ele><time>2026-03-28T11:42:15.206Z</time></trkpt><trkpt lat="43.2045144" lon="11.4892674"><ele>248.0</ele><time>2026-03-28T11:42:16.206Z</time></trkpt><trkpt lat="43.2045715" lon="11.4894267"><ele>248.0</ele><time>2026-03-28T11:42:17.206Z</time></trkpt><trkpt lat="43.2046212" lon="11.4895727"><ele>248.0</ele><time>2026-03-28T11:42:18.207Z</time></trkpt><trkpt lat="43.2046673" lon="11.4897117"><ele>251.0</ele><time>2026-03-28T11:42:19.207Z</time></trkpt><trkpt lat="43.2047129" lon="11.489854"><ele>254.0</ele><time>2026-03-28T11:42:20.207Z</time></trkpt><trkpt lat="43.2047582" lon="11.490009"><ele>257.0</ele><time>2026-03-28T11:42:21.206Z</time></trkpt><trkpt lat="43.2048179" lon="11.4901624"><ele>260.0</ele><time>2026-03-28T11:42:22.206Z</time></trkpt><trkpt lat="43.2048926" lon="11.4903086"><ele>256.25</ele><time>2026-03-28T11:42:23.207Z</time></trkpt><trkpt lat="43.204979" lon="11.4904396"><ele>252.5</ele><time>2026-03-28T11:42:24.207Z</time></trkpt><trkpt lat="43.2050643" lon="11.4905666"><ele>248.75</ele><time>2026-03-28T11:42:25.206Z</time></trkpt><trkpt lat="43.2051543" lon="11.4906809"><ele>245.0</ele><time>2026-03-28T11:42:26.206Z</time></trkpt><trkpt lat="43.2052507" lon="11.4907713"><ele>245.0</ele><time>2026-03-28T11:42:27.206Z</time></trkpt><trkpt lat="43.2053536" lon="11.4908386"><ele>245.0</ele><time>2026-03-28T11:42:28.207Z</time></trkpt><trkpt lat="43.205458" lon="11.4908773"><ele>245.0</ele><time>2026-03-28T11:42:29.206Z</time></trkpt><trkpt lat="43.2055633" lon="11.4908976"><ele>245.0</ele><time>2026-03-28T11:42:30.206Z</time></trkpt><trkpt lat="43.2056753" lon="11.4909078"><ele>245.0</ele><time>2026-03-28T11:42:31.207Z</time></trkpt><trkpt lat="43.2057889" lon="11.4909059"><ele>247.6</ele><time>2026-03-28T11:42:32.207Z</time></trkpt><trkpt lat="43.2059011" lon="11.4908896"><ele>250.2</ele><time>2026-03-28T11:42:33.207Z</time></trkpt><trkpt lat="43.2060028" lon="11.4908737"><ele>252.8</ele><time>2026-03-28T11:42:34.207Z</time></trkpt><trkpt lat="43.2061035" lon="11.4908768"><ele>255.4</ele><time>2026-03-28T11:42:35.207Z</time></trkpt><trkpt lat="43.2062069" lon="11.4908908"><ele>258.0</ele><time>2026-03-28T11:42:36.206Z</time></trkpt><trkpt lat="43.2063156" lon="11.4909142"><ele>258.0</ele><time>2026-03-28T11:42:37.206Z</time></trkpt><trkpt lat="43.2064141" lon="11.4909594"><ele>258.0</ele><time>2026-03-28T11:42:38.207Z</time></trkpt><trkpt lat="43.2065043" lon="11.4910206"><ele>258.0</ele><time>2026-03-28T11:42:39.206Z</time></trkpt><trkpt lat="43.2065901" lon="11.4911004"><ele>258.0</ele><time>2026-03-28T11:42:40.206Z</time></trkpt><trkpt lat="43.2066685" lon="11.4912089"><ele>258.0</ele><time>2026-03-28T11:42:41.206Z</time></trkpt><trkpt lat="43.2067361" lon="11.4913374"><ele>257.0</ele><time>2026-03-28T11:42:42.205Z</time></trkpt><trkpt lat="43.2067911" lon="11.4914597"><ele>256.0</ele><time>2026-03-28T11:42:43.206Z</time></trkpt><trkpt lat="43.2068452" lon="11.4915844"><ele>255.0</ele><time>2026-03-28T11:42:44.207Z</time></trkpt><trkpt lat="43.2069022" lon="11.4917071"><ele>254.0</ele><time>2026-03-28T11:42:45.205Z</time></trkpt><trkpt lat="43.2069577" lon="11.4918255"><ele>253.0</ele><time>2026-03-28T11:42:46.206Z</time></trkpt><trkpt lat="43.2070276" lon="11.4919479"><ele>253.0</ele><time>2026-03-28T11:42:47.207Z</time></trkpt><trkpt lat="43.2071113" lon="11.4920539"><ele>253.0</ele><time>2026-03-28T11:42:48.207Z</time></trkpt><trkpt lat="43.2071947" lon="11.4921394"><ele>253.0</ele><time>2026-03-28T11:42:49.206Z</time></trkpt><trkpt lat="43.2072751" lon="11.4922241"><ele>253.0</ele><time>2026-03-28T11:42:50.207Z</time></trkpt><trkpt lat="43.2073633" lon="11.4923116"><ele>253.0</ele><time>2026-03-28T11:42:51.205Z</time></trkpt><trkpt lat="43.2074552" lon="11.4923994"><ele>251.75</ele><time>2026-03-28T11:42:52.206Z</time></trkpt><trkpt lat="43.2075513" lon="11.4924941"><ele>250.5</ele><time>2026-03-28T11:42:53.206Z</time></trkpt><trkpt lat="43.2076527" lon="11.4925938"><ele>249.25</ele><time>2026-03-28T11:42:54.207Z</time></trkpt><trkpt lat="43.207756" lon="11.4926955"><ele>248.0</ele><time>2026-03-28T11:42:55.206Z</time></trkpt><trkpt lat="43.2078425" lon="11.4927934"><ele>248.0</ele><time>2026-03-28T11:42:56.206Z</time></trkpt><trkpt lat="43.2079289" lon="11.4928945"><ele>248.0</ele><time>2026-03-28T11:42:57.206Z</time></trkpt><trkpt lat="43.2080212" lon="11.492994"><ele>248.0</ele><time>2026-03-28T11:42:58.207Z</time></trkpt><trkpt lat="43.2081176" lon="11.4930897"><ele>248.0</ele><time>2026-03-28T11:42:59.206Z</time></trkpt><trkpt lat="43.2082204" lon="11.4931906"><ele>248.5</ele><time>2026-03-28T11:43:00.206Z</time></trkpt><trkpt lat="43.2083301" lon="11.4932932"><ele>249.0</ele><time>2026-03-28T11:43:01.206Z</time></trkpt><trkpt lat="43.2084409" lon="11.4933862"><ele>249.5</ele><time>2026-03-28T11:43:02.206Z</time></trkpt><trkpt lat="43.2085541" lon="11.4934732"><ele>250.0</ele><time>2026-03-28T11:43:03.206Z</time></trkpt><trkpt lat="43.2086615" lon="11.4935603"><ele>250.0</ele><time>2026-03-28T11:43:04.207Z</time></trkpt><trkpt lat="43.2087512" lon="11.4936607"><ele>250.0</ele><time>2026-03-28T11:43:05.206Z</time></trkpt><trkpt lat="43.2088294" lon="11.4937792"><ele>250.0</ele><time>2026-03-28T11:43:06.206Z</time></trkpt><trkpt lat="43.2089006" lon="11.4939139"><ele>250.0</ele><time>2026-03-28T11:43:07.206Z</time></trkpt><trkpt lat="43.2089635" lon="11.494062"><ele>252.25</ele><time>2026-03-28T11:43:08.206Z</time></trkpt><trkpt lat="43.20902" lon="11.4942129"><ele>254.5</ele><time>2026-03-28T11:43:09.206Z</time></trkpt><trkpt lat="43.2090702" lon="11.4943712"><ele>256.75</ele><time>2026-03-28T11:43:10.207Z</time></trkpt><trkpt lat="43.2091149" lon="11.4945367"><ele>259.0</ele><time>2026-03-28T11:43:11.207Z</time></trkpt><trkpt lat="43.2091561" lon="11.4947077"><ele>259.5</ele><time>2026-03-28T11:43:12.206Z</time></trkpt><trkpt lat="43.2091896" lon="11.4948813"><ele>260.0</ele><time>2026-03-28T11:43:13.207Z</time></trkpt><trkpt lat="43.2092164" lon="11.4950557"><ele>260.5</ele><time>2026-03-28T11:43:14.206Z</time></trkpt><trkpt lat="43.2092361" lon="11.4952195"><ele>261.0</ele><time>2026-03-28T11:43:15.206Z</time></trkpt><trkpt lat="43.209261" lon="11.4953654"><ele>261.40000000000003</ele><time>2026-03-28T11:43:16.207Z</time></trkpt><trkpt lat="43.2092989" lon="11.4955021"><ele>261.8</ele><time>2026-03-28T11:43:17.206Z</time></trkpt><trkpt lat="43.2093481" lon="11.4956355"><ele>262.20000000000005</ele><time>2026-03-28T11:43:18.206Z</time></trkpt><trkpt lat="43.2093967" lon="11.4957682"><ele>262.6</ele><time>2026-03-28T11:43:19.206Z</time></trkpt><trkpt lat="43.2094413" lon="11.4958996"><ele>263.0</ele><time>2026-03-28T11:43:20.206Z</time></trkpt><trkpt lat="43.2094796" lon="11.4960154"><ele>263.0</ele><time>2026-03-28T11:43:21.207Z</time></trkpt><trkpt lat="43.2095185" lon="11.496135"><ele>263.0</ele><time>2026-03-28T11:43:22.207Z</time></trkpt><trkpt lat="43.2095577" lon="11.4962486"><ele>263.0</ele><time>2026-03-28T11:43:23.206Z</time></trkpt><trkpt lat="43.2095963" lon="11.4963574"><ele>263.0</ele><time>2026-03-28T11:43:24.207Z</time></trkpt><trkpt lat="43.2096441" lon="11.4964607"><ele>263.0</ele><time>2026-03-28T11:43:25.207Z</time></trkpt><trkpt lat="43.2097002" lon="11.4965543"><ele>263.2857142857143</ele><time>2026-03-28T11:43:26.206Z</time></trkpt><trkpt lat="43.2097588" lon="11.4966364"><ele>263.57142857142856</ele><time>2026-03-28T11:43:27.207Z</time></trkpt><trkpt lat="43.2098167" lon="11.4967104"><ele>263.85714285714283</ele><time>2026-03-28T11:43:28.207Z</time></trkpt><trkpt lat="43.2098791" lon="11.496773"><ele>264.1428571428571</ele><time>2026-03-28T11:43:29.206Z</time></trkpt><trkpt lat="43.2099384" lon="11.4968256"><ele>264.42857142857144</ele><time>2026-03-28T11:43:30.206Z</time></trkpt><trkpt lat="43.209994" lon="11.496873"><ele>264.71428571428567</ele><time>2026-03-28T11:43:31.207Z</time></trkpt><trkpt lat="43.2100513" lon="11.4969161"><ele>265.0</ele><time>2026-03-28T11:43:32.206Z</time></trkpt><trkpt lat="43.2101146" lon="11.4969613"><ele>264.99999999999994</ele><time>2026-03-28T11:43:33.206Z</time></trkpt><trkpt lat="43.2101773" lon="11.4970064"><ele>265.0</ele><time>2026-03-28T11:43:34.206Z</time></trkpt><trkpt lat="43.2102407" lon="11.4970559"><ele>265.0</ele><time>2026-03-28T11:43:35.205Z</time></trkpt><trkpt lat="43.2103028" lon="11.497103"><ele>265.0</ele><time>2026-03-28T11:43:36.205Z</time></trkpt><trkpt lat="43.210367" lon="11.4971552"><ele>265.0</ele><time>2026-03-28T11:43:37.205Z</time></trkpt><trkpt lat="43.2104332" lon="11.4972046"><ele>264.99999999999994</ele><time>2026-03-28T11:43:38.206Z</time></trkpt><trkpt lat="43.2105059" lon="11.4972592"><ele>265.0</ele><time>2026-03-28T11:43:39.206Z</time></trkpt><trkpt lat="43.2105789" lon="11.497318"><ele>264.8333333333333</ele><time>2026-03-28T11:43:40.205Z</time></trkpt><trkpt lat="43.2106533" lon="11.4973814"><ele>264.66666666666663</ele><time>2026-03-28T11:43:41.205Z</time></trkpt><trkpt lat="43.2107213" lon="11.4974582"><ele>264.5</ele><time>2026-03-28T11:43:42.206Z</time></trkpt><trkpt lat="43.2107786" lon="11.4975505"><ele>264.3333333333333</ele><time>2026-03-28T11:43:43.206Z</time></trkpt><trkpt lat="43.2108268" lon="11.4976637"><ele>264.1666666666667</ele><time>2026-03-28T11:43:44.205Z</time></trkpt><trkpt lat="43.2108571" lon="11.497777"><ele>264.0</ele><time>2026-03-28T11:43:45.205Z</time></trkpt><trkpt lat="43.2108781" lon="11.497892"><ele>263.1666666666667</ele><time>2026-03-28T11:43:46.205Z</time></trkpt><trkpt lat="43.2108997" lon="11.4980109"><ele>262.3333333333333</ele><time>2026-03-28T11:43:47.205Z</time></trkpt><trkpt lat="43.210922" lon="11.4981336"><ele>261.5</ele><time>2026-03-28T11:43:48.206Z</time></trkpt><trkpt lat="43.2109417" lon="11.4982468"><ele>260.66666666666663</ele><time>2026-03-28T11:43:49.205Z</time></trkpt><trkpt lat="43.2109689" lon="11.4983591"><ele>259.8333333333333</ele><time>2026-03-28T11:43:50.205Z</time></trkpt><trkpt lat="43.2110139" lon="11.4984624"><ele>259.0</ele><time>2026-03-28T11:43:51.205Z</time></trkpt><trkpt lat="43.2110796" lon="11.4985543"><ele>259.0</ele><time>2026-03-28T11:43:52.205Z</time></trkpt><trkpt lat="43.2111542" lon="11.498621"><ele>259.0</ele><time>2026-03-28T11:43:53.206Z</time></trkpt><trkpt lat="43.2112302" lon="11.4986647"><ele>259.0</ele><time>2026-03-28T11:43:54.205Z</time></trkpt><trkpt lat="43.211317" lon="11.4986886"><ele>259.0</ele><time>2026-03-28T11:43:55.206Z</time></trkpt><trkpt lat="43.2114092" lon="11.4986939"><ele>259.0</ele><time>2026-03-28T11:43:56.206Z</time></trkpt><trkpt lat="43.2114952" lon="11.4986855"><ele>259.0</ele><time>2026-03-28T11:43:57.206Z</time></trkpt><trkpt lat="43.2115821" lon="11.4986707"><ele>257.5</ele><time>2026-03-28T11:43:58.205Z</time></trkpt><trkpt lat="43.2116623" lon="11.4986488"><ele>256.0</ele><time>2026-03-28T11:43:59.205Z</time></trkpt><trkpt lat="43.2117414" lon="11.4986242"><ele>254.5</ele><time>2026-03-28T11:44:00.205Z</time></trkpt><trkpt lat="43.2118133" lon="11.4986047"><ele>253.0</ele><time>2026-03-28T11:44:01.205Z</time></trkpt><trkpt lat="43.2118853" lon="11.4986043"><ele>251.49999999999997</ele><time>2026-03-28T11:44:02.206Z</time></trkpt><trkpt lat="43.2119593" lon="11.4986277"><ele>250.0</ele><time>2026-03-28T11:44:03.205Z</time></trkpt><trkpt lat="43.2120294" lon="11.4986818"><ele>248.99999999999997</ele><time>2026-03-28T11:44:04.205Z</time></trkpt><trkpt lat="43.2120964" lon="11.4987633"><ele>248.0</ele><time>2026-03-28T11:44:05.205Z</time></trkpt><trkpt lat="43.2121435" lon="11.4988519"><ele>247.0</ele><time>2026-03-28T11:44:06.206Z</time></trkpt><trkpt lat="43.2121859" lon="11.4989686"><ele>246.0</ele><time>2026-03-28T11:44:07.205Z</time></trkpt><trkpt lat="43.2122094" lon="11.4990816"><ele>244.99999999999997</ele><time>2026-03-28T11:44:08.205Z</time></trkpt><trkpt lat="43.212219" lon="11.499185"><ele>244.0</ele><time>2026-03-28T11:44:09.206Z</time></trkpt><trkpt lat="43.2122144" lon="11.4992859"><ele>243.99999999999997</ele><time>2026-03-28T11:44:10.205Z</time></trkpt><trkpt lat="43.2121935" lon="11.4993902"><ele>244.0</ele><time>2026-03-28T11:44:11.206Z</time></trkpt><trkpt lat="43.2121581" lon="11.4994722"><ele>244.0</ele><time>2026-03-28T11:44:12.206Z</time></trkpt><trkpt lat="43.2121044" lon="11.4995454"><ele>244.0</ele><time>2026-03-28T11:44:13.206Z</time></trkpt><trkpt lat="43.2120349" lon="11.4995971"><ele>243.99999999999997</ele><time>2026-03-28T11:44:14.205Z</time></trkpt><trkpt lat="43.2119605" lon="11.4996244"><ele>244.0</ele><time>2026-03-28T11:44:15.205Z</time></trkpt><trkpt lat="43.211873" lon="11.4996524"><ele>241.39999999999998</ele><time>2026-03-28T11:44:16.205Z</time></trkpt><trkpt lat="43.2117888" lon="11.4996908"><ele>238.79999999999998</ele><time>2026-03-28T11:44:17.205Z</time></trkpt><trkpt lat="43.2117121" lon="11.499754"><ele>236.20000000000002</ele><time>2026-03-28T11:44:18.206Z</time></trkpt><trkpt lat="43.2116452" lon="11.4998506"><ele>233.60000000000002</ele><time>2026-03-28T11:44:19.205Z</time></trkpt><trkpt lat="43.2115923" lon="11.4999735"><ele>231.0</ele><time>2026-03-28T11:44:20.206Z</time></trkpt><trkpt lat="43.211556" lon="11.5001033"><ele>231.0</ele><time>2026-03-28T11:44:21.206Z</time></trkpt><trkpt lat="43.21153" lon="11.5002448"><ele>231.0</ele><time>2026-03-28T11:44:22.206Z</time></trkpt><trkpt lat="43.2115024" lon="11.5003909"><ele>231.0</ele><time>2026-03-28T11:44:23.206Z</time></trkpt><trkpt lat="43.2114696" lon="11.5005449"><ele>231.0</ele><time>2026-03-28T11:44:24.205Z</time></trkpt><trkpt lat="43.211432" lon="11.5007034"><ele>228.60000000000002</ele><time>2026-03-28T11:44:25.206Z</time></trkpt><trkpt lat="43.211389" lon="11.5008456"><ele>226.20000000000002</ele><time>2026-03-28T11:44:26.206Z</time></trkpt><trkpt lat="43.2113221" lon="11.5009648"><ele>223.79999999999998</ele><time>2026-03-28T11:44:27.205Z</time></trkpt><trkpt lat="43.2112412" lon="11.5010453"><ele>221.39999999999998</ele><time>2026-03-28T11:44:28.205Z</time></trkpt><trkpt lat="43.2111436" lon="11.5011077"><ele>219.0</ele><time>2026-03-28T11:44:29.206Z</time></trkpt><trkpt lat="43.2110448" lon="11.5011637"><ele>219.0</ele><time>2026-03-28T11:44:30.205Z</time></trkpt><trkpt lat="43.2109493" lon="11.5012228"><ele>218.99999999999997</ele><time>2026-03-28T11:44:31.205Z</time></trkpt><trkpt lat="43.2108612" lon="11.5012923"><ele>218.99999999999997</ele><time>2026-03-28T11:44:32.205Z</time></trkpt><trkpt lat="43.2107782" lon="11.50137"><ele>219.0</ele><time>2026-03-28T11:44:33.206Z</time></trkpt><trkpt lat="43.2107005" lon="11.5014647"><ele>219.0</ele><time>2026-03-28T11:44:34.205Z</time></trkpt><trkpt lat="43.2106331" lon="11.5015798"><ele>219.2</ele><time>2026-03-28T11:44:35.205Z</time></trkpt><trkpt lat="43.2105757" lon="11.501715"><ele>219.39999999999998</ele><time>2026-03-28T11:44:36.205Z</time></trkpt><trkpt lat="43.2105318" lon="11.5018483"><ele>219.6</ele><time>2026-03-28T11:44:37.205Z</time></trkpt><trkpt lat="43.2104931" lon="11.5019696"><ele>219.8</ele><time>2026-03-28T11:44:38.205Z</time></trkpt><trkpt lat="43.2104485" lon="11.502093"><ele>220.0</ele><time>2026-03-28T11:44:39.206Z</time></trkpt><trkpt lat="43.2104094" lon="11.5022049"><ele>222.0</ele><time>2026-03-28T11:44:40.205Z</time></trkpt><trkpt lat="43.2103601" lon="11.5023039"><ele>224.0</ele><time>2026-03-28T11:44:41.205Z</time></trkpt><trkpt lat="43.2103015" lon="11.5023848"><ele>226.0</ele><time>2026-03-28T11:44:42.205Z</time></trkpt><trkpt lat="43.2102277" lon="11.5024573"><ele>228.0</ele><time>2026-03-28T11:44:43.205Z</time></trkpt><trkpt lat="43.2101543" lon="11.5025301"><ele>230.0</ele><time>2026-03-28T11:44:44.205Z</time></trkpt><trkpt lat="43.2100728" lon="11.5026156"><ele>230.0</ele><time>2026-03-28T11:44:45.206Z</time></trkpt><trkpt lat="43.2099861" lon="11.5027059"><ele>230.0</ele><time>2026-03-28T11:44:46.205Z</time></trkpt><trkpt lat="43.2098986" lon="11.5027937"><ele>230.0</ele><time>2026-03-28T11:44:47.205Z</time></trkpt><trkpt lat="43.2098061" lon="11.5028857"><ele>230.0</ele><time>2026-03-28T11:44:48.205Z</time></trkpt><trkpt lat="43.2097108" lon="11.5029823"><ele>227.25</ele><time>2026-03-28T11:44:49.206Z</time></trkpt><trkpt lat="43.2096222" lon="11.50308"><ele>224.5</ele><time>2026-03-28T11:44:50.205Z</time></trkpt><trkpt lat="43.2095351" lon="11.5031761"><ele>221.75</ele><time>2026-03-28T11:44:51.206Z</time></trkpt><trkpt lat="43.2094463" lon="11.5032723"><ele>219.0</ele><time>2026-03-28T11:44:52.205Z</time></trkpt><trkpt lat="43.2093592" lon="11.5033747"><ele>219.0</ele><time>2026-03-28T11:44:53.205Z</time></trkpt><trkpt lat="43.2092819" lon="11.5034889"><ele>218.99999999999997</ele><time>2026-03-28T11:44:54.205Z</time></trkpt><trkpt lat="43.2092164" lon="11.5036029"><ele>218.99999999999997</ele><time>2026-03-28T11:44:55.204Z</time></trkpt><trkpt lat="43.2091512" lon="11.5037218"><ele>219.0</ele><time>2026-03-28T11:44:56.205Z</time></trkpt><trkpt lat="43.2090887" lon="11.5038316"><ele>219.0</ele><time>2026-03-28T11:44:57.205Z</time></trkpt><trkpt lat="43.2090263" lon="11.5039415"><ele>216.79999999999998</ele><time>2026-03-28T11:44:58.206Z</time></trkpt><trkpt lat="43.2089672" lon="11.5040499"><ele>214.59999999999997</ele><time>2026-03-28T11:44:59.204Z</time></trkpt><trkpt lat="43.208907" lon="11.5041552"><ele>212.4</ele><time>2026-03-28T11:45:00.205Z</time></trkpt><trkpt lat="43.2088424" lon="11.5042543"><ele>210.2</ele><time>2026-03-28T11:45:01.206Z</time></trkpt><trkpt lat="43.2087741" lon="11.5043538"><ele>208.0</ele><time>2026-03-28T11:45:02.206Z</time></trkpt><trkpt lat="43.2087003" lon="11.5044471"><ele>208.0</ele><time>2026-03-28T11:45:03.206Z</time></trkpt><trkpt lat="43.2086119" lon="11.5045107"><ele>208.0</ele><time>2026-03-28T11:45:04.206Z</time></trkpt><trkpt lat="43.2085044" lon="11.5045585"><ele>208.0</ele><time>2026-03-28T11:45:05.205Z</time></trkpt><trkpt lat="43.208392" lon="11.5045821"><ele>208.0</ele><time>2026-03-28T11:45:06.206Z</time></trkpt><trkpt lat="43.2082792" lon="11.5045958"><ele>208.0</ele><time>2026-03-28T11:45:07.205Z</time></trkpt><trkpt lat="43.2081817" lon="11.5046074"><ele>205.33333333333331</ele><time>2026-03-28T11:45:08.206Z</time></trkpt><trkpt lat="43.2080944" lon="11.50461"><ele>202.66666666666666</ele><time>2026-03-28T11:45:09.206Z</time></trkpt><trkpt lat="43.2080184" lon="11.504597"><ele>200.0</ele><time>2026-03-28T11:45:10.206Z</time></trkpt><trkpt lat="43.2079513" lon="11.5045756"><ele>197.33333333333331</ele><time>2026-03-28T11:45:11.205Z</time></trkpt><trkpt lat="43.2078404" lon="11.504566"><ele>194.66666666666666</ele><time>2026-03-28T11:45:13.205Z</time></trkpt><trkpt lat="43.2077876" lon="11.5046453"><ele>192.0</ele><time>2026-03-28T11:45:15.206Z</time></trkpt><trkpt lat="43.2078182" lon="11.5047401"><ele>192.0</ele><time>2026-03-28T11:45:17.205Z</time></trkpt><trkpt lat="43.207923" lon="11.5048145"><ele>192.0</ele><time>2026-03-28T11:45:19.205Z</time></trkpt><trkpt lat="43.208004" lon="11.5048478"><ele>192.0</ele><time>2026-03-28T11:45:20.205Z</time></trkpt><trkpt lat="43.2080996" lon="11.5048869"><ele>192.0</ele><time>2026-03-28T11:45:21.205Z</time></trkpt><trkpt lat="43.2082028" lon="11.5049375"><ele>192.0</ele><time>2026-03-28T11:45:22.206Z</time></trkpt><trkpt lat="43.2083138" lon="11.5049968"><ele>192.0</ele><time>2026-03-28T11:45:23.205Z</time></trkpt><trkpt lat="43.2084217" lon="11.5050483"><ele>192.0</ele><time>2026-03-28T11:45:24.205Z</time></trkpt><trkpt lat="43.2085325" lon="11.5050883"><ele>192.0</ele><time>2026-03-28T11:45:25.205Z</time></trkpt><trkpt lat="43.2086254" lon="11.5051016"><ele>192.0</ele><time>2026-03-28T11:45:26.206Z</time></trkpt><trkpt lat="43.2087012" lon="11.5051121"><ele>192.0</ele><time>2026-03-28T11:45:27.205Z</time></trkpt><trkpt lat="43.2087729" lon="11.5051307"><ele>192.0</ele><time>2026-03-28T11:45:28.206Z</time></trkpt><trkpt lat="43.2088489" lon="11.5051442"><ele>192.0</ele><time>2026-03-28T11:45:29.205Z</time></trkpt><trkpt lat="43.208931" lon="11.5051657"><ele>192.0</ele><time>2026-03-28T11:45:30.204Z</time></trkpt><trkpt lat="43.2090138" lon="11.5051628"><ele>192.0</ele><time>2026-03-28T11:45:31.205Z</time></trkpt><trkpt lat="43.2090971" lon="11.5051323"><ele>192.0</ele><time>2026-03-28T11:45:32.206Z</time></trkpt><trkpt lat="43.2091729" lon="11.5050883"><ele>192.0</ele><time>2026-03-28T11:45:33.206Z</time></trkpt><trkpt lat="43.2092459" lon="11.5050438"><ele>190.6</ele><time>2026-03-28T11:45:34.206Z</time></trkpt><trkpt lat="43.2093249" lon="11.5049928"><ele>189.2</ele><time>2026-03-28T11:45:35.204Z</time></trkpt><trkpt lat="43.2094021" lon="11.5049477"><ele>187.8</ele><time>2026-03-28T11:45:36.205Z</time></trkpt><trkpt lat="43.209485" lon="11.5049166"><ele>186.4</ele><time>2026-03-28T11:45:37.205Z</time></trkpt><trkpt lat="43.2095875" lon="11.5049087"><ele>185.0</ele><time>2026-03-28T11:45:38.205Z</time></trkpt><trkpt lat="43.2096853" lon="11.5049333"><ele>185.0</ele><time>2026-03-28T11:45:39.205Z</time></trkpt><trkpt lat="43.2097753" lon="11.5049806"><ele>185.0</ele><time>2026-03-28T11:45:40.206Z</time></trkpt><trkpt lat="43.2098577" lon="11.5050454"><ele>185.0</ele><time>2026-03-28T11:45:41.206Z</time></trkpt><trkpt lat="43.2099425" lon="11.5051232"><ele>185.0</ele><time>2026-03-28T11:45:42.206Z</time></trkpt><trkpt lat="43.210021" lon="11.5051983"><ele>185.0</ele><time>2026-03-28T11:45:43.206Z</time></trkpt><trkpt lat="43.210095" lon="11.5052724"><ele>183.4</ele><time>2026-03-28T11:45:44.205Z</time></trkpt><trkpt lat="43.2101753" lon="11.5053311"><ele>181.8</ele><time>2026-03-28T11:45:45.206Z</time></trkpt><trkpt lat="43.2102664" lon="11.5053758"><ele>180.2</ele><time>2026-03-28T11:45:46.206Z</time></trkpt><trkpt lat="43.2103595" lon="11.5054063"><ele>178.6</ele><time>2026-03-28T11:45:47.205Z</time></trkpt><trkpt lat="43.2104586" lon="11.5054355"><ele>177.0</ele><time>2026-03-28T11:45:48.205Z</time></trkpt><trkpt lat="43.2105524" lon="11.505454"><ele>176.39999999999998</ele><time>2026-03-28T11:45:49.205Z</time></trkpt><trkpt lat="43.2106472" lon="11.5054596"><ele>175.79999999999998</ele><time>2026-03-28T11:45:50.205Z</time></trkpt><trkpt lat="43.210754" lon="11.505445"><ele>175.2</ele><time>2026-03-28T11:45:51.205Z</time></trkpt><trkpt lat="43.2108636" lon="11.5054128"><ele>174.6</ele><time>2026-03-28T11:45:52.206Z</time></trkpt><trkpt lat="43.2109674" lon="11.5053843"><ele>174.0</ele><time>2026-03-28T11:45:53.206Z</time></trkpt><trkpt lat="43.2110602" lon="11.5053639"><ele>174.0</ele><time>2026-03-28T11:45:54.205Z</time></trkpt><trkpt lat="43.2111493" lon="11.5053635"><ele>174.0</ele><time>2026-03-28T11:45:55.206Z</time></trkpt><trkpt lat="43.2112339" lon="11.5053942"><ele>174.0</ele><time>2026-03-28T11:45:56.205Z</time></trkpt><trkpt lat="43.2113163" lon="11.5054696"><ele>174.0</ele><time>2026-03-28T11:45:57.206Z</time></trkpt><trkpt lat="43.211382" lon="11.5055823"><ele>174.0</ele><time>2026-03-28T11:45:58.206Z</time></trkpt><trkpt lat="43.2114309" lon="11.5057239"><ele>171.75</ele><time>2026-03-28T11:45:59.206Z</time></trkpt><trkpt lat="43.211474" lon="11.5058776"><ele>169.5</ele><time>2026-03-28T11:46:00.206Z</time></trkpt><trkpt lat="43.2115189" lon="11.5060402"><ele>167.25</ele><time>2026-03-28T11:46:01.205Z</time></trkpt><trkpt lat="43.2115679" lon="11.5061994"><ele>165.0</ele><time>2026-03-28T11:46:02.206Z</time></trkpt><trkpt lat="43.2116149" lon="11.5063541"><ele>165.0</ele><time>2026-03-28T11:46:03.206Z</time></trkpt><trkpt lat="43.211661" lon="11.5065117"><ele>165.0</ele><time>2026-03-28T11:46:04.205Z</time></trkpt><trkpt lat="43.2117076" lon="11.5066702"><ele>165.0</ele><time>2026-03-28T11:46:05.206Z</time></trkpt><trkpt lat="43.2117502" lon="11.5068275"><ele>165.0</ele><time>2026-03-28T11:46:06.205Z</time></trkpt><trkpt lat="43.2117934" lon="11.5069852"><ele>164.8</ele><time>2026-03-28T11:46:07.206Z</time></trkpt><trkpt lat="43.2118372" lon="11.507133"><ele>164.6</ele><time>2026-03-28T11:46:08.205Z</time></trkpt><trkpt lat="43.2118809" lon="11.5072776"><ele>164.39999999999998</ele><time>2026-03-28T11:46:09.205Z</time></trkpt><trkpt lat="43.2119228" lon="11.5074131"><ele>164.2</ele><time>2026-03-28T11:46:10.206Z</time></trkpt><trkpt lat="43.2119766" lon="11.5075324"><ele>164.0</ele><time>2026-03-28T11:46:11.205Z</time></trkpt><trkpt lat="43.2120458" lon="11.5076403"><ele>164.0</ele><time>2026-03-28T11:46:12.205Z</time></trkpt><trkpt lat="43.2121258" lon="11.5077226"><ele>164.0</ele><time>2026-03-28T11:46:13.206Z</time></trkpt><trkpt lat="43.2122229" lon="11.5077897"><ele>164.0</ele><time>2026-03-28T11:46:14.206Z</time></trkpt><trkpt lat="43.2123308" lon="11.5078486"><ele>164.0</ele><time>2026-03-28T11:46:15.205Z</time></trkpt><trkpt lat="43.2124257" lon="11.5079201"><ele>164.0</ele><time>2026-03-28T11:46:16.205Z</time></trkpt><trkpt lat="43.2125227" lon="11.5080049"><ele>163.5</ele><time>2026-03-28T11:46:17.205Z</time></trkpt><trkpt lat="43.2125939" lon="11.5081348"><ele>163.0</ele><time>2026-03-28T11:46:18.205Z</time></trkpt><trkpt lat="43.2126636" lon="11.5082677"><ele>162.5</ele><time>2026-03-28T11:46:19.206Z</time></trkpt><trkpt lat="43.2127295" lon="11.508424"><ele>162.0</ele><time>2026-03-28T11:46:20.205Z</time></trkpt><trkpt lat="43.212802" lon="11.5085876"><ele>162.0</ele><time>2026-03-28T11:46:21.206Z</time></trkpt><trkpt lat="43.2128747" lon="11.508732"><ele>162.0</ele><time>2026-03-28T11:46:22.205Z</time></trkpt><trkpt lat="43.2129429" lon="11.508874"><ele>162.0</ele><time>2026-03-28T11:46:23.206Z</time></trkpt><trkpt lat="43.2130114" lon="11.5090191"><ele>162.0</ele><time>2026-03-28T11:46:24.205Z</time></trkpt><trkpt lat="43.2130791" lon="11.5091641"><ele>161.75</ele><time>2026-03-28T11:46:25.206Z</time></trkpt><trkpt lat="43.2131526" lon="11.5093105"><ele>161.5</ele><time>2026-03-28T11:46:26.205Z</time></trkpt><trkpt lat="43.213232" lon="11.5094552"><ele>161.25</ele><time>2026-03-28T11:46:27.205Z</time></trkpt><trkpt lat="43.2133174" lon="11.5095928"><ele>161.0</ele><time>2026-03-28T11:46:28.205Z</time></trkpt><trkpt lat="43.2134131" lon="11.5097137"><ele>161.5</ele><time>2026-03-28T11:46:29.205Z</time></trkpt><trkpt lat="43.2135159" lon="11.5098313"><ele>162.0</ele><time>2026-03-28T11:46:30.205Z</time></trkpt><trkpt lat="43.2136211" lon="11.5099581"><ele>162.5</ele><time>2026-03-28T11:46:31.206Z</time></trkpt><trkpt lat="43.2137211" lon="11.5100851"><ele>163.0</ele><time>2026-03-28T11:46:32.206Z</time></trkpt><trkpt lat="43.2138168" lon="11.5102216"><ele>163.0</ele><time>2026-03-28T11:46:33.205Z</time></trkpt><trkpt lat="43.2138953" lon="11.5103509"><ele>163.0</ele><time>2026-03-28T11:46:34.205Z</time></trkpt><trkpt lat="43.2139745" lon="11.5104851"><ele>163.0</ele><time>2026-03-28T11:46:35.205Z</time></trkpt><trkpt lat="43.2140497" lon="11.5106191"><ele>163.0</ele><time>2026-03-28T11:46:36.204Z</time></trkpt><trkpt lat="43.2141185" lon="11.5107446"><ele>163.25</ele><time>2026-03-28T11:46:37.205Z</time></trkpt><trkpt lat="43.214188" lon="11.5108783"><ele>163.5</ele><time>2026-03-28T11:46:38.204Z</time></trkpt><trkpt lat="43.2142388" lon="11.5110205"><ele>163.75</ele><time>2026-03-28T11:46:39.205Z</time></trkpt><trkpt lat="43.2142651" lon="11.5111716"><ele>164.0</ele><time>2026-03-28T11:46:40.206Z</time></trkpt><trkpt lat="43.214265" lon="11.5113241"><ele>164.39999999999998</ele><time>2026-03-28T11:46:41.205Z</time></trkpt><trkpt lat="43.2142426" lon="11.5114761"><ele>164.8</ele><time>2026-03-28T11:46:42.205Z</time></trkpt><trkpt lat="43.214221" lon="11.5116318"><ele>165.2</ele><time>2026-03-28T11:46:43.205Z</time></trkpt><trkpt lat="43.2142144" lon="11.5117759"><ele>165.60000000000002</ele><time>2026-03-28T11:46:44.205Z</time></trkpt><trkpt lat="43.2142312" lon="11.5119181"><ele>166.0</ele><time>2026-03-28T11:46:45.205Z</time></trkpt><trkpt lat="43.2142628" lon="11.5120484"><ele>166.4</ele><time>2026-03-28T11:46:46.205Z</time></trkpt><trkpt lat="43.2143078" lon="11.512168"><ele>166.8</ele><time>2026-03-28T11:46:47.204Z</time></trkpt><trkpt lat="43.2143694" lon="11.5122725"><ele>167.20000000000002</ele><time>2026-03-28T11:46:48.204Z</time></trkpt><trkpt lat="43.2144432" lon="11.5123615"><ele>167.60000000000002</ele><time>2026-03-28T11:46:49.205Z</time></trkpt><trkpt lat="43.2145235" lon="11.5124376"><ele>168.0</ele><time>2026-03-28T11:46:50.205Z</time></trkpt><trkpt lat="43.2146097" lon="11.5125153"><ele>168.0</ele><time>2026-03-28T11:46:51.205Z</time></trkpt><trkpt lat="43.2146967" lon="11.5125907"><ele>168.0</ele><time>2026-03-28T11:46:52.206Z</time></trkpt><trkpt lat="43.2147882" lon="11.512677"><ele>168.0</ele><time>2026-03-28T11:46:53.206Z</time></trkpt><trkpt lat="43.214876" lon="11.5127649"><ele>168.0</ele><time>2026-03-28T11:46:54.206Z</time></trkpt><trkpt lat="43.2149555" lon="11.5128464"><ele>168.0</ele><time>2026-03-28T11:46:55.206Z</time></trkpt><trkpt lat="43.2150384" lon="11.5129345"><ele>170.4</ele><time>2026-03-28T11:46:56.206Z</time></trkpt><trkpt lat="43.215126" lon="11.513023"><ele>172.8</ele><time>2026-03-28T11:46:57.206Z</time></trkpt><trkpt lat="43.2152119" lon="11.5131208"><ele>175.2</ele><time>2026-03-28T11:46:58.205Z</time></trkpt><trkpt lat="43.2152915" lon="11.5132292"><ele>177.6</ele><time>2026-03-28T11:46:59.206Z</time></trkpt><trkpt lat="43.215363" lon="11.5133482"><ele>180.0</ele><time>2026-03-28T11:47:00.206Z</time></trkpt><trkpt lat="43.2154252" lon="11.5134809"><ele>180.0</ele><time>2026-03-28T11:47:01.205Z</time></trkpt><trkpt lat="43.215471" lon="11.5136272"><ele>180.0</ele><time>2026-03-28T11:47:02.205Z</time></trkpt><trkpt lat="43.2154995" lon="11.513779"><ele>180.0</ele><time>2026-03-28T11:47:03.206Z</time></trkpt><trkpt lat="43.21552" lon="11.5139125"><ele>180.0</ele><time>2026-03-28T11:47:04.205Z</time></trkpt><trkpt lat="43.2155486" lon="11.5140538"><ele>180.0</ele><time>2026-03-28T11:47:05.205Z</time></trkpt><trkpt lat="43.2155795" lon="11.5141962"><ele>180.5</ele><time>2026-03-28T11:47:06.205Z</time></trkpt><trkpt lat="43.215629" lon="11.5143489"><ele>181.0</ele><time>2026-03-28T11:47:07.206Z</time></trkpt><trkpt lat="43.2156841" lon="11.5145066"><ele>181.5</ele><time>2026-03-28T11:47:08.206Z</time></trkpt><trkpt lat="43.2157415" lon="11.5146728"><ele>182.0</ele><time>2026-03-28T11:47:09.205Z</time></trkpt><trkpt lat="43.2158012" lon="11.5148526"><ele>180.0</ele><time>2026-03-28T11:47:10.206Z</time></trkpt><trkpt lat="43.2158619" lon="11.515026"><ele>178.0</ele><time>2026-03-28T11:47:11.206Z</time></trkpt><trkpt lat="43.215921" lon="11.5152077"><ele>176.0</ele><time>2026-03-28T11:47:12.205Z</time></trkpt><trkpt lat="43.21599" lon="11.5154004"><ele>174.0</ele><time>2026-03-28T11:47:13.205Z</time></trkpt><trkpt lat="43.2160652" lon="11.5155885"><ele>172.0</ele><time>2026-03-28T11:47:14.205Z</time></trkpt><trkpt lat="43.2161523" lon="11.5157785"><ele>170.0</ele><time>2026-03-28T11:47:15.206Z</time></trkpt><trkpt lat="43.2162413" lon="11.5159585"><ele>168.0</ele><time>2026-03-28T11:47:16.205Z</time></trkpt><trkpt lat="43.2163212" lon="11.5161294"><ele>168.25</ele><time>2026-03-28T11:47:17.205Z</time></trkpt><trkpt lat="43.2163957" lon="11.5162907"><ele>168.5</ele><time>2026-03-28T11:47:18.205Z</time></trkpt><trkpt lat="43.216478" lon="11.5164354"><ele>168.75</ele><time>2026-03-28T11:47:19.205Z</time></trkpt><trkpt lat="43.216552" lon="11.5165752"><ele>169.0</ele><time>2026-03-28T11:47:20.205Z</time></trkpt><trkpt lat="43.2166174" lon="11.5167094"><ele>169.0</ele><time>2026-03-28T11:47:21.205Z</time></trkpt><trkpt lat="43.2166818" lon="11.5168397"><ele>169.0</ele><time>2026-03-28T11:47:22.206Z</time></trkpt><trkpt lat="43.2167447" lon="11.5169694"><ele>169.0</ele><time>2026-03-28T11:47:23.206Z</time></trkpt><trkpt lat="43.216801" lon="11.5171032"><ele>169.0</ele><time>2026-03-28T11:47:24.206Z</time></trkpt><trkpt lat="43.2168564" lon="11.5172331"><ele>169.25</ele><time>2026-03-28T11:47:25.206Z</time></trkpt><trkpt lat="43.2169095" lon="11.5173619"><ele>169.5</ele><time>2026-03-28T11:47:26.206Z</time></trkpt><trkpt lat="43.2169679" lon="11.5175006"><ele>169.75</ele><time>2026-03-28T11:47:27.206Z</time></trkpt><trkpt lat="43.2170298" lon="11.5176548"><ele>170.0</ele><time>2026-03-28T11:47:28.205Z</time></trkpt><trkpt lat="43.2170947" lon="11.5178237"><ele>169.75</ele><time>2026-03-28T11:47:29.205Z</time></trkpt><trkpt lat="43.2171554" lon="11.5179843"><ele>169.5</ele><time>2026-03-28T11:47:30.205Z</time></trkpt><trkpt lat="43.2172108" lon="11.5181238"><ele>169.25</ele><time>2026-03-28T11:47:31.205Z</time></trkpt><trkpt lat="43.2172653" lon="11.5182636"><ele>169.0</ele><time>2026-03-28T11:47:32.206Z</time></trkpt><trkpt lat="43.2173197" lon="11.5184149"><ele>170.25</ele><time>2026-03-28T11:47:33.205Z</time></trkpt><trkpt lat="43.2173699" lon="11.5185721"><ele>171.5</ele><time>2026-03-28T11:47:34.205Z</time></trkpt><trkpt lat="43.2174144" lon="11.5187296"><ele>172.75</ele><time>2026-03-28T11:47:35.205Z</time></trkpt><trkpt lat="43.217451" lon="11.5189007"><ele>174.0</ele><time>2026-03-28T11:47:36.205Z</time></trkpt><trkpt lat="43.2174721" lon="11.5190759"><ele>174.0</ele><time>2026-03-28T11:47:37.206Z</time></trkpt><trkpt lat="43.2174715" lon="11.5192552"><ele>174.0</ele><time>2026-03-28T11:47:38.206Z</time></trkpt><trkpt lat="43.2174602" lon="11.5194396"><ele>174.0</ele><time>2026-03-28T11:47:39.205Z</time></trkpt><trkpt lat="43.2174488" lon="11.5196275"><ele>174.0</ele><time>2026-03-28T11:47:40.205Z</time></trkpt><trkpt lat="43.2174417" lon="11.5198022"><ele>175.5</ele><time>2026-03-28T11:47:41.205Z</time></trkpt><trkpt lat="43.217434" lon="11.5199789"><ele>177.0</ele><time>2026-03-28T11:47:42.205Z</time></trkpt><trkpt lat="43.2174243" lon="11.5201639"><ele>178.5</ele><time>2026-03-28T11:47:43.205Z</time></trkpt><trkpt lat="43.2174137" lon="11.520357"><ele>180.0</ele><time>2026-03-28T11:47:44.205Z</time></trkpt><trkpt lat="43.2174059" lon="11.5205434"><ele>181.0</ele><time>2026-03-28T11:47:45.205Z</time></trkpt><trkpt lat="43.2174093" lon="11.5206891"><ele>182.0</ele><time>2026-03-28T11:47:46.205Z</time></trkpt><trkpt lat="43.2174268" lon="11.5208219"><ele>183.0</ele><time>2026-03-28T11:47:47.205Z</time></trkpt><trkpt lat="43.2174558" lon="11.5209504"><ele>184.0</ele><time>2026-03-28T11:47:48.205Z</time></trkpt><trkpt lat="43.2175036" lon="11.5210739"><ele>185.0</ele><time>2026-03-28T11:47:49.206Z</time></trkpt><trkpt lat="43.2175572" lon="11.521192"><ele>183.5</ele><time>2026-03-28T11:47:50.205Z</time></trkpt><trkpt lat="43.2176337" lon="11.5212986"><ele>182.0</ele><time>2026-03-28T11:47:51.205Z</time></trkpt><trkpt lat="43.2177275" lon="11.5213937"><ele>180.5</ele><time>2026-03-28T11:47:52.206Z</time></trkpt><trkpt lat="43.2178304" lon="11.5214615"><ele>179.0</ele><time>2026-03-28T11:47:53.205Z</time></trkpt><trkpt lat="43.217933" lon="11.5215157"><ele>179.0</ele><time>2026-03-28T11:47:54.205Z</time></trkpt><trkpt lat="43.2180249" lon="11.5215838"><ele>179.0</ele><time>2026-03-28T11:47:55.206Z</time></trkpt><trkpt lat="43.2181063" lon="11.5216757"><ele>179.0</ele><time>2026-03-28T11:47:56.205Z</time></trkpt><trkpt lat="43.2181519" lon="11.5217849"><ele>179.0</ele><time>2026-03-28T11:47:57.205Z</time></trkpt><trkpt lat="43.2181735" lon="11.5219157"><ele>179.0</ele><time>2026-03-28T11:47:58.206Z</time></trkpt><trkpt lat="43.218181" lon="11.5220649"><ele>179.25</ele><time>2026-03-28T11:47:59.205Z</time></trkpt><trkpt lat="43.2182043" lon="11.5222216"><ele>179.5</ele><time>2026-03-28T11:48:00.206Z</time></trkpt><trkpt lat="43.2182432" lon="11.5223812"><ele>179.75</ele><time>2026-03-28T11:48:01.205Z</time></trkpt><trkpt lat="43.2182903" lon="11.5225458"><ele>180.0</ele><time>2026-03-28T11:48:02.206Z</time></trkpt><trkpt lat="43.21834" lon="11.5227095"><ele>180.0</ele><time>2026-03-28T11:48:03.205Z</time></trkpt><trkpt lat="43.2183892" lon="11.522869"><ele>180.0</ele><time>2026-03-28T11:48:04.205Z</time></trkpt><trkpt lat="43.2184413" lon="11.523027"><ele>180.0</ele><time>2026-03-28T11:48:05.205Z</time></trkpt><trkpt lat="43.2185033" lon="11.5231787"><ele>180.0</ele><time>2026-03-28T11:48:06.205Z</time></trkpt><trkpt lat="43.2185782" lon="11.523327"><ele>178.0</ele><time>2026-03-28T11:48:07.206Z</time></trkpt><trkpt lat="43.2186613" lon="11.5234814"><ele>176.0</ele><time>2026-03-28T11:48:08.205Z</time></trkpt><trkpt lat="43.2187431" lon="11.5236363"><ele>174.0</ele><time>2026-03-28T11:48:09.206Z</time></trkpt><trkpt lat="43.2188286" lon="11.5237885"><ele>172.0</ele><time>2026-03-28T11:48:10.206Z</time></trkpt><trkpt lat="43.2189179" lon="11.5239389"><ele>172.0</ele><time>2026-03-28T11:48:11.205Z</time></trkpt><trkpt lat="43.2190034" lon="11.5240883"><ele>172.0</ele><time>2026-03-28T11:48:12.206Z</time></trkpt><trkpt lat="43.2190906" lon="11.5242447"><ele>172.0</ele><time>2026-03-28T11:48:13.206Z</time></trkpt><trkpt lat="43.219183" lon="11.5244011"><ele>172.0</ele><time>2026-03-28T11:48:14.205Z</time></trkpt><trkpt lat="43.2192775" lon="11.5245602"><ele>170.75</ele><time>2026-03-28T11:48:15.206Z</time></trkpt><trkpt lat="43.219369" lon="11.5247072"><ele>169.5</ele><time>2026-03-28T11:48:16.206Z</time></trkpt><trkpt lat="43.2194635" lon="11.5248272"><ele>168.25</ele><time>2026-03-28T11:48:17.206Z</time></trkpt><trkpt lat="43.2195592" lon="11.5249185"><ele>167.0</ele><time>2026-03-28T11:48:18.204Z</time></trkpt><trkpt lat="43.2196608" lon="11.5249867"><ele>167.0</ele><time>2026-03-28T11:48:19.205Z</time></trkpt><trkpt lat="43.2197647" lon="11.5250189"><ele>167.0</ele><time>2026-03-28T11:48:20.205Z</time></trkpt><trkpt lat="43.2198657" lon="11.5250217"><ele>167.0</ele><time>2026-03-28T11:48:21.206Z</time></trkpt><trkpt lat="43.2199698" lon="11.524997"><ele>167.0</ele><time>2026-03-28T11:48:22.205Z</time></trkpt><trkpt lat="43.2200791" lon="11.5249599"><ele>167.0</ele><time>2026-03-28T11:48:23.205Z</time></trkpt><trkpt lat="43.2201908" lon="11.5249153"><ele>168.2</ele><time>2026-03-28T11:48:24.205Z</time></trkpt><trkpt lat="43.2202929" lon="11.5248775"><ele>169.39999999999998</ele><time>2026-03-28T11:48:25.204Z</time></trkpt><trkpt lat="43.2203934" lon="11.5248671"><ele>170.60000000000002</ele><time>2026-03-28T11:48:26.205Z</time></trkpt><trkpt lat="43.2204994" lon="11.5248892"><ele>171.8</ele><time>2026-03-28T11:48:27.205Z</time></trkpt><trkpt lat="43.2206049" lon="11.5249465"><ele>173.0</ele><time>2026-03-28T11:48:28.205Z</time></trkpt><trkpt lat="43.2207096" lon="11.5250304"><ele>174.25</ele><time>2026-03-28T11:48:29.205Z</time></trkpt><trkpt lat="43.2208109" lon="11.525114"><ele>175.5</ele><time>2026-03-28T11:48:30.205Z</time></trkpt><trkpt lat="43.2209196" lon="11.5251864"><ele>176.75</ele><time>2026-03-28T11:48:31.205Z</time></trkpt><trkpt lat="43.2210389" lon="11.5252408"><ele>178.0</ele><time>2026-03-28T11:48:32.205Z</time></trkpt><trkpt lat="43.2211646" lon="11.5252749"><ele>178.0</ele><time>2026-03-28T11:48:33.205Z</time></trkpt><trkpt lat="43.2212964" lon="11.525305"><ele>178.0</ele><time>2026-03-28T11:48:34.205Z</time></trkpt><trkpt lat="43.2214216" lon="11.5253255"><ele>178.0</ele><time>2026-03-28T11:48:35.204Z</time></trkpt><trkpt lat="43.2215536" lon="11.5253483"><ele>178.0</ele><time>2026-03-28T11:48:36.205Z</time></trkpt><trkpt lat="43.2216875" lon="11.5253752"><ele>176.25</ele><time>2026-03-28T11:48:37.206Z</time></trkpt><trkpt lat="43.2218232" lon="11.5253985"><ele>174.5</ele><time>2026-03-28T11:48:38.206Z</time></trkpt><trkpt lat="43.2219627" lon="11.5254211"><ele>172.75</ele><time>2026-03-28T11:48:39.205Z</time></trkpt><trkpt lat="43.222089" lon="11.5254359"><ele>171.0</ele><time>2026-03-28T11:48:40.205Z</time></trkpt><trkpt lat="43.2222126" lon="11.5254541"><ele>170.5</ele><time>2026-03-28T11:48:41.205Z</time></trkpt><trkpt lat="43.2223248" lon="11.5254758"><ele>170.0</ele><time>2026-03-28T11:48:42.205Z</time></trkpt><trkpt lat="43.2224467" lon="11.5254859"><ele>169.5</ele><time>2026-03-28T11:48:43.205Z</time></trkpt><trkpt lat="43.2225668" lon="11.5254862"><ele>169.0</ele><time>2026-03-28T11:48:44.206Z</time></trkpt><trkpt lat="43.2226757" lon="11.5255066"><ele>169.0</ele><time>2026-03-28T11:48:45.205Z</time></trkpt><trkpt lat="43.2227748" lon="11.5255645"><ele>169.0</ele><time>2026-03-28T11:48:46.205Z</time></trkpt><trkpt lat="43.2228697" lon="11.5256501"><ele>169.0</ele><time>2026-03-28T11:48:47.205Z</time></trkpt><trkpt lat="43.2229638" lon="11.525753"><ele>169.0</ele><time>2026-03-28T11:48:48.206Z</time></trkpt><trkpt lat="43.2230641" lon="11.5258488"><ele>170.39999999999998</ele><time>2026-03-28T11:48:49.204Z</time></trkpt><trkpt lat="43.2231624" lon="11.5259103"><ele>171.8</ele><time>2026-03-28T11:48:50.205Z</time></trkpt><trkpt lat="43.2232585" lon="11.5259558"><ele>173.2</ele><time>2026-03-28T11:48:51.206Z</time></trkpt><trkpt lat="43.223355" lon="11.5259773"><ele>174.60000000000002</ele><time>2026-03-28T11:48:52.206Z</time></trkpt><trkpt lat="43.2234626" lon="11.5259839"><ele>176.0</ele><time>2026-03-28T11:48:53.206Z</time></trkpt><trkpt lat="43.2235735" lon="11.5259875"><ele>176.0</ele><time>2026-03-28T11:48:54.205Z</time></trkpt><trkpt lat="43.2236955" lon="11.5259855"><ele>176.0</ele><time>2026-03-28T11:48:55.205Z</time></trkpt><trkpt lat="43.2238226" lon="11.5259787"><ele>176.0</ele><time>2026-03-28T11:48:56.205Z</time></trkpt><trkpt lat="43.2239542" lon="11.5259673"><ele>176.0</ele><time>2026-03-28T11:48:57.206Z</time></trkpt><trkpt lat="43.2240887" lon="11.525949"><ele>176.25</ele><time>2026-03-28T11:48:58.205Z</time></trkpt><trkpt lat="43.2242147" lon="11.5259321"><ele>176.5</ele><time>2026-03-28T11:48:59.205Z</time></trkpt><trkpt lat="43.2243453" lon="11.5259335"><ele>176.75</ele><time>2026-03-28T11:49:00.206Z</time></trkpt><trkpt lat="43.224478" lon="11.5259549"><ele>177.0</ele><time>2026-03-28T11:49:01.204Z</time></trkpt><trkpt lat="43.224611" lon="11.5259885"><ele>177.0</ele><time>2026-03-28T11:49:02.205Z</time></trkpt><trkpt lat="43.2247426" lon="11.5260253"><ele>177.0</ele><time>2026-03-28T11:49:03.205Z</time></trkpt><trkpt lat="43.224874" lon="11.5260643"><ele>177.0</ele><time>2026-03-28T11:49:04.205Z</time></trkpt><trkpt lat="43.2250084" lon="11.5261037"><ele>177.0</ele><time>2026-03-28T11:49:05.205Z</time></trkpt><trkpt lat="43.2251427" lon="11.5261361"><ele>176.5</ele><time>2026-03-28T11:49:06.206Z</time></trkpt><trkpt lat="43.2252767" lon="11.5261698"><ele>176.0</ele><time>2026-03-28T11:49:07.204Z</time></trkpt><trkpt lat="43.2254107" lon="11.5262104"><ele>175.5</ele><time>2026-03-28T11:49:08.206Z</time></trkpt><trkpt lat="43.2255473" lon="11.5262552"><ele>175.0</ele><time>2026-03-28T11:49:09.205Z</time></trkpt><trkpt lat="43.2256806" lon="11.526299"><ele>175.0</ele><time>2026-03-28T11:49:10.205Z</time></trkpt><trkpt lat="43.2258073" lon="11.5263482"><ele>175.0</ele><time>2026-03-28T11:49:11.205Z</time></trkpt><trkpt lat="43.2259246" lon="11.5263885"><ele>175.0</ele><time>2026-03-28T11:49:12.205Z</time></trkpt><trkpt lat="43.2260461" lon="11.5264088"><ele>175.0</ele><time>2026-03-28T11:49:13.205Z</time></trkpt><trkpt lat="43.2261692" lon="11.5264202"><ele>175.0</ele><time>2026-03-28T11:49:14.206Z</time></trkpt><trkpt lat="43.2262939" lon="11.5264153"><ele>175.0</ele><time>2026-03-28T11:49:15.206Z</time></trkpt><trkpt lat="43.2264215" lon="11.5264081"><ele>175.0</ele><time>2026-03-28T11:49:16.205Z</time></trkpt><trkpt lat="43.2265525" lon="11.5263982"><ele>175.0</ele><time>2026-03-28T11:49:17.205Z</time></trkpt><trkpt lat="43.2266824" lon="11.5263908"><ele>175.5</ele><time>2026-03-28T11:49:18.205Z</time></trkpt><trkpt lat="43.2268133" lon="11.5263877"><ele>176.0</ele><time>2026-03-28T11:49:19.205Z</time></trkpt><trkpt lat="43.226931" lon="11.5263865"><ele>176.5</ele><time>2026-03-28T11:49:20.205Z</time></trkpt><trkpt lat="43.2270453" lon="11.5263927"><ele>177.0</ele><time>2026-03-28T11:49:21.206Z</time></trkpt><trkpt lat="43.2271484" lon="11.5264178"><ele>177.0</ele><time>2026-03-28T11:49:22.206Z</time></trkpt><trkpt lat="43.227244" lon="11.5264578"><ele>177.0</ele><time>2026-03-28T11:49:23.206Z</time></trkpt><trkpt lat="43.2273385" lon="11.5265267"><ele>177.0</ele><time>2026-03-28T11:49:24.205Z</time></trkpt><trkpt lat="43.2274308" lon="11.5266179"><ele>177.0</ele><time>2026-03-28T11:49:25.205Z</time></trkpt><trkpt lat="43.2275256" lon="11.5267144"><ele>177.0</ele><time>2026-03-28T11:49:26.206Z</time></trkpt><trkpt lat="43.227619" lon="11.5268077"><ele>176.0</ele><time>2026-03-28T11:49:27.206Z</time></trkpt><trkpt lat="43.227715" lon="11.5269063"><ele>175.0</ele><time>2026-03-28T11:49:28.206Z</time></trkpt><trkpt lat="43.2278136" lon="11.5270106"><ele>174.0</ele><time>2026-03-28T11:49:29.206Z</time></trkpt><trkpt lat="43.2279191" lon="11.527107"><ele>173.0</ele><time>2026-03-28T11:49:30.206Z</time></trkpt><trkpt lat="43.2280398" lon="11.5271957"><ele>171.75</ele><time>2026-03-28T11:49:31.205Z</time></trkpt><trkpt lat="43.2281696" lon="11.5272659"><ele>170.5</ele><time>2026-03-28T11:49:32.206Z</time></trkpt><trkpt lat="43.2283043" lon="11.5273277"><ele>169.25</ele><time>2026-03-28T11:49:33.205Z</time></trkpt><trkpt lat="43.2284414" lon="11.5273947"><ele>168.0</ele><time>2026-03-28T11:49:34.205Z</time></trkpt><trkpt lat="43.2285753" lon="11.5274605"><ele>168.0</ele><time>2026-03-28T11:49:35.206Z</time></trkpt><trkpt lat="43.2286908" lon="11.527534"><ele>168.0</ele><time>2026-03-28T11:49:36.206Z</time></trkpt><trkpt lat="43.2287979" lon="11.5276377"><ele>168.0</ele><time>2026-03-28T11:49:37.206Z</time></trkpt><trkpt lat="43.2288988" lon="11.5277481"><ele>168.0</ele><time>2026-03-28T11:49:38.205Z</time></trkpt><trkpt lat="43.228999" lon="11.5278593"><ele>169.5</ele><time>2026-03-28T11:49:39.206Z</time></trkpt><trkpt lat="43.229103" lon="11.5279763"><ele>171.0</ele><time>2026-03-28T11:49:40.205Z</time></trkpt><trkpt lat="43.2292078" lon="11.5281028"><ele>172.5</ele><time>2026-03-28T11:49:41.206Z</time></trkpt><trkpt lat="43.2293163" lon="11.5282355"><ele>174.0</ele><time>2026-03-28T11:49:42.205Z</time></trkpt><trkpt lat="43.2294155" lon="11.5283528"><ele>174.0</ele><time>2026-03-28T11:49:43.205Z</time></trkpt><trkpt lat="43.2295025" lon="11.5284499"><ele>174.0</ele><time>2026-03-28T11:49:44.205Z</time></trkpt><trkpt lat="43.2295766" lon="11.5285341"><ele>174.0</ele><time>2026-03-28T11:49:45.206Z</time></trkpt><trkpt lat="43.2296448" lon="11.52861"><ele>174.0</ele><time>2026-03-28T11:49:46.205Z</time></trkpt><trkpt lat="43.2297051" lon="11.5286693"><ele>174.0</ele><time>2026-03-28T11:49:47.205Z</time></trkpt><trkpt lat="43.229792" lon="11.5287407"><ele>174.39999999999998</ele><time>2026-03-28T11:49:49.206Z</time></trkpt><trkpt lat="43.2298466" lon="11.5287866"><ele>174.8</ele><time>2026-03-28T11:50:29.205Z</time></trkpt><trkpt lat="43.2299541" lon="11.528859"><ele>175.2</ele><time>2026-03-28T11:51:01.205Z</time></trkpt><trkpt lat="43.2300151" lon="11.5289252"><ele>175.60000000000002</ele><time>2026-03-28T11:51:02.205Z</time></trkpt><trkpt lat="43.2300845" lon="11.5290173"><ele>176.0</ele><time>2026-03-28T11:51:03.204Z</time></trkpt><trkpt lat="43.2301566" lon="11.5291195"><ele>176.0</ele><time>2026-03-28T11:51:04.204Z</time></trkpt><trkpt lat="43.2302334" lon="11.5292232"><ele>176.0</ele><time>2026-03-28T11:51:05.206Z</time></trkpt><trkpt lat="43.2303091" lon="11.5293278"><ele>176.0</ele><time>2026-03-28T11:51:06.205Z</time></trkpt><trkpt lat="43.2303883" lon="11.5294336"><ele>176.0</ele><time>2026-03-28T11:51:07.205Z</time></trkpt><trkpt lat="43.2304678" lon="11.5295449"><ele>176.0</ele><time>2026-03-28T11:51:08.205Z</time></trkpt><trkpt lat="43.2305568" lon="11.5296655"><ele>175.0</ele><time>2026-03-28T11:51:09.205Z</time></trkpt><trkpt lat="43.2306469" lon="11.5297902"><ele>174.0</ele><time>2026-03-28T11:51:10.205Z</time></trkpt><trkpt lat="43.2307388" lon="11.5299173"><ele>173.0</ele><time>2026-03-28T11:51:11.205Z</time></trkpt><trkpt lat="43.2308323" lon="11.5300461"><ele>172.0</ele><time>2026-03-28T11:51:12.205Z</time></trkpt><trkpt lat="43.2309314" lon="11.5301768"><ele>172.0</ele><time>2026-03-28T11:51:13.204Z</time></trkpt><trkpt lat="43.2310295" lon="11.5303065"><ele>172.0</ele><time>2026-03-28T11:51:14.205Z</time></trkpt><trkpt lat="43.2311226" lon="11.5304389"><ele>172.0</ele><time>2026-03-28T11:51:15.205Z</time></trkpt><trkpt lat="43.231209" lon="11.530574"><ele>172.0</ele><time>2026-03-28T11:51:16.206Z</time></trkpt><trkpt lat="43.231283" lon="11.5307216"><ele>171.5</ele><time>2026-03-28T11:51:17.205Z</time></trkpt><trkpt lat="43.2313481" lon="11.5308748"><ele>171.0</ele><time>2026-03-28T11:51:18.205Z</time></trkpt><trkpt lat="43.2314007" lon="11.5310433"><ele>170.5</ele><time>2026-03-28T11:51:19.205Z</time></trkpt><trkpt lat="43.2314419" lon="11.5312226"><ele>170.0</ele><time>2026-03-28T11:51:20.205Z</time></trkpt><trkpt lat="43.2314841" lon="11.5314141"><ele>170.0</ele><time>2026-03-28T11:51:21.205Z</time></trkpt><trkpt lat="43.231529" lon="11.5316135"><ele>170.0</ele><time>2026-03-28T11:51:22.205Z</time></trkpt><trkpt lat="43.2315734" lon="11.5318178"><ele>170.0</ele><time>2026-03-28T11:51:23.205Z</time></trkpt><trkpt lat="43.2316165" lon="11.5320231"><ele>170.0</ele><time>2026-03-28T11:51:24.206Z</time></trkpt><trkpt lat="43.2316585" lon="11.5322324"><ele>170.0</ele><time>2026-03-28T11:51:25.205Z</time></trkpt><trkpt lat="43.2316966" lon="11.5324325"><ele>170.0</ele><time>2026-03-28T11:51:26.205Z</time></trkpt><trkpt lat="43.2317302" lon="11.5326289"><ele>170.0</ele><time>2026-03-28T11:51:27.206Z</time></trkpt><trkpt lat="43.2317708" lon="11.5328307"><ele>170.0</ele><time>2026-03-28T11:51:28.206Z</time></trkpt><trkpt lat="43.231816" lon="11.5330486"><ele>170.0</ele><time>2026-03-28T11:51:29.206Z</time></trkpt><trkpt lat="43.2318604" lon="11.533263"><ele>170.0</ele><time>2026-03-28T11:51:30.206Z</time></trkpt><trkpt lat="43.2318983" lon="11.5334579"><ele>170.0</ele><time>2026-03-28T11:51:31.205Z</time></trkpt><trkpt lat="43.2319391" lon="11.5336388"><ele>170.0</ele><time>2026-03-28T11:51:32.205Z</time></trkpt><trkpt lat="43.2319826" lon="11.5338165"><ele>170.0</ele><time>2026-03-28T11:51:33.205Z</time></trkpt><trkpt lat="43.2320396" lon="11.5339865"><ele>169.5</ele><time>2026-03-28T11:51:34.205Z</time></trkpt><trkpt lat="43.2321196" lon="11.5341443"><ele>169.0</ele><time>2026-03-28T11:51:35.206Z</time></trkpt><trkpt lat="43.2322238" lon="11.5342922"><ele>168.5</ele><time>2026-03-28T11:51:36.205Z</time></trkpt><trkpt lat="43.2323499" lon="11.534422"><ele>168.0</ele><time>2026-03-28T11:51:37.204Z</time></trkpt><trkpt lat="43.2324932" lon="11.5345366"><ele>168.66666666666666</ele><time>2026-03-28T11:51:38.206Z</time></trkpt><trkpt lat="43.2326436" lon="11.5346476"><ele>169.33333333333331</ele><time>2026-03-28T11:51:39.205Z</time></trkpt><trkpt lat="43.232782" lon="11.5347543"><ele>170.0</ele><time>2026-03-28T11:51:40.206Z</time></trkpt><trkpt lat="43.2329082" lon="11.5348578"><ele>170.0</ele><time>2026-03-28T11:51:41.205Z</time></trkpt><trkpt lat="43.2330276" lon="11.5349527"><ele>170.0</ele><time>2026-03-28T11:51:42.206Z</time></trkpt><trkpt lat="43.2331582" lon="11.5350477"><ele>170.0</ele><time>2026-03-28T11:51:43.206Z</time></trkpt><trkpt lat="43.2332954" lon="11.5351502"><ele>170.0</ele><time>2026-03-28T11:51:44.205Z</time></trkpt><trkpt lat="43.2334373" lon="11.5352702"><ele>169.66666666666666</ele><time>2026-03-28T11:51:45.206Z</time></trkpt><trkpt lat="43.2335751" lon="11.5354168"><ele>169.33333333333334</ele><time>2026-03-28T11:51:46.206Z</time></trkpt><trkpt lat="43.2337019" lon="11.5355999"><ele>169.0</ele><time>2026-03-28T11:51:47.206Z</time></trkpt><trkpt lat="43.2338127" lon="11.5358074"><ele>169.0</ele><time>2026-03-28T11:51:48.205Z</time></trkpt><trkpt lat="43.2339148" lon="11.5360074"><ele>169.0</ele><time>2026-03-28T11:51:49.205Z</time></trkpt><trkpt lat="43.2340171" lon="11.5361945"><ele>169.0</ele><time>2026-03-28T11:51:50.205Z</time></trkpt><trkpt lat="43.2341105" lon="11.5363863"><ele>170.0</ele><time>2026-03-28T11:51:51.205Z</time></trkpt><trkpt lat="43.2342044" lon="11.5365531"><ele>171.0</ele><time>2026-03-28T11:51:52.205Z</time></trkpt><trkpt lat="43.2342966" lon="11.5367127"><ele>172.0</ele><time>2026-03-28T11:51:53.205Z</time></trkpt><trkpt lat="43.2343825" lon="11.5368823"><ele>172.0</ele><time>2026-03-28T11:51:54.204Z</time></trkpt><trkpt lat="43.2344712" lon="11.5370515"><ele>172.0</ele><time>2026-03-28T11:51:55.204Z</time></trkpt><trkpt lat="43.2345642" lon="11.5372199"><ele>172.0</ele><time>2026-03-28T11:51:56.206Z</time></trkpt><trkpt lat="43.2346572" lon="11.537391"><ele>172.0</ele><time>2026-03-28T11:51:57.205Z</time></trkpt><trkpt lat="43.234747" lon="11.5375661"><ele>172.0</ele><time>2026-03-28T11:51:58.205Z</time></trkpt><trkpt lat="43.2348419" lon="11.5377469"><ele>172.0</ele><time>2026-03-28T11:51:59.204Z</time></trkpt><trkpt lat="43.2349414" lon="11.5379295"><ele>172.66666666666669</ele><time>2026-03-28T11:52:00.205Z</time></trkpt><trkpt lat="43.2350439" lon="11.5381152"><ele>173.33333333333334</ele><time>2026-03-28T11:52:01.205Z</time></trkpt><trkpt lat="43.2351481" lon="11.5383066"><ele>174.0</ele><time>2026-03-28T11:52:02.206Z</time></trkpt><trkpt lat="43.2352537" lon="11.5385025"><ele>174.0</ele><time>2026-03-28T11:52:03.206Z</time></trkpt><trkpt lat="43.2353523" lon="11.5386859"><ele>174.0</ele><time>2026-03-28T11:52:04.205Z</time></trkpt><trkpt lat="43.2354388" lon="11.5388489"><ele>174.0</ele><time>2026-03-28T11:52:05.205Z</time></trkpt><trkpt lat="43.2355193" lon="11.5389976"><ele>174.0</ele><time>2026-03-28T11:52:06.205Z</time></trkpt><trkpt lat="43.2355972" lon="11.5391373"><ele>174.25</ele><time>2026-03-28T11:52:07.205Z</time></trkpt><trkpt lat="43.2356738" lon="11.5392828"><ele>174.5</ele><time>2026-03-28T11:52:08.206Z</time></trkpt><trkpt lat="43.2357506" lon="11.5394331"><ele>174.75</ele><time>2026-03-28T11:52:09.205Z</time></trkpt><trkpt lat="43.2358279" lon="11.5395896"><ele>175.0</ele><time>2026-03-28T11:52:10.205Z</time></trkpt><trkpt lat="43.2358836" lon="11.5397736"><ele>175.0</ele><time>2026-03-28T11:52:11.205Z</time></trkpt><trkpt lat="43.2359006" lon="11.5399827"><ele>175.0</ele><time>2026-03-28T11:52:12.205Z</time></trkpt><trkpt lat="43.2358925" lon="11.5401951"><ele>175.0</ele><time>2026-03-28T11:52:13.205Z</time></trkpt><trkpt lat="43.2358822" lon="11.540412"><ele>175.0</ele><time>2026-03-28T11:52:14.206Z</time></trkpt><trkpt lat="43.235876" lon="11.5406327"><ele>175.0</ele><time>2026-03-28T11:52:15.206Z</time></trkpt><trkpt lat="43.2358697" lon="11.5408547"><ele>175.0</ele><time>2026-03-28T11:52:16.206Z</time></trkpt><trkpt lat="43.2358622" lon="11.5410832"><ele>176.33333333333334</ele><time>2026-03-28T11:52:17.206Z</time></trkpt><trkpt lat="43.2358517" lon="11.5413082"><ele>177.66666666666666</ele><time>2026-03-28T11:52:18.206Z</time></trkpt><trkpt lat="43.2358379" lon="11.5415541"><ele>179.0</ele><time>2026-03-28T11:52:19.205Z</time></trkpt><trkpt lat="43.2358252" lon="11.5418102"><ele>179.0</ele><time>2026-03-28T11:52:20.205Z</time></trkpt><trkpt lat="43.2358136" lon="11.5420773"><ele>179.0</ele><time>2026-03-28T11:52:21.205Z</time></trkpt><trkpt lat="43.235804" lon="11.5423387"><ele>179.0</ele><time>2026-03-28T11:52:22.206Z</time></trkpt><trkpt lat="43.235795" lon="11.5425783"><ele>179.0</ele><time>2026-03-28T11:52:23.206Z</time></trkpt><trkpt lat="43.2357856" lon="11.5428161"><ele>179.0</ele><time>2026-03-28T11:52:24.205Z</time></trkpt><trkpt lat="43.2357745" lon="11.5430543"><ele>179.0</ele><time>2026-03-28T11:52:25.205Z</time></trkpt><trkpt lat="43.2357674" lon="11.5432846"><ele>178.66666666666666</ele><time>2026-03-28T11:52:26.205Z</time></trkpt><trkpt lat="43.2357623" lon="11.5435106"><ele>178.33333333333334</ele><time>2026-03-28T11:52:27.204Z</time></trkpt><trkpt lat="43.2357522" lon="11.5437404"><ele>178.0</ele><time>2026-03-28T11:52:28.206Z</time></trkpt><trkpt lat="43.2357412" lon="11.5439766"><ele>177.66666666666669</ele><time>2026-03-28T11:52:29.206Z</time></trkpt><trkpt lat="43.2357351" lon="11.5442135"><ele>177.33333333333334</ele><time>2026-03-28T11:52:30.205Z</time></trkpt><trkpt lat="43.2357272" lon="11.5444475"><ele>177.0</ele><time>2026-03-28T11:52:31.205Z</time></trkpt><trkpt lat="43.2357204" lon="11.5446908"><ele>176.66666666666666</ele><time>2026-03-28T11:52:32.205Z</time></trkpt><trkpt lat="43.235732" lon="11.5449324"><ele>176.33333333333331</ele><time>2026-03-28T11:52:33.204Z</time></trkpt><trkpt lat="43.2357639" lon="11.5451612"><ele>176.0</ele><time>2026-03-28T11:52:34.206Z</time></trkpt><trkpt lat="43.2358146" lon="11.5453895"><ele>176.0</ele><time>2026-03-28T11:52:35.205Z</time></trkpt><trkpt lat="43.2358811" lon="11.5455991"><ele>176.0</ele><time>2026-03-28T11:52:36.205Z</time></trkpt><trkpt lat="43.2359604" lon="11.5458154"><ele>176.0</ele><time>2026-03-28T11:52:37.206Z</time></trkpt><trkpt lat="43.2360413" lon="11.5460279"><ele>175.0</ele><time>2026-03-28T11:52:38.205Z</time></trkpt><trkpt lat="43.2361307" lon="11.546222"><ele>174.0</ele><time>2026-03-28T11:52:39.205Z</time></trkpt><trkpt lat="43.2362347" lon="11.5464117"><ele>173.0</ele><time>2026-03-28T11:52:40.205Z</time></trkpt><trkpt lat="43.2363474" lon="11.5465974"><ele>173.0</ele><time>2026-03-28T11:52:41.206Z</time></trkpt><trkpt lat="43.2364643" lon="11.546777"><ele>173.0</ele><time>2026-03-28T11:52:42.206Z</time></trkpt><trkpt lat="43.2365818" lon="11.5469486"><ele>173.0</ele><time>2026-03-28T11:52:43.205Z</time></trkpt><trkpt lat="43.2367052" lon="11.5471186"><ele>173.33333333333331</ele><time>2026-03-28T11:52:44.205Z</time></trkpt><trkpt lat="43.2368322" lon="11.5472819"><ele>173.66666666666666</ele><time>2026-03-28T11:52:45.205Z</time></trkpt><trkpt lat="43.2369641" lon="11.5474371"><ele>174.0</ele><time>2026-03-28T11:52:46.206Z</time></trkpt><trkpt lat="43.2370976" lon="11.547591"><ele>174.0</ele><time>2026-03-28T11:52:47.205Z</time></trkpt><trkpt lat="43.2372331" lon="11.5477458"><ele>174.0</ele><time>2026-03-28T11:52:48.204Z</time></trkpt><trkpt lat="43.2373683" lon="11.5479003"><ele>174.0</ele><time>2026-03-28T11:52:49.206Z</time></trkpt><trkpt lat="43.2375041" lon="11.5480524"><ele>174.66666666666666</ele><time>2026-03-28T11:52:50.205Z</time></trkpt><trkpt lat="43.2376385" lon="11.5482031"><ele>175.33333333333331</ele><time>2026-03-28T11:52:51.205Z</time></trkpt><trkpt lat="43.2377734" lon="11.5483463"><ele>176.0</ele><time>2026-03-28T11:52:52.205Z</time></trkpt><trkpt lat="43.2379073" lon="11.5484859"><ele>176.0</ele><time>2026-03-28T11:52:53.206Z</time></trkpt><trkpt lat="43.238043" lon="11.5486165"><ele>176.0</ele><time>2026-03-28T11:52:54.206Z</time></trkpt><trkpt lat="43.2381808" lon="11.5487418"><ele>176.0</ele><time>2026-03-28T11:52:55.204Z</time></trkpt><trkpt lat="43.2383217" lon="11.5488683"><ele>176.0</ele><time>2026-03-28T11:52:56.205Z</time></trkpt><trkpt lat="43.2384641" lon="11.5489968"><ele>176.0</ele><time>2026-03-28T11:52:57.205Z</time></trkpt><trkpt lat="43.2386101" lon="11.5491149"><ele>176.0</ele><time>2026-03-28T11:52:58.204Z</time></trkpt><trkpt lat="43.2387631" lon="11.5492273"><ele>176.0</ele><time>2026-03-28T11:52:59.204Z</time></trkpt><trkpt lat="43.2389194" lon="11.5493421"><ele>176.0</ele><time>2026-03-28T11:53:00.204Z</time></trkpt><trkpt lat="43.239076" lon="11.5494612"><ele>176.0</ele><time>2026-03-28T11:53:01.204Z</time></trkpt><trkpt lat="43.2392267" lon="11.54959"><ele>175.66666666666666</ele><time>2026-03-28T11:53:02.204Z</time></trkpt><trkpt lat="43.2393693" lon="11.5497348"><ele>175.33333333333334</ele><time>2026-03-28T11:53:03.204Z</time></trkpt><trkpt lat="43.2395025" lon="11.5498957"><ele>175.0</ele><time>2026-03-28T11:53:04.205Z</time></trkpt><trkpt lat="43.2396298" lon="11.5500623"><ele>175.0</ele><time>2026-03-28T11:53:05.204Z</time></trkpt><trkpt lat="43.239755" lon="11.5502305"><ele>175.0</ele><time>2026-03-28T11:53:06.204Z</time></trkpt><trkpt lat="43.2398819" lon="11.5504032"><ele>175.0</ele><time>2026-03-28T11:53:07.204Z</time></trkpt><trkpt lat="43.2400028" lon="11.5505708"><ele>174.33333333333334</ele><time>2026-03-28T11:53:08.204Z</time></trkpt><trkpt lat="43.2401239" lon="11.5507406"><ele>173.66666666666666</ele><time>2026-03-28T11:53:09.204Z</time></trkpt><trkpt lat="43.2402376" lon="11.5508999"><ele>173.0</ele><time>2026-03-28T11:53:10.205Z</time></trkpt><trkpt lat="43.2403549" lon="11.5510629"><ele>172.5</ele><time>2026-03-28T11:53:11.205Z</time></trkpt><trkpt lat="43.2404719" lon="11.5512206"><ele>172.0</ele><time>2026-03-28T11:53:12.204Z</time></trkpt><trkpt lat="43.2405774" lon="11.5513683"><ele>171.5</ele><time>2026-03-28T11:53:13.204Z</time></trkpt><trkpt lat="43.2406729" lon="11.5514954"><ele>171.0</ele><time>2026-03-28T11:53:14.204Z</time></trkpt><trkpt lat="43.2407562" lon="11.5516111"><ele>172.60000000000002</ele><time>2026-03-28T11:53:15.204Z</time></trkpt><trkpt lat="43.2408211" lon="11.5517363"><ele>174.2</ele><time>2026-03-28T11:53:16.205Z</time></trkpt><trkpt lat="43.2408433" lon="11.5518724"><ele>175.8</ele><time>2026-03-28T11:53:17.204Z</time></trkpt><trkpt lat="43.2408249" lon="11.552005"><ele>177.39999999999998</ele><time>2026-03-28T11:53:18.204Z</time></trkpt><trkpt lat="43.2407776" lon="11.5521263"><ele>179.0</ele><time>2026-03-28T11:53:19.204Z</time></trkpt><trkpt lat="43.2407191" lon="11.5522488"><ele>179.25</ele><time>2026-03-28T11:53:20.204Z</time></trkpt><trkpt lat="43.2406635" lon="11.5523746"><ele>179.5</ele><time>2026-03-28T11:53:21.205Z</time></trkpt><trkpt lat="43.2406132" lon="11.5525026"><ele>179.75</ele><time>2026-03-28T11:53:22.205Z</time></trkpt><trkpt lat="43.2405519" lon="11.5526426"><ele>180.0</ele><time>2026-03-28T11:53:23.204Z</time></trkpt><trkpt lat="43.2404777" lon="11.5527895"><ele>178.25</ele><time>2026-03-28T11:53:24.204Z</time></trkpt><trkpt lat="43.240395" lon="11.552935"><ele>176.5</ele><time>2026-03-28T11:53:25.205Z</time></trkpt><trkpt lat="43.2403105" lon="11.5530756"><ele>174.75</ele><time>2026-03-28T11:53:26.205Z</time></trkpt><trkpt lat="43.240227" lon="11.5532108"><ele>173.0</ele><time>2026-03-28T11:53:27.204Z</time></trkpt><trkpt lat="43.2401412" lon="11.5533511"><ele>173.0</ele><time>2026-03-28T11:53:28.204Z</time></trkpt><trkpt lat="43.2400649" lon="11.5534762"><ele>173.0</ele><time>2026-03-28T11:53:29.204Z</time></trkpt><trkpt lat="43.2399834" lon="11.5536101"><ele>173.0</ele><time>2026-03-28T11:53:30.204Z</time></trkpt><trkpt lat="43.2398897" lon="11.5537555"><ele>173.0</ele><time>2026-03-28T11:53:31.205Z</time></trkpt><trkpt lat="43.2397955" lon="11.5538918"><ele>173.0</ele><time>2026-03-28T11:53:32.204Z</time></trkpt><trkpt lat="43.2397054" lon="11.554017"><ele>173.0</ele><time>2026-03-28T11:53:33.204Z</time></trkpt><trkpt lat="43.2396244" lon="11.5541251"><ele>173.0</ele><time>2026-03-28T11:53:34.204Z</time></trkpt><trkpt lat="43.2395498" lon="11.5542235"><ele>173.0</ele><time>2026-03-28T11:53:35.204Z</time></trkpt><trkpt lat="43.2394829" lon="11.554313"><ele>173.0</ele><time>2026-03-28T11:53:36.204Z</time></trkpt><trkpt lat="43.2394157" lon="11.5543957"><ele>173.0</ele><time>2026-03-28T11:53:37.205Z</time></trkpt><trkpt lat="43.2393383" lon="11.5544744"><ele>173.0</ele><time>2026-03-28T11:53:38.204Z</time></trkpt><trkpt lat="43.2392534" lon="11.5545422"><ele>173.0</ele><time>2026-03-28T11:53:39.204Z</time></trkpt><trkpt lat="43.2391627" lon="11.5545963"><ele>173.0</ele><time>2026-03-28T11:53:40.205Z</time></trkpt><trkpt lat="43.2390732" lon="11.5546178"><ele>173.0</ele><time>2026-03-28T11:53:41.204Z</time></trkpt><trkpt lat="43.2389861" lon="11.5545972"><ele>173.83333333333331</ele><time>2026-03-28T11:53:42.205Z</time></trkpt><trkpt lat="43.2389042" lon="11.5545915"><ele>174.66666666666666</ele><time>2026-03-28T11:53:43.205Z</time></trkpt><trkpt lat="43.2388312" lon="11.5546291"><ele>175.5</ele><time>2026-03-28T11:53:44.204Z</time></trkpt><trkpt lat="43.238777" lon="11.5546991"><ele>176.33333333333334</ele><time>2026-03-28T11:53:45.205Z</time></trkpt><trkpt lat="43.2387481" lon="11.5547772"><ele>177.16666666666669</ele><time>2026-03-28T11:53:46.204Z</time></trkpt><trkpt lat="43.2387013" lon="11.5548656"><ele>178.0</ele><time>2026-03-28T11:53:47.205Z</time></trkpt><trkpt lat="43.2386194" lon="11.5549397"><ele>178.0</ele><time>2026-03-28T11:53:48.204Z</time></trkpt><trkpt lat="43.2385172" lon="11.5549973"><ele>178.0</ele><time>2026-03-28T11:53:49.204Z</time></trkpt><trkpt lat="43.2384034" lon="11.5550634"><ele>178.0</ele><time>2026-03-28T11:53:50.205Z</time></trkpt><trkpt lat="43.2382952" lon="11.5551288"><ele>178.0</ele><time>2026-03-28T11:53:51.205Z</time></trkpt><trkpt lat="43.238196" lon="11.5551895"><ele>177.60000000000002</ele><time>2026-03-28T11:53:52.205Z</time></trkpt><trkpt lat="43.2380972" lon="11.5552493"><ele>177.20000000000002</ele><time>2026-03-28T11:53:53.204Z</time></trkpt><trkpt lat="43.2380082" lon="11.5553016"><ele>176.8</ele><time>2026-03-28T11:53:54.204Z</time></trkpt><trkpt lat="43.2379277" lon="11.5553539"><ele>176.4</ele><time>2026-03-28T11:53:55.204Z</time></trkpt><trkpt lat="43.2378565" lon="11.5554025"><ele>176.0</ele><time>2026-03-28T11:53:56.205Z</time></trkpt><trkpt lat="43.2377798" lon="11.5554624"><ele>176.0</ele><time>2026-03-28T11:53:57.204Z</time></trkpt><trkpt lat="43.2377043" lon="11.5555349"><ele>176.0</ele><time>2026-03-28T11:53:58.204Z</time></trkpt><trkpt lat="43.2376378" lon="11.5556035"><ele>176.0</ele><time>2026-03-28T11:53:59.205Z</time></trkpt><trkpt lat="43.237589" lon="11.5556755"><ele>176.0</ele><time>2026-03-28T11:54:00.205Z</time></trkpt><trkpt lat="43.2375419" lon="11.5557527"><ele>176.0</ele><time>2026-03-28T11:54:01.205Z</time></trkpt><trkpt lat="43.2374927" lon="11.5558294"><ele>176.0</ele><time>2026-03-28T11:54:02.204Z</time></trkpt><trkpt lat="43.2374353" lon="11.555908"><ele>176.0</ele><time>2026-03-28T11:54:03.204Z</time></trkpt><trkpt lat="43.2373694" lon="11.5560065"><ele>176.0</ele><time>2026-03-28T11:54:04.204Z</time></trkpt><trkpt lat="43.2373029" lon="11.5560983"><ele>176.0</ele><time>2026-03-28T11:54:05.205Z</time></trkpt><trkpt lat="43.2372343" lon="11.5561768"><ele>176.0</ele><time>2026-03-28T11:54:06.204Z</time></trkpt><trkpt lat="43.2371684" lon="11.5562659"><ele>176.0</ele><time>2026-03-28T11:54:07.204Z</time></trkpt><trkpt lat="43.2371186" lon="11.556373"><ele>175.60000000000002</ele><time>2026-03-28T11:54:08.204Z</time></trkpt><trkpt lat="43.2370785" lon="11.5565035"><ele>175.2</ele><time>2026-03-28T11:54:09.204Z</time></trkpt><trkpt lat="43.2370474" lon="11.5566473"><ele>174.8</ele><time>2026-03-28T11:54:10.205Z</time></trkpt><trkpt lat="43.2370266" lon="11.5567982"><ele>174.39999999999998</ele><time>2026-03-28T11:54:11.204Z</time></trkpt><trkpt lat="43.2370106" lon="11.556937"><ele>174.0</ele><time>2026-03-28T11:54:12.203Z</time></trkpt><trkpt lat="43.2369947" lon="11.5570487"><ele>175.16666666666666</ele><time>2026-03-28T11:54:13.204Z</time></trkpt><trkpt lat="43.2369669" lon="11.5571372"><ele>176.33333333333334</ele><time>2026-03-28T11:54:14.204Z</time></trkpt><trkpt lat="43.2369176" lon="11.5572051"><ele>177.5</ele><time>2026-03-28T11:54:15.205Z</time></trkpt><trkpt lat="43.2368466" lon="11.5572313"><ele>178.66666666666669</ele><time>2026-03-28T11:54:16.205Z</time></trkpt><trkpt lat="43.2367628" lon="11.5572324"><ele>179.83333333333334</ele><time>2026-03-28T11:54:17.204Z</time></trkpt><trkpt lat="43.2366701" lon="11.5572166"><ele>181.0</ele><time>2026-03-28T11:54:18.205Z</time></trkpt><trkpt lat="43.2365719" lon="11.5571941"><ele>181.0</ele><time>2026-03-28T11:54:19.204Z</time></trkpt><trkpt lat="43.2364881" lon="11.5571725"><ele>181.0</ele><time>2026-03-28T11:54:20.204Z</time></trkpt><trkpt lat="43.2364165" lon="11.5571246"><ele>181.0</ele><time>2026-03-28T11:54:21.204Z</time></trkpt><trkpt lat="43.2363528" lon="11.5570301"><ele>181.0</ele><time>2026-03-28T11:54:22.204Z</time></trkpt><trkpt lat="43.2362946" lon="11.5569087"><ele>181.0</ele><time>2026-03-28T11:54:23.205Z</time></trkpt><trkpt lat="43.2362419" lon="11.5567975"><ele>180.20000000000002</ele><time>2026-03-28T11:54:24.205Z</time></trkpt><trkpt lat="43.2361871" lon="11.5567024"><ele>179.4</ele><time>2026-03-28T11:54:25.204Z</time></trkpt><trkpt lat="43.2361237" lon="11.5566154"><ele>178.6</ele><time>2026-03-28T11:54:26.205Z</time></trkpt><trkpt lat="43.236042" lon="11.5565278"><ele>177.8</ele><time>2026-03-28T11:54:27.204Z</time></trkpt><trkpt lat="43.2359459" lon="11.556466"><ele>177.0</ele><time>2026-03-28T11:54:28.204Z</time></trkpt><trkpt lat="43.2358557" lon="11.5564535"><ele>177.0</ele><time>2026-03-28T11:54:29.205Z</time></trkpt><trkpt lat="43.235775" lon="11.5564809"><ele>177.0</ele><time>2026-03-28T11:54:30.204Z</time></trkpt><trkpt lat="43.235689" lon="11.5565275"><ele>177.0</ele><time>2026-03-28T11:54:31.204Z</time></trkpt><trkpt lat="43.2355967" lon="11.5565833"><ele>177.0</ele><time>2026-03-28T11:54:32.203Z</time></trkpt><trkpt lat="43.2355007" lon="11.5566411"><ele>177.0</ele><time>2026-03-28T11:54:33.204Z</time></trkpt><trkpt lat="43.235402" lon="11.556695"><ele>176.75</ele><time>2026-03-28T11:54:34.205Z</time></trkpt><trkpt lat="43.2352946" lon="11.5567481"><ele>176.5</ele><time>2026-03-28T11:54:35.205Z</time></trkpt><trkpt lat="43.235182" lon="11.5568081"><ele>176.25</ele><time>2026-03-28T11:54:36.204Z</time></trkpt><trkpt lat="43.2350687" lon="11.5568785"><ele>176.0</ele><time>2026-03-28T11:54:37.205Z</time></trkpt><trkpt lat="43.2349528" lon="11.5569469"><ele>176.0</ele><time>2026-03-28T11:54:38.205Z</time></trkpt><trkpt lat="43.2348363" lon="11.5570204"><ele>176.0</ele><time>2026-03-28T11:54:39.205Z</time></trkpt><trkpt lat="43.2347247" lon="11.5571123"><ele>176.0</ele><time>2026-03-28T11:54:40.204Z</time></trkpt><trkpt lat="43.2346222" lon="11.5572264"><ele>176.0</ele><time>2026-03-28T11:54:41.203Z</time></trkpt><trkpt lat="43.2345252" lon="11.5573658"><ele>176.33333333333331</ele><time>2026-03-28T11:54:42.205Z</time></trkpt><trkpt lat="43.2344255" lon="11.5575197"><ele>176.66666666666666</ele><time>2026-03-28T11:54:43.203Z</time></trkpt><trkpt lat="43.2343201" lon="11.5576729"><ele>177.0</ele><time>2026-03-28T11:54:44.204Z</time></trkpt><trkpt lat="43.2342117" lon="11.5578228"><ele>177.25</ele><time>2026-03-28T11:54:45.204Z</time></trkpt><trkpt lat="43.2341067" lon="11.5579695"><ele>177.5</ele><time>2026-03-28T11:54:46.205Z</time></trkpt><trkpt lat="43.234014" lon="11.558103"><ele>177.75</ele><time>2026-03-28T11:54:47.204Z</time></trkpt><trkpt lat="43.2339254" lon="11.5582271"><ele>178.0</ele><time>2026-03-28T11:54:48.204Z</time></trkpt><trkpt lat="43.2338494" lon="11.5583549"><ele>178.0</ele><time>2026-03-28T11:54:49.205Z</time></trkpt><trkpt lat="43.2338087" lon="11.5584824"><ele>178.0</ele><time>2026-03-28T11:54:50.204Z</time></trkpt><trkpt lat="43.2337903" lon="11.5586347"><ele>178.0</ele><time>2026-03-28T11:54:51.205Z</time></trkpt><trkpt lat="43.2337959" lon="11.5587968"><ele>178.0</ele><time>2026-03-28T11:54:52.204Z</time></trkpt><trkpt lat="43.2338146" lon="11.5589714"><ele>181.5</ele><time>2026-03-28T11:54:53.204Z</time></trkpt><trkpt lat="43.2338396" lon="11.5591525"><ele>185.0</ele><time>2026-03-28T11:54:54.204Z</time></trkpt><trkpt lat="43.2338657" lon="11.5593338"><ele>188.5</ele><time>2026-03-28T11:54:55.205Z</time></trkpt><trkpt lat="43.2338929" lon="11.5594878"><ele>192.0</ele><time>2026-03-28T11:54:56.204Z</time></trkpt><trkpt lat="43.2339169" lon="11.5596316"><ele>193.39999999999998</ele><time>2026-03-28T11:54:57.205Z</time></trkpt><trkpt lat="43.233938" lon="11.5597657"><ele>194.79999999999998</ele><time>2026-03-28T11:54:58.204Z</time></trkpt><trkpt lat="43.2339556" lon="11.5599025"><ele>196.2</ele><time>2026-03-28T11:54:59.205Z</time></trkpt><trkpt lat="43.2339713" lon="11.5600366"><ele>197.6</ele><time>2026-03-28T11:55:00.204Z</time></trkpt><trkpt lat="43.233981" lon="11.5601502"><ele>199.0</ele><time>2026-03-28T11:55:01.205Z</time></trkpt><trkpt lat="43.2339904" lon="11.5602572"><ele>198.99999999999997</ele><time>2026-03-28T11:55:02.205Z</time></trkpt><trkpt lat="43.2339996" lon="11.5603614"><ele>199.0</ele><time>2026-03-28T11:55:03.204Z</time></trkpt><trkpt lat="43.2340063" lon="11.5604668"><ele>199.0</ele><time>2026-03-28T11:55:04.204Z</time></trkpt><trkpt lat="43.234008" lon="11.5605782"><ele>199.0</ele><time>2026-03-28T11:55:05.204Z</time></trkpt><trkpt lat="43.2340001" lon="11.5606954"><ele>198.99999999999997</ele><time>2026-03-28T11:55:06.204Z</time></trkpt><trkpt lat="43.2339853" lon="11.560822"><ele>199.0</ele><time>2026-03-28T11:55:07.205Z</time></trkpt><trkpt lat="43.233961" lon="11.5609593"><ele>199.99999999999997</ele><time>2026-03-28T11:55:08.203Z</time></trkpt><trkpt lat="43.2339239" lon="11.5610777"><ele>201.0</ele><time>2026-03-28T11:55:09.204Z</time></trkpt><trkpt lat="43.2338867" lon="11.561169"><ele>202.0</ele><time>2026-03-28T11:55:10.205Z</time></trkpt><trkpt lat="43.2338468" lon="11.5612551"><ele>203.0</ele><time>2026-03-28T11:55:11.204Z</time></trkpt><trkpt lat="43.2337928" lon="11.5613511"><ele>203.99999999999997</ele><time>2026-03-28T11:55:12.205Z</time></trkpt><trkpt lat="43.2337371" lon="11.5614525"><ele>205.0</ele><time>2026-03-28T11:55:13.204Z</time></trkpt><trkpt lat="43.2336843" lon="11.5615494"><ele>205.16666666666666</ele><time>2026-03-28T11:55:14.205Z</time></trkpt><trkpt lat="43.2336324" lon="11.5616492"><ele>205.33333333333331</ele><time>2026-03-28T11:55:15.205Z</time></trkpt><trkpt lat="43.2335759" lon="11.5617544"><ele>205.5</ele><time>2026-03-28T11:55:16.204Z</time></trkpt><trkpt lat="43.2335239" lon="11.5618419"><ele>205.66666666666669</ele><time>2026-03-28T11:55:17.204Z</time></trkpt><trkpt lat="43.2334714" lon="11.5619348"><ele>205.83333333333334</ele><time>2026-03-28T11:55:18.204Z</time></trkpt><trkpt lat="43.2334227" lon="11.5620262"><ele>206.0</ele><time>2026-03-28T11:55:19.205Z</time></trkpt><trkpt lat="43.233364" lon="11.5621109"><ele>206.60000000000002</ele><time>2026-03-28T11:55:20.204Z</time></trkpt><trkpt lat="43.2332952" lon="11.5622175"><ele>207.2</ele><time>2026-03-28T11:55:21.204Z</time></trkpt><trkpt lat="43.2332262" lon="11.5623161"><ele>207.8</ele><time>2026-03-28T11:55:22.205Z</time></trkpt><trkpt lat="43.2331582" lon="11.5624111"><ele>208.39999999999998</ele><time>2026-03-28T11:55:23.205Z</time></trkpt><trkpt lat="43.2330814" lon="11.5625121"><ele>209.0</ele><time>2026-03-28T11:55:24.205Z</time></trkpt><trkpt lat="43.2329969" lon="11.5626101"><ele>210.2</ele><time>2026-03-28T11:55:25.204Z</time></trkpt><trkpt lat="43.232897" lon="11.5626892"><ele>211.39999999999998</ele><time>2026-03-28T11:55:26.204Z</time></trkpt><trkpt lat="43.2327898" lon="11.562735"><ele>212.6</ele><time>2026-03-28T11:55:27.205Z</time></trkpt><trkpt lat="43.2326906" lon="11.5627763"><ele>213.8</ele><time>2026-03-28T11:55:28.204Z</time></trkpt><trkpt lat="43.2325837" lon="11.5628173"><ele>215.0</ele><time>2026-03-28T11:55:29.205Z</time></trkpt><trkpt lat="43.2324746" lon="11.5628623"><ele>214.5</ele><time>2026-03-28T11:55:30.205Z</time></trkpt><trkpt lat="43.2323598" lon="11.5629161"><ele>214.0</ele><time>2026-03-28T11:55:31.205Z</time></trkpt><trkpt lat="43.2322393" lon="11.5629631"><ele>213.5</ele><time>2026-03-28T11:55:32.204Z</time></trkpt><trkpt lat="43.232116" lon="11.5630139"><ele>213.0</ele><time>2026-03-28T11:55:33.204Z</time></trkpt><trkpt lat="43.2320062" lon="11.5630565"><ele>214.60000000000002</ele><time>2026-03-28T11:55:34.204Z</time></trkpt><trkpt lat="43.2319" lon="11.5631029"><ele>216.20000000000002</ele><time>2026-03-28T11:55:35.205Z</time></trkpt><trkpt lat="43.2317926" lon="11.5631469"><ele>217.8</ele><time>2026-03-28T11:55:36.205Z</time></trkpt><trkpt lat="43.2316918" lon="11.5631874"><ele>219.4</ele><time>2026-03-28T11:55:37.205Z</time></trkpt><trkpt lat="43.2315872" lon="11.5632375"><ele>221.0</ele><time>2026-03-28T11:55:38.204Z</time></trkpt><trkpt lat="43.2314756" lon="11.5632896"><ele>222.20000000000002</ele><time>2026-03-28T11:55:39.204Z</time></trkpt><trkpt lat="43.2313637" lon="11.5633467"><ele>223.40000000000003</ele><time>2026-03-28T11:55:40.204Z</time></trkpt><trkpt lat="43.2312694" lon="11.5634065"><ele>224.6</ele><time>2026-03-28T11:55:41.205Z</time></trkpt><trkpt lat="43.2311845" lon="11.5634742"><ele>225.8</ele><time>2026-03-28T11:55:42.204Z</time></trkpt><trkpt lat="43.2311055" lon="11.5635687"><ele>227.0</ele><time>2026-03-28T11:55:43.204Z</time></trkpt><trkpt lat="43.2310271" lon="11.5637099"><ele>227.0</ele><time>2026-03-28T11:55:44.204Z</time></trkpt><trkpt lat="43.23095" lon="11.5638756"><ele>227.0</ele><time>2026-03-28T11:55:45.204Z</time></trkpt><trkpt lat="43.2308732" lon="11.5640438"><ele>227.0</ele><time>2026-03-28T11:55:46.205Z</time></trkpt><trkpt lat="43.2307992" lon="11.5642132"><ele>227.0</ele><time>2026-03-28T11:55:47.204Z</time></trkpt><trkpt lat="43.230738" lon="11.5643668"><ele>227.0</ele><time>2026-03-28T11:55:48.204Z</time></trkpt><trkpt lat="43.2306801" lon="11.5645116"><ele>227.0</ele><time>2026-03-28T11:55:49.205Z</time></trkpt><trkpt lat="43.2306224" lon="11.5646613"><ele>227.0</ele><time>2026-03-28T11:55:50.204Z</time></trkpt><trkpt lat="43.2305636" lon="11.5648219"><ele>227.0</ele><time>2026-03-28T11:55:51.204Z</time></trkpt><trkpt lat="43.230504" lon="11.5649848"><ele>228.75</ele><time>2026-03-28T11:55:52.204Z</time></trkpt><trkpt lat="43.230445" lon="11.5651477"><ele>230.5</ele><time>2026-03-28T11:55:53.205Z</time></trkpt><trkpt lat="43.2303935" lon="11.5652891"><ele>232.25</ele><time>2026-03-28T11:55:54.204Z</time></trkpt><trkpt lat="43.2303434" lon="11.5654258"><ele>234.0</ele><time>2026-03-28T11:55:55.204Z</time></trkpt><trkpt lat="43.2302938" lon="11.5655642"><ele>234.0</ele><time>2026-03-28T11:55:56.204Z</time></trkpt><trkpt lat="43.2302389" lon="11.5657182"><ele>234.0</ele><time>2026-03-28T11:55:57.205Z</time></trkpt><trkpt lat="43.2301763" lon="11.5658816"><ele>234.0</ele><time>2026-03-28T11:55:58.204Z</time></trkpt><trkpt lat="43.2301088" lon="11.5660533"><ele>234.0</ele><time>2026-03-28T11:55:59.203Z</time></trkpt><trkpt lat="43.2300391" lon="11.5662175"><ele>234.0</ele><time>2026-03-28T11:56:00.204Z</time></trkpt><trkpt lat="43.2299699" lon="11.5663826"><ele>234.0</ele><time>2026-03-28T11:56:01.205Z</time></trkpt><trkpt lat="43.2298928" lon="11.5665479"><ele>234.0</ele><time>2026-03-28T11:56:02.204Z</time></trkpt><trkpt lat="43.2298223" lon="11.5667165"><ele>234.0</ele><time>2026-03-28T11:56:03.204Z</time></trkpt><trkpt lat="43.2297515" lon="11.5668896"><ele>234.5</ele><time>2026-03-28T11:56:04.204Z</time></trkpt><trkpt lat="43.2296777" lon="11.5670635"><ele>235.0</ele><time>2026-03-28T11:56:05.204Z</time></trkpt><trkpt lat="43.2296049" lon="11.5672383"><ele>235.5</ele><time>2026-03-28T11:56:06.204Z</time></trkpt><trkpt lat="43.229537" lon="11.5673986"><ele>236.0</ele><time>2026-03-28T11:56:07.205Z</time></trkpt><trkpt lat="43.2294722" lon="11.5675394"><ele>236.0</ele><time>2026-03-28T11:56:08.203Z</time></trkpt><trkpt lat="43.2294071" lon="11.567675"><ele>236.0</ele><time>2026-03-28T11:56:09.205Z</time></trkpt><trkpt lat="43.2293413" lon="11.5678172"><ele>236.0</ele><time>2026-03-28T11:56:10.204Z</time></trkpt><trkpt lat="43.2292751" lon="11.5679632"><ele>236.0</ele><time>2026-03-28T11:56:11.204Z</time></trkpt><trkpt lat="43.229209" lon="11.5681106"><ele>236.25</ele><time>2026-03-28T11:56:12.205Z</time></trkpt><trkpt lat="43.2291565" lon="11.5682443"><ele>236.5</ele><time>2026-03-28T11:56:13.204Z</time></trkpt><trkpt lat="43.2291292" lon="11.5683906"><ele>236.75</ele><time>2026-03-28T11:56:14.205Z</time></trkpt><trkpt lat="43.2291318" lon="11.5685485"><ele>237.0</ele><time>2026-03-28T11:56:15.204Z</time></trkpt><trkpt lat="43.2291591" lon="11.5687125"><ele>237.25</ele><time>2026-03-28T11:56:16.205Z</time></trkpt><trkpt lat="43.2291948" lon="11.5688864"><ele>237.5</ele><time>2026-03-28T11:56:17.205Z</time></trkpt><trkpt lat="43.229229" lon="11.5690674"><ele>237.75</ele><time>2026-03-28T11:56:18.204Z</time></trkpt><trkpt lat="43.2292663" lon="11.5692524"><ele>238.0</ele><time>2026-03-28T11:56:19.205Z</time></trkpt><trkpt lat="43.2293098" lon="11.5694276"><ele>238.25</ele><time>2026-03-28T11:56:20.204Z</time></trkpt><trkpt lat="43.2293776" lon="11.5695988"><ele>238.5</ele><time>2026-03-28T11:56:21.205Z</time></trkpt><trkpt lat="43.2294702" lon="11.5697571"><ele>238.75</ele><time>2026-03-28T11:56:22.205Z</time></trkpt><trkpt lat="43.2295766" lon="11.5699039"><ele>239.0</ele><time>2026-03-28T11:56:23.203Z</time></trkpt><trkpt lat="43.2296823" lon="11.5700409"><ele>239.0</ele><time>2026-03-28T11:56:24.204Z</time></trkpt><trkpt lat="43.2297747" lon="11.5701676"><ele>239.0</ele><time>2026-03-28T11:56:25.204Z</time></trkpt><trkpt lat="43.2298669" lon="11.570302"><ele>238.0</ele><time>2026-03-28T11:56:26.204Z</time></trkpt><trkpt lat="43.229965" lon="11.5704501"><ele>240.0</ele><time>2026-03-28T11:56:27.205Z</time></trkpt></trkseg><trkseg><trkpt lat="43.2360259" lon="11.5740177"><ele>247.0</ele><time>2026-03-28T13:01:46.195Z</time></trkpt><trkpt lat="43.2361383" lon="11.5740095"><ele>247.0</ele><time>2026-03-28T13:02:41.25Z</time></trkpt><trkpt lat="43.236049" lon="11.5738847"><ele>247.0</ele><time>2026-03-28T13:02:44.195Z</time></trkpt><trkpt lat="43.2359841" lon="11.5738493"><ele>247.0</ele><time>2026-03-28T13:02:45.195Z</time></trkpt><trkpt lat="43.2359085" lon="11.5737777"><ele>247.0</ele><time>2026-03-28T13:02:47.195Z</time></trkpt><trkpt lat="43.2357684" lon="11.5736666"><ele>247.16666666666666</ele><time>2026-03-28T13:02:59.196Z</time></trkpt><trkpt lat="43.235699" lon="11.5735875"><ele>247.33333333333331</ele><time>2026-03-28T13:03:00.196Z</time></trkpt><trkpt lat="43.2356393" lon="11.5735377"><ele>247.5</ele><time>2026-03-28T13:03:01.194Z</time></trkpt><trkpt lat="43.2355651" lon="11.5734811"><ele>247.66666666666669</ele><time>2026-03-28T13:03:02.195Z</time></trkpt><trkpt lat="43.2354753" lon="11.5734134"><ele>247.83333333333334</ele><time>2026-03-28T13:03:03.196Z</time></trkpt><trkpt lat="43.2353863" lon="11.5733465"><ele>248.0</ele><time>2026-03-28T13:03:04.196Z</time></trkpt><trkpt lat="43.2353076" lon="11.5732912"><ele>247.66666666666669</ele><time>2026-03-28T13:03:05.196Z</time></trkpt><trkpt lat="43.2352374" lon="11.5732485"><ele>247.33333333333334</ele><time>2026-03-28T13:03:06.195Z</time></trkpt><trkpt lat="43.2351723" lon="11.5732037"><ele>247.0</ele><time>2026-03-28T13:03:07.194Z</time></trkpt><trkpt lat="43.2350974" lon="11.5731506"><ele>246.66666666666669</ele><time>2026-03-28T13:03:08.196Z</time></trkpt><trkpt lat="43.235014" lon="11.5730925"><ele>246.33333333333334</ele><time>2026-03-28T13:03:09.195Z</time></trkpt><trkpt lat="43.2349376" lon="11.5730351"><ele>246.0</ele><time>2026-03-28T13:03:10.195Z</time></trkpt><trkpt lat="43.234857" lon="11.5729842"><ele>245.83333333333334</ele><time>2026-03-28T13:03:11.196Z</time></trkpt><trkpt lat="43.2347812" lon="11.5729444"><ele>245.66666666666669</ele><time>2026-03-28T13:03:12.196Z</time></trkpt><trkpt lat="43.2347105" lon="11.5729122"><ele>245.5</ele><time>2026-03-28T13:03:13.196Z</time></trkpt><trkpt lat="43.2346359" lon="11.5728894"><ele>245.33333333333334</ele><time>2026-03-28T13:03:14.195Z</time></trkpt><trkpt lat="43.2345545" lon="11.5728671"><ele>245.16666666666669</ele><time>2026-03-28T13:03:15.194Z</time></trkpt><trkpt lat="43.2344616" lon="11.5728402"><ele>245.0</ele><time>2026-03-28T13:03:16.195Z</time></trkpt><trkpt lat="43.2343563" lon="11.5728103"><ele>244.8</ele><time>2026-03-28T13:03:17.196Z</time></trkpt><trkpt lat="43.2342492" lon="11.5727903"><ele>244.6</ele><time>2026-03-28T13:03:18.196Z</time></trkpt><trkpt lat="43.2341391" lon="11.5727849"><ele>244.39999999999998</ele><time>2026-03-28T13:03:19.195Z</time></trkpt><trkpt lat="43.2340289" lon="11.5727839"><ele>244.2</ele><time>2026-03-28T13:03:20.196Z</time></trkpt><trkpt lat="43.2339273" lon="11.5727848"><ele>244.0</ele><time>2026-03-28T13:03:21.195Z</time></trkpt><trkpt lat="43.2338377" lon="11.5727834"><ele>243.83333333333331</ele><time>2026-03-28T13:03:22.195Z</time></trkpt><trkpt lat="43.2337516" lon="11.5727783"><ele>243.66666666666666</ele><time>2026-03-28T13:03:23.195Z</time></trkpt><trkpt lat="43.2336653" lon="11.5727707"><ele>243.5</ele><time>2026-03-28T13:03:24.195Z</time></trkpt><trkpt lat="43.2335897" lon="11.5727552"><ele>243.33333333333331</ele><time>2026-03-28T13:03:25.195Z</time></trkpt><trkpt lat="43.2335229" lon="11.5727451"><ele>243.16666666666666</ele><time>2026-03-28T13:03:26.195Z</time></trkpt><trkpt lat="43.2334337" lon="11.5727324"><ele>243.0</ele><time>2026-03-28T13:03:28.195Z</time></trkpt><trkpt lat="43.2333637" lon="11.5727076"><ele>243.0</ele><time>2026-03-28T13:04:38.195Z</time></trkpt><trkpt lat="43.233249" lon="11.5727021"><ele>243.0</ele><time>2026-03-28T13:04:40.195Z</time></trkpt><trkpt lat="43.2331749" lon="11.5726938"><ele>243.0</ele><time>2026-03-28T13:04:41.195Z</time></trkpt><trkpt lat="43.2330929" lon="11.5726828"><ele>243.0</ele><time>2026-03-28T13:04:42.195Z</time></trkpt><trkpt lat="43.2330163" lon="11.5726746"><ele>243.0</ele><time>2026-03-28T13:04:43.196Z</time></trkpt><trkpt lat="43.2329374" lon="11.5726635"><ele>243.0</ele><time>2026-03-28T13:04:44.195Z</time></trkpt><trkpt lat="43.2328437" lon="11.5726465"><ele>242.8</ele><time>2026-03-28T13:04:45.195Z</time></trkpt><trkpt lat="43.2327394" lon="11.5726312"><ele>242.60000000000002</ele><time>2026-03-28T13:04:46.195Z</time></trkpt><trkpt lat="43.2326396" lon="11.5726233"><ele>242.39999999999998</ele><time>2026-03-28T13:04:47.195Z</time></trkpt><trkpt lat="43.2325422" lon="11.5726154"><ele>242.2</ele><time>2026-03-28T13:04:48.196Z</time></trkpt><trkpt lat="43.2324457" lon="11.572611"><ele>242.0</ele><time>2026-03-28T13:04:49.196Z</time></trkpt><trkpt lat="43.2323536" lon="11.5726092"><ele>242.00000000000003</ele><time>2026-03-28T13:04:50.195Z</time></trkpt><trkpt lat="43.2322687" lon="11.5726067"><ele>242.0</ele><time>2026-03-28T13:04:51.195Z</time></trkpt><trkpt lat="43.2321858" lon="11.5726057"><ele>242.0</ele><time>2026-03-28T13:04:52.195Z</time></trkpt><trkpt lat="43.2321052" lon="11.5726036"><ele>242.0</ele><time>2026-03-28T13:04:53.195Z</time></trkpt><trkpt lat="43.2320141" lon="11.5726062"><ele>242.00000000000003</ele><time>2026-03-28T13:04:54.194Z</time></trkpt><trkpt lat="43.2319164" lon="11.5726073"><ele>242.0</ele><time>2026-03-28T13:04:55.195Z</time></trkpt><trkpt lat="43.231805" lon="11.5726087"><ele>242.0</ele><time>2026-03-28T13:04:56.195Z</time></trkpt><trkpt lat="43.2316897" lon="11.5726144"><ele>242.0</ele><time>2026-03-28T13:04:57.195Z</time></trkpt><trkpt lat="43.2315785" lon="11.572615"><ele>242.0</ele><time>2026-03-28T13:04:58.195Z</time></trkpt><trkpt lat="43.2314796" lon="11.5726107"><ele>242.0</ele><time>2026-03-28T13:04:59.196Z</time></trkpt><trkpt lat="43.2313747" lon="11.5725938"><ele>242.0</ele><time>2026-03-28T13:05:00.196Z</time></trkpt><trkpt lat="43.2312649" lon="11.5725591"><ele>241.8</ele><time>2026-03-28T13:05:01.195Z</time></trkpt><trkpt lat="43.2311623" lon="11.5725126"><ele>241.6</ele><time>2026-03-28T13:05:02.195Z</time></trkpt><trkpt lat="43.2310689" lon="11.5724629"><ele>241.40000000000003</ele><time>2026-03-28T13:05:03.196Z</time></trkpt><trkpt lat="43.2309787" lon="11.572415"><ele>241.20000000000002</ele><time>2026-03-28T13:05:04.195Z</time></trkpt><trkpt lat="43.2308906" lon="11.5723695"><ele>241.0</ele><time>2026-03-28T13:05:05.195Z</time></trkpt><trkpt lat="43.2308048" lon="11.5723237"><ele>240.99999999999997</ele><time>2026-03-28T13:05:06.195Z</time></trkpt><trkpt lat="43.2307258" lon="11.5722789"><ele>241.0</ele><time>2026-03-28T13:05:07.196Z</time></trkpt><trkpt lat="43.2306562" lon="11.5722328"><ele>241.0</ele><time>2026-03-28T13:05:08.195Z</time></trkpt><trkpt lat="43.2305721" lon="11.5721362"><ele>241.0</ele><time>2026-03-28T13:05:10.196Z</time></trkpt><trkpt lat="43.2305375" lon="11.5720489"><ele>240.99999999999997</ele><time>2026-03-28T13:05:11.195Z</time></trkpt><trkpt lat="43.2305081" lon="11.5719329"><ele>241.0</ele><time>2026-03-28T13:05:12.195Z</time></trkpt><trkpt lat="43.2304782" lon="11.5717931"><ele>241.0</ele><time>2026-03-28T13:05:13.195Z</time></trkpt><trkpt lat="43.230445" lon="11.5716472"><ele>241.00000000000003</ele><time>2026-03-28T13:05:14.195Z</time></trkpt><trkpt lat="43.2304142" lon="11.5715131"><ele>241.00000000000003</ele><time>2026-03-28T13:05:15.195Z</time></trkpt><trkpt lat="43.2303778" lon="11.5713829"><ele>241.0</ele><time>2026-03-28T13:05:16.195Z</time></trkpt><trkpt lat="43.2303382" lon="11.5712499"><ele>241.0</ele><time>2026-03-28T13:05:17.196Z</time></trkpt><trkpt lat="43.2303012" lon="11.5711109"><ele>240.8</ele><time>2026-03-28T13:05:18.196Z</time></trkpt><trkpt lat="43.2302624" lon="11.5709707"><ele>240.60000000000002</ele><time>2026-03-28T13:05:19.195Z</time></trkpt><trkpt lat="43.2302205" lon="11.5708411"><ele>240.4</ele><time>2026-03-28T13:05:20.195Z</time></trkpt><trkpt lat="43.2301759" lon="11.5707297"><ele>240.2</ele><time>2026-03-28T13:05:21.196Z</time></trkpt><trkpt lat="43.2301246" lon="11.5706227"><ele>240.0</ele><time>2026-03-28T13:05:22.195Z</time></trkpt><trkpt lat="43.2300667" lon="11.5705208"><ele>240.0</ele><time>2026-03-28T13:05:23.195Z</time></trkpt><trkpt lat="43.2300082" lon="11.5704368"><ele>240.0</ele><time>2026-03-28T13:05:24.195Z</time></trkpt><trkpt lat="43.2299493" lon="11.570356"><ele>240.0</ele><time>2026-03-28T13:05:25.196Z</time></trkpt><trkpt lat="43.2298877" lon="11.5702792"><ele>240.0</ele><time>2026-03-28T13:05:26.196Z</time></trkpt><trkpt lat="43.2298291" lon="11.5702002"><ele>240.0</ele><time>2026-03-28T13:05:27.195Z</time></trkpt><trkpt lat="43.2297688" lon="11.5701191"><ele>240.0</ele><time>2026-03-28T13:05:28.196Z</time></trkpt><trkpt lat="43.2297031" lon="11.5700262"><ele>239.8</ele><time>2026-03-28T13:05:29.195Z</time></trkpt><trkpt lat="43.2296381" lon="11.5699401"><ele>239.6</ele><time>2026-03-28T13:05:30.195Z</time></trkpt><trkpt lat="43.2295706" lon="11.5698544"><ele>239.39999999999998</ele><time>2026-03-28T13:05:31.195Z</time></trkpt><trkpt lat="43.2295025" lon="11.5697567"><ele>239.2</ele><time>2026-03-28T13:05:32.196Z</time></trkpt><trkpt lat="43.2294339" lon="11.5696388"><ele>239.0</ele><time>2026-03-28T13:05:33.195Z</time></trkpt><trkpt lat="43.2293733" lon="11.5695066"><ele>238.75</ele><time>2026-03-28T13:05:34.195Z</time></trkpt><trkpt lat="43.2293241" lon="11.5693587"><ele>238.5</ele><time>2026-03-28T13:05:35.196Z</time></trkpt><trkpt lat="43.2292915" lon="11.569212"><ele>238.25</ele><time>2026-03-28T13:05:36.196Z</time></trkpt><trkpt lat="43.2292558" lon="11.5690623"><ele>238.0</ele><time>2026-03-28T13:05:37.196Z</time></trkpt><trkpt lat="43.2292199" lon="11.5689144"><ele>238.0</ele><time>2026-03-28T13:05:38.196Z</time></trkpt><trkpt lat="43.2291862" lon="11.5687674"><ele>238.0</ele><time>2026-03-28T13:05:39.195Z</time></trkpt><trkpt lat="43.2291573" lon="11.568613"><ele>238.0</ele><time>2026-03-28T13:05:40.196Z</time></trkpt><trkpt lat="43.2291446" lon="11.5684675"><ele>238.0</ele><time>2026-03-28T13:05:41.196Z</time></trkpt><trkpt lat="43.2291587" lon="11.5683076"><ele>237.75</ele><time>2026-03-28T13:05:42.195Z</time></trkpt><trkpt lat="43.229212" lon="11.5681595"><ele>237.5</ele><time>2026-03-28T13:05:43.196Z</time></trkpt><trkpt lat="43.2292818" lon="11.5680185"><ele>237.25</ele><time>2026-03-28T13:05:44.196Z</time></trkpt><trkpt lat="43.2293412" lon="11.5678864"><ele>237.0</ele><time>2026-03-28T13:05:45.196Z</time></trkpt><trkpt lat="43.2294039" lon="11.5677536"><ele>236.8</ele><time>2026-03-28T13:05:46.195Z</time></trkpt><trkpt lat="43.2294667" lon="11.56763"><ele>236.6</ele><time>2026-03-28T13:05:47.196Z</time></trkpt><trkpt lat="43.2295241" lon="11.5675107"><ele>236.40000000000003</ele><time>2026-03-28T13:05:48.196Z</time></trkpt><trkpt lat="43.2295784" lon="11.5673914"><ele>236.20000000000002</ele><time>2026-03-28T13:05:49.195Z</time></trkpt><trkpt lat="43.2296324" lon="11.5672608"><ele>236.0</ele><time>2026-03-28T13:05:50.195Z</time></trkpt><trkpt lat="43.2296868" lon="11.5671256"><ele>236.0</ele><time>2026-03-28T13:05:51.194Z</time></trkpt><trkpt lat="43.2297452" lon="11.5669904"><ele>236.0</ele><time>2026-03-28T13:05:52.195Z</time></trkpt><trkpt lat="43.2298003" lon="11.5668561"><ele>236.0</ele><time>2026-03-28T13:05:53.195Z</time></trkpt><trkpt lat="43.2298546" lon="11.5667136"><ele>236.0</ele><time>2026-03-28T13:05:54.196Z</time></trkpt><trkpt lat="43.2299106" lon="11.566568"><ele>235.75</ele><time>2026-03-28T13:05:55.196Z</time></trkpt><trkpt lat="43.2299712" lon="11.5664217"><ele>235.5</ele><time>2026-03-28T13:05:56.196Z</time></trkpt><trkpt lat="43.230036" lon="11.5662745"><ele>235.25</ele><time>2026-03-28T13:05:57.195Z</time></trkpt><trkpt lat="43.2301021" lon="11.5661254"><ele>235.0</ele><time>2026-03-28T13:05:58.195Z</time></trkpt><trkpt lat="43.2301664" lon="11.5659711"><ele>235.0</ele><time>2026-03-28T13:05:59.195Z</time></trkpt><trkpt lat="43.2302284" lon="11.5658124"><ele>235.0</ele><time>2026-03-28T13:06:00.195Z</time></trkpt><trkpt lat="43.2302905" lon="11.5656502"><ele>235.0</ele><time>2026-03-28T13:06:01.195Z</time></trkpt><trkpt lat="43.2303524" lon="11.5654858"><ele>235.0</ele><time>2026-03-28T13:06:02.196Z</time></trkpt><trkpt lat="43.2304116" lon="11.5653229"><ele>234.75</ele><time>2026-03-28T13:06:03.196Z</time></trkpt><trkpt lat="43.230471" lon="11.5651615"><ele>234.5</ele><time>2026-03-28T13:06:04.196Z</time></trkpt><trkpt lat="43.230531" lon="11.5650008"><ele>234.25</ele><time>2026-03-28T13:06:05.196Z</time></trkpt><trkpt lat="43.2305901" lon="11.5648375"><ele>234.0</ele><time>2026-03-28T13:06:06.196Z</time></trkpt><trkpt lat="43.2306498" lon="11.5646743"><ele>232.25</ele><time>2026-03-28T13:06:07.195Z</time></trkpt><trkpt lat="43.2307132" lon="11.5644979"><ele>230.5</ele><time>2026-03-28T13:06:08.196Z</time></trkpt><trkpt lat="43.230777" lon="11.5643342"><ele>228.75</ele><time>2026-03-28T13:06:09.196Z</time></trkpt><trkpt lat="43.230842" lon="11.5641797"><ele>227.0</ele><time>2026-03-28T13:06:10.195Z</time></trkpt><trkpt lat="43.230907" lon="11.564034"><ele>227.0</ele><time>2026-03-28T13:06:11.195Z</time></trkpt><trkpt lat="43.2309711" lon="11.563891"><ele>227.0</ele><time>2026-03-28T13:06:12.195Z</time></trkpt><trkpt lat="43.2310347" lon="11.5637539"><ele>227.0</ele><time>2026-03-28T13:06:13.196Z</time></trkpt><trkpt lat="43.2310936" lon="11.5636247"><ele>227.0</ele><time>2026-03-28T13:06:14.196Z</time></trkpt><trkpt lat="43.2311716" lon="11.5635087"><ele>227.0</ele><time>2026-03-28T13:06:15.196Z</time></trkpt><trkpt lat="43.2312749" lon="11.5634188"><ele>227.0</ele><time>2026-03-28T13:06:16.195Z</time></trkpt><trkpt lat="43.2313804" lon="11.5633535"><ele>227.0</ele><time>2026-03-28T13:06:17.196Z</time></trkpt><trkpt lat="43.2314929" lon="11.5633075"><ele>227.0</ele><time>2026-03-28T13:06:18.195Z</time></trkpt><trkpt lat="43.2316006" lon="11.56326"><ele>225.5</ele><time>2026-03-28T13:06:19.195Z</time></trkpt><trkpt lat="43.231709" lon="11.5632096"><ele>224.0</ele><time>2026-03-28T13:06:20.195Z</time></trkpt><trkpt lat="43.2318182" lon="11.5631607"><ele>222.5</ele><time>2026-03-28T13:06:21.195Z</time></trkpt><trkpt lat="43.2319251" lon="11.5631108"><ele>221.0</ele><time>2026-03-28T13:06:22.195Z</time></trkpt><trkpt lat="43.232029" lon="11.5630676"><ele>221.0</ele><time>2026-03-28T13:06:23.195Z</time></trkpt><trkpt lat="43.2321283" lon="11.5630252"><ele>221.00000000000003</ele><time>2026-03-28T13:06:24.195Z</time></trkpt><trkpt lat="43.2322283" lon="11.5629843"><ele>221.00000000000003</ele><time>2026-03-28T13:06:25.195Z</time></trkpt><trkpt lat="43.2323373" lon="11.5629378"><ele>221.0</ele><time>2026-03-28T13:06:26.195Z</time></trkpt><trkpt lat="43.2324499" lon="11.5628856"><ele>221.0</ele><time>2026-03-28T13:06:27.195Z</time></trkpt><trkpt lat="43.2325559" lon="11.5628396"><ele>219.8</ele><time>2026-03-28T13:06:28.195Z</time></trkpt><trkpt lat="43.232652" lon="11.5627949"><ele>218.60000000000002</ele><time>2026-03-28T13:06:29.195Z</time></trkpt><trkpt lat="43.2327451" lon="11.5627523"><ele>217.4</ele><time>2026-03-28T13:06:30.196Z</time></trkpt><trkpt lat="43.2328519" lon="11.5627463"><ele>216.2</ele><time>2026-03-28T13:06:31.194Z</time></trkpt><trkpt lat="43.2329501" lon="11.5628067"><ele>215.0</ele><time>2026-03-28T13:06:32.196Z</time></trkpt><trkpt lat="43.2330371" lon="11.5628904"><ele>214.6</ele><time>2026-03-28T13:06:33.196Z</time></trkpt><trkpt lat="43.2331315" lon="11.562944"><ele>214.2</ele><time>2026-03-28T13:06:34.195Z</time></trkpt><trkpt lat="43.2332119" lon="11.5629943"><ele>213.8</ele><time>2026-03-28T13:06:35.195Z</time></trkpt><trkpt lat="43.2332906" lon="11.5629755"><ele>213.4</ele><time>2026-03-28T13:06:36.196Z</time></trkpt><trkpt lat="43.2333678" lon="11.5629489"><ele>213.0</ele><time>2026-03-28T13:06:37.195Z</time></trkpt><trkpt lat="43.2334498" lon="11.5628523"><ele>212.33333333333334</ele><time>2026-03-28T13:06:38.195Z</time></trkpt><trkpt lat="43.2335312" lon="11.5627806"><ele>211.66666666666669</ele><time>2026-03-28T13:06:39.196Z</time></trkpt><trkpt lat="43.2336133" lon="11.562703"><ele>211.0</ele><time>2026-03-28T13:06:40.196Z</time></trkpt><trkpt lat="43.2336861" lon="11.5626428"><ele>210.33333333333334</ele><time>2026-03-28T13:06:41.195Z</time></trkpt><trkpt lat="43.2337499" lon="11.5625938"><ele>209.66666666666669</ele><time>2026-03-28T13:06:42.196Z</time></trkpt><trkpt lat="43.2338133" lon="11.5625468"><ele>209.0</ele><time>2026-03-28T13:06:43.195Z</time></trkpt><trkpt lat="43.2339086" lon="11.562467"><ele>209.00000000000003</ele><time>2026-03-28T13:06:45.196Z</time></trkpt><trkpt lat="43.2339659" lon="11.5623894"><ele>209.0</ele><time>2026-03-28T13:06:48.195Z</time></trkpt><trkpt lat="43.2339543" lon="11.5622858"><ele>209.0</ele><time>2026-03-28T13:06:50.196Z</time></trkpt><trkpt lat="43.2339197" lon="11.5622118"><ele>209.0</ele><time>2026-03-28T13:06:51.196Z</time></trkpt><trkpt lat="43.2338675" lon="11.5621124"><ele>209.00000000000003</ele><time>2026-03-28T13:06:52.195Z</time></trkpt><trkpt lat="43.2338162" lon="11.5620031"><ele>209.0</ele><time>2026-03-28T13:06:53.195Z</time></trkpt><trkpt lat="43.2337681" lon="11.5619056"><ele>208.50000000000003</ele><time>2026-03-28T13:06:54.196Z</time></trkpt><trkpt lat="43.2337241" lon="11.5618093"><ele>208.0</ele><time>2026-03-28T13:06:55.195Z</time></trkpt><trkpt lat="43.2336907" lon="11.5617247"><ele>207.5</ele><time>2026-03-28T13:06:56.195Z</time></trkpt><trkpt lat="43.2336945" lon="11.5616373"><ele>207.0</ele><time>2026-03-28T13:06:57.196Z</time></trkpt><trkpt lat="43.2337215" lon="11.5615425"><ele>206.50000000000003</ele><time>2026-03-28T13:06:58.195Z</time></trkpt><trkpt lat="43.233771" lon="11.5614406"><ele>206.0</ele><time>2026-03-28T13:06:59.195Z</time></trkpt><trkpt lat="43.2338335" lon="11.5613227"><ele>205.8</ele><time>2026-03-28T13:07:00.195Z</time></trkpt><trkpt lat="43.2338993" lon="11.5611871"><ele>205.60000000000002</ele><time>2026-03-28T13:07:01.195Z</time></trkpt><trkpt lat="43.2339525" lon="11.5610507"><ele>205.4</ele><time>2026-03-28T13:07:02.196Z</time></trkpt><trkpt lat="43.2339943" lon="11.5609166"><ele>205.2</ele><time>2026-03-28T13:07:03.195Z</time></trkpt><trkpt lat="43.2340186" lon="11.5607714"><ele>205.0</ele><time>2026-03-28T13:07:04.195Z</time></trkpt><trkpt lat="43.2340273" lon="11.5606322"><ele>205.0</ele><time>2026-03-28T13:07:05.195Z</time></trkpt><trkpt lat="43.2340227" lon="11.5604911"><ele>205.0</ele><time>2026-03-28T13:07:06.196Z</time></trkpt><trkpt lat="43.2340205" lon="11.5603491"><ele>205.0</ele><time>2026-03-28T13:07:07.195Z</time></trkpt><trkpt lat="43.2340087" lon="11.5601765"><ele>205.0</ele><time>2026-03-28T13:07:08.195Z</time></trkpt><trkpt lat="43.2339874" lon="11.5600081"><ele>203.75</ele><time>2026-03-28T13:07:09.195Z</time></trkpt><trkpt lat="43.2339702" lon="11.559834"><ele>202.5</ele><time>2026-03-28T13:07:10.195Z</time></trkpt><trkpt lat="43.2339457" lon="11.5596536"><ele>201.25</ele><time>2026-03-28T13:07:11.196Z</time></trkpt><trkpt lat="43.233917" lon="11.5594836"><ele>200.0</ele><time>2026-03-28T13:07:12.195Z</time></trkpt><trkpt lat="43.2338851" lon="11.5593195"><ele>198.0</ele><time>2026-03-28T13:07:13.195Z</time></trkpt><trkpt lat="43.233861" lon="11.5591568"><ele>196.0</ele><time>2026-03-28T13:07:14.195Z</time></trkpt><trkpt lat="43.2338386" lon="11.5589969"><ele>194.0</ele><time>2026-03-28T13:07:15.195Z</time></trkpt><trkpt lat="43.2338208" lon="11.5588357"><ele>192.0</ele><time>2026-03-28T13:07:16.195Z</time></trkpt><trkpt lat="43.2338149" lon="11.5586713"><ele>189.75</ele><time>2026-03-28T13:07:17.196Z</time></trkpt><trkpt lat="43.2338367" lon="11.5585164"><ele>187.5</ele><time>2026-03-28T13:07:18.195Z</time></trkpt><trkpt lat="43.2338902" lon="11.5583688"><ele>185.25</ele><time>2026-03-28T13:07:19.195Z</time></trkpt><trkpt lat="43.2339698" lon="11.5582305"><ele>183.0</ele><time>2026-03-28T13:07:20.195Z</time></trkpt><trkpt lat="43.2340678" lon="11.5580824"><ele>183.0</ele><time>2026-03-28T13:07:21.195Z</time></trkpt><trkpt lat="43.2341736" lon="11.5579272"><ele>183.0</ele><time>2026-03-28T13:07:22.196Z</time></trkpt><trkpt lat="43.2342735" lon="11.5577863"><ele>183.0</ele><time>2026-03-28T13:07:23.195Z</time></trkpt><trkpt lat="43.2343788" lon="11.5576363"><ele>181.5</ele><time>2026-03-28T13:07:24.195Z</time></trkpt><trkpt lat="43.2344733" lon="11.5574915"><ele>180.0</ele><time>2026-03-28T13:07:25.195Z</time></trkpt><trkpt lat="43.2345588" lon="11.5573557"><ele>178.5</ele><time>2026-03-28T13:07:26.196Z</time></trkpt><trkpt lat="43.2346436" lon="11.557233"><ele>177.0</ele><time>2026-03-28T13:07:27.195Z</time></trkpt><trkpt lat="43.2347423" lon="11.5571266"><ele>176.75</ele><time>2026-03-28T13:07:28.196Z</time></trkpt><trkpt lat="43.2348537" lon="11.5570391"><ele>176.5</ele><time>2026-03-28T13:07:29.195Z</time></trkpt><trkpt lat="43.2349716" lon="11.5569656"><ele>176.25</ele><time>2026-03-28T13:07:30.196Z</time></trkpt><trkpt lat="43.23509" lon="11.5568967"><ele>176.0</ele><time>2026-03-28T13:07:31.195Z</time></trkpt><trkpt lat="43.2352083" lon="11.5568298"><ele>176.0</ele><time>2026-03-28T13:07:32.195Z</time></trkpt><trkpt lat="43.2353178" lon="11.5567696"><ele>176.0</ele><time>2026-03-28T13:07:33.196Z</time></trkpt><trkpt lat="43.2354266" lon="11.5567061"><ele>176.0</ele><time>2026-03-28T13:07:34.195Z</time></trkpt><trkpt lat="43.2355232" lon="11.5566484"><ele>176.0</ele><time>2026-03-28T13:07:35.195Z</time></trkpt><trkpt lat="43.2356148" lon="11.5565943"><ele>176.0</ele><time>2026-03-28T13:07:36.196Z</time></trkpt><trkpt lat="43.2357149" lon="11.5565339"><ele>176.20000000000002</ele><time>2026-03-28T13:07:37.196Z</time></trkpt><trkpt lat="43.2358159" lon="11.5564907"><ele>176.4</ele><time>2026-03-28T13:07:38.195Z</time></trkpt><trkpt lat="43.2359125" lon="11.556495"><ele>176.6</ele><time>2026-03-28T13:07:39.195Z</time></trkpt><trkpt lat="43.2360091" lon="11.5565467"><ele>176.8</ele><time>2026-03-28T13:07:40.195Z</time></trkpt><trkpt lat="43.2360921" lon="11.5566423"><ele>177.0</ele><time>2026-03-28T13:07:41.195Z</time></trkpt><trkpt lat="43.2361677" lon="11.5567656"><ele>177.0</ele><time>2026-03-28T13:07:42.195Z</time></trkpt><trkpt lat="43.2362402" lon="11.5569078"><ele>177.0</ele><time>2026-03-28T13:07:43.195Z</time></trkpt><trkpt lat="43.2363184" lon="11.5570507"><ele>177.0</ele><time>2026-03-28T13:07:44.196Z</time></trkpt><trkpt lat="43.2364007" lon="11.5571549"><ele>177.0</ele><time>2026-03-28T13:07:45.196Z</time></trkpt><trkpt lat="43.2364969" lon="11.5572209"><ele>177.66666666666666</ele><time>2026-03-28T13:07:46.195Z</time></trkpt><trkpt lat="43.2365897" lon="11.5572514"><ele>178.33333333333334</ele><time>2026-03-28T13:07:47.196Z</time></trkpt><trkpt lat="43.2366847" lon="11.5572672"><ele>179.0</ele><time>2026-03-28T13:07:48.196Z</time></trkpt><trkpt lat="43.236779" lon="11.5572799"><ele>179.66666666666669</ele><time>2026-03-28T13:07:49.196Z</time></trkpt><trkpt lat="43.236859" lon="11.5572766"><ele>180.33333333333334</ele><time>2026-03-28T13:07:50.195Z</time></trkpt><trkpt lat="43.2369286" lon="11.5572334"><ele>181.0</ele><time>2026-03-28T13:07:51.195Z</time></trkpt><trkpt lat="43.2369775" lon="11.5571612"><ele>181.0</ele><time>2026-03-28T13:07:52.195Z</time></trkpt><trkpt lat="43.2370044" lon="11.55706"><ele>181.0</ele><time>2026-03-28T13:07:53.195Z</time></trkpt><trkpt lat="43.2370165" lon="11.5569258"><ele>181.0</ele><time>2026-03-28T13:07:54.195Z</time></trkpt><trkpt lat="43.2370327" lon="11.5567742"><ele>181.0</ele><time>2026-03-28T13:07:55.195Z</time></trkpt><trkpt lat="43.2370584" lon="11.5566053"><ele>181.0</ele><time>2026-03-28T13:07:56.194Z</time></trkpt><trkpt lat="43.2371031" lon="11.5564319"><ele>179.75</ele><time>2026-03-28T13:07:57.196Z</time></trkpt><trkpt lat="43.2371687" lon="11.5562805"><ele>178.5</ele><time>2026-03-28T13:07:58.195Z</time></trkpt><trkpt lat="43.237254" lon="11.556156"><ele>177.25</ele><time>2026-03-28T13:07:59.195Z</time></trkpt><trkpt lat="43.2373409" lon="11.5560522"><ele>176.0</ele><time>2026-03-28T13:08:00.195Z</time></trkpt><trkpt lat="43.2374246" lon="11.5559409"><ele>176.0</ele><time>2026-03-28T13:08:01.195Z</time></trkpt><trkpt lat="43.2374932" lon="11.5558356"><ele>176.0</ele><time>2026-03-28T13:08:02.195Z</time></trkpt><trkpt lat="43.2375558" lon="11.5557308"><ele>176.0</ele><time>2026-03-28T13:08:03.195Z</time></trkpt><trkpt lat="43.2376267" lon="11.5556337"><ele>176.0</ele><time>2026-03-28T13:08:04.195Z</time></trkpt><trkpt lat="43.2377106" lon="11.5555353"><ele>176.0</ele><time>2026-03-28T13:08:05.195Z</time></trkpt><trkpt lat="43.2378028" lon="11.5554419"><ele>176.0</ele><time>2026-03-28T13:08:06.195Z</time></trkpt><trkpt lat="43.2378976" lon="11.5553684"><ele>176.0</ele><time>2026-03-28T13:08:07.194Z</time></trkpt><trkpt lat="43.2380093" lon="11.5553151"><ele>176.0</ele><time>2026-03-28T13:08:08.195Z</time></trkpt><trkpt lat="43.2381228" lon="11.5552554"><ele>176.0</ele><time>2026-03-28T13:08:09.196Z</time></trkpt><trkpt lat="43.2382263" lon="11.5551999"><ele>176.4</ele><time>2026-03-28T13:08:10.195Z</time></trkpt><trkpt lat="43.2383322" lon="11.5551399"><ele>176.8</ele><time>2026-03-28T13:08:11.195Z</time></trkpt><trkpt lat="43.2384305" lon="11.5550803"><ele>177.20000000000002</ele><time>2026-03-28T13:08:12.195Z</time></trkpt><trkpt lat="43.2385201" lon="11.5550276"><ele>177.60000000000002</ele><time>2026-03-28T13:08:13.195Z</time></trkpt><trkpt lat="43.2386102" lon="11.554978"><ele>178.0</ele><time>2026-03-28T13:08:14.195Z</time></trkpt><trkpt lat="43.2386961" lon="11.5549451"><ele>178.0</ele><time>2026-03-28T13:08:15.196Z</time></trkpt><trkpt lat="43.2387799" lon="11.554957"><ele>178.0</ele><time>2026-03-28T13:08:16.195Z</time></trkpt><trkpt lat="43.2388623" lon="11.5549794"><ele>178.0</ele><time>2026-03-28T13:08:17.195Z</time></trkpt><trkpt lat="43.2389367" lon="11.5549543"><ele>178.0</ele><time>2026-03-28T13:08:18.196Z</time></trkpt><trkpt lat="43.2390027" lon="11.5548919"><ele>178.0</ele><time>2026-03-28T13:08:19.196Z</time></trkpt><trkpt lat="43.2390586" lon="11.5547903"><ele>178.0</ele><time>2026-03-28T13:08:20.196Z</time></trkpt><trkpt lat="43.2391294" lon="11.554685"><ele>177.5</ele><time>2026-03-28T13:08:21.195Z</time></trkpt><trkpt lat="43.2392347" lon="11.5546028"><ele>177.0</ele><time>2026-03-28T13:08:22.195Z</time></trkpt><trkpt lat="43.2393535" lon="11.5545071"><ele>176.5</ele><time>2026-03-28T13:08:23.196Z</time></trkpt><trkpt lat="43.23947" lon="11.5543726"><ele>176.0</ele><time>2026-03-28T13:08:24.196Z</time></trkpt><trkpt lat="43.2395882" lon="11.5542255"><ele>175.5</ele><time>2026-03-28T13:08:25.195Z</time></trkpt><trkpt lat="43.2396964" lon="11.554079"><ele>175.0</ele><time>2026-03-28T13:08:26.196Z</time></trkpt><trkpt lat="43.2397919" lon="11.5539393"><ele>174.5</ele><time>2026-03-28T13:08:27.195Z</time></trkpt><trkpt lat="43.2398849" lon="11.5537958"><ele>174.0</ele><time>2026-03-28T13:08:28.194Z</time></trkpt><trkpt lat="43.2399659" lon="11.5536666"><ele>173.79999999999998</ele><time>2026-03-28T13:08:29.195Z</time></trkpt><trkpt lat="43.2400426" lon="11.5535434"><ele>173.6</ele><time>2026-03-28T13:08:30.195Z</time></trkpt><trkpt lat="43.2401053" lon="11.5534397"><ele>173.4</ele><time>2026-03-28T13:08:31.195Z</time></trkpt><trkpt lat="43.2401635" lon="11.5533461"><ele>173.2</ele><time>2026-03-28T13:08:32.194Z</time></trkpt><trkpt lat="43.2402208" lon="11.553254"><ele>173.0</ele><time>2026-03-28T13:08:33.195Z</time></trkpt><trkpt lat="43.2402804" lon="11.5531796"><ele>173.0</ele><time>2026-03-28T13:08:34.194Z</time></trkpt><trkpt lat="43.2403494" lon="11.5531439"><ele>173.0</ele><time>2026-03-28T13:08:35.195Z</time></trkpt><trkpt lat="43.2404231" lon="11.5531449"><ele>173.0</ele><time>2026-03-28T13:08:36.194Z</time></trkpt><trkpt lat="43.240498" lon="11.5531746"><ele>173.0</ele><time>2026-03-28T13:08:37.194Z</time></trkpt><trkpt lat="43.2405705" lon="11.5532192"><ele>173.0</ele><time>2026-03-28T13:08:38.194Z</time></trkpt><trkpt lat="43.2406459" lon="11.5532699"><ele>173.0</ele><time>2026-03-28T13:08:39.195Z</time></trkpt><trkpt lat="43.2407264" lon="11.5533259"><ele>173.33333333333331</ele><time>2026-03-28T13:08:40.195Z</time></trkpt><trkpt lat="43.2408114" lon="11.5533843"><ele>173.66666666666666</ele><time>2026-03-28T13:08:41.195Z</time></trkpt><trkpt lat="43.2408921" lon="11.5534451"><ele>174.0</ele><time>2026-03-28T13:08:42.194Z</time></trkpt><trkpt lat="43.2409588" lon="11.5534988"><ele>174.33333333333334</ele><time>2026-03-28T13:08:43.194Z</time></trkpt><trkpt lat="43.2410224" lon="11.5535494"><ele>174.66666666666669</ele><time>2026-03-28T13:08:44.195Z</time></trkpt><trkpt lat="43.2410838" lon="11.5536015"><ele>175.0</ele><time>2026-03-28T13:08:45.195Z</time></trkpt><trkpt lat="43.2411466" lon="11.5536567"><ele>174.66666666666669</ele><time>2026-03-28T13:08:46.194Z</time></trkpt><trkpt lat="43.2412148" lon="11.5537091"><ele>174.33333333333334</ele><time>2026-03-28T13:08:47.194Z</time></trkpt><trkpt lat="43.2412874" lon="11.5537574"><ele>174.0</ele><time>2026-03-28T13:08:48.194Z</time></trkpt><trkpt lat="43.2413589" lon="11.5537983"><ele>173.66666666666666</ele><time>2026-03-28T13:08:49.194Z</time></trkpt><trkpt lat="43.2414333" lon="11.5538283"><ele>173.33333333333331</ele><time>2026-03-28T13:08:50.194Z</time></trkpt><trkpt lat="43.2415001" lon="11.5538436"><ele>173.0</ele><time>2026-03-28T13:08:51.194Z</time></trkpt><trkpt lat="43.241572" lon="11.5538505"><ele>173.7142857142857</ele><time>2026-03-28T13:08:52.195Z</time></trkpt><trkpt lat="43.2416386" lon="11.5538452"><ele>174.42857142857144</ele><time>2026-03-28T13:08:53.194Z</time></trkpt><trkpt lat="43.2417023" lon="11.5538339"><ele>175.14285714285714</ele><time>2026-03-28T13:08:54.195Z</time></trkpt><trkpt lat="43.2417708" lon="11.5538313"><ele>175.85714285714283</ele><time>2026-03-28T13:08:55.194Z</time></trkpt><trkpt lat="43.2418399" lon="11.5538393"><ele>176.57142857142856</ele><time>2026-03-28T13:08:56.195Z</time></trkpt><trkpt lat="43.2419082" lon="11.553855"><ele>177.28571428571428</ele><time>2026-03-28T13:08:57.195Z</time></trkpt><trkpt lat="43.241977" lon="11.5538827"><ele>178.0</ele><time>2026-03-28T13:08:58.194Z</time></trkpt><trkpt lat="43.2420519" lon="11.5539154"><ele>178.0</ele><time>2026-03-28T13:08:59.194Z</time></trkpt><trkpt lat="43.2421256" lon="11.5539633"><ele>178.0</ele><time>2026-03-28T13:09:00.194Z</time></trkpt><trkpt lat="43.2421993" lon="11.5540189"><ele>178.0</ele><time>2026-03-28T13:09:01.195Z</time></trkpt><trkpt lat="43.2422741" lon="11.5540781"><ele>178.0</ele><time>2026-03-28T13:09:02.194Z</time></trkpt><trkpt lat="43.2423481" lon="11.5541369"><ele>178.0</ele><time>2026-03-28T13:09:03.194Z</time></trkpt><trkpt lat="43.2424242" lon="11.5541996"><ele>178.0</ele><time>2026-03-28T13:09:04.194Z</time></trkpt><trkpt lat="43.2424979" lon="11.5542588"><ele>180.66666666666669</ele><time>2026-03-28T13:09:05.195Z</time></trkpt><trkpt lat="43.2425725" lon="11.5543178"><ele>183.33333333333334</ele><time>2026-03-28T13:09:06.194Z</time></trkpt><trkpt lat="43.2426447" lon="11.554375"><ele>186.0</ele><time>2026-03-28T13:09:07.194Z</time></trkpt><trkpt lat="43.2427245" lon="11.5544321"><ele>188.66666666666669</ele><time>2026-03-28T13:09:08.194Z</time></trkpt><trkpt lat="43.2428093" lon="11.5544811"><ele>191.33333333333334</ele><time>2026-03-28T13:09:09.194Z</time></trkpt><trkpt lat="43.242902" lon="11.554516"><ele>194.0</ele><time>2026-03-28T13:09:10.195Z</time></trkpt><trkpt lat="43.2429965" lon="11.5545378"><ele>192.79999999999998</ele><time>2026-03-28T13:09:11.195Z</time></trkpt><trkpt lat="43.2430967" lon="11.5545478"><ele>191.6</ele><time>2026-03-28T13:09:12.195Z</time></trkpt><trkpt lat="43.2432027" lon="11.5545514"><ele>190.4</ele><time>2026-03-28T13:09:13.194Z</time></trkpt><trkpt lat="43.2433133" lon="11.5545411"><ele>189.2</ele><time>2026-03-28T13:09:14.194Z</time></trkpt><trkpt lat="43.2434179" lon="11.5545154"><ele>188.0</ele><time>2026-03-28T13:09:15.194Z</time></trkpt><trkpt lat="43.2435329" lon="11.5545021"><ele>188.5</ele><time>2026-03-28T13:09:16.195Z</time></trkpt><trkpt lat="43.2436506" lon="11.5544864"><ele>189.0</ele><time>2026-03-28T13:09:17.194Z</time></trkpt><trkpt lat="43.2437621" lon="11.5544741"><ele>189.5</ele><time>2026-03-28T13:09:18.194Z</time></trkpt><trkpt lat="43.2438704" lon="11.5544585"><ele>190.0</ele><time>2026-03-28T13:09:19.195Z</time></trkpt><trkpt lat="43.2439865" lon="11.5544403"><ele>190.0</ele><time>2026-03-28T13:09:20.194Z</time></trkpt><trkpt lat="43.2441075" lon="11.5544218"><ele>190.0</ele><time>2026-03-28T13:09:21.195Z</time></trkpt><trkpt lat="43.2442348" lon="11.5544068"><ele>190.0</ele><time>2026-03-28T13:09:22.195Z</time></trkpt><trkpt lat="43.2443644" lon="11.5543899"><ele>190.0</ele><time>2026-03-28T13:09:23.195Z</time></trkpt><trkpt lat="43.2444975" lon="11.5543761"><ele>190.0</ele><time>2026-03-28T13:09:24.194Z</time></trkpt><trkpt lat="43.2446346" lon="11.5543633"><ele>190.0</ele><time>2026-03-28T13:09:25.194Z</time></trkpt><trkpt lat="43.244772" lon="11.5543486"><ele>190.0</ele><time>2026-03-28T13:09:26.194Z</time></trkpt><trkpt lat="43.2449104" lon="11.5543295"><ele>190.0</ele><time>2026-03-28T13:09:27.194Z</time></trkpt><trkpt lat="43.2450516" lon="11.5543081"><ele>189.0</ele><time>2026-03-28T13:09:28.194Z</time></trkpt><trkpt lat="43.2451873" lon="11.5542873"><ele>188.0</ele><time>2026-03-28T13:09:29.194Z</time></trkpt><trkpt lat="43.2453249" lon="11.5542679"><ele>187.0</ele><time>2026-03-28T13:09:30.194Z</time></trkpt><trkpt lat="43.2454648" lon="11.554247"><ele>186.0</ele><time>2026-03-28T13:09:31.194Z</time></trkpt><trkpt lat="43.2456074" lon="11.5542247"><ele>183.75</ele><time>2026-03-28T13:09:32.195Z</time></trkpt><trkpt lat="43.2457484" lon="11.5542037"><ele>181.5</ele><time>2026-03-28T13:09:33.195Z</time></trkpt><trkpt lat="43.2458851" lon="11.5541853"><ele>179.25</ele><time>2026-03-28T13:09:34.194Z</time></trkpt><trkpt lat="43.2460224" lon="11.5541665"><ele>177.0</ele><time>2026-03-28T13:09:35.194Z</time></trkpt><trkpt lat="43.2461527" lon="11.5541485"><ele>177.0</ele><time>2026-03-28T13:09:36.194Z</time></trkpt><trkpt lat="43.2462766" lon="11.5541378"><ele>177.0</ele><time>2026-03-28T13:09:37.194Z</time></trkpt><trkpt lat="43.246403" lon="11.5541312"><ele>177.0</ele><time>2026-03-28T13:09:38.195Z</time></trkpt><trkpt lat="43.2465271" lon="11.5541334"><ele>177.0</ele><time>2026-03-28T13:09:39.194Z</time></trkpt><trkpt lat="43.2466407" lon="11.5541525"><ele>175.75</ele><time>2026-03-28T13:09:40.194Z</time></trkpt><trkpt lat="43.2467584" lon="11.5541982"><ele>174.5</ele><time>2026-03-28T13:09:41.194Z</time></trkpt><trkpt lat="43.246875" lon="11.5542638"><ele>173.25</ele><time>2026-03-28T13:09:42.194Z</time></trkpt><trkpt lat="43.2469903" lon="11.5543425"><ele>172.0</ele><time>2026-03-28T13:09:43.194Z</time></trkpt><trkpt lat="43.2471074" lon="11.5544213"><ele>172.0</ele><time>2026-03-28T13:09:44.194Z</time></trkpt><trkpt lat="43.2472263" lon="11.5545063"><ele>172.0</ele><time>2026-03-28T13:09:45.194Z</time></trkpt><trkpt lat="43.2473459" lon="11.5545966"><ele>172.0</ele><time>2026-03-28T13:09:46.194Z</time></trkpt><trkpt lat="43.2474666" lon="11.5546861"><ele>172.0</ele><time>2026-03-28T13:09:47.195Z</time></trkpt><trkpt lat="43.2475887" lon="11.5547738"><ele>173.75</ele><time>2026-03-28T13:09:48.194Z</time></trkpt><trkpt lat="43.2477072" lon="11.5548677"><ele>175.5</ele><time>2026-03-28T13:09:49.194Z</time></trkpt><trkpt lat="43.2478033" lon="11.5549669"><ele>177.25</ele><time>2026-03-28T13:09:50.194Z</time></trkpt><trkpt lat="43.2478884" lon="11.5550821"><ele>179.0</ele><time>2026-03-28T13:09:51.194Z</time></trkpt><trkpt lat="43.2479622" lon="11.5552129"><ele>179.0</ele><time>2026-03-28T13:09:52.194Z</time></trkpt><trkpt lat="43.2480416" lon="11.5553466"><ele>179.0</ele><time>2026-03-28T13:09:53.194Z</time></trkpt><trkpt lat="43.2481351" lon="11.5554765"><ele>179.0</ele><time>2026-03-28T13:09:54.194Z</time></trkpt><trkpt lat="43.2482349" lon="11.5555988"><ele>179.0</ele><time>2026-03-28T13:09:55.195Z</time></trkpt><trkpt lat="43.2483303" lon="11.5556914"><ele>181.0</ele><time>2026-03-28T13:09:56.195Z</time></trkpt><trkpt lat="43.2484326" lon="11.5557757"><ele>183.0</ele><time>2026-03-28T13:09:57.194Z</time></trkpt><trkpt lat="43.2485379" lon="11.5558639"><ele>185.0</ele><time>2026-03-28T13:09:58.194Z</time></trkpt><trkpt lat="43.248643" lon="11.5559536"><ele>187.0</ele><time>2026-03-28T13:09:59.195Z</time></trkpt><trkpt lat="43.2487577" lon="11.5560296"><ele>187.0</ele><time>2026-03-28T13:10:00.194Z</time></trkpt><trkpt lat="43.2488663" lon="11.5560782"><ele>187.0</ele><time>2026-03-28T13:10:01.195Z</time></trkpt><trkpt lat="43.2489828" lon="11.5560945"><ele>187.0</ele><time>2026-03-28T13:10:02.194Z</time></trkpt><trkpt lat="43.2490897" lon="11.5560873"><ele>187.0</ele><time>2026-03-28T13:10:03.194Z</time></trkpt><trkpt lat="43.2491963" lon="11.5560717"><ele>187.0</ele><time>2026-03-28T13:10:04.195Z</time></trkpt><trkpt lat="43.249306" lon="11.5560497"><ele>189.25</ele><time>2026-03-28T13:10:05.195Z</time></trkpt><trkpt lat="43.2494208" lon="11.5560227"><ele>191.5</ele><time>2026-03-28T13:10:06.195Z</time></trkpt><trkpt lat="43.2495432" lon="11.556001"><ele>193.75</ele><time>2026-03-28T13:10:07.195Z</time></trkpt><trkpt lat="43.2496613" lon="11.5559878"><ele>196.0</ele><time>2026-03-28T13:10:08.195Z</time></trkpt><trkpt lat="43.2497836" lon="11.5559782"><ele>196.75</ele><time>2026-03-28T13:10:09.194Z</time></trkpt><trkpt lat="43.2499043" lon="11.5559663"><ele>197.5</ele><time>2026-03-28T13:10:10.193Z</time></trkpt><trkpt lat="43.250018" lon="11.5559359"><ele>198.25</ele><time>2026-03-28T13:10:11.193Z</time></trkpt><trkpt lat="43.2501248" lon="11.5558826"><ele>199.0</ele><time>2026-03-28T13:10:12.194Z</time></trkpt><trkpt lat="43.2502237" lon="11.5558147"><ele>199.0</ele><time>2026-03-28T13:10:13.194Z</time></trkpt><trkpt lat="43.25032" lon="11.5557389"><ele>199.0</ele><time>2026-03-28T13:10:14.195Z</time></trkpt><trkpt lat="43.2504129" lon="11.5556478"><ele>199.0</ele><time>2026-03-28T13:10:15.195Z</time></trkpt><trkpt lat="43.2505015" lon="11.5555479"><ele>199.0</ele><time>2026-03-28T13:10:16.194Z</time></trkpt><trkpt lat="43.2505873" lon="11.555444"><ele>203.0</ele><time>2026-03-28T13:10:17.195Z</time></trkpt><trkpt lat="43.2506752" lon="11.5553466"><ele>207.0</ele><time>2026-03-28T13:10:18.194Z</time></trkpt><trkpt lat="43.2507634" lon="11.5552494"><ele>211.0</ele><time>2026-03-28T13:10:19.195Z</time></trkpt><trkpt lat="43.2508543" lon="11.5551527"><ele>215.0</ele><time>2026-03-28T13:10:20.194Z</time></trkpt><trkpt lat="43.2509497" lon="11.5550689"><ele>215.0</ele><time>2026-03-28T13:10:21.194Z</time></trkpt><trkpt lat="43.2510491" lon="11.5549982"><ele>215.0</ele><time>2026-03-28T13:10:22.195Z</time></trkpt><trkpt lat="43.2511401" lon="11.5549421"><ele>215.0</ele><time>2026-03-28T13:10:23.194Z</time></trkpt><trkpt lat="43.2512383" lon="11.5548902"><ele>215.0</ele><time>2026-03-28T13:10:24.194Z</time></trkpt><trkpt lat="43.2513425" lon="11.5548479"><ele>215.0</ele><time>2026-03-28T13:10:25.195Z</time></trkpt><trkpt lat="43.2514495" lon="11.5548053"><ele>214.5</ele><time>2026-03-28T13:10:26.195Z</time></trkpt><trkpt lat="43.2515633" lon="11.5547623"><ele>214.0</ele><time>2026-03-28T13:10:27.194Z</time></trkpt><trkpt lat="43.2516832" lon="11.5547225"><ele>213.5</ele><time>2026-03-28T13:10:28.194Z</time></trkpt><trkpt lat="43.2518016" lon="11.5546854"><ele>213.0</ele><time>2026-03-28T13:10:29.194Z</time></trkpt><trkpt lat="43.2519086" lon="11.5546603"><ele>213.0</ele><time>2026-03-28T13:10:30.194Z</time></trkpt><trkpt lat="43.2520151" lon="11.5546415"><ele>213.0</ele><time>2026-03-28T13:10:31.194Z</time></trkpt><trkpt lat="43.2521201" lon="11.5546334"><ele>213.0</ele><time>2026-03-28T13:10:32.194Z</time></trkpt><trkpt lat="43.252223" lon="11.554639"><ele>213.0</ele><time>2026-03-28T13:10:33.195Z</time></trkpt><trkpt lat="43.2523313" lon="11.5546629"><ele>213.0</ele><time>2026-03-28T13:10:34.194Z</time></trkpt><trkpt lat="43.2524451" lon="11.5546992"><ele>213.25</ele><time>2026-03-28T13:10:35.195Z</time></trkpt><trkpt lat="43.2525715" lon="11.554729"><ele>213.5</ele><time>2026-03-28T13:10:36.194Z</time></trkpt><trkpt lat="43.2527012" lon="11.5547413"><ele>213.75</ele><time>2026-03-28T13:10:37.195Z</time></trkpt><trkpt lat="43.2528197" lon="11.5547275"><ele>214.0</ele><time>2026-03-28T13:10:38.194Z</time></trkpt><trkpt lat="43.25294" lon="11.5547045"><ele>214.0</ele><time>2026-03-28T13:10:39.195Z</time></trkpt><trkpt lat="43.2530587" lon="11.5546774"><ele>214.0</ele><time>2026-03-28T13:10:40.194Z</time></trkpt><trkpt lat="43.2531811" lon="11.5546358"><ele>214.0</ele><time>2026-03-28T13:10:41.193Z</time></trkpt><trkpt lat="43.2533026" lon="11.554579"><ele>214.0</ele><time>2026-03-28T13:10:42.194Z</time></trkpt><trkpt lat="43.2534171" lon="11.5545064"><ele>217.6</ele><time>2026-03-28T13:10:43.195Z</time></trkpt><trkpt lat="43.2535199" lon="11.5544311"><ele>221.2</ele><time>2026-03-28T13:10:44.195Z</time></trkpt><trkpt lat="43.2536065" lon="11.5543684"><ele>224.79999999999998</ele><time>2026-03-28T13:10:45.195Z</time></trkpt><trkpt lat="43.2536831" lon="11.554307"><ele>228.39999999999998</ele><time>2026-03-28T13:10:46.194Z</time></trkpt><trkpt lat="43.2537657" lon="11.5542385"><ele>232.0</ele><time>2026-03-28T13:10:47.194Z</time></trkpt><trkpt lat="43.2538451" lon="11.5541662"><ele>232.0</ele><time>2026-03-28T13:10:48.195Z</time></trkpt><trkpt lat="43.2539238" lon="11.5540637"><ele>232.0</ele><time>2026-03-28T13:10:49.194Z</time></trkpt><trkpt lat="43.2539828" lon="11.5539419"><ele>232.0</ele><time>2026-03-28T13:10:50.194Z</time></trkpt><trkpt lat="43.2540291" lon="11.5538053"><ele>232.0</ele><time>2026-03-28T13:10:51.195Z</time></trkpt><trkpt lat="43.2540549" lon="11.5536666"><ele>232.0</ele><time>2026-03-28T13:10:52.194Z</time></trkpt><trkpt lat="43.2540692" lon="11.5535294"><ele>234.6</ele><time>2026-03-28T13:10:53.194Z</time></trkpt><trkpt lat="43.2540867" lon="11.553392"><ele>237.2</ele><time>2026-03-28T13:10:54.194Z</time></trkpt><trkpt lat="43.2541203" lon="11.5532575"><ele>239.8</ele><time>2026-03-28T13:10:55.195Z</time></trkpt><trkpt lat="43.2541694" lon="11.5531366"><ele>242.4</ele><time>2026-03-28T13:10:56.195Z</time></trkpt><trkpt lat="43.2542316" lon="11.5530454"><ele>245.0</ele><time>2026-03-28T13:10:57.194Z</time></trkpt><trkpt lat="43.2543042" lon="11.5529888"><ele>245.00000000000003</ele><time>2026-03-28T13:10:58.195Z</time></trkpt><trkpt lat="43.2543856" lon="11.5529591"><ele>245.0</ele><time>2026-03-28T13:10:59.194Z</time></trkpt><trkpt lat="43.2544753" lon="11.5529493"><ele>245.0</ele><time>2026-03-28T13:11:00.194Z</time></trkpt><trkpt lat="43.25457" lon="11.5529492"><ele>245.0</ele><time>2026-03-28T13:11:01.195Z</time></trkpt><trkpt lat="43.2546544" lon="11.5529425"><ele>245.00000000000003</ele><time>2026-03-28T13:11:02.194Z</time></trkpt><trkpt lat="43.2547466" lon="11.5529343"><ele>245.0</ele><time>2026-03-28T13:11:03.194Z</time></trkpt><trkpt lat="43.2548427" lon="11.5529302"><ele>245.6</ele><time>2026-03-28T13:11:04.194Z</time></trkpt><trkpt lat="43.2549373" lon="11.5529254"><ele>246.2</ele><time>2026-03-28T13:11:05.194Z</time></trkpt><trkpt lat="43.2550195" lon="11.5529179"><ele>246.8</ele><time>2026-03-28T13:11:06.195Z</time></trkpt><trkpt lat="43.2551082" lon="11.5529163"><ele>247.4</ele><time>2026-03-28T13:11:07.194Z</time></trkpt><trkpt lat="43.255201" lon="11.5529141"><ele>248.0</ele><time>2026-03-28T13:11:08.194Z</time></trkpt><trkpt lat="43.255297" lon="11.5529099"><ele>248.0</ele><time>2026-03-28T13:11:09.194Z</time></trkpt><trkpt lat="43.2553826" lon="11.552912"><ele>248.0</ele><time>2026-03-28T13:11:10.194Z</time></trkpt><trkpt lat="43.2554766" lon="11.5529253"><ele>248.0</ele><time>2026-03-28T13:11:11.194Z</time></trkpt><trkpt lat="43.2555715" lon="11.5529487"><ele>248.0</ele><time>2026-03-28T13:11:12.194Z</time></trkpt><trkpt lat="43.2556613" lon="11.5529813"><ele>248.0</ele><time>2026-03-28T13:11:13.194Z</time></trkpt><trkpt lat="43.2557519" lon="11.5530287"><ele>248.8</ele><time>2026-03-28T13:11:14.195Z</time></trkpt><trkpt lat="43.255843" lon="11.5530838"><ele>249.60000000000002</ele><time>2026-03-28T13:11:15.195Z</time></trkpt><trkpt lat="43.2559329" lon="11.5531377"><ele>250.39999999999998</ele><time>2026-03-28T13:11:16.194Z</time></trkpt><trkpt lat="43.256023" lon="11.5531925"><ele>251.2</ele><time>2026-03-28T13:11:17.194Z</time></trkpt><trkpt lat="43.2561074" lon="11.5532455"><ele>252.0</ele><time>2026-03-28T13:11:18.194Z</time></trkpt><trkpt lat="43.2561898" lon="11.5533018"><ele>252.0</ele><time>2026-03-28T13:11:19.194Z</time></trkpt><trkpt lat="43.2562779" lon="11.5533598"><ele>252.0</ele><time>2026-03-28T13:11:20.194Z</time></trkpt><trkpt lat="43.256375" lon="11.5534165"><ele>252.0</ele><time>2026-03-28T13:11:21.194Z</time></trkpt><trkpt lat="43.2564671" lon="11.5534804"><ele>252.0</ele><time>2026-03-28T13:11:22.194Z</time></trkpt><trkpt lat="43.256557" lon="11.5535437"><ele>252.0</ele><time>2026-03-28T13:11:23.194Z</time></trkpt><trkpt lat="43.2566554" lon="11.5536092"><ele>251.8</ele><time>2026-03-28T13:11:24.195Z</time></trkpt><trkpt lat="43.2567487" lon="11.5536629"><ele>251.6</ele><time>2026-03-28T13:11:25.194Z</time></trkpt><trkpt lat="43.2568501" lon="11.5536985"><ele>251.40000000000003</ele><time>2026-03-28T13:11:26.193Z</time></trkpt><trkpt lat="43.2569593" lon="11.5537187"><ele>251.20000000000002</ele><time>2026-03-28T13:11:27.194Z</time></trkpt><trkpt lat="43.2570731" lon="11.5537156"><ele>251.0</ele><time>2026-03-28T13:11:28.194Z</time></trkpt><trkpt lat="43.2571892" lon="11.5536945"><ele>251.25</ele><time>2026-03-28T13:11:29.195Z</time></trkpt><trkpt lat="43.2573053" lon="11.5536671"><ele>251.5</ele><time>2026-03-28T13:11:30.194Z</time></trkpt><trkpt lat="43.257415" lon="11.5536364"><ele>251.75</ele><time>2026-03-28T13:11:31.194Z</time></trkpt><trkpt lat="43.2575285" lon="11.5535949"><ele>252.0</ele><time>2026-03-28T13:11:32.195Z</time></trkpt><trkpt lat="43.2576374" lon="11.5535502"><ele>252.0</ele><time>2026-03-28T13:11:33.194Z</time></trkpt><trkpt lat="43.2577489" lon="11.5534968"><ele>252.0</ele><time>2026-03-28T13:11:34.194Z</time></trkpt><trkpt lat="43.2578687" lon="11.5534338"><ele>252.0</ele><time>2026-03-28T13:11:35.194Z</time></trkpt><trkpt lat="43.2579875" lon="11.5533766"><ele>252.0</ele><time>2026-03-28T13:11:36.194Z</time></trkpt><trkpt lat="43.2581059" lon="11.5533287"><ele>252.0</ele><time>2026-03-28T13:11:37.194Z</time></trkpt><trkpt lat="43.2582312" lon="11.55329"><ele>252.0</ele><time>2026-03-28T13:11:38.194Z</time></trkpt><trkpt lat="43.2583621" lon="11.5532539"><ele>252.0</ele><time>2026-03-28T13:11:39.194Z</time></trkpt><trkpt lat="43.2584979" lon="11.5532207"><ele>252.0</ele><time>2026-03-28T13:11:40.194Z</time></trkpt><trkpt lat="43.2586421" lon="11.5531851"><ele>252.0</ele><time>2026-03-28T13:11:41.194Z</time></trkpt><trkpt lat="43.2587763" lon="11.553146"><ele>252.0</ele><time>2026-03-28T13:11:42.194Z</time></trkpt><trkpt lat="43.2589042" lon="11.5530911"><ele>252.0</ele><time>2026-03-28T13:11:43.194Z</time></trkpt><trkpt lat="43.2590309" lon="11.5530058"><ele>252.0</ele><time>2026-03-28T13:11:44.194Z</time></trkpt><trkpt lat="43.2591442" lon="11.5528951"><ele>250.5</ele><time>2026-03-28T13:11:45.194Z</time></trkpt><trkpt lat="43.259249" lon="11.5527627"><ele>249.0</ele><time>2026-03-28T13:11:46.195Z</time></trkpt><trkpt lat="43.2593523" lon="11.5526229"><ele>247.5</ele><time>2026-03-28T13:11:47.194Z</time></trkpt><trkpt lat="43.2594396" lon="11.5524696"><ele>246.0</ele><time>2026-03-28T13:11:48.195Z</time></trkpt><trkpt lat="43.2595086" lon="11.5523029"><ele>246.0</ele><time>2026-03-28T13:11:49.195Z</time></trkpt><trkpt lat="43.2595633" lon="11.5521261"><ele>246.0</ele><time>2026-03-28T13:11:50.194Z</time></trkpt><trkpt lat="43.2596081" lon="11.551943"><ele>246.0</ele><time>2026-03-28T13:11:51.195Z</time></trkpt><trkpt lat="43.2596511" lon="11.5517592"><ele>246.0</ele><time>2026-03-28T13:11:52.194Z</time></trkpt><trkpt lat="43.2596935" lon="11.5515807"><ele>246.0</ele><time>2026-03-28T13:11:53.194Z</time></trkpt><trkpt lat="43.2597289" lon="11.551434"><ele>246.00000000000003</ele><time>2026-03-28T13:11:54.194Z</time></trkpt><trkpt lat="43.2597636" lon="11.551291"><ele>246.00000000000003</ele><time>2026-03-28T13:11:55.194Z</time></trkpt><trkpt lat="43.2598087" lon="11.5511459"><ele>246.0</ele><time>2026-03-28T13:11:56.194Z</time></trkpt><trkpt lat="43.2598607" lon="11.5510153"><ele>246.0</ele><time>2026-03-28T13:11:57.195Z</time></trkpt><trkpt lat="43.2599226" lon="11.5508938"><ele>246.4</ele><time>2026-03-28T13:11:58.195Z</time></trkpt><trkpt lat="43.2599855" lon="11.5507783"><ele>246.8</ele><time>2026-03-28T13:11:59.195Z</time></trkpt><trkpt lat="43.2600579" lon="11.5506496"><ele>247.20000000000002</ele><time>2026-03-28T13:12:00.194Z</time></trkpt><trkpt lat="43.2601278" lon="11.5505336"><ele>247.60000000000002</ele><time>2026-03-28T13:12:01.194Z</time></trkpt><trkpt lat="43.2602012" lon="11.5504165"><ele>248.0</ele><time>2026-03-28T13:12:02.194Z</time></trkpt><trkpt lat="43.2602805" lon="11.5503029"><ele>246.25</ele><time>2026-03-28T13:12:03.194Z</time></trkpt><trkpt lat="43.2603683" lon="11.5502036"><ele>244.5</ele><time>2026-03-28T13:12:04.195Z</time></trkpt><trkpt lat="43.2604748" lon="11.5501161"><ele>242.75</ele><time>2026-03-28T13:12:05.194Z</time></trkpt><trkpt lat="43.2605958" lon="11.5500424"><ele>241.0</ele><time>2026-03-28T13:12:06.194Z</time></trkpt><trkpt lat="43.2607245" lon="11.5499874"><ele>239.0</ele><time>2026-03-28T13:12:07.195Z</time></trkpt><trkpt lat="43.2608595" lon="11.549952"><ele>237.0</ele><time>2026-03-28T13:12:08.194Z</time></trkpt><trkpt lat="43.2609876" lon="11.5499408"><ele>235.0</ele><time>2026-03-28T13:12:09.194Z</time></trkpt><trkpt lat="43.261104" lon="11.5499557"><ele>233.0</ele><time>2026-03-28T13:12:10.195Z</time></trkpt><trkpt lat="43.2612239" lon="11.5499769"><ele>233.0</ele><time>2026-03-28T13:12:11.194Z</time></trkpt><trkpt lat="43.261352" lon="11.5499883"><ele>233.0</ele><time>2026-03-28T13:12:12.193Z</time></trkpt><trkpt lat="43.2614846" lon="11.549976"><ele>233.0</ele><time>2026-03-28T13:12:13.194Z</time></trkpt><trkpt lat="43.2616089" lon="11.5499429"><ele>233.0</ele><time>2026-03-28T13:12:14.195Z</time></trkpt><trkpt lat="43.261732" lon="11.5498895"><ele>233.5</ele><time>2026-03-28T13:12:15.195Z</time></trkpt><trkpt lat="43.2618524" lon="11.5498176"><ele>234.0</ele><time>2026-03-28T13:12:16.194Z</time></trkpt><trkpt lat="43.2619681" lon="11.5497271"><ele>234.5</ele><time>2026-03-28T13:12:17.195Z</time></trkpt><trkpt lat="43.262076" lon="11.5496214"><ele>235.0</ele><time>2026-03-28T13:12:18.195Z</time></trkpt><trkpt lat="43.2621795" lon="11.5495117"><ele>235.5</ele><time>2026-03-28T13:12:19.195Z</time></trkpt><trkpt lat="43.2622756" lon="11.549404"><ele>236.0</ele><time>2026-03-28T13:12:20.194Z</time></trkpt><trkpt lat="43.2623763" lon="11.5492848"><ele>236.5</ele><time>2026-03-28T13:12:21.194Z</time></trkpt><trkpt lat="43.2624705" lon="11.5491568"><ele>237.0</ele><time>2026-03-28T13:12:22.195Z</time></trkpt><trkpt lat="43.2625563" lon="11.54902"><ele>239.25</ele><time>2026-03-28T13:12:23.194Z</time></trkpt><trkpt lat="43.2626348" lon="11.5488807"><ele>241.5</ele><time>2026-03-28T13:12:24.195Z</time></trkpt><trkpt lat="43.2627089" lon="11.5487357"><ele>243.75</ele><time>2026-03-28T13:12:25.194Z</time></trkpt><trkpt lat="43.2627838" lon="11.5485889"><ele>246.0</ele><time>2026-03-28T13:12:26.194Z</time></trkpt><trkpt lat="43.2628607" lon="11.5484511"><ele>248.0</ele><time>2026-03-28T13:12:27.194Z</time></trkpt><trkpt lat="43.2629393" lon="11.5483162"><ele>250.0</ele><time>2026-03-28T13:12:28.195Z</time></trkpt><trkpt lat="43.26301" lon="11.5481746"><ele>252.0</ele><time>2026-03-28T13:12:29.193Z</time></trkpt><trkpt lat="43.2630666" lon="11.5480244"><ele>254.0</ele><time>2026-03-28T13:12:30.195Z</time></trkpt><trkpt lat="43.2631219" lon="11.5478738"><ele>256.5</ele><time>2026-03-28T13:12:31.194Z</time></trkpt><trkpt lat="43.2631848" lon="11.5477231"><ele>259.0</ele><time>2026-03-28T13:12:32.194Z</time></trkpt><trkpt lat="43.2632543" lon="11.5475716"><ele>261.5</ele><time>2026-03-28T13:12:33.194Z</time></trkpt><trkpt lat="43.2633303" lon="11.5474415"><ele>264.0</ele><time>2026-03-28T13:12:34.194Z</time></trkpt><trkpt lat="43.2634131" lon="11.547333"><ele>264.0</ele><time>2026-03-28T13:12:35.194Z</time></trkpt><trkpt lat="43.2635013" lon="11.547238"><ele>264.0</ele><time>2026-03-28T13:12:36.194Z</time></trkpt><trkpt lat="43.2635951" lon="11.5471456"><ele>264.0</ele><time>2026-03-28T13:12:37.194Z</time></trkpt><trkpt lat="43.2636971" lon="11.5470478"><ele>264.0</ele><time>2026-03-28T13:12:38.194Z</time></trkpt><trkpt lat="43.2638076" lon="11.5469456"><ele>264.0</ele><time>2026-03-28T13:12:39.194Z</time></trkpt><trkpt lat="43.2639202" lon="11.5468371"><ele>264.0</ele><time>2026-03-28T13:12:40.194Z</time></trkpt><trkpt lat="43.2640293" lon="11.5467294"><ele>264.0</ele><time>2026-03-28T13:12:41.195Z</time></trkpt><trkpt lat="43.2641358" lon="11.5466179"><ele>264.0</ele><time>2026-03-28T13:12:42.194Z</time></trkpt><trkpt lat="43.2642307" lon="11.546506"><ele>264.0</ele><time>2026-03-28T13:12:43.194Z</time></trkpt><trkpt lat="43.2643148" lon="11.5463783"><ele>264.0</ele><time>2026-03-28T13:12:44.194Z</time></trkpt><trkpt lat="43.2643859" lon="11.546245"><ele>264.0</ele><time>2026-03-28T13:12:45.194Z</time></trkpt><trkpt lat="43.264443" lon="11.5461133"><ele>264.0</ele><time>2026-03-28T13:12:46.194Z</time></trkpt><trkpt lat="43.2644915" lon="11.5459656"><ele>267.0</ele><time>2026-03-28T13:12:47.194Z</time></trkpt><trkpt lat="43.2645275" lon="11.5458087"><ele>270.0</ele><time>2026-03-28T13:12:48.194Z</time></trkpt><trkpt lat="43.2645519" lon="11.5456572"><ele>273.0</ele><time>2026-03-28T13:12:49.194Z</time></trkpt><trkpt lat="43.2645763" lon="11.545504"><ele>276.0</ele><time>2026-03-28T13:12:50.194Z</time></trkpt><trkpt lat="43.2646013" lon="11.5453607"><ele>276.2</ele><time>2026-03-28T13:12:51.194Z</time></trkpt><trkpt lat="43.2646266" lon="11.5452075"><ele>276.40000000000003</ele><time>2026-03-28T13:12:52.195Z</time></trkpt><trkpt lat="43.2646451" lon="11.5450722"><ele>276.6</ele><time>2026-03-28T13:12:53.195Z</time></trkpt><trkpt lat="43.2646635" lon="11.5449356"><ele>276.8</ele><time>2026-03-28T13:12:54.194Z</time></trkpt><trkpt lat="43.2646868" lon="11.5448047"><ele>277.0</ele><time>2026-03-28T13:12:55.195Z</time></trkpt><trkpt lat="43.2647212" lon="11.5446773"><ele>277.0</ele><time>2026-03-28T13:12:56.195Z</time></trkpt><trkpt lat="43.2647704" lon="11.5445527"><ele>277.0</ele><time>2026-03-28T13:12:57.194Z</time></trkpt><trkpt lat="43.2648288" lon="11.5444304"><ele>277.0</ele><time>2026-03-28T13:12:58.194Z</time></trkpt><trkpt lat="43.2648947" lon="11.5443189"><ele>277.0</ele><time>2026-03-28T13:12:59.194Z</time></trkpt><trkpt lat="43.2649577" lon="11.5442096"><ele>277.0</ele><time>2026-03-28T13:13:00.194Z</time></trkpt><trkpt lat="43.2650127" lon="11.544089"><ele>272.2</ele><time>2026-03-28T13:13:01.194Z</time></trkpt><trkpt lat="43.2650642" lon="11.5439561"><ele>267.4</ele><time>2026-03-28T13:13:02.195Z</time></trkpt><trkpt lat="43.265112" lon="11.54382"><ele>262.6</ele><time>2026-03-28T13:13:03.194Z</time></trkpt><trkpt lat="43.2651571" lon="11.5436762"><ele>257.8</ele><time>2026-03-28T13:13:04.195Z</time></trkpt><trkpt lat="43.2651958" lon="11.5435265"><ele>253.0</ele><time>2026-03-28T13:13:05.194Z</time></trkpt><trkpt lat="43.2652265" lon="11.5433716"><ele>250.75</ele><time>2026-03-28T13:13:06.194Z</time></trkpt><trkpt lat="43.2652359" lon="11.5432095"><ele>248.5</ele><time>2026-03-28T13:13:07.194Z</time></trkpt><trkpt lat="43.2652301" lon="11.5430411"><ele>246.25</ele><time>2026-03-28T13:13:08.194Z</time></trkpt><trkpt lat="43.2652202" lon="11.542873"><ele>244.0</ele><time>2026-03-28T13:13:09.194Z</time></trkpt><trkpt lat="43.2652157" lon="11.542705"><ele>242.25</ele><time>2026-03-28T13:13:10.195Z</time></trkpt><trkpt lat="43.2652308" lon="11.5425421"><ele>240.5</ele><time>2026-03-28T13:13:11.194Z</time></trkpt><trkpt lat="43.2652621" lon="11.5423823"><ele>238.75</ele><time>2026-03-28T13:13:12.195Z</time></trkpt><trkpt lat="43.2653112" lon="11.5422246"><ele>237.0</ele><time>2026-03-28T13:13:13.195Z</time></trkpt><trkpt lat="43.2653684" lon="11.5420696"><ele>236.25</ele><time>2026-03-28T13:13:14.195Z</time></trkpt><trkpt lat="43.2654234" lon="11.5419008"><ele>235.5</ele><time>2026-03-28T13:13:15.195Z</time></trkpt><trkpt lat="43.265471" lon="11.5417149"><ele>234.75</ele><time>2026-03-28T13:13:16.194Z</time></trkpt><trkpt lat="43.2655068" lon="11.5415181"><ele>234.0</ele><time>2026-03-28T13:13:17.195Z</time></trkpt><trkpt lat="43.2655275" lon="11.5413116"><ele>235.0</ele><time>2026-03-28T13:13:18.194Z</time></trkpt><trkpt lat="43.265547" lon="11.5411024"><ele>236.0</ele><time>2026-03-28T13:13:19.194Z</time></trkpt><trkpt lat="43.2655598" lon="11.5409142"><ele>237.0</ele><time>2026-03-28T13:13:20.195Z</time></trkpt><trkpt lat="43.2655808" lon="11.540756"><ele>238.0</ele><time>2026-03-28T13:13:21.195Z</time></trkpt><trkpt lat="43.2656255" lon="11.5406144"><ele>239.0</ele><time>2026-03-28T13:13:22.195Z</time></trkpt><trkpt lat="43.2656823" lon="11.5404946"><ele>240.0</ele><time>2026-03-28T13:13:23.195Z</time></trkpt><trkpt lat="43.2657571" lon="11.5403825"><ele>241.0</ele><time>2026-03-28T13:13:24.194Z</time></trkpt><trkpt lat="43.2658323" lon="11.540273"><ele>242.0</ele><time>2026-03-28T13:13:25.194Z</time></trkpt><trkpt lat="43.2659179" lon="11.5401498"><ele>243.0</ele><time>2026-03-28T13:13:26.194Z</time></trkpt><trkpt lat="43.2660057" lon="11.5400192"><ele>244.0</ele><time>2026-03-28T13:13:27.194Z</time></trkpt><trkpt lat="43.2660898" lon="11.5398908"><ele>245.0</ele><time>2026-03-28T13:13:28.194Z</time></trkpt><trkpt lat="43.2661718" lon="11.5397676"><ele>246.0</ele><time>2026-03-28T13:13:29.194Z</time></trkpt><trkpt lat="43.2662504" lon="11.5396452"><ele>247.0</ele><time>2026-03-28T13:13:30.194Z</time></trkpt><trkpt lat="43.2663248" lon="11.539516"><ele>248.25</ele><time>2026-03-28T13:13:31.195Z</time></trkpt><trkpt lat="43.2663985" lon="11.5393753"><ele>249.5</ele><time>2026-03-28T13:13:32.195Z</time></trkpt><trkpt lat="43.2664712" lon="11.539245"><ele>250.75</ele><time>2026-03-28T13:13:33.194Z</time></trkpt><trkpt lat="43.266557" lon="11.539144"><ele>252.0</ele><time>2026-03-28T13:13:34.194Z</time></trkpt><trkpt lat="43.2666438" lon="11.5390759"><ele>249.2</ele><time>2026-03-28T13:13:35.195Z</time></trkpt><trkpt lat="43.2667296" lon="11.5390219"><ele>246.39999999999998</ele><time>2026-03-28T13:13:36.194Z</time></trkpt><trkpt lat="43.2668167" lon="11.5389686"><ele>243.60000000000002</ele><time>2026-03-28T13:13:37.195Z</time></trkpt><trkpt lat="43.2669028" lon="11.5389236"><ele>240.8</ele><time>2026-03-28T13:13:38.195Z</time></trkpt><trkpt lat="43.2670045" lon="11.5388601"><ele>238.0</ele><time>2026-03-28T13:13:39.195Z</time></trkpt><trkpt lat="43.2671094" lon="11.5387941"><ele>238.0</ele><time>2026-03-28T13:13:40.195Z</time></trkpt><trkpt lat="43.2672067" lon="11.5387308"><ele>238.0</ele><time>2026-03-28T13:13:41.194Z</time></trkpt><trkpt lat="43.2673021" lon="11.5386644"><ele>238.0</ele><time>2026-03-28T13:13:42.194Z</time></trkpt><trkpt lat="43.2673971" lon="11.5386"><ele>238.0</ele><time>2026-03-28T13:13:43.194Z</time></trkpt><trkpt lat="43.2674854" lon="11.5385411"><ele>238.0</ele><time>2026-03-28T13:13:44.193Z</time></trkpt><trkpt lat="43.2675716" lon="11.538482"><ele>237.0</ele><time>2026-03-28T13:13:45.194Z</time></trkpt><trkpt lat="43.2676556" lon="11.5384236"><ele>236.0</ele><time>2026-03-28T13:13:46.195Z</time></trkpt><trkpt lat="43.2677351" lon="11.5383662"><ele>235.0</ele><time>2026-03-28T13:13:47.194Z</time></trkpt><trkpt lat="43.2678197" lon="11.5383021"><ele>234.0</ele><time>2026-03-28T13:13:48.194Z</time></trkpt><trkpt lat="43.2679006" lon="11.5382404"><ele>233.0</ele><time>2026-03-28T13:13:49.194Z</time></trkpt><trkpt lat="43.2679829" lon="11.5381812"><ele>233.0</ele><time>2026-03-28T13:13:50.194Z</time></trkpt><trkpt lat="43.2680695" lon="11.5381255"><ele>233.0</ele><time>2026-03-28T13:13:51.195Z</time></trkpt><trkpt lat="43.2681546" lon="11.5380686"><ele>233.0</ele><time>2026-03-28T13:13:52.195Z</time></trkpt><trkpt lat="43.2682365" lon="11.5380128"><ele>233.0</ele><time>2026-03-28T13:13:53.195Z</time></trkpt><trkpt lat="43.2683188" lon="11.5379561"><ele>233.0</ele><time>2026-03-28T13:13:54.194Z</time></trkpt><trkpt lat="43.2684" lon="11.5378973"><ele>229.8</ele><time>2026-03-28T13:13:55.194Z</time></trkpt><trkpt lat="43.2684882" lon="11.5378336"><ele>226.60000000000002</ele><time>2026-03-28T13:13:56.194Z</time></trkpt><trkpt lat="43.268579" lon="11.5377789"><ele>223.39999999999998</ele><time>2026-03-28T13:13:57.194Z</time></trkpt><trkpt lat="43.2686837" lon="11.5377427"><ele>220.2</ele><time>2026-03-28T13:13:58.194Z</time></trkpt><trkpt lat="43.2687904" lon="11.5377388"><ele>217.0</ele><time>2026-03-28T13:13:59.195Z</time></trkpt><trkpt lat="43.2689003" lon="11.537758"><ele>214.2</ele><time>2026-03-28T13:14:00.194Z</time></trkpt><trkpt lat="43.2690124" lon="11.5377965"><ele>211.39999999999998</ele><time>2026-03-28T13:14:01.194Z</time></trkpt><trkpt lat="43.2691175" lon="11.537828"><ele>208.60000000000002</ele><time>2026-03-28T13:14:02.194Z</time></trkpt><trkpt lat="43.2692276" lon="11.5378444"><ele>205.8</ele><time>2026-03-28T13:14:03.194Z</time></trkpt><trkpt lat="43.2693428" lon="11.5378451"><ele>203.0</ele><time>2026-03-28T13:14:04.195Z</time></trkpt><trkpt lat="43.2694545" lon="11.5378258"><ele>203.0</ele><time>2026-03-28T13:14:05.194Z</time></trkpt><trkpt lat="43.269566" lon="11.5377899"><ele>203.0</ele><time>2026-03-28T13:14:06.195Z</time></trkpt><trkpt lat="43.2696779" lon="11.5377444"><ele>203.0</ele><time>2026-03-28T13:14:07.194Z</time></trkpt><trkpt lat="43.2697985" lon="11.5376827"><ele>203.0</ele><time>2026-03-28T13:14:08.195Z</time></trkpt><trkpt lat="43.2699164" lon="11.5376235"><ele>199.75</ele><time>2026-03-28T13:14:09.194Z</time></trkpt><trkpt lat="43.270037" lon="11.5375968"><ele>196.5</ele><time>2026-03-28T13:14:10.194Z</time></trkpt><trkpt lat="43.2701553" lon="11.5375999"><ele>193.25</ele><time>2026-03-28T13:14:11.194Z</time></trkpt><trkpt lat="43.2702672" lon="11.5376278"><ele>190.0</ele><time>2026-03-28T13:14:12.195Z</time></trkpt><trkpt lat="43.2703817" lon="11.5376721"><ele>190.0</ele><time>2026-03-28T13:14:13.194Z</time></trkpt><trkpt lat="43.2705045" lon="11.5377062"><ele>190.0</ele><time>2026-03-28T13:14:14.194Z</time></trkpt><trkpt lat="43.2706179" lon="11.5377301"><ele>190.0</ele><time>2026-03-28T13:14:15.194Z</time></trkpt><trkpt lat="43.2707218" lon="11.5377819"><ele>190.0</ele><time>2026-03-28T13:14:16.195Z</time></trkpt><trkpt lat="43.2708329" lon="11.5378494"><ele>188.25</ele><time>2026-03-28T13:14:17.194Z</time></trkpt><trkpt lat="43.2709392" lon="11.5379258"><ele>186.5</ele><time>2026-03-28T13:14:18.194Z</time></trkpt><trkpt lat="43.2710471" lon="11.5380265"><ele>184.75</ele><time>2026-03-28T13:14:19.194Z</time></trkpt><trkpt lat="43.2711357" lon="11.5381426"><ele>183.0</ele><time>2026-03-28T13:14:20.194Z</time></trkpt><trkpt lat="43.2712135" lon="11.5382762"><ele>183.0</ele><time>2026-03-28T13:14:21.194Z</time></trkpt><trkpt lat="43.271285" lon="11.5384204"><ele>183.0</ele><time>2026-03-28T13:14:22.194Z</time></trkpt><trkpt lat="43.2713536" lon="11.5385714"><ele>183.0</ele><time>2026-03-28T13:14:23.195Z</time></trkpt><trkpt lat="43.271417" lon="11.5387263"><ele>183.0</ele><time>2026-03-28T13:14:24.195Z</time></trkpt><trkpt lat="43.2714851" lon="11.5388904"><ele>184.0</ele><time>2026-03-28T13:14:25.194Z</time></trkpt><trkpt lat="43.2715545" lon="11.5390592"><ele>185.0</ele><time>2026-03-28T13:14:26.195Z</time></trkpt><trkpt lat="43.2716259" lon="11.5392351"><ele>186.0</ele><time>2026-03-28T13:14:27.194Z</time></trkpt><trkpt lat="43.2716999" lon="11.5394152"><ele>187.0</ele><time>2026-03-28T13:14:28.194Z</time></trkpt><trkpt lat="43.2717757" lon="11.5395985"><ele>187.5</ele><time>2026-03-28T13:14:29.194Z</time></trkpt><trkpt lat="43.2718446" lon="11.5397668"><ele>188.0</ele><time>2026-03-28T13:14:30.195Z</time></trkpt><trkpt lat="43.2719118" lon="11.5399311"><ele>188.5</ele><time>2026-03-28T13:14:31.195Z</time></trkpt><trkpt lat="43.2719759" lon="11.5400931"><ele>189.0</ele><time>2026-03-28T13:14:32.195Z</time></trkpt><trkpt lat="43.2720391" lon="11.5402547"><ele>189.5</ele><time>2026-03-28T13:14:33.195Z</time></trkpt><trkpt lat="43.2721043" lon="11.5404133"><ele>190.0</ele><time>2026-03-28T13:14:34.195Z</time></trkpt><trkpt lat="43.2721675" lon="11.5405665"><ele>190.5</ele><time>2026-03-28T13:14:35.195Z</time></trkpt><trkpt lat="43.2722269" lon="11.5407101"><ele>191.0</ele><time>2026-03-28T13:14:36.195Z</time></trkpt><trkpt lat="43.272283" lon="11.5408585"><ele>192.25</ele><time>2026-03-28T13:14:37.194Z</time></trkpt><trkpt lat="43.2723356" lon="11.5410063"><ele>193.5</ele><time>2026-03-28T13:14:38.195Z</time></trkpt><trkpt lat="43.272385" lon="11.5411508"><ele>194.75</ele><time>2026-03-28T13:14:39.194Z</time></trkpt><trkpt lat="43.2724237" lon="11.5412984"><ele>196.0</ele><time>2026-03-28T13:14:40.194Z</time></trkpt><trkpt lat="43.2724561" lon="11.5414488"><ele>197.4</ele><time>2026-03-28T13:14:41.194Z</time></trkpt><trkpt lat="43.272483" lon="11.5416049"><ele>198.8</ele><time>2026-03-28T13:14:42.194Z</time></trkpt><trkpt lat="43.2725033" lon="11.5417554"><ele>200.20000000000002</ele><time>2026-03-28T13:14:43.194Z</time></trkpt><trkpt lat="43.2725249" lon="11.5418951"><ele>201.60000000000002</ele><time>2026-03-28T13:14:44.194Z</time></trkpt><trkpt lat="43.2725379" lon="11.5420257"><ele>203.0</ele><time>2026-03-28T13:14:45.194Z</time></trkpt><trkpt lat="43.2725485" lon="11.5421457"><ele>204.14285714285714</ele><time>2026-03-28T13:14:46.195Z</time></trkpt><trkpt lat="43.2725549" lon="11.5422542"><ele>205.28571428571428</ele><time>2026-03-28T13:14:47.194Z</time></trkpt><trkpt lat="43.2725618" lon="11.5423514"><ele>206.42857142857144</ele><time>2026-03-28T13:14:48.194Z</time></trkpt><trkpt lat="43.2725764" lon="11.5424494"><ele>207.57142857142856</ele><time>2026-03-28T13:14:49.195Z</time></trkpt><trkpt lat="43.2725947" lon="11.5425412"><ele>208.71428571428572</ele><time>2026-03-28T13:14:50.195Z</time></trkpt><trkpt lat="43.2726162" lon="11.5426339"><ele>209.85714285714286</ele><time>2026-03-28T13:14:51.194Z</time></trkpt><trkpt lat="43.2726371" lon="11.5427212"><ele>211.0</ele><time>2026-03-28T13:14:52.194Z</time></trkpt><trkpt lat="43.2726614" lon="11.5428031"><ele>210.99999999999997</ele><time>2026-03-28T13:14:53.195Z</time></trkpt><trkpt lat="43.272697" lon="11.5428764"><ele>211.0</ele><time>2026-03-28T13:14:54.195Z</time></trkpt><trkpt lat="43.272801" lon="11.542957"><ele>211.0</ele><time>2026-03-28T13:14:56.194Z</time></trkpt><trkpt lat="43.2729144" lon="11.5429434"><ele>211.0</ele><time>2026-03-28T13:14:58.195Z</time></trkpt><trkpt lat="43.2729817" lon="11.5429219"><ele>210.99999999999997</ele><time>2026-03-28T13:14:59.195Z</time></trkpt><trkpt lat="43.2730498" lon="11.5429069"><ele>211.0</ele><time>2026-03-28T13:15:00.195Z</time></trkpt><trkpt lat="43.2731128" lon="11.5429104"><ele>214.49999999999997</ele><time>2026-03-28T13:15:01.195Z</time></trkpt><trkpt lat="43.2732295" lon="11.542956"><ele>218.0</ele><time>2026-03-28T13:15:03.195Z</time></trkpt><trkpt lat="43.2732921" lon="11.5429916"><ele>221.5</ele><time>2026-03-28T13:15:04.195Z</time></trkpt><trkpt lat="43.2733522" lon="11.5430361"><ele>225.0</ele><time>2026-03-28T13:15:05.194Z</time></trkpt><trkpt lat="43.2734105" lon="11.5430885"><ele>228.49999999999997</ele><time>2026-03-28T13:15:06.194Z</time></trkpt><trkpt lat="43.2734651" lon="11.5431462"><ele>232.0</ele><time>2026-03-28T13:15:07.195Z</time></trkpt><trkpt lat="43.2735174" lon="11.5432051"><ele>231.99999999999997</ele><time>2026-03-28T13:15:08.194Z</time></trkpt><trkpt lat="43.2736093" lon="11.5433248"><ele>232.0</ele><time>2026-03-28T13:15:10.194Z</time></trkpt><trkpt lat="43.2736442" lon="11.5433983"><ele>232.0</ele><time>2026-03-28T13:15:11.193Z</time></trkpt><trkpt lat="43.2736642" lon="11.5434844"><ele>232.0</ele><time>2026-03-28T13:15:12.195Z</time></trkpt><trkpt lat="43.2736679" lon="11.5435744"><ele>231.99999999999997</ele><time>2026-03-28T13:15:13.195Z</time></trkpt><trkpt lat="43.2736606" lon="11.5436669"><ele>232.0</ele><time>2026-03-28T13:15:14.195Z</time></trkpt><trkpt lat="43.2736322" lon="11.5437559"><ele>233.33333333333331</ele><time>2026-03-28T13:15:15.194Z</time></trkpt><trkpt lat="43.2735896" lon="11.5438373"><ele>234.66666666666666</ele><time>2026-03-28T13:15:16.194Z</time></trkpt><trkpt lat="43.2735377" lon="11.5439165"><ele>236.0</ele><time>2026-03-28T13:15:17.194Z</time></trkpt><trkpt lat="43.2734805" lon="11.5439947"><ele>237.33333333333331</ele><time>2026-03-28T13:15:18.194Z</time></trkpt><trkpt lat="43.2734251" lon="11.5440735"><ele>238.66666666666666</ele><time>2026-03-28T13:15:19.195Z</time></trkpt><trkpt lat="43.2733747" lon="11.5441521"><ele>240.0</ele><time>2026-03-28T13:15:20.194Z</time></trkpt><trkpt lat="43.2733266" lon="11.5442345"><ele>240.0</ele><time>2026-03-28T13:15:21.194Z</time></trkpt><trkpt lat="43.2732825" lon="11.5443211"><ele>240.0</ele><time>2026-03-28T13:15:22.194Z</time></trkpt><trkpt lat="43.2732524" lon="11.5444043"><ele>240.0</ele><time>2026-03-28T13:15:23.194Z</time></trkpt><trkpt lat="43.2732291" lon="11.5445073"><ele>240.0</ele><time>2026-03-28T13:15:24.194Z</time></trkpt><trkpt lat="43.2732139" lon="11.5446212"><ele>240.0</ele><time>2026-03-28T13:15:25.195Z</time></trkpt><trkpt lat="43.2732069" lon="11.5447203"><ele>240.0</ele><time>2026-03-28T13:15:26.193Z</time></trkpt><trkpt lat="43.2732035" lon="11.5448291"><ele>240.83333333333334</ele><time>2026-03-28T13:15:27.195Z</time></trkpt><trkpt lat="43.2731998" lon="11.5449356"><ele>241.66666666666669</ele><time>2026-03-28T13:15:28.194Z</time></trkpt><trkpt lat="43.2731951" lon="11.5450465"><ele>242.5</ele><time>2026-03-28T13:15:29.195Z</time></trkpt><trkpt lat="43.273189" lon="11.5451648"><ele>243.33333333333334</ele><time>2026-03-28T13:15:30.194Z</time></trkpt><trkpt lat="43.2731814" lon="11.5452892"><ele>244.16666666666669</ele><time>2026-03-28T13:15:31.194Z</time></trkpt><trkpt lat="43.2731763" lon="11.5454168"><ele>245.0</ele><time>2026-03-28T13:15:32.195Z</time></trkpt><trkpt lat="43.2731774" lon="11.5455442"><ele>246.4</ele><time>2026-03-28T13:15:33.195Z</time></trkpt><trkpt lat="43.2731827" lon="11.5456703"><ele>247.8</ele><time>2026-03-28T13:15:34.194Z</time></trkpt><trkpt lat="43.2731902" lon="11.545797"><ele>249.2</ele><time>2026-03-28T13:15:35.194Z</time></trkpt><trkpt lat="43.273203" lon="11.5459172"><ele>250.6</ele><time>2026-03-28T13:15:36.194Z</time></trkpt><trkpt lat="43.2732235" lon="11.5460446"><ele>252.0</ele><time>2026-03-28T13:15:37.194Z</time></trkpt><trkpt lat="43.2732488" lon="11.5461773"><ele>253.5</ele><time>2026-03-28T13:15:38.194Z</time></trkpt><trkpt lat="43.2732731" lon="11.5462842"><ele>255.0</ele><time>2026-03-28T13:15:39.194Z</time></trkpt><trkpt lat="43.2733054" lon="11.5463874"><ele>256.5</ele><time>2026-03-28T13:15:40.195Z</time></trkpt><trkpt lat="43.2733437" lon="11.5464839"><ele>258.0</ele><time>2026-03-28T13:15:41.193Z</time></trkpt><trkpt lat="43.2733865" lon="11.5465861"><ele>259.5</ele><time>2026-03-28T13:15:42.195Z</time></trkpt><trkpt lat="43.2734332" lon="11.5466936"><ele>261.0</ele><time>2026-03-28T13:15:43.194Z</time></trkpt><trkpt lat="43.2734802" lon="11.5467917"><ele>261.0</ele><time>2026-03-28T13:15:44.195Z</time></trkpt><trkpt lat="43.2735419" lon="11.5468944"><ele>261.0</ele><time>2026-03-28T13:15:45.194Z</time></trkpt><trkpt lat="43.2736166" lon="11.5469829"><ele>261.0</ele><time>2026-03-28T13:15:46.195Z</time></trkpt><trkpt lat="43.2737003" lon="11.5470525"><ele>261.0</ele><time>2026-03-28T13:15:47.194Z</time></trkpt><trkpt lat="43.2737884" lon="11.5470956"><ele>261.0</ele><time>2026-03-28T13:15:48.195Z</time></trkpt><trkpt lat="43.2738781" lon="11.5471141"><ele>264.6</ele><time>2026-03-28T13:15:49.194Z</time></trkpt><trkpt lat="43.2739613" lon="11.5471175"><ele>268.20000000000005</ele><time>2026-03-28T13:15:50.194Z</time></trkpt><trkpt lat="43.2740471" lon="11.5471203"><ele>271.79999999999995</ele><time>2026-03-28T13:15:51.194Z</time></trkpt><trkpt lat="43.2741399" lon="11.5471266"><ele>275.4</ele><time>2026-03-28T13:15:52.194Z</time></trkpt><trkpt lat="43.2742353" lon="11.5471345"><ele>279.0</ele><time>2026-03-28T13:15:53.194Z</time></trkpt><trkpt lat="43.2743292" lon="11.5471228"><ele>279.0</ele><time>2026-03-28T13:15:54.194Z</time></trkpt><trkpt lat="43.2744202" lon="11.547094"><ele>279.0</ele><time>2026-03-28T13:15:55.195Z</time></trkpt><trkpt lat="43.274509" lon="11.5470838"><ele>279.0</ele><time>2026-03-28T13:15:56.194Z</time></trkpt><trkpt lat="43.2745975" lon="11.5470969"><ele>279.0</ele><time>2026-03-28T13:15:57.194Z</time></trkpt><trkpt lat="43.2746812" lon="11.5471322"><ele>279.0</ele><time>2026-03-28T13:15:58.195Z</time></trkpt><trkpt lat="43.2747594" lon="11.5471875"><ele>279.0</ele><time>2026-03-28T13:15:59.195Z</time></trkpt><trkpt lat="43.2748418" lon="11.547249"><ele>280.4</ele><time>2026-03-28T13:16:00.194Z</time></trkpt><trkpt lat="43.2749266" lon="11.5473129"><ele>281.79999999999995</ele><time>2026-03-28T13:16:01.194Z</time></trkpt><trkpt lat="43.2750104" lon="11.5473785"><ele>283.20000000000005</ele><time>2026-03-28T13:16:02.194Z</time></trkpt><trkpt lat="43.2750944" lon="11.5474441"><ele>284.6</ele><time>2026-03-28T13:16:03.194Z</time></trkpt><trkpt lat="43.2751759" lon="11.5475139"><ele>286.0</ele><time>2026-03-28T13:16:04.194Z</time></trkpt><trkpt lat="43.2752553" lon="11.5475872"><ele>286.0</ele><time>2026-03-28T13:16:05.194Z</time></trkpt><trkpt lat="43.275331" lon="11.5476667"><ele>286.0</ele><time>2026-03-28T13:16:06.194Z</time></trkpt><trkpt lat="43.275412" lon="11.5477402"><ele>286.0</ele><time>2026-03-28T13:16:07.194Z</time></trkpt><trkpt lat="43.2754956" lon="11.5478139"><ele>286.0</ele><time>2026-03-28T13:16:08.194Z</time></trkpt><trkpt lat="43.2755809" lon="11.5478891"><ele>286.0</ele><time>2026-03-28T13:16:09.194Z</time></trkpt><trkpt lat="43.2756722" lon="11.5479566"><ele>289.0</ele><time>2026-03-28T13:16:10.194Z</time></trkpt><trkpt lat="43.2757643" lon="11.5480085"><ele>292.0</ele><time>2026-03-28T13:16:11.194Z</time></trkpt><trkpt lat="43.2758646" lon="11.5480536"><ele>295.0</ele><time>2026-03-28T13:16:12.195Z</time></trkpt><trkpt lat="43.2759592" lon="11.5480921"><ele>298.0</ele><time>2026-03-28T13:16:13.194Z</time></trkpt><trkpt lat="43.276063" lon="11.5481331"><ele>301.0</ele><time>2026-03-28T13:16:14.194Z</time></trkpt><trkpt lat="43.2761653" lon="11.5481686"><ele>301.0</ele><time>2026-03-28T13:16:15.195Z</time></trkpt><trkpt lat="43.276253" lon="11.5481999"><ele>301.0</ele><time>2026-03-28T13:16:16.193Z</time></trkpt><trkpt lat="43.2763412" lon="11.5482324"><ele>301.0</ele><time>2026-03-28T13:16:17.195Z</time></trkpt><trkpt lat="43.2764273" lon="11.5482705"><ele>301.0</ele><time>2026-03-28T13:16:18.194Z</time></trkpt><trkpt lat="43.2765153" lon="11.5483145"><ele>301.0</ele><time>2026-03-28T13:16:19.195Z</time></trkpt><trkpt lat="43.2766079" lon="11.5483639"><ele>299.6</ele><time>2026-03-28T13:16:20.194Z</time></trkpt><trkpt lat="43.276698" lon="11.548426"><ele>298.20000000000005</ele><time>2026-03-28T13:16:21.195Z</time></trkpt><trkpt lat="43.2767765" lon="11.5484962"><ele>296.79999999999995</ele><time>2026-03-28T13:16:22.194Z</time></trkpt><trkpt lat="43.2768498" lon="11.5485627"><ele>295.4</ele><time>2026-03-28T13:16:23.195Z</time></trkpt><trkpt lat="43.2769222" lon="11.5486309"><ele>294.0</ele><time>2026-03-28T13:16:24.194Z</time></trkpt><trkpt lat="43.2769943" lon="11.5487002"><ele>293.1666666666667</ele><time>2026-03-28T13:16:25.194Z</time></trkpt><trkpt lat="43.2770606" lon="11.5487675"><ele>292.3333333333333</ele><time>2026-03-28T13:16:26.194Z</time></trkpt><trkpt lat="43.2771322" lon="11.548836"><ele>291.5</ele><time>2026-03-28T13:16:27.194Z</time></trkpt><trkpt lat="43.2771968" lon="11.5488951"><ele>290.66666666666663</ele><time>2026-03-28T13:16:28.194Z</time></trkpt><trkpt lat="43.2772698" lon="11.5489517"><ele>289.8333333333333</ele><time>2026-03-28T13:16:29.195Z</time></trkpt><trkpt lat="43.2773432" lon="11.5490098"><ele>289.0</ele><time>2026-03-28T13:16:30.194Z</time></trkpt><trkpt lat="43.2774236" lon="11.5490835"><ele>289.0</ele><time>2026-03-28T13:16:31.194Z</time></trkpt><trkpt lat="43.2774973" lon="11.5491505"><ele>289.0</ele><time>2026-03-28T13:16:32.194Z</time></trkpt><trkpt lat="43.2775721" lon="11.5492125"><ele>289.0</ele><time>2026-03-28T13:16:33.194Z</time></trkpt><trkpt lat="43.2776485" lon="11.5492757"><ele>289.0</ele><time>2026-03-28T13:16:34.195Z</time></trkpt><trkpt lat="43.2777312" lon="11.5493379"><ele>289.0</ele><time>2026-03-28T13:16:35.194Z</time></trkpt><trkpt lat="43.277827" lon="11.5493939"><ele>289.0</ele><time>2026-03-28T13:16:36.194Z</time></trkpt><trkpt lat="43.2779339" lon="11.5494279"><ele>289.0</ele><time>2026-03-28T13:16:37.194Z</time></trkpt><trkpt lat="43.2780443" lon="11.5494375"><ele>289.0</ele><time>2026-03-28T13:16:38.193Z</time></trkpt><trkpt lat="43.2781524" lon="11.5494378"><ele>289.0</ele><time>2026-03-28T13:16:39.194Z</time></trkpt><trkpt lat="43.2782642" lon="11.5494415"><ele>289.0</ele><time>2026-03-28T13:16:40.194Z</time></trkpt><trkpt lat="43.2783717" lon="11.5494489"><ele>286.0</ele><time>2026-03-28T13:16:41.193Z</time></trkpt><trkpt lat="43.2784771" lon="11.5494555"><ele>283.0</ele><time>2026-03-28T13:16:42.193Z</time></trkpt><trkpt lat="43.2785821" lon="11.5494585"><ele>280.0</ele><time>2026-03-28T13:16:43.194Z</time></trkpt><trkpt lat="43.2786935" lon="11.5494596"><ele>277.0</ele><time>2026-03-28T13:16:44.194Z</time></trkpt><trkpt lat="43.2788034" lon="11.549479"><ele>274.0</ele><time>2026-03-28T13:16:45.193Z</time></trkpt><trkpt lat="43.2789089" lon="11.5495115"><ele>273.59999999999997</ele><time>2026-03-28T13:16:46.193Z</time></trkpt><trkpt lat="43.2790027" lon="11.549566"><ele>273.2</ele><time>2026-03-28T13:16:47.193Z</time></trkpt><trkpt lat="43.2790898" lon="11.5496264"><ele>272.79999999999995</ele><time>2026-03-28T13:16:48.194Z</time></trkpt><trkpt lat="43.2791752" lon="11.5496859"><ele>272.4</ele><time>2026-03-28T13:16:49.193Z</time></trkpt><trkpt lat="43.2792647" lon="11.5497453"><ele>272.0</ele><time>2026-03-28T13:16:50.194Z</time></trkpt><trkpt lat="43.2793599" lon="11.5498054"><ele>272.0</ele><time>2026-03-28T13:16:51.193Z</time></trkpt><trkpt lat="43.2794539" lon="11.5498611"><ele>272.0</ele><time>2026-03-28T13:16:52.194Z</time></trkpt><trkpt lat="43.2795558" lon="11.5499014"><ele>272.0</ele><time>2026-03-28T13:16:53.194Z</time></trkpt><trkpt lat="43.2796657" lon="11.5499238"><ele>272.0</ele><time>2026-03-28T13:16:54.193Z</time></trkpt><trkpt lat="43.2797743" lon="11.5499284"><ele>272.0</ele><time>2026-03-28T13:16:55.193Z</time></trkpt><trkpt lat="43.2798666" lon="11.5499207"><ele>271.5</ele><time>2026-03-28T13:16:56.193Z</time></trkpt><trkpt lat="43.2799499" lon="11.5499085"><ele>271.0</ele><time>2026-03-28T13:16:57.193Z</time></trkpt><trkpt lat="43.2800271" lon="11.5498927"><ele>270.5</ele><time>2026-03-28T13:16:58.193Z</time></trkpt><trkpt lat="43.2801121" lon="11.5498621"><ele>270.0</ele><time>2026-03-28T13:16:59.193Z</time></trkpt><trkpt lat="43.2801927" lon="11.549821"><ele>269.5</ele><time>2026-03-28T13:17:00.193Z</time></trkpt><trkpt lat="43.2802653" lon="11.5497798"><ele>269.0</ele><time>2026-03-28T13:17:01.193Z</time></trkpt><trkpt lat="43.2803442" lon="11.5497326"><ele>269.0</ele><time>2026-03-28T13:17:02.193Z</time></trkpt><trkpt lat="43.2804253" lon="11.5496784"><ele>269.0</ele><time>2026-03-28T13:17:03.193Z</time></trkpt><trkpt lat="43.2805097" lon="11.5496189"><ele>269.0</ele><time>2026-03-28T13:17:04.193Z</time></trkpt><trkpt lat="43.2805925" lon="11.549555"><ele>269.0</ele><time>2026-03-28T13:17:05.193Z</time></trkpt><trkpt lat="43.2806624" lon="11.5494835"><ele>269.0</ele><time>2026-03-28T13:17:06.193Z</time></trkpt><trkpt lat="43.280724" lon="11.5493965"><ele>271.4</ele><time>2026-03-28T13:17:07.193Z</time></trkpt><trkpt lat="43.280778" lon="11.5493017"><ele>273.79999999999995</ele><time>2026-03-28T13:17:08.193Z</time></trkpt><trkpt lat="43.2808302" lon="11.5491977"><ele>276.20000000000005</ele><time>2026-03-28T13:17:09.194Z</time></trkpt><trkpt lat="43.2808871" lon="11.5490987"><ele>278.6</ele><time>2026-03-28T13:17:10.193Z</time></trkpt><trkpt lat="43.280946" lon="11.5490021"><ele>281.0</ele><time>2026-03-28T13:17:11.193Z</time></trkpt><trkpt lat="43.2810039" lon="11.5489127"><ele>281.0</ele><time>2026-03-28T13:17:12.193Z</time></trkpt><trkpt lat="43.2810669" lon="11.5488353"><ele>281.0</ele><time>2026-03-28T13:17:13.194Z</time></trkpt><trkpt lat="43.2811354" lon="11.5487658"><ele>281.0</ele><time>2026-03-28T13:17:14.193Z</time></trkpt><trkpt lat="43.2811993" lon="11.5487054"><ele>281.0</ele><time>2026-03-28T13:17:15.193Z</time></trkpt><trkpt lat="43.2812607" lon="11.5486388"><ele>281.0</ele><time>2026-03-28T13:17:16.193Z</time></trkpt><trkpt lat="43.2813274" lon="11.5485691"><ele>281.0</ele><time>2026-03-28T13:17:17.193Z</time></trkpt><trkpt lat="43.2813978" lon="11.5484872"><ele>285.0</ele><time>2026-03-28T13:17:18.193Z</time></trkpt><trkpt lat="43.2814705" lon="11.5484019"><ele>289.0</ele><time>2026-03-28T13:17:19.193Z</time></trkpt><trkpt lat="43.2815503" lon="11.548316"><ele>293.0</ele><time>2026-03-28T13:17:20.193Z</time></trkpt><trkpt lat="43.2816321" lon="11.5482392"><ele>297.0</ele><time>2026-03-28T13:17:21.194Z</time></trkpt><trkpt lat="43.2817055" lon="11.5481822"><ele>301.0</ele><time>2026-03-28T13:17:22.193Z</time></trkpt><trkpt lat="43.2817833" lon="11.5481479"><ele>301.0</ele><time>2026-03-28T13:17:23.194Z</time></trkpt><trkpt lat="43.2818674" lon="11.5481335"><ele>301.0</ele><time>2026-03-28T13:17:24.193Z</time></trkpt><trkpt lat="43.2819544" lon="11.5481291"><ele>301.0</ele><time>2026-03-28T13:17:25.193Z</time></trkpt><trkpt lat="43.2820477" lon="11.5481321"><ele>301.0</ele><time>2026-03-28T13:17:26.193Z</time></trkpt><trkpt lat="43.2821498" lon="11.5481413"><ele>301.0</ele><time>2026-03-28T13:17:27.194Z</time></trkpt><trkpt lat="43.2822471" lon="11.5481459"><ele>302.40000000000003</ele><time>2026-03-28T13:17:28.193Z</time></trkpt><trkpt lat="43.2823468" lon="11.5481454"><ele>303.8</ele><time>2026-03-28T13:17:29.194Z</time></trkpt><trkpt lat="43.2824496" lon="11.5481561"><ele>305.20000000000005</ele><time>2026-03-28T13:17:30.193Z</time></trkpt><trkpt lat="43.28256" lon="11.5481753"><ele>306.6</ele><time>2026-03-28T13:17:31.193Z</time></trkpt><trkpt lat="43.2826673" lon="11.5481988"><ele>308.0</ele><time>2026-03-28T13:17:32.193Z</time></trkpt><trkpt lat="43.2827845" lon="11.548239"><ele>308.0</ele><time>2026-03-28T13:17:33.193Z</time></trkpt><trkpt lat="43.2829004" lon="11.5482998"><ele>308.0</ele><time>2026-03-28T13:17:34.193Z</time></trkpt><trkpt lat="43.2830104" lon="11.5483671"><ele>308.0</ele><time>2026-03-28T13:17:35.194Z</time></trkpt><trkpt lat="43.2831162" lon="11.5484548"><ele>308.0</ele><time>2026-03-28T13:17:36.194Z</time></trkpt><trkpt lat="43.2832227" lon="11.5485459"><ele>310.0</ele><time>2026-03-28T13:17:37.194Z</time></trkpt><trkpt lat="43.2833224" lon="11.548629"><ele>312.0</ele><time>2026-03-28T13:17:38.193Z</time></trkpt><trkpt lat="43.2834185" lon="11.5486992"><ele>314.0</ele><time>2026-03-28T13:17:39.194Z</time></trkpt><trkpt lat="43.2835223" lon="11.5487483"><ele>316.0</ele><time>2026-03-28T13:17:40.193Z</time></trkpt><trkpt lat="43.2836358" lon="11.5487869"><ele>316.0</ele><time>2026-03-28T13:17:41.193Z</time></trkpt><trkpt lat="43.2837555" lon="11.5488216"><ele>316.0</ele><time>2026-03-28T13:17:42.193Z</time></trkpt><trkpt lat="43.2838828" lon="11.5488481"><ele>316.0</ele><time>2026-03-28T13:17:43.194Z</time></trkpt><trkpt lat="43.2840022" lon="11.5488587"><ele>316.0</ele><time>2026-03-28T13:17:44.194Z</time></trkpt><trkpt lat="43.284102" lon="11.5488341"><ele>311.25</ele><time>2026-03-28T13:17:45.193Z</time></trkpt><trkpt lat="43.2842097" lon="11.5487769"><ele>306.5</ele><time>2026-03-28T13:17:46.193Z</time></trkpt><trkpt lat="43.2843002" lon="11.5486925"><ele>301.75</ele><time>2026-03-28T13:17:47.193Z</time></trkpt><trkpt lat="43.2843781" lon="11.548571"><ele>297.0</ele><time>2026-03-28T13:17:48.194Z</time></trkpt><trkpt lat="43.2844439" lon="11.5484249"><ele>296.5</ele><time>2026-03-28T13:17:49.193Z</time></trkpt><trkpt lat="43.284508" lon="11.5482689"><ele>296.0</ele><time>2026-03-28T13:17:50.193Z</time></trkpt><trkpt lat="43.2845693" lon="11.5481129"><ele>295.5</ele><time>2026-03-28T13:17:51.194Z</time></trkpt><trkpt lat="43.2846302" lon="11.5479542"><ele>295.0</ele><time>2026-03-28T13:17:52.193Z</time></trkpt><trkpt lat="43.2846837" lon="11.5477909"><ele>292.5</ele><time>2026-03-28T13:17:53.194Z</time></trkpt><trkpt lat="43.2847219" lon="11.5476147"><ele>290.0</ele><time>2026-03-28T13:17:54.194Z</time></trkpt><trkpt lat="43.2847434" lon="11.5474369"><ele>287.5</ele><time>2026-03-28T13:17:55.194Z</time></trkpt><trkpt lat="43.2847597" lon="11.5472621"><ele>285.0</ele><time>2026-03-28T13:17:56.194Z</time></trkpt><trkpt lat="43.284792" lon="11.5471073"><ele>290.0</ele><time>2026-03-28T13:17:57.193Z</time></trkpt><trkpt lat="43.2848456" lon="11.5469578"><ele>295.0</ele><time>2026-03-28T13:17:58.193Z</time></trkpt><trkpt lat="43.2849147" lon="11.5468383"><ele>300.0</ele><time>2026-03-28T13:17:59.194Z</time></trkpt><trkpt lat="43.2849901" lon="11.5467419"><ele>305.0</ele><time>2026-03-28T13:18:00.194Z</time></trkpt><trkpt lat="43.2850684" lon="11.5466541"><ele>310.0</ele><time>2026-03-28T13:18:01.193Z</time></trkpt><trkpt lat="43.2851685" lon="11.5465759"><ele>310.0</ele><time>2026-03-28T13:18:02.193Z</time></trkpt><trkpt lat="43.2852837" lon="11.5465119"><ele>310.0</ele><time>2026-03-28T13:18:03.193Z</time></trkpt><trkpt lat="43.2854" lon="11.5464642"><ele>310.0</ele><time>2026-03-28T13:18:04.192Z</time></trkpt><trkpt lat="43.2855131" lon="11.5464136"><ele>310.0</ele><time>2026-03-28T13:18:05.193Z</time></trkpt><trkpt lat="43.2856279" lon="11.5463594"><ele>309.6</ele><time>2026-03-28T13:18:06.193Z</time></trkpt><trkpt lat="43.2857365" lon="11.5462848"><ele>309.2</ele><time>2026-03-28T13:18:07.194Z</time></trkpt><trkpt lat="43.2858303" lon="11.5462062"><ele>308.8</ele><time>2026-03-28T13:18:08.193Z</time></trkpt><trkpt lat="43.285908" lon="11.5461333"><ele>308.4</ele><time>2026-03-28T13:18:09.193Z</time></trkpt><trkpt lat="43.2859835" lon="11.546066"><ele>308.0</ele><time>2026-03-28T13:18:10.193Z</time></trkpt><trkpt lat="43.2860628" lon="11.5460061"><ele>308.8</ele><time>2026-03-28T13:18:11.193Z</time></trkpt><trkpt lat="43.2861543" lon="11.5459479"><ele>309.6</ele><time>2026-03-28T13:18:12.194Z</time></trkpt><trkpt lat="43.2862514" lon="11.5459073"><ele>310.4</ele><time>2026-03-28T13:18:13.193Z</time></trkpt><trkpt lat="43.2863526" lon="11.5458972"><ele>311.2</ele><time>2026-03-28T13:18:14.193Z</time></trkpt><trkpt lat="43.2864478" lon="11.5459186"><ele>312.0</ele><time>2026-03-28T13:18:15.194Z</time></trkpt><trkpt lat="43.2865412" lon="11.5459761"><ele>312.0</ele><time>2026-03-28T13:18:16.193Z</time></trkpt><trkpt lat="43.2866217" lon="11.5460382"><ele>312.0</ele><time>2026-03-28T13:18:17.194Z</time></trkpt><trkpt lat="43.2866986" lon="11.5460925"><ele>312.0</ele><time>2026-03-28T13:18:18.193Z</time></trkpt><trkpt lat="43.2867835" lon="11.5461448"><ele>312.0</ele><time>2026-03-28T13:18:19.193Z</time></trkpt><trkpt lat="43.2868854" lon="11.5461634"><ele>312.0</ele><time>2026-03-28T13:18:20.193Z</time></trkpt><trkpt lat="43.2869898" lon="11.5461558"><ele>312.0</ele><time>2026-03-28T13:18:21.194Z</time></trkpt><trkpt lat="43.2870825" lon="11.5461168"><ele>312.0</ele><time>2026-03-28T13:18:22.194Z</time></trkpt><trkpt lat="43.2871592" lon="11.5460589"><ele>312.0</ele><time>2026-03-28T13:18:23.193Z</time></trkpt><trkpt lat="43.2872378" lon="11.5459813"><ele>312.0</ele><time>2026-03-28T13:18:24.193Z</time></trkpt><trkpt lat="43.2872622" lon="11.5458483"><ele>312.0</ele><time>2026-03-28T13:18:25.193Z</time></trkpt><trkpt lat="43.287302" lon="11.5456958"><ele>309.25</ele><time>2026-03-28T13:18:26.193Z</time></trkpt><trkpt lat="43.2873337" lon="11.545523"><ele>306.5</ele><time>2026-03-28T13:18:27.193Z</time></trkpt><trkpt lat="43.287359" lon="11.5453516"><ele>303.75</ele><time>2026-03-28T13:18:28.194Z</time></trkpt><trkpt lat="43.2873736" lon="11.5451623"><ele>301.0</ele><time>2026-03-28T13:18:29.194Z</time></trkpt><trkpt lat="43.2873881" lon="11.5449694"><ele>301.0</ele><time>2026-03-28T13:18:30.193Z</time></trkpt><trkpt lat="43.2874057" lon="11.544787"><ele>301.0</ele><time>2026-03-28T13:18:31.193Z</time></trkpt><trkpt lat="43.2874355" lon="11.5446014"><ele>301.0</ele><time>2026-03-28T13:18:32.193Z</time></trkpt><trkpt lat="43.2874759" lon="11.5444347"><ele>301.0</ele><time>2026-03-28T13:18:33.193Z</time></trkpt><trkpt lat="43.2875298" lon="11.544282"><ele>300.5</ele><time>2026-03-28T13:18:34.193Z</time></trkpt><trkpt lat="43.2875846" lon="11.5441321"><ele>300.0</ele><time>2026-03-28T13:18:35.194Z</time></trkpt><trkpt lat="43.2876197" lon="11.5439825"><ele>299.5</ele><time>2026-03-28T13:18:36.193Z</time></trkpt><trkpt lat="43.2876355" lon="11.5438128"><ele>299.0</ele><time>2026-03-28T13:18:37.193Z</time></trkpt><trkpt lat="43.2876352" lon="11.5436491"><ele>297.75</ele><time>2026-03-28T13:18:38.193Z</time></trkpt><trkpt lat="43.2876329" lon="11.5434707"><ele>296.5</ele><time>2026-03-28T13:18:39.193Z</time></trkpt><trkpt lat="43.2876514" lon="11.5432894"><ele>295.25</ele><time>2026-03-28T13:18:40.194Z</time></trkpt><trkpt lat="43.2876882" lon="11.543112"><ele>294.0</ele><time>2026-03-28T13:18:41.193Z</time></trkpt><trkpt lat="43.2877319" lon="11.5429405"><ele>291.0</ele><time>2026-03-28T13:18:42.193Z</time></trkpt><trkpt lat="43.2877781" lon="11.5427746"><ele>288.0</ele><time>2026-03-28T13:18:43.193Z</time></trkpt><trkpt lat="43.287827" lon="11.5426357"><ele>285.0</ele><time>2026-03-28T13:18:44.194Z</time></trkpt><trkpt lat="43.2878943" lon="11.5424979"><ele>282.0</ele><time>2026-03-28T13:18:45.194Z</time></trkpt><trkpt lat="43.2879731" lon="11.5423665"><ele>282.0</ele><time>2026-03-28T13:18:46.194Z</time></trkpt><trkpt lat="43.2880522" lon="11.5422303"><ele>282.0</ele><time>2026-03-28T13:18:47.194Z</time></trkpt><trkpt lat="43.2881274" lon="11.5420782"><ele>282.0</ele><time>2026-03-28T13:18:48.193Z</time></trkpt><trkpt lat="43.2881974" lon="11.5419136"><ele>282.0</ele><time>2026-03-28T13:18:49.193Z</time></trkpt><trkpt lat="43.2882497" lon="11.5417577"><ele>286.0</ele><time>2026-03-28T13:18:50.193Z</time></trkpt><trkpt lat="43.2883012" lon="11.5416162"><ele>290.0</ele><time>2026-03-28T13:18:51.193Z</time></trkpt><trkpt lat="43.2883681" lon="11.5415054"><ele>294.0</ele><time>2026-03-28T13:18:52.193Z</time></trkpt><trkpt lat="43.2884544" lon="11.5414084"><ele>298.0</ele><time>2026-03-28T13:18:53.194Z</time></trkpt><trkpt lat="43.2885553" lon="11.5413326"><ele>302.0</ele><time>2026-03-28T13:18:54.193Z</time></trkpt><trkpt lat="43.2886742" lon="11.5412733"><ele>302.0</ele><time>2026-03-28T13:18:55.194Z</time></trkpt><trkpt lat="43.2888085" lon="11.5412293"><ele>302.0</ele><time>2026-03-28T13:18:56.194Z</time></trkpt><trkpt lat="43.2889487" lon="11.5411935"><ele>302.0</ele><time>2026-03-28T13:18:57.193Z</time></trkpt><trkpt lat="43.2890743" lon="11.5411575"><ele>302.0</ele><time>2026-03-28T13:18:58.194Z</time></trkpt><trkpt lat="43.2891987" lon="11.5411193"><ele>302.0</ele><time>2026-03-28T13:18:59.194Z</time></trkpt><trkpt lat="43.289311" lon="11.5411119"><ele>302.0</ele><time>2026-03-28T13:19:00.193Z</time></trkpt><trkpt lat="43.2894345" lon="11.5411365"><ele>302.0</ele><time>2026-03-28T13:19:01.193Z</time></trkpt><trkpt lat="43.2895628" lon="11.5411789"><ele>302.0</ele><time>2026-03-28T13:19:02.193Z</time></trkpt><trkpt lat="43.289683" lon="11.5412161"><ele>302.0</ele><time>2026-03-28T13:19:03.193Z</time></trkpt><trkpt lat="43.2898111" lon="11.5412327"><ele>302.0</ele><time>2026-03-28T13:19:04.193Z</time></trkpt><trkpt lat="43.2899339" lon="11.5412278"><ele>302.0</ele><time>2026-03-28T13:19:05.194Z</time></trkpt><trkpt lat="43.2900586" lon="11.541213"><ele>302.0</ele><time>2026-03-28T13:19:06.193Z</time></trkpt><trkpt lat="43.2901805" lon="11.5412128"><ele>303.6</ele><time>2026-03-28T13:19:07.193Z</time></trkpt><trkpt lat="43.2902904" lon="11.5412255"><ele>305.2</ele><time>2026-03-28T13:19:08.194Z</time></trkpt><trkpt lat="43.2904032" lon="11.5412456"><ele>306.8</ele><time>2026-03-28T13:19:09.193Z</time></trkpt><trkpt lat="43.2905079" lon="11.541281"><ele>308.4</ele><time>2026-03-28T13:19:10.194Z</time></trkpt><trkpt lat="43.290613" lon="11.5413296"><ele>310.0</ele><time>2026-03-28T13:19:11.193Z</time></trkpt><trkpt lat="43.2907229" lon="11.5413788"><ele>310.0</ele><time>2026-03-28T13:19:12.193Z</time></trkpt><trkpt lat="43.2908226" lon="11.5414068"><ele>310.0</ele><time>2026-03-28T13:19:13.194Z</time></trkpt><trkpt lat="43.290925" lon="11.5414055"><ele>310.0</ele><time>2026-03-28T13:19:14.193Z</time></trkpt><trkpt lat="43.2910308" lon="11.5413673"><ele>310.0</ele><time>2026-03-28T13:19:15.193Z</time></trkpt><trkpt lat="43.2911287" lon="11.541304"><ele>310.0</ele><time>2026-03-28T13:19:16.193Z</time></trkpt><trkpt lat="43.2912149" lon="11.5412106"><ele>308.8</ele><time>2026-03-28T13:19:17.193Z</time></trkpt><trkpt lat="43.2912832" lon="11.5411019"><ele>307.6</ele><time>2026-03-28T13:19:18.193Z</time></trkpt><trkpt lat="43.291328" lon="11.5409812"><ele>306.4</ele><time>2026-03-28T13:19:19.193Z</time></trkpt><trkpt lat="43.2913509" lon="11.5408494"><ele>305.2</ele><time>2026-03-28T13:19:20.194Z</time></trkpt><trkpt lat="43.2913508" lon="11.5407156"><ele>304.0</ele><time>2026-03-28T13:19:21.193Z</time></trkpt><trkpt lat="43.2913372" lon="11.5405694"><ele>304.0</ele><time>2026-03-28T13:19:22.193Z</time></trkpt><trkpt lat="43.2913281" lon="11.5404195"><ele>304.0</ele><time>2026-03-28T13:19:23.193Z</time></trkpt><trkpt lat="43.2913336" lon="11.5402796"><ele>304.0</ele><time>2026-03-28T13:19:24.192Z</time></trkpt><trkpt lat="43.2913502" lon="11.5401353"><ele>304.0</ele><time>2026-03-28T13:19:25.194Z</time></trkpt><trkpt lat="43.2913809" lon="11.539994"><ele>304.0</ele><time>2026-03-28T13:19:26.194Z</time></trkpt><trkpt lat="43.2914202" lon="11.539855"><ele>304.75</ele><time>2026-03-28T13:19:27.192Z</time></trkpt><trkpt lat="43.291465" lon="11.5397165"><ele>305.5</ele><time>2026-03-28T13:19:28.193Z</time></trkpt><trkpt lat="43.2915148" lon="11.5395716"><ele>306.25</ele><time>2026-03-28T13:19:29.192Z</time></trkpt><trkpt lat="43.2915709" lon="11.5394217"><ele>307.0</ele><time>2026-03-28T13:19:30.193Z</time></trkpt><trkpt lat="43.2916317" lon="11.5392697"><ele>309.0</ele><time>2026-03-28T13:19:31.193Z</time></trkpt><trkpt lat="43.2916968" lon="11.5391166"><ele>311.0</ele><time>2026-03-28T13:19:32.194Z</time></trkpt><trkpt lat="43.2917554" lon="11.538996"><ele>313.0</ele><time>2026-03-28T13:19:33.194Z</time></trkpt><trkpt lat="43.2918252" lon="11.5389059"><ele>315.0</ele><time>2026-03-28T13:19:34.194Z</time></trkpt><trkpt lat="43.2918987" lon="11.5388508"><ele>317.0</ele><time>2026-03-28T13:19:35.193Z</time></trkpt><trkpt lat="43.2919881" lon="11.5388177"><ele>317.0</ele><time>2026-03-28T13:19:36.193Z</time></trkpt><trkpt lat="43.2920829" lon="11.5388192"><ele>317.0</ele><time>2026-03-28T13:19:37.194Z</time></trkpt><trkpt lat="43.2921832" lon="11.5388395"><ele>317.0</ele><time>2026-03-28T13:19:38.193Z</time></trkpt><trkpt lat="43.292291" lon="11.5388772"><ele>317.0</ele><time>2026-03-28T13:19:39.193Z</time></trkpt><trkpt lat="43.2924147" lon="11.5389124"><ele>317.0</ele><time>2026-03-28T13:19:40.193Z</time></trkpt><trkpt lat="43.2925218" lon="11.5389264"><ele>317.0</ele><time>2026-03-28T13:19:41.194Z</time></trkpt><trkpt lat="43.2926201" lon="11.5389252"><ele>317.0</ele><time>2026-03-28T13:19:42.194Z</time></trkpt><trkpt lat="43.2927196" lon="11.5388939"><ele>317.0</ele><time>2026-03-28T13:19:43.194Z</time></trkpt><trkpt lat="43.2928149" lon="11.5388253"><ele>317.0</ele><time>2026-03-28T13:19:44.193Z</time></trkpt><trkpt lat="43.2929129" lon="11.5387366"><ele>317.0</ele><time>2026-03-28T13:19:45.193Z</time></trkpt><trkpt lat="43.2930166" lon="11.538636"><ele>315.75</ele><time>2026-03-28T13:19:46.193Z</time></trkpt><trkpt lat="43.2931172" lon="11.5385429"><ele>314.5</ele><time>2026-03-28T13:19:47.193Z</time></trkpt><trkpt lat="43.2932246" lon="11.5384443"><ele>313.25</ele><time>2026-03-28T13:19:48.194Z</time></trkpt><trkpt lat="43.2933255" lon="11.5383493"><ele>312.0</ele><time>2026-03-28T13:19:49.193Z</time></trkpt><trkpt lat="43.2934343" lon="11.538252"><ele>312.0</ele><time>2026-03-28T13:19:50.194Z</time></trkpt><trkpt lat="43.2935445" lon="11.5381559"><ele>312.0</ele><time>2026-03-28T13:19:51.194Z</time></trkpt><trkpt lat="43.2936558" lon="11.538054"><ele>312.0</ele><time>2026-03-28T13:19:52.192Z</time></trkpt><trkpt lat="43.2937645" lon="11.5379489"><ele>312.0</ele><time>2026-03-28T13:19:53.194Z</time></trkpt><trkpt lat="43.2938795" lon="11.5378466"><ele>312.25</ele><time>2026-03-28T13:19:54.194Z</time></trkpt><trkpt lat="43.2939913" lon="11.5377403"><ele>312.5</ele><time>2026-03-28T13:19:55.194Z</time></trkpt><trkpt lat="43.2940997" lon="11.5376276"><ele>312.75</ele><time>2026-03-28T13:19:56.193Z</time></trkpt><trkpt lat="43.2942045" lon="11.5375056"><ele>313.0</ele><time>2026-03-28T13:19:57.194Z</time></trkpt><trkpt lat="43.2943001" lon="11.5373877"><ele>313.0</ele><time>2026-03-28T13:19:58.193Z</time></trkpt><trkpt lat="43.2943969" lon="11.5372652"><ele>313.0</ele><time>2026-03-28T13:19:59.193Z</time></trkpt><trkpt lat="43.294498" lon="11.5371494"><ele>313.0</ele><time>2026-03-28T13:20:00.194Z</time></trkpt><trkpt lat="43.2946109" lon="11.5370546"><ele>313.0</ele><time>2026-03-28T13:20:01.194Z</time></trkpt><trkpt lat="43.294724" lon="11.5369888"><ele>311.5</ele><time>2026-03-28T13:20:02.194Z</time></trkpt><trkpt lat="43.2948326" lon="11.5369265"><ele>310.0</ele><time>2026-03-28T13:20:03.194Z</time></trkpt><trkpt lat="43.2949354" lon="11.5368646"><ele>308.5</ele><time>2026-03-28T13:20:04.193Z</time></trkpt><trkpt lat="43.2950425" lon="11.5368255"><ele>307.0</ele><time>2026-03-28T13:20:05.193Z</time></trkpt><trkpt lat="43.2951521" lon="11.5368092"><ele>307.0</ele><time>2026-03-28T13:20:06.194Z</time></trkpt><trkpt lat="43.2952591" lon="11.5367899"><ele>307.0</ele><time>2026-03-28T13:20:07.194Z</time></trkpt><trkpt lat="43.2953527" lon="11.5367378"><ele>307.0</ele><time>2026-03-28T13:20:08.194Z</time></trkpt><trkpt lat="43.2954368" lon="11.5366621"><ele>307.0</ele><time>2026-03-28T13:20:09.194Z</time></trkpt><trkpt lat="43.2955118" lon="11.5365631"><ele>307.0</ele><time>2026-03-28T13:20:10.193Z</time></trkpt><trkpt lat="43.2955719" lon="11.5364459"><ele>308.2</ele><time>2026-03-28T13:20:11.193Z</time></trkpt><trkpt lat="43.2956209" lon="11.5363133"><ele>309.4</ele><time>2026-03-28T13:20:12.193Z</time></trkpt><trkpt lat="43.2956686" lon="11.5361772"><ele>310.6</ele><time>2026-03-28T13:20:13.193Z</time></trkpt><trkpt lat="43.2957187" lon="11.5360357"><ele>311.8</ele><time>2026-03-28T13:20:14.193Z</time></trkpt><trkpt lat="43.2957633" lon="11.5358891"><ele>313.0</ele><time>2026-03-28T13:20:15.193Z</time></trkpt><trkpt lat="43.2958" lon="11.5357304"><ele>315.0</ele><time>2026-03-28T13:20:16.194Z</time></trkpt><trkpt lat="43.2958189" lon="11.5355685"><ele>317.0</ele><time>2026-03-28T13:20:17.193Z</time></trkpt><trkpt lat="43.2958301" lon="11.5354235"><ele>319.0</ele><time>2026-03-28T13:20:18.194Z</time></trkpt><trkpt lat="43.2958409" lon="11.5352904"><ele>321.0</ele><time>2026-03-28T13:20:19.193Z</time></trkpt><trkpt lat="43.2958544" lon="11.5351546"><ele>323.0</ele><time>2026-03-28T13:20:20.193Z</time></trkpt><trkpt lat="43.2958613" lon="11.5350206"><ele>323.6666666666667</ele><time>2026-03-28T13:20:21.194Z</time></trkpt><trkpt lat="43.2958574" lon="11.5348993"><ele>324.33333333333337</ele><time>2026-03-28T13:20:22.194Z</time></trkpt><trkpt lat="43.2958291" lon="11.5347841"><ele>325.0</ele><time>2026-03-28T13:20:23.193Z</time></trkpt><trkpt lat="43.295778" lon="11.5346893"><ele>325.6666666666667</ele><time>2026-03-28T13:20:24.193Z</time></trkpt><trkpt lat="43.2957116" lon="11.5346142"><ele>326.3333333333333</ele><time>2026-03-28T13:20:25.194Z</time></trkpt><trkpt lat="43.2956287" lon="11.5345464"><ele>327.0</ele><time>2026-03-28T13:20:26.193Z</time></trkpt><trkpt lat="43.295541" lon="11.5344791"><ele>327.6</ele><time>2026-03-28T13:20:27.193Z</time></trkpt><trkpt lat="43.2954493" lon="11.534409"><ele>328.20000000000005</ele><time>2026-03-28T13:20:28.194Z</time></trkpt><trkpt lat="43.2953572" lon="11.5343286"><ele>328.8</ele><time>2026-03-28T13:20:29.193Z</time></trkpt><trkpt lat="43.2952822" lon="11.5342463"><ele>329.4</ele><time>2026-03-28T13:20:30.193Z</time></trkpt><trkpt lat="43.295221" lon="11.5341602"><ele>330.0</ele><time>2026-03-28T13:20:31.193Z</time></trkpt><trkpt lat="43.2951652" lon="11.5340753"><ele>330.0</ele><time>2026-03-28T13:20:32.193Z</time></trkpt><trkpt lat="43.2950988" lon="11.5339898"><ele>330.0</ele><time>2026-03-28T13:20:33.194Z</time></trkpt><trkpt lat="43.2950116" lon="11.5339241"><ele>330.0</ele><time>2026-03-28T13:20:34.194Z</time></trkpt><trkpt lat="43.2949115" lon="11.5338726"><ele>330.0</ele><time>2026-03-28T13:20:35.193Z</time></trkpt><trkpt lat="43.294819" lon="11.5338226"><ele>330.0</ele><time>2026-03-28T13:20:36.193Z</time></trkpt><trkpt lat="43.2947311" lon="11.5337749"><ele>328.8333333333333</ele><time>2026-03-28T13:20:37.193Z</time></trkpt><trkpt lat="43.2946522" lon="11.5337212"><ele>327.6666666666667</ele><time>2026-03-28T13:20:38.193Z</time></trkpt><trkpt lat="43.2945843" lon="11.5336485"><ele>326.5</ele><time>2026-03-28T13:20:39.194Z</time></trkpt><trkpt lat="43.2945316" lon="11.5335558"><ele>325.33333333333337</ele><time>2026-03-28T13:20:40.194Z</time></trkpt><trkpt lat="43.2945007" lon="11.5334396"><ele>324.1666666666667</ele><time>2026-03-28T13:20:41.193Z</time></trkpt><trkpt lat="43.2944899" lon="11.5333256"><ele>323.0</ele><time>2026-03-28T13:20:42.193Z</time></trkpt><trkpt lat="43.2944872" lon="11.533212"><ele>323.0</ele><time>2026-03-28T13:20:43.193Z</time></trkpt><trkpt lat="43.2944825" lon="11.5330905"><ele>323.0</ele><time>2026-03-28T13:20:44.193Z</time></trkpt><trkpt lat="43.294477" lon="11.5329601"><ele>323.0</ele><time>2026-03-28T13:20:45.193Z</time></trkpt><trkpt lat="43.2944809" lon="11.5328167"><ele>323.0</ele><time>2026-03-28T13:20:46.194Z</time></trkpt><trkpt lat="43.2944934" lon="11.5326612"><ele>323.0</ele><time>2026-03-28T13:20:47.193Z</time></trkpt><trkpt lat="43.2945162" lon="11.5324982"><ele>323.5</ele><time>2026-03-28T13:20:48.193Z</time></trkpt><trkpt lat="43.2945499" lon="11.532341"><ele>324.0</ele><time>2026-03-28T13:20:49.193Z</time></trkpt><trkpt lat="43.2945872" lon="11.5321946"><ele>324.5</ele><time>2026-03-28T13:20:50.194Z</time></trkpt><trkpt lat="43.2946322" lon="11.5320449"><ele>325.0</ele><time>2026-03-28T13:20:51.193Z</time></trkpt><trkpt lat="43.2946868" lon="11.5318861"><ele>325.4</ele><time>2026-03-28T13:20:52.193Z</time></trkpt><trkpt lat="43.2947503" lon="11.5317504"><ele>325.8</ele><time>2026-03-28T13:20:53.193Z</time></trkpt><trkpt lat="43.2948129" lon="11.5316263"><ele>326.20000000000005</ele><time>2026-03-28T13:20:54.193Z</time></trkpt><trkpt lat="43.2948699" lon="11.5315218"><ele>326.6</ele><time>2026-03-28T13:20:55.193Z</time></trkpt><trkpt lat="43.2949228" lon="11.5314216"><ele>327.0</ele><time>2026-03-28T13:20:56.193Z</time></trkpt><trkpt lat="43.2949796" lon="11.5313144"><ele>325.6</ele><time>2026-03-28T13:20:57.192Z</time></trkpt><trkpt lat="43.2950441" lon="11.5312049"><ele>324.20000000000005</ele><time>2026-03-28T13:20:58.194Z</time></trkpt><trkpt lat="43.2951216" lon="11.5310939"><ele>322.8</ele><time>2026-03-28T13:20:59.194Z</time></trkpt><trkpt lat="43.2952128" lon="11.5309924"><ele>321.4</ele><time>2026-03-28T13:21:00.193Z</time></trkpt><trkpt lat="43.2953047" lon="11.5309097"><ele>320.0</ele><time>2026-03-28T13:21:01.194Z</time></trkpt><trkpt lat="43.2953943" lon="11.5308334"><ele>320.0</ele><time>2026-03-28T13:21:02.193Z</time></trkpt><trkpt lat="43.2954907" lon="11.5307563"><ele>320.0</ele><time>2026-03-28T13:21:03.192Z</time></trkpt><trkpt lat="43.2955963" lon="11.5306908"><ele>320.0</ele><time>2026-03-28T13:21:04.193Z</time></trkpt><trkpt lat="43.2956963" lon="11.5306366"><ele>320.0</ele><time>2026-03-28T13:21:05.193Z</time></trkpt><trkpt lat="43.295791" lon="11.530588"><ele>320.0</ele><time>2026-03-28T13:21:06.194Z</time></trkpt><trkpt lat="43.2958923" lon="11.5305419"><ele>317.6</ele><time>2026-03-28T13:21:07.194Z</time></trkpt><trkpt lat="43.2959979" lon="11.5304981"><ele>315.2</ele><time>2026-03-28T13:21:08.194Z</time></trkpt><trkpt lat="43.2960955" lon="11.5304613"><ele>312.8</ele><time>2026-03-28T13:21:09.193Z</time></trkpt><trkpt lat="43.29619" lon="11.5304238"><ele>310.4</ele><time>2026-03-28T13:21:10.194Z</time></trkpt><trkpt lat="43.2962865" lon="11.5303825"><ele>308.0</ele><time>2026-03-28T13:21:11.193Z</time></trkpt><trkpt lat="43.296375" lon="11.5303482"><ele>306.0</ele><time>2026-03-28T13:21:12.194Z</time></trkpt><trkpt lat="43.2964588" lon="11.5303137"><ele>304.0</ele><time>2026-03-28T13:21:13.193Z</time></trkpt><trkpt lat="43.2965328" lon="11.530268"><ele>302.0</ele><time>2026-03-28T13:21:14.193Z</time></trkpt><trkpt lat="43.2965927" lon="11.5302065"><ele>300.0</ele><time>2026-03-28T13:21:15.193Z</time></trkpt><trkpt lat="43.2966328" lon="11.5301269"><ele>298.0</ele><time>2026-03-28T13:21:16.194Z</time></trkpt><trkpt lat="43.2966437" lon="11.5300278"><ele>296.0</ele><time>2026-03-28T13:21:17.193Z</time></trkpt><trkpt lat="43.2966224" lon="11.5299252"><ele>296.0</ele><time>2026-03-28T13:21:18.193Z</time></trkpt><trkpt lat="43.2965761" lon="11.5298453"><ele>296.0</ele><time>2026-03-28T13:21:19.193Z</time></trkpt><trkpt lat="43.2965135" lon="11.5297842"><ele>296.0</ele><time>2026-03-28T13:21:20.194Z</time></trkpt><trkpt lat="43.2964382" lon="11.5297386"><ele>296.0</ele><time>2026-03-28T13:21:21.193Z</time></trkpt><trkpt lat="43.296346" lon="11.5296974"><ele>296.0</ele><time>2026-03-28T13:21:22.193Z</time></trkpt><trkpt lat="43.2962474" lon="11.5296581"><ele>296.0</ele><time>2026-03-28T13:21:23.194Z</time></trkpt><trkpt lat="43.2961603" lon="11.5296336"><ele>295.6666666666667</ele><time>2026-03-28T13:21:24.193Z</time></trkpt><trkpt lat="43.2960745" lon="11.5296209"><ele>295.33333333333337</ele><time>2026-03-28T13:21:25.194Z</time></trkpt><trkpt lat="43.2959853" lon="11.5296008"><ele>295.0</ele><time>2026-03-28T13:21:26.193Z</time></trkpt><trkpt lat="43.2959058" lon="11.5295623"><ele>294.6666666666667</ele><time>2026-03-28T13:21:27.193Z</time></trkpt><trkpt lat="43.2958264" lon="11.5295078"><ele>294.3333333333333</ele><time>2026-03-28T13:21:28.193Z</time></trkpt><trkpt lat="43.2957587" lon="11.5294548"><ele>294.0</ele><time>2026-03-28T13:21:29.194Z</time></trkpt><trkpt lat="43.2956817" lon="11.5294017"><ele>294.0</ele><time>2026-03-28T13:21:30.193Z</time></trkpt><trkpt lat="43.2955983" lon="11.529364"><ele>294.0</ele><time>2026-03-28T13:21:31.194Z</time></trkpt><trkpt lat="43.2955262" lon="11.5293307"><ele>294.0</ele><time>2026-03-28T13:21:32.193Z</time></trkpt><trkpt lat="43.2954571" lon="11.529306"><ele>294.0</ele><time>2026-03-28T13:21:33.193Z</time></trkpt><trkpt lat="43.2953965" lon="11.529262"><ele>294.0</ele><time>2026-03-28T13:21:34.193Z</time></trkpt><trkpt lat="43.2953489" lon="11.5291934"><ele>294.0</ele><time>2026-03-28T13:21:35.193Z</time></trkpt><trkpt lat="43.2953272" lon="11.5291054"><ele>294.0</ele><time>2026-03-28T13:21:36.193Z</time></trkpt><trkpt lat="43.2953694" lon="11.528953"><ele>294.0</ele><time>2026-03-28T13:21:38.192Z</time></trkpt><trkpt lat="43.2954822" lon="11.5288498"><ele>294.0</ele><time>2026-03-28T13:21:40.193Z</time></trkpt><trkpt lat="43.2955538" lon="11.5288005"><ele>294.0</ele><time>2026-03-28T13:21:41.193Z</time></trkpt><trkpt lat="43.295637" lon="11.5287364"><ele>294.0</ele><time>2026-03-28T13:21:42.192Z</time></trkpt><trkpt lat="43.2957178" lon="11.5286639"><ele>294.0</ele><time>2026-03-28T13:21:43.194Z</time></trkpt><trkpt lat="43.2957789" lon="11.5285996"><ele>293.59999999999997</ele><time>2026-03-28T13:21:44.193Z</time></trkpt><trkpt lat="43.2958389" lon="11.528511"><ele>293.2</ele><time>2026-03-28T13:21:45.192Z</time></trkpt><trkpt lat="43.295889" lon="11.5283944"><ele>292.79999999999995</ele><time>2026-03-28T13:21:46.192Z</time></trkpt><trkpt lat="43.2959233" lon="11.5282581"><ele>292.4</ele><time>2026-03-28T13:21:47.193Z</time></trkpt><trkpt lat="43.2959438" lon="11.5281066"><ele>292.0</ele><time>2026-03-28T13:21:48.193Z</time></trkpt><trkpt lat="43.2959549" lon="11.5279653"><ele>292.0</ele><time>2026-03-28T13:21:49.194Z</time></trkpt><trkpt lat="43.2959705" lon="11.5278137"><ele>292.0</ele><time>2026-03-28T13:21:50.193Z</time></trkpt><trkpt lat="43.2959919" lon="11.5276681"><ele>292.0</ele><time>2026-03-28T13:21:51.193Z</time></trkpt><trkpt lat="43.2960138" lon="11.5275148"><ele>292.0</ele><time>2026-03-28T13:21:52.194Z</time></trkpt><trkpt lat="43.2960335" lon="11.527378"><ele>292.0</ele><time>2026-03-28T13:21:53.194Z</time></trkpt><trkpt lat="43.2960606" lon="11.527252"><ele>292.0</ele><time>2026-03-28T13:21:54.193Z</time></trkpt><trkpt lat="43.2961032" lon="11.5271252"><ele>292.0</ele><time>2026-03-28T13:21:55.193Z</time></trkpt><trkpt lat="43.2961599" lon="11.5269995"><ele>292.0</ele><time>2026-03-28T13:21:56.194Z</time></trkpt><trkpt lat="43.2962274" lon="11.526867"><ele>292.0</ele><time>2026-03-28T13:21:57.193Z</time></trkpt><trkpt lat="43.2963021" lon="11.5267348"><ele>292.0</ele><time>2026-03-28T13:21:58.193Z</time></trkpt><trkpt lat="43.2963814" lon="11.5266043"><ele>291.4</ele><time>2026-03-28T13:21:59.193Z</time></trkpt><trkpt lat="43.2964635" lon="11.5264742"><ele>290.79999999999995</ele><time>2026-03-28T13:22:00.194Z</time></trkpt><trkpt lat="43.2965405" lon="11.5263645"><ele>290.2</ele><time>2026-03-28T13:22:01.193Z</time></trkpt><trkpt lat="43.2966153" lon="11.526274"><ele>289.59999999999997</ele><time>2026-03-28T13:22:02.194Z</time></trkpt><trkpt lat="43.2966835" lon="11.5262052"><ele>289.0</ele><time>2026-03-28T13:22:03.193Z</time></trkpt><trkpt lat="43.2967386" lon="11.5261221"><ele>289.0</ele><time>2026-03-28T13:22:04.193Z</time></trkpt><trkpt lat="43.2967748" lon="11.5260176"><ele>289.0</ele><time>2026-03-28T13:22:05.193Z</time></trkpt><trkpt lat="43.2967908" lon="11.5259006"><ele>289.0</ele><time>2026-03-28T13:22:06.194Z</time></trkpt><trkpt lat="43.2967839" lon="11.5257795"><ele>289.0</ele><time>2026-03-28T13:22:07.193Z</time></trkpt><trkpt lat="43.2967673" lon="11.5256544"><ele>289.0</ele><time>2026-03-28T13:22:08.193Z</time></trkpt><trkpt lat="43.2967612" lon="11.5255206"><ele>289.0</ele><time>2026-03-28T13:22:09.193Z</time></trkpt><trkpt lat="43.2967642" lon="11.5253835"><ele>289.59999999999997</ele><time>2026-03-28T13:22:10.193Z</time></trkpt><trkpt lat="43.2967787" lon="11.5252453"><ele>290.2</ele><time>2026-03-28T13:22:11.193Z</time></trkpt><trkpt lat="43.2967907" lon="11.5251074"><ele>290.79999999999995</ele><time>2026-03-28T13:22:12.193Z</time></trkpt><trkpt lat="43.2967743" lon="11.524984"><ele>291.4</ele><time>2026-03-28T13:22:13.193Z</time></trkpt><trkpt lat="43.2967378" lon="11.5248628"><ele>292.0</ele><time>2026-03-28T13:22:14.193Z</time></trkpt><trkpt lat="43.2966944" lon="11.5247495"><ele>292.0</ele><time>2026-03-28T13:22:15.194Z</time></trkpt><trkpt lat="43.2966505" lon="11.5246315"><ele>292.0</ele><time>2026-03-28T13:22:16.194Z</time></trkpt><trkpt lat="43.2966141" lon="11.5245042"><ele>292.0</ele><time>2026-03-28T13:22:17.193Z</time></trkpt><trkpt lat="43.2965906" lon="11.5243689"><ele>292.0</ele><time>2026-03-28T13:22:18.193Z</time></trkpt><trkpt lat="43.296578" lon="11.5242292"><ele>292.0</ele><time>2026-03-28T13:22:19.193Z</time></trkpt><trkpt lat="43.296562" lon="11.5241004"><ele>294.0</ele><time>2026-03-28T13:22:20.193Z</time></trkpt><trkpt lat="43.2965436" lon="11.5239702"><ele>296.0</ele><time>2026-03-28T13:22:21.193Z</time></trkpt><trkpt lat="43.2965219" lon="11.5238412"><ele>298.0</ele><time>2026-03-28T13:22:22.193Z</time></trkpt><trkpt lat="43.296499" lon="11.5237145"><ele>300.0</ele><time>2026-03-28T13:22:23.193Z</time></trkpt><trkpt lat="43.2964771" lon="11.5235873"><ele>302.0</ele><time>2026-03-28T13:22:24.193Z</time></trkpt><trkpt lat="43.2964624" lon="11.5234633"><ele>302.8</ele><time>2026-03-28T13:22:25.193Z</time></trkpt><trkpt lat="43.296451" lon="11.5233383"><ele>303.6</ele><time>2026-03-28T13:22:26.193Z</time></trkpt><trkpt lat="43.2964456" lon="11.5232137"><ele>304.40000000000003</ele><time>2026-03-28T13:22:27.194Z</time></trkpt><trkpt lat="43.2964401" lon="11.523082"><ele>305.2</ele><time>2026-03-28T13:22:28.193Z</time></trkpt><trkpt lat="43.2964376" lon="11.5229468"><ele>306.0</ele><time>2026-03-28T13:22:29.192Z</time></trkpt><trkpt lat="43.2964476" lon="11.5228145"><ele>306.0</ele><time>2026-03-28T13:22:30.194Z</time></trkpt><trkpt lat="43.2964716" lon="11.5226936"><ele>306.0</ele><time>2026-03-28T13:22:31.193Z</time></trkpt><trkpt lat="43.2965075" lon="11.5225783"><ele>306.0</ele><time>2026-03-28T13:22:32.194Z</time></trkpt><trkpt lat="43.2965573" lon="11.5224652"><ele>306.0</ele><time>2026-03-28T13:22:33.193Z</time></trkpt><trkpt lat="43.2966142" lon="11.5223562"><ele>306.0</ele><time>2026-03-28T13:22:34.194Z</time></trkpt><trkpt lat="43.296666" lon="11.522229"><ele>306.0</ele><time>2026-03-28T13:22:35.193Z</time></trkpt><trkpt lat="43.2966978" lon="11.5220914"><ele>306.0</ele><time>2026-03-28T13:22:36.194Z</time></trkpt><trkpt lat="43.2967184" lon="11.5219631"><ele>306.0</ele><time>2026-03-28T13:22:37.193Z</time></trkpt><trkpt lat="43.2967424" lon="11.5218309"><ele>306.0</ele><time>2026-03-28T13:22:38.193Z</time></trkpt><trkpt lat="43.2967819" lon="11.5217215"><ele>306.0</ele><time>2026-03-28T13:22:39.193Z</time></trkpt><trkpt lat="43.2968411" lon="11.5216225"><ele>305.6</ele><time>2026-03-28T13:22:40.193Z</time></trkpt><trkpt lat="43.2969158" lon="11.5215449"><ele>305.20000000000005</ele><time>2026-03-28T13:22:41.193Z</time></trkpt><trkpt lat="43.2970054" lon="11.5214886"><ele>304.79999999999995</ele><time>2026-03-28T13:22:42.193Z</time></trkpt><trkpt lat="43.2970958" lon="11.5214418"><ele>304.4</ele><time>2026-03-28T13:22:43.193Z</time></trkpt><trkpt lat="43.297187" lon="11.5214013"><ele>304.0</ele><time>2026-03-28T13:22:44.194Z</time></trkpt><trkpt lat="43.2972887" lon="11.5213696"><ele>304.0</ele><time>2026-03-28T13:22:45.193Z</time></trkpt><trkpt lat="43.2973927" lon="11.5213675"><ele>304.0</ele><time>2026-03-28T13:22:46.193Z</time></trkpt><trkpt lat="43.2974947" lon="11.5213887"><ele>304.0</ele><time>2026-03-28T13:22:47.194Z</time></trkpt><trkpt lat="43.2975897" lon="11.5214353"><ele>304.0</ele><time>2026-03-28T13:22:48.193Z</time></trkpt><trkpt lat="43.2976814" lon="11.521504"><ele>304.0</ele><time>2026-03-28T13:22:49.194Z</time></trkpt><trkpt lat="43.2977602" lon="11.5215761"><ele>304.0</ele><time>2026-03-28T13:22:50.194Z</time></trkpt><trkpt lat="43.2978358" lon="11.5216507"><ele>304.0</ele><time>2026-03-28T13:22:51.193Z</time></trkpt><trkpt lat="43.2979146" lon="11.5217365"><ele>304.0</ele><time>2026-03-28T13:22:52.194Z</time></trkpt><trkpt lat="43.2979862" lon="11.5218404"><ele>304.0</ele><time>2026-03-28T13:22:53.193Z</time></trkpt><trkpt lat="43.2980424" lon="11.5219474"><ele>304.0</ele><time>2026-03-28T13:22:54.194Z</time></trkpt><trkpt lat="43.2980878" lon="11.5220495"><ele>304.2</ele><time>2026-03-28T13:22:55.193Z</time></trkpt><trkpt lat="43.2981398" lon="11.5221501"><ele>304.4</ele><time>2026-03-28T13:22:56.193Z</time></trkpt><trkpt lat="43.2982108" lon="11.5222409"><ele>304.6</ele><time>2026-03-28T13:22:57.193Z</time></trkpt><trkpt lat="43.2982911" lon="11.5222951"><ele>304.8</ele><time>2026-03-28T13:22:58.194Z</time></trkpt><trkpt lat="43.2983796" lon="11.5223141"><ele>305.0</ele><time>2026-03-28T13:22:59.193Z</time></trkpt><trkpt lat="43.298474" lon="11.5222998"><ele>305.0</ele><time>2026-03-28T13:23:00.193Z</time></trkpt><trkpt lat="43.2985627" lon="11.5222763"><ele>305.0</ele><time>2026-03-28T13:23:01.193Z</time></trkpt><trkpt lat="43.2986497" lon="11.5222911"><ele>305.0</ele><time>2026-03-28T13:23:02.194Z</time></trkpt><trkpt lat="43.2987397" lon="11.5223389"><ele>305.0</ele><time>2026-03-28T13:23:03.194Z</time></trkpt><trkpt lat="43.2988289" lon="11.5224143"><ele>305.0</ele><time>2026-03-28T13:23:04.193Z</time></trkpt><trkpt lat="43.2989114" lon="11.5224872"><ele>303.6</ele><time>2026-03-28T13:23:05.193Z</time></trkpt><trkpt lat="43.2990065" lon="11.5225273"><ele>302.2</ele><time>2026-03-28T13:23:06.193Z</time></trkpt><trkpt lat="43.2990988" lon="11.5225394"><ele>300.8</ele><time>2026-03-28T13:23:07.193Z</time></trkpt><trkpt lat="43.2991962" lon="11.5225393"><ele>299.4</ele><time>2026-03-28T13:23:08.193Z</time></trkpt><trkpt lat="43.299296" lon="11.5225299"><ele>298.0</ele><time>2026-03-28T13:23:09.193Z</time></trkpt><trkpt lat="43.2993888" lon="11.5225097"><ele>298.0</ele><time>2026-03-28T13:23:10.193Z</time></trkpt><trkpt lat="43.299473" lon="11.5224763"><ele>298.0</ele><time>2026-03-28T13:23:11.193Z</time></trkpt><trkpt lat="43.2995518" lon="11.5224234"><ele>298.0</ele><time>2026-03-28T13:23:12.194Z</time></trkpt><trkpt lat="43.2996297" lon="11.5223627"><ele>298.0</ele><time>2026-03-28T13:23:13.194Z</time></trkpt><trkpt lat="43.299716" lon="11.5223107"><ele>298.0</ele><time>2026-03-28T13:23:14.194Z</time></trkpt><trkpt lat="43.2998149" lon="11.522273"><ele>298.25</ele><time>2026-03-28T13:23:15.193Z</time></trkpt><trkpt lat="43.2999231" lon="11.5222514"><ele>298.5</ele><time>2026-03-28T13:23:16.194Z</time></trkpt><trkpt lat="43.3000399" lon="11.5222469"><ele>298.75</ele><time>2026-03-28T13:23:17.193Z</time></trkpt><trkpt lat="43.3001608" lon="11.522255"><ele>299.0</ele><time>2026-03-28T13:23:18.194Z</time></trkpt><trkpt lat="43.300266" lon="11.5222797"><ele>299.0</ele><time>2026-03-28T13:23:19.194Z</time></trkpt><trkpt lat="43.3003536" lon="11.5223229"><ele>299.0</ele><time>2026-03-28T13:23:20.193Z</time></trkpt><trkpt lat="43.3004362" lon="11.5223673"><ele>299.0</ele><time>2026-03-28T13:23:21.194Z</time></trkpt><trkpt lat="43.300523" lon="11.5224147"><ele>299.0</ele><time>2026-03-28T13:23:22.193Z</time></trkpt><trkpt lat="43.300618" lon="11.5224537"><ele>299.0</ele><time>2026-03-28T13:23:23.194Z</time></trkpt><trkpt lat="43.300718" lon="11.5224871"><ele>298.0</ele><time>2026-03-28T13:23:24.193Z</time></trkpt><trkpt lat="43.3008209" lon="11.5225193"><ele>297.0</ele><time>2026-03-28T13:23:25.194Z</time></trkpt><trkpt lat="43.3009281" lon="11.5225486"><ele>296.0</ele><time>2026-03-28T13:23:26.193Z</time></trkpt><trkpt lat="43.3010321" lon="11.5225833"><ele>295.0</ele><time>2026-03-28T13:23:27.193Z</time></trkpt><trkpt lat="43.3011229" lon="11.5226312"><ele>294.0</ele><time>2026-03-28T13:23:28.194Z</time></trkpt><trkpt lat="43.3012112" lon="11.5226834"><ele>294.0</ele><time>2026-03-28T13:23:29.194Z</time></trkpt><trkpt lat="43.3012947" lon="11.5227349"><ele>294.0</ele><time>2026-03-28T13:23:30.193Z</time></trkpt><trkpt lat="43.3013794" lon="11.5227847"><ele>294.0</ele><time>2026-03-28T13:23:31.193Z</time></trkpt><trkpt lat="43.3014691" lon="11.5228362"><ele>294.0</ele><time>2026-03-28T13:23:32.193Z</time></trkpt><trkpt lat="43.301568" lon="11.5228716"><ele>294.0</ele><time>2026-03-28T13:23:33.194Z</time></trkpt><trkpt lat="43.3016692" lon="11.5228903"><ele>297.8</ele><time>2026-03-28T13:23:34.194Z</time></trkpt><trkpt lat="43.3017778" lon="11.5229059"><ele>301.59999999999997</ele><time>2026-03-28T13:23:35.193Z</time></trkpt><trkpt lat="43.301878" lon="11.5229172"><ele>305.4</ele><time>2026-03-28T13:23:36.193Z</time></trkpt><trkpt lat="43.3019763" lon="11.5229342"><ele>309.2</ele><time>2026-03-28T13:23:37.193Z</time></trkpt><trkpt lat="43.302078" lon="11.5229499"><ele>313.0</ele><time>2026-03-28T13:23:38.194Z</time></trkpt><trkpt lat="43.3021786" lon="11.5229396"><ele>313.2</ele><time>2026-03-28T13:23:39.193Z</time></trkpt><trkpt lat="43.3022768" lon="11.5229159"><ele>313.4</ele><time>2026-03-28T13:23:40.194Z</time></trkpt><trkpt lat="43.3023743" lon="11.5228664"><ele>313.59999999999997</ele><time>2026-03-28T13:23:41.194Z</time></trkpt><trkpt lat="43.3024799" lon="11.5228184"><ele>313.8</ele><time>2026-03-28T13:23:42.193Z</time></trkpt><trkpt lat="43.3025877" lon="11.5227793"><ele>314.0</ele><time>2026-03-28T13:23:43.193Z</time></trkpt><trkpt lat="43.3026885" lon="11.5227492"><ele>309.59999999999997</ele><time>2026-03-28T13:23:44.193Z</time></trkpt><trkpt lat="43.3027924" lon="11.5227233"><ele>305.2</ele><time>2026-03-28T13:23:45.193Z</time></trkpt><trkpt lat="43.3028873" lon="11.5227114"><ele>300.79999999999995</ele><time>2026-03-28T13:23:46.194Z</time></trkpt><trkpt lat="43.302988" lon="11.5227094"><ele>296.4</ele><time>2026-03-28T13:23:47.193Z</time></trkpt><trkpt lat="43.3030894" lon="11.5227082"><ele>292.0</ele><time>2026-03-28T13:23:48.194Z</time></trkpt><trkpt lat="43.3031809" lon="11.5227185"><ele>291.4</ele><time>2026-03-28T13:23:49.193Z</time></trkpt><trkpt lat="43.3032701" lon="11.5227484"><ele>290.79999999999995</ele><time>2026-03-28T13:23:50.193Z</time></trkpt><trkpt lat="43.3033541" lon="11.5228058"><ele>290.2</ele><time>2026-03-28T13:23:51.193Z</time></trkpt><trkpt lat="43.3034323" lon="11.5228885"><ele>289.59999999999997</ele><time>2026-03-28T13:23:52.193Z</time></trkpt><trkpt lat="43.3034982" lon="11.5229935"><ele>289.0</ele><time>2026-03-28T13:23:53.193Z</time></trkpt><trkpt lat="43.3035624" lon="11.5231063"><ele>293.75</ele><time>2026-03-28T13:23:54.193Z</time></trkpt><trkpt lat="43.3036325" lon="11.5232297"><ele>298.5</ele><time>2026-03-28T13:23:55.194Z</time></trkpt><trkpt lat="43.3037069" lon="11.5233523"><ele>303.25</ele><time>2026-03-28T13:23:56.194Z</time></trkpt><trkpt lat="43.3037823" lon="11.5234841"><ele>308.0</ele><time>2026-03-28T13:23:57.193Z</time></trkpt><trkpt lat="43.3038561" lon="11.5236174"><ele>305.2</ele><time>2026-03-28T13:23:58.194Z</time></trkpt><trkpt lat="43.3039298" lon="11.5237286"><ele>302.4</ele><time>2026-03-28T13:23:59.193Z</time></trkpt><trkpt lat="43.3040182" lon="11.5238126"><ele>299.59999999999997</ele><time>2026-03-28T13:24:00.194Z</time></trkpt><trkpt lat="43.3041135" lon="11.5238601"><ele>296.8</ele><time>2026-03-28T13:24:01.193Z</time></trkpt><trkpt lat="43.3042153" lon="11.5238633"><ele>294.0</ele><time>2026-03-28T13:24:02.193Z</time></trkpt><trkpt lat="43.3043118" lon="11.5238279"><ele>294.0</ele><time>2026-03-28T13:24:03.193Z</time></trkpt><trkpt lat="43.3044" lon="11.5237566"><ele>294.0</ele><time>2026-03-28T13:24:04.194Z</time></trkpt><trkpt lat="43.3044813" lon="11.5236662"><ele>294.0</ele><time>2026-03-28T13:24:05.193Z</time></trkpt><trkpt lat="43.3045547" lon="11.5235623"><ele>294.0</ele><time>2026-03-28T13:24:06.193Z</time></trkpt><trkpt lat="43.3046229" lon="11.5234515"><ele>294.0</ele><time>2026-03-28T13:24:07.193Z</time></trkpt><trkpt lat="43.3046966" lon="11.5233418"><ele>296.4</ele><time>2026-03-28T13:24:08.193Z</time></trkpt><trkpt lat="43.3047821" lon="11.5232609"><ele>298.79999999999995</ele><time>2026-03-28T13:24:09.193Z</time></trkpt><trkpt lat="43.3048755" lon="11.5231856"><ele>301.20000000000005</ele><time>2026-03-28T13:24:10.194Z</time></trkpt><trkpt lat="43.3049762" lon="11.5231152"><ele>303.6</ele><time>2026-03-28T13:24:11.193Z</time></trkpt><trkpt lat="43.3050753" lon="11.5230467"><ele>306.0</ele><time>2026-03-28T13:24:12.193Z</time></trkpt><trkpt lat="43.3051795" lon="11.522989"><ele>306.0</ele><time>2026-03-28T13:24:13.193Z</time></trkpt><trkpt lat="43.3052933" lon="11.5229293"><ele>306.0</ele><time>2026-03-28T13:24:14.193Z</time></trkpt><trkpt lat="43.3054088" lon="11.5228782"><ele>306.0</ele><time>2026-03-28T13:24:15.193Z</time></trkpt><trkpt lat="43.3055107" lon="11.5228392"><ele>306.0</ele><time>2026-03-28T13:24:16.194Z</time></trkpt><trkpt lat="43.3056146" lon="11.5227993"><ele>307.6</ele><time>2026-03-28T13:24:17.193Z</time></trkpt><trkpt lat="43.3057094" lon="11.5227958"><ele>309.20000000000005</ele><time>2026-03-28T13:24:18.194Z</time></trkpt><trkpt lat="43.3058059" lon="11.5228172"><ele>310.79999999999995</ele><time>2026-03-28T13:24:19.194Z</time></trkpt><trkpt lat="43.3059081" lon="11.5228491"><ele>312.4</ele><time>2026-03-28T13:24:20.193Z</time></trkpt><trkpt lat="43.3060185" lon="11.5228908"><ele>314.0</ele><time>2026-03-28T13:24:21.194Z</time></trkpt><trkpt lat="43.3061322" lon="11.522934"><ele>314.8</ele><time>2026-03-28T13:24:22.194Z</time></trkpt><trkpt lat="43.3062331" lon="11.5229737"><ele>315.59999999999997</ele><time>2026-03-28T13:24:23.193Z</time></trkpt><trkpt lat="43.3063432" lon="11.5230025"><ele>316.4</ele><time>2026-03-28T13:24:24.194Z</time></trkpt><trkpt lat="43.3064562" lon="11.5230172"><ele>317.2</ele><time>2026-03-28T13:24:25.193Z</time></trkpt><trkpt lat="43.3065743" lon="11.5230323"><ele>318.0</ele><time>2026-03-28T13:24:26.193Z</time></trkpt><trkpt lat="43.3067018" lon="11.5230517"><ele>319.75</ele><time>2026-03-28T13:24:27.194Z</time></trkpt><trkpt lat="43.3068274" lon="11.5230632"><ele>321.5</ele><time>2026-03-28T13:24:28.194Z</time></trkpt><trkpt lat="43.3069395" lon="11.5230596"><ele>323.25</ele><time>2026-03-28T13:24:29.194Z</time></trkpt><trkpt lat="43.3070481" lon="11.5230665"><ele>325.0</ele><time>2026-03-28T13:24:30.193Z</time></trkpt><trkpt lat="43.3071613" lon="11.5230739"><ele>325.2</ele><time>2026-03-28T13:24:31.193Z</time></trkpt><trkpt lat="43.3072714" lon="11.5230871"><ele>325.4</ele><time>2026-03-28T13:24:32.194Z</time></trkpt><trkpt lat="43.3073723" lon="11.5231098"><ele>325.6</ele><time>2026-03-28T13:24:33.194Z</time></trkpt><trkpt lat="43.30746" lon="11.5231509"><ele>325.8</ele><time>2026-03-28T13:24:34.194Z</time></trkpt><trkpt lat="43.3075331" lon="11.5232017"><ele>326.0</ele><time>2026-03-28T13:24:35.193Z</time></trkpt><trkpt lat="43.3075971" lon="11.5232768"><ele>326.0</ele><time>2026-03-28T13:24:36.192Z</time></trkpt><trkpt lat="43.3076534" lon="11.5233613"><ele>326.0</ele><time>2026-03-28T13:24:37.193Z</time></trkpt><trkpt lat="43.3077288" lon="11.5234374"><ele>326.0</ele><time>2026-03-28T13:24:38.192Z</time></trkpt><trkpt lat="43.3078166" lon="11.5235085"><ele>326.0</ele><time>2026-03-28T13:24:39.192Z</time></trkpt><trkpt lat="43.3079161" lon="11.5235814"><ele>326.0</ele><time>2026-03-28T13:24:40.192Z</time></trkpt><trkpt lat="43.308011" lon="11.5236506"><ele>326.0</ele><time>2026-03-28T13:24:41.193Z</time></trkpt><trkpt lat="43.3080906" lon="11.5237113"><ele>326.0</ele><time>2026-03-28T13:24:42.192Z</time></trkpt><trkpt lat="43.3081786" lon="11.5237829"><ele>326.0</ele><time>2026-03-28T13:24:43.192Z</time></trkpt><trkpt lat="43.3082648" lon="11.5238515"><ele>326.0</ele><time>2026-03-28T13:24:44.193Z</time></trkpt><trkpt lat="43.3083446" lon="11.5239"><ele>326.0</ele><time>2026-03-28T13:24:45.193Z</time></trkpt><trkpt lat="43.3084108" lon="11.5239598"><ele>326.0</ele><time>2026-03-28T13:24:46.192Z</time></trkpt><trkpt lat="43.3084792" lon="11.5240371"><ele>326.0</ele><time>2026-03-28T13:24:47.192Z</time></trkpt><trkpt lat="43.3085409" lon="11.5241194"><ele>326.0</ele><time>2026-03-28T13:24:48.192Z</time></trkpt><trkpt lat="43.3085877" lon="11.5241927"><ele>326.0</ele><time>2026-03-28T13:24:49.192Z</time></trkpt><trkpt lat="43.3086284" lon="11.5242628"><ele>326.0</ele><time>2026-03-28T13:24:50.192Z</time></trkpt><trkpt lat="43.3086665" lon="11.5243337"><ele>326.0</ele><time>2026-03-28T13:24:51.192Z</time></trkpt><trkpt lat="43.3087586" lon="11.5244072"><ele>326.0</ele><time>2026-03-28T13:24:53.192Z</time></trkpt><trkpt lat="43.3088595" lon="11.5243042"><ele>326.0</ele><time>2026-03-28T13:24:55.191Z</time></trkpt><trkpt lat="43.3088867" lon="11.5241844"><ele>326.0</ele><time>2026-03-28T13:24:56.192Z</time></trkpt><trkpt lat="43.3089079" lon="11.5240419"><ele>326.0</ele><time>2026-03-28T13:24:57.192Z</time></trkpt><trkpt lat="43.3089161" lon="11.5238884"><ele>326.0</ele><time>2026-03-28T13:24:58.192Z</time></trkpt><trkpt lat="43.3089056" lon="11.5237349"><ele>326.20000000000005</ele><time>2026-03-28T13:24:59.192Z</time></trkpt><trkpt lat="43.3088929" lon="11.523601"><ele>326.40000000000003</ele><time>2026-03-28T13:25:00.193Z</time></trkpt><trkpt lat="43.3088746" lon="11.5234761"><ele>326.6</ele><time>2026-03-28T13:25:01.192Z</time></trkpt><trkpt lat="43.3088771" lon="11.5233583"><ele>326.8</ele><time>2026-03-28T13:25:02.192Z</time></trkpt><trkpt lat="43.3089096" lon="11.5232426"><ele>327.0</ele><time>2026-03-28T13:25:03.193Z</time></trkpt><trkpt lat="43.3089698" lon="11.5231263"><ele>324.25</ele><time>2026-03-28T13:25:04.193Z</time></trkpt><trkpt lat="43.3090547" lon="11.5230086"><ele>321.5</ele><time>2026-03-28T13:25:05.193Z</time></trkpt><trkpt lat="43.309154" lon="11.5228955"><ele>318.75</ele><time>2026-03-28T13:25:06.192Z</time></trkpt><trkpt lat="43.3092646" lon="11.522799"><ele>316.0</ele><time>2026-03-28T13:25:07.192Z</time></trkpt><trkpt lat="43.3094012" lon="11.5227141"><ele>314.5</ele><time>2026-03-28T13:25:08.192Z</time></trkpt><trkpt lat="43.3095245" lon="11.5226334"><ele>313.0</ele><time>2026-03-28T13:25:09.192Z</time></trkpt><trkpt lat="43.3096348" lon="11.5225395"><ele>311.5</ele><time>2026-03-28T13:25:10.192Z</time></trkpt><trkpt lat="43.3097366" lon="11.5224168"><ele>310.0</ele><time>2026-03-28T13:25:11.193Z</time></trkpt><trkpt lat="43.3098118" lon="11.5222684"><ele>309.25</ele><time>2026-03-28T13:25:12.192Z</time></trkpt><trkpt lat="43.3098615" lon="11.5220979"><ele>308.5</ele><time>2026-03-28T13:25:13.192Z</time></trkpt><trkpt lat="43.3098788" lon="11.5219094"><ele>307.75</ele><time>2026-03-28T13:25:14.192Z</time></trkpt><trkpt lat="43.3098613" lon="11.5217279"><ele>307.0</ele><time>2026-03-28T13:25:15.192Z</time></trkpt><trkpt lat="43.3098148" lon="11.5215428"><ele>306.5</ele><time>2026-03-28T13:25:16.193Z</time></trkpt><trkpt lat="43.3097635" lon="11.5213606"><ele>306.0</ele><time>2026-03-28T13:25:17.193Z</time></trkpt><trkpt lat="43.3097328" lon="11.5211549"><ele>305.5</ele><time>2026-03-28T13:25:18.192Z</time></trkpt><trkpt lat="43.3097196" lon="11.5209562"><ele>305.0</ele><time>2026-03-28T13:25:19.192Z</time></trkpt><trkpt lat="43.3097058" lon="11.5207639"><ele>302.75</ele><time>2026-03-28T13:25:20.192Z</time></trkpt><trkpt lat="43.3096921" lon="11.5205774"><ele>300.5</ele><time>2026-03-28T13:25:21.191Z</time></trkpt><trkpt lat="43.3096784" lon="11.5203958"><ele>298.25</ele><time>2026-03-28T13:25:22.192Z</time></trkpt><trkpt lat="43.3096673" lon="11.5202039"><ele>296.0</ele><time>2026-03-28T13:25:23.192Z</time></trkpt><trkpt lat="43.3096618" lon="11.5200118"><ele>296.0</ele><time>2026-03-28T13:25:24.193Z</time></trkpt><trkpt lat="43.3096903" lon="11.5198134"><ele>296.0</ele><time>2026-03-28T13:25:25.191Z</time></trkpt><trkpt lat="43.3097421" lon="11.5196123"><ele>296.0</ele><time>2026-03-28T13:25:26.193Z</time></trkpt><trkpt lat="43.3098086" lon="11.5194156"><ele>296.0</ele><time>2026-03-28T13:25:27.192Z</time></trkpt><trkpt lat="43.3098776" lon="11.519207"><ele>296.0</ele><time>2026-03-28T13:25:28.193Z</time></trkpt><trkpt lat="43.3099283" lon="11.5190102"><ele>296.0</ele><time>2026-03-28T13:25:29.192Z</time></trkpt><trkpt lat="43.309944" lon="11.518796"><ele>295.6666666666667</ele><time>2026-03-28T13:25:30.192Z</time></trkpt><trkpt lat="43.3099303" lon="11.5185727"><ele>295.3333333333333</ele><time>2026-03-28T13:25:31.193Z</time></trkpt><trkpt lat="43.3098854" lon="11.5183438"><ele>295.0</ele><time>2026-03-28T13:25:32.192Z</time></trkpt><trkpt lat="43.3098168" lon="11.5181186"><ele>293.3333333333333</ele><time>2026-03-28T13:25:33.192Z</time></trkpt><trkpt lat="43.3097297" lon="11.5179196"><ele>291.6666666666667</ele><time>2026-03-28T13:25:34.192Z</time></trkpt><trkpt lat="43.3096263" lon="11.5177449"><ele>290.0</ele><time>2026-03-28T13:25:35.192Z</time></trkpt><trkpt lat="43.3095147" lon="11.5175974"><ele>290.0</ele><time>2026-03-28T13:25:36.192Z</time></trkpt><trkpt lat="43.3094037" lon="11.5174616"><ele>290.0</ele><time>2026-03-28T13:25:37.192Z</time></trkpt><trkpt lat="43.3093072" lon="11.5173265"><ele>290.0</ele><time>2026-03-28T13:25:38.193Z</time></trkpt><trkpt lat="43.3092397" lon="11.5171788"><ele>290.0</ele><time>2026-03-28T13:25:39.192Z</time></trkpt><trkpt lat="43.309199" lon="11.5170279"><ele>290.8</ele><time>2026-03-28T13:25:40.193Z</time></trkpt><trkpt lat="43.3091865" lon="11.5168747"><ele>291.6</ele><time>2026-03-28T13:25:41.193Z</time></trkpt><trkpt lat="43.3092102" lon="11.5167333"><ele>292.4</ele><time>2026-03-28T13:25:42.192Z</time></trkpt><trkpt lat="43.3092651" lon="11.5166081"><ele>293.2</ele><time>2026-03-28T13:25:43.192Z</time></trkpt><trkpt lat="43.3093416" lon="11.516498"><ele>294.0</ele><time>2026-03-28T13:25:44.192Z</time></trkpt><trkpt lat="43.3094252" lon="11.5163952"><ele>294.0</ele><time>2026-03-28T13:25:45.192Z</time></trkpt><trkpt lat="43.3095034" lon="11.5162896"><ele>294.0</ele><time>2026-03-28T13:25:46.192Z</time></trkpt><trkpt lat="43.3095778" lon="11.5161859"><ele>294.0</ele><time>2026-03-28T13:25:47.192Z</time></trkpt><trkpt lat="43.3096559" lon="11.5160838"><ele>294.0</ele><time>2026-03-28T13:25:48.192Z</time></trkpt><trkpt lat="43.3097484" lon="11.515971"><ele>294.0</ele><time>2026-03-28T13:25:49.191Z</time></trkpt><trkpt lat="43.309848" lon="11.515852"><ele>292.75</ele><time>2026-03-28T13:25:50.192Z</time></trkpt><trkpt lat="43.3099419" lon="11.5157364"><ele>291.5</ele><time>2026-03-28T13:25:51.193Z</time></trkpt><trkpt lat="43.3100336" lon="11.5156282"><ele>290.25</ele><time>2026-03-28T13:25:52.192Z</time></trkpt><trkpt lat="43.3101282" lon="11.515537"><ele>289.0</ele><time>2026-03-28T13:25:53.193Z</time></trkpt><trkpt lat="43.3102261" lon="11.5154675"><ele>289.0</ele><time>2026-03-28T13:25:54.192Z</time></trkpt><trkpt lat="43.310325" lon="11.5154132"><ele>289.0</ele><time>2026-03-28T13:25:55.192Z</time></trkpt><trkpt lat="43.3104241" lon="11.5153657"><ele>289.0</ele><time>2026-03-28T13:25:56.192Z</time></trkpt><trkpt lat="43.3105209" lon="11.5153284"><ele>289.0</ele><time>2026-03-28T13:25:57.192Z</time></trkpt><trkpt lat="43.310614" lon="11.5152971"><ele>289.0</ele><time>2026-03-28T13:25:58.193Z</time></trkpt><trkpt lat="43.3107063" lon="11.5152693"><ele>287.8</ele><time>2026-03-28T13:25:59.193Z</time></trkpt><trkpt lat="43.3107965" lon="11.5152391"><ele>286.59999999999997</ele><time>2026-03-28T13:26:00.192Z</time></trkpt><trkpt lat="43.3108852" lon="11.5152098"><ele>285.4</ele><time>2026-03-28T13:26:01.193Z</time></trkpt><trkpt lat="43.3109733" lon="11.5151845"><ele>284.2</ele><time>2026-03-28T13:26:02.193Z</time></trkpt><trkpt lat="43.3110606" lon="11.515172"><ele>283.0</ele><time>2026-03-28T13:26:03.193Z</time></trkpt><trkpt lat="43.3111533" lon="11.515168"><ele>283.0</ele><time>2026-03-28T13:26:04.192Z</time></trkpt><trkpt lat="43.3112615" lon="11.5151641"><ele>283.0</ele><time>2026-03-28T13:26:05.193Z</time></trkpt><trkpt lat="43.3113788" lon="11.5151662"><ele>283.0</ele><time>2026-03-28T13:26:06.192Z</time></trkpt><trkpt lat="43.3114981" lon="11.51517"><ele>283.0</ele><time>2026-03-28T13:26:07.193Z</time></trkpt><trkpt lat="43.3116205" lon="11.5151754"><ele>285.0</ele><time>2026-03-28T13:26:08.192Z</time></trkpt><trkpt lat="43.3117526" lon="11.5151709"><ele>287.0</ele><time>2026-03-28T13:26:09.191Z</time></trkpt><trkpt lat="43.3118855" lon="11.5151375"><ele>289.0</ele><time>2026-03-28T13:26:10.192Z</time></trkpt><trkpt lat="43.3119978" lon="11.5150592"><ele>291.0</ele><time>2026-03-28T13:26:11.192Z</time></trkpt><trkpt lat="43.3120959" lon="11.5149284"><ele>291.0</ele><time>2026-03-28T13:26:12.192Z</time></trkpt><trkpt lat="43.312186" lon="11.5147603"><ele>291.0</ele><time>2026-03-28T13:26:13.192Z</time></trkpt><trkpt lat="43.3122758" lon="11.5145811"><ele>291.0</ele><time>2026-03-28T13:26:14.192Z</time></trkpt><trkpt lat="43.3123624" lon="11.5144101"><ele>293.0</ele><time>2026-03-28T13:26:15.192Z</time></trkpt><trkpt lat="43.3124708" lon="11.5142543"><ele>295.0</ele><time>2026-03-28T13:26:16.193Z</time></trkpt><trkpt lat="43.3126122" lon="11.514122"><ele>297.0</ele><time>2026-03-28T13:26:17.192Z</time></trkpt><trkpt lat="43.312761" lon="11.5140061"><ele>297.0</ele><time>2026-03-28T13:26:18.192Z</time></trkpt><trkpt lat="43.3129185" lon="11.5139152"><ele>297.0</ele><time>2026-03-28T13:26:19.192Z</time></trkpt><trkpt lat="43.3130797" lon="11.5138704"><ele>297.0</ele><time>2026-03-28T13:26:20.192Z</time></trkpt><trkpt lat="43.3132318" lon="11.5138815"><ele>297.6666666666667</ele><time>2026-03-28T13:26:21.192Z</time></trkpt><trkpt lat="43.3133891" lon="11.5139348"><ele>298.33333333333337</ele><time>2026-03-28T13:26:22.192Z</time></trkpt><trkpt lat="43.3135304" lon="11.5140145"><ele>299.0</ele><time>2026-03-28T13:26:23.193Z</time></trkpt><trkpt lat="43.3136527" lon="11.5141068"><ele>299.0</ele><time>2026-03-28T13:26:24.192Z</time></trkpt><trkpt lat="43.3137667" lon="11.5142091"><ele>299.0</ele><time>2026-03-28T13:26:25.192Z</time></trkpt><trkpt lat="43.3138644" lon="11.5143101"><ele>299.0</ele><time>2026-03-28T13:26:26.192Z</time></trkpt><trkpt lat="43.3139537" lon="11.5144089"><ele>299.0</ele><time>2026-03-28T13:26:27.193Z</time></trkpt><trkpt lat="43.3140357" lon="11.5145133"><ele>299.0</ele><time>2026-03-28T13:26:28.192Z</time></trkpt><trkpt lat="43.3141122" lon="11.5145933"><ele>299.0</ele><time>2026-03-28T13:26:29.192Z</time></trkpt><trkpt lat="43.3142092" lon="11.514652"><ele>299.0</ele><time>2026-03-28T13:26:30.192Z</time></trkpt><trkpt lat="43.3143176" lon="11.5146555"><ele>299.0</ele><time>2026-03-28T13:26:31.192Z</time></trkpt><trkpt lat="43.3144267" lon="11.5146018"><ele>299.0</ele><time>2026-03-28T13:26:32.192Z</time></trkpt><trkpt lat="43.3145279" lon="11.5144983"><ele>299.25</ele><time>2026-03-28T13:26:33.192Z</time></trkpt><trkpt lat="43.3146196" lon="11.5143526"><ele>299.5</ele><time>2026-03-28T13:26:34.193Z</time></trkpt><trkpt lat="43.3146999" lon="11.5141858"><ele>299.75</ele><time>2026-03-28T13:26:35.193Z</time></trkpt><trkpt lat="43.3147847" lon="11.5140489"><ele>300.0</ele><time>2026-03-28T13:26:36.192Z</time></trkpt><trkpt lat="43.3149051" lon="11.5139502"><ele>301.0</ele><time>2026-03-28T13:26:37.193Z</time></trkpt><trkpt lat="43.3150431" lon="11.5139088"><ele>302.0</ele><time>2026-03-28T13:26:38.193Z</time></trkpt><trkpt lat="43.3151694" lon="11.5138975"><ele>303.0</ele><time>2026-03-28T13:26:39.192Z</time></trkpt><trkpt lat="43.3152998" lon="11.5138956"><ele>304.0</ele><time>2026-03-28T13:26:40.193Z</time></trkpt><trkpt lat="43.3154132" lon="11.5139234"><ele>304.0</ele><time>2026-03-28T13:26:41.192Z</time></trkpt><trkpt lat="43.3154976" lon="11.5140017"><ele>304.0</ele><time>2026-03-28T13:26:42.192Z</time></trkpt><trkpt lat="43.3155455" lon="11.514126"><ele>304.0</ele><time>2026-03-28T13:26:43.193Z</time></trkpt><trkpt lat="43.3155735" lon="11.5142687"><ele>304.0</ele><time>2026-03-28T13:26:44.192Z</time></trkpt><trkpt lat="43.3155956" lon="11.5144071"><ele>304.0</ele><time>2026-03-28T13:26:45.193Z</time></trkpt><trkpt lat="43.3156075" lon="11.5145481"><ele>303.0</ele><time>2026-03-28T13:26:46.192Z</time></trkpt><trkpt lat="43.3156187" lon="11.5146758"><ele>302.0</ele><time>2026-03-28T13:26:47.193Z</time></trkpt><trkpt lat="43.3156469" lon="11.514805"><ele>301.0</ele><time>2026-03-28T13:26:48.192Z</time></trkpt><trkpt lat="43.3156959" lon="11.514925"><ele>300.0</ele><time>2026-03-28T13:26:49.192Z</time></trkpt><trkpt lat="43.3157616" lon="11.5150386"><ele>299.0</ele><time>2026-03-28T13:26:50.192Z</time></trkpt><trkpt lat="43.3158418" lon="11.5151507"><ele>299.0</ele><time>2026-03-28T13:26:51.193Z</time></trkpt><trkpt lat="43.3159403" lon="11.5152403"><ele>299.0</ele><time>2026-03-28T13:26:52.192Z</time></trkpt><trkpt lat="43.3160514" lon="11.5152902"><ele>299.0</ele><time>2026-03-28T13:26:53.192Z</time></trkpt><trkpt lat="43.316172" lon="11.515296"><ele>299.0</ele><time>2026-03-28T13:26:54.192Z</time></trkpt><trkpt lat="43.3162942" lon="11.5152695"><ele>299.0</ele><time>2026-03-28T13:26:55.193Z</time></trkpt><trkpt lat="43.3163999" lon="11.5152448"><ele>299.0</ele><time>2026-03-28T13:26:56.193Z</time></trkpt><trkpt lat="43.3165092" lon="11.5152179"><ele>299.0</ele><time>2026-03-28T13:26:57.192Z</time></trkpt><trkpt lat="43.3166237" lon="11.5151777"><ele>299.0</ele><time>2026-03-28T13:26:58.192Z</time></trkpt><trkpt lat="43.3167459" lon="11.5151242"><ele>299.25</ele><time>2026-03-28T13:26:59.193Z</time></trkpt><trkpt lat="43.316875" lon="11.5150624"><ele>299.5</ele><time>2026-03-28T13:27:00.192Z</time></trkpt><trkpt lat="43.3170083" lon="11.5149965"><ele>299.75</ele><time>2026-03-28T13:27:01.193Z</time></trkpt><trkpt lat="43.3171482" lon="11.5149382"><ele>300.0</ele><time>2026-03-28T13:27:02.192Z</time></trkpt><trkpt lat="43.3172783" lon="11.5148868"><ele>300.25</ele><time>2026-03-28T13:27:03.193Z</time></trkpt><trkpt lat="43.3173989" lon="11.514801"><ele>300.5</ele><time>2026-03-28T13:27:04.193Z</time></trkpt><trkpt lat="43.317503" lon="11.5146675"><ele>300.75</ele><time>2026-03-28T13:27:05.193Z</time></trkpt><trkpt lat="43.3175891" lon="11.5144836"><ele>301.0</ele><time>2026-03-28T13:27:06.193Z</time></trkpt><trkpt lat="43.3176528" lon="11.5142773"><ele>301.0</ele><time>2026-03-28T13:27:07.193Z</time></trkpt><trkpt lat="43.3177031" lon="11.5140694"><ele>301.0</ele><time>2026-03-28T13:27:08.192Z</time></trkpt><trkpt lat="43.3177406" lon="11.5138739"><ele>301.0</ele><time>2026-03-28T13:27:09.192Z</time></trkpt><trkpt lat="43.3178033" lon="11.5137104"><ele>301.0</ele><time>2026-03-28T13:27:10.192Z</time></trkpt><trkpt lat="43.3179015" lon="11.5135674"><ele>300.0</ele><time>2026-03-28T13:27:11.192Z</time></trkpt><trkpt lat="43.318038" lon="11.5134757"><ele>299.0</ele><time>2026-03-28T13:27:12.192Z</time></trkpt><trkpt lat="43.3181897" lon="11.5134219"><ele>298.0</ele><time>2026-03-28T13:27:13.192Z</time></trkpt><trkpt lat="43.3183311" lon="11.5134021"><ele>298.0</ele><time>2026-03-28T13:27:14.192Z</time></trkpt><trkpt lat="43.3184744" lon="11.5134307"><ele>298.0</ele><time>2026-03-28T13:27:15.193Z</time></trkpt><trkpt lat="43.318597" lon="11.5135137"><ele>298.0</ele><time>2026-03-28T13:27:16.193Z</time></trkpt><trkpt lat="43.3186981" lon="11.5136546"><ele>298.0</ele><time>2026-03-28T13:27:17.193Z</time></trkpt><trkpt lat="43.318752" lon="11.5138268"><ele>298.5</ele><time>2026-03-28T13:27:18.192Z</time></trkpt><trkpt lat="43.3187606" lon="11.5139995"><ele>299.0</ele><time>2026-03-28T13:27:19.193Z</time></trkpt><trkpt lat="43.3187424" lon="11.5141593"><ele>299.5</ele><time>2026-03-28T13:27:20.192Z</time></trkpt><trkpt lat="43.3186957" lon="11.5142984"><ele>300.0</ele><time>2026-03-28T13:27:21.192Z</time></trkpt><trkpt lat="43.3186274" lon="11.5144081"><ele>300.0</ele><time>2026-03-28T13:27:22.192Z</time></trkpt><trkpt lat="43.3185574" lon="11.5144813"><ele>300.0</ele><time>2026-03-28T13:27:23.192Z</time></trkpt><trkpt lat="43.3184914" lon="11.5145465"><ele>300.0</ele><time>2026-03-28T13:27:24.192Z</time></trkpt><trkpt lat="43.318436" lon="11.5146145"><ele>300.0</ele><time>2026-03-28T13:27:25.192Z</time></trkpt><trkpt lat="43.3183891" lon="11.5146839"><ele>300.0</ele><time>2026-03-28T13:27:26.192Z</time></trkpt><trkpt lat="43.3183426" lon="11.5148228"><ele>300.0</ele><time>2026-03-28T13:27:28.193Z</time></trkpt><trkpt lat="43.3183514" lon="11.5149107"><ele>299.6666666666667</ele><time>2026-03-28T13:27:29.192Z</time></trkpt><trkpt lat="43.3183875" lon="11.5149907"><ele>299.3333333333333</ele><time>2026-03-28T13:27:30.192Z</time></trkpt><trkpt lat="43.3184464" lon="11.5150316"><ele>299.0</ele><time>2026-03-28T13:27:31.192Z</time></trkpt><trkpt lat="43.3185117" lon="11.5150198"><ele>298.66666666666663</ele><time>2026-03-28T13:27:32.192Z</time></trkpt><trkpt lat="43.3186114" lon="11.5149055"><ele>298.3333333333333</ele><time>2026-03-28T13:27:34.192Z</time></trkpt><trkpt lat="43.3186599" lon="11.5148216"><ele>298.0</ele><time>2026-03-28T13:27:35.193Z</time></trkpt><trkpt lat="43.3187186" lon="11.514723"><ele>298.0</ele><time>2026-03-28T13:27:36.192Z</time></trkpt><trkpt lat="43.318785" lon="11.5146234"><ele>298.0</ele><time>2026-03-28T13:27:37.193Z</time></trkpt><trkpt lat="43.3188637" lon="11.5145042"><ele>298.0</ele><time>2026-03-28T13:27:38.193Z</time></trkpt><trkpt lat="43.3189265" lon="11.5143992"><ele>298.0</ele><time>2026-03-28T13:27:39.193Z</time></trkpt><trkpt lat="43.3189735" lon="11.514299"><ele>298.0</ele><time>2026-03-28T13:27:40.192Z</time></trkpt><trkpt lat="43.319003" lon="11.5141846"><ele>297.0</ele><time>2026-03-28T13:27:41.191Z</time></trkpt><trkpt lat="43.3190119" lon="11.5140732"><ele>296.0</ele><time>2026-03-28T13:27:42.192Z</time></trkpt><trkpt lat="43.3190127" lon="11.5139448"><ele>295.0</ele><time>2026-03-28T13:27:43.192Z</time></trkpt><trkpt lat="43.319012" lon="11.5137978"><ele>294.0</ele><time>2026-03-28T13:27:44.192Z</time></trkpt><trkpt lat="43.3190111" lon="11.5136334"><ele>293.0</ele><time>2026-03-28T13:27:45.193Z</time></trkpt><trkpt lat="43.3190204" lon="11.5134696"><ele>292.25</ele><time>2026-03-28T13:27:46.192Z</time></trkpt><trkpt lat="43.3190555" lon="11.5133091"><ele>291.5</ele><time>2026-03-28T13:27:47.193Z</time></trkpt><trkpt lat="43.3191137" lon="11.5131575"><ele>290.75</ele><time>2026-03-28T13:27:48.193Z</time></trkpt><trkpt lat="43.319184" lon="11.5130018"><ele>290.0</ele><time>2026-03-28T13:27:49.193Z</time></trkpt><trkpt lat="43.3192381" lon="11.5128407"><ele>287.75</ele><time>2026-03-28T13:27:50.192Z</time></trkpt><trkpt lat="43.3192642" lon="11.5126602"><ele>285.5</ele><time>2026-03-28T13:27:51.193Z</time></trkpt><trkpt lat="43.3192702" lon="11.5124803"><ele>283.25</ele><time>2026-03-28T13:27:52.193Z</time></trkpt><trkpt lat="43.3192695" lon="11.5122996"><ele>281.0</ele><time>2026-03-28T13:27:53.193Z</time></trkpt><trkpt lat="43.3192574" lon="11.5121052"><ele>279.0</ele><time>2026-03-28T13:27:54.192Z</time></trkpt><trkpt lat="43.3192326" lon="11.5118998"><ele>277.0</ele><time>2026-03-28T13:27:55.192Z</time></trkpt><trkpt lat="43.3192041" lon="11.5117189"><ele>275.0</ele><time>2026-03-28T13:27:56.192Z</time></trkpt><trkpt lat="43.3191763" lon="11.5115463"><ele>273.0</ele><time>2026-03-28T13:27:57.192Z</time></trkpt><trkpt lat="43.3191492" lon="11.5113757"><ele>270.75</ele><time>2026-03-28T13:27:58.192Z</time></trkpt><trkpt lat="43.3191314" lon="11.5112061"><ele>268.5</ele><time>2026-03-28T13:27:59.192Z</time></trkpt><trkpt lat="43.3191289" lon="11.5110425"><ele>266.25</ele><time>2026-03-28T13:28:00.193Z</time></trkpt><trkpt lat="43.3191409" lon="11.5108872"><ele>264.0</ele><time>2026-03-28T13:28:01.193Z</time></trkpt><trkpt lat="43.319165" lon="11.5107383"><ele>264.0</ele><time>2026-03-28T13:28:02.192Z</time></trkpt><trkpt lat="43.3192067" lon="11.5105986"><ele>264.0</ele><time>2026-03-28T13:28:03.192Z</time></trkpt><trkpt lat="43.319272" lon="11.5104617"><ele>264.0</ele><time>2026-03-28T13:28:04.193Z</time></trkpt><trkpt lat="43.3193509" lon="11.5103212"><ele>264.0</ele><time>2026-03-28T13:28:05.192Z</time></trkpt><trkpt lat="43.3194452" lon="11.5101668"><ele>261.5</ele><time>2026-03-28T13:28:06.193Z</time></trkpt><trkpt lat="43.3195396" lon="11.5100177"><ele>259.0</ele><time>2026-03-28T13:28:07.193Z</time></trkpt><trkpt lat="43.3196267" lon="11.5098693"><ele>256.5</ele><time>2026-03-28T13:28:08.192Z</time></trkpt><trkpt lat="43.3197011" lon="11.5097174"><ele>254.0</ele><time>2026-03-28T13:28:09.193Z</time></trkpt><trkpt lat="43.3197553" lon="11.5095626"><ele>252.25</ele><time>2026-03-28T13:28:10.193Z</time></trkpt><trkpt lat="43.3197953" lon="11.5094037"><ele>250.5</ele><time>2026-03-28T13:28:11.192Z</time></trkpt><trkpt lat="43.319827" lon="11.5092455"><ele>248.75</ele><time>2026-03-28T13:28:12.192Z</time></trkpt><trkpt lat="43.3198485" lon="11.5090898"><ele>247.0</ele><time>2026-03-28T13:28:13.192Z</time></trkpt><trkpt lat="43.3198621" lon="11.5089336"><ele>247.0</ele><time>2026-03-28T13:28:14.192Z</time></trkpt><trkpt lat="43.3198724" lon="11.5087559"><ele>247.0</ele><time>2026-03-28T13:28:15.193Z</time></trkpt><trkpt lat="43.3198703" lon="11.5085751"><ele>247.0</ele><time>2026-03-28T13:28:16.193Z</time></trkpt><trkpt lat="43.319859" lon="11.5083886"><ele>247.0</ele><time>2026-03-28T13:28:17.192Z</time></trkpt><trkpt lat="43.319843" lon="11.5081959"><ele>247.0</ele><time>2026-03-28T13:28:18.193Z</time></trkpt><trkpt lat="43.3198285" lon="11.5080198"><ele>247.0</ele><time>2026-03-28T13:28:19.192Z</time></trkpt><trkpt lat="43.319812" lon="11.5078549"><ele>247.0</ele><time>2026-03-28T13:28:20.193Z</time></trkpt><trkpt lat="43.3197949" lon="11.5076986"><ele>247.0</ele><time>2026-03-28T13:28:21.192Z</time></trkpt><trkpt lat="43.3197777" lon="11.5075383"><ele>246.5</ele><time>2026-03-28T13:28:22.192Z</time></trkpt><trkpt lat="43.3197605" lon="11.5073615"><ele>246.0</ele><time>2026-03-28T13:28:23.192Z</time></trkpt><trkpt lat="43.3197444" lon="11.5071805"><ele>245.5</ele><time>2026-03-28T13:28:24.192Z</time></trkpt><trkpt lat="43.3197264" lon="11.5070007"><ele>245.0</ele><time>2026-03-28T13:28:25.193Z</time></trkpt><trkpt lat="43.3197058" lon="11.5068339"><ele>244.75</ele><time>2026-03-28T13:28:26.192Z</time></trkpt><trkpt lat="43.319686" lon="11.5066687"><ele>244.5</ele><time>2026-03-28T13:28:27.193Z</time></trkpt><trkpt lat="43.3196725" lon="11.5064999"><ele>244.25</ele><time>2026-03-28T13:28:28.192Z</time></trkpt><trkpt lat="43.3196956" lon="11.50634"><ele>244.0</ele><time>2026-03-28T13:28:29.193Z</time></trkpt><trkpt lat="43.3197587" lon="11.5062104"><ele>244.0</ele><time>2026-03-28T13:28:30.193Z</time></trkpt><trkpt lat="43.3198615" lon="11.50611"><ele>244.0</ele><time>2026-03-28T13:28:31.192Z</time></trkpt><trkpt lat="43.3199847" lon="11.5060473"><ele>244.0</ele><time>2026-03-28T13:28:32.192Z</time></trkpt><trkpt lat="43.3201099" lon="11.5060056"><ele>244.0</ele><time>2026-03-28T13:28:33.193Z</time></trkpt><trkpt lat="43.3202337" lon="11.5059541"><ele>243.99999999999997</ele><time>2026-03-28T13:28:34.192Z</time></trkpt><trkpt lat="43.3203341" lon="11.5059163"><ele>244.0</ele><time>2026-03-28T13:28:35.193Z</time></trkpt><trkpt lat="43.3204188" lon="11.5058811"><ele>244.0</ele><time>2026-03-28T13:28:36.192Z</time></trkpt><trkpt lat="43.320497" lon="11.5058531"><ele>244.0</ele><time>2026-03-28T13:28:37.192Z</time></trkpt><trkpt lat="43.320566" lon="11.5058266"><ele>243.99999999999997</ele><time>2026-03-28T13:28:38.193Z</time></trkpt><trkpt lat="43.3206297" lon="11.5058015"><ele>244.0</ele><time>2026-03-28T13:28:39.192Z</time></trkpt><trkpt lat="43.3207312" lon="11.5057709"><ele>244.6</ele><time>2026-03-28T13:28:41.193Z</time></trkpt><trkpt lat="43.3208144" lon="11.5057455"><ele>245.2</ele><time>2026-03-28T13:28:44.193Z</time></trkpt><trkpt lat="43.3208945" lon="11.5057174"><ele>245.79999999999998</ele><time>2026-03-28T13:28:47.192Z</time></trkpt><trkpt lat="43.3209985" lon="11.5056942"><ele>246.39999999999998</ele><time>2026-03-28T13:29:09.191Z</time></trkpt><trkpt lat="43.3211467" lon="11.5057027"><ele>247.0</ele><time>2026-03-28T13:29:11.193Z</time></trkpt><trkpt lat="43.3212397" lon="11.5057328"><ele>247.0</ele><time>2026-03-28T13:29:12.192Z</time></trkpt><trkpt lat="43.3213349" lon="11.5057872"><ele>247.0</ele><time>2026-03-28T13:29:13.193Z</time></trkpt><trkpt lat="43.3214343" lon="11.5058721"><ele>247.0</ele><time>2026-03-28T13:29:14.193Z</time></trkpt><trkpt lat="43.3215273" lon="11.5059741"><ele>247.0</ele><time>2026-03-28T13:29:15.192Z</time></trkpt><trkpt lat="43.3216003" lon="11.5060724"><ele>247.0</ele><time>2026-03-28T13:29:16.192Z</time></trkpt><trkpt lat="43.3216713" lon="11.5061737"><ele>248.6</ele><time>2026-03-28T13:29:17.193Z</time></trkpt><trkpt lat="43.3217399" lon="11.5062709"><ele>250.2</ele><time>2026-03-28T13:29:18.192Z</time></trkpt><trkpt lat="43.3218077" lon="11.5063719"><ele>251.8</ele><time>2026-03-28T13:29:19.193Z</time></trkpt><trkpt lat="43.3218772" lon="11.5064705"><ele>253.4</ele><time>2026-03-28T13:29:20.193Z</time></trkpt><trkpt lat="43.3219449" lon="11.5065706"><ele>255.0</ele><time>2026-03-28T13:29:21.193Z</time></trkpt><trkpt lat="43.3220181" lon="11.5066719"><ele>255.0</ele><time>2026-03-28T13:29:22.192Z</time></trkpt><trkpt lat="43.3220965" lon="11.5067812"><ele>255.0</ele><time>2026-03-28T13:29:23.192Z</time></trkpt><trkpt lat="43.3221788" lon="11.5068975"><ele>255.0</ele><time>2026-03-28T13:29:24.192Z</time></trkpt><trkpt lat="43.322263" lon="11.50702"><ele>255.0</ele><time>2026-03-28T13:29:25.193Z</time></trkpt><trkpt lat="43.3223454" lon="11.5071509"><ele>258.5</ele><time>2026-03-28T13:29:26.192Z</time></trkpt><trkpt lat="43.3224287" lon="11.5072816"><ele>262.0</ele><time>2026-03-28T13:29:27.192Z</time></trkpt><trkpt lat="43.322515" lon="11.507409"><ele>265.5</ele><time>2026-03-28T13:29:28.192Z</time></trkpt><trkpt lat="43.3226101" lon="11.5075239"><ele>269.0</ele><time>2026-03-28T13:29:29.192Z</time></trkpt><trkpt lat="43.3227345" lon="11.5076045"><ele>269.0</ele><time>2026-03-28T13:29:30.193Z</time></trkpt><trkpt lat="43.3228655" lon="11.5076444"><ele>269.0</ele><time>2026-03-28T13:29:31.192Z</time></trkpt><trkpt lat="43.3230144" lon="11.5076619"><ele>269.0</ele><time>2026-03-28T13:29:32.192Z</time></trkpt><trkpt lat="43.3231657" lon="11.5076795"><ele>269.0</ele><time>2026-03-28T13:29:33.192Z</time></trkpt><trkpt lat="43.3233099" lon="11.5076806"><ele>270.5</ele><time>2026-03-28T13:29:34.193Z</time></trkpt><trkpt lat="43.32345" lon="11.5076741"><ele>272.0</ele><time>2026-03-28T13:29:35.192Z</time></trkpt><trkpt lat="43.3236033" lon="11.5076911"><ele>273.5</ele><time>2026-03-28T13:29:36.192Z</time></trkpt><trkpt lat="43.32375" lon="11.5077437"><ele>275.0</ele><time>2026-03-28T13:29:37.192Z</time></trkpt><trkpt lat="43.3238865" lon="11.5078179"><ele>278.0</ele><time>2026-03-28T13:29:38.192Z</time></trkpt><trkpt lat="43.3240084" lon="11.5079567"><ele>281.0</ele><time>2026-03-28T13:29:39.192Z</time></trkpt><trkpt lat="43.32411" lon="11.5081411"><ele>284.0</ele><time>2026-03-28T13:29:40.192Z</time></trkpt><trkpt lat="43.3241969" lon="11.5083363"><ele>284.0</ele><time>2026-03-28T13:29:41.193Z</time></trkpt><trkpt lat="43.3242745" lon="11.508541"><ele>284.0</ele><time>2026-03-28T13:29:42.193Z</time></trkpt><trkpt lat="43.3243536" lon="11.5087503"><ele>284.0</ele><time>2026-03-28T13:29:43.193Z</time></trkpt><trkpt lat="43.3244381" lon="11.5089666"><ele>285.6666666666667</ele><time>2026-03-28T13:29:44.192Z</time></trkpt><trkpt lat="43.3245185" lon="11.5091526"><ele>287.3333333333333</ele><time>2026-03-28T13:29:45.192Z</time></trkpt><trkpt lat="43.3246164" lon="11.509315"><ele>289.0</ele><time>2026-03-28T13:29:46.193Z</time></trkpt><trkpt lat="43.324754" lon="11.5094474"><ele>289.0</ele><time>2026-03-28T13:29:47.192Z</time></trkpt><trkpt lat="43.3249032" lon="11.5095148"><ele>289.0</ele><time>2026-03-28T13:29:48.192Z</time></trkpt><trkpt lat="43.3250705" lon="11.5095205"><ele>289.0</ele><time>2026-03-28T13:29:49.192Z</time></trkpt><trkpt lat="43.3252442" lon="11.509487"><ele>289.0</ele><time>2026-03-28T13:29:50.192Z</time></trkpt><trkpt lat="43.3254231" lon="11.5094219"><ele>289.0</ele><time>2026-03-28T13:29:51.192Z</time></trkpt><trkpt lat="43.3255962" lon="11.5093439"><ele>289.0</ele><time>2026-03-28T13:29:52.192Z</time></trkpt><trkpt lat="43.3257837" lon="11.5092627"><ele>289.3333333333333</ele><time>2026-03-28T13:29:53.192Z</time></trkpt><trkpt lat="43.3259578" lon="11.5091933"><ele>289.6666666666667</ele><time>2026-03-28T13:29:54.193Z</time></trkpt><trkpt lat="43.3261202" lon="11.5091252"><ele>290.0</ele><time>2026-03-28T13:29:55.193Z</time></trkpt><trkpt lat="43.32628" lon="11.5090536"><ele>290.75</ele><time>2026-03-28T13:29:56.192Z</time></trkpt><trkpt lat="43.3264242" lon="11.508978"><ele>291.5</ele><time>2026-03-28T13:29:57.192Z</time></trkpt><trkpt lat="43.3265627" lon="11.5089065"><ele>292.25</ele><time>2026-03-28T13:29:58.192Z</time></trkpt><trkpt lat="43.3266992" lon="11.5088315"><ele>293.0</ele><time>2026-03-28T13:29:59.192Z</time></trkpt><trkpt lat="43.3268302" lon="11.5087546"><ele>293.5</ele><time>2026-03-28T13:30:00.192Z</time></trkpt><trkpt lat="43.3269623" lon="11.5086749"><ele>294.0</ele><time>2026-03-28T13:30:01.192Z</time></trkpt><trkpt lat="43.3270946" lon="11.5085941"><ele>294.5</ele><time>2026-03-28T13:30:02.193Z</time></trkpt><trkpt lat="43.3272266" lon="11.5085122"><ele>295.0</ele><time>2026-03-28T13:30:03.192Z</time></trkpt><trkpt lat="43.327359" lon="11.5084268"><ele>296.0</ele><time>2026-03-28T13:30:04.192Z</time></trkpt><trkpt lat="43.3274934" lon="11.5083387"><ele>297.0</ele><time>2026-03-28T13:30:05.192Z</time></trkpt><trkpt lat="43.3276276" lon="11.5082525"><ele>298.0</ele><time>2026-03-28T13:30:06.192Z</time></trkpt><trkpt lat="43.3277595" lon="11.5081677"><ele>299.0</ele><time>2026-03-28T13:30:07.193Z</time></trkpt><trkpt lat="43.3278899" lon="11.5080833"><ele>299.0</ele><time>2026-03-28T13:30:08.192Z</time></trkpt><trkpt lat="43.3280228" lon="11.5079987"><ele>299.0</ele><time>2026-03-28T13:30:09.192Z</time></trkpt><trkpt lat="43.3281585" lon="11.5079104"><ele>299.0</ele><time>2026-03-28T13:30:10.193Z</time></trkpt><trkpt lat="43.3282966" lon="11.5078217"><ele>299.0</ele><time>2026-03-28T13:30:11.193Z</time></trkpt><trkpt lat="43.3284387" lon="11.5077313"><ele>300.33333333333337</ele><time>2026-03-28T13:30:12.193Z</time></trkpt><trkpt lat="43.3285856" lon="11.5076372"><ele>301.6666666666667</ele><time>2026-03-28T13:30:13.192Z</time></trkpt><trkpt lat="43.3287368" lon="11.5075388"><ele>303.0</ele><time>2026-03-28T13:30:14.193Z</time></trkpt><trkpt lat="43.3289002" lon="11.5074342"><ele>304.3333333333333</ele><time>2026-03-28T13:30:15.192Z</time></trkpt><trkpt lat="43.3290685" lon="11.5073325"><ele>305.66666666666663</ele><time>2026-03-28T13:30:16.193Z</time></trkpt><trkpt lat="43.3292224" lon="11.507259"><ele>307.0</ele><time>2026-03-28T13:30:17.192Z</time></trkpt><trkpt lat="43.3293802" lon="11.5072118"><ele>307.0</ele><time>2026-03-28T13:30:18.192Z</time></trkpt><trkpt lat="43.3295399" lon="11.5071788"><ele>307.0</ele><time>2026-03-28T13:30:19.193Z</time></trkpt><trkpt lat="43.3297124" lon="11.5071462"><ele>307.0</ele><time>2026-03-28T13:30:20.192Z</time></trkpt><trkpt lat="43.3298886" lon="11.507112"><ele>307.0</ele><time>2026-03-28T13:30:21.193Z</time></trkpt><trkpt lat="43.3300473" lon="11.5070747"><ele>307.0</ele><time>2026-03-28T13:30:22.193Z</time></trkpt><trkpt lat="43.3302018" lon="11.507042"><ele>307.0</ele><time>2026-03-28T13:30:23.192Z</time></trkpt><trkpt lat="43.3303684" lon="11.5070182"><ele>307.0</ele><time>2026-03-28T13:30:24.192Z</time></trkpt><trkpt lat="43.3305241" lon="11.5069936"><ele>307.0</ele><time>2026-03-28T13:30:25.192Z</time></trkpt><trkpt lat="43.3306685" lon="11.5069692"><ele>307.0</ele><time>2026-03-28T13:30:26.192Z</time></trkpt><trkpt lat="43.3308055" lon="11.5069417"><ele>307.0</ele><time>2026-03-28T13:30:27.192Z</time></trkpt><trkpt lat="43.3309579" lon="11.5069081"><ele>308.3333333333333</ele><time>2026-03-28T13:30:28.192Z</time></trkpt><trkpt lat="43.3311218" lon="11.5068657"><ele>309.6666666666667</ele><time>2026-03-28T13:30:29.192Z</time></trkpt><trkpt lat="43.3312937" lon="11.5068043"><ele>311.0</ele><time>2026-03-28T13:30:30.193Z</time></trkpt><trkpt lat="43.3314663" lon="11.5067169"><ele>312.0</ele><time>2026-03-28T13:30:31.192Z</time></trkpt><trkpt lat="43.3316418" lon="11.5066086"><ele>313.0</ele><time>2026-03-28T13:30:32.192Z</time></trkpt><trkpt lat="43.3318191" lon="11.5064913"><ele>314.0</ele><time>2026-03-28T13:30:33.192Z</time></trkpt><trkpt lat="43.3319877" lon="11.5063821"><ele>314.0</ele><time>2026-03-28T13:30:34.192Z</time></trkpt><trkpt lat="43.3321557" lon="11.5062727"><ele>314.0</ele><time>2026-03-28T13:30:35.193Z</time></trkpt><trkpt lat="43.3323238" lon="11.5061595"><ele>314.0</ele><time>2026-03-28T13:30:36.192Z</time></trkpt><trkpt lat="43.3324927" lon="11.5060544"><ele>314.6666666666667</ele><time>2026-03-28T13:30:37.192Z</time></trkpt><trkpt lat="43.3326597" lon="11.5059668"><ele>315.3333333333333</ele><time>2026-03-28T13:30:38.193Z</time></trkpt><trkpt lat="43.3328372" lon="11.5058964"><ele>316.0</ele><time>2026-03-28T13:30:39.191Z</time></trkpt><trkpt lat="43.3330208" lon="11.5058455"><ele>316.0</ele><time>2026-03-28T13:30:40.192Z</time></trkpt><trkpt lat="43.3332088" lon="11.5058088"><ele>316.0</ele><time>2026-03-28T13:30:41.193Z</time></trkpt><trkpt lat="43.3333984" lon="11.5057717"><ele>316.0</ele><time>2026-03-28T13:30:42.192Z</time></trkpt><trkpt lat="43.3335877" lon="11.505731"><ele>316.0</ele><time>2026-03-28T13:30:43.192Z</time></trkpt><trkpt lat="43.3337762" lon="11.5056886"><ele>316.0</ele><time>2026-03-28T13:30:44.193Z</time></trkpt><trkpt lat="43.3339655" lon="11.5056502"><ele>316.0</ele><time>2026-03-28T13:30:45.192Z</time></trkpt><trkpt lat="43.3341579" lon="11.5056146"><ele>315.66666666666663</ele><time>2026-03-28T13:30:46.192Z</time></trkpt><trkpt lat="43.3343477" lon="11.5055772"><ele>315.3333333333333</ele><time>2026-03-28T13:30:47.192Z</time></trkpt><trkpt lat="43.3345455" lon="11.5055376"><ele>315.0</ele><time>2026-03-28T13:30:48.192Z</time></trkpt><trkpt lat="43.3347499" lon="11.5054955"><ele>314.6666666666667</ele><time>2026-03-28T13:30:49.192Z</time></trkpt><trkpt lat="43.3349397" lon="11.5054596"><ele>314.33333333333337</ele><time>2026-03-28T13:30:50.193Z</time></trkpt><trkpt lat="43.3351189" lon="11.5054256"><ele>314.0</ele><time>2026-03-28T13:30:51.192Z</time></trkpt><trkpt lat="43.3352872" lon="11.505389"><ele>315.33333333333337</ele><time>2026-03-28T13:30:52.193Z</time></trkpt><trkpt lat="43.3354482" lon="11.5053567"><ele>316.6666666666667</ele><time>2026-03-28T13:30:53.192Z</time></trkpt><trkpt lat="43.3356129" lon="11.5053243"><ele>318.0</ele><time>2026-03-28T13:30:54.192Z</time></trkpt><trkpt lat="43.3357781" lon="11.5052902"><ele>318.0</ele><time>2026-03-28T13:30:55.192Z</time></trkpt><trkpt lat="43.3359476" lon="11.5052564"><ele>318.0</ele><time>2026-03-28T13:30:56.192Z</time></trkpt><trkpt lat="43.3361148" lon="11.5052235"><ele>318.0</ele><time>2026-03-28T13:30:57.192Z</time></trkpt><trkpt lat="43.3362862" lon="11.5051874"><ele>320.0</ele><time>2026-03-28T13:30:58.192Z</time></trkpt><trkpt lat="43.3364607" lon="11.5051535"><ele>322.0</ele><time>2026-03-28T13:30:59.192Z</time></trkpt><trkpt lat="43.3366351" lon="11.5051198"><ele>324.0</ele><time>2026-03-28T13:31:00.192Z</time></trkpt><trkpt lat="43.3368134" lon="11.5051012"><ele>324.0</ele><time>2026-03-28T13:31:01.192Z</time></trkpt><trkpt lat="43.3369972" lon="11.5051128"><ele>324.0</ele><time>2026-03-28T13:31:02.193Z</time></trkpt><trkpt lat="43.3371805" lon="11.5051541"><ele>324.0</ele><time>2026-03-28T13:31:03.193Z</time></trkpt><trkpt lat="43.3373607" lon="11.5052332"><ele>324.3333333333333</ele><time>2026-03-28T13:31:04.192Z</time></trkpt><trkpt lat="43.3375382" lon="11.5053397"><ele>324.66666666666663</ele><time>2026-03-28T13:31:05.192Z</time></trkpt><trkpt lat="43.3377176" lon="11.5054579"><ele>325.0</ele><time>2026-03-28T13:31:06.192Z</time></trkpt><trkpt lat="43.3378923" lon="11.5055724"><ele>327.3333333333333</ele><time>2026-03-28T13:31:07.192Z</time></trkpt><trkpt lat="43.3380658" lon="11.5056827"><ele>329.6666666666667</ele><time>2026-03-28T13:31:08.192Z</time></trkpt><trkpt lat="43.3382451" lon="11.5057853"><ele>332.0</ele><time>2026-03-28T13:31:09.192Z</time></trkpt><trkpt lat="43.3384358" lon="11.5058596"><ele>332.0</ele><time>2026-03-28T13:31:10.193Z</time></trkpt><trkpt lat="43.3386322" lon="11.5059016"><ele>332.0</ele><time>2026-03-28T13:31:11.192Z</time></trkpt><trkpt lat="43.3388144" lon="11.5059092"><ele>332.0</ele><time>2026-03-28T13:31:12.193Z</time></trkpt><trkpt lat="43.3389934" lon="11.5058905"><ele>333.6666666666667</ele><time>2026-03-28T13:31:13.192Z</time></trkpt><trkpt lat="43.3391636" lon="11.5058493"><ele>335.3333333333333</ele><time>2026-03-28T13:31:14.192Z</time></trkpt><trkpt lat="43.3393283" lon="11.5057924"><ele>337.0</ele><time>2026-03-28T13:31:15.192Z</time></trkpt><trkpt lat="43.3394907" lon="11.5057362"><ele>337.0</ele><time>2026-03-28T13:31:16.192Z</time></trkpt><trkpt lat="43.3396387" lon="11.5056862"><ele>337.0</ele><time>2026-03-28T13:31:17.192Z</time></trkpt><trkpt lat="43.3397782" lon="11.5056364"><ele>337.0</ele><time>2026-03-28T13:31:18.192Z</time></trkpt><trkpt lat="43.339918" lon="11.5055861"><ele>337.0</ele><time>2026-03-28T13:31:19.193Z</time></trkpt><trkpt lat="43.340051" lon="11.5055373"><ele>336.8</ele><time>2026-03-28T13:31:20.192Z</time></trkpt><trkpt lat="43.3401706" lon="11.5054921"><ele>336.6</ele><time>2026-03-28T13:31:21.193Z</time></trkpt><trkpt lat="43.3402811" lon="11.505451"><ele>336.40000000000003</ele><time>2026-03-28T13:31:22.193Z</time></trkpt><trkpt lat="43.3403858" lon="11.5054162"><ele>336.20000000000005</ele><time>2026-03-28T13:31:23.192Z</time></trkpt><trkpt lat="43.340484" lon="11.5053915"><ele>336.0</ele><time>2026-03-28T13:31:24.192Z</time></trkpt><trkpt lat="43.3405761" lon="11.5053911"><ele>335.8</ele><time>2026-03-28T13:31:25.193Z</time></trkpt><trkpt lat="43.3406629" lon="11.5054265"><ele>335.6</ele><time>2026-03-28T13:31:26.193Z</time></trkpt><trkpt lat="43.3407522" lon="11.505431"><ele>335.4</ele><time>2026-03-28T13:31:27.192Z</time></trkpt><trkpt lat="43.3408342" lon="11.505378"><ele>335.2</ele><time>2026-03-28T13:31:28.192Z</time></trkpt><trkpt lat="43.3409175" lon="11.5052937"><ele>335.0</ele><time>2026-03-28T13:31:29.193Z</time></trkpt><trkpt lat="43.3410289" lon="11.5052378"><ele>335.0</ele><time>2026-03-28T13:31:30.192Z</time></trkpt><trkpt lat="43.3411516" lon="11.5051812"><ele>335.0</ele><time>2026-03-28T13:31:31.192Z</time></trkpt><trkpt lat="43.3412768" lon="11.5051351"><ele>335.0</ele><time>2026-03-28T13:31:32.192Z</time></trkpt><trkpt lat="43.3413924" lon="11.5050965"><ele>335.0</ele><time>2026-03-28T13:31:33.193Z</time></trkpt><trkpt lat="43.3415052" lon="11.505067"><ele>335.0</ele><time>2026-03-28T13:31:34.193Z</time></trkpt><trkpt lat="43.3416162" lon="11.5050374"><ele>335.0</ele><time>2026-03-28T13:31:35.192Z</time></trkpt><trkpt lat="43.3417313" lon="11.5050093"><ele>335.0</ele><time>2026-03-28T13:31:36.192Z</time></trkpt><trkpt lat="43.3418402" lon="11.504984"><ele>335.0</ele><time>2026-03-28T13:31:37.192Z</time></trkpt><trkpt lat="43.3419429" lon="11.5049625"><ele>335.0</ele><time>2026-03-28T13:31:38.192Z</time></trkpt><trkpt lat="43.342042" lon="11.5049413"><ele>335.0</ele><time>2026-03-28T13:31:39.193Z</time></trkpt><trkpt lat="43.3421407" lon="11.5049252"><ele>335.0</ele><time>2026-03-28T13:31:40.192Z</time></trkpt><trkpt lat="43.3422454" lon="11.504906"><ele>335.0</ele><time>2026-03-28T13:31:41.192Z</time></trkpt><trkpt lat="43.3423524" lon="11.5048852"><ele>335.0</ele><time>2026-03-28T13:31:42.192Z</time></trkpt><trkpt lat="43.342463" lon="11.5048636"><ele>335.0</ele><time>2026-03-28T13:31:43.193Z</time></trkpt><trkpt lat="43.3425635" lon="11.5048433"><ele>335.6</ele><time>2026-03-28T13:31:44.193Z</time></trkpt><trkpt lat="43.3426712" lon="11.504824"><ele>336.2</ele><time>2026-03-28T13:31:45.192Z</time></trkpt><trkpt lat="43.3427809" lon="11.5048033"><ele>336.79999999999995</ele><time>2026-03-28T13:31:46.192Z</time></trkpt><trkpt lat="43.3428886" lon="11.5047834"><ele>337.4</ele><time>2026-03-28T13:31:47.193Z</time></trkpt><trkpt lat="43.3429928" lon="11.5047652"><ele>338.0</ele><time>2026-03-28T13:31:48.192Z</time></trkpt><trkpt lat="43.3430898" lon="11.5047453"><ele>338.0</ele><time>2026-03-28T13:31:49.193Z</time></trkpt><trkpt lat="43.3431816" lon="11.504729"><ele>338.0</ele><time>2026-03-28T13:31:50.192Z</time></trkpt><trkpt lat="43.3432772" lon="11.5047099"><ele>338.0</ele><time>2026-03-28T13:31:51.192Z</time></trkpt><trkpt lat="43.3433759" lon="11.5046893"><ele>338.0</ele><time>2026-03-28T13:31:52.192Z</time></trkpt><trkpt lat="43.3434812" lon="11.5046739"><ele>338.0</ele><time>2026-03-28T13:31:53.192Z</time></trkpt><trkpt lat="43.3435883" lon="11.5046544"><ele>338.0</ele><time>2026-03-28T13:31:54.192Z</time></trkpt><trkpt lat="43.3436873" lon="11.5046339"><ele>338.0</ele><time>2026-03-28T13:31:55.192Z</time></trkpt><trkpt lat="43.3437881" lon="11.5046136"><ele>338.0</ele><time>2026-03-28T13:31:56.193Z</time></trkpt><trkpt lat="43.3438891" lon="11.5045964"><ele>338.0</ele><time>2026-03-28T13:31:57.192Z</time></trkpt><trkpt lat="43.3439927" lon="11.5045791"><ele>338.0</ele><time>2026-03-28T13:31:58.192Z</time></trkpt><trkpt lat="43.3440963" lon="11.5045613"><ele>337.6666666666667</ele><time>2026-03-28T13:31:59.193Z</time></trkpt><trkpt lat="43.3442007" lon="11.5045414"><ele>337.33333333333337</ele><time>2026-03-28T13:32:00.193Z</time></trkpt><trkpt lat="43.3443031" lon="11.5045228"><ele>337.0</ele><time>2026-03-28T13:32:01.192Z</time></trkpt><trkpt lat="43.3443934" lon="11.504505"><ele>336.6666666666667</ele><time>2026-03-28T13:32:02.192Z</time></trkpt><trkpt lat="43.3444688" lon="11.5044929"><ele>336.3333333333333</ele><time>2026-03-28T13:32:03.193Z</time></trkpt><trkpt lat="43.3445324" lon="11.5044821"><ele>336.0</ele><time>2026-03-28T13:32:04.193Z</time></trkpt><trkpt lat="43.3446285" lon="11.5044718"><ele>337.1666666666667</ele><time>2026-03-28T13:32:06.193Z</time></trkpt><trkpt lat="43.3447155" lon="11.5044579"><ele>338.3333333333333</ele><time>2026-03-28T13:32:08.193Z</time></trkpt><trkpt lat="43.3447765" lon="11.5043895"><ele>339.5</ele><time>2026-03-28T13:32:10.192Z</time></trkpt><trkpt lat="43.3448334" lon="11.5042517"><ele>340.66666666666663</ele><time>2026-03-28T13:32:12.193Z</time></trkpt><trkpt lat="43.3448681" lon="11.5041711"><ele>341.8333333333333</ele><time>2026-03-28T13:32:13.192Z</time></trkpt><trkpt lat="43.3449035" lon="11.5040898"><ele>343.0</ele><time>2026-03-28T13:32:14.193Z</time></trkpt><trkpt lat="43.3449453" lon="11.5039988"><ele>343.0</ele><time>2026-03-28T13:32:15.192Z</time></trkpt><trkpt lat="43.3449883" lon="11.5038886"><ele>343.0</ele><time>2026-03-28T13:32:16.193Z</time></trkpt><trkpt lat="43.3450248" lon="11.5037697"><ele>343.0</ele><time>2026-03-28T13:32:17.192Z</time></trkpt><trkpt lat="43.3450346" lon="11.5036589"><ele>343.0</ele><time>2026-03-28T13:32:18.193Z</time></trkpt><trkpt lat="43.3450195" lon="11.5035535"><ele>343.0</ele><time>2026-03-28T13:32:19.192Z</time></trkpt><trkpt lat="43.3449908" lon="11.5034473"><ele>343.0</ele><time>2026-03-28T13:32:20.192Z</time></trkpt><trkpt lat="43.344956" lon="11.5033418"><ele>343.0</ele><time>2026-03-28T13:32:21.192Z</time></trkpt><trkpt lat="43.3449217" lon="11.5032316"><ele>343.0</ele><time>2026-03-28T13:32:22.192Z</time></trkpt><trkpt lat="43.3449045" lon="11.5031236"><ele>343.0</ele><time>2026-03-28T13:32:23.193Z</time></trkpt><trkpt lat="43.3449001" lon="11.5030211"><ele>343.0</ele><time>2026-03-28T13:32:24.192Z</time></trkpt><trkpt lat="43.3449049" lon="11.5029086"><ele>343.0</ele><time>2026-03-28T13:32:25.193Z</time></trkpt><trkpt lat="43.344915" lon="11.5027979"><ele>343.0</ele><time>2026-03-28T13:32:26.191Z</time></trkpt><trkpt lat="43.3449416" lon="11.5026827"><ele>343.16666666666663</ele><time>2026-03-28T13:32:27.192Z</time></trkpt><trkpt lat="43.3449761" lon="11.5025794"><ele>343.3333333333333</ele><time>2026-03-28T13:32:28.191Z</time></trkpt><trkpt lat="43.34501" lon="11.5024853"><ele>343.5</ele><time>2026-03-28T13:32:29.191Z</time></trkpt><trkpt lat="43.3450433" lon="11.5023884"><ele>343.6666666666667</ele><time>2026-03-28T13:32:30.19Z</time></trkpt><trkpt lat="43.3450815" lon="11.5022819"><ele>343.83333333333337</ele><time>2026-03-28T13:32:31.191Z</time></trkpt><trkpt lat="43.3451192" lon="11.5021696"><ele>344.0</ele><time>2026-03-28T13:32:32.191Z</time></trkpt><trkpt lat="43.3451542" lon="11.5020635"><ele>342.6666666666667</ele><time>2026-03-28T13:32:33.191Z</time></trkpt><trkpt lat="43.3451867" lon="11.5019625"><ele>341.33333333333337</ele><time>2026-03-28T13:32:34.191Z</time></trkpt><trkpt lat="43.3452157" lon="11.5018678"><ele>340.0</ele><time>2026-03-28T13:32:35.191Z</time></trkpt><trkpt lat="43.3452355" lon="11.5017746"><ele>338.6666666666667</ele><time>2026-03-28T13:32:36.192Z</time></trkpt><trkpt lat="43.3452399" lon="11.5016764"><ele>337.3333333333333</ele><time>2026-03-28T13:32:37.192Z</time></trkpt><trkpt lat="43.3452296" lon="11.5015737"><ele>336.0</ele><time>2026-03-28T13:32:38.191Z</time></trkpt><trkpt lat="43.3452032" lon="11.5014574"><ele>336.0</ele><time>2026-03-28T13:32:39.192Z</time></trkpt><trkpt lat="43.3451659" lon="11.5013338"><ele>336.0</ele><time>2026-03-28T13:32:40.192Z</time></trkpt><trkpt lat="43.3451276" lon="11.5012238"><ele>336.0</ele><time>2026-03-28T13:32:41.191Z</time></trkpt><trkpt lat="43.3450815" lon="11.50113"><ele>336.0</ele><time>2026-03-28T13:32:42.192Z</time></trkpt><trkpt lat="43.3450383" lon="11.5010467"><ele>336.0</ele><time>2026-03-28T13:32:43.192Z</time></trkpt><trkpt lat="43.3449933" lon="11.5009591"><ele>336.0</ele><time>2026-03-28T13:32:44.191Z</time></trkpt><trkpt lat="43.3449557" lon="11.5008654"><ele>335.8333333333333</ele><time>2026-03-28T13:32:45.192Z</time></trkpt><trkpt lat="43.3449523" lon="11.5007781"><ele>335.6666666666667</ele><time>2026-03-28T13:32:46.192Z</time></trkpt><trkpt lat="43.3449751" lon="11.5006838"><ele>335.5</ele><time>2026-03-28T13:32:48.191Z</time></trkpt><trkpt lat="43.3450342" lon="11.5006194"><ele>335.33333333333337</ele><time>2026-03-28T13:32:52.192Z</time></trkpt><trkpt lat="43.345053" lon="11.5004769"><ele>335.1666666666667</ele><time>2026-03-28T13:32:57.191Z</time></trkpt><trkpt lat="43.344991" lon="11.5003234"><ele>335.0</ele><time>2026-03-28T13:32:59.192Z</time></trkpt><trkpt lat="43.3449521" lon="11.5002118"><ele>335.0</ele><time>2026-03-28T13:33:00.191Z</time></trkpt><trkpt lat="43.344908" lon="11.5000915"><ele>335.0</ele><time>2026-03-28T13:33:01.191Z</time></trkpt><trkpt lat="43.3448634" lon="11.4999628"><ele>335.0</ele><time>2026-03-28T13:33:02.192Z</time></trkpt><trkpt lat="43.3448149" lon="11.4998313"><ele>335.0</ele><time>2026-03-28T13:33:03.192Z</time></trkpt><trkpt lat="43.3447625" lon="11.4996943"><ele>335.0</ele><time>2026-03-28T13:33:04.191Z</time></trkpt><trkpt lat="43.3447076" lon="11.4995462"><ele>335.25</ele><time>2026-03-28T13:33:05.191Z</time></trkpt><trkpt lat="43.3446526" lon="11.4993983"><ele>335.5</ele><time>2026-03-28T13:33:06.192Z</time></trkpt><trkpt lat="43.3445985" lon="11.4992547"><ele>335.75</ele><time>2026-03-28T13:33:07.192Z</time></trkpt><trkpt lat="43.3445518" lon="11.4991158"><ele>336.0</ele><time>2026-03-28T13:33:08.191Z</time></trkpt><trkpt lat="43.3445073" lon="11.4989724"><ele>336.0</ele><time>2026-03-28T13:33:09.192Z</time></trkpt><trkpt lat="43.3444637" lon="11.4988396"><ele>336.0</ele><time>2026-03-28T13:33:10.191Z</time></trkpt><trkpt lat="43.3444159" lon="11.4987118"><ele>336.0</ele><time>2026-03-28T13:33:11.191Z</time></trkpt><trkpt lat="43.3443709" lon="11.4985768"><ele>336.0</ele><time>2026-03-28T13:33:12.191Z</time></trkpt><trkpt lat="43.3443292" lon="11.4984423"><ele>336.0</ele><time>2026-03-28T13:33:13.191Z</time></trkpt><trkpt lat="43.3442849" lon="11.4983027"><ele>336.25</ele><time>2026-03-28T13:33:14.192Z</time></trkpt><trkpt lat="43.3442337" lon="11.498155"><ele>336.5</ele><time>2026-03-28T13:33:15.192Z</time></trkpt><trkpt lat="43.3441799" lon="11.4980021"><ele>336.75</ele><time>2026-03-28T13:33:16.192Z</time></trkpt><trkpt lat="43.3441227" lon="11.4978463"><ele>337.0</ele><time>2026-03-28T13:33:17.192Z</time></trkpt><trkpt lat="43.3440606" lon="11.4976868"><ele>337.0</ele><time>2026-03-28T13:33:18.191Z</time></trkpt><trkpt lat="43.3439997" lon="11.4975271"><ele>337.0</ele><time>2026-03-28T13:33:19.192Z</time></trkpt><trkpt lat="43.3439432" lon="11.4973795"><ele>337.0</ele><time>2026-03-28T13:33:20.192Z</time></trkpt><trkpt lat="43.343892" lon="11.4972522"><ele>337.0</ele><time>2026-03-28T13:33:21.192Z</time></trkpt><trkpt lat="43.3438401" lon="11.4971411"><ele>336.40000000000003</ele><time>2026-03-28T13:33:22.192Z</time></trkpt><trkpt lat="43.3437779" lon="11.4970342"><ele>335.8</ele><time>2026-03-28T13:33:23.191Z</time></trkpt><trkpt lat="43.3436984" lon="11.4969303"><ele>335.2</ele><time>2026-03-28T13:33:24.192Z</time></trkpt><trkpt lat="43.3436153" lon="11.4968266"><ele>334.6</ele><time>2026-03-28T13:33:25.192Z</time></trkpt><trkpt lat="43.343537" lon="11.4967319"><ele>334.0</ele><time>2026-03-28T13:33:26.191Z</time></trkpt><trkpt lat="43.343464" lon="11.4966307"><ele>334.0</ele><time>2026-03-28T13:33:27.191Z</time></trkpt><trkpt lat="43.3433944" lon="11.4965408"><ele>334.0</ele><time>2026-03-28T13:33:28.192Z</time></trkpt><trkpt lat="43.3433246" lon="11.4964557"><ele>334.0</ele><time>2026-03-28T13:33:29.191Z</time></trkpt><trkpt lat="43.3432519" lon="11.4963692"><ele>334.0</ele><time>2026-03-28T13:33:30.192Z</time></trkpt><trkpt lat="43.3431726" lon="11.4962721"><ele>334.0</ele><time>2026-03-28T13:33:31.191Z</time></trkpt><trkpt lat="43.3430918" lon="11.49617"><ele>333.25</ele><time>2026-03-28T13:33:32.191Z</time></trkpt><trkpt lat="43.3430111" lon="11.4960729"><ele>332.5</ele><time>2026-03-28T13:33:33.191Z</time></trkpt><trkpt lat="43.3429278" lon="11.4959683"><ele>331.75</ele><time>2026-03-28T13:33:34.192Z</time></trkpt><trkpt lat="43.3428425" lon="11.4958577"><ele>331.0</ele><time>2026-03-28T13:33:35.191Z</time></trkpt><trkpt lat="43.3427504" lon="11.4957504"><ele>331.0</ele><time>2026-03-28T13:33:36.191Z</time></trkpt><trkpt lat="43.3426533" lon="11.4956425"><ele>331.0</ele><time>2026-03-28T13:33:37.192Z</time></trkpt><trkpt lat="43.342558" lon="11.4955251"><ele>331.0</ele><time>2026-03-28T13:33:38.191Z</time></trkpt><trkpt lat="43.342459" lon="11.4954125"><ele>331.0</ele><time>2026-03-28T13:33:39.192Z</time></trkpt><trkpt lat="43.3423526" lon="11.495291"><ele>329.0</ele><time>2026-03-28T13:33:40.192Z</time></trkpt><trkpt lat="43.3422485" lon="11.4951642"><ele>327.0</ele><time>2026-03-28T13:33:41.191Z</time></trkpt><trkpt lat="43.3421471" lon="11.4950448"><ele>325.0</ele><time>2026-03-28T13:33:42.192Z</time></trkpt><trkpt lat="43.3420372" lon="11.4949195"><ele>323.0</ele><time>2026-03-28T13:33:43.192Z</time></trkpt><trkpt lat="43.341927" lon="11.49479"><ele>320.6666666666667</ele><time>2026-03-28T13:33:44.191Z</time></trkpt><trkpt lat="43.3418084" lon="11.494653"><ele>318.3333333333333</ele><time>2026-03-28T13:33:45.191Z</time></trkpt><trkpt lat="43.3416841" lon="11.4945079"><ele>316.0</ele><time>2026-03-28T13:33:46.191Z</time></trkpt><trkpt lat="43.3415587" lon="11.4943611"><ele>315.0</ele><time>2026-03-28T13:33:47.191Z</time></trkpt><trkpt lat="43.3414366" lon="11.4942202"><ele>314.0</ele><time>2026-03-28T13:33:48.191Z</time></trkpt><trkpt lat="43.3413166" lon="11.4940829"><ele>313.0</ele><time>2026-03-28T13:33:49.19Z</time></trkpt><trkpt lat="43.3412034" lon="11.4939493"><ele>312.0</ele><time>2026-03-28T13:33:50.192Z</time></trkpt><trkpt lat="43.3410912" lon="11.4938137"><ele>311.0</ele><time>2026-03-28T13:33:51.192Z</time></trkpt><trkpt lat="43.3409767" lon="11.4936786"><ele>310.0</ele><time>2026-03-28T13:33:52.191Z</time></trkpt><trkpt lat="43.3408601" lon="11.4935439"><ele>310.0</ele><time>2026-03-28T13:33:53.192Z</time></trkpt><trkpt lat="43.3407447" lon="11.4934093"><ele>310.0</ele><time>2026-03-28T13:33:54.191Z</time></trkpt><trkpt lat="43.3406307" lon="11.4932749"><ele>310.0</ele><time>2026-03-28T13:33:55.192Z</time></trkpt><trkpt lat="43.3405152" lon="11.493138"><ele>310.0</ele><time>2026-03-28T13:33:56.191Z</time></trkpt><trkpt lat="43.3404032" lon="11.4929927"><ele>310.0</ele><time>2026-03-28T13:33:57.192Z</time></trkpt><trkpt lat="43.3402992" lon="11.4928508"><ele>310.0</ele><time>2026-03-28T13:33:58.192Z</time></trkpt><trkpt lat="43.3401929" lon="11.4927057"><ele>310.3333333333333</ele><time>2026-03-28T13:33:59.191Z</time></trkpt><trkpt lat="43.3400861" lon="11.4925593"><ele>310.6666666666667</ele><time>2026-03-28T13:34:00.191Z</time></trkpt><trkpt lat="43.3399802" lon="11.4924073"><ele>311.0</ele><time>2026-03-28T13:34:01.192Z</time></trkpt><trkpt lat="43.3398734" lon="11.4922526"><ele>311.0</ele><time>2026-03-28T13:34:02.191Z</time></trkpt><trkpt lat="43.3397679" lon="11.4920927"><ele>311.0</ele><time>2026-03-28T13:34:03.191Z</time></trkpt><trkpt lat="43.33966" lon="11.4919245"><ele>311.0</ele><time>2026-03-28T13:34:04.191Z</time></trkpt><trkpt lat="43.339549" lon="11.4917552"><ele>309.6666666666667</ele><time>2026-03-28T13:34:05.191Z</time></trkpt><trkpt lat="43.3394372" lon="11.4915829"><ele>308.3333333333333</ele><time>2026-03-28T13:34:06.191Z</time></trkpt><trkpt lat="43.3393262" lon="11.4914092"><ele>307.0</ele><time>2026-03-28T13:34:07.192Z</time></trkpt><trkpt lat="43.3392148" lon="11.4912408"><ele>306.66666666666663</ele><time>2026-03-28T13:34:08.191Z</time></trkpt><trkpt lat="43.3390958" lon="11.4910741"><ele>306.3333333333333</ele><time>2026-03-28T13:34:09.192Z</time></trkpt><trkpt lat="43.3389649" lon="11.4909172"><ele>306.0</ele><time>2026-03-28T13:34:10.19Z</time></trkpt><trkpt lat="43.3388245" lon="11.4907646"><ele>305.0</ele><time>2026-03-28T13:34:11.191Z</time></trkpt><trkpt lat="43.3386789" lon="11.4906142"><ele>304.0</ele><time>2026-03-28T13:34:12.191Z</time></trkpt><trkpt lat="43.3385284" lon="11.4904577"><ele>303.0</ele><time>2026-03-28T13:34:13.192Z</time></trkpt><trkpt lat="43.3383693" lon="11.4902919"><ele>303.0</ele><time>2026-03-28T13:34:14.191Z</time></trkpt><trkpt lat="43.3382051" lon="11.4901209"><ele>303.0</ele><time>2026-03-28T13:34:15.192Z</time></trkpt><trkpt lat="43.3380319" lon="11.4899436"><ele>303.0</ele><time>2026-03-28T13:34:16.192Z</time></trkpt><trkpt lat="43.3378593" lon="11.4897678"><ele>300.0</ele><time>2026-03-28T13:34:17.191Z</time></trkpt><trkpt lat="43.3376747" lon="11.4895848"><ele>297.0</ele><time>2026-03-28T13:34:18.191Z</time></trkpt><trkpt lat="43.3374944" lon="11.4894064"><ele>297.0</ele><time>2026-03-28T13:34:19.191Z</time></trkpt><trkpt lat="43.3373116" lon="11.4892216"><ele>297.0</ele><time>2026-03-28T13:34:20.192Z</time></trkpt><trkpt lat="43.3371259" lon="11.4890387"><ele>297.6666666666667</ele><time>2026-03-28T13:34:21.191Z</time></trkpt><trkpt lat="43.3369216" lon="11.4888967"><ele>298.33333333333337</ele><time>2026-03-28T13:34:22.192Z</time></trkpt><trkpt lat="43.3367328" lon="11.4887818"><ele>299.0</ele><time>2026-03-28T13:34:23.192Z</time></trkpt><trkpt lat="43.3365704" lon="11.4886553"><ele>299.0</ele><time>2026-03-28T13:34:24.191Z</time></trkpt><trkpt lat="43.3364283" lon="11.4884736"><ele>299.0</ele><time>2026-03-28T13:34:25.191Z</time></trkpt><trkpt lat="43.3362981" lon="11.4882617"><ele>299.0</ele><time>2026-03-28T13:34:26.191Z</time></trkpt><trkpt lat="43.3361587" lon="11.4880507"><ele>296.33333333333337</ele><time>2026-03-28T13:34:27.191Z</time></trkpt><trkpt lat="43.3360075" lon="11.4878634"><ele>293.6666666666667</ele><time>2026-03-28T13:34:28.192Z</time></trkpt><trkpt lat="43.3358591" lon="11.4876911"><ele>291.0</ele><time>2026-03-28T13:34:29.191Z</time></trkpt><trkpt lat="43.3357212" lon="11.4875135"><ele>291.0</ele><time>2026-03-28T13:34:30.192Z</time></trkpt><trkpt lat="43.3356033" lon="11.4873285"><ele>291.0</ele><time>2026-03-28T13:34:31.191Z</time></trkpt><trkpt lat="43.3355036" lon="11.4871295"><ele>291.0</ele><time>2026-03-28T13:34:32.192Z</time></trkpt><trkpt lat="43.3354181" lon="11.48693"><ele>292.0</ele><time>2026-03-28T13:34:33.191Z</time></trkpt><trkpt lat="43.3353356" lon="11.4867361"><ele>293.0</ele><time>2026-03-28T13:34:34.191Z</time></trkpt><trkpt lat="43.335258" lon="11.4865469"><ele>294.0</ele><time>2026-03-28T13:34:35.192Z</time></trkpt><trkpt lat="43.3351785" lon="11.4863527"><ele>291.0</ele><time>2026-03-28T13:34:36.192Z</time></trkpt><trkpt lat="43.335097" lon="11.4861512"><ele>288.0</ele><time>2026-03-28T13:34:37.192Z</time></trkpt><trkpt lat="43.3350282" lon="11.4859494"><ele>285.0</ele><time>2026-03-28T13:34:38.191Z</time></trkpt><trkpt lat="43.3349773" lon="11.4857443"><ele>285.0</ele><time>2026-03-28T13:34:39.191Z</time></trkpt><trkpt lat="43.3349393" lon="11.4855406"><ele>285.0</ele><time>2026-03-28T13:34:40.191Z</time></trkpt><trkpt lat="43.33491" lon="11.4853399"><ele>285.0</ele><time>2026-03-28T13:34:41.192Z</time></trkpt><trkpt lat="43.3348853" lon="11.4851375"><ele>283.0</ele><time>2026-03-28T13:34:42.191Z</time></trkpt><trkpt lat="43.3348562" lon="11.4849204"><ele>281.0</ele><time>2026-03-28T13:34:43.192Z</time></trkpt><trkpt lat="43.3348237" lon="11.4847042"><ele>279.0</ele><time>2026-03-28T13:34:44.191Z</time></trkpt><trkpt lat="43.3348012" lon="11.4845152"><ele>278.2</ele><time>2026-03-28T13:34:45.192Z</time></trkpt><trkpt lat="43.3347864" lon="11.4843478"><ele>277.4</ele><time>2026-03-28T13:34:46.191Z</time></trkpt><trkpt lat="43.334773" lon="11.4841921"><ele>276.6</ele><time>2026-03-28T13:34:47.191Z</time></trkpt><trkpt lat="43.3347606" lon="11.4840486"><ele>275.8</ele><time>2026-03-28T13:34:48.192Z</time></trkpt><trkpt lat="43.3347524" lon="11.4839128"><ele>275.0</ele><time>2026-03-28T13:34:49.191Z</time></trkpt><trkpt lat="43.3347438" lon="11.4837869"><ele>274.75</ele><time>2026-03-28T13:34:50.191Z</time></trkpt><trkpt lat="43.3347365" lon="11.4836536"><ele>274.5</ele><time>2026-03-28T13:34:51.191Z</time></trkpt><trkpt lat="43.3347245" lon="11.4835028"><ele>274.25</ele><time>2026-03-28T13:34:52.191Z</time></trkpt><trkpt lat="43.3347085" lon="11.4833393"><ele>274.0</ele><time>2026-03-28T13:34:53.191Z</time></trkpt><trkpt lat="43.3346905" lon="11.4831643"><ele>275.75</ele><time>2026-03-28T13:34:54.191Z</time></trkpt><trkpt lat="43.3346662" lon="11.4829856"><ele>277.5</ele><time>2026-03-28T13:34:55.191Z</time></trkpt><trkpt lat="43.3346377" lon="11.4828036"><ele>279.25</ele><time>2026-03-28T13:34:56.191Z</time></trkpt><trkpt lat="43.3346095" lon="11.4826201"><ele>281.0</ele><time>2026-03-28T13:34:57.192Z</time></trkpt><trkpt lat="43.3345886" lon="11.4824441"><ele>281.0</ele><time>2026-03-28T13:34:58.191Z</time></trkpt><trkpt lat="43.3345907" lon="11.4822641"><ele>281.0</ele><time>2026-03-28T13:34:59.191Z</time></trkpt><trkpt lat="43.3346163" lon="11.4820814"><ele>281.0</ele><time>2026-03-28T13:35:00.19Z</time></trkpt><trkpt lat="43.3346708" lon="11.4819038"><ele>281.0</ele><time>2026-03-28T13:35:01.191Z</time></trkpt><trkpt lat="43.3347474" lon="11.4817447"><ele>280.33333333333337</ele><time>2026-03-28T13:35:02.192Z</time></trkpt><trkpt lat="43.3348368" lon="11.4815805"><ele>279.6666666666667</ele><time>2026-03-28T13:35:03.191Z</time></trkpt><trkpt lat="43.3349311" lon="11.481414"><ele>279.0</ele><time>2026-03-28T13:35:04.191Z</time></trkpt><trkpt lat="43.3350246" lon="11.4812573"><ele>279.0</ele><time>2026-03-28T13:35:05.191Z</time></trkpt><trkpt lat="43.3351218" lon="11.4810995"><ele>279.0</ele><time>2026-03-28T13:35:06.191Z</time></trkpt><trkpt lat="43.3352138" lon="11.4809527"><ele>279.0</ele><time>2026-03-28T13:35:07.191Z</time></trkpt><trkpt lat="43.3352945" lon="11.480812"><ele>279.0</ele><time>2026-03-28T13:35:08.192Z</time></trkpt><trkpt lat="43.3353599" lon="11.4806699"><ele>279.0</ele><time>2026-03-28T13:35:09.192Z</time></trkpt><trkpt lat="43.3354056" lon="11.4805178"><ele>279.0</ele><time>2026-03-28T13:35:10.19Z</time></trkpt><trkpt lat="43.3354446" lon="11.4803569"><ele>279.0</ele><time>2026-03-28T13:35:11.191Z</time></trkpt><trkpt lat="43.3354787" lon="11.4801987"><ele>279.0</ele><time>2026-03-28T13:35:12.191Z</time></trkpt><trkpt lat="43.335508" lon="11.4800512"><ele>279.25</ele><time>2026-03-28T13:35:13.191Z</time></trkpt><trkpt lat="43.335543" lon="11.4798998"><ele>279.5</ele><time>2026-03-28T13:35:14.191Z</time></trkpt><trkpt lat="43.335585" lon="11.4797454"><ele>279.75</ele><time>2026-03-28T13:35:15.192Z</time></trkpt><trkpt lat="43.3356338" lon="11.4795916"><ele>280.0</ele><time>2026-03-28T13:35:16.191Z</time></trkpt><trkpt lat="43.3356897" lon="11.4794378"><ele>279.5</ele><time>2026-03-28T13:35:17.191Z</time></trkpt><trkpt lat="43.335744" lon="11.4792745"><ele>279.0</ele><time>2026-03-28T13:35:18.192Z</time></trkpt><trkpt lat="43.3357982" lon="11.4791037"><ele>278.5</ele><time>2026-03-28T13:35:19.191Z</time></trkpt><trkpt lat="43.3358508" lon="11.4789392"><ele>278.0</ele><time>2026-03-28T13:35:20.191Z</time></trkpt><trkpt lat="43.3358969" lon="11.4787851"><ele>277.0</ele><time>2026-03-28T13:35:21.191Z</time></trkpt><trkpt lat="43.3359397" lon="11.4786326"><ele>276.0</ele><time>2026-03-28T13:35:22.191Z</time></trkpt><trkpt lat="43.3359849" lon="11.478475"><ele>275.0</ele><time>2026-03-28T13:35:23.191Z</time></trkpt><trkpt lat="43.3360197" lon="11.4783153"><ele>274.0</ele><time>2026-03-28T13:35:24.191Z</time></trkpt><trkpt lat="43.336039" lon="11.4781569"><ele>274.0</ele><time>2026-03-28T13:35:25.192Z</time></trkpt><trkpt lat="43.3360357" lon="11.4779866"><ele>274.0</ele><time>2026-03-28T13:35:26.191Z</time></trkpt><trkpt lat="43.3360141" lon="11.47781"><ele>274.0</ele><time>2026-03-28T13:35:27.191Z</time></trkpt><trkpt lat="43.3359766" lon="11.4776324"><ele>274.0</ele><time>2026-03-28T13:35:28.192Z</time></trkpt><trkpt lat="43.3359275" lon="11.4774526"><ele>274.0</ele><time>2026-03-28T13:35:29.19Z</time></trkpt><trkpt lat="43.3358745" lon="11.4772734"><ele>274.0</ele><time>2026-03-28T13:35:30.192Z</time></trkpt><trkpt lat="43.3358177" lon="11.4770995"><ele>274.0</ele><time>2026-03-28T13:35:31.191Z</time></trkpt><trkpt lat="43.3357658" lon="11.4769294"><ele>274.0</ele><time>2026-03-28T13:35:32.192Z</time></trkpt><trkpt lat="43.3357081" lon="11.4767572"><ele>274.25</ele><time>2026-03-28T13:35:33.192Z</time></trkpt><trkpt lat="43.335646" lon="11.4765926"><ele>274.5</ele><time>2026-03-28T13:35:34.191Z</time></trkpt><trkpt lat="43.335586" lon="11.4764394"><ele>274.75</ele><time>2026-03-28T13:35:35.191Z</time></trkpt><trkpt lat="43.3355184" lon="11.476282"><ele>275.0</ele><time>2026-03-28T13:35:36.191Z</time></trkpt><trkpt lat="43.3354499" lon="11.476119"><ele>275.0</ele><time>2026-03-28T13:35:37.191Z</time></trkpt><trkpt lat="43.335379" lon="11.475952"><ele>275.0</ele><time>2026-03-28T13:35:38.192Z</time></trkpt><trkpt lat="43.3353089" lon="11.4757841"><ele>275.0</ele><time>2026-03-28T13:35:39.192Z</time></trkpt><trkpt lat="43.3352414" lon="11.4756183"><ele>275.0</ele><time>2026-03-28T13:35:40.192Z</time></trkpt><trkpt lat="43.3351777" lon="11.4754423"><ele>274.5</ele><time>2026-03-28T13:35:41.191Z</time></trkpt><trkpt lat="43.335121" lon="11.4752621"><ele>274.0</ele><time>2026-03-28T13:35:42.192Z</time></trkpt><trkpt lat="43.3350683" lon="11.475084"><ele>273.5</ele><time>2026-03-28T13:35:43.191Z</time></trkpt><trkpt lat="43.3350271" lon="11.4749043"><ele>273.0</ele><time>2026-03-28T13:35:44.192Z</time></trkpt><trkpt lat="43.3349924" lon="11.474714"><ele>272.75</ele><time>2026-03-28T13:35:45.192Z</time></trkpt><trkpt lat="43.3349631" lon="11.4745159"><ele>272.5</ele><time>2026-03-28T13:35:46.191Z</time></trkpt><trkpt lat="43.3349403" lon="11.4743181"><ele>272.25</ele><time>2026-03-28T13:35:47.191Z</time></trkpt><trkpt lat="43.3349196" lon="11.4741209"><ele>272.0</ele><time>2026-03-28T13:35:48.191Z</time></trkpt><trkpt lat="43.3348986" lon="11.4739268"><ele>271.5</ele><time>2026-03-28T13:35:49.191Z</time></trkpt><trkpt lat="43.3348767" lon="11.4737369"><ele>271.0</ele><time>2026-03-28T13:35:50.191Z</time></trkpt><trkpt lat="43.334861" lon="11.4735454"><ele>270.5</ele><time>2026-03-28T13:35:51.191Z</time></trkpt><trkpt lat="43.3348506" lon="11.473362"><ele>270.0</ele><time>2026-03-28T13:35:52.191Z</time></trkpt><trkpt lat="43.3348511" lon="11.473169"><ele>270.0</ele><time>2026-03-28T13:35:53.191Z</time></trkpt><trkpt lat="43.3348733" lon="11.4729775"><ele>270.0</ele><time>2026-03-28T13:35:54.191Z</time></trkpt><trkpt lat="43.3349092" lon="11.4727958"><ele>270.0</ele><time>2026-03-28T13:35:55.191Z</time></trkpt><trkpt lat="43.3349461" lon="11.4726242"><ele>270.0</ele><time>2026-03-28T13:35:56.191Z</time></trkpt><trkpt lat="43.3349861" lon="11.4724634"><ele>270.25</ele><time>2026-03-28T13:35:57.192Z</time></trkpt><trkpt lat="43.3350337" lon="11.4723092"><ele>270.5</ele><time>2026-03-28T13:35:58.191Z</time></trkpt><trkpt lat="43.3350871" lon="11.4721574"><ele>270.75</ele><time>2026-03-28T13:35:59.191Z</time></trkpt><trkpt lat="43.3351392" lon="11.4720081"><ele>271.0</ele><time>2026-03-28T13:36:00.191Z</time></trkpt><trkpt lat="43.3351855" lon="11.4718636"><ele>270.0</ele><time>2026-03-28T13:36:01.192Z</time></trkpt><trkpt lat="43.335235" lon="11.4717141"><ele>269.0</ele><time>2026-03-28T13:36:02.191Z</time></trkpt><trkpt lat="43.335296" lon="11.4715598"><ele>268.0</ele><time>2026-03-28T13:36:03.191Z</time></trkpt><trkpt lat="43.335367" lon="11.471405"><ele>267.0</ele><time>2026-03-28T13:36:04.191Z</time></trkpt><trkpt lat="43.3354436" lon="11.4712468"><ele>265.75</ele><time>2026-03-28T13:36:05.191Z</time></trkpt><trkpt lat="43.3355217" lon="11.4710788"><ele>264.5</ele><time>2026-03-28T13:36:06.19Z</time></trkpt><trkpt lat="43.3355947" lon="11.4709015"><ele>263.25</ele><time>2026-03-28T13:36:07.191Z</time></trkpt><trkpt lat="43.3356561" lon="11.4707321"><ele>262.0</ele><time>2026-03-28T13:36:08.192Z</time></trkpt><trkpt lat="43.3357068" lon="11.4705703"><ele>261.0</ele><time>2026-03-28T13:36:09.191Z</time></trkpt><trkpt lat="43.3357481" lon="11.4704155"><ele>260.0</ele><time>2026-03-28T13:36:10.191Z</time></trkpt><trkpt lat="43.3357748" lon="11.4702676"><ele>259.0</ele><time>2026-03-28T13:36:11.191Z</time></trkpt><trkpt lat="43.3357797" lon="11.4701084"><ele>258.0</ele><time>2026-03-28T13:36:12.191Z</time></trkpt><trkpt lat="43.3357657" lon="11.4699402"><ele>258.0</ele><time>2026-03-28T13:36:13.191Z</time></trkpt><trkpt lat="43.3357363" lon="11.4697681"><ele>258.0</ele><time>2026-03-28T13:36:14.191Z</time></trkpt><trkpt lat="43.3356993" lon="11.4695926"><ele>258.0</ele><time>2026-03-28T13:36:15.191Z</time></trkpt><trkpt lat="43.335654" lon="11.4694255"><ele>258.0</ele><time>2026-03-28T13:36:16.191Z</time></trkpt><trkpt lat="43.3355966" lon="11.4692591"><ele>257.5</ele><time>2026-03-28T13:36:17.191Z</time></trkpt><trkpt lat="43.3355304" lon="11.4691103"><ele>257.0</ele><time>2026-03-28T13:36:18.192Z</time></trkpt><trkpt lat="43.335451" lon="11.4689671"><ele>256.5</ele><time>2026-03-28T13:36:19.192Z</time></trkpt><trkpt lat="43.3353685" lon="11.4688363"><ele>256.0</ele><time>2026-03-28T13:36:20.19Z</time></trkpt><trkpt lat="43.335286" lon="11.4687167"><ele>256.0</ele><time>2026-03-28T13:36:21.192Z</time></trkpt><trkpt lat="43.3352052" lon="11.468603"><ele>256.0</ele><time>2026-03-28T13:36:22.191Z</time></trkpt><trkpt lat="43.3351243" lon="11.4684729"><ele>256.0</ele><time>2026-03-28T13:36:23.191Z</time></trkpt><trkpt lat="43.3350466" lon="11.4683278"><ele>256.0</ele><time>2026-03-28T13:36:24.191Z</time></trkpt><trkpt lat="43.334974" lon="11.468173"><ele>256.0</ele><time>2026-03-28T13:36:25.192Z</time></trkpt><trkpt lat="43.3349112" lon="11.4680237"><ele>256.0</ele><time>2026-03-28T13:36:26.191Z</time></trkpt><trkpt lat="43.3348575" lon="11.4678745"><ele>256.0</ele><time>2026-03-28T13:36:27.191Z</time></trkpt><trkpt lat="43.3348199" lon="11.4677219"><ele>256.0</ele><time>2026-03-28T13:36:28.191Z</time></trkpt><trkpt lat="43.3347981" lon="11.4675619"><ele>256.25</ele><time>2026-03-28T13:36:29.192Z</time></trkpt><trkpt lat="43.3347825" lon="11.4674081"><ele>256.5</ele><time>2026-03-28T13:36:30.191Z</time></trkpt><trkpt lat="43.3347613" lon="11.4672571"><ele>256.75</ele><time>2026-03-28T13:36:31.191Z</time></trkpt><trkpt lat="43.3347423" lon="11.467095"><ele>257.0</ele><time>2026-03-28T13:36:32.191Z</time></trkpt><trkpt lat="43.3347297" lon="11.4669309"><ele>255.0</ele><time>2026-03-28T13:36:33.191Z</time></trkpt><trkpt lat="43.3347224" lon="11.4667616"><ele>253.0</ele><time>2026-03-28T13:36:34.191Z</time></trkpt><trkpt lat="43.3347223" lon="11.4665861"><ele>251.0</ele><time>2026-03-28T13:36:35.19Z</time></trkpt><trkpt lat="43.3347384" lon="11.466408"><ele>249.0</ele><time>2026-03-28T13:36:36.192Z</time></trkpt><trkpt lat="43.3347672" lon="11.4662317"><ele>248.25</ele><time>2026-03-28T13:36:37.191Z</time></trkpt><trkpt lat="43.3348093" lon="11.4660595"><ele>247.5</ele><time>2026-03-28T13:36:38.191Z</time></trkpt><trkpt lat="43.3348576" lon="11.4658892"><ele>246.75</ele><time>2026-03-28T13:36:39.192Z</time></trkpt><trkpt lat="43.3349044" lon="11.4657154"><ele>246.0</ele><time>2026-03-28T13:36:40.191Z</time></trkpt><trkpt lat="43.334951" lon="11.465536"><ele>245.75</ele><time>2026-03-28T13:36:41.191Z</time></trkpt><trkpt lat="43.3349967" lon="11.4653533"><ele>245.5</ele><time>2026-03-28T13:36:42.191Z</time></trkpt><trkpt lat="43.3350431" lon="11.4651674"><ele>245.25</ele><time>2026-03-28T13:36:43.191Z</time></trkpt><trkpt lat="43.3350889" lon="11.4649817"><ele>245.0</ele><time>2026-03-28T13:36:44.191Z</time></trkpt><trkpt lat="43.3351317" lon="11.4647952"><ele>243.75</ele><time>2026-03-28T13:36:45.191Z</time></trkpt><trkpt lat="43.3351739" lon="11.4646109"><ele>242.5</ele><time>2026-03-28T13:36:46.191Z</time></trkpt><trkpt lat="43.3352223" lon="11.4644278"><ele>241.25</ele><time>2026-03-28T13:36:47.192Z</time></trkpt><trkpt lat="43.3352728" lon="11.4642467"><ele>240.0</ele><time>2026-03-28T13:36:48.191Z</time></trkpt><trkpt lat="43.3353233" lon="11.4640586"><ele>240.0</ele><time>2026-03-28T13:36:49.192Z</time></trkpt><trkpt lat="43.3353772" lon="11.4638735"><ele>240.0</ele><time>2026-03-28T13:36:50.191Z</time></trkpt><trkpt lat="43.3354351" lon="11.4636917"><ele>240.0</ele><time>2026-03-28T13:36:51.191Z</time></trkpt><trkpt lat="43.3354943" lon="11.4635134"><ele>240.0</ele><time>2026-03-28T13:36:52.192Z</time></trkpt><trkpt lat="43.3355652" lon="11.4633406"><ele>239.0</ele><time>2026-03-28T13:36:53.191Z</time></trkpt><trkpt lat="43.3356478" lon="11.4631715"><ele>238.0</ele><time>2026-03-28T13:36:54.191Z</time></trkpt><trkpt lat="43.3357177" lon="11.4629907"><ele>237.0</ele><time>2026-03-28T13:36:55.191Z</time></trkpt><trkpt lat="43.3357764" lon="11.4628069"><ele>236.0</ele><time>2026-03-28T13:36:56.191Z</time></trkpt><trkpt lat="43.3358285" lon="11.4626204"><ele>238.75</ele><time>2026-03-28T13:36:57.191Z</time></trkpt><trkpt lat="43.3358629" lon="11.4624356"><ele>241.5</ele><time>2026-03-28T13:36:58.191Z</time></trkpt><trkpt lat="43.3358906" lon="11.4622544"><ele>244.25</ele><time>2026-03-28T13:36:59.192Z</time></trkpt><trkpt lat="43.3359149" lon="11.4620595"><ele>247.0</ele><time>2026-03-28T13:37:00.191Z</time></trkpt><trkpt lat="43.3359332" lon="11.4618555"><ele>247.66666666666666</ele><time>2026-03-28T13:37:01.191Z</time></trkpt><trkpt lat="43.3359407" lon="11.4616503"><ele>248.33333333333331</ele><time>2026-03-28T13:37:02.191Z</time></trkpt><trkpt lat="43.3359486" lon="11.4614363"><ele>249.0</ele><time>2026-03-28T13:37:03.192Z</time></trkpt><trkpt lat="43.335958" lon="11.461223"><ele>248.0</ele><time>2026-03-28T13:37:04.191Z</time></trkpt><trkpt lat="43.3359715" lon="11.4610155"><ele>247.0</ele><time>2026-03-28T13:37:05.191Z</time></trkpt><trkpt lat="43.3359858" lon="11.4608157"><ele>246.0</ele><time>2026-03-28T13:37:06.192Z</time></trkpt><trkpt lat="43.3360074" lon="11.4606162"><ele>245.0</ele><time>2026-03-28T13:37:07.191Z</time></trkpt><trkpt lat="43.336034" lon="11.4604222"><ele>244.25</ele><time>2026-03-28T13:37:08.19Z</time></trkpt><trkpt lat="43.3360554" lon="11.4602289"><ele>243.5</ele><time>2026-03-28T13:37:09.191Z</time></trkpt><trkpt lat="43.3360756" lon="11.4600378"><ele>242.75</ele><time>2026-03-28T13:37:10.191Z</time></trkpt><trkpt lat="43.336089" lon="11.4598422"><ele>242.0</ele><time>2026-03-28T13:37:11.191Z</time></trkpt><trkpt lat="43.3360897" lon="11.4596421"><ele>242.0</ele><time>2026-03-28T13:37:12.192Z</time></trkpt><trkpt lat="43.3360788" lon="11.4594465"><ele>242.0</ele><time>2026-03-28T13:37:13.191Z</time></trkpt><trkpt lat="43.3360501" lon="11.4592704"><ele>242.0</ele><time>2026-03-28T13:37:14.191Z</time></trkpt><trkpt lat="43.3360179" lon="11.4591059"><ele>242.0</ele><time>2026-03-28T13:37:15.192Z</time></trkpt><trkpt lat="43.3360082" lon="11.4589292"><ele>242.0</ele><time>2026-03-28T13:37:16.192Z</time></trkpt><trkpt lat="43.3360337" lon="11.4587568"><ele>242.0</ele><time>2026-03-28T13:37:17.191Z</time></trkpt><trkpt lat="43.3360904" lon="11.4585906"><ele>242.0</ele><time>2026-03-28T13:37:18.192Z</time></trkpt><trkpt lat="43.336149" lon="11.458425"><ele>242.0</ele><time>2026-03-28T13:37:19.191Z</time></trkpt><trkpt lat="43.3361844" lon="11.4582419"><ele>242.0</ele><time>2026-03-28T13:37:20.191Z</time></trkpt><trkpt lat="43.3362148" lon="11.4580456"><ele>242.0</ele><time>2026-03-28T13:37:21.191Z</time></trkpt><trkpt lat="43.3362554" lon="11.4578436"><ele>242.0</ele><time>2026-03-28T13:37:22.191Z</time></trkpt><trkpt lat="43.3362964" lon="11.4576516"><ele>242.0</ele><time>2026-03-28T13:37:23.192Z</time></trkpt><trkpt lat="43.3363289" lon="11.4574686"><ele>242.0</ele><time>2026-03-28T13:37:24.192Z</time></trkpt><trkpt lat="43.3363528" lon="11.4572858"><ele>242.0</ele><time>2026-03-28T13:37:25.191Z</time></trkpt><trkpt lat="43.3363656" lon="11.457091"><ele>242.0</ele><time>2026-03-28T13:37:26.19Z</time></trkpt><trkpt lat="43.3363545" lon="11.4568888"><ele>242.0</ele><time>2026-03-28T13:37:27.19Z</time></trkpt><trkpt lat="43.3363327" lon="11.4566982"><ele>240.5</ele><time>2026-03-28T13:37:28.191Z</time></trkpt><trkpt lat="43.3363215" lon="11.4565219"><ele>239.0</ele><time>2026-03-28T13:37:29.192Z</time></trkpt><trkpt lat="43.3363286" lon="11.4563544"><ele>237.5</ele><time>2026-03-28T13:37:30.191Z</time></trkpt><trkpt lat="43.3363532" lon="11.4561904"><ele>236.0</ele><time>2026-03-28T13:37:31.191Z</time></trkpt><trkpt lat="43.3363888" lon="11.4560268"><ele>235.25</ele><time>2026-03-28T13:37:32.192Z</time></trkpt><trkpt lat="43.3364387" lon="11.4558603"><ele>234.5</ele><time>2026-03-28T13:37:33.191Z</time></trkpt><trkpt lat="43.3365002" lon="11.455685"><ele>233.75</ele><time>2026-03-28T13:37:34.192Z</time></trkpt><trkpt lat="43.3365628" lon="11.4554949"><ele>233.0</ele><time>2026-03-28T13:37:35.191Z</time></trkpt><trkpt lat="43.3366261" lon="11.4552956"><ele>232.5</ele><time>2026-03-28T13:37:36.192Z</time></trkpt><trkpt lat="43.3366917" lon="11.4550991"><ele>232.0</ele><time>2026-03-28T13:37:37.191Z</time></trkpt><trkpt lat="43.3367528" lon="11.4549169"><ele>231.5</ele><time>2026-03-28T13:37:38.191Z</time></trkpt><trkpt lat="43.3367942" lon="11.4547392"><ele>231.0</ele><time>2026-03-28T13:37:39.191Z</time></trkpt><trkpt lat="43.3368101" lon="11.4545472"><ele>231.0</ele><time>2026-03-28T13:37:40.191Z</time></trkpt><trkpt lat="43.3368168" lon="11.4543485"><ele>231.0</ele><time>2026-03-28T13:37:41.191Z</time></trkpt><trkpt lat="43.3368331" lon="11.4541406"><ele>231.0</ele><time>2026-03-28T13:37:42.192Z</time></trkpt><trkpt lat="43.3368502" lon="11.4539394"><ele>231.0</ele><time>2026-03-28T13:37:43.191Z</time></trkpt><trkpt lat="43.3368572" lon="11.4537532"><ele>231.0</ele><time>2026-03-28T13:37:44.191Z</time></trkpt><trkpt lat="43.3368497" lon="11.4535658"><ele>231.0</ele><time>2026-03-28T13:37:45.191Z</time></trkpt><trkpt lat="43.3368146" lon="11.4533813"><ele>231.0</ele><time>2026-03-28T13:37:46.191Z</time></trkpt><trkpt lat="43.3367564" lon="11.4531973"><ele>231.0</ele><time>2026-03-28T13:37:47.191Z</time></trkpt><trkpt lat="43.3366895" lon="11.4530123"><ele>230.5</ele><time>2026-03-28T13:37:48.191Z</time></trkpt><trkpt lat="43.3366281" lon="11.4528396"><ele>230.0</ele><time>2026-03-28T13:37:49.191Z</time></trkpt><trkpt lat="43.3365675" lon="11.4526757"><ele>229.5</ele><time>2026-03-28T13:37:50.191Z</time></trkpt><trkpt lat="43.3365088" lon="11.4525202"><ele>229.0</ele><time>2026-03-28T13:37:51.192Z</time></trkpt><trkpt lat="43.3364509" lon="11.452369"><ele>229.0</ele><time>2026-03-28T13:37:52.191Z</time></trkpt><trkpt lat="43.3363913" lon="11.4522131"><ele>229.0</ele><time>2026-03-28T13:37:53.191Z</time></trkpt><trkpt lat="43.3363306" lon="11.4520547"><ele>229.0</ele><time>2026-03-28T13:37:54.192Z</time></trkpt><trkpt lat="43.3362667" lon="11.4518945"><ele>229.0</ele><time>2026-03-28T13:37:55.192Z</time></trkpt><trkpt lat="43.3362029" lon="11.45173"><ele>227.0</ele><time>2026-03-28T13:37:56.192Z</time></trkpt><trkpt lat="43.3361404" lon="11.4515687"><ele>225.0</ele><time>2026-03-28T13:37:57.192Z</time></trkpt><trkpt lat="43.3360736" lon="11.4514306"><ele>223.0</ele><time>2026-03-28T13:37:58.191Z</time></trkpt><trkpt lat="43.3359906" lon="11.4513101"><ele>221.0</ele><time>2026-03-28T13:37:59.192Z</time></trkpt><trkpt lat="43.3358881" lon="11.4512116"><ele>220.8</ele><time>2026-03-28T13:38:00.191Z</time></trkpt><trkpt lat="43.335781" lon="11.4511337"><ele>220.60000000000002</ele><time>2026-03-28T13:38:01.192Z</time></trkpt><trkpt lat="43.3356747" lon="11.4510728"><ele>220.4</ele><time>2026-03-28T13:38:02.191Z</time></trkpt><trkpt lat="43.3355804" lon="11.4510045"><ele>220.2</ele><time>2026-03-28T13:38:03.191Z</time></trkpt><trkpt lat="43.3355016" lon="11.4509204"><ele>220.0</ele><time>2026-03-28T13:38:04.191Z</time></trkpt><trkpt lat="43.3354492" lon="11.4508076"><ele>218.4</ele><time>2026-03-28T13:38:05.191Z</time></trkpt><trkpt lat="43.3354437" lon="11.4506788"><ele>216.8</ele><time>2026-03-28T13:38:06.191Z</time></trkpt><trkpt lat="43.3354797" lon="11.4505498"><ele>215.2</ele><time>2026-03-28T13:38:07.191Z</time></trkpt><trkpt lat="43.3355458" lon="11.4504269"><ele>213.6</ele><time>2026-03-28T13:38:08.191Z</time></trkpt><trkpt lat="43.3356245" lon="11.4503036"><ele>212.0</ele><time>2026-03-28T13:38:09.192Z</time></trkpt><trkpt lat="43.3357054" lon="11.4501894"><ele>212.0</ele><time>2026-03-28T13:38:10.191Z</time></trkpt><trkpt lat="43.3357776" lon="11.4500854"><ele>212.0</ele><time>2026-03-28T13:38:11.192Z</time></trkpt><trkpt lat="43.3358624" lon="11.4500037"><ele>212.0</ele><time>2026-03-28T13:38:12.191Z</time></trkpt><trkpt lat="43.3359508" lon="11.4499558"><ele>212.0</ele><time>2026-03-28T13:38:13.191Z</time></trkpt><trkpt lat="43.3360392" lon="11.449941"><ele>212.0</ele><time>2026-03-28T13:38:14.192Z</time></trkpt><trkpt lat="43.3361299" lon="11.4499466"><ele>212.0</ele><time>2026-03-28T13:38:15.192Z</time></trkpt><trkpt lat="43.3362228" lon="11.4499521"><ele>212.0</ele><time>2026-03-28T13:38:16.19Z</time></trkpt><trkpt lat="43.3363021" lon="11.449916"><ele>212.0</ele><time>2026-03-28T13:38:17.191Z</time></trkpt><trkpt lat="43.3363638" lon="11.4498453"><ele>212.0</ele><time>2026-03-28T13:38:18.191Z</time></trkpt><trkpt lat="43.3364112" lon="11.4497335"><ele>212.0</ele><time>2026-03-28T13:38:19.192Z</time></trkpt><trkpt lat="43.336439" lon="11.4496019"><ele>211.6</ele><time>2026-03-28T13:38:20.192Z</time></trkpt><trkpt lat="43.3364553" lon="11.4494626"><ele>211.2</ele><time>2026-03-28T13:38:21.191Z</time></trkpt><trkpt lat="43.3364692" lon="11.4493231"><ele>210.8</ele><time>2026-03-28T13:38:22.191Z</time></trkpt><trkpt lat="43.3364832" lon="11.449187"><ele>210.4</ele><time>2026-03-28T13:38:23.191Z</time></trkpt><trkpt lat="43.3364836" lon="11.4490632"><ele>210.0</ele><time>2026-03-28T13:38:24.192Z</time></trkpt><trkpt lat="43.3364667" lon="11.4489307"><ele>210.0</ele><time>2026-03-28T13:38:25.192Z</time></trkpt><trkpt lat="43.3364337" lon="11.448795"><ele>210.0</ele><time>2026-03-28T13:38:26.191Z</time></trkpt><trkpt lat="43.3363832" lon="11.448651"><ele>210.0</ele><time>2026-03-28T13:38:27.191Z</time></trkpt><trkpt lat="43.3363139" lon="11.4485113"><ele>210.0</ele><time>2026-03-28T13:38:28.191Z</time></trkpt><trkpt lat="43.3362481" lon="11.4483866"><ele>209.4</ele><time>2026-03-28T13:38:29.192Z</time></trkpt><trkpt lat="43.3361952" lon="11.448273"><ele>208.8</ele><time>2026-03-28T13:38:30.191Z</time></trkpt><trkpt lat="43.3361534" lon="11.4481661"><ele>208.2</ele><time>2026-03-28T13:38:31.191Z</time></trkpt><trkpt lat="43.3361394" lon="11.4480439"><ele>207.6</ele><time>2026-03-28T13:38:32.192Z</time></trkpt><trkpt lat="43.3361656" lon="11.4479173"><ele>207.0</ele><time>2026-03-28T13:38:33.192Z</time></trkpt><trkpt lat="43.3362167" lon="11.4477881"><ele>207.0</ele><time>2026-03-28T13:38:34.192Z</time></trkpt><trkpt lat="43.3362777" lon="11.4476496"><ele>207.0</ele><time>2026-03-28T13:38:35.192Z</time></trkpt><trkpt lat="43.33634" lon="11.4474902"><ele>207.0</ele><time>2026-03-28T13:38:36.191Z</time></trkpt><trkpt lat="43.3364004" lon="11.4473125"><ele>207.0</ele><time>2026-03-28T13:38:37.191Z</time></trkpt><trkpt lat="43.33644" lon="11.4471426"><ele>207.25</ele><time>2026-03-28T13:38:38.191Z</time></trkpt><trkpt lat="43.3364578" lon="11.4469684"><ele>207.5</ele><time>2026-03-28T13:38:39.191Z</time></trkpt><trkpt lat="43.336451" lon="11.4467904"><ele>207.75</ele><time>2026-03-28T13:38:40.192Z</time></trkpt><trkpt lat="43.3364225" lon="11.4466121"><ele>208.0</ele><time>2026-03-28T13:38:41.192Z</time></trkpt><trkpt lat="43.3363845" lon="11.4464337"><ele>209.5</ele><time>2026-03-28T13:38:42.191Z</time></trkpt><trkpt lat="43.336341" lon="11.4462475"><ele>211.0</ele><time>2026-03-28T13:38:43.191Z</time></trkpt><trkpt lat="43.3362964" lon="11.4460434"><ele>212.5</ele><time>2026-03-28T13:38:44.191Z</time></trkpt><trkpt lat="43.3362578" lon="11.4458447"><ele>214.0</ele><time>2026-03-28T13:38:45.191Z</time></trkpt><trkpt lat="43.3362039" lon="11.4456494"><ele>216.33333333333331</ele><time>2026-03-28T13:38:46.19Z</time></trkpt><trkpt lat="43.3361328" lon="11.4454609"><ele>218.66666666666669</ele><time>2026-03-28T13:38:47.192Z</time></trkpt><trkpt lat="43.3360562" lon="11.4452857"><ele>221.0</ele><time>2026-03-28T13:38:48.192Z</time></trkpt><trkpt lat="43.3359686" lon="11.4450985"><ele>221.0</ele><time>2026-03-28T13:38:49.191Z</time></trkpt><trkpt lat="43.3358737" lon="11.4449044"><ele>221.0</ele><time>2026-03-28T13:38:50.192Z</time></trkpt><trkpt lat="43.3357734" lon="11.4447003"><ele>221.0</ele><time>2026-03-28T13:38:51.191Z</time></trkpt><trkpt lat="43.3356731" lon="11.4444971"><ele>221.25</ele><time>2026-03-28T13:38:52.19Z</time></trkpt><trkpt lat="43.3355823" lon="11.4443181"><ele>221.5</ele><time>2026-03-28T13:38:53.192Z</time></trkpt><trkpt lat="43.3354928" lon="11.4441561"><ele>221.75</ele><time>2026-03-28T13:38:54.191Z</time></trkpt><trkpt lat="43.3354146" lon="11.4440122"><ele>222.0</ele><time>2026-03-28T13:38:55.192Z</time></trkpt><trkpt lat="43.3353461" lon="11.4438795"><ele>221.8</ele><time>2026-03-28T13:38:56.192Z</time></trkpt><trkpt lat="43.3352872" lon="11.4437595"><ele>221.6</ele><time>2026-03-28T13:38:57.19Z</time></trkpt><trkpt lat="43.3352356" lon="11.4436512"><ele>221.40000000000003</ele><time>2026-03-28T13:38:58.191Z</time></trkpt><trkpt lat="43.3351877" lon="11.4435311"><ele>221.20000000000002</ele><time>2026-03-28T13:38:59.191Z</time></trkpt><trkpt lat="43.3351517" lon="11.443402"><ele>221.0</ele><time>2026-03-28T13:39:00.192Z</time></trkpt><trkpt lat="43.3351301" lon="11.4432527"><ele>221.0</ele><time>2026-03-28T13:39:01.191Z</time></trkpt><trkpt lat="43.3351284" lon="11.4430828"><ele>221.0</ele><time>2026-03-28T13:39:02.191Z</time></trkpt><trkpt lat="43.335154" lon="11.4429142"><ele>221.0</ele><time>2026-03-28T13:39:03.192Z</time></trkpt><trkpt lat="43.3351917" lon="11.4427397"><ele>221.0</ele><time>2026-03-28T13:39:04.191Z</time></trkpt><trkpt lat="43.3352316" lon="11.4425546"><ele>218.75</ele><time>2026-03-28T13:39:05.192Z</time></trkpt><trkpt lat="43.335268" lon="11.4423708"><ele>216.5</ele><time>2026-03-28T13:39:06.191Z</time></trkpt><trkpt lat="43.335295" lon="11.4421968"><ele>214.25</ele><time>2026-03-28T13:39:07.191Z</time></trkpt><trkpt lat="43.3353008" lon="11.4420314"><ele>212.0</ele><time>2026-03-28T13:39:08.192Z</time></trkpt><trkpt lat="43.335281" lon="11.4418654"><ele>212.0</ele><time>2026-03-28T13:39:09.191Z</time></trkpt><trkpt lat="43.3352283" lon="11.4417021"><ele>212.0</ele><time>2026-03-28T13:39:10.191Z</time></trkpt><trkpt lat="43.3351684" lon="11.4415544"><ele>212.0</ele><time>2026-03-28T13:39:11.191Z</time></trkpt><trkpt lat="43.3351297" lon="11.4413757"><ele>212.0</ele><time>2026-03-28T13:39:12.191Z</time></trkpt><trkpt lat="43.3351227" lon="11.4411927"><ele>213.75</ele><time>2026-03-28T13:39:13.191Z</time></trkpt><trkpt lat="43.3351371" lon="11.4410285"><ele>215.5</ele><time>2026-03-28T13:39:14.191Z</time></trkpt><trkpt lat="43.3351352" lon="11.4408671"><ele>217.25</ele><time>2026-03-28T13:39:15.191Z</time></trkpt><trkpt lat="43.3351258" lon="11.4407037"><ele>219.0</ele><time>2026-03-28T13:39:16.192Z</time></trkpt><trkpt lat="43.3351106" lon="11.4405443"><ele>220.5</ele><time>2026-03-28T13:39:17.192Z</time></trkpt><trkpt lat="43.3350853" lon="11.440384"><ele>222.0</ele><time>2026-03-28T13:39:18.191Z</time></trkpt><trkpt lat="43.3350458" lon="11.4402207"><ele>223.5</ele><time>2026-03-28T13:39:19.191Z</time></trkpt><trkpt lat="43.3349959" lon="11.440062"><ele>225.0</ele><time>2026-03-28T13:39:20.191Z</time></trkpt><trkpt lat="43.3349413" lon="11.4399053"><ele>225.0</ele><time>2026-03-28T13:39:21.191Z</time></trkpt><trkpt lat="43.3348831" lon="11.4397508"><ele>225.0</ele><time>2026-03-28T13:39:22.191Z</time></trkpt><trkpt lat="43.3348181" lon="11.4395933"><ele>225.0</ele><time>2026-03-28T13:39:23.192Z</time></trkpt><trkpt lat="43.3347496" lon="11.4394458"><ele>225.0</ele><time>2026-03-28T13:39:24.191Z</time></trkpt><trkpt lat="43.3346804" lon="11.4393059"><ele>226.4</ele><time>2026-03-28T13:39:25.191Z</time></trkpt><trkpt lat="43.3346109" lon="11.4391679"><ele>227.8</ele><time>2026-03-28T13:39:26.19Z</time></trkpt><trkpt lat="43.3345383" lon="11.4390359"><ele>229.2</ele><time>2026-03-28T13:39:27.191Z</time></trkpt><trkpt lat="43.3344788" lon="11.4389282"><ele>230.6</ele><time>2026-03-28T13:39:28.191Z</time></trkpt><trkpt lat="43.3344034" lon="11.4388381"><ele>232.0</ele><time>2026-03-28T13:39:29.191Z</time></trkpt><trkpt lat="43.3343042" lon="11.4387754"><ele>232.0</ele><time>2026-03-28T13:39:30.191Z</time></trkpt><trkpt lat="43.3341865" lon="11.4387254"><ele>232.0</ele><time>2026-03-28T13:39:31.191Z</time></trkpt><trkpt lat="43.3340649" lon="11.438662"><ele>232.0</ele><time>2026-03-28T13:39:32.192Z</time></trkpt><trkpt lat="43.333947" lon="11.4385698"><ele>232.0</ele><time>2026-03-28T13:39:33.191Z</time></trkpt><trkpt lat="43.3338547" lon="11.4384609"><ele>233.0</ele><time>2026-03-28T13:39:34.192Z</time></trkpt><trkpt lat="43.3337815" lon="11.4383261"><ele>234.0</ele><time>2026-03-28T13:39:35.192Z</time></trkpt><trkpt lat="43.3337224" lon="11.4381618"><ele>235.0</ele><time>2026-03-28T13:39:36.192Z</time></trkpt><trkpt lat="43.3336897" lon="11.4379769"><ele>236.0</ele><time>2026-03-28T13:39:37.191Z</time></trkpt><trkpt lat="43.3336721" lon="11.437785"><ele>237.0</ele><time>2026-03-28T13:39:38.191Z</time></trkpt><trkpt lat="43.3336656" lon="11.437616"><ele>238.0</ele><time>2026-03-28T13:39:39.191Z</time></trkpt><trkpt lat="43.3336625" lon="11.437463"><ele>239.0</ele><time>2026-03-28T13:39:40.192Z</time></trkpt><trkpt lat="43.3336579" lon="11.4373085"><ele>240.0</ele><time>2026-03-28T13:39:41.192Z</time></trkpt><trkpt lat="43.3336452" lon="11.4371636"><ele>240.75</ele><time>2026-03-28T13:39:42.191Z</time></trkpt><trkpt lat="43.333625" lon="11.4370232"><ele>241.5</ele><time>2026-03-28T13:39:43.191Z</time></trkpt><trkpt lat="43.3336052" lon="11.4368776"><ele>242.25</ele><time>2026-03-28T13:39:44.192Z</time></trkpt><trkpt lat="43.3335832" lon="11.43672"><ele>243.0</ele><time>2026-03-28T13:39:45.19Z</time></trkpt><trkpt lat="43.3335612" lon="11.4365552"><ele>243.0</ele><time>2026-03-28T13:39:46.191Z</time></trkpt><trkpt lat="43.3335442" lon="11.4363815"><ele>243.0</ele><time>2026-03-28T13:39:47.191Z</time></trkpt><trkpt lat="43.3335303" lon="11.4362006"><ele>243.0</ele><time>2026-03-28T13:39:48.191Z</time></trkpt><trkpt lat="43.3335163" lon="11.4360138"><ele>243.0</ele><time>2026-03-28T13:39:49.191Z</time></trkpt><trkpt lat="43.3335097" lon="11.4358436"><ele>242.75</ele><time>2026-03-28T13:39:50.192Z</time></trkpt><trkpt lat="43.3335168" lon="11.4356836"><ele>242.5</ele><time>2026-03-28T13:39:51.19Z</time></trkpt><trkpt lat="43.3335466" lon="11.4355312"><ele>242.25</ele><time>2026-03-28T13:39:52.191Z</time></trkpt><trkpt lat="43.3335949" lon="11.4353844"><ele>242.0</ele><time>2026-03-28T13:39:53.192Z</time></trkpt><trkpt lat="43.3336528" lon="11.4352415"><ele>242.2</ele><time>2026-03-28T13:39:54.192Z</time></trkpt><trkpt lat="43.333709" lon="11.4350957"><ele>242.39999999999998</ele><time>2026-03-28T13:39:55.191Z</time></trkpt><trkpt lat="43.3337559" lon="11.4349445"><ele>242.60000000000002</ele><time>2026-03-28T13:39:56.192Z</time></trkpt><trkpt lat="43.3337909" lon="11.4348055"><ele>242.8</ele><time>2026-03-28T13:39:57.19Z</time></trkpt><trkpt lat="43.333823" lon="11.4346816"><ele>243.0</ele><time>2026-03-28T13:39:58.192Z</time></trkpt><trkpt lat="43.3338569" lon="11.434562"><ele>243.0</ele><time>2026-03-28T13:39:59.192Z</time></trkpt><trkpt lat="43.3338787" lon="11.4344357"><ele>243.0</ele><time>2026-03-28T13:40:00.191Z</time></trkpt><trkpt lat="43.3338852" lon="11.4343014"><ele>243.0</ele><time>2026-03-28T13:40:01.191Z</time></trkpt><trkpt lat="43.333877" lon="11.4341578"><ele>243.0</ele><time>2026-03-28T13:40:02.192Z</time></trkpt><trkpt lat="43.3338449" lon="11.4340202"><ele>243.0</ele><time>2026-03-28T13:40:03.191Z</time></trkpt><trkpt lat="43.3338006" lon="11.4339071"><ele>243.0</ele><time>2026-03-28T13:40:04.192Z</time></trkpt><trkpt lat="43.3337534" lon="11.4338066"><ele>243.0</ele><time>2026-03-28T13:40:05.191Z</time></trkpt><trkpt lat="43.3337062" lon="11.4337095"><ele>243.0</ele><time>2026-03-28T13:40:06.192Z</time></trkpt><trkpt lat="43.3336584" lon="11.4336182"><ele>243.0</ele><time>2026-03-28T13:40:07.191Z</time></trkpt><trkpt lat="43.3336139" lon="11.4335348"><ele>243.0</ele><time>2026-03-28T13:40:08.191Z</time></trkpt><trkpt lat="43.3335547" lon="11.4334018"><ele>243.0</ele><time>2026-03-28T13:40:10.191Z</time></trkpt><trkpt lat="43.3335581" lon="11.433289"><ele>244.4</ele><time>2026-03-28T13:40:12.192Z</time></trkpt><trkpt lat="43.3336468" lon="11.4332248"><ele>245.8</ele><time>2026-03-28T13:40:14.191Z</time></trkpt><trkpt lat="43.3337289" lon="11.4331869"><ele>247.2</ele><time>2026-03-28T13:40:15.192Z</time></trkpt><trkpt lat="43.3338231" lon="11.4331386"><ele>248.6</ele><time>2026-03-28T13:40:16.191Z</time></trkpt><trkpt lat="43.3339303" lon="11.4330841"><ele>250.0</ele><time>2026-03-28T13:40:17.192Z</time></trkpt><trkpt lat="43.3340352" lon="11.4330265"><ele>250.25</ele><time>2026-03-28T13:40:18.191Z</time></trkpt><trkpt lat="43.3341458" lon="11.4329629"><ele>250.5</ele><time>2026-03-28T13:40:19.191Z</time></trkpt><trkpt lat="43.3342535" lon="11.4329022"><ele>250.75</ele><time>2026-03-28T13:40:20.192Z</time></trkpt><trkpt lat="43.3343658" lon="11.4328403"><ele>251.0</ele><time>2026-03-28T13:40:21.192Z</time></trkpt><trkpt lat="43.3344769" lon="11.4327796"><ele>251.0</ele><time>2026-03-28T13:40:22.191Z</time></trkpt><trkpt lat="43.3345866" lon="11.4327197"><ele>251.0</ele><time>2026-03-28T13:40:23.191Z</time></trkpt><trkpt lat="43.3347038" lon="11.4326565"><ele>251.0</ele><time>2026-03-28T13:40:24.191Z</time></trkpt><trkpt lat="43.3348237" lon="11.4325869"><ele>251.0</ele><time>2026-03-28T13:40:25.191Z</time></trkpt><trkpt lat="43.3349478" lon="11.4325151"><ele>251.25</ele><time>2026-03-28T13:40:26.191Z</time></trkpt><trkpt lat="43.3350745" lon="11.4324421"><ele>251.5</ele><time>2026-03-28T13:40:27.191Z</time></trkpt><trkpt lat="43.3352059" lon="11.4323743"><ele>251.75</ele><time>2026-03-28T13:40:28.191Z</time></trkpt><trkpt lat="43.3353388" lon="11.4323046"><ele>252.0</ele><time>2026-03-28T13:40:29.191Z</time></trkpt><trkpt lat="43.3354687" lon="11.4322343"><ele>252.5</ele><time>2026-03-28T13:40:30.192Z</time></trkpt><trkpt lat="43.3355901" lon="11.4321682"><ele>253.0</ele><time>2026-03-28T13:40:31.191Z</time></trkpt><trkpt lat="43.3356987" lon="11.4321048"><ele>253.5</ele><time>2026-03-28T13:40:32.192Z</time></trkpt><trkpt lat="43.3357985" lon="11.4320469"><ele>254.0</ele><time>2026-03-28T13:40:33.191Z</time></trkpt><trkpt lat="43.335896" lon="11.4319895"><ele>254.5</ele><time>2026-03-28T13:40:34.191Z</time></trkpt><trkpt lat="43.3360031" lon="11.431931"><ele>255.0</ele><time>2026-03-28T13:40:35.192Z</time></trkpt><trkpt lat="43.3361222" lon="11.4318687"><ele>255.5</ele><time>2026-03-28T13:40:36.192Z</time></trkpt><trkpt lat="43.3362481" lon="11.431802"><ele>256.0</ele><time>2026-03-28T13:40:37.191Z</time></trkpt><trkpt lat="43.3363814" lon="11.4317295"><ele>255.0</ele><time>2026-03-28T13:40:38.191Z</time></trkpt><trkpt lat="43.3365178" lon="11.4316572"><ele>254.0</ele><time>2026-03-28T13:40:39.191Z</time></trkpt><trkpt lat="43.3366431" lon="11.4315886"><ele>253.0</ele><time>2026-03-28T13:40:40.19Z</time></trkpt><trkpt lat="43.3367692" lon="11.4315202"><ele>252.0</ele><time>2026-03-28T13:40:41.192Z</time></trkpt><trkpt lat="43.3369023" lon="11.431461"><ele>252.0</ele><time>2026-03-28T13:40:42.192Z</time></trkpt><trkpt lat="43.3370398" lon="11.4314251"><ele>252.0</ele><time>2026-03-28T13:40:43.192Z</time></trkpt><trkpt lat="43.3371808" lon="11.4314165"><ele>252.0</ele><time>2026-03-28T13:40:44.192Z</time></trkpt><trkpt lat="43.3373236" lon="11.4314201"><ele>252.0</ele><time>2026-03-28T13:40:45.192Z</time></trkpt><trkpt lat="43.3374709" lon="11.4314169"><ele>250.66666666666669</ele><time>2026-03-28T13:40:46.191Z</time></trkpt><trkpt lat="43.3376239" lon="11.4314194"><ele>249.33333333333334</ele><time>2026-03-28T13:40:47.192Z</time></trkpt><trkpt lat="43.3377792" lon="11.4314234"><ele>248.0</ele><time>2026-03-28T13:40:48.192Z</time></trkpt><trkpt lat="43.3379353" lon="11.4314261"><ele>248.66666666666669</ele><time>2026-03-28T13:40:49.192Z</time></trkpt><trkpt lat="43.3381001" lon="11.4314286"><ele>249.33333333333331</ele><time>2026-03-28T13:40:50.191Z</time></trkpt><trkpt lat="43.3382687" lon="11.4314642"><ele>250.0</ele><time>2026-03-28T13:40:51.191Z</time></trkpt><trkpt lat="43.3384217" lon="11.4315468"><ele>250.0</ele><time>2026-03-28T13:40:52.192Z</time></trkpt><trkpt lat="43.3385651" lon="11.4316745"><ele>250.0</ele><time>2026-03-28T13:40:53.191Z</time></trkpt><trkpt lat="43.3386837" lon="11.4317997"><ele>250.0</ele><time>2026-03-28T13:40:54.191Z</time></trkpt><trkpt lat="43.3388028" lon="11.4319327"><ele>250.0</ele><time>2026-03-28T13:40:55.192Z</time></trkpt><trkpt lat="43.3389177" lon="11.4320652"><ele>250.0</ele><time>2026-03-28T13:40:56.191Z</time></trkpt><trkpt lat="43.3390388" lon="11.4322006"><ele>250.0</ele><time>2026-03-28T13:40:57.191Z</time></trkpt><trkpt lat="43.3391546" lon="11.4323436"><ele>250.0</ele><time>2026-03-28T13:40:58.191Z</time></trkpt><trkpt lat="43.3392673" lon="11.4324925"><ele>250.0</ele><time>2026-03-28T13:40:59.191Z</time></trkpt><trkpt lat="43.339361" lon="11.432651"><ele>250.0</ele><time>2026-03-28T13:41:00.191Z</time></trkpt><trkpt lat="43.339445" lon="11.4328031"><ele>250.0</ele><time>2026-03-28T13:41:01.192Z</time></trkpt><trkpt lat="43.3395232" lon="11.4329734"><ele>249.75</ele><time>2026-03-28T13:41:02.191Z</time></trkpt><trkpt lat="43.3396026" lon="11.4331513"><ele>249.5</ele><time>2026-03-28T13:41:03.192Z</time></trkpt><trkpt lat="43.3396735" lon="11.4333256"><ele>249.25</ele><time>2026-03-28T13:41:04.191Z</time></trkpt><trkpt lat="43.3397449" lon="11.4334953"><ele>249.0</ele><time>2026-03-28T13:41:05.191Z</time></trkpt><trkpt lat="43.3398121" lon="11.4336507"><ele>249.0</ele><time>2026-03-28T13:41:06.191Z</time></trkpt><trkpt lat="43.339876" lon="11.4338036"><ele>249.0</ele><time>2026-03-28T13:41:07.192Z</time></trkpt><trkpt lat="43.3399379" lon="11.4339479"><ele>249.0</ele><time>2026-03-28T13:41:08.191Z</time></trkpt><trkpt lat="43.3399937" lon="11.4340762"><ele>249.0</ele><time>2026-03-28T13:41:09.192Z</time></trkpt><trkpt lat="43.3400456" lon="11.4341872"><ele>249.0</ele><time>2026-03-28T13:41:10.192Z</time></trkpt><trkpt lat="43.3400985" lon="11.4342899"><ele>248.99999999999997</ele><time>2026-03-28T13:41:11.192Z</time></trkpt><trkpt lat="43.3401524" lon="11.4343829"><ele>248.99999999999997</ele><time>2026-03-28T13:41:12.192Z</time></trkpt><trkpt lat="43.3402169" lon="11.4344804"><ele>249.0</ele><time>2026-03-28T13:41:13.191Z</time></trkpt><trkpt lat="43.3403009" lon="11.4345666"><ele>249.0</ele><time>2026-03-28T13:41:14.191Z</time></trkpt><trkpt lat="43.3404035" lon="11.4346202"><ele>248.79999999999998</ele><time>2026-03-28T13:41:15.191Z</time></trkpt><trkpt lat="43.3405135" lon="11.4346446"><ele>248.59999999999997</ele><time>2026-03-28T13:41:16.191Z</time></trkpt><trkpt lat="43.3406209" lon="11.434653"><ele>248.4</ele><time>2026-03-28T13:41:17.192Z</time></trkpt><trkpt lat="43.3407371" lon="11.4346292"><ele>248.2</ele><time>2026-03-28T13:41:18.192Z</time></trkpt><trkpt lat="43.3408464" lon="11.4345918"><ele>248.0</ele><time>2026-03-28T13:41:19.191Z</time></trkpt><trkpt lat="43.3409549" lon="11.4345532"><ele>247.5</ele><time>2026-03-28T13:41:20.192Z</time></trkpt><trkpt lat="43.3410694" lon="11.4345117"><ele>247.0</ele><time>2026-03-28T13:41:21.191Z</time></trkpt><trkpt lat="43.3411831" lon="11.4344807"><ele>246.5</ele><time>2026-03-28T13:41:22.191Z</time></trkpt><trkpt lat="43.3412943" lon="11.4344466"><ele>246.0</ele><time>2026-03-28T13:41:23.191Z</time></trkpt><trkpt lat="43.3414019" lon="11.4344078"><ele>246.0</ele><time>2026-03-28T13:41:24.191Z</time></trkpt><trkpt lat="43.3415076" lon="11.4343711"><ele>246.00000000000003</ele><time>2026-03-28T13:41:25.192Z</time></trkpt><trkpt lat="43.341613" lon="11.4343405"><ele>246.00000000000003</ele><time>2026-03-28T13:41:26.191Z</time></trkpt><trkpt lat="43.3417167" lon="11.4343107"><ele>246.0</ele><time>2026-03-28T13:41:27.192Z</time></trkpt><trkpt lat="43.3418213" lon="11.434278"><ele>246.0</ele><time>2026-03-28T13:41:28.191Z</time></trkpt><trkpt lat="43.3419293" lon="11.4342373"><ele>246.0</ele><time>2026-03-28T13:41:29.192Z</time></trkpt><trkpt lat="43.3420451" lon="11.4341983"><ele>246.0</ele><time>2026-03-28T13:41:30.192Z</time></trkpt><trkpt lat="43.342166" lon="11.4341596"><ele>246.0</ele><time>2026-03-28T13:41:31.191Z</time></trkpt><trkpt lat="43.3422921" lon="11.4341135"><ele>246.0</ele><time>2026-03-28T13:41:32.191Z</time></trkpt><trkpt lat="43.3424214" lon="11.4340688"><ele>246.25</ele><time>2026-03-28T13:41:33.192Z</time></trkpt><trkpt lat="43.3425524" lon="11.4340233"><ele>246.5</ele><time>2026-03-28T13:41:34.192Z</time></trkpt><trkpt lat="43.3426819" lon="11.4339804"><ele>246.75</ele><time>2026-03-28T13:41:35.191Z</time></trkpt><trkpt lat="43.3428101" lon="11.4339428"><ele>247.0</ele><time>2026-03-28T13:41:36.192Z</time></trkpt><trkpt lat="43.3429427" lon="11.4339057"><ele>248.25</ele><time>2026-03-28T13:41:37.191Z</time></trkpt><trkpt lat="43.3430824" lon="11.4338891"><ele>249.5</ele><time>2026-03-28T13:41:38.192Z</time></trkpt><trkpt lat="43.3432294" lon="11.4339256"><ele>250.75</ele><time>2026-03-28T13:41:39.191Z</time></trkpt><trkpt lat="43.3433625" lon="11.4340199"><ele>252.0</ele><time>2026-03-28T13:41:40.191Z</time></trkpt><trkpt lat="43.3434667" lon="11.4341541"><ele>252.0</ele><time>2026-03-28T13:41:41.19Z</time></trkpt><trkpt lat="43.3435613" lon="11.4342913"><ele>252.0</ele><time>2026-03-28T13:41:42.191Z</time></trkpt><trkpt lat="43.3436636" lon="11.4344366"><ele>252.0</ele><time>2026-03-28T13:41:43.192Z</time></trkpt><trkpt lat="43.3437685" lon="11.4345873"><ele>252.0</ele><time>2026-03-28T13:41:44.191Z</time></trkpt><trkpt lat="43.3438769" lon="11.4347397"><ele>254.0</ele><time>2026-03-28T13:41:45.191Z</time></trkpt><trkpt lat="43.3439886" lon="11.4348939"><ele>256.0</ele><time>2026-03-28T13:41:46.192Z</time></trkpt><trkpt lat="43.3440984" lon="11.4350429"><ele>258.0</ele><time>2026-03-28T13:41:47.192Z</time></trkpt><trkpt lat="43.3442195" lon="11.4351877"><ele>258.0</ele><time>2026-03-28T13:41:48.191Z</time></trkpt><trkpt lat="43.3443505" lon="11.4353223"><ele>258.0</ele><time>2026-03-28T13:41:49.191Z</time></trkpt><trkpt lat="43.3444827" lon="11.435445"><ele>258.0</ele><time>2026-03-28T13:41:50.192Z</time></trkpt><trkpt lat="43.3446277" lon="11.4355477"><ele>259.0</ele><time>2026-03-28T13:41:51.191Z</time></trkpt><trkpt lat="43.3447911" lon="11.4356067"><ele>260.0</ele><time>2026-03-28T13:41:52.191Z</time></trkpt><trkpt lat="43.3449566" lon="11.4356323"><ele>261.0</ele><time>2026-03-28T13:41:53.191Z</time></trkpt><trkpt lat="43.345115" lon="11.4356429"><ele>261.0</ele><time>2026-03-28T13:41:54.192Z</time></trkpt><trkpt lat="43.3452744" lon="11.435648"><ele>261.0</ele><time>2026-03-28T13:41:55.191Z</time></trkpt><trkpt lat="43.3454302" lon="11.4356508"><ele>261.0</ele><time>2026-03-28T13:41:56.191Z</time></trkpt><trkpt lat="43.3455691" lon="11.4356578"><ele>262.25</ele><time>2026-03-28T13:41:57.192Z</time></trkpt><trkpt lat="43.3456952" lon="11.4356717"><ele>263.5</ele><time>2026-03-28T13:41:58.192Z</time></trkpt><trkpt lat="43.3458107" lon="11.435712"><ele>264.75</ele><time>2026-03-28T13:41:59.191Z</time></trkpt><trkpt lat="43.3459188" lon="11.4357878"><ele>266.0</ele><time>2026-03-28T13:42:00.191Z</time></trkpt><trkpt lat="43.346032" lon="11.4358847"><ele>266.0</ele><time>2026-03-28T13:42:01.192Z</time></trkpt><trkpt lat="43.3461531" lon="11.4359862"><ele>266.0</ele><time>2026-03-28T13:42:02.19Z</time></trkpt><trkpt lat="43.3462822" lon="11.4360975"><ele>266.0</ele><time>2026-03-28T13:42:03.192Z</time></trkpt><trkpt lat="43.3464041" lon="11.436202"><ele>266.0</ele><time>2026-03-28T13:42:04.191Z</time></trkpt><trkpt lat="43.3465181" lon="11.4363101"><ele>265.5</ele><time>2026-03-28T13:42:05.192Z</time></trkpt><trkpt lat="43.3466235" lon="11.4364317"><ele>265.0</ele><time>2026-03-28T13:42:06.192Z</time></trkpt><trkpt lat="43.3467147" lon="11.4365611"><ele>264.5</ele><time>2026-03-28T13:42:07.191Z</time></trkpt><trkpt lat="43.3468105" lon="11.4367029"><ele>264.0</ele><time>2026-03-28T13:42:08.192Z</time></trkpt><trkpt lat="43.3469056" lon="11.4368514"><ele>264.0</ele><time>2026-03-28T13:42:09.191Z</time></trkpt><trkpt lat="43.3469961" lon="11.4370078"><ele>264.0</ele><time>2026-03-28T13:42:10.191Z</time></trkpt><trkpt lat="43.3470928" lon="11.4371717"><ele>264.0</ele><time>2026-03-28T13:42:11.191Z</time></trkpt><trkpt lat="43.3471913" lon="11.4373403"><ele>262.3333333333333</ele><time>2026-03-28T13:42:12.191Z</time></trkpt><trkpt lat="43.3472904" lon="11.4375131"><ele>260.66666666666663</ele><time>2026-03-28T13:42:13.191Z</time></trkpt><trkpt lat="43.3473877" lon="11.4376916"><ele>259.0</ele><time>2026-03-28T13:42:14.192Z</time></trkpt><trkpt lat="43.3474864" lon="11.4378667"><ele>259.0</ele><time>2026-03-28T13:42:15.192Z</time></trkpt><trkpt lat="43.3475784" lon="11.4380206"><ele>259.0</ele><time>2026-03-28T13:42:16.191Z</time></trkpt><trkpt lat="43.3476675" lon="11.4381568"><ele>259.0</ele><time>2026-03-28T13:42:17.19Z</time></trkpt><trkpt lat="43.3477727" lon="11.4382839"><ele>259.0</ele><time>2026-03-28T13:42:18.191Z</time></trkpt><trkpt lat="43.3479058" lon="11.4383856"><ele>257.66666666666663</ele><time>2026-03-28T13:42:19.191Z</time></trkpt><trkpt lat="43.3480486" lon="11.4384506"><ele>256.3333333333333</ele><time>2026-03-28T13:42:20.191Z</time></trkpt><trkpt lat="43.3482067" lon="11.4384884"><ele>255.0</ele><time>2026-03-28T13:42:21.191Z</time></trkpt><trkpt lat="43.3483717" lon="11.4385154"><ele>255.0</ele><time>2026-03-28T13:42:22.191Z</time></trkpt><trkpt lat="43.3485414" lon="11.438543"><ele>255.0</ele><time>2026-03-28T13:42:23.192Z</time></trkpt><trkpt lat="43.3486995" lon="11.4385716"><ele>255.0</ele><time>2026-03-28T13:42:24.191Z</time></trkpt><trkpt lat="43.3488513" lon="11.4385962"><ele>255.0</ele><time>2026-03-28T13:42:25.191Z</time></trkpt><trkpt lat="43.3490061" lon="11.4386185"><ele>255.0</ele><time>2026-03-28T13:42:26.192Z</time></trkpt><trkpt lat="43.3491454" lon="11.4386443"><ele>255.0</ele><time>2026-03-28T13:42:27.192Z</time></trkpt><trkpt lat="43.3492895" lon="11.438695"><ele>255.0</ele><time>2026-03-28T13:42:28.191Z</time></trkpt><trkpt lat="43.3494247" lon="11.4387973"><ele>253.66666666666669</ele><time>2026-03-28T13:42:29.191Z</time></trkpt><trkpt lat="43.3495389" lon="11.4389424"><ele>252.33333333333334</ele><time>2026-03-28T13:42:30.191Z</time></trkpt><trkpt lat="43.3496338" lon="11.4391216"><ele>251.0</ele><time>2026-03-28T13:42:31.191Z</time></trkpt><trkpt lat="43.3497223" lon="11.439298"><ele>250.66666666666669</ele><time>2026-03-28T13:42:32.191Z</time></trkpt><trkpt lat="43.3498106" lon="11.4394671"><ele>250.33333333333331</ele><time>2026-03-28T13:42:33.192Z</time></trkpt><trkpt lat="43.3499095" lon="11.4396307"><ele>250.0</ele><time>2026-03-28T13:42:34.191Z</time></trkpt><trkpt lat="43.3500197" lon="11.4397667"><ele>249.25</ele><time>2026-03-28T13:42:35.192Z</time></trkpt><trkpt lat="43.3501325" lon="11.4398773"><ele>248.5</ele><time>2026-03-28T13:42:36.191Z</time></trkpt><trkpt lat="43.3502494" lon="11.4399773"><ele>247.75</ele><time>2026-03-28T13:42:37.191Z</time></trkpt><trkpt lat="43.3503804" lon="11.4400644"><ele>247.0</ele><time>2026-03-28T13:42:38.192Z</time></trkpt><trkpt lat="43.3505248" lon="11.4401135"><ele>247.33333333333331</ele><time>2026-03-28T13:42:39.192Z</time></trkpt><trkpt lat="43.3506784" lon="11.4401309"><ele>247.66666666666669</ele><time>2026-03-28T13:42:40.191Z</time></trkpt><trkpt lat="43.3508365" lon="11.4401237"><ele>248.0</ele><time>2026-03-28T13:42:41.192Z</time></trkpt><trkpt lat="43.3509961" lon="11.4400875"><ele>248.0</ele><time>2026-03-28T13:42:42.191Z</time></trkpt><trkpt lat="43.3511525" lon="11.440007"><ele>248.0</ele><time>2026-03-28T13:42:43.191Z</time></trkpt><trkpt lat="43.3513053" lon="11.439896"><ele>248.0</ele><time>2026-03-28T13:42:44.192Z</time></trkpt><trkpt lat="43.351448" lon="11.4397828"><ele>249.0</ele><time>2026-03-28T13:42:45.191Z</time></trkpt><trkpt lat="43.3515815" lon="11.4396771"><ele>250.0</ele><time>2026-03-28T13:42:46.191Z</time></trkpt><trkpt lat="43.3517178" lon="11.4395761"><ele>251.0</ele><time>2026-03-28T13:42:47.191Z</time></trkpt><trkpt lat="43.3518474" lon="11.4394964"><ele>251.0</ele><time>2026-03-28T13:42:48.191Z</time></trkpt><trkpt lat="43.3519689" lon="11.4394444"><ele>251.0</ele><time>2026-03-28T13:42:49.191Z</time></trkpt><trkpt lat="43.3520928" lon="11.4394141"><ele>251.0</ele><time>2026-03-28T13:42:50.191Z</time></trkpt><trkpt lat="43.3522195" lon="11.4393798"><ele>251.0</ele><time>2026-03-28T13:42:51.191Z</time></trkpt><trkpt lat="43.3523429" lon="11.4393"><ele>253.33333333333334</ele><time>2026-03-28T13:42:52.19Z</time></trkpt><trkpt lat="43.3524577" lon="11.4391808"><ele>255.66666666666669</ele><time>2026-03-28T13:42:53.192Z</time></trkpt><trkpt lat="43.3525724" lon="11.4390452"><ele>258.0</ele><time>2026-03-28T13:42:54.191Z</time></trkpt><trkpt lat="43.3526946" lon="11.4389043"><ele>258.0</ele><time>2026-03-28T13:42:55.192Z</time></trkpt><trkpt lat="43.3528284" lon="11.4387779"><ele>258.0</ele><time>2026-03-28T13:42:56.192Z</time></trkpt><trkpt lat="43.3529658" lon="11.4386637"><ele>258.0</ele><time>2026-03-28T13:42:57.192Z</time></trkpt><trkpt lat="43.3531083" lon="11.4385593"><ele>260.3333333333333</ele><time>2026-03-28T13:42:58.191Z</time></trkpt><trkpt lat="43.3532574" lon="11.4384739"><ele>262.66666666666663</ele><time>2026-03-28T13:42:59.191Z</time></trkpt><trkpt lat="43.3534094" lon="11.4384186"><ele>265.0</ele><time>2026-03-28T13:43:00.192Z</time></trkpt><trkpt lat="43.3535559" lon="11.4383791"><ele>265.0</ele><time>2026-03-28T13:43:01.192Z</time></trkpt><trkpt lat="43.3536944" lon="11.4383397"><ele>265.0</ele><time>2026-03-28T13:43:02.191Z</time></trkpt><trkpt lat="43.3538327" lon="11.4383031"><ele>265.0</ele><time>2026-03-28T13:43:03.191Z</time></trkpt><trkpt lat="43.3539665" lon="11.4382711"><ele>265.0</ele><time>2026-03-28T13:43:04.191Z</time></trkpt><trkpt lat="43.3540995" lon="11.438238"><ele>265.25</ele><time>2026-03-28T13:43:05.191Z</time></trkpt><trkpt lat="43.3542306" lon="11.4382061"><ele>265.5</ele><time>2026-03-28T13:43:06.192Z</time></trkpt><trkpt lat="43.3543653" lon="11.4381761"><ele>265.75</ele><time>2026-03-28T13:43:07.191Z</time></trkpt><trkpt lat="43.3545056" lon="11.4381614"><ele>266.0</ele><time>2026-03-28T13:43:08.192Z</time></trkpt><trkpt lat="43.3546478" lon="11.4381586"><ele>266.5</ele><time>2026-03-28T13:43:09.191Z</time></trkpt><trkpt lat="43.3547903" lon="11.4381664"><ele>267.0</ele><time>2026-03-28T13:43:10.191Z</time></trkpt><trkpt lat="43.3549325" lon="11.4381826"><ele>267.5</ele><time>2026-03-28T13:43:11.191Z</time></trkpt><trkpt lat="43.3550778" lon="11.4382078"><ele>268.0</ele><time>2026-03-28T13:43:12.19Z</time></trkpt><trkpt lat="43.3552273" lon="11.4382409"><ele>268.0</ele><time>2026-03-28T13:43:13.192Z</time></trkpt><trkpt lat="43.3553785" lon="11.4382751"><ele>268.0</ele><time>2026-03-28T13:43:14.191Z</time></trkpt><trkpt lat="43.3555191" lon="11.4383049"><ele>268.0</ele><time>2026-03-28T13:43:15.191Z</time></trkpt><trkpt lat="43.3556524" lon="11.4383359"><ele>268.0</ele><time>2026-03-28T13:43:16.191Z</time></trkpt><trkpt lat="43.355786" lon="11.438367"><ele>267.5</ele><time>2026-03-28T13:43:17.191Z</time></trkpt><trkpt lat="43.3559199" lon="11.438396"><ele>267.0</ele><time>2026-03-28T13:43:18.191Z</time></trkpt><trkpt lat="43.356058" lon="11.4384273"><ele>266.5</ele><time>2026-03-28T13:43:19.191Z</time></trkpt><trkpt lat="43.3561993" lon="11.4384602"><ele>266.0</ele><time>2026-03-28T13:43:20.191Z</time></trkpt><trkpt lat="43.3563454" lon="11.4384899"><ele>265.75</ele><time>2026-03-28T13:43:21.192Z</time></trkpt><trkpt lat="43.3564933" lon="11.4385227"><ele>265.5</ele><time>2026-03-28T13:43:22.191Z</time></trkpt><trkpt lat="43.3566372" lon="11.4385542"><ele>265.25</ele><time>2026-03-28T13:43:23.191Z</time></trkpt><trkpt lat="43.3567683" lon="11.4385793"><ele>265.0</ele><time>2026-03-28T13:43:24.191Z</time></trkpt><trkpt lat="43.3569051" lon="11.4386062"><ele>265.0</ele><time>2026-03-28T13:43:25.191Z</time></trkpt><trkpt lat="43.3570492" lon="11.4386142"><ele>265.0</ele><time>2026-03-28T13:43:26.191Z</time></trkpt><trkpt lat="43.3572029" lon="11.4386016"><ele>265.0</ele><time>2026-03-28T13:43:27.191Z</time></trkpt><trkpt lat="43.3573628" lon="11.438565"><ele>265.0</ele><time>2026-03-28T13:43:28.191Z</time></trkpt><trkpt lat="43.3575279" lon="11.4385154"><ele>265.0</ele><time>2026-03-28T13:43:29.19Z</time></trkpt><trkpt lat="43.3576952" lon="11.4384587"><ele>265.0</ele><time>2026-03-28T13:43:30.191Z</time></trkpt><trkpt lat="43.3578519" lon="11.4384093"><ele>265.0</ele><time>2026-03-28T13:43:31.191Z</time></trkpt><trkpt lat="43.3579943" lon="11.4383629"><ele>265.0</ele><time>2026-03-28T13:43:32.191Z</time></trkpt><trkpt lat="43.3581261" lon="11.4382778"><ele>265.0</ele><time>2026-03-28T13:43:33.192Z</time></trkpt><trkpt lat="43.3582373" lon="11.4381444"><ele>265.0</ele><time>2026-03-28T13:43:34.191Z</time></trkpt><trkpt lat="43.3583269" lon="11.4379622"><ele>266.3333333333333</ele><time>2026-03-28T13:43:35.191Z</time></trkpt><trkpt lat="43.3583919" lon="11.4377487"><ele>267.6666666666667</ele><time>2026-03-28T13:43:36.191Z</time></trkpt><trkpt lat="43.3584198" lon="11.437516"><ele>269.0</ele><time>2026-03-28T13:43:37.191Z</time></trkpt><trkpt lat="43.3584014" lon="11.4372871"><ele>269.0</ele><time>2026-03-28T13:43:38.192Z</time></trkpt><trkpt lat="43.358382" lon="11.4370786"><ele>269.0</ele><time>2026-03-28T13:43:39.191Z</time></trkpt><trkpt lat="43.3583706" lon="11.4368777"><ele>269.0</ele><time>2026-03-28T13:43:40.191Z</time></trkpt><trkpt lat="43.3583807" lon="11.4366661"><ele>269.0</ele><time>2026-03-28T13:43:41.191Z</time></trkpt><trkpt lat="43.3584112" lon="11.4364486"><ele>269.0</ele><time>2026-03-28T13:43:42.192Z</time></trkpt><trkpt lat="43.3584415" lon="11.4362272"><ele>269.0</ele><time>2026-03-28T13:43:43.191Z</time></trkpt><trkpt lat="43.3584816" lon="11.4359993"><ele>269.0</ele><time>2026-03-28T13:43:44.192Z</time></trkpt><trkpt lat="43.3585332" lon="11.4357693"><ele>269.0</ele><time>2026-03-28T13:43:45.192Z</time></trkpt><trkpt lat="43.358601" lon="11.4355414"><ele>269.0</ele><time>2026-03-28T13:43:46.191Z</time></trkpt><trkpt lat="43.3586807" lon="11.4353154"><ele>269.6666666666667</ele><time>2026-03-28T13:43:47.192Z</time></trkpt><trkpt lat="43.3587659" lon="11.4350943"><ele>270.3333333333333</ele><time>2026-03-28T13:43:48.192Z</time></trkpt><trkpt lat="43.3588432" lon="11.4348922"><ele>271.0</ele><time>2026-03-28T13:43:49.192Z</time></trkpt><trkpt lat="43.3589062" lon="11.4346875"><ele>268.3333333333333</ele><time>2026-03-28T13:43:50.191Z</time></trkpt><trkpt lat="43.35895" lon="11.4344663"><ele>265.6666666666667</ele><time>2026-03-28T13:43:51.191Z</time></trkpt><trkpt lat="43.3589686" lon="11.4342358"><ele>263.0</ele><time>2026-03-28T13:43:52.191Z</time></trkpt><trkpt lat="43.3589708" lon="11.4339987"><ele>262.0</ele><time>2026-03-28T13:43:53.191Z</time></trkpt><trkpt lat="43.3589563" lon="11.4337604"><ele>261.0</ele><time>2026-03-28T13:43:54.192Z</time></trkpt><trkpt lat="43.3589259" lon="11.4335289"><ele>260.0</ele><time>2026-03-28T13:43:55.192Z</time></trkpt><trkpt lat="43.3588943" lon="11.4332936"><ele>260.0</ele><time>2026-03-28T13:43:56.192Z</time></trkpt><trkpt lat="43.3588708" lon="11.43307"><ele>260.0</ele><time>2026-03-28T13:43:57.191Z</time></trkpt><trkpt lat="43.3588587" lon="11.4328414"><ele>260.0</ele><time>2026-03-28T13:43:58.192Z</time></trkpt><trkpt lat="43.3588567" lon="11.4326092"><ele>260.0</ele><time>2026-03-28T13:43:59.192Z</time></trkpt><trkpt lat="43.3588667" lon="11.4323822"><ele>260.0</ele><time>2026-03-28T13:44:00.191Z</time></trkpt><trkpt lat="43.3588935" lon="11.4321527"><ele>260.0</ele><time>2026-03-28T13:44:01.191Z</time></trkpt><trkpt lat="43.3589349" lon="11.4319223"><ele>260.33333333333337</ele><time>2026-03-28T13:44:02.191Z</time></trkpt><trkpt lat="43.3589806" lon="11.4316885"><ele>260.6666666666667</ele><time>2026-03-28T13:44:03.191Z</time></trkpt><trkpt lat="43.3590262" lon="11.4314612"><ele>261.0</ele><time>2026-03-28T13:44:04.191Z</time></trkpt><trkpt lat="43.3590706" lon="11.4312486"><ele>262.0</ele><time>2026-03-28T13:44:05.191Z</time></trkpt><trkpt lat="43.3591122" lon="11.4310398"><ele>263.0</ele><time>2026-03-28T13:44:06.191Z</time></trkpt><trkpt lat="43.359148" lon="11.4308222"><ele>264.0</ele><time>2026-03-28T13:44:07.191Z</time></trkpt><trkpt lat="43.3591764" lon="11.4305951"><ele>264.3333333333333</ele><time>2026-03-28T13:44:08.192Z</time></trkpt><trkpt lat="43.3591952" lon="11.4303641"><ele>264.66666666666663</ele><time>2026-03-28T13:44:09.191Z</time></trkpt><trkpt lat="43.3591993" lon="11.4301224"><ele>265.0</ele><time>2026-03-28T13:44:10.191Z</time></trkpt><trkpt lat="43.3591837" lon="11.429875"><ele>263.0</ele><time>2026-03-28T13:44:11.192Z</time></trkpt><trkpt lat="43.3591554" lon="11.4296299"><ele>261.0</ele><time>2026-03-28T13:44:12.192Z</time></trkpt><trkpt lat="43.3591201" lon="11.4294072"><ele>259.0</ele><time>2026-03-28T13:44:13.191Z</time></trkpt><trkpt lat="43.3590694" lon="11.4291966"><ele>259.0</ele><time>2026-03-28T13:44:14.192Z</time></trkpt><trkpt lat="43.3590043" lon="11.4289994"><ele>259.0</ele><time>2026-03-28T13:44:15.192Z</time></trkpt><trkpt lat="43.3589163" lon="11.4288157"><ele>259.0</ele><time>2026-03-28T13:44:16.192Z</time></trkpt><trkpt lat="43.3588237" lon="11.4286415"><ele>261.66666666666663</ele><time>2026-03-28T13:44:17.191Z</time></trkpt><trkpt lat="43.3587046" lon="11.4284855"><ele>264.3333333333333</ele><time>2026-03-28T13:44:18.191Z</time></trkpt><trkpt lat="43.3585903" lon="11.4283167"><ele>267.0</ele><time>2026-03-28T13:44:19.191Z</time></trkpt><trkpt lat="43.3584744" lon="11.4281456"><ele>263.3333333333333</ele><time>2026-03-28T13:44:20.192Z</time></trkpt><trkpt lat="43.3583625" lon="11.427969"><ele>259.66666666666663</ele><time>2026-03-28T13:44:21.192Z</time></trkpt><trkpt lat="43.3582628" lon="11.4277935"><ele>256.0</ele><time>2026-03-28T13:44:22.192Z</time></trkpt><trkpt lat="43.3581606" lon="11.4276139"><ele>256.0</ele><time>2026-03-28T13:44:23.192Z</time></trkpt><trkpt lat="43.3580538" lon="11.4274518"><ele>256.0</ele><time>2026-03-28T13:44:24.192Z</time></trkpt><trkpt lat="43.357938" lon="11.4273034"><ele>256.0</ele><time>2026-03-28T13:44:25.191Z</time></trkpt><trkpt lat="43.3578051" lon="11.427174"><ele>255.0</ele><time>2026-03-28T13:44:26.191Z</time></trkpt><trkpt lat="43.3576569" lon="11.4270691"><ele>254.0</ele><time>2026-03-28T13:44:27.191Z</time></trkpt><trkpt lat="43.3575009" lon="11.4269747"><ele>253.0</ele><time>2026-03-28T13:44:28.192Z</time></trkpt><trkpt lat="43.3573439" lon="11.4268719"><ele>254.0</ele><time>2026-03-28T13:44:29.191Z</time></trkpt><trkpt lat="43.3571921" lon="11.4267679"><ele>255.0</ele><time>2026-03-28T13:44:30.191Z</time></trkpt><trkpt lat="43.3570446" lon="11.4266672"><ele>256.0</ele><time>2026-03-28T13:44:31.191Z</time></trkpt><trkpt lat="43.3568973" lon="11.4265647"><ele>256.0</ele><time>2026-03-28T13:44:32.191Z</time></trkpt><trkpt lat="43.3567509" lon="11.4264527"><ele>256.0</ele><time>2026-03-28T13:44:33.192Z</time></trkpt><trkpt lat="43.3566082" lon="11.4263258"><ele>256.0</ele><time>2026-03-28T13:44:34.192Z</time></trkpt><trkpt lat="43.3564706" lon="11.4261725"><ele>252.66666666666666</ele><time>2026-03-28T13:44:35.19Z</time></trkpt><trkpt lat="43.3563382" lon="11.4260046"><ele>249.33333333333331</ele><time>2026-03-28T13:44:36.19Z</time></trkpt><trkpt lat="43.3562068" lon="11.4258254"><ele>246.0</ele><time>2026-03-28T13:44:37.19Z</time></trkpt><trkpt lat="43.3560725" lon="11.4256475"><ele>244.0</ele><time>2026-03-28T13:44:38.19Z</time></trkpt><trkpt lat="43.355934" lon="11.4254702"><ele>242.0</ele><time>2026-03-28T13:44:39.191Z</time></trkpt><trkpt lat="43.3557957" lon="11.425298"><ele>240.0</ele><time>2026-03-28T13:44:40.19Z</time></trkpt><trkpt lat="43.3556655" lon="11.4251281"><ele>240.0</ele><time>2026-03-28T13:44:41.19Z</time></trkpt><trkpt lat="43.3555407" lon="11.4249606"><ele>240.0</ele><time>2026-03-28T13:44:42.191Z</time></trkpt><trkpt lat="43.355423" lon="11.4248041"><ele>240.0</ele><time>2026-03-28T13:44:43.191Z</time></trkpt><trkpt lat="43.3553116" lon="11.4246626"><ele>239.0</ele><time>2026-03-28T13:44:44.19Z</time></trkpt><trkpt lat="43.3552116" lon="11.4245302"><ele>238.0</ele><time>2026-03-28T13:44:45.191Z</time></trkpt><trkpt lat="43.3551184" lon="11.4244032"><ele>237.0</ele><time>2026-03-28T13:44:46.19Z</time></trkpt><trkpt lat="43.3550367" lon="11.4242744"><ele>236.0</ele><time>2026-03-28T13:44:47.19Z</time></trkpt><trkpt lat="43.3549857" lon="11.424114"><ele>236.0</ele><time>2026-03-28T13:44:48.191Z</time></trkpt><trkpt lat="43.3549782" lon="11.4239245"><ele>236.0</ele><time>2026-03-28T13:44:49.19Z</time></trkpt><trkpt lat="43.3550136" lon="11.4237211"><ele>236.0</ele><time>2026-03-28T13:44:50.19Z</time></trkpt><trkpt lat="43.3550605" lon="11.4234992"><ele>234.66666666666669</ele><time>2026-03-28T13:44:51.19Z</time></trkpt><trkpt lat="43.3551129" lon="11.423271"><ele>233.33333333333331</ele><time>2026-03-28T13:44:52.19Z</time></trkpt><trkpt lat="43.3551609" lon="11.4230506"><ele>232.0</ele><time>2026-03-28T13:44:53.189Z</time></trkpt><trkpt lat="43.3552075" lon="11.4228309"><ele>229.66666666666666</ele><time>2026-03-28T13:44:54.191Z</time></trkpt><trkpt lat="43.355244" lon="11.4226204"><ele>227.33333333333331</ele><time>2026-03-28T13:44:55.191Z</time></trkpt><trkpt lat="43.3552779" lon="11.4224165"><ele>225.0</ele><time>2026-03-28T13:44:56.19Z</time></trkpt><trkpt lat="43.355306" lon="11.4222188"><ele>222.66666666666669</ele><time>2026-03-28T13:44:57.191Z</time></trkpt><trkpt lat="43.3553278" lon="11.4220174"><ele>220.33333333333334</ele><time>2026-03-28T13:44:58.19Z</time></trkpt><trkpt lat="43.3553474" lon="11.4218068"><ele>218.0</ele><time>2026-03-28T13:44:59.19Z</time></trkpt><trkpt lat="43.3553679" lon="11.4215895"><ele>218.0</ele><time>2026-03-28T13:45:00.19Z</time></trkpt><trkpt lat="43.3553926" lon="11.4213679"><ele>218.0</ele><time>2026-03-28T13:45:01.19Z</time></trkpt><trkpt lat="43.3554238" lon="11.4211545"><ele>218.0</ele><time>2026-03-28T13:45:02.19Z</time></trkpt><trkpt lat="43.3554577" lon="11.4209529"><ele>217.66666666666669</ele><time>2026-03-28T13:45:03.19Z</time></trkpt><trkpt lat="43.3554926" lon="11.4207576"><ele>217.33333333333331</ele><time>2026-03-28T13:45:04.189Z</time></trkpt><trkpt lat="43.3555293" lon="11.4205559"><ele>217.0</ele><time>2026-03-28T13:45:05.19Z</time></trkpt><trkpt lat="43.3555679" lon="11.4203507"><ele>217.0</ele><time>2026-03-28T13:45:06.189Z</time></trkpt><trkpt lat="43.3556084" lon="11.4201393"><ele>217.0</ele><time>2026-03-28T13:45:07.191Z</time></trkpt><trkpt lat="43.3556564" lon="11.4199255"><ele>217.0</ele><time>2026-03-28T13:45:08.19Z</time></trkpt><trkpt lat="43.3557147" lon="11.4197136"><ele>216.66666666666666</ele><time>2026-03-28T13:45:09.19Z</time></trkpt><trkpt lat="43.3557903" lon="11.4195109"><ele>216.33333333333331</ele><time>2026-03-28T13:45:10.19Z</time></trkpt><trkpt lat="43.3558768" lon="11.4193148"><ele>216.0</ele><time>2026-03-28T13:45:11.191Z</time></trkpt><trkpt lat="43.3559647" lon="11.4191224"><ele>216.0</ele><time>2026-03-28T13:45:12.19Z</time></trkpt><trkpt lat="43.3560466" lon="11.4189417"><ele>216.0</ele><time>2026-03-28T13:45:13.19Z</time></trkpt><trkpt lat="43.3561298" lon="11.4187628"><ele>216.0</ele><time>2026-03-28T13:45:14.191Z</time></trkpt><trkpt lat="43.3562158" lon="11.4185895"><ele>216.33333333333331</ele><time>2026-03-28T13:45:15.19Z</time></trkpt><trkpt lat="43.3563001" lon="11.4184108"><ele>216.66666666666666</ele><time>2026-03-28T13:45:16.191Z</time></trkpt><trkpt lat="43.356385" lon="11.4182286"><ele>217.0</ele><time>2026-03-28T13:45:17.191Z</time></trkpt><trkpt lat="43.3564705" lon="11.4180489"><ele>217.5</ele><time>2026-03-28T13:45:18.191Z</time></trkpt><trkpt lat="43.3565554" lon="11.4178712"><ele>218.0</ele><time>2026-03-28T13:45:19.19Z</time></trkpt><trkpt lat="43.3566271" lon="11.417722"><ele>218.5</ele><time>2026-03-28T13:45:20.191Z</time></trkpt><trkpt lat="43.3566886" lon="11.417597"><ele>219.0</ele><time>2026-03-28T13:45:21.19Z</time></trkpt><trkpt lat="43.3567428" lon="11.4174823"><ele>219.0</ele><time>2026-03-28T13:45:22.19Z</time></trkpt><trkpt lat="43.3567875" lon="11.41738"><ele>219.0</ele><time>2026-03-28T13:45:23.19Z</time></trkpt><trkpt lat="43.3568221" lon="11.4172847"><ele>219.0</ele><time>2026-03-28T13:45:24.19Z</time></trkpt><trkpt lat="43.3568439" lon="11.4171942"><ele>219.0</ele><time>2026-03-28T13:45:25.19Z</time></trkpt><trkpt lat="43.3568623" lon="11.4170444"><ele>219.0</ele><time>2026-03-28T13:45:27.19Z</time></trkpt><trkpt lat="43.3568843" lon="11.4169334"><ele>219.0</ele><time>2026-03-28T13:45:29.191Z</time></trkpt><trkpt lat="43.3569121" lon="11.4168102"><ele>219.0</ele><time>2026-03-28T13:45:32.191Z</time></trkpt><trkpt lat="43.3568707" lon="11.416671"><ele>218.99999999999997</ele><time>2026-03-28T13:45:34.191Z</time></trkpt><trkpt lat="43.3568209" lon="11.4165821"><ele>218.99999999999997</ele><time>2026-03-28T13:45:35.191Z</time></trkpt><trkpt lat="43.3567619" lon="11.4164849"><ele>219.0</ele><time>2026-03-28T13:45:36.19Z</time></trkpt><trkpt lat="43.3566887" lon="11.4163693"><ele>219.0</ele><time>2026-03-28T13:45:37.19Z</time></trkpt><trkpt lat="43.3566212" lon="11.4162633"><ele>219.5</ele><time>2026-03-28T13:45:38.19Z</time></trkpt><trkpt lat="43.3565532" lon="11.4161525"><ele>220.0</ele><time>2026-03-28T13:45:39.19Z</time></trkpt><trkpt lat="43.3564822" lon="11.4160331"><ele>220.5</ele><time>2026-03-28T13:45:40.191Z</time></trkpt><trkpt lat="43.356418" lon="11.4158989"><ele>221.0</ele><time>2026-03-28T13:45:41.191Z</time></trkpt><trkpt lat="43.3563768" lon="11.4157505"><ele>221.0</ele><time>2026-03-28T13:45:42.191Z</time></trkpt><trkpt lat="43.3563751" lon="11.4155974"><ele>221.00000000000003</ele><time>2026-03-28T13:45:43.19Z</time></trkpt><trkpt lat="43.356394" lon="11.4154648"><ele>221.00000000000003</ele><time>2026-03-28T13:45:44.191Z</time></trkpt><trkpt lat="43.3564117" lon="11.4153667"><ele>221.0</ele><time>2026-03-28T13:45:45.191Z</time></trkpt><trkpt lat="43.3564435" lon="11.4152287"><ele>221.0</ele><time>2026-03-28T13:45:47.19Z</time></trkpt><trkpt lat="43.356467" lon="11.4151062"><ele>222.00000000000003</ele><time>2026-03-28T13:45:49.191Z</time></trkpt><trkpt lat="43.35649" lon="11.4149921"><ele>223.0</ele><time>2026-03-28T13:45:51.19Z</time></trkpt><trkpt lat="43.3565064" lon="11.4149006"><ele>224.0</ele><time>2026-03-28T13:45:53.19Z</time></trkpt><trkpt lat="43.3565271" lon="11.414817"><ele>225.0</ele><time>2026-03-28T13:46:05.191Z</time></trkpt><trkpt lat="43.3565393" lon="11.4147282"><ele>226.00000000000003</ele><time>2026-03-28T13:46:06.19Z</time></trkpt><trkpt lat="43.3565773" lon="11.4145618"><ele>227.0</ele><time>2026-03-28T13:46:08.19Z</time></trkpt><trkpt lat="43.3566049" lon="11.414457"><ele>227.66666666666669</ele><time>2026-03-28T13:46:09.191Z</time></trkpt><trkpt lat="43.3566301" lon="11.4143525"><ele>228.33333333333334</ele><time>2026-03-28T13:46:10.19Z</time></trkpt><trkpt lat="43.3566552" lon="11.4142416"><ele>229.0</ele><time>2026-03-28T13:46:11.19Z</time></trkpt><trkpt lat="43.3566827" lon="11.4141339"><ele>229.66666666666669</ele><time>2026-03-28T13:46:12.191Z</time></trkpt><trkpt lat="43.3567131" lon="11.4140177"><ele>230.33333333333334</ele><time>2026-03-28T13:46:13.19Z</time></trkpt><trkpt lat="43.3567437" lon="11.4138998"><ele>231.0</ele><time>2026-03-28T13:46:14.19Z</time></trkpt><trkpt lat="43.3567766" lon="11.4137769"><ele>231.75</ele><time>2026-03-28T13:46:15.191Z</time></trkpt><trkpt lat="43.3568129" lon="11.4136386"><ele>232.5</ele><time>2026-03-28T13:46:16.19Z</time></trkpt><trkpt lat="43.3568548" lon="11.4134917"><ele>233.25</ele><time>2026-03-28T13:46:17.19Z</time></trkpt><trkpt lat="43.3569" lon="11.4133396"><ele>234.0</ele><time>2026-03-28T13:46:18.191Z</time></trkpt><trkpt lat="43.3569501" lon="11.4131833"><ele>234.0</ele><time>2026-03-28T13:46:19.19Z</time></trkpt><trkpt lat="43.3570028" lon="11.4130285"><ele>234.0</ele><time>2026-03-28T13:46:20.191Z</time></trkpt><trkpt lat="43.3570567" lon="11.4128737"><ele>234.0</ele><time>2026-03-28T13:46:21.191Z</time></trkpt><trkpt lat="43.3571165" lon="11.412727"><ele>234.0</ele><time>2026-03-28T13:46:22.19Z</time></trkpt><trkpt lat="43.3571897" lon="11.4125944"><ele>236.0</ele><time>2026-03-28T13:46:23.191Z</time></trkpt><trkpt lat="43.3572847" lon="11.4124779"><ele>238.0</ele><time>2026-03-28T13:46:24.19Z</time></trkpt><trkpt lat="43.3573953" lon="11.412382"><ele>240.0</ele><time>2026-03-28T13:46:25.191Z</time></trkpt><trkpt lat="43.3575095" lon="11.412335"><ele>242.0</ele><time>2026-03-28T13:46:26.191Z</time></trkpt><trkpt lat="43.3576253" lon="11.4122983"><ele>242.0</ele><time>2026-03-28T13:46:27.19Z</time></trkpt><trkpt lat="43.3577339" lon="11.4123245"><ele>242.0</ele><time>2026-03-28T13:46:28.19Z</time></trkpt><trkpt lat="43.3578369" lon="11.4123591"><ele>242.0</ele><time>2026-03-28T13:46:29.19Z</time></trkpt><trkpt lat="43.3579442" lon="11.4123996"><ele>242.0</ele><time>2026-03-28T13:46:30.19Z</time></trkpt><trkpt lat="43.358061" lon="11.4124388"><ele>242.0</ele><time>2026-03-28T13:46:31.19Z</time></trkpt><trkpt lat="43.3581729" lon="11.4124525"><ele>243.25</ele><time>2026-03-28T13:46:32.191Z</time></trkpt><trkpt lat="43.3582963" lon="11.4124561"><ele>244.5</ele><time>2026-03-28T13:46:33.19Z</time></trkpt><trkpt lat="43.3584202" lon="11.4124488"><ele>245.75</ele><time>2026-03-28T13:46:34.19Z</time></trkpt><trkpt lat="43.3585387" lon="11.4124378"><ele>247.0</ele><time>2026-03-28T13:46:35.191Z</time></trkpt><trkpt lat="43.3586487" lon="11.4124137"><ele>247.0</ele><time>2026-03-28T13:46:36.19Z</time></trkpt><trkpt lat="43.3587521" lon="11.4123739"><ele>247.0</ele><time>2026-03-28T13:46:37.19Z</time></trkpt><trkpt lat="43.3588429" lon="11.41232"><ele>247.0</ele><time>2026-03-28T13:46:38.191Z</time></trkpt><trkpt lat="43.3589115" lon="11.4122575"><ele>247.0</ele><time>2026-03-28T13:46:39.19Z</time></trkpt><trkpt lat="43.3589753" lon="11.4121915"><ele>247.0</ele><time>2026-03-28T13:46:40.19Z</time></trkpt><trkpt lat="43.3590236" lon="11.4120717"><ele>249.2</ele><time>2026-03-28T13:46:41.19Z</time></trkpt><trkpt lat="43.3590149" lon="11.4119424"><ele>251.39999999999998</ele><time>2026-03-28T13:46:42.19Z</time></trkpt><trkpt lat="43.3590104" lon="11.4118018"><ele>253.60000000000002</ele><time>2026-03-28T13:46:43.19Z</time></trkpt><trkpt lat="43.3589995" lon="11.4116544"><ele>255.8</ele><time>2026-03-28T13:46:44.19Z</time></trkpt><trkpt lat="43.3589994" lon="11.4115155"><ele>258.0</ele><time>2026-03-28T13:46:45.19Z</time></trkpt><trkpt lat="43.3590089" lon="11.4113799"><ele>259.0</ele><time>2026-03-28T13:46:46.19Z</time></trkpt><trkpt lat="43.3590362" lon="11.411252"><ele>260.0</ele><time>2026-03-28T13:46:47.19Z</time></trkpt><trkpt lat="43.3590751" lon="11.4111355"><ele>261.0</ele><time>2026-03-28T13:46:48.19Z</time></trkpt><trkpt lat="43.3591239" lon="11.4110399"><ele>262.0</ele><time>2026-03-28T13:46:49.191Z</time></trkpt><trkpt lat="43.3591831" lon="11.4109726"><ele>263.0</ele><time>2026-03-28T13:46:50.19Z</time></trkpt><trkpt lat="43.3592627" lon="11.4109478"><ele>264.0</ele><time>2026-03-28T13:46:51.191Z</time></trkpt><trkpt lat="43.35934" lon="11.4109612"><ele>264.0</ele><time>2026-03-28T13:46:52.19Z</time></trkpt><trkpt lat="43.3594064" lon="11.4110114"><ele>264.0</ele><time>2026-03-28T13:46:53.191Z</time></trkpt><trkpt lat="43.359466" lon="11.4110919"><ele>264.0</ele><time>2026-03-28T13:46:54.19Z</time></trkpt><trkpt lat="43.3595121" lon="11.4111969"><ele>264.0</ele><time>2026-03-28T13:46:55.191Z</time></trkpt><trkpt lat="43.359549" lon="11.4113197"><ele>264.0</ele><time>2026-03-28T13:46:56.191Z</time></trkpt><trkpt lat="43.3595816" lon="11.4114513"><ele>264.0</ele><time>2026-03-28T13:46:57.19Z</time></trkpt><trkpt lat="43.3596074" lon="11.4115889"><ele>263.0</ele><time>2026-03-28T13:46:58.19Z</time></trkpt><trkpt lat="43.3596361" lon="11.4117322"><ele>262.0</ele><time>2026-03-28T13:46:59.19Z</time></trkpt><trkpt lat="43.3596757" lon="11.4118578"><ele>261.0</ele><time>2026-03-28T13:47:00.19Z</time></trkpt><trkpt lat="43.3597255" lon="11.4119591"><ele>260.0</ele><time>2026-03-28T13:47:01.19Z</time></trkpt><trkpt lat="43.3597876" lon="11.41203"><ele>259.0</ele><time>2026-03-28T13:47:02.191Z</time></trkpt><trkpt lat="43.3598552" lon="11.4120586"><ele>258.0</ele><time>2026-03-28T13:47:03.19Z</time></trkpt><trkpt lat="43.3599559" lon="11.4119952"><ele>260.0</ele><time>2026-03-28T13:47:05.191Z</time></trkpt><trkpt lat="43.3599762" lon="11.4119111"><ele>262.0</ele><time>2026-03-28T13:47:06.189Z</time></trkpt><trkpt lat="43.3599725" lon="11.4118082"><ele>264.0</ele><time>2026-03-28T13:47:07.19Z</time></trkpt><trkpt lat="43.359965" lon="11.4116949"><ele>266.0</ele><time>2026-03-28T13:47:08.191Z</time></trkpt><trkpt lat="43.3599515" lon="11.4115564"><ele>268.0</ele><time>2026-03-28T13:47:09.19Z</time></trkpt><trkpt lat="43.3599572" lon="11.411414"><ele>270.0</ele><time>2026-03-28T13:47:10.191Z</time></trkpt><trkpt lat="43.3599916" lon="11.4112893"><ele>270.0</ele><time>2026-03-28T13:47:11.19Z</time></trkpt><trkpt lat="43.3600453" lon="11.4111773"><ele>270.0</ele><time>2026-03-28T13:47:12.191Z</time></trkpt><trkpt lat="43.3601224" lon="11.4110763"><ele>270.0</ele><time>2026-03-28T13:47:13.191Z</time></trkpt><trkpt lat="43.3602161" lon="11.4109997"><ele>270.0</ele><time>2026-03-28T13:47:14.191Z</time></trkpt><trkpt lat="43.3603202" lon="11.4109349"><ele>270.0</ele><time>2026-03-28T13:47:15.19Z</time></trkpt><trkpt lat="43.3604328" lon="11.4108852"><ele>271.6</ele><time>2026-03-28T13:47:16.191Z</time></trkpt><trkpt lat="43.3605467" lon="11.4108367"><ele>273.2</ele><time>2026-03-28T13:47:17.191Z</time></trkpt><trkpt lat="43.3606524" lon="11.4107802"><ele>274.8</ele><time>2026-03-28T13:47:18.19Z</time></trkpt><trkpt lat="43.3607372" lon="11.4107101"><ele>276.4</ele><time>2026-03-28T13:47:19.191Z</time></trkpt><trkpt lat="43.3608025" lon="11.410617"><ele>278.0</ele><time>2026-03-28T13:47:20.19Z</time></trkpt><trkpt lat="43.3608505" lon="11.4105012"><ele>278.6</ele><time>2026-03-28T13:47:21.19Z</time></trkpt><trkpt lat="43.3608789" lon="11.4103627"><ele>279.20000000000005</ele><time>2026-03-28T13:47:22.191Z</time></trkpt><trkpt lat="43.3608834" lon="11.4102151"><ele>279.8</ele><time>2026-03-28T13:47:23.191Z</time></trkpt><trkpt lat="43.3608641" lon="11.4100677"><ele>280.40000000000003</ele><time>2026-03-28T13:47:24.19Z</time></trkpt><trkpt lat="43.3608217" lon="11.4099214"><ele>281.0</ele><time>2026-03-28T13:47:25.191Z</time></trkpt><trkpt lat="43.3607654" lon="11.4097677"><ele>280.75</ele><time>2026-03-28T13:47:26.191Z</time></trkpt><trkpt lat="43.3607031" lon="11.4096023"><ele>280.5</ele><time>2026-03-28T13:47:27.19Z</time></trkpt><trkpt lat="43.360633" lon="11.4094332"><ele>280.25</ele><time>2026-03-28T13:47:28.191Z</time></trkpt><trkpt lat="43.3605587" lon="11.4092814"><ele>280.0</ele><time>2026-03-28T13:47:29.19Z</time></trkpt><trkpt lat="43.3604765" lon="11.4091335"><ele>280.0</ele><time>2026-03-28T13:47:30.191Z</time></trkpt><trkpt lat="43.3603902" lon="11.4089944"><ele>280.0</ele><time>2026-03-28T13:47:31.19Z</time></trkpt><trkpt lat="43.3602899" lon="11.4088721"><ele>280.0</ele><time>2026-03-28T13:47:32.19Z</time></trkpt><trkpt lat="43.3601773" lon="11.4087657"><ele>280.0</ele><time>2026-03-28T13:47:33.19Z</time></trkpt><trkpt lat="43.3600604" lon="11.4086648"><ele>282.25</ele><time>2026-03-28T13:47:34.191Z</time></trkpt><trkpt lat="43.3599393" lon="11.4085674"><ele>284.5</ele><time>2026-03-28T13:47:35.19Z</time></trkpt><trkpt lat="43.3598197" lon="11.4084784"><ele>286.75</ele><time>2026-03-28T13:47:36.19Z</time></trkpt><trkpt lat="43.3597031" lon="11.4083957"><ele>289.0</ele><time>2026-03-28T13:47:37.19Z</time></trkpt><trkpt lat="43.3596112" lon="11.4083054"><ele>289.0</ele><time>2026-03-28T13:47:38.19Z</time></trkpt><trkpt lat="43.3595404" lon="11.4081932"><ele>289.0</ele><time>2026-03-28T13:47:39.191Z</time></trkpt><trkpt lat="43.3595015" lon="11.4080695"><ele>289.0</ele><time>2026-03-28T13:47:40.191Z</time></trkpt><trkpt lat="43.3594898" lon="11.4079332"><ele>289.0</ele><time>2026-03-28T13:47:41.19Z</time></trkpt><trkpt lat="43.359506" lon="11.4078037"><ele>289.0</ele><time>2026-03-28T13:47:42.19Z</time></trkpt><trkpt lat="43.3595477" lon="11.4076866"><ele>290.2</ele><time>2026-03-28T13:47:43.19Z</time></trkpt><trkpt lat="43.3596123" lon="11.4075895"><ele>291.4</ele><time>2026-03-28T13:47:44.19Z</time></trkpt><trkpt lat="43.3596924" lon="11.4075075"><ele>292.6</ele><time>2026-03-28T13:47:45.191Z</time></trkpt><trkpt lat="43.3597844" lon="11.4074498"><ele>293.8</ele><time>2026-03-28T13:47:46.19Z</time></trkpt><trkpt lat="43.3598783" lon="11.4074286"><ele>295.0</ele><time>2026-03-28T13:47:47.191Z</time></trkpt><trkpt lat="43.3599797" lon="11.407438"><ele>295.0</ele><time>2026-03-28T13:47:48.191Z</time></trkpt><trkpt lat="43.360088" lon="11.4074613"><ele>295.0</ele><time>2026-03-28T13:47:49.191Z</time></trkpt><trkpt lat="43.3601988" lon="11.4074912"><ele>295.0</ele><time>2026-03-28T13:47:50.19Z</time></trkpt><trkpt lat="43.3603097" lon="11.4075185"><ele>295.0</ele><time>2026-03-28T13:47:51.19Z</time></trkpt><trkpt lat="43.3604301" lon="11.4075461"><ele>295.75</ele><time>2026-03-28T13:47:52.191Z</time></trkpt><trkpt lat="43.3605528" lon="11.4075684"><ele>296.5</ele><time>2026-03-28T13:47:53.19Z</time></trkpt><trkpt lat="43.3606783" lon="11.4075847"><ele>297.25</ele><time>2026-03-28T13:47:54.19Z</time></trkpt><trkpt lat="43.3608042" lon="11.4075971"><ele>298.0</ele><time>2026-03-28T13:47:55.19Z</time></trkpt><trkpt lat="43.360936" lon="11.4076006"><ele>298.0</ele><time>2026-03-28T13:47:56.191Z</time></trkpt><trkpt lat="43.361068" lon="11.4075914"><ele>298.0</ele><time>2026-03-28T13:47:57.191Z</time></trkpt><trkpt lat="43.3612012" lon="11.4075786"><ele>298.0</ele><time>2026-03-28T13:47:58.19Z</time></trkpt><trkpt lat="43.3613371" lon="11.4075598"><ele>298.0</ele><time>2026-03-28T13:47:59.191Z</time></trkpt><trkpt lat="43.3614704" lon="11.4075312"><ele>300.0</ele><time>2026-03-28T13:48:00.19Z</time></trkpt><trkpt lat="43.3616019" lon="11.4075005"><ele>302.0</ele><time>2026-03-28T13:48:01.191Z</time></trkpt><trkpt lat="43.3617309" lon="11.4074661"><ele>304.0</ele><time>2026-03-28T13:48:02.191Z</time></trkpt><trkpt lat="43.3618597" lon="11.4074272"><ele>306.0</ele><time>2026-03-28T13:48:03.191Z</time></trkpt><trkpt lat="43.3619929" lon="11.4073896"><ele>306.0</ele><time>2026-03-28T13:48:04.19Z</time></trkpt><trkpt lat="43.3621215" lon="11.4073484"><ele>306.0</ele><time>2026-03-28T13:48:05.191Z</time></trkpt><trkpt lat="43.3622557" lon="11.4073002"><ele>306.0</ele><time>2026-03-28T13:48:06.191Z</time></trkpt><trkpt lat="43.3623857" lon="11.4072561"><ele>306.0</ele><time>2026-03-28T13:48:07.19Z</time></trkpt><trkpt lat="43.3625277" lon="11.4072055"><ele>307.6666666666667</ele><time>2026-03-28T13:48:08.191Z</time></trkpt><trkpt lat="43.3626798" lon="11.4071446"><ele>309.33333333333337</ele><time>2026-03-28T13:48:09.191Z</time></trkpt><trkpt lat="43.3628381" lon="11.4070713"><ele>311.0</ele><time>2026-03-28T13:48:10.19Z</time></trkpt><trkpt lat="43.362999" lon="11.4069883"><ele>313.6666666666667</ele><time>2026-03-28T13:48:11.19Z</time></trkpt><trkpt lat="43.3631457" lon="11.4069027"><ele>316.3333333333333</ele><time>2026-03-28T13:48:12.19Z</time></trkpt><trkpt lat="43.3632909" lon="11.4068146"><ele>319.0</ele><time>2026-03-28T13:48:13.191Z</time></trkpt><trkpt lat="43.3634375" lon="11.4067238"><ele>319.0</ele><time>2026-03-28T13:48:14.19Z</time></trkpt><trkpt lat="43.3635804" lon="11.4066371"><ele>319.0</ele><time>2026-03-28T13:48:15.191Z</time></trkpt><trkpt lat="43.3637194" lon="11.4065471"><ele>319.0</ele><time>2026-03-28T13:48:16.191Z</time></trkpt><trkpt lat="43.363856" lon="11.4064495"><ele>321.25</ele><time>2026-03-28T13:48:17.191Z</time></trkpt><trkpt lat="43.3639903" lon="11.4063554"><ele>323.5</ele><time>2026-03-28T13:48:18.19Z</time></trkpt><trkpt lat="43.3641243" lon="11.4062669"><ele>325.75</ele><time>2026-03-28T13:48:19.19Z</time></trkpt><trkpt lat="43.3642551" lon="11.4061777"><ele>328.0</ele><time>2026-03-28T13:48:20.191Z</time></trkpt><trkpt lat="43.3643824" lon="11.4060927"><ele>328.2</ele><time>2026-03-28T13:48:21.19Z</time></trkpt><trkpt lat="43.3644976" lon="11.4060481"><ele>328.4</ele><time>2026-03-28T13:48:22.19Z</time></trkpt><trkpt lat="43.3645948" lon="11.4060455"><ele>328.59999999999997</ele><time>2026-03-28T13:48:23.19Z</time></trkpt><trkpt lat="43.3646795" lon="11.4060815"><ele>328.79999999999995</ele><time>2026-03-28T13:48:24.191Z</time></trkpt><trkpt lat="43.3647567" lon="11.4061516"><ele>329.0</ele><time>2026-03-28T13:48:25.19Z</time></trkpt><trkpt lat="43.3648162" lon="11.4062379"><ele>331.0</ele><time>2026-03-28T13:48:26.191Z</time></trkpt><trkpt lat="43.3648819" lon="11.4063341"><ele>333.0</ele><time>2026-03-28T13:48:27.191Z</time></trkpt><trkpt lat="43.3649642" lon="11.4064164"><ele>335.0</ele><time>2026-03-28T13:48:28.19Z</time></trkpt><trkpt lat="43.3650512" lon="11.4064698"><ele>337.0</ele><time>2026-03-28T13:48:29.191Z</time></trkpt><trkpt lat="43.3651443" lon="11.4064863"><ele>339.0</ele><time>2026-03-28T13:48:30.19Z</time></trkpt><trkpt lat="43.3652466" lon="11.4064692"><ele>339.0</ele><time>2026-03-28T13:48:31.191Z</time></trkpt><trkpt lat="43.3653528" lon="11.4064377"><ele>339.0</ele><time>2026-03-28T13:48:32.19Z</time></trkpt><trkpt lat="43.365468" lon="11.4063964"><ele>339.0</ele><time>2026-03-28T13:48:33.191Z</time></trkpt><trkpt lat="43.3655936" lon="11.4063492"><ele>339.0</ele><time>2026-03-28T13:48:34.191Z</time></trkpt><trkpt lat="43.3657142" lon="11.4062998"><ele>340.0</ele><time>2026-03-28T13:48:35.191Z</time></trkpt><trkpt lat="43.3658118" lon="11.4062478"><ele>341.0</ele><time>2026-03-28T13:48:36.19Z</time></trkpt><trkpt lat="43.3658962" lon="11.4061704"><ele>342.0</ele><time>2026-03-28T13:48:37.19Z</time></trkpt><trkpt lat="43.3659771" lon="11.4060603"><ele>343.0</ele><time>2026-03-28T13:48:38.191Z</time></trkpt><trkpt lat="43.366046" lon="11.4059231"><ele>344.0</ele><time>2026-03-28T13:48:39.191Z</time></trkpt><trkpt lat="43.3661106" lon="11.4057645"><ele>344.0</ele><time>2026-03-28T13:48:40.19Z</time></trkpt><trkpt lat="43.3661803" lon="11.405591"><ele>344.0</ele><time>2026-03-28T13:48:41.191Z</time></trkpt><trkpt lat="43.366252" lon="11.4054111"><ele>344.0</ele><time>2026-03-28T13:48:42.19Z</time></trkpt><trkpt lat="43.3663255" lon="11.405228"><ele>344.0</ele><time>2026-03-28T13:48:43.19Z</time></trkpt><trkpt lat="43.3663908" lon="11.4050558"><ele>344.0</ele><time>2026-03-28T13:48:44.19Z</time></trkpt><trkpt lat="43.3664625" lon="11.4048858"><ele>344.0</ele><time>2026-03-28T13:48:45.19Z</time></trkpt><trkpt lat="43.366554" lon="11.4047318"><ele>344.0</ele><time>2026-03-28T13:48:46.19Z</time></trkpt><trkpt lat="43.3666626" lon="11.404588"><ele>344.0</ele><time>2026-03-28T13:48:47.19Z</time></trkpt><trkpt lat="43.3667902" lon="11.4044614"><ele>345.6666666666667</ele><time>2026-03-28T13:48:48.19Z</time></trkpt><trkpt lat="43.3669267" lon="11.4043704"><ele>347.3333333333333</ele><time>2026-03-28T13:48:49.19Z</time></trkpt><trkpt lat="43.367069" lon="11.4043224"><ele>349.0</ele><time>2026-03-28T13:48:50.191Z</time></trkpt><trkpt lat="43.3672201" lon="11.4043041"><ele>349.0</ele><time>2026-03-28T13:48:51.19Z</time></trkpt><trkpt lat="43.3673753" lon="11.404312"><ele>349.0</ele><time>2026-03-28T13:48:52.19Z</time></trkpt><trkpt lat="43.3675332" lon="11.404335"><ele>349.0</ele><time>2026-03-28T13:48:53.19Z</time></trkpt><trkpt lat="43.3676927" lon="11.4043568"><ele>349.0</ele><time>2026-03-28T13:48:54.191Z</time></trkpt><trkpt lat="43.3678499" lon="11.4043866"><ele>349.0</ele><time>2026-03-28T13:48:55.19Z</time></trkpt><trkpt lat="43.3680086" lon="11.4044158"><ele>349.0</ele><time>2026-03-28T13:48:56.191Z</time></trkpt><trkpt lat="43.3681672" lon="11.4044411"><ele>350.0</ele><time>2026-03-28T13:48:57.19Z</time></trkpt><trkpt lat="43.3683253" lon="11.4044694"><ele>351.0</ele><time>2026-03-28T13:48:58.19Z</time></trkpt><trkpt lat="43.3684853" lon="11.404497"><ele>352.0</ele><time>2026-03-28T13:48:59.19Z</time></trkpt><trkpt lat="43.3686457" lon="11.4045176"><ele>352.0</ele><time>2026-03-28T13:49:00.19Z</time></trkpt><trkpt lat="43.3688018" lon="11.4045268"><ele>352.0</ele><time>2026-03-28T13:49:01.19Z</time></trkpt><trkpt lat="43.3689583" lon="11.4045242"><ele>352.0</ele><time>2026-03-28T13:49:02.19Z</time></trkpt><trkpt lat="43.3691156" lon="11.4045166"><ele>353.0</ele><time>2026-03-28T13:49:03.19Z</time></trkpt><trkpt lat="43.3692746" lon="11.4045078"><ele>354.0</ele><time>2026-03-28T13:49:04.191Z</time></trkpt><trkpt lat="43.3694359" lon="11.4045022"><ele>355.0</ele><time>2026-03-28T13:49:05.191Z</time></trkpt><trkpt lat="43.369603" lon="11.404507"><ele>357.0</ele><time>2026-03-28T13:49:06.19Z</time></trkpt><trkpt lat="43.369759" lon="11.4045173"><ele>359.0</ele><time>2026-03-28T13:49:07.19Z</time></trkpt><trkpt lat="43.3699135" lon="11.4045246"><ele>361.0</ele><time>2026-03-28T13:49:08.191Z</time></trkpt><trkpt lat="43.3700659" lon="11.4045287"><ele>361.0</ele><time>2026-03-28T13:49:09.19Z</time></trkpt><trkpt lat="43.370219" lon="11.4045372"><ele>361.0</ele><time>2026-03-28T13:49:10.191Z</time></trkpt><trkpt lat="43.3703705" lon="11.4045397"><ele>361.0</ele><time>2026-03-28T13:49:11.191Z</time></trkpt><trkpt lat="43.3705099" lon="11.4045336"><ele>361.0</ele><time>2026-03-28T13:49:12.191Z</time></trkpt><trkpt lat="43.3706372" lon="11.4045049"><ele>362.25</ele><time>2026-03-28T13:49:13.19Z</time></trkpt><trkpt lat="43.3707639" lon="11.4044534"><ele>363.5</ele><time>2026-03-28T13:49:14.19Z</time></trkpt><trkpt lat="43.3708702" lon="11.4043843"><ele>364.75</ele><time>2026-03-28T13:49:15.19Z</time></trkpt><trkpt lat="43.3709656" lon="11.4042794"><ele>366.0</ele><time>2026-03-28T13:49:16.191Z</time></trkpt><trkpt lat="43.3710516" lon="11.4041467"><ele>366.0</ele><time>2026-03-28T13:49:17.191Z</time></trkpt><trkpt lat="43.3711236" lon="11.4039945"><ele>366.0</ele><time>2026-03-28T13:49:18.19Z</time></trkpt><trkpt lat="43.3711929" lon="11.4038268"><ele>366.0</ele><time>2026-03-28T13:49:19.191Z</time></trkpt><trkpt lat="43.3712661" lon="11.403654"><ele>366.0</ele><time>2026-03-28T13:49:20.19Z</time></trkpt><trkpt lat="43.3713402" lon="11.4034785"><ele>368.0</ele><time>2026-03-28T13:49:21.19Z</time></trkpt><trkpt lat="43.3714141" lon="11.4032986"><ele>370.0</ele><time>2026-03-28T13:49:22.19Z</time></trkpt><trkpt lat="43.3714926" lon="11.4031143"><ele>372.0</ele><time>2026-03-28T13:49:23.19Z</time></trkpt><trkpt lat="43.3715739" lon="11.4029304"><ele>373.75</ele><time>2026-03-28T13:49:24.19Z</time></trkpt><trkpt lat="43.371649" lon="11.4027532"><ele>375.5</ele><time>2026-03-28T13:49:25.19Z</time></trkpt><trkpt lat="43.3717187" lon="11.4025871"><ele>377.25</ele><time>2026-03-28T13:49:26.19Z</time></trkpt><trkpt lat="43.3717852" lon="11.4024312"><ele>379.0</ele><time>2026-03-28T13:49:27.19Z</time></trkpt><trkpt lat="43.3718317" lon="11.4022618"><ele>379.5</ele><time>2026-03-28T13:49:28.19Z</time></trkpt><trkpt lat="43.3718528" lon="11.4020849"><ele>380.0</ele><time>2026-03-28T13:49:29.19Z</time></trkpt><trkpt lat="43.371871" lon="11.4019137"><ele>380.5</ele><time>2026-03-28T13:49:30.19Z</time></trkpt><trkpt lat="43.3719184" lon="11.4017634"><ele>381.0</ele><time>2026-03-28T13:49:31.19Z</time></trkpt><trkpt lat="43.3719842" lon="11.4016295"><ele>381.0</ele><time>2026-03-28T13:49:32.191Z</time></trkpt><trkpt lat="43.3720727" lon="11.4015066"><ele>381.0</ele><time>2026-03-28T13:49:33.19Z</time></trkpt><trkpt lat="43.3721755" lon="11.4013946"><ele>381.0</ele><time>2026-03-28T13:49:34.191Z</time></trkpt><trkpt lat="43.372285" lon="11.4012821"><ele>381.0</ele><time>2026-03-28T13:49:35.19Z</time></trkpt><trkpt lat="43.3723819" lon="11.4011764"><ele>382.25</ele><time>2026-03-28T13:49:36.191Z</time></trkpt><trkpt lat="43.3724752" lon="11.4010825"><ele>383.5</ele><time>2026-03-28T13:49:37.19Z</time></trkpt><trkpt lat="43.3725668" lon="11.4009907"><ele>384.75</ele><time>2026-03-28T13:49:38.191Z</time></trkpt><trkpt lat="43.3726569" lon="11.40089"><ele>386.0</ele><time>2026-03-28T13:49:39.19Z</time></trkpt><trkpt lat="43.3727532" lon="11.4007827"><ele>386.0</ele><time>2026-03-28T13:49:40.19Z</time></trkpt><trkpt lat="43.3728541" lon="11.4006659"><ele>386.0</ele><time>2026-03-28T13:49:41.19Z</time></trkpt><trkpt lat="43.3729594" lon="11.4005497"><ele>386.0</ele><time>2026-03-28T13:49:42.191Z</time></trkpt><trkpt lat="43.3730721" lon="11.4004322"><ele>386.0</ele><time>2026-03-28T13:49:43.19Z</time></trkpt><trkpt lat="43.3731931" lon="11.4003226"><ele>385.25</ele><time>2026-03-28T13:49:44.191Z</time></trkpt><trkpt lat="43.3733237" lon="11.4002317"><ele>384.5</ele><time>2026-03-28T13:49:45.191Z</time></trkpt><trkpt lat="43.3734616" lon="11.4001673"><ele>383.75</ele><time>2026-03-28T13:49:46.191Z</time></trkpt><trkpt lat="43.373603" lon="11.4001086"><ele>383.0</ele><time>2026-03-28T13:49:47.19Z</time></trkpt><trkpt lat="43.3737436" lon="11.4000462"><ele>383.0</ele><time>2026-03-28T13:49:48.19Z</time></trkpt><trkpt lat="43.3738838" lon="11.3999813"><ele>383.0</ele><time>2026-03-28T13:49:49.19Z</time></trkpt><trkpt lat="43.3740194" lon="11.3999122"><ele>383.0</ele><time>2026-03-28T13:49:50.19Z</time></trkpt><trkpt lat="43.3741484" lon="11.3998272"><ele>383.0</ele><time>2026-03-28T13:49:51.19Z</time></trkpt><trkpt lat="43.3742754" lon="11.3997295"><ele>383.6666666666667</ele><time>2026-03-28T13:49:52.19Z</time></trkpt><trkpt lat="43.3744002" lon="11.3996159"><ele>384.33333333333337</ele><time>2026-03-28T13:49:53.191Z</time></trkpt><trkpt lat="43.374521" lon="11.3994923"><ele>385.0</ele><time>2026-03-28T13:49:54.191Z</time></trkpt><trkpt lat="43.3746415" lon="11.3993613"><ele>384.0</ele><time>2026-03-28T13:49:55.19Z</time></trkpt><trkpt lat="43.3747641" lon="11.3992307"><ele>383.0</ele><time>2026-03-28T13:49:56.19Z</time></trkpt><trkpt lat="43.3748864" lon="11.3990982"><ele>382.0</ele><time>2026-03-28T13:49:57.191Z</time></trkpt><trkpt lat="43.3750077" lon="11.3989654"><ele>382.3333333333333</ele><time>2026-03-28T13:49:58.191Z</time></trkpt><trkpt lat="43.3751319" lon="11.3988328"><ele>382.6666666666667</ele><time>2026-03-28T13:49:59.19Z</time></trkpt><trkpt lat="43.375262" lon="11.3987089"><ele>383.0</ele><time>2026-03-28T13:50:00.191Z</time></trkpt><trkpt lat="43.3753983" lon="11.3985968"><ele>383.0</ele><time>2026-03-28T13:50:01.191Z</time></trkpt><trkpt lat="43.3755439" lon="11.3985061"><ele>383.0</ele><time>2026-03-28T13:50:02.19Z</time></trkpt><trkpt lat="43.3756928" lon="11.3984363"><ele>383.0</ele><time>2026-03-28T13:50:03.19Z</time></trkpt><trkpt lat="43.3758448" lon="11.3983731"><ele>383.0</ele><time>2026-03-28T13:50:04.19Z</time></trkpt><trkpt lat="43.3759998" lon="11.3983107"><ele>383.0</ele><time>2026-03-28T13:50:05.19Z</time></trkpt><trkpt lat="43.376152" lon="11.3982491"><ele>383.0</ele><time>2026-03-28T13:50:06.19Z</time></trkpt><trkpt lat="43.3763024" lon="11.3981932"><ele>382.33333333333337</ele><time>2026-03-28T13:50:07.19Z</time></trkpt><trkpt lat="43.3764579" lon="11.3981325"><ele>381.6666666666667</ele><time>2026-03-28T13:50:08.19Z</time></trkpt><trkpt lat="43.3766152" lon="11.3980414"><ele>381.0</ele><time>2026-03-28T13:50:09.19Z</time></trkpt><trkpt lat="43.3767621" lon="11.3979179"><ele>383.0</ele><time>2026-03-28T13:50:10.191Z</time></trkpt><trkpt lat="43.3768951" lon="11.3977821"><ele>385.0</ele><time>2026-03-28T13:50:11.19Z</time></trkpt><trkpt lat="43.3770198" lon="11.3976523"><ele>387.0</ele><time>2026-03-28T13:50:12.191Z</time></trkpt><trkpt lat="43.3771435" lon="11.3975365"><ele>386.75</ele><time>2026-03-28T13:50:13.191Z</time></trkpt><trkpt lat="43.3772629" lon="11.3974276"><ele>386.5</ele><time>2026-03-28T13:50:14.191Z</time></trkpt><trkpt lat="43.3773818" lon="11.3973281"><ele>386.25</ele><time>2026-03-28T13:50:15.19Z</time></trkpt><trkpt lat="43.3775002" lon="11.3972525"><ele>386.0</ele><time>2026-03-28T13:50:16.19Z</time></trkpt><trkpt lat="43.3776319" lon="11.3971953"><ele>386.75</ele><time>2026-03-28T13:50:17.191Z</time></trkpt><trkpt lat="43.3777709" lon="11.3971667"><ele>387.5</ele><time>2026-03-28T13:50:18.191Z</time></trkpt><trkpt lat="43.377916" lon="11.3971443"><ele>388.25</ele><time>2026-03-28T13:50:19.19Z</time></trkpt><trkpt lat="43.3780634" lon="11.397107"><ele>389.0</ele><time>2026-03-28T13:50:20.19Z</time></trkpt><trkpt lat="43.3782116" lon="11.3970574"><ele>390.25</ele><time>2026-03-28T13:50:21.19Z</time></trkpt><trkpt lat="43.3783419" lon="11.397019"><ele>391.5</ele><time>2026-03-28T13:50:22.189Z</time></trkpt><trkpt lat="43.3784705" lon="11.3969786"><ele>392.75</ele><time>2026-03-28T13:50:23.19Z</time></trkpt><trkpt lat="43.3786086" lon="11.3969295"><ele>394.0</ele><time>2026-03-28T13:50:24.189Z</time></trkpt><trkpt lat="43.3787533" lon="11.3968811"><ele>395.5</ele><time>2026-03-28T13:50:25.19Z</time></trkpt><trkpt lat="43.378891" lon="11.3968305"><ele>397.0</ele><time>2026-03-28T13:50:26.19Z</time></trkpt><trkpt lat="43.3790362" lon="11.3967809"><ele>398.5</ele><time>2026-03-28T13:50:27.19Z</time></trkpt><trkpt lat="43.3791876" lon="11.3967348"><ele>400.0</ele><time>2026-03-28T13:50:28.191Z</time></trkpt><trkpt lat="43.3793251" lon="11.3966943"><ele>400.0</ele><time>2026-03-28T13:50:29.19Z</time></trkpt><trkpt lat="43.3794566" lon="11.3966532"><ele>400.0</ele><time>2026-03-28T13:50:30.191Z</time></trkpt><trkpt lat="43.3796035" lon="11.3966123"><ele>400.0</ele><time>2026-03-28T13:50:31.191Z</time></trkpt><trkpt lat="43.3797447" lon="11.3965753"><ele>400.0</ele><time>2026-03-28T13:50:32.191Z</time></trkpt><trkpt lat="43.3798866" lon="11.3965387"><ele>401.0</ele><time>2026-03-28T13:50:33.191Z</time></trkpt><trkpt lat="43.3800296" lon="11.3965028"><ele>402.0</ele><time>2026-03-28T13:50:34.19Z</time></trkpt><trkpt lat="43.3801733" lon="11.3964683"><ele>403.0</ele><time>2026-03-28T13:50:35.19Z</time></trkpt><trkpt lat="43.3803174" lon="11.3964307"><ele>404.0</ele><time>2026-03-28T13:50:36.19Z</time></trkpt><trkpt lat="43.3804624" lon="11.396394"><ele>404.25</ele><time>2026-03-28T13:50:37.191Z</time></trkpt><trkpt lat="43.380609" lon="11.396361"><ele>404.5</ele><time>2026-03-28T13:50:38.191Z</time></trkpt><trkpt lat="43.3807564" lon="11.3963329"><ele>404.75</ele><time>2026-03-28T13:50:39.19Z</time></trkpt><trkpt lat="43.3809058" lon="11.3963145"><ele>405.0</ele><time>2026-03-28T13:50:40.19Z</time></trkpt><trkpt lat="43.3810556" lon="11.3963063"><ele>406.0</ele><time>2026-03-28T13:50:41.19Z</time></trkpt><trkpt lat="43.3812058" lon="11.3963068"><ele>407.0</ele><time>2026-03-28T13:50:42.191Z</time></trkpt><trkpt lat="43.381356" lon="11.3963028"><ele>408.0</ele><time>2026-03-28T13:50:43.19Z</time></trkpt><trkpt lat="43.3815066" lon="11.3962897"><ele>408.5</ele><time>2026-03-28T13:50:44.19Z</time></trkpt><trkpt lat="43.3816536" lon="11.3962698"><ele>409.0</ele><time>2026-03-28T13:50:45.19Z</time></trkpt><trkpt lat="43.3817905" lon="11.3962501"><ele>409.5</ele><time>2026-03-28T13:50:46.19Z</time></trkpt><trkpt lat="43.3819204" lon="11.3962321"><ele>410.0</ele><time>2026-03-28T13:50:47.191Z</time></trkpt><trkpt lat="43.3820509" lon="11.3962113"><ele>411.0</ele><time>2026-03-28T13:50:48.191Z</time></trkpt><trkpt lat="43.3821819" lon="11.396187"><ele>412.0</ele><time>2026-03-28T13:50:49.191Z</time></trkpt><trkpt lat="43.3823156" lon="11.3961568"><ele>413.0</ele><time>2026-03-28T13:50:50.191Z</time></trkpt><trkpt lat="43.3824517" lon="11.3961203"><ele>414.0</ele><time>2026-03-28T13:50:51.19Z</time></trkpt><trkpt lat="43.3825913" lon="11.3960817"><ele>414.0</ele><time>2026-03-28T13:50:52.191Z</time></trkpt><trkpt lat="43.3827315" lon="11.3960376"><ele>414.0</ele><time>2026-03-28T13:50:53.19Z</time></trkpt><trkpt lat="43.3828767" lon="11.3959947"><ele>414.0</ele><time>2026-03-28T13:50:54.19Z</time></trkpt><trkpt lat="43.3830239" lon="11.3959435"><ele>414.0</ele><time>2026-03-28T13:50:55.19Z</time></trkpt><trkpt lat="43.3831733" lon="11.3958876"><ele>415.33333333333337</ele><time>2026-03-28T13:50:56.191Z</time></trkpt><trkpt lat="43.3833199" lon="11.3958286"><ele>416.6666666666667</ele><time>2026-03-28T13:50:57.19Z</time></trkpt><trkpt lat="43.3834658" lon="11.3957719"><ele>418.0</ele><time>2026-03-28T13:50:58.191Z</time></trkpt><trkpt lat="43.3836126" lon="11.3957191"><ele>418.0</ele><time>2026-03-28T13:50:59.19Z</time></trkpt><trkpt lat="43.3837559" lon="11.3956636"><ele>418.0</ele><time>2026-03-28T13:51:00.19Z</time></trkpt><trkpt lat="43.3838979" lon="11.3956046"><ele>418.0</ele><time>2026-03-28T13:51:01.19Z</time></trkpt><trkpt lat="43.3840421" lon="11.3955452"><ele>418.0</ele><time>2026-03-28T13:51:02.19Z</time></trkpt><trkpt lat="43.384187" lon="11.3954905"><ele>417.5</ele><time>2026-03-28T13:51:03.189Z</time></trkpt><trkpt lat="43.3843291" lon="11.3954336"><ele>417.0</ele><time>2026-03-28T13:51:04.191Z</time></trkpt><trkpt lat="43.3844647" lon="11.3953657"><ele>416.5</ele><time>2026-03-28T13:51:05.191Z</time></trkpt><trkpt lat="43.3845911" lon="11.3952697"><ele>416.0</ele><time>2026-03-28T13:51:06.191Z</time></trkpt><trkpt lat="43.3847092" lon="11.3951487"><ele>418.3333333333333</ele><time>2026-03-28T13:51:07.19Z</time></trkpt><trkpt lat="43.3848182" lon="11.3950089"><ele>420.66666666666663</ele><time>2026-03-28T13:51:08.19Z</time></trkpt><trkpt lat="43.384925" lon="11.3948549"><ele>423.0</ele><time>2026-03-28T13:51:09.19Z</time></trkpt><trkpt lat="43.3850344" lon="11.3946953"><ele>423.66666666666663</ele><time>2026-03-28T13:51:10.19Z</time></trkpt><trkpt lat="43.3851423" lon="11.3945349"><ele>424.3333333333333</ele><time>2026-03-28T13:51:11.19Z</time></trkpt><trkpt lat="43.3852521" lon="11.3943738"><ele>425.0</ele><time>2026-03-28T13:51:12.19Z</time></trkpt><trkpt lat="43.3853608" lon="11.3942149"><ele>425.0</ele><time>2026-03-28T13:51:13.19Z</time></trkpt><trkpt lat="43.3854689" lon="11.3940517"><ele>425.0</ele><time>2026-03-28T13:51:14.191Z</time></trkpt><trkpt lat="43.3855793" lon="11.3938878"><ele>425.0</ele><time>2026-03-28T13:51:15.19Z</time></trkpt><trkpt lat="43.3856903" lon="11.393724"><ele>426.0</ele><time>2026-03-28T13:51:16.19Z</time></trkpt><trkpt lat="43.3857988" lon="11.3935624"><ele>427.0</ele><time>2026-03-28T13:51:17.19Z</time></trkpt><trkpt lat="43.3859102" lon="11.3934014"><ele>428.0</ele><time>2026-03-28T13:51:18.19Z</time></trkpt><trkpt lat="43.3860199" lon="11.3932381"><ele>428.0</ele><time>2026-03-28T13:51:19.19Z</time></trkpt><trkpt lat="43.386131" lon="11.3930727"><ele>428.0</ele><time>2026-03-28T13:51:20.19Z</time></trkpt><trkpt lat="43.3862446" lon="11.3929085"><ele>428.0</ele><time>2026-03-28T13:51:21.191Z</time></trkpt><trkpt lat="43.3863707" lon="11.392759"><ele>429.0</ele><time>2026-03-28T13:51:22.191Z</time></trkpt><trkpt lat="43.3865022" lon="11.3926266"><ele>430.0</ele><time>2026-03-28T13:51:23.19Z</time></trkpt><trkpt lat="43.3866362" lon="11.3924965"><ele>431.0</ele><time>2026-03-28T13:51:24.19Z</time></trkpt><trkpt lat="43.3867676" lon="11.3923619"><ele>431.0</ele><time>2026-03-28T13:51:25.19Z</time></trkpt><trkpt lat="43.3868938" lon="11.3922217"><ele>431.0</ele><time>2026-03-28T13:51:26.19Z</time></trkpt><trkpt lat="43.3870141" lon="11.3920689"><ele>431.0</ele><time>2026-03-28T13:51:27.19Z</time></trkpt><trkpt lat="43.3871275" lon="11.391905"><ele>432.0</ele><time>2026-03-28T13:51:28.19Z</time></trkpt><trkpt lat="43.3872398" lon="11.3917383"><ele>433.0</ele><time>2026-03-28T13:51:29.19Z</time></trkpt><trkpt lat="43.3873466" lon="11.391579"><ele>434.0</ele><time>2026-03-28T13:51:30.191Z</time></trkpt><trkpt lat="43.3874539" lon="11.3914134"><ele>434.5</ele><time>2026-03-28T13:51:31.19Z</time></trkpt><trkpt lat="43.3875494" lon="11.3912668"><ele>435.0</ele><time>2026-03-28T13:51:32.19Z</time></trkpt><trkpt lat="43.3876491" lon="11.3911153"><ele>435.5</ele><time>2026-03-28T13:51:33.19Z</time></trkpt><trkpt lat="43.387745" lon="11.3909754"><ele>436.0</ele><time>2026-03-28T13:51:34.191Z</time></trkpt><trkpt lat="43.3878341" lon="11.3908412"><ele>436.0</ele><time>2026-03-28T13:51:35.191Z</time></trkpt><trkpt lat="43.3879134" lon="11.3907148"><ele>436.0</ele><time>2026-03-28T13:51:36.19Z</time></trkpt><trkpt lat="43.3879838" lon="11.3905969"><ele>436.0</ele><time>2026-03-28T13:51:37.19Z</time></trkpt><trkpt lat="43.3880416" lon="11.390479"><ele>436.0</ele><time>2026-03-28T13:51:38.19Z</time></trkpt><trkpt lat="43.3880851" lon="11.3903277"><ele>434.0</ele><time>2026-03-28T13:51:39.191Z</time></trkpt><trkpt lat="43.3881175" lon="11.3901533"><ele>432.0</ele><time>2026-03-28T13:51:40.191Z</time></trkpt><trkpt lat="43.3881425" lon="11.3899861"><ele>430.0</ele><time>2026-03-28T13:51:41.19Z</time></trkpt><trkpt lat="43.3881738" lon="11.3898226"><ele>428.0</ele><time>2026-03-28T13:51:42.191Z</time></trkpt><trkpt lat="43.3882203" lon="11.3896547"><ele>427.75</ele><time>2026-03-28T13:51:43.19Z</time></trkpt><trkpt lat="43.388275" lon="11.3894822"><ele>427.5</ele><time>2026-03-28T13:51:44.191Z</time></trkpt><trkpt lat="43.3883427" lon="11.3893056"><ele>427.25</ele><time>2026-03-28T13:51:45.189Z</time></trkpt><trkpt lat="43.38842" lon="11.3891267"><ele>427.0</ele><time>2026-03-28T13:51:46.19Z</time></trkpt><trkpt lat="43.3885009" lon="11.3889472"><ele>427.6666666666667</ele><time>2026-03-28T13:51:47.191Z</time></trkpt><trkpt lat="43.388583" lon="11.3887678"><ele>428.33333333333337</ele><time>2026-03-28T13:51:48.19Z</time></trkpt><trkpt lat="43.3886619" lon="11.388589"><ele>429.0</ele><time>2026-03-28T13:51:49.191Z</time></trkpt><trkpt lat="43.3887407" lon="11.3884086"><ele>429.0</ele><time>2026-03-28T13:51:50.189Z</time></trkpt><trkpt lat="43.3888197" lon="11.3882303"><ele>429.0</ele><time>2026-03-28T13:51:51.19Z</time></trkpt><trkpt lat="43.3888991" lon="11.3880533"><ele>429.0</ele><time>2026-03-28T13:51:52.191Z</time></trkpt><trkpt lat="43.3889731" lon="11.3878769"><ele>428.0</ele><time>2026-03-28T13:51:53.189Z</time></trkpt><trkpt lat="43.3890441" lon="11.3876947"><ele>427.0</ele><time>2026-03-28T13:51:54.19Z</time></trkpt><trkpt lat="43.3891139" lon="11.3875144"><ele>426.0</ele><time>2026-03-28T13:51:55.19Z</time></trkpt><trkpt lat="43.3891949" lon="11.387341"><ele>425.0</ele><time>2026-03-28T13:51:56.19Z</time></trkpt><trkpt lat="43.3892844" lon="11.3871711"><ele>425.0</ele><time>2026-03-28T13:51:57.191Z</time></trkpt><trkpt lat="43.3893802" lon="11.3869891"><ele>425.0</ele><time>2026-03-28T13:51:58.19Z</time></trkpt><trkpt lat="43.3894715" lon="11.3867959"><ele>425.0</ele><time>2026-03-28T13:51:59.19Z</time></trkpt><trkpt lat="43.3895542" lon="11.3866119"><ele>425.0</ele><time>2026-03-28T13:52:00.19Z</time></trkpt><trkpt lat="43.3896353" lon="11.3864318"><ele>425.0</ele><time>2026-03-28T13:52:01.19Z</time></trkpt><trkpt lat="43.3897059" lon="11.3862535"><ele>425.0</ele><time>2026-03-28T13:52:02.19Z</time></trkpt><trkpt lat="43.3897634" lon="11.3860732"><ele>425.0</ele><time>2026-03-28T13:52:03.191Z</time></trkpt><trkpt lat="43.3898206" lon="11.3859083"><ele>424.5</ele><time>2026-03-28T13:52:04.19Z</time></trkpt><trkpt lat="43.3898867" lon="11.3857611"><ele>424.0</ele><time>2026-03-28T13:52:05.19Z</time></trkpt><trkpt lat="43.3899749" lon="11.3856594"><ele>423.5</ele><time>2026-03-28T13:52:06.19Z</time></trkpt><trkpt lat="43.3900954" lon="11.3855995"><ele>423.0</ele><time>2026-03-28T13:52:07.191Z</time></trkpt><trkpt lat="43.3902163" lon="11.3855107"><ele>423.0</ele><time>2026-03-28T13:52:08.19Z</time></trkpt><trkpt lat="43.3903529" lon="11.3854179"><ele>423.0</ele><time>2026-03-28T13:52:09.19Z</time></trkpt><trkpt lat="43.3904888" lon="11.3853259"><ele>423.0</ele><time>2026-03-28T13:52:10.19Z</time></trkpt><trkpt lat="43.3906335" lon="11.3852193"><ele>423.33333333333337</ele><time>2026-03-28T13:52:11.19Z</time></trkpt><trkpt lat="43.3907754" lon="11.3850992"><ele>423.6666666666667</ele><time>2026-03-28T13:52:12.19Z</time></trkpt><trkpt lat="43.3909205" lon="11.3849698"><ele>424.0</ele><time>2026-03-28T13:52:13.191Z</time></trkpt><trkpt lat="43.3910671" lon="11.384841"><ele>424.0</ele><time>2026-03-28T13:52:14.19Z</time></trkpt><trkpt lat="43.3912172" lon="11.3847126"><ele>424.0</ele><time>2026-03-28T13:52:15.191Z</time></trkpt><trkpt lat="43.391363" lon="11.3845876"><ele>424.0</ele><time>2026-03-28T13:52:16.19Z</time></trkpt><trkpt lat="43.3914916" lon="11.3844681"><ele>424.25</ele><time>2026-03-28T13:52:17.19Z</time></trkpt><trkpt lat="43.3916127" lon="11.3843523"><ele>424.5</ele><time>2026-03-28T13:52:18.19Z</time></trkpt><trkpt lat="43.3917184" lon="11.3842372"><ele>424.75</ele><time>2026-03-28T13:52:19.19Z</time></trkpt><trkpt lat="43.3918043" lon="11.3841123"><ele>425.0</ele><time>2026-03-28T13:52:20.19Z</time></trkpt><trkpt lat="43.3918764" lon="11.3839486"><ele>425.3333333333333</ele><time>2026-03-28T13:52:21.19Z</time></trkpt><trkpt lat="43.3919238" lon="11.3837502"><ele>425.66666666666663</ele><time>2026-03-28T13:52:22.191Z</time></trkpt><trkpt lat="43.3919612" lon="11.3835324"><ele>426.0</ele><time>2026-03-28T13:52:23.19Z</time></trkpt><trkpt lat="43.3919891" lon="11.3833301"><ele>426.0</ele><time>2026-03-28T13:52:24.19Z</time></trkpt><trkpt lat="43.3920277" lon="11.3831342"><ele>426.0</ele><time>2026-03-28T13:52:25.19Z</time></trkpt><trkpt lat="43.3920941" lon="11.3829443"><ele>426.0</ele><time>2026-03-28T13:52:26.19Z</time></trkpt><trkpt lat="43.3921677" lon="11.3827906"><ele>426.0</ele><time>2026-03-28T13:52:27.19Z</time></trkpt><trkpt lat="43.3922624" lon="11.3826482"><ele>425.66666666666663</ele><time>2026-03-28T13:52:28.19Z</time></trkpt><trkpt lat="43.3923708" lon="11.3825264"><ele>425.3333333333333</ele><time>2026-03-28T13:52:29.19Z</time></trkpt><trkpt lat="43.3924965" lon="11.3824079"><ele>425.0</ele><time>2026-03-28T13:52:30.191Z</time></trkpt><trkpt lat="43.3926284" lon="11.3822899"><ele>425.3333333333333</ele><time>2026-03-28T13:52:31.191Z</time></trkpt><trkpt lat="43.3927695" lon="11.3821686"><ele>425.66666666666663</ele><time>2026-03-28T13:52:32.19Z</time></trkpt><trkpt lat="43.3929088" lon="11.3820555"><ele>426.0</ele><time>2026-03-28T13:52:33.19Z</time></trkpt><trkpt lat="43.3930452" lon="11.3819419"><ele>424.33333333333337</ele><time>2026-03-28T13:52:34.19Z</time></trkpt><trkpt lat="43.393198" lon="11.3818168"><ele>422.6666666666667</ele><time>2026-03-28T13:52:35.19Z</time></trkpt><trkpt lat="43.3933455" lon="11.3816983"><ele>421.0</ele><time>2026-03-28T13:52:36.19Z</time></trkpt><trkpt lat="43.393484" lon="11.3815938"><ele>421.0</ele><time>2026-03-28T13:52:37.191Z</time></trkpt><trkpt lat="43.3936216" lon="11.3814932"><ele>421.0</ele><time>2026-03-28T13:52:38.191Z</time></trkpt><trkpt lat="43.3937665" lon="11.3813983"><ele>421.0</ele><time>2026-03-28T13:52:39.19Z</time></trkpt><trkpt lat="43.3939216" lon="11.3813094"><ele>419.0</ele><time>2026-03-28T13:52:40.19Z</time></trkpt><trkpt lat="43.3940868" lon="11.3812296"><ele>417.0</ele><time>2026-03-28T13:52:41.19Z</time></trkpt><trkpt lat="43.3942597" lon="11.3811572"><ele>415.0</ele><time>2026-03-28T13:52:42.191Z</time></trkpt><trkpt lat="43.3944425" lon="11.3810985"><ele>415.0</ele><time>2026-03-28T13:52:43.19Z</time></trkpt><trkpt lat="43.3946232" lon="11.381054"><ele>415.0</ele><time>2026-03-28T13:52:44.19Z</time></trkpt><trkpt lat="43.3947984" lon="11.3810266"><ele>415.0</ele><time>2026-03-28T13:52:45.19Z</time></trkpt><trkpt lat="43.3949814" lon="11.3810092"><ele>415.33333333333337</ele><time>2026-03-28T13:52:46.19Z</time></trkpt><trkpt lat="43.3951651" lon="11.3810094"><ele>415.66666666666663</ele><time>2026-03-28T13:52:47.19Z</time></trkpt><trkpt lat="43.3953525" lon="11.3810248"><ele>416.0</ele><time>2026-03-28T13:52:48.191Z</time></trkpt><trkpt lat="43.3955268" lon="11.3810466"><ele>414.66666666666663</ele><time>2026-03-28T13:52:49.19Z</time></trkpt><trkpt lat="43.3956946" lon="11.3810668"><ele>413.33333333333337</ele><time>2026-03-28T13:52:50.191Z</time></trkpt><trkpt lat="43.3958491" lon="11.3810738"><ele>412.0</ele><time>2026-03-28T13:52:51.19Z</time></trkpt><trkpt lat="43.3959955" lon="11.381055"><ele>412.0</ele><time>2026-03-28T13:52:52.191Z</time></trkpt><trkpt lat="43.3961379" lon="11.3810014"><ele>412.0</ele><time>2026-03-28T13:52:53.19Z</time></trkpt><trkpt lat="43.39627" lon="11.3809121"><ele>412.0</ele><time>2026-03-28T13:52:54.19Z</time></trkpt><trkpt lat="43.3963869" lon="11.3807879"><ele>412.0</ele><time>2026-03-28T13:52:55.191Z</time></trkpt><trkpt lat="43.3964837" lon="11.3806253"><ele>411.0</ele><time>2026-03-28T13:52:56.19Z</time></trkpt><trkpt lat="43.3965632" lon="11.380439"><ele>410.0</ele><time>2026-03-28T13:52:57.191Z</time></trkpt><trkpt lat="43.3966194" lon="11.3802336"><ele>409.0</ele><time>2026-03-28T13:52:58.19Z</time></trkpt><trkpt lat="43.396662" lon="11.3800214"><ele>409.0</ele><time>2026-03-28T13:52:59.19Z</time></trkpt><trkpt lat="43.396703" lon="11.3798264"><ele>409.0</ele><time>2026-03-28T13:53:00.189Z</time></trkpt><trkpt lat="43.3967417" lon="11.3796269"><ele>409.0</ele><time>2026-03-28T13:53:01.191Z</time></trkpt><trkpt lat="43.3967799" lon="11.3794266"><ele>409.0</ele><time>2026-03-28T13:53:02.19Z</time></trkpt><trkpt lat="43.3968134" lon="11.379236"><ele>410.25</ele><time>2026-03-28T13:53:03.19Z</time></trkpt><trkpt lat="43.3968472" lon="11.3790528"><ele>411.5</ele><time>2026-03-28T13:53:04.191Z</time></trkpt><trkpt lat="43.3968896" lon="11.3788798"><ele>412.75</ele><time>2026-03-28T13:53:05.191Z</time></trkpt><trkpt lat="43.3969458" lon="11.3787167"><ele>414.0</ele><time>2026-03-28T13:53:06.191Z</time></trkpt><trkpt lat="43.3970186" lon="11.3785606"><ele>414.0</ele><time>2026-03-28T13:53:07.19Z</time></trkpt><trkpt lat="43.3971012" lon="11.3784054"><ele>414.0</ele><time>2026-03-28T13:53:08.191Z</time></trkpt><trkpt lat="43.3971887" lon="11.3782457"><ele>414.0</ele><time>2026-03-28T13:53:09.19Z</time></trkpt><trkpt lat="43.3972803" lon="11.3780804"><ele>414.0</ele><time>2026-03-28T13:53:10.19Z</time></trkpt><trkpt lat="43.3973742" lon="11.3779097"><ele>415.66666666666663</ele><time>2026-03-28T13:53:11.19Z</time></trkpt><trkpt lat="43.397473" lon="11.3777369"><ele>417.3333333333333</ele><time>2026-03-28T13:53:12.19Z</time></trkpt><trkpt lat="43.3975799" lon="11.3775634"><ele>419.0</ele><time>2026-03-28T13:53:13.191Z</time></trkpt><trkpt lat="43.3976923" lon="11.3773906"><ele>419.0</ele><time>2026-03-28T13:53:14.19Z</time></trkpt><trkpt lat="43.3978114" lon="11.377216"><ele>419.0</ele><time>2026-03-28T13:53:15.19Z</time></trkpt><trkpt lat="43.3979345" lon="11.3770428"><ele>419.0</ele><time>2026-03-28T13:53:16.19Z</time></trkpt><trkpt lat="43.3980647" lon="11.3768745"><ele>419.66666666666663</ele><time>2026-03-28T13:53:17.19Z</time></trkpt><trkpt lat="43.3982014" lon="11.3767137"><ele>420.33333333333337</ele><time>2026-03-28T13:53:18.191Z</time></trkpt><trkpt lat="43.3983416" lon="11.3765547"><ele>421.0</ele><time>2026-03-28T13:53:19.19Z</time></trkpt><trkpt lat="43.3984793" lon="11.3764186"><ele>421.6666666666667</ele><time>2026-03-28T13:53:20.191Z</time></trkpt><trkpt lat="43.3986191" lon="11.3763007"><ele>422.33333333333337</ele><time>2026-03-28T13:53:21.191Z</time></trkpt><trkpt lat="43.3987631" lon="11.3762024"><ele>423.0</ele><time>2026-03-28T13:53:22.19Z</time></trkpt><trkpt lat="43.3989127" lon="11.3761323"><ele>424.66666666666663</ele><time>2026-03-28T13:53:23.191Z</time></trkpt><trkpt lat="43.3990675" lon="11.3760797"><ele>426.3333333333333</ele><time>2026-03-28T13:53:24.19Z</time></trkpt><trkpt lat="43.3992176" lon="11.3760263"><ele>428.0</ele><time>2026-03-28T13:53:25.191Z</time></trkpt><trkpt lat="43.3993574" lon="11.3759614"><ele>428.0</ele><time>2026-03-28T13:53:26.19Z</time></trkpt><trkpt lat="43.3994804" lon="11.3758792"><ele>428.0</ele><time>2026-03-28T13:53:27.19Z</time></trkpt><trkpt lat="43.3995912" lon="11.3757693"><ele>428.0</ele><time>2026-03-28T13:53:28.191Z</time></trkpt><trkpt lat="43.3996903" lon="11.375639"><ele>428.0</ele><time>2026-03-28T13:53:29.191Z</time></trkpt><trkpt lat="43.3997773" lon="11.3754946"><ele>430.0</ele><time>2026-03-28T13:53:30.19Z</time></trkpt><trkpt lat="43.3998674" lon="11.3753419"><ele>432.0</ele><time>2026-03-28T13:53:31.19Z</time></trkpt><trkpt lat="43.3999566" lon="11.3751885"><ele>434.0</ele><time>2026-03-28T13:53:32.19Z</time></trkpt><trkpt lat="43.4000437" lon="11.3750331"><ele>436.0</ele><time>2026-03-28T13:53:33.19Z</time></trkpt><trkpt lat="43.4001304" lon="11.3748766"><ele>436.0</ele><time>2026-03-28T13:53:34.191Z</time></trkpt><trkpt lat="43.4002262" lon="11.3747244"><ele>436.0</ele><time>2026-03-28T13:53:35.19Z</time></trkpt><trkpt lat="43.4003214" lon="11.3745668"><ele>436.0</ele><time>2026-03-28T13:53:36.191Z</time></trkpt><trkpt lat="43.4004044" lon="11.3744242"><ele>436.0</ele><time>2026-03-28T13:53:37.191Z</time></trkpt><trkpt lat="43.4004737" lon="11.3742927"><ele>436.0</ele><time>2026-03-28T13:53:38.19Z</time></trkpt><trkpt lat="43.4005326" lon="11.3741516"><ele>436.0</ele><time>2026-03-28T13:53:39.19Z</time></trkpt><trkpt lat="43.4005759" lon="11.3740081"><ele>436.0</ele><time>2026-03-28T13:53:40.19Z</time></trkpt><trkpt lat="43.4006098" lon="11.3738632"><ele>436.0</ele><time>2026-03-28T13:53:41.191Z</time></trkpt><trkpt lat="43.4006407" lon="11.3737099"><ele>436.5</ele><time>2026-03-28T13:53:42.19Z</time></trkpt><trkpt lat="43.4006746" lon="11.3735526"><ele>437.0</ele><time>2026-03-28T13:53:43.191Z</time></trkpt><trkpt lat="43.4007251" lon="11.3734095"><ele>437.5</ele><time>2026-03-28T13:53:44.191Z</time></trkpt><trkpt lat="43.4007933" lon="11.3732727"><ele>438.0</ele><time>2026-03-28T13:53:45.191Z</time></trkpt><trkpt lat="43.4008752" lon="11.3731397"><ele>437.5</ele><time>2026-03-28T13:53:46.19Z</time></trkpt><trkpt lat="43.4009689" lon="11.3730208"><ele>437.0</ele><time>2026-03-28T13:53:47.191Z</time></trkpt><trkpt lat="43.4010643" lon="11.3729145"><ele>436.5</ele><time>2026-03-28T13:53:48.19Z</time></trkpt><trkpt lat="43.4011448" lon="11.3727976"><ele>436.0</ele><time>2026-03-28T13:53:49.19Z</time></trkpt><trkpt lat="43.4012041" lon="11.3726842"><ele>436.0</ele><time>2026-03-28T13:53:50.19Z</time></trkpt><trkpt lat="43.4012551" lon="11.3725638"><ele>436.0</ele><time>2026-03-28T13:53:51.19Z</time></trkpt><trkpt lat="43.4012811" lon="11.372418"><ele>436.0</ele><time>2026-03-28T13:53:52.19Z</time></trkpt><trkpt lat="43.401298" lon="11.372262"><ele>436.0</ele><time>2026-03-28T13:53:53.19Z</time></trkpt><trkpt lat="43.4012972" lon="11.3720942"><ele>436.0</ele><time>2026-03-28T13:53:54.191Z</time></trkpt><trkpt lat="43.401297" lon="11.371926"><ele>435.5</ele><time>2026-03-28T13:53:55.19Z</time></trkpt><trkpt lat="43.4012921" lon="11.3717512"><ele>435.0</ele><time>2026-03-28T13:53:56.19Z</time></trkpt><trkpt lat="43.4012885" lon="11.3715781"><ele>434.5</ele><time>2026-03-28T13:53:57.19Z</time></trkpt><trkpt lat="43.4012821" lon="11.3714"><ele>434.0</ele><time>2026-03-28T13:53:58.191Z</time></trkpt><trkpt lat="43.4012853" lon="11.3712249"><ele>433.0</ele><time>2026-03-28T13:53:59.191Z</time></trkpt><trkpt lat="43.4012934" lon="11.3710322"><ele>432.0</ele><time>2026-03-28T13:54:00.191Z</time></trkpt><trkpt lat="43.4013187" lon="11.3708381"><ele>431.0</ele><time>2026-03-28T13:54:01.19Z</time></trkpt><trkpt lat="43.4013603" lon="11.3706496"><ele>430.0</ele><time>2026-03-28T13:54:02.19Z</time></trkpt><trkpt lat="43.4014116" lon="11.3704582"><ele>430.0</ele><time>2026-03-28T13:54:03.191Z</time></trkpt><trkpt lat="43.4014709" lon="11.3702727"><ele>430.0</ele><time>2026-03-28T13:54:04.19Z</time></trkpt><trkpt lat="43.4015288" lon="11.3700844"><ele>430.0</ele><time>2026-03-28T13:54:05.19Z</time></trkpt><trkpt lat="43.4015791" lon="11.3698865"><ele>430.0</ele><time>2026-03-28T13:54:06.19Z</time></trkpt><trkpt lat="43.4016216" lon="11.3696869"><ele>430.0</ele><time>2026-03-28T13:54:07.19Z</time></trkpt><trkpt lat="43.401659" lon="11.3694793"><ele>430.0</ele><time>2026-03-28T13:54:08.191Z</time></trkpt><trkpt lat="43.4016938" lon="11.3692774"><ele>430.0</ele><time>2026-03-28T13:54:09.19Z</time></trkpt><trkpt lat="43.4017179" lon="11.3690793"><ele>430.0</ele><time>2026-03-28T13:54:10.19Z</time></trkpt><trkpt lat="43.4017247" lon="11.3688768"><ele>430.0</ele><time>2026-03-28T13:54:11.19Z</time></trkpt><trkpt lat="43.4017167" lon="11.3686747"><ele>430.0</ele><time>2026-03-28T13:54:12.191Z</time></trkpt><trkpt lat="43.4016999" lon="11.3684638"><ele>430.0</ele><time>2026-03-28T13:54:13.19Z</time></trkpt><trkpt lat="43.401683" lon="11.3682495"><ele>430.6666666666667</ele><time>2026-03-28T13:54:14.19Z</time></trkpt><trkpt lat="43.4016655" lon="11.3680318"><ele>431.33333333333337</ele><time>2026-03-28T13:54:15.19Z</time></trkpt><trkpt lat="43.4016484" lon="11.367818"><ele>432.0</ele><time>2026-03-28T13:54:16.19Z</time></trkpt><trkpt lat="43.4016304" lon="11.3676176"><ele>432.5</ele><time>2026-03-28T13:54:17.19Z</time></trkpt><trkpt lat="43.4016128" lon="11.3674349"><ele>433.0</ele><time>2026-03-28T13:54:18.191Z</time></trkpt><trkpt lat="43.4015921" lon="11.3672682"><ele>433.5</ele><time>2026-03-28T13:54:19.19Z</time></trkpt><trkpt lat="43.401564" lon="11.3671115"><ele>434.0</ele><time>2026-03-28T13:54:20.191Z</time></trkpt><trkpt lat="43.4015269" lon="11.3669807"><ele>434.25</ele><time>2026-03-28T13:54:21.189Z</time></trkpt><trkpt lat="43.401474" lon="11.3668451"><ele>434.5</ele><time>2026-03-28T13:54:22.19Z</time></trkpt><trkpt lat="43.4014148" lon="11.3667096"><ele>434.75</ele><time>2026-03-28T13:54:23.19Z</time></trkpt><trkpt lat="43.4013593" lon="11.3665658"><ele>435.0</ele><time>2026-03-28T13:54:24.19Z</time></trkpt><trkpt lat="43.4013149" lon="11.3664154"><ele>436.5</ele><time>2026-03-28T13:54:25.191Z</time></trkpt><trkpt lat="43.4012778" lon="11.366251"><ele>438.0</ele><time>2026-03-28T13:54:26.19Z</time></trkpt><trkpt lat="43.4012461" lon="11.3660769"><ele>439.5</ele><time>2026-03-28T13:54:27.19Z</time></trkpt><trkpt lat="43.4012188" lon="11.3658959"><ele>441.0</ele><time>2026-03-28T13:54:28.19Z</time></trkpt><trkpt lat="43.4011894" lon="11.3657181"><ele>441.0</ele><time>2026-03-28T13:54:29.19Z</time></trkpt><trkpt lat="43.4011643" lon="11.3655564"><ele>441.0</ele><time>2026-03-28T13:54:30.19Z</time></trkpt><trkpt lat="43.4011411" lon="11.3653981"><ele>441.0</ele><time>2026-03-28T13:54:31.19Z</time></trkpt><trkpt lat="43.4011203" lon="11.3652378"><ele>441.0</ele><time>2026-03-28T13:54:32.19Z</time></trkpt><trkpt lat="43.4010967" lon="11.365068"><ele>440.75</ele><time>2026-03-28T13:54:33.191Z</time></trkpt><trkpt lat="43.4010701" lon="11.3648899"><ele>440.5</ele><time>2026-03-28T13:54:34.189Z</time></trkpt><trkpt lat="43.4010297" lon="11.3647136"><ele>440.25</ele><time>2026-03-28T13:54:35.189Z</time></trkpt><trkpt lat="43.4009686" lon="11.3645395"><ele>440.0</ele><time>2026-03-28T13:54:36.19Z</time></trkpt><trkpt lat="43.4009051" lon="11.3643777"><ele>440.0</ele><time>2026-03-28T13:54:37.19Z</time></trkpt><trkpt lat="43.40086" lon="11.3642243"><ele>440.0</ele><time>2026-03-28T13:54:38.19Z</time></trkpt><trkpt lat="43.4008257" lon="11.3640687"><ele>440.0</ele><time>2026-03-28T13:54:39.19Z</time></trkpt><trkpt lat="43.400806" lon="11.3639167"><ele>440.0</ele><time>2026-03-28T13:54:40.191Z</time></trkpt><trkpt lat="43.4008085" lon="11.3637587"><ele>440.0</ele><time>2026-03-28T13:54:41.19Z</time></trkpt><trkpt lat="43.4008333" lon="11.3636052"><ele>440.0</ele><time>2026-03-28T13:54:42.19Z</time></trkpt><trkpt lat="43.4008809" lon="11.3634704"><ele>440.0</ele><time>2026-03-28T13:54:43.189Z</time></trkpt><trkpt lat="43.4009447" lon="11.3633699"><ele>440.0</ele><time>2026-03-28T13:54:44.19Z</time></trkpt><trkpt lat="43.4010288" lon="11.3632861"><ele>440.0</ele><time>2026-03-28T13:54:45.191Z</time></trkpt><trkpt lat="43.4011259" lon="11.3632266"><ele>440.0</ele><time>2026-03-28T13:54:46.191Z</time></trkpt><trkpt lat="43.4012106" lon="11.3631785"><ele>440.0</ele><time>2026-03-28T13:54:47.19Z</time></trkpt><trkpt lat="43.4012852" lon="11.3631098"><ele>440.0</ele><time>2026-03-28T13:54:48.19Z</time></trkpt><trkpt lat="43.4013524" lon="11.3630126"><ele>440.0</ele><time>2026-03-28T13:54:49.19Z</time></trkpt><trkpt lat="43.4013971" lon="11.3628979"><ele>440.0</ele><time>2026-03-28T13:54:50.19Z</time></trkpt><trkpt lat="43.4014204" lon="11.3627622"><ele>440.8</ele><time>2026-03-28T13:54:51.19Z</time></trkpt><trkpt lat="43.4014248" lon="11.3626193"><ele>441.6</ele><time>2026-03-28T13:54:52.191Z</time></trkpt><trkpt lat="43.401404" lon="11.3624672"><ele>442.4</ele><time>2026-03-28T13:54:53.191Z</time></trkpt><trkpt lat="43.4013715" lon="11.3623252"><ele>443.2</ele><time>2026-03-28T13:54:54.19Z</time></trkpt><trkpt lat="43.4013463" lon="11.3621979"><ele>444.0</ele><time>2026-03-28T13:54:55.19Z</time></trkpt><trkpt lat="43.4013465" lon="11.3620781"><ele>444.0</ele><time>2026-03-28T13:54:56.19Z</time></trkpt><trkpt lat="43.4013801" lon="11.3619759"><ele>444.0</ele><time>2026-03-28T13:54:57.191Z</time></trkpt><trkpt lat="43.4014356" lon="11.3618787"><ele>444.0</ele><time>2026-03-28T13:54:58.191Z</time></trkpt><trkpt lat="43.4015113" lon="11.3617886"><ele>444.0</ele><time>2026-03-28T13:54:59.19Z</time></trkpt><trkpt lat="43.4016025" lon="11.3616944"><ele>444.0</ele><time>2026-03-28T13:55:00.19Z</time></trkpt><trkpt lat="43.4017019" lon="11.3615906"><ele>444.0</ele><time>2026-03-28T13:55:01.19Z</time></trkpt><trkpt lat="43.4018067" lon="11.3614723"><ele>444.0</ele><time>2026-03-28T13:55:02.19Z</time></trkpt><trkpt lat="43.4019102" lon="11.3613346"><ele>444.0</ele><time>2026-03-28T13:55:03.19Z</time></trkpt><trkpt lat="43.4020084" lon="11.3612097"><ele>444.0</ele><time>2026-03-28T13:55:04.19Z</time></trkpt><trkpt lat="43.4021098" lon="11.3610891"><ele>443.25</ele><time>2026-03-28T13:55:05.19Z</time></trkpt><trkpt lat="43.4022185" lon="11.3609937"><ele>442.5</ele><time>2026-03-28T13:55:06.19Z</time></trkpt><trkpt lat="43.4023327" lon="11.3609333"><ele>441.75</ele><time>2026-03-28T13:55:07.19Z</time></trkpt><trkpt lat="43.4024534" lon="11.3608919"><ele>441.0</ele><time>2026-03-28T13:55:08.19Z</time></trkpt><trkpt lat="43.4025828" lon="11.3608843"><ele>441.0</ele><time>2026-03-28T13:55:09.19Z</time></trkpt><trkpt lat="43.4027112" lon="11.3609379"><ele>441.0</ele><time>2026-03-28T13:55:10.189Z</time></trkpt><trkpt lat="43.4028266" lon="11.3609499"><ele>441.0</ele><time>2026-03-28T13:55:11.191Z</time></trkpt><trkpt lat="43.4029445" lon="11.3609451"><ele>441.0</ele><time>2026-03-28T13:55:12.19Z</time></trkpt><trkpt lat="43.4030618" lon="11.3609226"><ele>442.0</ele><time>2026-03-28T13:55:13.19Z</time></trkpt><trkpt lat="43.4031809" lon="11.3608928"><ele>443.0</ele><time>2026-03-28T13:55:14.191Z</time></trkpt><trkpt lat="43.4032875" lon="11.3608563"><ele>444.0</ele><time>2026-03-28T13:55:15.19Z</time></trkpt><trkpt lat="43.4033812" lon="11.3608082"><ele>445.0</ele><time>2026-03-28T13:55:16.19Z</time></trkpt><trkpt lat="43.4034543" lon="11.3607368"><ele>446.0</ele><time>2026-03-28T13:55:17.19Z</time></trkpt><trkpt lat="43.403503" lon="11.3606383"><ele>444.6</ele><time>2026-03-28T13:55:18.19Z</time></trkpt><trkpt lat="43.403526" lon="11.3605251"><ele>443.20000000000005</ele><time>2026-03-28T13:55:19.19Z</time></trkpt><trkpt lat="43.4035238" lon="11.3604054"><ele>441.79999999999995</ele><time>2026-03-28T13:55:20.19Z</time></trkpt><trkpt lat="43.4035148" lon="11.3602826"><ele>440.4</ele><time>2026-03-28T13:55:21.19Z</time></trkpt><trkpt lat="43.4035127" lon="11.3601577"><ele>439.0</ele><time>2026-03-28T13:55:22.19Z</time></trkpt><trkpt lat="43.4035251" lon="11.3600245"><ele>439.0</ele><time>2026-03-28T13:55:23.19Z</time></trkpt><trkpt lat="43.4035486" lon="11.3598794"><ele>439.0</ele><time>2026-03-28T13:55:24.191Z</time></trkpt><trkpt lat="43.403577" lon="11.3597426"><ele>439.0</ele><time>2026-03-28T13:55:25.19Z</time></trkpt><trkpt lat="43.4035995" lon="11.3596045"><ele>439.0</ele><time>2026-03-28T13:55:26.19Z</time></trkpt><trkpt lat="43.4036042" lon="11.3594694"><ele>439.0</ele><time>2026-03-28T13:55:27.19Z</time></trkpt><trkpt lat="43.4035894" lon="11.3593413"><ele>440.2</ele><time>2026-03-28T13:55:28.19Z</time></trkpt><trkpt lat="43.4035482" lon="11.3592271"><ele>441.4</ele><time>2026-03-28T13:55:29.191Z</time></trkpt><trkpt lat="43.4034814" lon="11.3591243"><ele>442.6</ele><time>2026-03-28T13:55:30.19Z</time></trkpt><trkpt lat="43.4033915" lon="11.3590469"><ele>443.8</ele><time>2026-03-28T13:55:31.19Z</time></trkpt><trkpt lat="43.4032845" lon="11.3589961"><ele>445.0</ele><time>2026-03-28T13:55:32.191Z</time></trkpt><trkpt lat="43.4031748" lon="11.3589502"><ele>445.0</ele><time>2026-03-28T13:55:33.191Z</time></trkpt><trkpt lat="43.403083" lon="11.3588996"><ele>445.0</ele><time>2026-03-28T13:55:34.19Z</time></trkpt><trkpt lat="43.403007" lon="11.3588073"><ele>445.0</ele><time>2026-03-28T13:55:35.191Z</time></trkpt><trkpt lat="43.4029568" lon="11.3586981"><ele>445.0</ele><time>2026-03-28T13:55:36.19Z</time></trkpt><trkpt lat="43.4029034" lon="11.358581"><ele>445.0</ele><time>2026-03-28T13:55:37.19Z</time></trkpt><trkpt lat="43.4028791" lon="11.3584241"><ele>444.5</ele><time>2026-03-28T13:55:38.19Z</time></trkpt><trkpt lat="43.4028539" lon="11.3582753"><ele>444.0</ele><time>2026-03-28T13:55:39.19Z</time></trkpt><trkpt lat="43.402823" lon="11.358115"><ele>443.5</ele><time>2026-03-28T13:55:40.191Z</time></trkpt><trkpt lat="43.4028011" lon="11.3579591"><ele>443.0</ele><time>2026-03-28T13:55:41.19Z</time></trkpt><trkpt lat="43.4027762" lon="11.3578162"><ele>443.0</ele><time>2026-03-28T13:55:42.19Z</time></trkpt><trkpt lat="43.4027632" lon="11.357673"><ele>442.99999999999994</ele><time>2026-03-28T13:55:43.19Z</time></trkpt><trkpt lat="43.4027757" lon="11.3575386"><ele>442.99999999999994</ele><time>2026-03-28T13:55:44.191Z</time></trkpt><trkpt lat="43.4028101" lon="11.3574306"><ele>443.0</ele><time>2026-03-28T13:55:45.19Z</time></trkpt><trkpt lat="43.4028605" lon="11.3573256"><ele>443.0</ele><time>2026-03-28T13:55:46.19Z</time></trkpt><trkpt lat="43.4029331" lon="11.357247"><ele>443.79999999999995</ele><time>2026-03-28T13:55:47.19Z</time></trkpt><trkpt lat="43.4030229" lon="11.3571821"><ele>444.59999999999997</ele><time>2026-03-28T13:55:48.191Z</time></trkpt><trkpt lat="43.403117" lon="11.357148"><ele>445.40000000000003</ele><time>2026-03-28T13:55:49.191Z</time></trkpt><trkpt lat="43.403222" lon="11.3571385"><ele>446.20000000000005</ele><time>2026-03-28T13:55:50.189Z</time></trkpt><trkpt lat="43.403328" lon="11.3571471"><ele>447.0</ele><time>2026-03-28T13:55:51.19Z</time></trkpt><trkpt lat="43.4034361" lon="11.3571503"><ele>447.0</ele><time>2026-03-28T13:55:52.19Z</time></trkpt><trkpt lat="43.4035327" lon="11.3571294"><ele>447.0</ele><time>2026-03-28T13:55:53.19Z</time></trkpt><trkpt lat="43.4036317" lon="11.3571016"><ele>447.0</ele><time>2026-03-28T13:55:54.19Z</time></trkpt><trkpt lat="43.4037114" lon="11.357069"><ele>447.0</ele><time>2026-03-28T13:55:55.191Z</time></trkpt><trkpt lat="43.4037877" lon="11.357014"><ele>447.0</ele><time>2026-03-28T13:55:56.19Z</time></trkpt><trkpt lat="43.4038281" lon="11.3569282"><ele>447.0</ele><time>2026-03-28T13:55:57.191Z</time></trkpt><trkpt lat="43.4038518" lon="11.3568061"><ele>447.0</ele><time>2026-03-28T13:55:58.191Z</time></trkpt><trkpt lat="43.4038451" lon="11.3566859"><ele>447.00000000000006</ele><time>2026-03-28T13:55:59.191Z</time></trkpt><trkpt lat="43.4038318" lon="11.3565801"><ele>447.00000000000006</ele><time>2026-03-28T13:56:00.19Z</time></trkpt><trkpt lat="43.4037711" lon="11.3564795"><ele>447.0</ele><time>2026-03-28T13:56:01.191Z</time></trkpt><trkpt lat="43.4036889" lon="11.356372"><ele>447.0</ele><time>2026-03-28T13:56:02.191Z</time></trkpt><trkpt lat="43.4036452" lon="11.3562625"><ele>446.8333333333333</ele><time>2026-03-28T13:56:03.19Z</time></trkpt><trkpt lat="43.4036274" lon="11.3561473"><ele>446.66666666666663</ele><time>2026-03-28T13:56:04.19Z</time></trkpt><trkpt lat="43.403648" lon="11.3560372"><ele>446.5</ele><time>2026-03-28T13:56:05.191Z</time></trkpt><trkpt lat="43.403692" lon="11.3559448"><ele>446.3333333333333</ele><time>2026-03-28T13:56:06.19Z</time></trkpt><trkpt lat="43.403767" lon="11.355872"><ele>446.16666666666663</ele><time>2026-03-28T13:56:07.19Z</time></trkpt><trkpt lat="43.4038599" lon="11.3557951"><ele>446.0</ele><time>2026-03-28T13:56:08.19Z</time></trkpt><trkpt lat="43.4039621" lon="11.3557096"><ele>447.5</ele><time>2026-03-28T13:56:09.191Z</time></trkpt><trkpt lat="43.4040752" lon="11.3556472"><ele>449.0</ele><time>2026-03-28T13:56:10.191Z</time></trkpt><trkpt lat="43.4041913" lon="11.3556214"><ele>450.5</ele><time>2026-03-28T13:56:11.191Z</time></trkpt><trkpt lat="43.4043139" lon="11.3556239"><ele>452.0</ele><time>2026-03-28T13:56:12.19Z</time></trkpt><trkpt lat="43.4044404" lon="11.3556538"><ele>452.0</ele><time>2026-03-28T13:56:13.191Z</time></trkpt><trkpt lat="43.4045608" lon="11.3556936"><ele>452.0</ele><time>2026-03-28T13:56:14.19Z</time></trkpt><trkpt lat="43.404677" lon="11.3557628"><ele>452.0</ele><time>2026-03-28T13:56:15.191Z</time></trkpt><trkpt lat="43.4047979" lon="11.3558542"><ele>452.0</ele><time>2026-03-28T13:56:16.19Z</time></trkpt><trkpt lat="43.4049103" lon="11.3559454"><ele>452.8</ele><time>2026-03-28T13:56:17.19Z</time></trkpt><trkpt lat="43.4050224" lon="11.3560244"><ele>453.6</ele><time>2026-03-28T13:56:18.19Z</time></trkpt><trkpt lat="43.4051356" lon="11.3561086"><ele>454.40000000000003</ele><time>2026-03-28T13:56:19.191Z</time></trkpt><trkpt lat="43.4052061" lon="11.3560978"><ele>455.20000000000005</ele><time>2026-03-28T13:56:20.191Z</time></trkpt><trkpt lat="43.405292" lon="11.3560819"><ele>456.0</ele><time>2026-03-28T13:56:21.19Z</time></trkpt><trkpt lat="43.4053489" lon="11.3560264"><ele>456.0</ele><time>2026-03-28T13:56:22.19Z</time></trkpt><trkpt lat="43.4054028" lon="11.3559601"><ele>456.0</ele><time>2026-03-28T13:56:23.19Z</time></trkpt><trkpt lat="43.4054285" lon="11.3558719"><ele>456.0</ele><time>2026-03-28T13:56:24.191Z</time></trkpt><trkpt lat="43.4054417" lon="11.3557298"><ele>456.0</ele><time>2026-03-28T13:56:25.191Z</time></trkpt><trkpt lat="43.4054675" lon="11.3556046"><ele>456.0</ele><time>2026-03-28T13:56:26.19Z</time></trkpt><trkpt lat="43.4055077" lon="11.3555083"><ele>456.0</ele><time>2026-03-28T13:56:27.19Z</time></trkpt><trkpt lat="43.4055554" lon="11.3554462"><ele>455.5</ele><time>2026-03-28T13:56:28.191Z</time></trkpt><trkpt lat="43.4056323" lon="11.3554193"><ele>455.0</ele><time>2026-03-28T13:56:29.191Z</time></trkpt><trkpt lat="43.4057222" lon="11.3554473"><ele>454.5</ele><time>2026-03-28T13:56:30.191Z</time></trkpt><trkpt lat="43.4057975" lon="11.3554785"><ele>454.0</ele><time>2026-03-28T13:56:31.19Z</time></trkpt><trkpt lat="43.4058763" lon="11.3555291"><ele>453.5</ele><time>2026-03-28T13:56:32.19Z</time></trkpt><trkpt lat="43.4059596" lon="11.3555925"><ele>453.0</ele><time>2026-03-28T13:56:33.19Z</time></trkpt><trkpt lat="43.4060483" lon="11.3556665"><ele>455.0</ele><time>2026-03-28T13:56:34.19Z</time></trkpt><trkpt lat="43.4061417" lon="11.3557495"><ele>456.99999999999994</ele><time>2026-03-28T13:56:35.19Z</time></trkpt><trkpt lat="43.4062182" lon="11.3558211"><ele>458.99999999999994</ele><time>2026-03-28T13:56:36.19Z</time></trkpt><trkpt lat="43.406292" lon="11.3558934"><ele>461.0</ele><time>2026-03-28T13:56:37.19Z</time></trkpt><trkpt lat="43.40637" lon="11.3559652"><ele>463.0</ele><time>2026-03-28T13:56:38.19Z</time></trkpt><trkpt lat="43.4064509" lon="11.3560394"><ele>463.50000000000006</ele><time>2026-03-28T13:56:39.191Z</time></trkpt><trkpt lat="43.406524" lon="11.3560595"><ele>464.0</ele><time>2026-03-28T13:56:40.19Z</time></trkpt><trkpt lat="43.406601" lon="11.3560683"><ele>464.5</ele><time>2026-03-28T13:56:41.191Z</time></trkpt><trkpt lat="43.4066871" lon="11.3560669"><ele>465.0</ele><time>2026-03-28T13:56:42.191Z</time></trkpt><trkpt lat="43.4066839" lon="11.3559208"><ele>465.50000000000006</ele><time>2026-03-28T13:56:43.19Z</time></trkpt><trkpt lat="43.4067326" lon="11.3558453"><ele>466.0</ele><time>2026-03-28T13:56:44.19Z</time></trkpt><trkpt lat="43.4067014" lon="11.3557239"><ele>466.0</ele><time>2026-03-28T13:56:45.19Z</time></trkpt><trkpt lat="43.4066677" lon="11.3556014"><ele>466.0</ele><time>2026-03-28T13:56:46.19Z</time></trkpt><trkpt lat="43.4066484" lon="11.3554744"><ele>466.0</ele><time>2026-03-28T13:56:47.191Z</time></trkpt><trkpt lat="43.4066265" lon="11.3553193"><ele>466.0</ele><time>2026-03-28T13:56:48.19Z</time></trkpt><trkpt lat="43.4066057" lon="11.3551665"><ele>466.0</ele><time>2026-03-28T13:56:49.191Z</time></trkpt><trkpt lat="43.4065913" lon="11.3550131"><ele>465.20000000000005</ele><time>2026-03-28T13:56:50.191Z</time></trkpt><trkpt lat="43.4066089" lon="11.3548745"><ele>464.40000000000003</ele><time>2026-03-28T13:56:51.191Z</time></trkpt><trkpt lat="43.4066475" lon="11.3547627"><ele>463.6</ele><time>2026-03-28T13:56:52.19Z</time></trkpt><trkpt lat="43.4067166" lon="11.3546712"><ele>462.8</ele><time>2026-03-28T13:56:53.19Z</time></trkpt><trkpt lat="43.4067988" lon="11.3545956"><ele>462.0</ele><time>2026-03-28T13:56:54.19Z</time></trkpt><trkpt lat="43.4068957" lon="11.3545184"><ele>462.75</ele><time>2026-03-28T13:56:55.19Z</time></trkpt><trkpt lat="43.4070081" lon="11.3544465"><ele>463.5</ele><time>2026-03-28T13:56:56.19Z</time></trkpt><trkpt lat="43.4071309" lon="11.3543969"><ele>464.25</ele><time>2026-03-28T13:56:57.19Z</time></trkpt><trkpt lat="43.4072409" lon="11.3543839"><ele>465.0</ele><time>2026-03-28T13:56:58.191Z</time></trkpt><trkpt lat="43.4073457" lon="11.3544149"><ele>465.0</ele><time>2026-03-28T13:56:59.19Z</time></trkpt><trkpt lat="43.407435" lon="11.3544412"><ele>465.0</ele><time>2026-03-28T13:57:00.19Z</time></trkpt><trkpt lat="43.4075196" lon="11.3544256"><ele>465.0</ele><time>2026-03-28T13:57:01.19Z</time></trkpt><trkpt lat="43.407586" lon="11.3543692"><ele>465.0</ele><time>2026-03-28T13:57:02.19Z</time></trkpt><trkpt lat="43.4076404" lon="11.3542834"><ele>465.0</ele><time>2026-03-28T13:57:03.19Z</time></trkpt><trkpt lat="43.4076754" lon="11.3541702"><ele>465.0</ele><time>2026-03-28T13:57:04.191Z</time></trkpt><trkpt lat="43.4077093" lon="11.3540383"><ele>465.0</ele><time>2026-03-28T13:57:05.191Z</time></trkpt><trkpt lat="43.4077544" lon="11.3539327"><ele>465.0</ele><time>2026-03-28T13:57:06.19Z</time></trkpt><trkpt lat="43.4078251" lon="11.3538464"><ele>465.0</ele><time>2026-03-28T13:57:07.191Z</time></trkpt><trkpt lat="43.4079152" lon="11.3537913"><ele>465.0</ele><time>2026-03-28T13:57:08.189Z</time></trkpt><trkpt lat="43.4080122" lon="11.3537863"><ele>465.0</ele><time>2026-03-28T13:57:09.191Z</time></trkpt><trkpt lat="43.4081119" lon="11.3538262"><ele>466.4</ele><time>2026-03-28T13:57:10.19Z</time></trkpt><trkpt lat="43.4082019" lon="11.3539016"><ele>467.8</ele><time>2026-03-28T13:57:11.191Z</time></trkpt><trkpt lat="43.4082911" lon="11.3539998"><ele>469.20000000000005</ele><time>2026-03-28T13:57:12.191Z</time></trkpt><trkpt lat="43.4083763" lon="11.3540878"><ele>470.6</ele><time>2026-03-28T13:57:13.19Z</time></trkpt><trkpt lat="43.4084597" lon="11.3541461"><ele>472.0</ele><time>2026-03-28T13:57:14.19Z</time></trkpt><trkpt lat="43.4085327" lon="11.3541732"><ele>472.00000000000006</ele><time>2026-03-28T13:57:15.19Z</time></trkpt><trkpt lat="43.40861" lon="11.3541645"><ele>472.0</ele><time>2026-03-28T13:57:16.191Z</time></trkpt><trkpt lat="43.4087126" lon="11.3540503"><ele>472.0</ele><time>2026-03-28T13:57:18.19Z</time></trkpt><trkpt lat="43.4087538" lon="11.3539616"><ele>472.0</ele><time>2026-03-28T13:57:19.191Z</time></trkpt><trkpt lat="43.4087783" lon="11.3538718"><ele>472.00000000000006</ele><time>2026-03-28T13:57:20.19Z</time></trkpt><trkpt lat="43.408789" lon="11.353775"><ele>472.0</ele><time>2026-03-28T13:57:21.19Z</time></trkpt><trkpt lat="43.4087942" lon="11.353673"><ele>471.33333333333337</ele><time>2026-03-28T13:57:22.191Z</time></trkpt><trkpt lat="43.4088042" lon="11.3535591"><ele>470.6666666666667</ele><time>2026-03-28T13:57:23.19Z</time></trkpt><trkpt lat="43.4088231" lon="11.3534623"><ele>470.0</ele><time>2026-03-28T13:57:24.19Z</time></trkpt><trkpt lat="43.4088674" lon="11.3533711"><ele>469.33333333333337</ele><time>2026-03-28T13:57:25.19Z</time></trkpt><trkpt lat="43.4089321" lon="11.353306"><ele>468.6666666666667</ele><time>2026-03-28T13:57:26.19Z</time></trkpt><trkpt lat="43.4090096" lon="11.353256"><ele>468.0</ele><time>2026-03-28T13:57:27.19Z</time></trkpt><trkpt lat="43.4090989" lon="11.3532257"><ele>468.0</ele><time>2026-03-28T13:57:28.19Z</time></trkpt><trkpt lat="43.4091892" lon="11.353215"><ele>467.99999999999994</ele><time>2026-03-28T13:57:29.19Z</time></trkpt><trkpt lat="43.4092903" lon="11.3532243"><ele>467.99999999999994</ele><time>2026-03-28T13:57:30.191Z</time></trkpt><trkpt lat="43.4093851" lon="11.3532509"><ele>468.0</ele><time>2026-03-28T13:57:31.191Z</time></trkpt><trkpt lat="43.4094723" lon="11.353283"><ele>468.0</ele><time>2026-03-28T13:57:32.19Z</time></trkpt><trkpt lat="43.4095573" lon="11.3533171"><ele>468.0</ele><time>2026-03-28T13:57:33.189Z</time></trkpt><trkpt lat="43.4096301" lon="11.3533339"><ele>468.0</ele><time>2026-03-28T13:57:34.19Z</time></trkpt><trkpt lat="43.409697" lon="11.3533231"><ele>468.0</ele><time>2026-03-28T13:57:35.189Z</time></trkpt><trkpt lat="43.4097604" lon="11.3532819"><ele>468.0</ele><time>2026-03-28T13:57:36.191Z</time></trkpt><trkpt lat="43.4098282" lon="11.3531354"><ele>468.0</ele><time>2026-03-28T13:57:38.191Z</time></trkpt><trkpt lat="43.4098348" lon="11.3530413"><ele>468.0</ele><time>2026-03-28T13:57:39.189Z</time></trkpt><trkpt lat="43.4098645" lon="11.3528753"><ele>468.1666666666667</ele><time>2026-03-28T13:57:41.191Z</time></trkpt><trkpt lat="43.4098983" lon="11.3527941"><ele>468.33333333333337</ele><time>2026-03-28T13:57:42.19Z</time></trkpt><trkpt lat="43.4099764" lon="11.3526718"><ele>468.5</ele><time>2026-03-28T13:57:44.191Z</time></trkpt><trkpt lat="43.4100567" lon="11.3525861"><ele>468.6666666666667</ele><time>2026-03-28T13:57:46.19Z</time></trkpt><trkpt lat="43.4101255" lon="11.3525135"><ele>468.83333333333337</ele><time>2026-03-28T13:57:48.191Z</time></trkpt><trkpt lat="43.4101789" lon="11.3524501"><ele>469.0</ele><time>2026-03-28T13:57:50.19Z</time></trkpt><trkpt lat="43.4102769" lon="11.3523675"><ele>469.0</ele><time>2026-03-28T13:58:53.19Z</time></trkpt><trkpt lat="43.4104012" lon="11.352322"><ele>469.0</ele><time>2026-03-28T13:58:55.19Z</time></trkpt><trkpt lat="43.4104886" lon="11.352307"><ele>469.0</ele><time>2026-03-28T13:58:56.19Z</time></trkpt><trkpt lat="43.4105734" lon="11.3522902"><ele>469.0</ele><time>2026-03-28T13:58:57.19Z</time></trkpt><trkpt lat="43.4106684" lon="11.3522678"><ele>469.0</ele><time>2026-03-28T13:58:58.191Z</time></trkpt><trkpt lat="43.4107739" lon="11.3522328"><ele>469.5</ele><time>2026-03-28T13:58:59.191Z</time></trkpt><trkpt lat="43.4108892" lon="11.352204"><ele>470.0</ele><time>2026-03-28T13:59:00.19Z</time></trkpt><trkpt lat="43.4110095" lon="11.3521771"><ele>470.5</ele><time>2026-03-28T13:59:01.19Z</time></trkpt><trkpt lat="43.4111341" lon="11.352145"><ele>471.0</ele><time>2026-03-28T13:59:02.191Z</time></trkpt><trkpt lat="43.4112717" lon="11.3521099"><ele>469.66666666666663</ele><time>2026-03-28T13:59:03.19Z</time></trkpt><trkpt lat="43.4114182" lon="11.3520716"><ele>468.3333333333333</ele><time>2026-03-28T13:59:04.191Z</time></trkpt><trkpt lat="43.4115754" lon="11.3520314"><ele>467.0</ele><time>2026-03-28T13:59:05.191Z</time></trkpt><trkpt lat="43.4117265" lon="11.3519939"><ele>467.0</ele><time>2026-03-28T13:59:06.191Z</time></trkpt><trkpt lat="43.4118752" lon="11.3519597"><ele>467.0</ele><time>2026-03-28T13:59:07.191Z</time></trkpt><trkpt lat="43.4120228" lon="11.3519239"><ele>467.0</ele><time>2026-03-28T13:59:08.19Z</time></trkpt><trkpt lat="43.4121665" lon="11.3518863"><ele>467.0</ele><time>2026-03-28T13:59:09.19Z</time></trkpt><trkpt lat="43.4123102" lon="11.3518512"><ele>468.25</ele><time>2026-03-28T13:59:10.189Z</time></trkpt><trkpt lat="43.4124574" lon="11.3518178"><ele>469.5</ele><time>2026-03-28T13:59:11.191Z</time></trkpt><trkpt lat="43.4126025" lon="11.3517802"><ele>470.75</ele><time>2026-03-28T13:59:12.19Z</time></trkpt><trkpt lat="43.412736" lon="11.3517318"><ele>472.0</ele><time>2026-03-28T13:59:13.19Z</time></trkpt><trkpt lat="43.4128626" lon="11.3516531"><ele>472.0</ele><time>2026-03-28T13:59:14.191Z</time></trkpt><trkpt lat="43.4129793" lon="11.3515402"><ele>472.0</ele><time>2026-03-28T13:59:15.191Z</time></trkpt><trkpt lat="43.4130886" lon="11.3514036"><ele>472.0</ele><time>2026-03-28T13:59:16.19Z</time></trkpt><trkpt lat="43.4131909" lon="11.3512565"><ele>472.0</ele><time>2026-03-28T13:59:17.19Z</time></trkpt><trkpt lat="43.4132956" lon="11.3511088"><ele>474.0</ele><time>2026-03-28T13:59:18.191Z</time></trkpt><trkpt lat="43.4134034" lon="11.3509597"><ele>476.0</ele><time>2026-03-28T13:59:19.19Z</time></trkpt><trkpt lat="43.4135124" lon="11.3508209"><ele>478.0</ele><time>2026-03-28T13:59:20.19Z</time></trkpt><trkpt lat="43.4136134" lon="11.3506882"><ele>480.0</ele><time>2026-03-28T13:59:21.189Z</time></trkpt><trkpt lat="43.4137035" lon="11.3505633"><ele>482.75</ele><time>2026-03-28T13:59:22.19Z</time></trkpt><trkpt lat="43.4137906" lon="11.3504548"><ele>485.5</ele><time>2026-03-28T13:59:23.19Z</time></trkpt><trkpt lat="43.4139002" lon="11.3503796"><ele>488.25</ele><time>2026-03-28T13:59:24.191Z</time></trkpt><trkpt lat="43.4140158" lon="11.3503615"><ele>491.0</ele><time>2026-03-28T13:59:25.191Z</time></trkpt><trkpt lat="43.4141224" lon="11.3503859"><ele>491.6</ele><time>2026-03-28T13:59:26.191Z</time></trkpt><trkpt lat="43.4142239" lon="11.350428"><ele>492.20000000000005</ele><time>2026-03-28T13:59:27.19Z</time></trkpt><trkpt lat="43.4143187" lon="11.3504668"><ele>492.79999999999995</ele><time>2026-03-28T13:59:28.191Z</time></trkpt><trkpt lat="43.4144119" lon="11.3504791"><ele>493.4</ele><time>2026-03-28T13:59:29.19Z</time></trkpt><trkpt lat="43.4144998" lon="11.3504389"><ele>494.0</ele><time>2026-03-28T13:59:30.191Z</time></trkpt><trkpt lat="43.4145651" lon="11.3503483"><ele>494.0</ele><time>2026-03-28T13:59:31.19Z</time></trkpt><trkpt lat="43.4146016" lon="11.3502391"><ele>494.0</ele><time>2026-03-28T13:59:32.19Z</time></trkpt><trkpt lat="43.4146194" lon="11.3500954"><ele>494.0</ele><time>2026-03-28T13:59:33.191Z</time></trkpt><trkpt lat="43.4146278" lon="11.3499365"><ele>494.0</ele><time>2026-03-28T13:59:34.19Z</time></trkpt><trkpt lat="43.414634" lon="11.3497849"><ele>494.0</ele><time>2026-03-28T13:59:35.191Z</time></trkpt><trkpt lat="43.4146347" lon="11.3496326"><ele>493.25</ele><time>2026-03-28T13:59:36.191Z</time></trkpt><trkpt lat="43.4146443" lon="11.3494662"><ele>492.5</ele><time>2026-03-28T13:59:37.19Z</time></trkpt><trkpt lat="43.4146884" lon="11.3493068"><ele>491.75</ele><time>2026-03-28T13:59:38.19Z</time></trkpt><trkpt lat="43.4147619" lon="11.3491723"><ele>491.0</ele><time>2026-03-28T13:59:39.19Z</time></trkpt><trkpt lat="43.4148596" lon="11.3490537"><ele>491.0</ele><time>2026-03-28T13:59:40.19Z</time></trkpt><trkpt lat="43.4149694" lon="11.3489566"><ele>491.0</ele><time>2026-03-28T13:59:41.191Z</time></trkpt><trkpt lat="43.4150819" lon="11.3488836"><ele>491.0</ele><time>2026-03-28T13:59:42.191Z</time></trkpt><trkpt lat="43.4152011" lon="11.3488419"><ele>491.0</ele><time>2026-03-28T13:59:43.19Z</time></trkpt><trkpt lat="43.4153219" lon="11.3488508"><ele>491.0</ele><time>2026-03-28T13:59:44.189Z</time></trkpt><trkpt lat="43.4154393" lon="11.3488889"><ele>491.0</ele><time>2026-03-28T13:59:45.191Z</time></trkpt><trkpt lat="43.4155529" lon="11.3489303"><ele>491.0</ele><time>2026-03-28T13:59:46.19Z</time></trkpt><trkpt lat="43.4156805" lon="11.3489513"><ele>491.0</ele><time>2026-03-28T13:59:47.191Z</time></trkpt><trkpt lat="43.415812" lon="11.3489473"><ele>490.75</ele><time>2026-03-28T13:59:48.191Z</time></trkpt><trkpt lat="43.4159412" lon="11.3489279"><ele>490.5</ele><time>2026-03-28T13:59:49.19Z</time></trkpt><trkpt lat="43.4160673" lon="11.3489014"><ele>490.25</ele><time>2026-03-28T13:59:50.19Z</time></trkpt><trkpt lat="43.4161816" lon="11.3488809"><ele>490.0</ele><time>2026-03-28T13:59:51.19Z</time></trkpt><trkpt lat="43.4162775" lon="11.3488687"><ele>491.00000000000006</ele><time>2026-03-28T13:59:52.19Z</time></trkpt><trkpt lat="43.4163679" lon="11.3488569"><ele>492.0</ele><time>2026-03-28T13:59:53.19Z</time></trkpt><trkpt lat="43.4164503" lon="11.3488454"><ele>493.0</ele><time>2026-03-28T13:59:54.19Z</time></trkpt><trkpt lat="43.4165171" lon="11.3488344"><ele>494.0</ele><time>2026-03-28T13:59:55.191Z</time></trkpt><trkpt lat="43.4165891" lon="11.3488287"><ele>495.00000000000006</ele><time>2026-03-28T13:59:56.19Z</time></trkpt><trkpt lat="43.4166864" lon="11.3488909"><ele>496.0</ele><time>2026-03-28T13:59:58.19Z</time></trkpt><trkpt lat="43.4167477" lon="11.3490272"><ele>496.0</ele><time>2026-03-28T14:00:00.19Z</time></trkpt><trkpt lat="43.4167896" lon="11.3491122"><ele>496.0</ele><time>2026-03-28T14:00:01.19Z</time></trkpt><trkpt lat="43.4168469" lon="11.3492044"><ele>496.0</ele><time>2026-03-28T14:00:02.191Z</time></trkpt><trkpt lat="43.416914" lon="11.3493024"><ele>496.0</ele><time>2026-03-28T14:00:03.19Z</time></trkpt><trkpt lat="43.4169836" lon="11.3493991"><ele>496.0</ele><time>2026-03-28T14:00:04.19Z</time></trkpt><trkpt lat="43.41706" lon="11.3494929"><ele>496.0</ele><time>2026-03-28T14:00:05.191Z</time></trkpt><trkpt lat="43.4171434" lon="11.3495852"><ele>496.0</ele><time>2026-03-28T14:00:06.191Z</time></trkpt><trkpt lat="43.4172354" lon="11.3496722"><ele>496.0</ele><time>2026-03-28T14:00:07.191Z</time></trkpt><trkpt lat="43.4173294" lon="11.3497519"><ele>496.0</ele><time>2026-03-28T14:00:08.19Z</time></trkpt><trkpt lat="43.4174251" lon="11.3498322"><ele>496.0</ele><time>2026-03-28T14:00:09.19Z</time></trkpt><trkpt lat="43.4175274" lon="11.3499145"><ele>495.6</ele><time>2026-03-28T14:00:10.191Z</time></trkpt><trkpt lat="43.4176215" lon="11.349999"><ele>495.20000000000005</ele><time>2026-03-28T14:00:11.191Z</time></trkpt><trkpt lat="43.4176985" lon="11.3500959"><ele>494.79999999999995</ele><time>2026-03-28T14:00:12.19Z</time></trkpt><trkpt lat="43.4177567" lon="11.3501908"><ele>494.4</ele><time>2026-03-28T14:00:13.19Z</time></trkpt><trkpt lat="43.4178104" lon="11.350287"><ele>494.0</ele><time>2026-03-28T14:00:14.19Z</time></trkpt><trkpt lat="43.4178628" lon="11.3503881"><ele>494.0</ele><time>2026-03-28T14:00:15.19Z</time></trkpt><trkpt lat="43.41792" lon="11.3504926"><ele>494.0</ele><time>2026-03-28T14:00:16.19Z</time></trkpt><trkpt lat="43.4179803" lon="11.3505993"><ele>494.0</ele><time>2026-03-28T14:00:17.191Z</time></trkpt><trkpt lat="43.418039" lon="11.3506981"><ele>494.0</ele><time>2026-03-28T14:00:18.19Z</time></trkpt><trkpt lat="43.4180959" lon="11.3507856"><ele>494.0</ele><time>2026-03-28T14:00:19.19Z</time></trkpt><trkpt lat="43.4181512" lon="11.3508674"><ele>492.49999999999994</ele><time>2026-03-28T14:00:20.19Z</time></trkpt><trkpt lat="43.4182006" lon="11.3509527"><ele>491.0</ele><time>2026-03-28T14:00:21.191Z</time></trkpt><trkpt lat="43.4182535" lon="11.3510432"><ele>489.5</ele><time>2026-03-28T14:00:22.19Z</time></trkpt><trkpt lat="43.4182979" lon="11.3511343"><ele>488.0</ele><time>2026-03-28T14:00:23.19Z</time></trkpt><trkpt lat="43.4183366" lon="11.3512337"><ele>486.49999999999994</ele><time>2026-03-28T14:00:24.191Z</time></trkpt><trkpt lat="43.4183713" lon="11.3513394"><ele>485.0</ele><time>2026-03-28T14:00:25.191Z</time></trkpt><trkpt lat="43.4183979" lon="11.3514453"><ele>484.2</ele><time>2026-03-28T14:00:26.191Z</time></trkpt><trkpt lat="43.4184209" lon="11.351557"><ele>483.4</ele><time>2026-03-28T14:00:27.191Z</time></trkpt><trkpt lat="43.4184435" lon="11.3516788"><ele>482.6</ele><time>2026-03-28T14:00:28.19Z</time></trkpt><trkpt lat="43.418471" lon="11.3518068"><ele>481.8</ele><time>2026-03-28T14:00:29.191Z</time></trkpt><trkpt lat="43.4185081" lon="11.3519327"><ele>481.0</ele><time>2026-03-28T14:00:30.19Z</time></trkpt><trkpt lat="43.4185476" lon="11.3520472"><ele>481.00000000000006</ele><time>2026-03-28T14:00:31.191Z</time></trkpt><trkpt lat="43.4185899" lon="11.3521585"><ele>481.0</ele><time>2026-03-28T14:00:32.19Z</time></trkpt><trkpt lat="43.4186302" lon="11.3522572"><ele>481.0</ele><time>2026-03-28T14:00:33.19Z</time></trkpt><trkpt lat="43.4186677" lon="11.3523503"><ele>481.0</ele><time>2026-03-28T14:00:34.19Z</time></trkpt><trkpt lat="43.4186931" lon="11.3524526"><ele>481.00000000000006</ele><time>2026-03-28T14:00:35.191Z</time></trkpt><trkpt lat="43.4187195" lon="11.3525603"><ele>481.0</ele><time>2026-03-28T14:00:36.19Z</time></trkpt><trkpt lat="43.4187332" lon="11.3526752"><ele>479.00000000000006</ele><time>2026-03-28T14:00:37.19Z</time></trkpt><trkpt lat="43.418743" lon="11.3527954"><ele>477.0</ele><time>2026-03-28T14:00:38.191Z</time></trkpt><trkpt lat="43.4187368" lon="11.3528934"><ele>475.0</ele><time>2026-03-28T14:00:39.19Z</time></trkpt><trkpt lat="43.4187217" lon="11.3529861"><ele>473.0</ele><time>2026-03-28T14:00:40.19Z</time></trkpt><trkpt lat="43.4187133" lon="11.3530749"><ele>471.00000000000006</ele><time>2026-03-28T14:00:41.191Z</time></trkpt><trkpt lat="43.41872" lon="11.3532355"><ele>469.0</ele><time>2026-03-28T14:00:43.189Z</time></trkpt><trkpt lat="43.4188024" lon="11.3533305"><ele>468.50000000000006</ele><time>2026-03-28T14:00:45.19Z</time></trkpt><trkpt lat="43.4189216" lon="11.353326"><ele>468.0</ele><time>2026-03-28T14:00:47.19Z</time></trkpt><trkpt lat="43.418984" lon="11.3533016"><ele>467.5</ele><time>2026-03-28T14:00:48.191Z</time></trkpt><trkpt lat="43.4190509" lon="11.3532632"><ele>467.0</ele><time>2026-03-28T14:00:49.19Z</time></trkpt><trkpt lat="43.4191213" lon="11.3532244"><ele>466.50000000000006</ele><time>2026-03-28T14:00:50.19Z</time></trkpt><trkpt lat="43.4191978" lon="11.3531825"><ele>466.0</ele><time>2026-03-28T14:00:51.19Z</time></trkpt><trkpt lat="43.4192749" lon="11.3531579"><ele>466.0</ele><time>2026-03-28T14:00:52.191Z</time></trkpt><trkpt lat="43.4193541" lon="11.3531575"><ele>466.0</ele><time>2026-03-28T14:00:53.191Z</time></trkpt><trkpt lat="43.41948" lon="11.3532479"><ele>466.0</ele><time>2026-03-28T14:00:55.191Z</time></trkpt><trkpt lat="43.4195393" lon="11.3533092"><ele>466.0</ele><time>2026-03-28T14:00:56.191Z</time></trkpt><trkpt lat="43.4196037" lon="11.3533679"><ele>466.0</ele><time>2026-03-28T14:00:57.19Z</time></trkpt><trkpt lat="43.419673" lon="11.3534191"><ele>463.2857142857143</ele><time>2026-03-28T14:00:58.19Z</time></trkpt><trkpt lat="43.4197368" lon="11.3534742"><ele>460.57142857142856</ele><time>2026-03-28T14:00:59.19Z</time></trkpt><trkpt lat="43.4197908" lon="11.3535383"><ele>457.85714285714283</ele><time>2026-03-28T14:01:00.19Z</time></trkpt><trkpt lat="43.4198323" lon="11.3536222"><ele>455.1428571428571</ele><time>2026-03-28T14:01:01.19Z</time></trkpt><trkpt lat="43.4198597" lon="11.3537112"><ele>452.42857142857144</ele><time>2026-03-28T14:01:02.19Z</time></trkpt><trkpt lat="43.4198776" lon="11.3538129"><ele>449.71428571428567</ele><time>2026-03-28T14:01:03.19Z</time></trkpt><trkpt lat="43.4198825" lon="11.3539204"><ele>447.0</ele><time>2026-03-28T14:01:04.191Z</time></trkpt><trkpt lat="43.4198839" lon="11.3540343"><ele>447.0</ele><time>2026-03-28T14:01:05.19Z</time></trkpt><trkpt lat="43.4198855" lon="11.3541582"><ele>447.00000000000006</ele><time>2026-03-28T14:01:06.191Z</time></trkpt><trkpt lat="43.4198984" lon="11.354286"><ele>447.00000000000006</ele><time>2026-03-28T14:01:07.19Z</time></trkpt><trkpt lat="43.4199221" lon="11.354406"><ele>447.0</ele><time>2026-03-28T14:01:08.191Z</time></trkpt><trkpt lat="43.4199611" lon="11.3545246"><ele>447.0</ele><time>2026-03-28T14:01:09.191Z</time></trkpt><trkpt lat="43.4199998" lon="11.3546347"><ele>445.8</ele><time>2026-03-28T14:01:10.19Z</time></trkpt><trkpt lat="43.4200445" lon="11.3547548"><ele>444.6</ele><time>2026-03-28T14:01:11.19Z</time></trkpt><trkpt lat="43.4200948" lon="11.3548795"><ele>443.40000000000003</ele><time>2026-03-28T14:01:12.191Z</time></trkpt><trkpt lat="43.4201306" lon="11.3550041"><ele>442.20000000000005</ele><time>2026-03-28T14:01:13.19Z</time></trkpt><trkpt lat="43.4201721" lon="11.3551261"><ele>441.0</ele><time>2026-03-28T14:01:14.191Z</time></trkpt><trkpt lat="43.420206" lon="11.3552497"><ele>441.0</ele><time>2026-03-28T14:01:15.191Z</time></trkpt><trkpt lat="43.4202509" lon="11.3553729"><ele>441.0</ele><time>2026-03-28T14:01:16.19Z</time></trkpt><trkpt lat="43.4203087" lon="11.3554856"><ele>441.0</ele><time>2026-03-28T14:01:17.19Z</time></trkpt><trkpt lat="43.4203671" lon="11.3555805"><ele>441.0</ele><time>2026-03-28T14:01:18.191Z</time></trkpt><trkpt lat="43.4204208" lon="11.3556663"><ele>441.0</ele><time>2026-03-28T14:01:19.191Z</time></trkpt><trkpt lat="43.4204719" lon="11.3557552"><ele>440.1666666666667</ele><time>2026-03-28T14:01:20.19Z</time></trkpt><trkpt lat="43.4205102" lon="11.3558359"><ele>439.33333333333337</ele><time>2026-03-28T14:01:21.191Z</time></trkpt><trkpt lat="43.4205506" lon="11.3559359"><ele>438.5</ele><time>2026-03-28T14:01:22.191Z</time></trkpt><trkpt lat="43.4205853" lon="11.3560472"><ele>437.6666666666667</ele><time>2026-03-28T14:01:23.19Z</time></trkpt><trkpt lat="43.4206059" lon="11.3561557"><ele>436.83333333333337</ele><time>2026-03-28T14:01:24.19Z</time></trkpt><trkpt lat="43.4206059" lon="11.356263"><ele>436.0</ele><time>2026-03-28T14:01:25.19Z</time></trkpt><trkpt lat="43.4205969" lon="11.3563718"><ele>436.00000000000006</ele><time>2026-03-28T14:01:26.19Z</time></trkpt><trkpt lat="43.4206057" lon="11.3564824"><ele>436.0</ele><time>2026-03-28T14:01:27.19Z</time></trkpt><trkpt lat="43.4206281" lon="11.3565891"><ele>436.0</ele><time>2026-03-28T14:01:28.19Z</time></trkpt><trkpt lat="43.4206515" lon="11.3566921"><ele>436.0</ele><time>2026-03-28T14:01:29.191Z</time></trkpt><trkpt lat="43.4207064" lon="11.3567969"><ele>436.00000000000006</ele><time>2026-03-28T14:01:30.191Z</time></trkpt><trkpt lat="43.4207537" lon="11.3569027"><ele>436.0</ele><time>2026-03-28T14:01:31.19Z</time></trkpt><trkpt lat="43.4208014" lon="11.3570156"><ele>436.0</ele><time>2026-03-28T14:01:32.191Z</time></trkpt><trkpt lat="43.4208495" lon="11.3571309"><ele>436.0</ele><time>2026-03-28T14:01:33.19Z</time></trkpt><trkpt lat="43.4208964" lon="11.3572465"><ele>436.0</ele><time>2026-03-28T14:01:34.191Z</time></trkpt><trkpt lat="43.4209412" lon="11.3573541"><ele>436.0</ele><time>2026-03-28T14:01:35.19Z</time></trkpt><trkpt lat="43.420986" lon="11.3574542"><ele>436.0</ele><time>2026-03-28T14:01:36.19Z</time></trkpt><trkpt lat="43.4210237" lon="11.3575612"><ele>435.20000000000005</ele><time>2026-03-28T14:01:37.19Z</time></trkpt><trkpt lat="43.421043" lon="11.3576674"><ele>434.40000000000003</ele><time>2026-03-28T14:01:38.191Z</time></trkpt><trkpt lat="43.4210568" lon="11.3577836"><ele>433.6</ele><time>2026-03-28T14:01:39.191Z</time></trkpt><trkpt lat="43.4210674" lon="11.3579105"><ele>432.8</ele><time>2026-03-28T14:01:40.191Z</time></trkpt><trkpt lat="43.4210765" lon="11.3580423"><ele>432.0</ele><time>2026-03-28T14:01:41.19Z</time></trkpt><trkpt lat="43.4210865" lon="11.3581773"><ele>432.0</ele><time>2026-03-28T14:01:42.19Z</time></trkpt><trkpt lat="43.4210974" lon="11.3583108"><ele>432.0</ele><time>2026-03-28T14:01:43.19Z</time></trkpt><trkpt lat="43.4211095" lon="11.3584307"><ele>432.0</ele><time>2026-03-28T14:01:44.191Z</time></trkpt><trkpt lat="43.4211235" lon="11.3585565"><ele>432.0</ele><time>2026-03-28T14:01:45.19Z</time></trkpt><trkpt lat="43.4211326" lon="11.3586739"><ele>432.0</ele><time>2026-03-28T14:01:46.19Z</time></trkpt><trkpt lat="43.4211386" lon="11.3587895"><ele>432.0</ele><time>2026-03-28T14:01:47.191Z</time></trkpt><trkpt lat="43.421146" lon="11.3589073"><ele>432.0</ele><time>2026-03-28T14:01:48.191Z</time></trkpt><trkpt lat="43.4211524" lon="11.3590244"><ele>432.0</ele><time>2026-03-28T14:01:49.19Z</time></trkpt><trkpt lat="43.4211623" lon="11.3591381"><ele>432.0</ele><time>2026-03-28T14:01:50.19Z</time></trkpt><trkpt lat="43.4211755" lon="11.3592507"><ele>432.0</ele><time>2026-03-28T14:01:51.19Z</time></trkpt><trkpt lat="43.4211921" lon="11.3593687"><ele>432.0</ele><time>2026-03-28T14:01:52.19Z</time></trkpt><trkpt lat="43.421215" lon="11.3594817"><ele>432.0</ele><time>2026-03-28T14:01:53.191Z</time></trkpt><trkpt lat="43.421244" lon="11.3595876"><ele>432.0</ele><time>2026-03-28T14:01:54.191Z</time></trkpt><trkpt lat="43.4212739" lon="11.359683"><ele>432.0</ele><time>2026-03-28T14:01:55.191Z</time></trkpt><trkpt lat="43.4213039" lon="11.3597676"><ele>432.0</ele><time>2026-03-28T14:01:56.19Z</time></trkpt><trkpt lat="43.4213406" lon="11.3598483"><ele>432.0</ele><time>2026-03-28T14:01:57.191Z</time></trkpt><trkpt lat="43.4213901" lon="11.3599275"><ele>432.0</ele><time>2026-03-28T14:01:58.19Z</time></trkpt><trkpt lat="43.4214457" lon="11.3600047"><ele>432.0</ele><time>2026-03-28T14:01:59.191Z</time></trkpt><trkpt lat="43.4215036" lon="11.3600892"><ele>431.3333333333333</ele><time>2026-03-28T14:02:00.19Z</time></trkpt><trkpt lat="43.4215654" lon="11.3601802"><ele>430.66666666666663</ele><time>2026-03-28T14:02:01.19Z</time></trkpt><trkpt lat="43.4216241" lon="11.3602675"><ele>430.0</ele><time>2026-03-28T14:02:02.19Z</time></trkpt><trkpt lat="43.421681" lon="11.3603488"><ele>429.3333333333333</ele><time>2026-03-28T14:02:03.191Z</time></trkpt><trkpt lat="43.4217295" lon="11.3604167"><ele>428.66666666666663</ele><time>2026-03-28T14:02:04.191Z</time></trkpt><trkpt lat="43.4218149" lon="11.3605321"><ele>428.0</ele><time>2026-03-28T14:02:06.191Z</time></trkpt><trkpt lat="43.4219019" lon="11.3606526"><ele>427.99999999999994</ele><time>2026-03-28T14:02:08.19Z</time></trkpt><trkpt lat="43.4219459" lon="11.3607175"><ele>428.0</ele><time>2026-03-28T14:02:09.191Z</time></trkpt><trkpt lat="43.4219886" lon="11.3607881"><ele>428.0</ele><time>2026-03-28T14:02:10.19Z</time></trkpt><trkpt lat="43.4220259" lon="11.360863"><ele>428.0</ele><time>2026-03-28T14:02:11.19Z</time></trkpt><trkpt lat="43.4220589" lon="11.3609395"><ele>427.99999999999994</ele><time>2026-03-28T14:02:12.191Z</time></trkpt><trkpt lat="43.4221179" lon="11.361092"><ele>428.0</ele><time>2026-03-28T14:02:14.19Z</time></trkpt><trkpt lat="43.4221495" lon="11.3611744"><ele>426.28571428571433</ele><time>2026-03-28T14:02:15.19Z</time></trkpt><trkpt lat="43.4221846" lon="11.3612621"><ele>424.57142857142856</ele><time>2026-03-28T14:02:16.19Z</time></trkpt><trkpt lat="43.4222202" lon="11.3613531"><ele>422.8571428571429</ele><time>2026-03-28T14:02:17.19Z</time></trkpt><trkpt lat="43.4222537" lon="11.361439"><ele>421.14285714285717</ele><time>2026-03-28T14:02:18.191Z</time></trkpt><trkpt lat="43.4222848" lon="11.3615193"><ele>419.42857142857144</ele><time>2026-03-28T14:02:19.19Z</time></trkpt><trkpt lat="43.4223084" lon="11.3616012"><ele>417.7142857142857</ele><time>2026-03-28T14:02:20.191Z</time></trkpt><trkpt lat="43.4223129" lon="11.3616894"><ele>416.0</ele><time>2026-03-28T14:02:21.191Z</time></trkpt><trkpt lat="43.422296" lon="11.3617769"><ele>415.99999999999994</ele><time>2026-03-28T14:02:22.19Z</time></trkpt><trkpt lat="43.4222593" lon="11.3618486"><ele>416.0</ele><time>2026-03-28T14:02:23.19Z</time></trkpt><trkpt lat="43.4222057" lon="11.3619152"><ele>416.0</ele><time>2026-03-28T14:02:24.19Z</time></trkpt><trkpt lat="43.4221435" lon="11.3619709"><ele>416.0</ele><time>2026-03-28T14:02:25.191Z</time></trkpt><trkpt lat="43.4220809" lon="11.3620287"><ele>415.99999999999994</ele><time>2026-03-28T14:02:26.19Z</time></trkpt><trkpt lat="43.4220105" lon="11.3620949"><ele>416.0</ele><time>2026-03-28T14:02:27.19Z</time></trkpt><trkpt lat="43.42193" lon="11.3621685"><ele>414.20000000000005</ele><time>2026-03-28T14:02:28.19Z</time></trkpt><trkpt lat="43.4218434" lon="11.362251"><ele>412.40000000000003</ele><time>2026-03-28T14:02:29.19Z</time></trkpt><trkpt lat="43.4217528" lon="11.3623464"><ele>410.6</ele><time>2026-03-28T14:02:30.19Z</time></trkpt><trkpt lat="43.4216654" lon="11.3624314"><ele>408.8</ele><time>2026-03-28T14:02:31.191Z</time></trkpt><trkpt lat="43.421576" lon="11.3625092"><ele>407.0</ele><time>2026-03-28T14:02:32.191Z</time></trkpt><trkpt lat="43.4214802" lon="11.3625769"><ele>407.0</ele><time>2026-03-28T14:02:33.19Z</time></trkpt><trkpt lat="43.4213764" lon="11.3626256"><ele>407.0</ele><time>2026-03-28T14:02:34.189Z</time></trkpt><trkpt lat="43.4212636" lon="11.3626548"><ele>407.0</ele><time>2026-03-28T14:02:35.19Z</time></trkpt><trkpt lat="43.4211437" lon="11.3626718"><ele>407.0</ele><time>2026-03-28T14:02:36.191Z</time></trkpt><trkpt lat="43.4210195" lon="11.3626899"><ele>407.40000000000003</ele><time>2026-03-28T14:02:37.191Z</time></trkpt><trkpt lat="43.4208996" lon="11.3627015"><ele>407.8</ele><time>2026-03-28T14:02:38.191Z</time></trkpt><trkpt lat="43.4207966" lon="11.3627115"><ele>408.2</ele><time>2026-03-28T14:02:39.19Z</time></trkpt><trkpt lat="43.4206983" lon="11.3627257"><ele>408.6</ele><time>2026-03-28T14:02:40.19Z</time></trkpt><trkpt lat="43.4206033" lon="11.3627359"><ele>409.0</ele><time>2026-03-28T14:02:41.19Z</time></trkpt><trkpt lat="43.4205162" lon="11.3627398"><ele>407.79999999999995</ele><time>2026-03-28T14:02:42.19Z</time></trkpt><trkpt lat="43.4204321" lon="11.3627477"><ele>406.59999999999997</ele><time>2026-03-28T14:02:43.19Z</time></trkpt><trkpt lat="43.4203583" lon="11.3627545"><ele>405.4</ele><time>2026-03-28T14:02:44.191Z</time></trkpt><trkpt lat="43.420237" lon="11.3627668"><ele>404.2</ele><time>2026-03-28T14:02:46.191Z</time></trkpt><trkpt lat="43.4201387" lon="11.3627813"><ele>403.0</ele><time>2026-03-28T14:02:48.19Z</time></trkpt><trkpt lat="43.4200462" lon="11.3627895"><ele>403.00000000000006</ele><time>2026-03-28T14:02:50.19Z</time></trkpt><trkpt lat="43.4199698" lon="11.3627851"><ele>403.0</ele><time>2026-03-28T14:02:52.191Z</time></trkpt><trkpt lat="43.4199151" lon="11.3628394"><ele>403.0</ele><time>2026-03-28T14:02:54.19Z</time></trkpt><trkpt lat="43.4199003" lon="11.3629737"><ele>403.0</ele><time>2026-03-28T14:02:56.191Z</time></trkpt><trkpt lat="43.4199112" lon="11.3630711"><ele>403.00000000000006</ele><time>2026-03-28T14:02:57.19Z</time></trkpt><trkpt lat="43.4199206" lon="11.3631732"><ele>403.0</ele><time>2026-03-28T14:02:58.191Z</time></trkpt><trkpt lat="43.4199297" lon="11.3632992"><ele>400.25</ele><time>2026-03-28T14:02:59.19Z</time></trkpt><trkpt lat="43.4199382" lon="11.3634438"><ele>397.5</ele><time>2026-03-28T14:03:00.19Z</time></trkpt><trkpt lat="43.4199473" lon="11.363598"><ele>394.75</ele><time>2026-03-28T14:03:01.19Z</time></trkpt><trkpt lat="43.4199562" lon="11.3637558"><ele>392.0</ele><time>2026-03-28T14:03:02.19Z</time></trkpt><trkpt lat="43.419967" lon="11.3639214"><ele>388.75</ele><time>2026-03-28T14:03:03.191Z</time></trkpt><trkpt lat="43.4199762" lon="11.3640842"><ele>385.5</ele><time>2026-03-28T14:03:04.19Z</time></trkpt><trkpt lat="43.4199836" lon="11.364267"><ele>382.25</ele><time>2026-03-28T14:03:05.19Z</time></trkpt><trkpt lat="43.4199899" lon="11.3644504"><ele>379.0</ele><time>2026-03-28T14:03:06.19Z</time></trkpt><trkpt lat="43.4200032" lon="11.3646333"><ele>377.25</ele><time>2026-03-28T14:03:07.19Z</time></trkpt><trkpt lat="43.4200206" lon="11.3648245"><ele>375.5</ele><time>2026-03-28T14:03:08.191Z</time></trkpt><trkpt lat="43.4200524" lon="11.365012"><ele>373.75</ele><time>2026-03-28T14:03:09.191Z</time></trkpt><trkpt lat="43.4200916" lon="11.3652014"><ele>372.0</ele><time>2026-03-28T14:03:10.191Z</time></trkpt><trkpt lat="43.4201267" lon="11.3653917"><ele>372.75</ele><time>2026-03-28T14:03:11.19Z</time></trkpt><trkpt lat="43.4201622" lon="11.3655785"><ele>373.5</ele><time>2026-03-28T14:03:12.19Z</time></trkpt><trkpt lat="43.4201985" lon="11.3657681"><ele>374.25</ele><time>2026-03-28T14:03:13.19Z</time></trkpt><trkpt lat="43.420236" lon="11.365955"><ele>375.0</ele><time>2026-03-28T14:03:14.19Z</time></trkpt><trkpt lat="43.4202752" lon="11.3661403"><ele>375.0</ele><time>2026-03-28T14:03:15.191Z</time></trkpt><trkpt lat="43.4203124" lon="11.366326"><ele>375.0</ele><time>2026-03-28T14:03:16.191Z</time></trkpt><trkpt lat="43.4203457" lon="11.3665073"><ele>375.0</ele><time>2026-03-28T14:03:17.19Z</time></trkpt><trkpt lat="43.4203751" lon="11.3666857"><ele>375.0</ele><time>2026-03-28T14:03:18.19Z</time></trkpt><trkpt lat="43.4204045" lon="11.3668638"><ele>377.0</ele><time>2026-03-28T14:03:19.19Z</time></trkpt><trkpt lat="43.4204327" lon="11.3670467"><ele>379.0</ele><time>2026-03-28T14:03:20.19Z</time></trkpt><trkpt lat="43.4204565" lon="11.3672305"><ele>381.0</ele><time>2026-03-28T14:03:21.191Z</time></trkpt><trkpt lat="43.4204775" lon="11.3674185"><ele>383.0</ele><time>2026-03-28T14:03:22.191Z</time></trkpt><trkpt lat="43.4204954" lon="11.367612"><ele>383.0</ele><time>2026-03-28T14:03:23.19Z</time></trkpt><trkpt lat="43.4205146" lon="11.3678027"><ele>383.0</ele><time>2026-03-28T14:03:24.191Z</time></trkpt><trkpt lat="43.4205381" lon="11.3679926"><ele>383.0</ele><time>2026-03-28T14:03:25.191Z</time></trkpt><trkpt lat="43.4205573" lon="11.3681836"><ele>383.0</ele><time>2026-03-28T14:03:26.19Z</time></trkpt><trkpt lat="43.4205722" lon="11.3683754"><ele>384.25</ele><time>2026-03-28T14:03:27.19Z</time></trkpt><trkpt lat="43.4205846" lon="11.3685447"><ele>385.5</ele><time>2026-03-28T14:03:28.19Z</time></trkpt><trkpt lat="43.420596" lon="11.3687136"><ele>386.75</ele><time>2026-03-28T14:03:29.19Z</time></trkpt><trkpt lat="43.4206059" lon="11.3688729"><ele>388.0</ele><time>2026-03-28T14:03:30.19Z</time></trkpt><trkpt lat="43.4206156" lon="11.3690407"><ele>388.25</ele><time>2026-03-28T14:03:31.19Z</time></trkpt><trkpt lat="43.4206276" lon="11.3692065"><ele>388.5</ele><time>2026-03-28T14:03:32.191Z</time></trkpt><trkpt lat="43.4206388" lon="11.3693674"><ele>388.75</ele><time>2026-03-28T14:03:33.191Z</time></trkpt><trkpt lat="43.4206513" lon="11.3695342"><ele>389.0</ele><time>2026-03-28T14:03:34.19Z</time></trkpt><trkpt lat="43.4206615" lon="11.3696943"><ele>389.0</ele><time>2026-03-28T14:03:35.191Z</time></trkpt><trkpt lat="43.4206711" lon="11.3698536"><ele>389.0</ele><time>2026-03-28T14:03:36.19Z</time></trkpt><trkpt lat="43.4206758" lon="11.370007"><ele>389.0</ele><time>2026-03-28T14:03:37.191Z</time></trkpt><trkpt lat="43.4206761" lon="11.3701479"><ele>389.0</ele><time>2026-03-28T14:03:38.19Z</time></trkpt><trkpt lat="43.4206725" lon="11.3702755"><ele>389.0</ele><time>2026-03-28T14:03:39.19Z</time></trkpt><trkpt lat="43.4206667" lon="11.3703929"><ele>388.99999999999994</ele><time>2026-03-28T14:03:40.19Z</time></trkpt><trkpt lat="43.4206608" lon="11.3705042"><ele>389.0</ele><time>2026-03-28T14:03:41.19Z</time></trkpt><trkpt lat="43.42066" lon="11.3706134"><ele>389.0</ele><time>2026-03-28T14:03:42.19Z</time></trkpt><trkpt lat="43.4206563" lon="11.3707271"><ele>389.0</ele><time>2026-03-28T14:03:43.19Z</time></trkpt><trkpt lat="43.4206532" lon="11.3708341"><ele>388.99999999999994</ele><time>2026-03-28T14:03:44.19Z</time></trkpt><trkpt lat="43.4206318" lon="11.3709267"><ele>389.0</ele><time>2026-03-28T14:03:45.191Z</time></trkpt><trkpt lat="43.4206059" lon="11.3710354"><ele>387.8333333333333</ele><time>2026-03-28T14:03:46.19Z</time></trkpt><trkpt lat="43.4205842" lon="11.3711448"><ele>386.66666666666663</ele><time>2026-03-28T14:03:47.19Z</time></trkpt><trkpt lat="43.420559" lon="11.3712573"><ele>385.5</ele><time>2026-03-28T14:03:48.191Z</time></trkpt><trkpt lat="43.420523" lon="11.3713587"><ele>384.3333333333333</ele><time>2026-03-28T14:03:49.19Z</time></trkpt><trkpt lat="43.4204838" lon="11.3714764"><ele>383.16666666666663</ele><time>2026-03-28T14:03:50.191Z</time></trkpt><trkpt lat="43.4204349" lon="11.3715837"><ele>382.0</ele><time>2026-03-28T14:03:51.191Z</time></trkpt><trkpt lat="43.4203944" lon="11.3716886"><ele>379.66666666666663</ele><time>2026-03-28T14:03:52.191Z</time></trkpt><trkpt lat="43.4203543" lon="11.3718005"><ele>377.3333333333333</ele><time>2026-03-28T14:03:53.19Z</time></trkpt><trkpt lat="43.420309" lon="11.3719148"><ele>375.0</ele><time>2026-03-28T14:03:54.19Z</time></trkpt><trkpt lat="43.4202688" lon="11.3720255"><ele>372.6666666666667</ele><time>2026-03-28T14:03:55.191Z</time></trkpt><trkpt lat="43.4202309" lon="11.3721329"><ele>370.33333333333337</ele><time>2026-03-28T14:03:56.191Z</time></trkpt><trkpt lat="43.4202016" lon="11.372229"><ele>368.0</ele><time>2026-03-28T14:03:57.19Z</time></trkpt><trkpt lat="43.4201777" lon="11.3723156"><ele>366.6666666666667</ele><time>2026-03-28T14:03:58.19Z</time></trkpt><trkpt lat="43.420148" lon="11.3724133"><ele>365.33333333333337</ele><time>2026-03-28T14:03:59.19Z</time></trkpt><trkpt lat="43.420112" lon="11.3725014"><ele>364.0</ele><time>2026-03-28T14:04:00.19Z</time></trkpt><trkpt lat="43.4200667" lon="11.3725991"><ele>362.6666666666667</ele><time>2026-03-28T14:04:01.191Z</time></trkpt><trkpt lat="43.4200166" lon="11.3726925"><ele>361.3333333333333</ele><time>2026-03-28T14:04:02.19Z</time></trkpt><trkpt lat="43.4199585" lon="11.3727869"><ele>360.0</ele><time>2026-03-28T14:04:03.19Z</time></trkpt><trkpt lat="43.4198989" lon="11.3728775"><ele>360.0</ele><time>2026-03-28T14:04:04.19Z</time></trkpt><trkpt lat="43.4198404" lon="11.3729571"><ele>360.0</ele><time>2026-03-28T14:04:05.19Z</time></trkpt><trkpt lat="43.4197865" lon="11.3730321"><ele>360.0</ele><time>2026-03-28T14:04:06.191Z</time></trkpt><trkpt lat="43.4197351" lon="11.3731183"><ele>360.0</ele><time>2026-03-28T14:04:07.191Z</time></trkpt><trkpt lat="43.4196851" lon="11.3732125"><ele>360.0</ele><time>2026-03-28T14:04:08.19Z</time></trkpt><trkpt lat="43.419641" lon="11.3733139"><ele>360.0</ele><time>2026-03-28T14:04:09.19Z</time></trkpt><trkpt lat="43.419602" lon="11.37342"><ele>356.0</ele><time>2026-03-28T14:04:10.19Z</time></trkpt><trkpt lat="43.4195594" lon="11.3735247"><ele>352.0</ele><time>2026-03-28T14:04:11.19Z</time></trkpt><trkpt lat="43.4195124" lon="11.3736318"><ele>348.0</ele><time>2026-03-28T14:04:12.19Z</time></trkpt><trkpt lat="43.4194674" lon="11.3737428"><ele>344.0</ele><time>2026-03-28T14:04:13.19Z</time></trkpt><trkpt lat="43.4194243" lon="11.3738603"><ele>340.0</ele><time>2026-03-28T14:04:14.19Z</time></trkpt><trkpt lat="43.4193809" lon="11.3739765"><ele>339.16666666666663</ele><time>2026-03-28T14:04:15.191Z</time></trkpt><trkpt lat="43.4193367" lon="11.3740823"><ele>338.3333333333333</ele><time>2026-03-28T14:04:16.19Z</time></trkpt><trkpt lat="43.4192918" lon="11.3741822"><ele>337.5</ele><time>2026-03-28T14:04:17.19Z</time></trkpt><trkpt lat="43.4192531" lon="11.3742754"><ele>336.6666666666667</ele><time>2026-03-28T14:04:18.19Z</time></trkpt><trkpt lat="43.4192199" lon="11.3743617"><ele>335.83333333333337</ele><time>2026-03-28T14:04:19.191Z</time></trkpt><trkpt lat="43.4191831" lon="11.3744437"><ele>335.0</ele><time>2026-03-28T14:04:20.191Z</time></trkpt><trkpt lat="43.4190951" lon="11.3745486"><ele>335.0</ele><time>2026-03-28T14:04:22.191Z</time></trkpt><trkpt lat="43.418995" lon="11.374532"><ele>335.0</ele><time>2026-03-28T14:04:24.19Z</time></trkpt><trkpt lat="43.4189494" lon="11.3744715"><ele>335.0</ele><time>2026-03-28T14:04:25.19Z</time></trkpt><trkpt lat="43.4188923" lon="11.374323"><ele>335.0</ele><time>2026-03-28T14:04:27.191Z</time></trkpt><trkpt lat="43.4188379" lon="11.3741711"><ele>335.0</ele><time>2026-03-28T14:04:29.19Z</time></trkpt><trkpt lat="43.4188087" lon="11.3740924"><ele>333.6</ele><time>2026-03-28T14:04:30.19Z</time></trkpt><trkpt lat="43.4187539" lon="11.3739594"><ele>332.2</ele><time>2026-03-28T14:04:32.191Z</time></trkpt><trkpt lat="43.4186517" lon="11.3738892"><ele>330.79999999999995</ele><time>2026-03-28T14:04:34.19Z</time></trkpt><trkpt lat="43.4185458" lon="11.3739512"><ele>329.4</ele><time>2026-03-28T14:04:36.19Z</time></trkpt><trkpt lat="43.418491" lon="11.3740334"><ele>328.0</ele><time>2026-03-28T14:04:37.19Z</time></trkpt><trkpt lat="43.4184291" lon="11.37413"><ele>328.0</ele><time>2026-03-28T14:04:38.19Z</time></trkpt><trkpt lat="43.4183839" lon="11.3742513"><ele>328.0</ele><time>2026-03-28T14:04:39.19Z</time></trkpt><trkpt lat="43.4183371" lon="11.3743747"><ele>328.0</ele><time>2026-03-28T14:04:40.191Z</time></trkpt><trkpt lat="43.4182849" lon="11.3744944"><ele>328.0</ele><time>2026-03-28T14:04:41.19Z</time></trkpt><trkpt lat="43.4182225" lon="11.3746371"><ele>328.0</ele><time>2026-03-28T14:04:42.19Z</time></trkpt><trkpt lat="43.4181565" lon="11.3747707"><ele>326.3333333333333</ele><time>2026-03-28T14:04:43.19Z</time></trkpt><trkpt lat="43.4180897" lon="11.3748952"><ele>324.66666666666663</ele><time>2026-03-28T14:04:44.19Z</time></trkpt><trkpt lat="43.4180242" lon="11.3749953"><ele>323.0</ele><time>2026-03-28T14:04:45.191Z</time></trkpt><trkpt lat="43.4179639" lon="11.3750624"><ele>321.3333333333333</ele><time>2026-03-28T14:04:46.19Z</time></trkpt><trkpt lat="43.4179083" lon="11.3751117"><ele>319.6666666666667</ele><time>2026-03-28T14:04:47.189Z</time></trkpt><trkpt lat="43.4178495" lon="11.37516"><ele>318.0</ele><time>2026-03-28T14:04:48.191Z</time></trkpt><trkpt lat="43.4177873" lon="11.3751968"><ele>316.6666666666667</ele><time>2026-03-28T14:04:49.191Z</time></trkpt><trkpt lat="43.4177213" lon="11.3752307"><ele>315.3333333333333</ele><time>2026-03-28T14:04:50.19Z</time></trkpt><trkpt lat="43.4176536" lon="11.3752651"><ele>314.0</ele><time>2026-03-28T14:04:51.19Z</time></trkpt><trkpt lat="43.4175813" lon="11.3753113"><ele>312.66666666666663</ele><time>2026-03-28T14:04:52.19Z</time></trkpt><trkpt lat="43.4175063" lon="11.3753556"><ele>311.3333333333333</ele><time>2026-03-28T14:04:53.191Z</time></trkpt><trkpt lat="43.4174327" lon="11.3753794"><ele>310.0</ele><time>2026-03-28T14:04:54.189Z</time></trkpt><trkpt lat="43.4173607" lon="11.3753908"><ele>310.0</ele><time>2026-03-28T14:04:55.19Z</time></trkpt><trkpt lat="43.4172958" lon="11.375385"><ele>310.0</ele><time>2026-03-28T14:04:56.189Z</time></trkpt><trkpt lat="43.417176" lon="11.3753373"><ele>310.0</ele><time>2026-03-28T14:04:58.189Z</time></trkpt><trkpt lat="43.4171177" lon="11.3752952"><ele>310.0</ele><time>2026-03-28T14:04:59.19Z</time></trkpt><trkpt lat="43.4170668" lon="11.3752382"><ele>310.0</ele><time>2026-03-28T14:05:00.189Z</time></trkpt><trkpt lat="43.4170122" lon="11.3751746"><ele>310.0</ele><time>2026-03-28T14:05:01.189Z</time></trkpt><trkpt lat="43.416955" lon="11.3751104"><ele>308.7142857142857</ele><time>2026-03-28T14:05:02.19Z</time></trkpt><trkpt lat="43.4168922" lon="11.3750601"><ele>307.42857142857144</ele><time>2026-03-28T14:05:03.189Z</time></trkpt><trkpt lat="43.4168224" lon="11.375038"><ele>306.1428571428571</ele><time>2026-03-28T14:05:04.189Z</time></trkpt><trkpt lat="43.4167481" lon="11.3750408"><ele>304.8571428571429</ele><time>2026-03-28T14:05:05.189Z</time></trkpt><trkpt lat="43.4166786" lon="11.375069"><ele>303.57142857142856</ele><time>2026-03-28T14:05:06.189Z</time></trkpt><trkpt lat="43.4166175" lon="11.3751237"><ele>302.2857142857143</ele><time>2026-03-28T14:05:07.189Z</time></trkpt><trkpt lat="43.4165675" lon="11.3752064"><ele>301.0</ele><time>2026-03-28T14:05:08.189Z</time></trkpt><trkpt lat="43.4165317" lon="11.3753028"><ele>301.0</ele><time>2026-03-28T14:05:09.189Z</time></trkpt><trkpt lat="43.4165188" lon="11.375406"><ele>301.0</ele><time>2026-03-28T14:05:10.189Z</time></trkpt><trkpt lat="43.4165219" lon="11.3755075"><ele>301.0</ele><time>2026-03-28T14:05:11.189Z</time></trkpt><trkpt lat="43.4165308" lon="11.3756053"><ele>301.0</ele><time>2026-03-28T14:05:12.189Z</time></trkpt><trkpt lat="43.4165423" lon="11.3757099"><ele>301.0</ele><time>2026-03-28T14:05:13.189Z</time></trkpt><trkpt lat="43.4165585" lon="11.3758281"><ele>301.0</ele><time>2026-03-28T14:05:14.19Z</time></trkpt><trkpt lat="43.4165641" lon="11.3759352"><ele>300.8</ele><time>2026-03-28T14:05:15.19Z</time></trkpt><trkpt lat="43.4165651" lon="11.376067"><ele>300.6</ele><time>2026-03-28T14:05:16.19Z</time></trkpt><trkpt lat="43.4165454" lon="11.3761903"><ele>300.4</ele><time>2026-03-28T14:05:17.19Z</time></trkpt><trkpt lat="43.4165343" lon="11.3763326"><ele>300.2</ele><time>2026-03-28T14:05:18.19Z</time></trkpt><trkpt lat="43.4165073" lon="11.3764615"><ele>300.0</ele><time>2026-03-28T14:05:19.189Z</time></trkpt><trkpt lat="43.4164754" lon="11.3765612"><ele>299.8</ele><time>2026-03-28T14:05:20.189Z</time></trkpt><trkpt lat="43.4164437" lon="11.3766727"><ele>299.6</ele><time>2026-03-28T14:05:21.19Z</time></trkpt><trkpt lat="43.4164191" lon="11.3767962"><ele>299.4</ele><time>2026-03-28T14:05:22.189Z</time></trkpt><trkpt lat="43.4163973" lon="11.3769286"><ele>299.2</ele><time>2026-03-28T14:05:23.19Z</time></trkpt><trkpt lat="43.4163783" lon="11.3770757"><ele>299.0</ele><time>2026-03-28T14:05:24.19Z</time></trkpt><trkpt lat="43.4163569" lon="11.3772221"><ele>298.4</ele><time>2026-03-28T14:05:25.189Z</time></trkpt><trkpt lat="43.416332" lon="11.3773568"><ele>297.79999999999995</ele><time>2026-03-28T14:05:26.189Z</time></trkpt><trkpt lat="43.4162977" lon="11.3774965"><ele>297.20000000000005</ele><time>2026-03-28T14:05:27.189Z</time></trkpt><trkpt lat="43.4162567" lon="11.3776454"><ele>296.6</ele><time>2026-03-28T14:05:28.189Z</time></trkpt><trkpt lat="43.4162133" lon="11.3777983"><ele>296.0</ele><time>2026-03-28T14:05:29.189Z</time></trkpt><trkpt lat="43.4161723" lon="11.3779558"><ele>299.25</ele><time>2026-03-28T14:05:30.189Z</time></trkpt><trkpt lat="43.4161306" lon="11.3781209"><ele>302.5</ele><time>2026-03-28T14:05:31.19Z</time></trkpt><trkpt lat="43.4160857" lon="11.3782894"><ele>305.75</ele><time>2026-03-28T14:05:32.189Z</time></trkpt><trkpt lat="43.416044" lon="11.3784632"><ele>309.0</ele><time>2026-03-28T14:05:33.19Z</time></trkpt><trkpt lat="43.416009" lon="11.3786364"><ele>309.0</ele><time>2026-03-28T14:05:34.189Z</time></trkpt><trkpt lat="43.4159811" lon="11.378816"><ele>309.0</ele><time>2026-03-28T14:05:35.189Z</time></trkpt><trkpt lat="43.4159654" lon="11.3790003"><ele>309.0</ele><time>2026-03-28T14:05:36.189Z</time></trkpt><trkpt lat="43.4159606" lon="11.3791796"><ele>309.0</ele><time>2026-03-28T14:05:37.189Z</time></trkpt><trkpt lat="43.4159514" lon="11.3793583"><ele>308.0</ele><time>2026-03-28T14:05:38.189Z</time></trkpt><trkpt lat="43.415932" lon="11.379506"><ele>307.0</ele><time>2026-03-28T14:05:39.189Z</time></trkpt><trkpt lat="43.4158995" lon="11.3796337"><ele>306.0</ele><time>2026-03-28T14:05:40.189Z</time></trkpt><trkpt lat="43.4158446" lon="11.3797699"><ele>305.0</ele><time>2026-03-28T14:05:41.189Z</time></trkpt><trkpt lat="43.4157746" lon="11.3799072"><ele>304.0</ele><time>2026-03-28T14:05:42.19Z</time></trkpt><trkpt lat="43.4156895" lon="11.3800554"><ele>304.25</ele><time>2026-03-28T14:05:43.19Z</time></trkpt><trkpt lat="43.4156088" lon="11.3801874"><ele>304.5</ele><time>2026-03-28T14:05:44.189Z</time></trkpt><trkpt lat="43.4155266" lon="11.3803107"><ele>304.75</ele><time>2026-03-28T14:05:45.189Z</time></trkpt><trkpt lat="43.4154391" lon="11.3804084"><ele>305.0</ele><time>2026-03-28T14:05:46.19Z</time></trkpt><trkpt lat="43.4153433" lon="11.3804813"><ele>302.75</ele><time>2026-03-28T14:05:47.189Z</time></trkpt><trkpt lat="43.4152328" lon="11.3805398"><ele>300.5</ele><time>2026-03-28T14:05:48.19Z</time></trkpt><trkpt lat="43.4151226" lon="11.3805817"><ele>298.25</ele><time>2026-03-28T14:05:49.189Z</time></trkpt><trkpt lat="43.4150116" lon="11.380623"><ele>296.0</ele><time>2026-03-28T14:05:50.189Z</time></trkpt><trkpt lat="43.4148891" lon="11.3806816"><ele>296.0</ele><time>2026-03-28T14:05:51.189Z</time></trkpt><trkpt lat="43.4147666" lon="11.380755"><ele>296.0</ele><time>2026-03-28T14:05:52.19Z</time></trkpt><trkpt lat="43.4146383" lon="11.380841"><ele>296.0</ele><time>2026-03-28T14:05:53.189Z</time></trkpt><trkpt lat="43.4145156" lon="11.3809258"><ele>296.0</ele><time>2026-03-28T14:05:54.189Z</time></trkpt><trkpt lat="43.4143964" lon="11.3810118"><ele>295.0</ele><time>2026-03-28T14:05:55.19Z</time></trkpt><trkpt lat="43.4142769" lon="11.3811077"><ele>294.0</ele><time>2026-03-28T14:05:56.189Z</time></trkpt><trkpt lat="43.4141707" lon="11.3812026"><ele>293.0</ele><time>2026-03-28T14:05:57.19Z</time></trkpt><trkpt lat="43.4140636" lon="11.3813132"><ele>292.0</ele><time>2026-03-28T14:05:58.189Z</time></trkpt><trkpt lat="43.4139667" lon="11.3814215"><ele>292.0</ele><time>2026-03-28T14:05:59.19Z</time></trkpt><trkpt lat="43.4138658" lon="11.3815042"><ele>292.0</ele><time>2026-03-28T14:06:00.19Z</time></trkpt><trkpt lat="43.4137449" lon="11.3815769"><ele>292.0</ele><time>2026-03-28T14:06:01.189Z</time></trkpt><trkpt lat="43.4136219" lon="11.3816234"><ele>292.0</ele><time>2026-03-28T14:06:02.189Z</time></trkpt><trkpt lat="43.4134879" lon="11.3816719"><ele>292.75</ele><time>2026-03-28T14:06:03.189Z</time></trkpt><trkpt lat="43.4133534" lon="11.3817225"><ele>293.5</ele><time>2026-03-28T14:06:04.19Z</time></trkpt><trkpt lat="43.4132287" lon="11.381768"><ele>294.25</ele><time>2026-03-28T14:06:05.189Z</time></trkpt><trkpt lat="43.413103" lon="11.3818124"><ele>295.0</ele><time>2026-03-28T14:06:06.189Z</time></trkpt><trkpt lat="43.4129824" lon="11.3818464"><ele>296.75</ele><time>2026-03-28T14:06:07.19Z</time></trkpt><trkpt lat="43.4128678" lon="11.3818751"><ele>298.5</ele><time>2026-03-28T14:06:08.19Z</time></trkpt><trkpt lat="43.4127447" lon="11.3819057"><ele>300.25</ele><time>2026-03-28T14:06:09.19Z</time></trkpt><trkpt lat="43.4126178" lon="11.3819448"><ele>302.0</ele><time>2026-03-28T14:06:10.19Z</time></trkpt><trkpt lat="43.4124941" lon="11.3819832"><ele>302.0</ele><time>2026-03-28T14:06:11.19Z</time></trkpt><trkpt lat="43.4123824" lon="11.3820219"><ele>302.0</ele><time>2026-03-28T14:06:12.189Z</time></trkpt><trkpt lat="43.412264" lon="11.38206"><ele>302.0</ele><time>2026-03-28T14:06:13.19Z</time></trkpt><trkpt lat="43.4121472" lon="11.3820942"><ele>302.0</ele><time>2026-03-28T14:06:14.189Z</time></trkpt><trkpt lat="43.412025" lon="11.3821278"><ele>300.75</ele><time>2026-03-28T14:06:15.19Z</time></trkpt><trkpt lat="43.411896" lon="11.3821597"><ele>299.5</ele><time>2026-03-28T14:06:16.189Z</time></trkpt><trkpt lat="43.4117648" lon="11.3821897"><ele>298.25</ele><time>2026-03-28T14:06:17.19Z</time></trkpt><trkpt lat="43.4116304" lon="11.3822231"><ele>297.0</ele><time>2026-03-28T14:06:18.19Z</time></trkpt><trkpt lat="43.4115013" lon="11.3822531"><ele>293.25</ele><time>2026-03-28T14:06:19.189Z</time></trkpt><trkpt lat="43.4113755" lon="11.3822819"><ele>289.5</ele><time>2026-03-28T14:06:20.189Z</time></trkpt><trkpt lat="43.4112604" lon="11.3823097"><ele>285.75</ele><time>2026-03-28T14:06:21.189Z</time></trkpt><trkpt lat="43.4111524" lon="11.3823357"><ele>282.0</ele><time>2026-03-28T14:06:22.189Z</time></trkpt><trkpt lat="43.4110442" lon="11.3823415"><ele>281.5</ele><time>2026-03-28T14:06:23.19Z</time></trkpt><trkpt lat="43.4109329" lon="11.3823229"><ele>281.0</ele><time>2026-03-28T14:06:24.189Z</time></trkpt><trkpt lat="43.4108145" lon="11.3822824"><ele>280.5</ele><time>2026-03-28T14:06:25.189Z</time></trkpt><trkpt lat="43.4106879" lon="11.3822313"><ele>280.0</ele><time>2026-03-28T14:06:26.189Z</time></trkpt><trkpt lat="43.4105776" lon="11.3821998"><ele>280.4</ele><time>2026-03-28T14:06:27.189Z</time></trkpt><trkpt lat="43.4104741" lon="11.3821752"><ele>280.8</ele><time>2026-03-28T14:06:28.189Z</time></trkpt><trkpt lat="43.4103714" lon="11.3821632"><ele>281.2</ele><time>2026-03-28T14:06:29.189Z</time></trkpt><trkpt lat="43.410257" lon="11.3821629"><ele>281.6</ele><time>2026-03-28T14:06:30.19Z</time></trkpt><trkpt lat="43.4101316" lon="11.382177"><ele>282.0</ele><time>2026-03-28T14:06:31.189Z</time></trkpt><trkpt lat="43.4100055" lon="11.3822"><ele>282.0</ele><time>2026-03-28T14:06:32.19Z</time></trkpt><trkpt lat="43.4098964" lon="11.3822166"><ele>282.0</ele><time>2026-03-28T14:06:33.189Z</time></trkpt><trkpt lat="43.4097983" lon="11.3822497"><ele>282.0</ele><time>2026-03-28T14:06:34.189Z</time></trkpt><trkpt lat="43.4097085" lon="11.3822949"><ele>282.0</ele><time>2026-03-28T14:06:35.189Z</time></trkpt><trkpt lat="43.4096248" lon="11.3823702"><ele>282.0</ele><time>2026-03-28T14:06:36.189Z</time></trkpt><trkpt lat="43.4095524" lon="11.3824686"><ele>284.4</ele><time>2026-03-28T14:06:37.19Z</time></trkpt><trkpt lat="43.4094727" lon="11.382572"><ele>286.79999999999995</ele><time>2026-03-28T14:06:38.189Z</time></trkpt><trkpt lat="43.4093914" lon="11.382678"><ele>289.2</ele><time>2026-03-28T14:06:39.189Z</time></trkpt><trkpt lat="43.4092938" lon="11.382759"><ele>291.59999999999997</ele><time>2026-03-28T14:06:40.19Z</time></trkpt><trkpt lat="43.4091921" lon="11.3828286"><ele>294.0</ele><time>2026-03-28T14:06:41.19Z</time></trkpt><trkpt lat="43.4090827" lon="11.3828992"><ele>294.0</ele><time>2026-03-28T14:06:42.19Z</time></trkpt><trkpt lat="43.4089625" lon="11.3829734"><ele>294.0</ele><time>2026-03-28T14:06:43.189Z</time></trkpt><trkpt lat="43.4088387" lon="11.3830388"><ele>294.0</ele><time>2026-03-28T14:06:44.189Z</time></trkpt><trkpt lat="43.4087104" lon="11.3831022"><ele>294.0</ele><time>2026-03-28T14:06:45.189Z</time></trkpt><trkpt lat="43.4085835" lon="11.3831641"><ele>291.0</ele><time>2026-03-28T14:06:46.188Z</time></trkpt><trkpt lat="43.4084428" lon="11.3832223"><ele>288.0</ele><time>2026-03-28T14:06:47.189Z</time></trkpt><trkpt lat="43.4083139" lon="11.3832719"><ele>285.0</ele><time>2026-03-28T14:06:48.189Z</time></trkpt><trkpt lat="43.4081969" lon="11.3833241"><ele>282.0</ele><time>2026-03-28T14:06:49.19Z</time></trkpt><trkpt lat="43.4080886" lon="11.3833929"><ele>283.0</ele><time>2026-03-28T14:06:50.19Z</time></trkpt><trkpt lat="43.4079883" lon="11.3834705"><ele>284.0</ele><time>2026-03-28T14:06:51.189Z</time></trkpt><trkpt lat="43.4078995" lon="11.3835876"><ele>285.0</ele><time>2026-03-28T14:06:52.189Z</time></trkpt><trkpt lat="43.4078077" lon="11.3837283"><ele>286.0</ele><time>2026-03-28T14:06:53.189Z</time></trkpt><trkpt lat="43.407716" lon="11.3838786"><ele>283.75</ele><time>2026-03-28T14:06:54.189Z</time></trkpt><trkpt lat="43.4076294" lon="11.3840262"><ele>281.5</ele><time>2026-03-28T14:06:55.189Z</time></trkpt><trkpt lat="43.4075477" lon="11.3841678"><ele>279.25</ele><time>2026-03-28T14:06:56.19Z</time></trkpt><trkpt lat="43.407472" lon="11.3842826"><ele>277.0</ele><time>2026-03-28T14:06:57.19Z</time></trkpt><trkpt lat="43.4073896" lon="11.3843799"><ele>277.0</ele><time>2026-03-28T14:06:58.189Z</time></trkpt><trkpt lat="43.4073015" lon="11.3844474"><ele>277.0</ele><time>2026-03-28T14:06:59.189Z</time></trkpt><trkpt lat="43.4072037" lon="11.38451"><ele>277.0</ele><time>2026-03-28T14:07:00.19Z</time></trkpt><trkpt lat="43.407099" lon="11.38456"><ele>277.0</ele><time>2026-03-28T14:07:01.189Z</time></trkpt><trkpt lat="43.4069893" lon="11.3846057"><ele>277.0</ele><time>2026-03-28T14:07:02.19Z</time></trkpt><trkpt lat="43.4068805" lon="11.384659"><ele>277.75</ele><time>2026-03-28T14:07:03.19Z</time></trkpt><trkpt lat="43.4067719" lon="11.3847245"><ele>278.5</ele><time>2026-03-28T14:07:04.189Z</time></trkpt><trkpt lat="43.4066654" lon="11.3848019"><ele>279.25</ele><time>2026-03-28T14:07:05.19Z</time></trkpt><trkpt lat="43.4065619" lon="11.3848861"><ele>280.0</ele><time>2026-03-28T14:07:06.19Z</time></trkpt><trkpt lat="43.4064634" lon="11.384958"><ele>280.0</ele><time>2026-03-28T14:07:07.189Z</time></trkpt><trkpt lat="43.4063646" lon="11.3850223"><ele>280.0</ele><time>2026-03-28T14:07:08.19Z</time></trkpt><trkpt lat="43.4062598" lon="11.3850833"><ele>280.0</ele><time>2026-03-28T14:07:09.189Z</time></trkpt><trkpt lat="43.4061485" lon="11.3851319"><ele>280.0</ele><time>2026-03-28T14:07:10.189Z</time></trkpt><trkpt lat="43.4060334" lon="11.3851728"><ele>281.6</ele><time>2026-03-28T14:07:11.19Z</time></trkpt><trkpt lat="43.405928" lon="11.3852064"><ele>283.2</ele><time>2026-03-28T14:07:12.189Z</time></trkpt><trkpt lat="43.4058353" lon="11.3852435"><ele>284.8</ele><time>2026-03-28T14:07:13.189Z</time></trkpt><trkpt lat="43.4057466" lon="11.3852992"><ele>286.4</ele><time>2026-03-28T14:07:14.189Z</time></trkpt><trkpt lat="43.4056753" lon="11.3853764"><ele>288.0</ele><time>2026-03-28T14:07:15.189Z</time></trkpt><trkpt lat="43.4056168" lon="11.3854876"><ele>288.5</ele><time>2026-03-28T14:07:16.188Z</time></trkpt><trkpt lat="43.4055766" lon="11.3856327"><ele>289.0</ele><time>2026-03-28T14:07:17.189Z</time></trkpt><trkpt lat="43.4055462" lon="11.3857932"><ele>289.5</ele><time>2026-03-28T14:07:18.19Z</time></trkpt><trkpt lat="43.4055059" lon="11.38596"><ele>290.0</ele><time>2026-03-28T14:07:19.189Z</time></trkpt><trkpt lat="43.4054545" lon="11.3861315"><ele>290.0</ele><time>2026-03-28T14:07:20.189Z</time></trkpt><trkpt lat="43.4054014" lon="11.3862875"><ele>290.0</ele><time>2026-03-28T14:07:21.189Z</time></trkpt><trkpt lat="43.405347" lon="11.3864622"><ele>290.0</ele><time>2026-03-28T14:07:22.19Z</time></trkpt><trkpt lat="43.4052925" lon="11.386646"><ele>290.0</ele><time>2026-03-28T14:07:23.189Z</time></trkpt><trkpt lat="43.4052458" lon="11.3868295"><ele>288.75</ele><time>2026-03-28T14:07:24.189Z</time></trkpt><trkpt lat="43.4052126" lon="11.3870168"><ele>287.5</ele><time>2026-03-28T14:07:25.19Z</time></trkpt><trkpt lat="43.4051896" lon="11.3872164"><ele>286.25</ele><time>2026-03-28T14:07:26.19Z</time></trkpt><trkpt lat="43.4051769" lon="11.3874063"><ele>285.0</ele><time>2026-03-28T14:07:27.19Z</time></trkpt><trkpt lat="43.4051743" lon="11.3876063"><ele>284.5</ele><time>2026-03-28T14:07:28.189Z</time></trkpt><trkpt lat="43.405187" lon="11.3878022"><ele>284.0</ele><time>2026-03-28T14:07:29.189Z</time></trkpt><trkpt lat="43.4052204" lon="11.3879802"><ele>283.5</ele><time>2026-03-28T14:07:30.19Z</time></trkpt><trkpt lat="43.4052685" lon="11.3881556"><ele>283.0</ele><time>2026-03-28T14:07:31.189Z</time></trkpt><trkpt lat="43.4053147" lon="11.3883395"><ele>284.5</ele><time>2026-03-28T14:07:32.189Z</time></trkpt><trkpt lat="43.4053535" lon="11.3885307"><ele>286.0</ele><time>2026-03-28T14:07:33.189Z</time></trkpt><trkpt lat="43.405386" lon="11.3887074"><ele>287.5</ele><time>2026-03-28T14:07:34.189Z</time></trkpt><trkpt lat="43.4054056" lon="11.3888748"><ele>289.0</ele><time>2026-03-28T14:07:35.19Z</time></trkpt><trkpt lat="43.4054078" lon="11.3890334"><ele>289.8</ele><time>2026-03-28T14:07:36.19Z</time></trkpt><trkpt lat="43.405401" lon="11.3891819"><ele>290.59999999999997</ele><time>2026-03-28T14:07:37.19Z</time></trkpt><trkpt lat="43.4053863" lon="11.3893331"><ele>291.4</ele><time>2026-03-28T14:07:38.189Z</time></trkpt><trkpt lat="43.4053594" lon="11.3894784"><ele>292.2</ele><time>2026-03-28T14:07:39.189Z</time></trkpt><trkpt lat="43.4053297" lon="11.389617"><ele>293.0</ele><time>2026-03-28T14:07:40.19Z</time></trkpt><trkpt lat="43.4053046" lon="11.3897428"><ele>291.6666666666667</ele><time>2026-03-28T14:07:41.189Z</time></trkpt><trkpt lat="43.4052857" lon="11.3898548"><ele>290.33333333333337</ele><time>2026-03-28T14:07:42.189Z</time></trkpt><trkpt lat="43.4052673" lon="11.3899709"><ele>289.0</ele><time>2026-03-28T14:07:43.189Z</time></trkpt><trkpt lat="43.4052473" lon="11.3900919"><ele>287.6666666666667</ele><time>2026-03-28T14:07:44.189Z</time></trkpt><trkpt lat="43.4052163" lon="11.3902129"><ele>286.3333333333333</ele><time>2026-03-28T14:07:45.19Z</time></trkpt><trkpt lat="43.4051724" lon="11.390329"><ele>285.0</ele><time>2026-03-28T14:07:46.189Z</time></trkpt><trkpt lat="43.4051191" lon="11.3904353"><ele>283.6666666666667</ele><time>2026-03-28T14:07:47.19Z</time></trkpt><trkpt lat="43.4050645" lon="11.3905244"><ele>282.3333333333333</ele><time>2026-03-28T14:07:48.188Z</time></trkpt><trkpt lat="43.4049983" lon="11.3906018"><ele>281.0</ele><time>2026-03-28T14:07:49.19Z</time></trkpt><trkpt lat="43.4049294" lon="11.3906701"><ele>279.66666666666663</ele><time>2026-03-28T14:07:50.19Z</time></trkpt><trkpt lat="43.4048565" lon="11.3907306"><ele>278.3333333333333</ele><time>2026-03-28T14:07:51.189Z</time></trkpt><trkpt lat="43.4047821" lon="11.3907907"><ele>277.0</ele><time>2026-03-28T14:07:52.19Z</time></trkpt><trkpt lat="43.4047049" lon="11.3908498"><ele>278.4</ele><time>2026-03-28T14:07:53.189Z</time></trkpt><trkpt lat="43.4046399" lon="11.3909011"><ele>279.79999999999995</ele><time>2026-03-28T14:07:54.19Z</time></trkpt><trkpt lat="43.4045793" lon="11.3909627"><ele>281.2</ele><time>2026-03-28T14:07:55.189Z</time></trkpt><trkpt lat="43.4045374" lon="11.3910332"><ele>282.59999999999997</ele><time>2026-03-28T14:07:56.189Z</time></trkpt><trkpt lat="43.4045235" lon="11.3911983"><ele>284.0</ele><time>2026-03-28T14:07:58.189Z</time></trkpt><trkpt lat="43.4045856" lon="11.3913303"><ele>282.33333333333337</ele><time>2026-03-28T14:08:00.189Z</time></trkpt><trkpt lat="43.4046774" lon="11.3913893"><ele>280.6666666666667</ele><time>2026-03-28T14:08:02.188Z</time></trkpt><trkpt lat="43.4047585" lon="11.3914278"><ele>279.0</ele><time>2026-03-28T14:08:04.189Z</time></trkpt><trkpt lat="43.4048231" lon="11.3914591"><ele>277.3333333333333</ele><time>2026-03-28T14:08:06.189Z</time></trkpt><trkpt lat="43.4049046" lon="11.3914803"><ele>275.66666666666663</ele><time>2026-03-28T14:08:09.19Z</time></trkpt><trkpt lat="43.404982" lon="11.3915123"><ele>274.0</ele><time>2026-03-28T14:08:13.189Z</time></trkpt><trkpt lat="43.40506" lon="11.3915382"><ele>274.0</ele><time>2026-03-28T14:12:10.189Z</time></trkpt><trkpt lat="43.4051457" lon="11.3915851"><ele>274.0</ele><time>2026-03-28T14:12:13.19Z</time></trkpt><trkpt lat="43.4052448" lon="11.3916335"><ele>274.0</ele><time>2026-03-28T14:12:15.19Z</time></trkpt><trkpt lat="43.4053081" lon="11.3916653"><ele>274.0</ele><time>2026-03-28T14:12:16.189Z</time></trkpt><trkpt lat="43.4053899" lon="11.3917033"><ele>274.0</ele><time>2026-03-28T14:12:17.189Z</time></trkpt><trkpt lat="43.4054765" lon="11.3917473"><ele>274.0</ele><time>2026-03-28T14:12:18.19Z</time></trkpt><trkpt lat="43.4055615" lon="11.3917844"><ele>272.59999999999997</ele><time>2026-03-28T14:12:19.19Z</time></trkpt><trkpt lat="43.4056502" lon="11.3918205"><ele>271.2</ele><time>2026-03-28T14:12:20.19Z</time></trkpt><trkpt lat="43.4057308" lon="11.3918479"><ele>269.79999999999995</ele><time>2026-03-28T14:12:21.189Z</time></trkpt><trkpt lat="43.4058173" lon="11.3918823"><ele>268.4</ele><time>2026-03-28T14:12:22.19Z</time></trkpt><trkpt lat="43.4059084" lon="11.3919215"><ele>267.0</ele><time>2026-03-28T14:12:23.19Z</time></trkpt><trkpt lat="43.406005" lon="11.3919591"><ele>267.0</ele><time>2026-03-28T14:12:24.189Z</time></trkpt><trkpt lat="43.406101" lon="11.3920042"><ele>267.0</ele><time>2026-03-28T14:12:25.19Z</time></trkpt><trkpt lat="43.4061811" lon="11.3920679"><ele>267.0</ele><time>2026-03-28T14:12:26.189Z</time></trkpt><trkpt lat="43.4062621" lon="11.3921548"><ele>267.0</ele><time>2026-03-28T14:12:27.189Z</time></trkpt><trkpt lat="43.4063354" lon="11.3922598"><ele>267.0</ele><time>2026-03-28T14:12:28.189Z</time></trkpt><trkpt lat="43.4063996" lon="11.3923779"><ele>267.0</ele><time>2026-03-28T14:12:29.19Z</time></trkpt><trkpt lat="43.4064566" lon="11.3924948"><ele>267.0</ele><time>2026-03-28T14:12:30.189Z</time></trkpt><trkpt lat="43.406519" lon="11.3926132"><ele>267.0</ele><time>2026-03-28T14:12:31.19Z</time></trkpt><trkpt lat="43.4065823" lon="11.3927179"><ele>267.0</ele><time>2026-03-28T14:12:32.19Z</time></trkpt><trkpt lat="43.4066524" lon="11.3928121"><ele>267.0</ele><time>2026-03-28T14:12:33.189Z</time></trkpt><trkpt lat="43.4067292" lon="11.3928811"><ele>267.0</ele><time>2026-03-28T14:12:34.189Z</time></trkpt><trkpt lat="43.4068158" lon="11.3929234"><ele>267.0</ele><time>2026-03-28T14:12:35.189Z</time></trkpt><trkpt lat="43.4069093" lon="11.392937"><ele>267.0</ele><time>2026-03-28T14:12:36.189Z</time></trkpt><trkpt lat="43.4070098" lon="11.3929316"><ele>267.0</ele><time>2026-03-28T14:12:37.189Z</time></trkpt><trkpt lat="43.4071121" lon="11.3929194"><ele>267.0</ele><time>2026-03-28T14:12:38.189Z</time></trkpt><trkpt lat="43.4072049" lon="11.3929234"><ele>268.0</ele><time>2026-03-28T14:12:39.189Z</time></trkpt><trkpt lat="43.4072881" lon="11.3929593"><ele>269.0</ele><time>2026-03-28T14:12:40.189Z</time></trkpt><trkpt lat="43.407369" lon="11.3930245"><ele>270.0</ele><time>2026-03-28T14:12:41.19Z</time></trkpt><trkpt lat="43.407448" lon="11.3931205"><ele>271.0</ele><time>2026-03-28T14:12:42.189Z</time></trkpt><trkpt lat="43.4075232" lon="11.3932352"><ele>272.0</ele><time>2026-03-28T14:12:43.189Z</time></trkpt><trkpt lat="43.4075873" lon="11.3933394"><ele>272.0</ele><time>2026-03-28T14:12:44.189Z</time></trkpt><trkpt lat="43.4076655" lon="11.3934388"><ele>272.0</ele><time>2026-03-28T14:12:45.189Z</time></trkpt><trkpt lat="43.4077575" lon="11.3935369"><ele>272.0</ele><time>2026-03-28T14:12:46.19Z</time></trkpt><trkpt lat="43.4078572" lon="11.393629"><ele>272.0</ele><time>2026-03-28T14:12:47.19Z</time></trkpt><trkpt lat="43.4079637" lon="11.3937235"><ele>272.0</ele><time>2026-03-28T14:12:48.19Z</time></trkpt><trkpt lat="43.4080751" lon="11.3938172"><ele>272.0</ele><time>2026-03-28T14:12:49.19Z</time></trkpt><trkpt lat="43.4081856" lon="11.3939077"><ele>272.0</ele><time>2026-03-28T14:12:50.189Z</time></trkpt><trkpt lat="43.4083021" lon="11.394009"><ele>272.0</ele><time>2026-03-28T14:12:51.19Z</time></trkpt><trkpt lat="43.408417" lon="11.3941039"><ele>272.0</ele><time>2026-03-28T14:12:52.189Z</time></trkpt><trkpt lat="43.4085338" lon="11.3942049"><ele>272.0</ele><time>2026-03-28T14:12:53.189Z</time></trkpt><trkpt lat="43.408652" lon="11.3943063"><ele>272.0</ele><time>2026-03-28T14:12:54.189Z</time></trkpt><trkpt lat="43.408769" lon="11.3944092"><ele>272.0</ele><time>2026-03-28T14:12:55.188Z</time></trkpt><trkpt lat="43.4088742" lon="11.3945143"><ele>271.75</ele><time>2026-03-28T14:12:56.189Z</time></trkpt><trkpt lat="43.4089644" lon="11.3946292"><ele>271.5</ele><time>2026-03-28T14:12:57.189Z</time></trkpt><trkpt lat="43.4090542" lon="11.3947553"><ele>271.25</ele><time>2026-03-28T14:12:58.189Z</time></trkpt><trkpt lat="43.4091471" lon="11.3948766"><ele>271.0</ele><time>2026-03-28T14:12:59.19Z</time></trkpt><trkpt lat="43.4092399" lon="11.3950019"><ele>271.0</ele><time>2026-03-28T14:13:00.189Z</time></trkpt><trkpt lat="43.4093348" lon="11.3951359"><ele>271.0</ele><time>2026-03-28T14:13:01.189Z</time></trkpt><trkpt lat="43.4094369" lon="11.3952814"><ele>271.0</ele><time>2026-03-28T14:13:02.19Z</time></trkpt><trkpt lat="43.409534" lon="11.3954278"><ele>271.0</ele><time>2026-03-28T14:13:03.189Z</time></trkpt><trkpt lat="43.4096227" lon="11.3955821"><ele>273.0</ele><time>2026-03-28T14:13:04.188Z</time></trkpt><trkpt lat="43.4097107" lon="11.3957456"><ele>275.0</ele><time>2026-03-28T14:13:05.19Z</time></trkpt><trkpt lat="43.4097772" lon="11.3959296"><ele>277.0</ele><time>2026-03-28T14:13:06.189Z</time></trkpt><trkpt lat="43.4098609" lon="11.3960974"><ele>279.0</ele><time>2026-03-28T14:13:07.189Z</time></trkpt><trkpt lat="43.4099298" lon="11.3962662"><ele>276.5</ele><time>2026-03-28T14:13:08.19Z</time></trkpt><trkpt lat="43.4100041" lon="11.3964291"><ele>274.0</ele><time>2026-03-28T14:13:09.189Z</time></trkpt><trkpt lat="43.4100804" lon="11.396596"><ele>271.5</ele><time>2026-03-28T14:13:10.189Z</time></trkpt><trkpt lat="43.4101479" lon="11.3967643"><ele>269.0</ele><time>2026-03-28T14:13:11.189Z</time></trkpt><trkpt lat="43.4101938" lon="11.3969328"><ele>269.0</ele><time>2026-03-28T14:13:12.19Z</time></trkpt><trkpt lat="43.4102272" lon="11.3970969"><ele>269.0</ele><time>2026-03-28T14:13:13.19Z</time></trkpt><trkpt lat="43.4102449" lon="11.3972577"><ele>269.0</ele><time>2026-03-28T14:13:14.189Z</time></trkpt><trkpt lat="43.4102513" lon="11.3974179"><ele>269.0</ele><time>2026-03-28T14:13:15.19Z</time></trkpt><trkpt lat="43.4102558" lon="11.3975747"><ele>268.4</ele><time>2026-03-28T14:13:16.19Z</time></trkpt><trkpt lat="43.4102702" lon="11.3977151"><ele>267.79999999999995</ele><time>2026-03-28T14:13:17.19Z</time></trkpt><trkpt lat="43.4102946" lon="11.3978453"><ele>267.20000000000005</ele><time>2026-03-28T14:13:18.189Z</time></trkpt><trkpt lat="43.4103565" lon="11.3979554"><ele>266.6</ele><time>2026-03-28T14:13:19.19Z</time></trkpt><trkpt lat="43.4104299" lon="11.3980427"><ele>266.0</ele><time>2026-03-28T14:13:20.19Z</time></trkpt><trkpt lat="43.410519" lon="11.3981024"><ele>266.0</ele><time>2026-03-28T14:13:21.188Z</time></trkpt><trkpt lat="43.4106058" lon="11.3981676"><ele>266.0</ele><time>2026-03-28T14:13:22.189Z</time></trkpt><trkpt lat="43.4107225" lon="11.3982174"><ele>266.0</ele><time>2026-03-28T14:13:23.189Z</time></trkpt><trkpt lat="43.4108476" lon="11.3982921"><ele>266.0</ele><time>2026-03-28T14:13:24.189Z</time></trkpt><trkpt lat="43.4109801" lon="11.3983577"><ele>266.0</ele><time>2026-03-28T14:13:25.19Z</time></trkpt><trkpt lat="43.411115" lon="11.3984256"><ele>266.0</ele><time>2026-03-28T14:13:26.188Z</time></trkpt><trkpt lat="43.4112442" lon="11.3984828"><ele>266.0</ele><time>2026-03-28T14:13:27.189Z</time></trkpt><trkpt lat="43.411362" lon="11.398534"><ele>266.0</ele><time>2026-03-28T14:13:28.189Z</time></trkpt><trkpt lat="43.4114776" lon="11.3985793"><ele>266.6</ele><time>2026-03-28T14:13:29.19Z</time></trkpt><trkpt lat="43.4115843" lon="11.3986232"><ele>267.20000000000005</ele><time>2026-03-28T14:13:30.19Z</time></trkpt><trkpt lat="43.4116684" lon="11.3986684"><ele>267.79999999999995</ele><time>2026-03-28T14:13:31.19Z</time></trkpt><trkpt lat="43.4117556" lon="11.398716"><ele>268.4</ele><time>2026-03-28T14:13:32.19Z</time></trkpt><trkpt lat="43.411838" lon="11.3987332"><ele>269.0</ele><time>2026-03-28T14:13:33.189Z</time></trkpt><trkpt lat="43.4119187" lon="11.3987326"><ele>269.0</ele><time>2026-03-28T14:13:34.19Z</time></trkpt><trkpt lat="43.411984" lon="11.3987002"><ele>269.0</ele><time>2026-03-28T14:13:35.19Z</time></trkpt><trkpt lat="43.4120423" lon="11.3986497"><ele>269.0</ele><time>2026-03-28T14:13:36.189Z</time></trkpt><trkpt lat="43.4120687" lon="11.398566"><ele>269.0</ele><time>2026-03-28T14:13:37.189Z</time></trkpt><trkpt lat="43.4121001" lon="11.3984729"><ele>269.0</ele><time>2026-03-28T14:13:38.188Z</time></trkpt><trkpt lat="43.4121339" lon="11.3983684"><ele>269.0</ele><time>2026-03-28T14:13:39.189Z</time></trkpt><trkpt lat="43.4121802" lon="11.3982598"><ele>269.2</ele><time>2026-03-28T14:13:40.189Z</time></trkpt><trkpt lat="43.4122331" lon="11.3981409"><ele>269.4</ele><time>2026-03-28T14:13:41.19Z</time></trkpt><trkpt lat="43.4122889" lon="11.3980316"><ele>269.6</ele><time>2026-03-28T14:13:42.189Z</time></trkpt><trkpt lat="43.4123382" lon="11.3979578"><ele>269.8</ele><time>2026-03-28T14:13:43.189Z</time></trkpt><trkpt lat="43.4123915" lon="11.3979006"><ele>270.0</ele><time>2026-03-28T14:13:44.19Z</time></trkpt><trkpt lat="43.4125043" lon="11.3978828"><ele>270.0</ele><time>2026-03-28T14:13:46.19Z</time></trkpt><trkpt lat="43.4126776" lon="11.3980063"><ele>270.0</ele><time>2026-03-28T14:13:48.19Z</time></trkpt><trkpt lat="43.4127975" lon="11.3980969"><ele>270.0</ele><time>2026-03-28T14:13:49.189Z</time></trkpt><trkpt lat="43.4129285" lon="11.3981733"><ele>271.0</ele><time>2026-03-28T14:13:50.189Z</time></trkpt><trkpt lat="43.4130495" lon="11.3982497"><ele>272.0</ele><time>2026-03-28T14:13:51.19Z</time></trkpt><trkpt lat="43.4131788" lon="11.3983319"><ele>273.0</ele><time>2026-03-28T14:13:52.189Z</time></trkpt><trkpt lat="43.4132892" lon="11.3984126"><ele>274.0</ele><time>2026-03-28T14:13:53.19Z</time></trkpt><trkpt lat="43.413359" lon="11.3985141"><ele>274.0</ele><time>2026-03-28T14:13:54.19Z</time></trkpt><trkpt lat="43.4134115" lon="11.3986133"><ele>274.0</ele><time>2026-03-28T14:13:55.19Z</time></trkpt><trkpt lat="43.4134533" lon="11.3987029"><ele>274.0</ele><time>2026-03-28T14:13:56.189Z</time></trkpt><trkpt lat="43.4134794" lon="11.3987853"><ele>274.0</ele><time>2026-03-28T14:13:57.19Z</time></trkpt><trkpt lat="43.4135222" lon="11.3989084"><ele>274.0</ele><time>2026-03-28T14:13:59.189Z</time></trkpt><trkpt lat="43.4135603" lon="11.3989838"><ele>274.0</ele><time>2026-03-28T14:14:01.189Z</time></trkpt><trkpt lat="43.4136539" lon="11.3990656"><ele>273.0</ele><time>2026-03-28T14:14:03.189Z</time></trkpt><trkpt lat="43.4137475" lon="11.3990963"><ele>272.0</ele><time>2026-03-28T14:14:04.189Z</time></trkpt><trkpt lat="43.4138531" lon="11.3991198"><ele>271.0</ele><time>2026-03-28T14:14:05.189Z</time></trkpt><trkpt lat="43.413981" lon="11.3991387"><ele>270.0</ele><time>2026-03-28T14:14:06.189Z</time></trkpt><trkpt lat="43.4141243" lon="11.3991568"><ele>270.0</ele><time>2026-03-28T14:14:07.189Z</time></trkpt><trkpt lat="43.4142743" lon="11.3991763"><ele>270.0</ele><time>2026-03-28T14:14:08.189Z</time></trkpt><trkpt lat="43.4144349" lon="11.3991954"><ele>270.0</ele><time>2026-03-28T14:14:09.19Z</time></trkpt><trkpt lat="43.4145883" lon="11.3992061"><ele>271.3333333333333</ele><time>2026-03-28T14:14:10.189Z</time></trkpt><trkpt lat="43.41474" lon="11.3992107"><ele>272.66666666666663</ele><time>2026-03-28T14:14:11.19Z</time></trkpt><trkpt lat="43.4148915" lon="11.3992034"><ele>274.0</ele><time>2026-03-28T14:14:12.189Z</time></trkpt><trkpt lat="43.4150449" lon="11.3991786"><ele>274.0</ele><time>2026-03-28T14:14:13.189Z</time></trkpt><trkpt lat="43.4151966" lon="11.3991311"><ele>274.0</ele><time>2026-03-28T14:14:14.19Z</time></trkpt><trkpt lat="43.4153501" lon="11.3990604"><ele>274.0</ele><time>2026-03-28T14:14:15.189Z</time></trkpt><trkpt lat="43.4155033" lon="11.3989842"><ele>274.0</ele><time>2026-03-28T14:14:16.19Z</time></trkpt><trkpt lat="43.4156505" lon="11.3989151"><ele>274.0</ele><time>2026-03-28T14:14:17.19Z</time></trkpt><trkpt lat="43.4157889" lon="11.3988534"><ele>274.0</ele><time>2026-03-28T14:14:18.189Z</time></trkpt><trkpt lat="43.4159197" lon="11.3987968"><ele>274.0</ele><time>2026-03-28T14:14:19.189Z</time></trkpt><trkpt lat="43.4160437" lon="11.3987337"><ele>277.5</ele><time>2026-03-28T14:14:20.19Z</time></trkpt><trkpt lat="43.4161669" lon="11.3986773"><ele>281.0</ele><time>2026-03-28T14:14:21.19Z</time></trkpt><trkpt lat="43.4162926" lon="11.3986225"><ele>284.5</ele><time>2026-03-28T14:14:22.189Z</time></trkpt><trkpt lat="43.4164279" lon="11.3985636"><ele>288.0</ele><time>2026-03-28T14:14:23.189Z</time></trkpt><trkpt lat="43.4165648" lon="11.3985097"><ele>288.0</ele><time>2026-03-28T14:14:24.189Z</time></trkpt><trkpt lat="43.4167056" lon="11.398462"><ele>288.0</ele><time>2026-03-28T14:14:25.189Z</time></trkpt><trkpt lat="43.4168399" lon="11.3984246"><ele>288.0</ele><time>2026-03-28T14:14:26.189Z</time></trkpt><trkpt lat="43.4169759" lon="11.3984103"><ele>288.0</ele><time>2026-03-28T14:14:27.189Z</time></trkpt><trkpt lat="43.41711" lon="11.3984209"><ele>290.3333333333333</ele><time>2026-03-28T14:14:28.19Z</time></trkpt><trkpt lat="43.41725" lon="11.3984654"><ele>292.66666666666663</ele><time>2026-03-28T14:14:29.189Z</time></trkpt><trkpt lat="43.417394" lon="11.3985145"><ele>295.0</ele><time>2026-03-28T14:14:30.19Z</time></trkpt><trkpt lat="43.4175453" lon="11.3986174"><ele>295.0</ele><time>2026-03-28T14:14:31.188Z</time></trkpt><trkpt lat="43.4176892" lon="11.3987135"><ele>295.0</ele><time>2026-03-28T14:14:32.189Z</time></trkpt><trkpt lat="43.4178092" lon="11.3988534"><ele>295.0</ele><time>2026-03-28T14:14:33.189Z</time></trkpt><trkpt lat="43.4179261" lon="11.3990244"><ele>293.3333333333333</ele><time>2026-03-28T14:14:34.189Z</time></trkpt><trkpt lat="43.4180423" lon="11.3992046"><ele>291.6666666666667</ele><time>2026-03-28T14:14:35.189Z</time></trkpt><trkpt lat="43.4181666" lon="11.3993959"><ele>290.0</ele><time>2026-03-28T14:14:36.19Z</time></trkpt><trkpt lat="43.4182919" lon="11.3995904"><ele>284.6666666666667</ele><time>2026-03-28T14:14:37.19Z</time></trkpt><trkpt lat="43.4184242" lon="11.3997639"><ele>279.3333333333333</ele><time>2026-03-28T14:14:38.189Z</time></trkpt><trkpt lat="43.4185544" lon="11.3999242"><ele>274.0</ele><time>2026-03-28T14:14:39.189Z</time></trkpt><trkpt lat="43.4186783" lon="11.4000727"><ele>274.0</ele><time>2026-03-28T14:14:40.19Z</time></trkpt><trkpt lat="43.4187929" lon="11.4002192"><ele>274.0</ele><time>2026-03-28T14:14:41.189Z</time></trkpt><trkpt lat="43.4189027" lon="11.4003714"><ele>274.0</ele><time>2026-03-28T14:14:42.189Z</time></trkpt><trkpt lat="43.4190067" lon="11.400534"><ele>274.66666666666663</ele><time>2026-03-28T14:14:43.19Z</time></trkpt><trkpt lat="43.419103" lon="11.4007056"><ele>275.3333333333333</ele><time>2026-03-28T14:14:44.189Z</time></trkpt><trkpt lat="43.4191894" lon="11.4008857"><ele>276.0</ele><time>2026-03-28T14:14:45.189Z</time></trkpt><trkpt lat="43.4192729" lon="11.4010735"><ele>276.0</ele><time>2026-03-28T14:14:46.19Z</time></trkpt><trkpt lat="43.4193486" lon="11.4012708"><ele>276.0</ele><time>2026-03-28T14:14:47.19Z</time></trkpt><trkpt lat="43.4194179" lon="11.4014708"><ele>276.0</ele><time>2026-03-28T14:14:48.189Z</time></trkpt><trkpt lat="43.4194847" lon="11.401671"><ele>276.0</ele><time>2026-03-28T14:14:49.189Z</time></trkpt><trkpt lat="43.4195543" lon="11.4018732"><ele>276.0</ele><time>2026-03-28T14:14:50.189Z</time></trkpt><trkpt lat="43.4196365" lon="11.4020679"><ele>276.0</ele><time>2026-03-28T14:14:51.189Z</time></trkpt><trkpt lat="43.4197332" lon="11.4022469"><ele>278.3333333333333</ele><time>2026-03-28T14:14:52.189Z</time></trkpt><trkpt lat="43.41986" lon="11.4023983"><ele>280.66666666666663</ele><time>2026-03-28T14:14:53.189Z</time></trkpt><trkpt lat="43.4200057" lon="11.4025286"><ele>283.0</ele><time>2026-03-28T14:14:54.189Z</time></trkpt><trkpt lat="43.4201611" lon="11.4026434"><ele>283.0</ele><time>2026-03-28T14:14:55.189Z</time></trkpt><trkpt lat="43.4203273" lon="11.402746"><ele>283.0</ele><time>2026-03-28T14:14:56.19Z</time></trkpt><trkpt lat="43.4204885" lon="11.4028426"><ele>283.0</ele><time>2026-03-28T14:14:57.188Z</time></trkpt><trkpt lat="43.4206531" lon="11.402954"><ele>284.0</ele><time>2026-03-28T14:14:58.19Z</time></trkpt><trkpt lat="43.4208097" lon="11.4030896"><ele>285.0</ele><time>2026-03-28T14:14:59.189Z</time></trkpt><trkpt lat="43.4209517" lon="11.4032529"><ele>286.0</ele><time>2026-03-28T14:15:00.19Z</time></trkpt><trkpt lat="43.4210882" lon="11.4034124"><ele>286.0</ele><time>2026-03-28T14:15:01.189Z</time></trkpt><trkpt lat="43.4212225" lon="11.4035632"><ele>286.0</ele><time>2026-03-28T14:15:02.189Z</time></trkpt><trkpt lat="43.4213527" lon="11.403714"><ele>286.0</ele><time>2026-03-28T14:15:03.189Z</time></trkpt><trkpt lat="43.4214821" lon="11.4038667"><ele>286.66666666666663</ele><time>2026-03-28T14:15:04.189Z</time></trkpt><trkpt lat="43.421611" lon="11.4040255"><ele>287.3333333333333</ele><time>2026-03-28T14:15:05.19Z</time></trkpt><trkpt lat="43.4217316" lon="11.4041817"><ele>288.0</ele><time>2026-03-28T14:15:06.189Z</time></trkpt><trkpt lat="43.4218431" lon="11.4043477"><ele>288.0</ele><time>2026-03-28T14:15:07.189Z</time></trkpt><trkpt lat="43.4219424" lon="11.4045082"><ele>288.0</ele><time>2026-03-28T14:15:08.189Z</time></trkpt><trkpt lat="43.4220431" lon="11.4046528"><ele>288.0</ele><time>2026-03-28T14:15:09.189Z</time></trkpt><trkpt lat="43.4221573" lon="11.404783"><ele>288.0</ele><time>2026-03-28T14:15:10.189Z</time></trkpt><trkpt lat="43.4222838" lon="11.4048936"><ele>287.5</ele><time>2026-03-28T14:15:11.189Z</time></trkpt><trkpt lat="43.4224227" lon="11.4049785"><ele>287.0</ele><time>2026-03-28T14:15:12.189Z</time></trkpt><trkpt lat="43.4225613" lon="11.4050369"><ele>286.5</ele><time>2026-03-28T14:15:13.189Z</time></trkpt><trkpt lat="43.4226884" lon="11.4050674"><ele>286.0</ele><time>2026-03-28T14:15:14.189Z</time></trkpt><trkpt lat="43.4228018" lon="11.4050623"><ele>286.0</ele><time>2026-03-28T14:15:15.189Z</time></trkpt><trkpt lat="43.4229046" lon="11.4049945"><ele>286.0</ele><time>2026-03-28T14:15:16.189Z</time></trkpt><trkpt lat="43.4229943" lon="11.4048754"><ele>286.0</ele><time>2026-03-28T14:15:17.19Z</time></trkpt><trkpt lat="43.4230755" lon="11.4047147"><ele>286.0</ele><time>2026-03-28T14:15:18.189Z</time></trkpt><trkpt lat="43.4231641" lon="11.4045615"><ele>287.0</ele><time>2026-03-28T14:15:19.19Z</time></trkpt><trkpt lat="43.4232639" lon="11.404434"><ele>288.0</ele><time>2026-03-28T14:15:20.189Z</time></trkpt><trkpt lat="43.4233795" lon="11.4043112"><ele>289.0</ele><time>2026-03-28T14:15:21.19Z</time></trkpt><trkpt lat="43.4235048" lon="11.4042392"><ele>290.0</ele><time>2026-03-28T14:15:22.189Z</time></trkpt><trkpt lat="43.4236191" lon="11.4041756"><ele>290.0</ele><time>2026-03-28T14:15:23.189Z</time></trkpt><trkpt lat="43.4237334" lon="11.4041336"><ele>290.0</ele><time>2026-03-28T14:15:24.19Z</time></trkpt><trkpt lat="43.4238622" lon="11.4041289"><ele>290.0</ele><time>2026-03-28T14:15:25.189Z</time></trkpt><trkpt lat="43.4240008" lon="11.4041562"><ele>290.0</ele><time>2026-03-28T14:15:26.19Z</time></trkpt><trkpt lat="43.424135" lon="11.4041701"><ele>289.0</ele><time>2026-03-28T14:15:27.189Z</time></trkpt><trkpt lat="43.424263" lon="11.4041785"><ele>288.0</ele><time>2026-03-28T14:15:28.189Z</time></trkpt><trkpt lat="43.4243861" lon="11.4041619"><ele>287.0</ele><time>2026-03-28T14:15:29.19Z</time></trkpt><trkpt lat="43.4245218" lon="11.4041424"><ele>286.0</ele><time>2026-03-28T14:15:30.189Z</time></trkpt><trkpt lat="43.4246625" lon="11.404122"><ele>286.0</ele><time>2026-03-28T14:15:31.19Z</time></trkpt><trkpt lat="43.4248073" lon="11.4041077"><ele>286.0</ele><time>2026-03-28T14:15:32.189Z</time></trkpt><trkpt lat="43.4249535" lon="11.4041016"><ele>286.0</ele><time>2026-03-28T14:15:33.19Z</time></trkpt><trkpt lat="43.4251036" lon="11.4041631"><ele>286.0</ele><time>2026-03-28T14:15:34.189Z</time></trkpt><trkpt lat="43.4252489" lon="11.4042593"><ele>286.0</ele><time>2026-03-28T14:15:35.189Z</time></trkpt><trkpt lat="43.4253923" lon="11.4043541"><ele>286.0</ele><time>2026-03-28T14:15:36.189Z</time></trkpt><trkpt lat="43.4255331" lon="11.4044347"><ele>286.0</ele><time>2026-03-28T14:15:37.189Z</time></trkpt><trkpt lat="43.425682" lon="11.4045075"><ele>286.0</ele><time>2026-03-28T14:15:38.189Z</time></trkpt><trkpt lat="43.4258279" lon="11.4045749"><ele>286.0</ele><time>2026-03-28T14:15:39.189Z</time></trkpt><trkpt lat="43.4259742" lon="11.4046358"><ele>286.0</ele><time>2026-03-28T14:15:40.189Z</time></trkpt><trkpt lat="43.4261223" lon="11.4046945"><ele>286.0</ele><time>2026-03-28T14:15:41.19Z</time></trkpt><trkpt lat="43.4262558" lon="11.404761"><ele>286.0</ele><time>2026-03-28T14:15:42.189Z</time></trkpt><trkpt lat="43.4263762" lon="11.4048841"><ele>286.0</ele><time>2026-03-28T14:15:43.19Z</time></trkpt><trkpt lat="43.4264762" lon="11.405047"><ele>286.0</ele><time>2026-03-28T14:15:44.189Z</time></trkpt><trkpt lat="43.4265648" lon="11.4052182"><ele>286.75</ele><time>2026-03-28T14:15:45.19Z</time></trkpt><trkpt lat="43.4266467" lon="11.4053833"><ele>287.5</ele><time>2026-03-28T14:15:46.189Z</time></trkpt><trkpt lat="43.4267115" lon="11.4055691"><ele>288.25</ele><time>2026-03-28T14:15:47.189Z</time></trkpt><trkpt lat="43.4267357" lon="11.4057735"><ele>289.0</ele><time>2026-03-28T14:15:48.188Z</time></trkpt><trkpt lat="43.4267417" lon="11.4059785"><ele>289.0</ele><time>2026-03-28T14:15:49.189Z</time></trkpt><trkpt lat="43.4267364" lon="11.4061847"><ele>289.0</ele><time>2026-03-28T14:15:50.189Z</time></trkpt><trkpt lat="43.4267247" lon="11.4063764"><ele>289.0</ele><time>2026-03-28T14:15:51.189Z</time></trkpt><trkpt lat="43.4267076" lon="11.4065582"><ele>289.0</ele><time>2026-03-28T14:15:52.189Z</time></trkpt><trkpt lat="43.4266896" lon="11.4067265"><ele>288.5</ele><time>2026-03-28T14:15:53.19Z</time></trkpt><trkpt lat="43.426669" lon="11.4068725"><ele>288.0</ele><time>2026-03-28T14:15:54.189Z</time></trkpt><trkpt lat="43.4266643" lon="11.4070181"><ele>287.5</ele><time>2026-03-28T14:15:55.19Z</time></trkpt><trkpt lat="43.4266945" lon="11.4071711"><ele>287.0</ele><time>2026-03-28T14:15:56.189Z</time></trkpt><trkpt lat="43.4267662" lon="11.4073119"><ele>287.0</ele><time>2026-03-28T14:15:57.19Z</time></trkpt><trkpt lat="43.4268694" lon="11.4074295"><ele>287.0</ele><time>2026-03-28T14:15:58.189Z</time></trkpt><trkpt lat="43.4269958" lon="11.4075341"><ele>287.0</ele><time>2026-03-28T14:15:59.19Z</time></trkpt><trkpt lat="43.427127" lon="11.4076499"><ele>287.0</ele><time>2026-03-28T14:16:00.189Z</time></trkpt><trkpt lat="43.4272503" lon="11.4077833"><ele>287.6666666666667</ele><time>2026-03-28T14:16:01.19Z</time></trkpt><trkpt lat="43.4273674" lon="11.4079278"><ele>288.3333333333333</ele><time>2026-03-28T14:16:02.19Z</time></trkpt><trkpt lat="43.4274783" lon="11.4080641"><ele>289.0</ele><time>2026-03-28T14:16:03.19Z</time></trkpt><trkpt lat="43.4275922" lon="11.4081849"><ele>289.0</ele><time>2026-03-28T14:16:04.19Z</time></trkpt><trkpt lat="43.4277199" lon="11.4082825"><ele>289.0</ele><time>2026-03-28T14:16:05.189Z</time></trkpt><trkpt lat="43.4278617" lon="11.4083496"><ele>289.0</ele><time>2026-03-28T14:16:06.189Z</time></trkpt><trkpt lat="43.4280056" lon="11.4083957"><ele>289.0</ele><time>2026-03-28T14:16:07.189Z</time></trkpt><trkpt lat="43.4281478" lon="11.4084165"><ele>291.0</ele><time>2026-03-28T14:16:08.19Z</time></trkpt><trkpt lat="43.4282799" lon="11.4084136"><ele>293.0</ele><time>2026-03-28T14:16:09.189Z</time></trkpt><trkpt lat="43.4284128" lon="11.408404"><ele>295.0</ele><time>2026-03-28T14:16:10.189Z</time></trkpt><trkpt lat="43.4285278" lon="11.4084212"><ele>297.0</ele><time>2026-03-28T14:16:11.189Z</time></trkpt><trkpt lat="43.4286435" lon="11.4084622"><ele>297.0</ele><time>2026-03-28T14:16:12.19Z</time></trkpt><trkpt lat="43.4287494" lon="11.4085397"><ele>297.0</ele><time>2026-03-28T14:16:13.189Z</time></trkpt><trkpt lat="43.4288436" lon="11.4086668"><ele>297.0</ele><time>2026-03-28T14:16:14.189Z</time></trkpt><trkpt lat="43.4289276" lon="11.4088152"><ele>297.0</ele><time>2026-03-28T14:16:15.19Z</time></trkpt><trkpt lat="43.4290105" lon="11.4089729"><ele>297.25</ele><time>2026-03-28T14:16:16.189Z</time></trkpt><trkpt lat="43.4290992" lon="11.409134"><ele>297.5</ele><time>2026-03-28T14:16:17.189Z</time></trkpt><trkpt lat="43.429183" lon="11.4092932"><ele>297.75</ele><time>2026-03-28T14:16:18.189Z</time></trkpt><trkpt lat="43.4292731" lon="11.4094539"><ele>298.0</ele><time>2026-03-28T14:16:19.19Z</time></trkpt><trkpt lat="43.4293704" lon="11.4096123"><ele>298.66666666666663</ele><time>2026-03-28T14:16:20.189Z</time></trkpt><trkpt lat="43.4294934" lon="11.4097553"><ele>299.3333333333333</ele><time>2026-03-28T14:16:21.189Z</time></trkpt><trkpt lat="43.4296297" lon="11.4098814"><ele>300.0</ele><time>2026-03-28T14:16:22.189Z</time></trkpt><trkpt lat="43.4297707" lon="11.4099898"><ele>300.0</ele><time>2026-03-28T14:16:23.19Z</time></trkpt><trkpt lat="43.4299232" lon="11.4100809"><ele>300.0</ele><time>2026-03-28T14:16:24.19Z</time></trkpt><trkpt lat="43.4300847" lon="11.4101712"><ele>300.0</ele><time>2026-03-28T14:16:25.189Z</time></trkpt><trkpt lat="43.4302258" lon="11.4102817"><ele>300.0</ele><time>2026-03-28T14:16:26.19Z</time></trkpt><trkpt lat="43.4303636" lon="11.4104273"><ele>300.0</ele><time>2026-03-28T14:16:27.189Z</time></trkpt><trkpt lat="43.4304889" lon="11.4106"><ele>300.0</ele><time>2026-03-28T14:16:28.19Z</time></trkpt><trkpt lat="43.4306029" lon="11.4107921"><ele>298.3333333333333</ele><time>2026-03-28T14:16:29.19Z</time></trkpt><trkpt lat="43.4306951" lon="11.4110058"><ele>296.66666666666663</ele><time>2026-03-28T14:16:30.188Z</time></trkpt><trkpt lat="43.430769" lon="11.4112331"><ele>295.0</ele><time>2026-03-28T14:16:31.189Z</time></trkpt><trkpt lat="43.4308315" lon="11.4114522"><ele>295.0</ele><time>2026-03-28T14:16:32.19Z</time></trkpt><trkpt lat="43.4308858" lon="11.4116543"><ele>295.0</ele><time>2026-03-28T14:16:33.188Z</time></trkpt><trkpt lat="43.4309714" lon="11.411832"><ele>295.0</ele><time>2026-03-28T14:16:34.189Z</time></trkpt><trkpt lat="43.4310689" lon="11.4119785"><ele>295.0</ele><time>2026-03-28T14:16:35.19Z</time></trkpt><trkpt lat="43.4311572" lon="11.4121109"><ele>295.0</ele><time>2026-03-28T14:16:36.189Z</time></trkpt><trkpt lat="43.4312375" lon="11.4122288"><ele>295.0</ele><time>2026-03-28T14:16:37.19Z</time></trkpt><trkpt lat="43.4313087" lon="11.4123352"><ele>295.0</ele><time>2026-03-28T14:16:38.19Z</time></trkpt><trkpt lat="43.4313731" lon="11.4124441"><ele>297.25</ele><time>2026-03-28T14:16:39.188Z</time></trkpt><trkpt lat="43.4314556" lon="11.4125471"><ele>299.5</ele><time>2026-03-28T14:16:40.188Z</time></trkpt><trkpt lat="43.4315641" lon="11.4126277"><ele>301.75</ele><time>2026-03-28T14:16:41.188Z</time></trkpt><trkpt lat="43.4316699" lon="11.4126983"><ele>304.0</ele><time>2026-03-28T14:16:42.188Z</time></trkpt><trkpt lat="43.4317634" lon="11.412824"><ele>304.0</ele><time>2026-03-28T14:16:43.188Z</time></trkpt><trkpt lat="43.4318354" lon="11.4129854"><ele>304.0</ele><time>2026-03-28T14:16:44.188Z</time></trkpt><trkpt lat="43.4318603" lon="11.4131601"><ele>304.0</ele><time>2026-03-28T14:16:45.188Z</time></trkpt><trkpt lat="43.4318421" lon="11.4133623"><ele>304.0</ele><time>2026-03-28T14:16:46.188Z</time></trkpt><trkpt lat="43.4317824" lon="11.4135671"><ele>303.3333333333333</ele><time>2026-03-28T14:16:47.188Z</time></trkpt><trkpt lat="43.4317123" lon="11.4137612"><ele>302.6666666666667</ele><time>2026-03-28T14:16:48.189Z</time></trkpt><trkpt lat="43.4316189" lon="11.4139375"><ele>302.0</ele><time>2026-03-28T14:16:49.189Z</time></trkpt><trkpt lat="43.4314843" lon="11.4140614"><ele>302.25</ele><time>2026-03-28T14:16:50.188Z</time></trkpt><trkpt lat="43.4313348" lon="11.414127"><ele>302.5</ele><time>2026-03-28T14:16:51.188Z</time></trkpt><trkpt lat="43.4312004" lon="11.4141801"><ele>302.75</ele><time>2026-03-28T14:16:52.189Z</time></trkpt><trkpt lat="43.4310738" lon="11.4142312"><ele>303.0</ele><time>2026-03-28T14:16:53.189Z</time></trkpt><trkpt lat="43.4309492" lon="11.4142805"><ele>303.0</ele><time>2026-03-28T14:16:54.188Z</time></trkpt><trkpt lat="43.4308251" lon="11.4143359"><ele>303.0</ele><time>2026-03-28T14:16:55.188Z</time></trkpt><trkpt lat="43.4307094" lon="11.4144226"><ele>303.0</ele><time>2026-03-28T14:16:56.188Z</time></trkpt><trkpt lat="43.4306051" lon="11.414535"><ele>303.0</ele><time>2026-03-28T14:16:57.188Z</time></trkpt><trkpt lat="43.4305114" lon="11.4146621"><ele>302.5</ele><time>2026-03-28T14:16:58.187Z</time></trkpt><trkpt lat="43.4304145" lon="11.4147996"><ele>302.0</ele><time>2026-03-28T14:16:59.189Z</time></trkpt><trkpt lat="43.4303154" lon="11.4149397"><ele>301.5</ele><time>2026-03-28T14:17:00.188Z</time></trkpt><trkpt lat="43.4302103" lon="11.4150741"><ele>301.0</ele><time>2026-03-28T14:17:01.189Z</time></trkpt><trkpt lat="43.4300955" lon="11.415193"><ele>301.0</ele><time>2026-03-28T14:17:02.189Z</time></trkpt><trkpt lat="43.4299716" lon="11.4152984"><ele>301.0</ele><time>2026-03-28T14:17:03.188Z</time></trkpt><trkpt lat="43.4298595" lon="11.4154007"><ele>301.0</ele><time>2026-03-28T14:17:04.188Z</time></trkpt><trkpt lat="43.429755" lon="11.4155023"><ele>301.0</ele><time>2026-03-28T14:17:05.187Z</time></trkpt><trkpt lat="43.4296587" lon="11.4155969"><ele>300.25</ele><time>2026-03-28T14:17:06.189Z</time></trkpt><trkpt lat="43.4295793" lon="11.4157006"><ele>299.5</ele><time>2026-03-28T14:17:07.189Z</time></trkpt><trkpt lat="43.4295225" lon="11.4158325"><ele>298.75</ele><time>2026-03-28T14:17:08.189Z</time></trkpt><trkpt lat="43.4294949" lon="11.4159891"><ele>298.0</ele><time>2026-03-28T14:17:09.189Z</time></trkpt><trkpt lat="43.4295068" lon="11.4161572"><ele>298.25</ele><time>2026-03-28T14:17:10.188Z</time></trkpt><trkpt lat="43.4295581" lon="11.4163242"><ele>298.5</ele><time>2026-03-28T14:17:11.188Z</time></trkpt><trkpt lat="43.429628" lon="11.4164792"><ele>298.75</ele><time>2026-03-28T14:17:12.188Z</time></trkpt><trkpt lat="43.4297017" lon="11.4166172"><ele>299.0</ele><time>2026-03-28T14:17:13.189Z</time></trkpt><trkpt lat="43.4297899" lon="11.4167286"><ele>301.75</ele><time>2026-03-28T14:17:14.188Z</time></trkpt><trkpt lat="43.4298895" lon="11.4167994"><ele>304.5</ele><time>2026-03-28T14:17:15.189Z</time></trkpt><trkpt lat="43.4299945" lon="11.4168327"><ele>307.25</ele><time>2026-03-28T14:17:16.188Z</time></trkpt><trkpt lat="43.4301034" lon="11.4168487"><ele>310.0</ele><time>2026-03-28T14:17:17.188Z</time></trkpt><trkpt lat="43.4302242" lon="11.4168564"><ele>310.0</ele><time>2026-03-28T14:17:18.189Z</time></trkpt><trkpt lat="43.4303577" lon="11.4168688"><ele>310.0</ele><time>2026-03-28T14:17:19.189Z</time></trkpt><trkpt lat="43.4304874" lon="11.4169038"><ele>310.0</ele><time>2026-03-28T14:17:20.188Z</time></trkpt><trkpt lat="43.430618" lon="11.4169528"><ele>310.0</ele><time>2026-03-28T14:17:21.189Z</time></trkpt><trkpt lat="43.4307505" lon="11.4170081"><ele>311.25</ele><time>2026-03-28T14:17:22.188Z</time></trkpt><trkpt lat="43.4308882" lon="11.4170783"><ele>312.5</ele><time>2026-03-28T14:17:23.189Z</time></trkpt><trkpt lat="43.4310138" lon="11.4171845"><ele>313.75</ele><time>2026-03-28T14:17:24.188Z</time></trkpt><trkpt lat="43.4311264" lon="11.4173228"><ele>315.0</ele><time>2026-03-28T14:17:25.189Z</time></trkpt><trkpt lat="43.4312326" lon="11.4174783"><ele>313.3333333333333</ele><time>2026-03-28T14:17:26.189Z</time></trkpt><trkpt lat="43.4313392" lon="11.4176344"><ele>311.66666666666663</ele><time>2026-03-28T14:17:27.189Z</time></trkpt><trkpt lat="43.4314445" lon="11.4177934"><ele>310.0</ele><time>2026-03-28T14:17:28.188Z</time></trkpt><trkpt lat="43.4315503" lon="11.4179558"><ele>306.3333333333333</ele><time>2026-03-28T14:17:29.188Z</time></trkpt><trkpt lat="43.4316583" lon="11.4181168"><ele>302.6666666666667</ele><time>2026-03-28T14:17:30.188Z</time></trkpt><trkpt lat="43.431768" lon="11.4182787"><ele>299.0</ele><time>2026-03-28T14:17:31.188Z</time></trkpt><trkpt lat="43.4318779" lon="11.4184444"><ele>299.0</ele><time>2026-03-28T14:17:32.188Z</time></trkpt><trkpt lat="43.4319895" lon="11.4186101"><ele>299.0</ele><time>2026-03-28T14:17:33.189Z</time></trkpt><trkpt lat="43.4321016" lon="11.4187778"><ele>299.0</ele><time>2026-03-28T14:17:34.188Z</time></trkpt><trkpt lat="43.4322144" lon="11.4189439"><ele>300.6666666666667</ele><time>2026-03-28T14:17:35.188Z</time></trkpt><trkpt lat="43.4323273" lon="11.419113"><ele>302.3333333333333</ele><time>2026-03-28T14:17:36.188Z</time></trkpt><trkpt lat="43.43244" lon="11.4192834"><ele>304.0</ele><time>2026-03-28T14:17:37.189Z</time></trkpt><trkpt lat="43.4325547" lon="11.4194574"><ele>304.0</ele><time>2026-03-28T14:17:38.188Z</time></trkpt><trkpt lat="43.4326745" lon="11.4196426"><ele>304.0</ele><time>2026-03-28T14:17:39.189Z</time></trkpt><trkpt lat="43.43278" lon="11.4198492"><ele>304.0</ele><time>2026-03-28T14:17:40.188Z</time></trkpt><trkpt lat="43.4328714" lon="11.4200616"><ele>303.66666666666663</ele><time>2026-03-28T14:17:41.188Z</time></trkpt><trkpt lat="43.4329547" lon="11.4202558"><ele>303.3333333333333</ele><time>2026-03-28T14:17:42.188Z</time></trkpt><trkpt lat="43.4330326" lon="11.4204383"><ele>303.0</ele><time>2026-03-28T14:17:43.188Z</time></trkpt><trkpt lat="43.4331109" lon="11.4206085"><ele>303.0</ele><time>2026-03-28T14:17:44.188Z</time></trkpt><trkpt lat="43.4331945" lon="11.4207539"><ele>303.0</ele><time>2026-03-28T14:17:45.189Z</time></trkpt><trkpt lat="43.4333095" lon="11.4208657"><ele>303.0</ele><time>2026-03-28T14:17:46.189Z</time></trkpt><trkpt lat="43.4334387" lon="11.4209071"><ele>303.0</ele><time>2026-03-28T14:17:47.188Z</time></trkpt><trkpt lat="43.4335613" lon="11.4208731"><ele>303.0</ele><time>2026-03-28T14:17:48.188Z</time></trkpt><trkpt lat="43.4336819" lon="11.4208264"><ele>303.0</ele><time>2026-03-28T14:17:49.189Z</time></trkpt><trkpt lat="43.4337723" lon="11.4206371"><ele>303.0</ele><time>2026-03-28T14:17:50.188Z</time></trkpt><trkpt lat="43.4338674" lon="11.4205291"><ele>303.0</ele><time>2026-03-28T14:17:51.188Z</time></trkpt><trkpt lat="43.4339481" lon="11.4204279"><ele>305.6</ele><time>2026-03-28T14:17:52.189Z</time></trkpt><trkpt lat="43.434025" lon="11.4203278"><ele>308.20000000000005</ele><time>2026-03-28T14:17:53.188Z</time></trkpt><trkpt lat="43.4341014" lon="11.4202294"><ele>310.8</ele><time>2026-03-28T14:17:54.188Z</time></trkpt><trkpt lat="43.4341813" lon="11.4201281"><ele>313.40000000000003</ele><time>2026-03-28T14:17:55.189Z</time></trkpt><trkpt lat="43.4342642" lon="11.4200301"><ele>316.0</ele><time>2026-03-28T14:17:56.188Z</time></trkpt><trkpt lat="43.4343477" lon="11.4199274"><ele>316.0</ele><time>2026-03-28T14:17:57.189Z</time></trkpt><trkpt lat="43.4344557" lon="11.4198109"><ele>316.0</ele><time>2026-03-28T14:17:58.189Z</time></trkpt><trkpt lat="43.43456" lon="11.4197011"><ele>316.0</ele><time>2026-03-28T14:17:59.188Z</time></trkpt><trkpt lat="43.4346655" lon="11.4195932"><ele>316.0</ele><time>2026-03-28T14:18:00.189Z</time></trkpt><trkpt lat="43.4347685" lon="11.4194931"><ele>316.75</ele><time>2026-03-28T14:18:01.188Z</time></trkpt><trkpt lat="43.4348832" lon="11.4193907"><ele>317.5</ele><time>2026-03-28T14:18:02.188Z</time></trkpt><trkpt lat="43.4350013" lon="11.4192877"><ele>318.25</ele><time>2026-03-28T14:18:03.188Z</time></trkpt><trkpt lat="43.4351121" lon="11.4192103"><ele>319.0</ele><time>2026-03-28T14:18:04.189Z</time></trkpt><trkpt lat="43.4352269" lon="11.4191559"><ele>319.0</ele><time>2026-03-28T14:18:05.188Z</time></trkpt><trkpt lat="43.4353451" lon="11.4190922"><ele>319.0</ele><time>2026-03-28T14:18:06.189Z</time></trkpt><trkpt lat="43.435466" lon="11.4190515"><ele>319.0</ele><time>2026-03-28T14:18:07.188Z</time></trkpt><trkpt lat="43.4356686" lon="11.4191571"><ele>318.0</ele><time>2026-03-28T14:18:08.189Z</time></trkpt><trkpt lat="43.4358246" lon="11.41917"><ele>317.0</ele><time>2026-03-28T14:18:09.189Z</time></trkpt><trkpt lat="43.4359854" lon="11.419195"><ele>316.0</ele><time>2026-03-28T14:18:10.189Z</time></trkpt><trkpt lat="43.4361506" lon="11.4192266"><ele>317.3333333333333</ele><time>2026-03-28T14:18:11.188Z</time></trkpt><trkpt lat="43.4363177" lon="11.4192617"><ele>318.6666666666667</ele><time>2026-03-28T14:18:12.189Z</time></trkpt><trkpt lat="43.4364952" lon="11.4192988"><ele>320.0</ele><time>2026-03-28T14:18:13.188Z</time></trkpt><trkpt lat="43.4366789" lon="11.4193395"><ele>320.0</ele><time>2026-03-28T14:18:14.188Z</time></trkpt><trkpt lat="43.4368689" lon="11.4193799"><ele>320.0</ele><time>2026-03-28T14:18:15.189Z</time></trkpt><trkpt lat="43.437063" lon="11.4194195"><ele>320.0</ele><time>2026-03-28T14:18:16.189Z</time></trkpt><trkpt lat="43.437258" lon="11.4194588"><ele>321.0</ele><time>2026-03-28T14:18:17.188Z</time></trkpt><trkpt lat="43.4374506" lon="11.4194945"><ele>322.0</ele><time>2026-03-28T14:18:18.189Z</time></trkpt><trkpt lat="43.4376423" lon="11.4195331"><ele>323.0</ele><time>2026-03-28T14:18:19.188Z</time></trkpt><trkpt lat="43.4378247" lon="11.4195698"><ele>324.6666666666667</ele><time>2026-03-28T14:18:20.187Z</time></trkpt><trkpt lat="43.4380094" lon="11.4196022"><ele>326.3333333333333</ele><time>2026-03-28T14:18:21.188Z</time></trkpt><trkpt lat="43.4381875" lon="11.419623"><ele>328.0</ele><time>2026-03-28T14:18:22.188Z</time></trkpt><trkpt lat="43.438359" lon="11.4196355"><ele>324.66666666666663</ele><time>2026-03-28T14:18:23.189Z</time></trkpt><trkpt lat="43.4385283" lon="11.4196544"><ele>321.3333333333333</ele><time>2026-03-28T14:18:24.188Z</time></trkpt><trkpt lat="43.4386977" lon="11.4196799"><ele>318.0</ele><time>2026-03-28T14:18:25.188Z</time></trkpt><trkpt lat="43.4388759" lon="11.419714"><ele>318.0</ele><time>2026-03-28T14:18:26.188Z</time></trkpt><trkpt lat="43.4390578" lon="11.4197664"><ele>318.0</ele><time>2026-03-28T14:18:27.189Z</time></trkpt><trkpt lat="43.4392342" lon="11.4198548"><ele>318.0</ele><time>2026-03-28T14:18:28.189Z</time></trkpt><trkpt lat="43.4394008" lon="11.4199621"><ele>318.0</ele><time>2026-03-28T14:18:29.187Z</time></trkpt><trkpt lat="43.4395514" lon="11.420068"><ele>318.0</ele><time>2026-03-28T14:18:30.188Z</time></trkpt><trkpt lat="43.4396964" lon="11.4201776"><ele>318.0</ele><time>2026-03-28T14:18:31.189Z</time></trkpt><trkpt lat="43.4398329" lon="11.4202859"><ele>317.6666666666667</ele><time>2026-03-28T14:18:32.189Z</time></trkpt><trkpt lat="43.4399713" lon="11.4204013"><ele>317.33333333333337</ele><time>2026-03-28T14:18:33.188Z</time></trkpt><trkpt lat="43.4401103" lon="11.4205216"><ele>317.0</ele><time>2026-03-28T14:18:34.188Z</time></trkpt><trkpt lat="43.4402496" lon="11.4206484"><ele>317.0</ele><time>2026-03-28T14:18:35.188Z</time></trkpt><trkpt lat="43.4403924" lon="11.4207801"><ele>317.0</ele><time>2026-03-28T14:18:36.189Z</time></trkpt><trkpt lat="43.4405421" lon="11.4209094"><ele>317.0</ele><time>2026-03-28T14:18:37.188Z</time></trkpt><trkpt lat="43.4406956" lon="11.421036"><ele>317.33333333333337</ele><time>2026-03-28T14:18:38.188Z</time></trkpt><trkpt lat="43.4408403" lon="11.4211509"><ele>317.6666666666667</ele><time>2026-03-28T14:18:39.188Z</time></trkpt><trkpt lat="43.4409866" lon="11.4212574"><ele>318.0</ele><time>2026-03-28T14:18:40.188Z</time></trkpt><trkpt lat="43.4411353" lon="11.4213552"><ele>319.6666666666667</ele><time>2026-03-28T14:18:41.188Z</time></trkpt><trkpt lat="43.4413124" lon="11.4214105"><ele>321.33333333333337</ele><time>2026-03-28T14:18:42.188Z</time></trkpt><trkpt lat="43.4414813" lon="11.4214576"><ele>323.0</ele><time>2026-03-28T14:18:43.188Z</time></trkpt><trkpt lat="43.441652" lon="11.4214821"><ele>323.0</ele><time>2026-03-28T14:18:44.188Z</time></trkpt><trkpt lat="43.4418157" lon="11.4215067"><ele>323.0</ele><time>2026-03-28T14:18:45.188Z</time></trkpt><trkpt lat="43.4419788" lon="11.4215292"><ele>323.0</ele><time>2026-03-28T14:18:46.188Z</time></trkpt><trkpt lat="43.4421389" lon="11.4215518"><ele>324.6666666666667</ele><time>2026-03-28T14:18:47.188Z</time></trkpt><trkpt lat="43.4422986" lon="11.4215843"><ele>326.3333333333333</ele><time>2026-03-28T14:18:48.188Z</time></trkpt><trkpt lat="43.4424638" lon="11.4216075"><ele>328.0</ele><time>2026-03-28T14:18:49.188Z</time></trkpt><trkpt lat="43.4426308" lon="11.4216198"><ele>328.0</ele><time>2026-03-28T14:18:50.188Z</time></trkpt><trkpt lat="43.4427979" lon="11.4216274"><ele>328.0</ele><time>2026-03-28T14:18:51.189Z</time></trkpt><trkpt lat="43.4429674" lon="11.4216254"><ele>328.0</ele><time>2026-03-28T14:18:52.188Z</time></trkpt><trkpt lat="43.4431342" lon="11.4216056"><ele>328.0</ele><time>2026-03-28T14:18:53.188Z</time></trkpt><trkpt lat="43.4432992" lon="11.4215495"><ele>328.0</ele><time>2026-03-28T14:18:54.188Z</time></trkpt><trkpt lat="43.4434535" lon="11.4214516"><ele>328.0</ele><time>2026-03-28T14:18:55.189Z</time></trkpt><trkpt lat="43.4436136" lon="11.4213426"><ele>331.0</ele><time>2026-03-28T14:18:56.189Z</time></trkpt><trkpt lat="43.4437732" lon="11.4212337"><ele>334.0</ele><time>2026-03-28T14:18:57.188Z</time></trkpt><trkpt lat="43.4439215" lon="11.421122"><ele>337.0</ele><time>2026-03-28T14:18:58.188Z</time></trkpt><trkpt lat="43.4440641" lon="11.4210189"><ele>337.0</ele><time>2026-03-28T14:18:59.189Z</time></trkpt><trkpt lat="43.4441919" lon="11.4209031"><ele>337.0</ele><time>2026-03-28T14:19:00.188Z</time></trkpt><trkpt lat="43.4443102" lon="11.4207547"><ele>337.0</ele><time>2026-03-28T14:19:01.188Z</time></trkpt><trkpt lat="43.4444125" lon="11.4206029"><ele>337.66666666666663</ele><time>2026-03-28T14:19:02.189Z</time></trkpt><trkpt lat="43.4445201" lon="11.4204399"><ele>338.3333333333333</ele><time>2026-03-28T14:19:03.188Z</time></trkpt><trkpt lat="43.4446439" lon="11.4202888"><ele>339.0</ele><time>2026-03-28T14:19:04.189Z</time></trkpt><trkpt lat="43.4447891" lon="11.4201735"><ele>339.0</ele><time>2026-03-28T14:19:05.188Z</time></trkpt><trkpt lat="43.4449329" lon="11.4200877"><ele>339.0</ele><time>2026-03-28T14:19:06.188Z</time></trkpt><trkpt lat="43.4450696" lon="11.4200105"><ele>339.0</ele><time>2026-03-28T14:19:07.188Z</time></trkpt><trkpt lat="43.4451947" lon="11.419936"><ele>339.0</ele><time>2026-03-28T14:19:08.189Z</time></trkpt><trkpt lat="43.4453135" lon="11.4198664"><ele>339.0</ele><time>2026-03-28T14:19:09.188Z</time></trkpt><trkpt lat="43.4454278" lon="11.4197957"><ele>339.0</ele><time>2026-03-28T14:19:10.189Z</time></trkpt><trkpt lat="43.4455226" lon="11.4197064"><ele>339.0</ele><time>2026-03-28T14:19:11.188Z</time></trkpt><trkpt lat="43.4456003" lon="11.4195604"><ele>339.0</ele><time>2026-03-28T14:19:12.189Z</time></trkpt><trkpt lat="43.4456351" lon="11.4193867"><ele>339.75</ele><time>2026-03-28T14:19:13.189Z</time></trkpt><trkpt lat="43.4456446" lon="11.4192055"><ele>340.5</ele><time>2026-03-28T14:19:14.189Z</time></trkpt><trkpt lat="43.4456515" lon="11.419043"><ele>341.25</ele><time>2026-03-28T14:19:15.188Z</time></trkpt><trkpt lat="43.4456549" lon="11.4188783"><ele>342.0</ele><time>2026-03-28T14:19:16.188Z</time></trkpt><trkpt lat="43.4456656" lon="11.418712"><ele>342.0</ele><time>2026-03-28T14:19:17.189Z</time></trkpt><trkpt lat="43.4456893" lon="11.4185416"><ele>342.0</ele><time>2026-03-28T14:19:18.187Z</time></trkpt><trkpt lat="43.4457218" lon="11.4183651"><ele>342.0</ele><time>2026-03-28T14:19:19.189Z</time></trkpt><trkpt lat="43.4457656" lon="11.4181875"><ele>342.0</ele><time>2026-03-28T14:19:20.189Z</time></trkpt><trkpt lat="43.4458151" lon="11.4180153"><ele>344.5</ele><time>2026-03-28T14:19:21.188Z</time></trkpt><trkpt lat="43.4458652" lon="11.4178648"><ele>347.0</ele><time>2026-03-28T14:19:22.188Z</time></trkpt><trkpt lat="43.4459369" lon="11.4177228"><ele>349.5</ele><time>2026-03-28T14:19:23.188Z</time></trkpt><trkpt lat="43.4460389" lon="11.4176029"><ele>352.0</ele><time>2026-03-28T14:19:24.189Z</time></trkpt><trkpt lat="43.446173" lon="11.4175319"><ele>348.0</ele><time>2026-03-28T14:19:25.188Z</time></trkpt><trkpt lat="43.4463287" lon="11.4175283"><ele>344.0</ele><time>2026-03-28T14:19:26.188Z</time></trkpt><trkpt lat="43.4464845" lon="11.417552"><ele>340.0</ele><time>2026-03-28T14:19:27.188Z</time></trkpt><trkpt lat="43.4466406" lon="11.4175861"><ele>340.0</ele><time>2026-03-28T14:19:28.188Z</time></trkpt><trkpt lat="43.4467955" lon="11.4176224"><ele>340.0</ele><time>2026-03-28T14:19:29.189Z</time></trkpt><trkpt lat="43.4469444" lon="11.4176583"><ele>340.0</ele><time>2026-03-28T14:19:30.188Z</time></trkpt><trkpt lat="43.4470883" lon="11.4176929"><ele>339.3333333333333</ele><time>2026-03-28T14:19:31.189Z</time></trkpt><trkpt lat="43.4472376" lon="11.4177324"><ele>338.6666666666667</ele><time>2026-03-28T14:19:32.188Z</time></trkpt><trkpt lat="43.4473934" lon="11.4177714"><ele>338.0</ele><time>2026-03-28T14:19:33.189Z</time></trkpt><trkpt lat="43.4475523" lon="11.4178241"><ele>338.0</ele><time>2026-03-28T14:19:34.188Z</time></trkpt><trkpt lat="43.4477014" lon="11.4179251"><ele>338.0</ele><time>2026-03-28T14:19:35.188Z</time></trkpt><trkpt lat="43.4478363" lon="11.4180398"><ele>338.0</ele><time>2026-03-28T14:19:36.189Z</time></trkpt><trkpt lat="43.4479639" lon="11.4181617"><ele>336.25</ele><time>2026-03-28T14:19:37.188Z</time></trkpt><trkpt lat="43.4480829" lon="11.4182755"><ele>334.5</ele><time>2026-03-28T14:19:38.188Z</time></trkpt><trkpt lat="43.4482009" lon="11.4183771"><ele>332.75</ele><time>2026-03-28T14:19:39.188Z</time></trkpt><trkpt lat="43.4483325" lon="11.4184616"><ele>331.0</ele><time>2026-03-28T14:19:40.188Z</time></trkpt><trkpt lat="43.4484727" lon="11.4185208"><ele>331.0</ele><time>2026-03-28T14:19:41.189Z</time></trkpt><trkpt lat="43.4486136" lon="11.4185467"><ele>331.0</ele><time>2026-03-28T14:19:42.189Z</time></trkpt><trkpt lat="43.4487457" lon="11.4185642"><ele>331.0</ele><time>2026-03-28T14:19:43.188Z</time></trkpt><trkpt lat="43.4488746" lon="11.4185804"><ele>331.0</ele><time>2026-03-28T14:19:44.188Z</time></trkpt><trkpt lat="43.4490031" lon="11.4185928"><ele>331.0</ele><time>2026-03-28T14:19:45.188Z</time></trkpt><trkpt lat="43.449129" lon="11.418612"><ele>331.0</ele><time>2026-03-28T14:19:46.189Z</time></trkpt><trkpt lat="43.4492594" lon="11.4186423"><ele>331.0</ele><time>2026-03-28T14:19:47.188Z</time></trkpt><trkpt lat="43.4493936" lon="11.4186847"><ele>331.0</ele><time>2026-03-28T14:19:48.189Z</time></trkpt><trkpt lat="43.4495244" lon="11.4187353"><ele>330.25</ele><time>2026-03-28T14:19:49.189Z</time></trkpt><trkpt lat="43.4496518" lon="11.4187907"><ele>329.5</ele><time>2026-03-28T14:19:50.188Z</time></trkpt><trkpt lat="43.4497746" lon="11.4188432"><ele>328.75</ele><time>2026-03-28T14:19:51.189Z</time></trkpt><trkpt lat="43.4498992" lon="11.4188997"><ele>328.0</ele><time>2026-03-28T14:19:52.188Z</time></trkpt><trkpt lat="43.4500242" lon="11.4189498"><ele>327.5</ele><time>2026-03-28T14:19:53.189Z</time></trkpt><trkpt lat="43.4501523" lon="11.4189883"><ele>327.0</ele><time>2026-03-28T14:19:54.189Z</time></trkpt><trkpt lat="43.4502843" lon="11.4190112"><ele>326.5</ele><time>2026-03-28T14:19:55.188Z</time></trkpt><trkpt lat="43.4504114" lon="11.4190181"><ele>326.0</ele><time>2026-03-28T14:19:56.188Z</time></trkpt><trkpt lat="43.4505396" lon="11.4189979"><ele>326.0</ele><time>2026-03-28T14:19:57.188Z</time></trkpt><trkpt lat="43.4506734" lon="11.4189542"><ele>326.0</ele><time>2026-03-28T14:19:58.188Z</time></trkpt><trkpt lat="43.4508137" lon="11.4189259"><ele>326.0</ele><time>2026-03-28T14:19:59.188Z</time></trkpt><trkpt lat="43.4509581" lon="11.4188974"><ele>326.0</ele><time>2026-03-28T14:20:00.188Z</time></trkpt><trkpt lat="43.4510969" lon="11.4188719"><ele>326.0</ele><time>2026-03-28T14:20:01.188Z</time></trkpt><trkpt lat="43.4512389" lon="11.4188483"><ele>326.0</ele><time>2026-03-28T14:20:02.189Z</time></trkpt><trkpt lat="43.4513811" lon="11.4188225"><ele>326.0</ele><time>2026-03-28T14:20:03.188Z</time></trkpt><trkpt lat="43.4515241" lon="11.4187939"><ele>326.0</ele><time>2026-03-28T14:20:04.188Z</time></trkpt><trkpt lat="43.4516687" lon="11.4187668"><ele>326.75</ele><time>2026-03-28T14:20:05.188Z</time></trkpt><trkpt lat="43.451814" lon="11.4187409"><ele>327.5</ele><time>2026-03-28T14:20:06.188Z</time></trkpt><trkpt lat="43.4519623" lon="11.4187243"><ele>328.25</ele><time>2026-03-28T14:20:07.188Z</time></trkpt><trkpt lat="43.4521155" lon="11.4187092"><ele>329.0</ele><time>2026-03-28T14:20:08.188Z</time></trkpt><trkpt lat="43.4522703" lon="11.4186972"><ele>329.5</ele><time>2026-03-28T14:20:09.189Z</time></trkpt><trkpt lat="43.4524249" lon="11.4186924"><ele>330.0</ele><time>2026-03-28T14:20:10.188Z</time></trkpt><trkpt lat="43.4525706" lon="11.4186868"><ele>330.5</ele><time>2026-03-28T14:20:11.189Z</time></trkpt><trkpt lat="43.4527143" lon="11.4186843"><ele>331.0</ele><time>2026-03-28T14:20:12.188Z</time></trkpt><trkpt lat="43.4528609" lon="11.418682"><ele>331.3333333333333</ele><time>2026-03-28T14:20:13.187Z</time></trkpt><trkpt lat="43.4530137" lon="11.4186791"><ele>331.6666666666667</ele><time>2026-03-28T14:20:14.188Z</time></trkpt><trkpt lat="43.4531744" lon="11.4186745"><ele>332.0</ele><time>2026-03-28T14:20:15.188Z</time></trkpt><trkpt lat="43.453328" lon="11.4186736"><ele>332.0</ele><time>2026-03-28T14:20:16.188Z</time></trkpt><trkpt lat="43.4534894" lon="11.4186897"><ele>332.0</ele><time>2026-03-28T14:20:17.188Z</time></trkpt><trkpt lat="43.4536494" lon="11.4187395"><ele>332.0</ele><time>2026-03-28T14:20:18.188Z</time></trkpt><trkpt lat="43.4537964" lon="11.4188263"><ele>335.0</ele><time>2026-03-28T14:20:19.189Z</time></trkpt><trkpt lat="43.4539415" lon="11.4189438"><ele>338.0</ele><time>2026-03-28T14:20:20.188Z</time></trkpt><trkpt lat="43.4540824" lon="11.4190703"><ele>341.0</ele><time>2026-03-28T14:20:21.187Z</time></trkpt><trkpt lat="43.4542181" lon="11.4191862"><ele>341.0</ele><time>2026-03-28T14:20:22.188Z</time></trkpt><trkpt lat="43.4543477" lon="11.419301"><ele>341.0</ele><time>2026-03-28T14:20:23.189Z</time></trkpt><trkpt lat="43.4544659" lon="11.4194087"><ele>341.0</ele><time>2026-03-28T14:20:24.188Z</time></trkpt><trkpt lat="43.4545922" lon="11.4195201"><ele>341.0</ele><time>2026-03-28T14:20:25.189Z</time></trkpt><trkpt lat="43.4547214" lon="11.4196208"><ele>343.0</ele><time>2026-03-28T14:20:26.189Z</time></trkpt><trkpt lat="43.4548676" lon="11.4196926"><ele>345.0</ele><time>2026-03-28T14:20:27.187Z</time></trkpt><trkpt lat="43.455024" lon="11.4197407"><ele>347.0</ele><time>2026-03-28T14:20:28.188Z</time></trkpt><trkpt lat="43.4551859" lon="11.4197767"><ele>347.0</ele><time>2026-03-28T14:20:29.188Z</time></trkpt><trkpt lat="43.4553527" lon="11.4198059"><ele>347.0</ele><time>2026-03-28T14:20:30.188Z</time></trkpt><trkpt lat="43.4555201" lon="11.4198212"><ele>347.0</ele><time>2026-03-28T14:20:31.188Z</time></trkpt><trkpt lat="43.4556894" lon="11.4197928"><ele>346.0</ele><time>2026-03-28T14:20:32.188Z</time></trkpt><trkpt lat="43.4558473" lon="11.4197381"><ele>345.0</ele><time>2026-03-28T14:20:33.188Z</time></trkpt><trkpt lat="43.4559879" lon="11.4196707"><ele>344.0</ele><time>2026-03-28T14:20:34.188Z</time></trkpt><trkpt lat="43.4561267" lon="11.4196048"><ele>343.0</ele><time>2026-03-28T14:20:35.188Z</time></trkpt><trkpt lat="43.4562629" lon="11.4195432"><ele>342.0</ele><time>2026-03-28T14:20:36.188Z</time></trkpt><trkpt lat="43.4563946" lon="11.4194593"><ele>341.0</ele><time>2026-03-28T14:20:37.189Z</time></trkpt><trkpt lat="43.4565242" lon="11.4193334"><ele>340.0</ele><time>2026-03-28T14:20:38.188Z</time></trkpt><trkpt lat="43.4566501" lon="11.4191838"><ele>340.0</ele><time>2026-03-28T14:20:39.189Z</time></trkpt><trkpt lat="43.4567768" lon="11.4190347"><ele>340.0</ele><time>2026-03-28T14:20:40.187Z</time></trkpt><trkpt lat="43.4568944" lon="11.4188998"><ele>340.0</ele><time>2026-03-28T14:20:41.188Z</time></trkpt><trkpt lat="43.4570093" lon="11.4187657"><ele>339.0</ele><time>2026-03-28T14:20:42.187Z</time></trkpt><trkpt lat="43.4571168" lon="11.418618"><ele>338.0</ele><time>2026-03-28T14:20:43.189Z</time></trkpt><trkpt lat="43.457205" lon="11.418471"><ele>337.0</ele><time>2026-03-28T14:20:44.189Z</time></trkpt><trkpt lat="43.457268" lon="11.4183097"><ele>336.0</ele><time>2026-03-28T14:20:45.188Z</time></trkpt><trkpt lat="43.4573002" lon="11.418138"><ele>337.75</ele><time>2026-03-28T14:20:46.189Z</time></trkpt><trkpt lat="43.4573123" lon="11.417969"><ele>339.5</ele><time>2026-03-28T14:20:47.188Z</time></trkpt><trkpt lat="43.4573247" lon="11.4178099"><ele>341.25</ele><time>2026-03-28T14:20:48.188Z</time></trkpt><trkpt lat="43.4573453" lon="11.4176355"><ele>343.0</ele><time>2026-03-28T14:20:49.187Z</time></trkpt><trkpt lat="43.4573775" lon="11.4174559"><ele>343.0</ele><time>2026-03-28T14:20:50.188Z</time></trkpt><trkpt lat="43.4574271" lon="11.4172729"><ele>343.0</ele><time>2026-03-28T14:20:51.188Z</time></trkpt><trkpt lat="43.4574957" lon="11.4170938"><ele>343.0</ele><time>2026-03-28T14:20:52.188Z</time></trkpt><trkpt lat="43.4575818" lon="11.4169215"><ele>343.0</ele><time>2026-03-28T14:20:53.189Z</time></trkpt><trkpt lat="43.4576879" lon="11.4167602"><ele>342.0</ele><time>2026-03-28T14:20:54.188Z</time></trkpt><trkpt lat="43.457811" lon="11.4166163"><ele>341.0</ele><time>2026-03-28T14:20:55.189Z</time></trkpt><trkpt lat="43.4579501" lon="11.4165062"><ele>340.0</ele><time>2026-03-28T14:20:56.187Z</time></trkpt><trkpt lat="43.4580993" lon="11.4164191"><ele>340.3333333333333</ele><time>2026-03-28T14:20:57.188Z</time></trkpt><trkpt lat="43.4582564" lon="11.4163399"><ele>340.6666666666667</ele><time>2026-03-28T14:20:58.189Z</time></trkpt><trkpt lat="43.4584179" lon="11.4162661"><ele>341.0</ele><time>2026-03-28T14:20:59.189Z</time></trkpt><trkpt lat="43.4585842" lon="11.4161918"><ele>341.0</ele><time>2026-03-28T14:21:00.189Z</time></trkpt><trkpt lat="43.4587526" lon="11.4161127"><ele>341.0</ele><time>2026-03-28T14:21:01.188Z</time></trkpt><trkpt lat="43.4589179" lon="11.4160145"><ele>341.0</ele><time>2026-03-28T14:21:02.188Z</time></trkpt><trkpt lat="43.4590798" lon="11.4159024"><ele>343.0</ele><time>2026-03-28T14:21:03.188Z</time></trkpt><trkpt lat="43.4592428" lon="11.4157867"><ele>345.0</ele><time>2026-03-28T14:21:04.189Z</time></trkpt><trkpt lat="43.4594067" lon="11.4156683"><ele>347.0</ele><time>2026-03-28T14:21:05.188Z</time></trkpt><trkpt lat="43.4595725" lon="11.415549"><ele>347.33333333333337</ele><time>2026-03-28T14:21:06.188Z</time></trkpt><trkpt lat="43.4597375" lon="11.4154297"><ele>347.6666666666667</ele><time>2026-03-28T14:21:07.188Z</time></trkpt><trkpt lat="43.4599014" lon="11.415308"><ele>348.0</ele><time>2026-03-28T14:21:08.189Z</time></trkpt><trkpt lat="43.460066" lon="11.4151887"><ele>348.0</ele><time>2026-03-28T14:21:09.188Z</time></trkpt><trkpt lat="43.4602301" lon="11.4150726"><ele>348.0</ele><time>2026-03-28T14:21:10.188Z</time></trkpt><trkpt lat="43.4603967" lon="11.4149643"><ele>348.0</ele><time>2026-03-28T14:21:11.188Z</time></trkpt><trkpt lat="43.4605675" lon="11.4148706"><ele>348.0</ele><time>2026-03-28T14:21:12.187Z</time></trkpt><trkpt lat="43.4607282" lon="11.4147741"><ele>348.0</ele><time>2026-03-28T14:21:13.188Z</time></trkpt><trkpt lat="43.4608848" lon="11.4146255"><ele>348.0</ele><time>2026-03-28T14:21:14.188Z</time></trkpt><trkpt lat="43.4610345" lon="11.4144543"><ele>348.0</ele><time>2026-03-28T14:21:15.188Z</time></trkpt><trkpt lat="43.4611734" lon="11.4142943"><ele>348.0</ele><time>2026-03-28T14:21:16.188Z</time></trkpt><trkpt lat="43.4613156" lon="11.4141292"><ele>348.0</ele><time>2026-03-28T14:21:17.187Z</time></trkpt><trkpt lat="43.4614597" lon="11.4139832"><ele>348.3333333333333</ele><time>2026-03-28T14:21:18.189Z</time></trkpt><trkpt lat="43.4616237" lon="11.4138766"><ele>348.66666666666663</ele><time>2026-03-28T14:21:19.188Z</time></trkpt><trkpt lat="43.4617994" lon="11.4137924"><ele>349.0</ele><time>2026-03-28T14:21:20.188Z</time></trkpt><trkpt lat="43.4619728" lon="11.4137038"><ele>350.3333333333333</ele><time>2026-03-28T14:21:21.188Z</time></trkpt><trkpt lat="43.4621338" lon="11.4135897"><ele>351.6666666666667</ele><time>2026-03-28T14:21:22.188Z</time></trkpt><trkpt lat="43.462288" lon="11.4134317"><ele>353.0</ele><time>2026-03-28T14:21:23.188Z</time></trkpt><trkpt lat="43.4624266" lon="11.4132379"><ele>353.0</ele><time>2026-03-28T14:21:24.188Z</time></trkpt><trkpt lat="43.462549" lon="11.4130386"><ele>353.0</ele><time>2026-03-28T14:21:25.188Z</time></trkpt><trkpt lat="43.4626629" lon="11.412846"><ele>353.0</ele><time>2026-03-28T14:21:26.188Z</time></trkpt><trkpt lat="43.4627696" lon="11.4126485"><ele>352.6666666666667</ele><time>2026-03-28T14:21:27.188Z</time></trkpt><trkpt lat="43.4628653" lon="11.4124655"><ele>352.3333333333333</ele><time>2026-03-28T14:21:28.189Z</time></trkpt><trkpt lat="43.4629587" lon="11.4122931"><ele>352.0</ele><time>2026-03-28T14:21:29.188Z</time></trkpt><trkpt lat="43.4630553" lon="11.4121156"><ele>353.3333333333333</ele><time>2026-03-28T14:21:30.188Z</time></trkpt><trkpt lat="43.4631518" lon="11.4119306"><ele>354.6666666666667</ele><time>2026-03-28T14:21:31.189Z</time></trkpt><trkpt lat="43.4632514" lon="11.4117397"><ele>356.0</ele><time>2026-03-28T14:21:32.188Z</time></trkpt><trkpt lat="43.463351" lon="11.4115473"><ele>356.0</ele><time>2026-03-28T14:21:33.188Z</time></trkpt><trkpt lat="43.4634559" lon="11.4113565"><ele>356.0</ele><time>2026-03-28T14:21:34.189Z</time></trkpt><trkpt lat="43.4635651" lon="11.4111677"><ele>356.0</ele><time>2026-03-28T14:21:35.188Z</time></trkpt><trkpt lat="43.4636669" lon="11.4109853"><ele>355.75</ele><time>2026-03-28T14:21:36.189Z</time></trkpt><trkpt lat="43.4637586" lon="11.4108157"><ele>355.5</ele><time>2026-03-28T14:21:37.189Z</time></trkpt><trkpt lat="43.4638419" lon="11.4106515"><ele>355.25</ele><time>2026-03-28T14:21:38.188Z</time></trkpt><trkpt lat="43.4639178" lon="11.4104994"><ele>355.0</ele><time>2026-03-28T14:21:39.188Z</time></trkpt><trkpt lat="43.4639799" lon="11.4103528"><ele>355.2</ele><time>2026-03-28T14:21:40.189Z</time></trkpt><trkpt lat="43.4640308" lon="11.4102005"><ele>355.4</ele><time>2026-03-28T14:21:41.188Z</time></trkpt><trkpt lat="43.4640668" lon="11.4100559"><ele>355.6</ele><time>2026-03-28T14:21:42.188Z</time></trkpt><trkpt lat="43.4640951" lon="11.4099134"><ele>355.8</ele><time>2026-03-28T14:21:43.189Z</time></trkpt><trkpt lat="43.4641198" lon="11.4097747"><ele>356.0</ele><time>2026-03-28T14:21:44.188Z</time></trkpt><trkpt lat="43.4641396" lon="11.4096314"><ele>356.0</ele><time>2026-03-28T14:21:45.188Z</time></trkpt><trkpt lat="43.4641377" lon="11.409499"><ele>356.0</ele><time>2026-03-28T14:21:46.188Z</time></trkpt><trkpt lat="43.464115" lon="11.4093872"><ele>356.0</ele><time>2026-03-28T14:21:47.188Z</time></trkpt><trkpt lat="43.4640796" lon="11.4092867"><ele>356.0</ele><time>2026-03-28T14:21:48.189Z</time></trkpt><trkpt lat="43.4640386" lon="11.4091756"><ele>356.0</ele><time>2026-03-28T14:21:49.188Z</time></trkpt><trkpt lat="43.4639987" lon="11.4090612"><ele>356.0</ele><time>2026-03-28T14:21:50.189Z</time></trkpt><trkpt lat="43.4639544" lon="11.4089582"><ele>356.0</ele><time>2026-03-28T14:21:51.188Z</time></trkpt><trkpt lat="43.4639018" lon="11.4088678"><ele>356.0</ele><time>2026-03-28T14:21:52.188Z</time></trkpt><trkpt lat="43.4638463" lon="11.408782"><ele>356.0</ele><time>2026-03-28T14:21:53.188Z</time></trkpt><trkpt lat="43.4637856" lon="11.4086999"><ele>356.0</ele><time>2026-03-28T14:21:54.189Z</time></trkpt><trkpt lat="43.4637248" lon="11.4086079"><ele>356.0</ele><time>2026-03-28T14:21:55.188Z</time></trkpt><trkpt lat="43.4636666" lon="11.4085086"><ele>356.0</ele><time>2026-03-28T14:21:56.189Z</time></trkpt><trkpt lat="43.4636058" lon="11.4084113"><ele>356.8</ele><time>2026-03-28T14:21:57.189Z</time></trkpt><trkpt lat="43.4635429" lon="11.4083178"><ele>357.6</ele><time>2026-03-28T14:21:58.189Z</time></trkpt><trkpt lat="43.4634811" lon="11.4082223"><ele>358.4</ele><time>2026-03-28T14:21:59.188Z</time></trkpt><trkpt lat="43.4634135" lon="11.4081355"><ele>359.2</ele><time>2026-03-28T14:22:00.189Z</time></trkpt><trkpt lat="43.4633417" lon="11.4080495"><ele>360.0</ele><time>2026-03-28T14:22:01.188Z</time></trkpt><trkpt lat="43.4632711" lon="11.407961"><ele>360.8333333333333</ele><time>2026-03-28T14:22:02.188Z</time></trkpt><trkpt lat="43.4632018" lon="11.4078748"><ele>361.6666666666667</ele><time>2026-03-28T14:22:03.188Z</time></trkpt><trkpt lat="43.4631349" lon="11.4077928"><ele>362.5</ele><time>2026-03-28T14:22:04.189Z</time></trkpt><trkpt lat="43.4630679" lon="11.4077127"><ele>363.33333333333337</ele><time>2026-03-28T14:22:05.188Z</time></trkpt><trkpt lat="43.4630044" lon="11.4076294"><ele>364.1666666666667</ele><time>2026-03-28T14:22:06.188Z</time></trkpt><trkpt lat="43.4629448" lon="11.4075428"><ele>365.0</ele><time>2026-03-28T14:22:07.189Z</time></trkpt><trkpt lat="43.4628825" lon="11.4074505"><ele>367.0</ele><time>2026-03-28T14:22:08.188Z</time></trkpt><trkpt lat="43.4628258" lon="11.4073691"><ele>369.0</ele><time>2026-03-28T14:22:09.188Z</time></trkpt><trkpt lat="43.4627611" lon="11.4073002"><ele>371.0</ele><time>2026-03-28T14:22:10.188Z</time></trkpt><trkpt lat="43.4626959" lon="11.4072417"><ele>373.0</ele><time>2026-03-28T14:22:11.189Z</time></trkpt><trkpt lat="43.4626374" lon="11.4071802"><ele>375.0</ele><time>2026-03-28T14:22:12.188Z</time></trkpt><trkpt lat="43.4625873" lon="11.4071131"><ele>377.0</ele><time>2026-03-28T14:22:13.187Z</time></trkpt><trkpt lat="43.4625401" lon="11.4070375"><ele>378.1666666666667</ele><time>2026-03-28T14:22:14.188Z</time></trkpt><trkpt lat="43.4624883" lon="11.4069592"><ele>379.33333333333337</ele><time>2026-03-28T14:22:15.188Z</time></trkpt><trkpt lat="43.4624295" lon="11.4068872"><ele>380.5</ele><time>2026-03-28T14:22:16.189Z</time></trkpt><trkpt lat="43.4623595" lon="11.4068384"><ele>381.6666666666667</ele><time>2026-03-28T14:22:17.188Z</time></trkpt><trkpt lat="43.4622847" lon="11.4068068"><ele>382.8333333333333</ele><time>2026-03-28T14:22:18.188Z</time></trkpt><trkpt lat="43.4622066" lon="11.406785"><ele>384.0</ele><time>2026-03-28T14:22:19.188Z</time></trkpt><trkpt lat="43.4621304" lon="11.4067734"><ele>386.5</ele><time>2026-03-28T14:22:20.189Z</time></trkpt><trkpt lat="43.4620568" lon="11.4067721"><ele>389.0</ele><time>2026-03-28T14:22:21.188Z</time></trkpt><trkpt lat="43.4619809" lon="11.4067689"><ele>391.5</ele><time>2026-03-28T14:22:22.188Z</time></trkpt><trkpt lat="43.4619032" lon="11.4067749"><ele>394.0</ele><time>2026-03-28T14:22:23.189Z</time></trkpt><trkpt lat="43.4618221" lon="11.4067809"><ele>396.5</ele><time>2026-03-28T14:22:24.189Z</time></trkpt><trkpt lat="43.4617359" lon="11.4067795"><ele>399.0</ele><time>2026-03-28T14:22:25.189Z</time></trkpt><trkpt lat="43.4616456" lon="11.4067787"><ele>399.0</ele><time>2026-03-28T14:22:26.188Z</time></trkpt><trkpt lat="43.4615612" lon="11.4067824"><ele>399.0</ele><time>2026-03-28T14:22:27.188Z</time></trkpt><trkpt lat="43.4614748" lon="11.4067894"><ele>399.0</ele><time>2026-03-28T14:22:28.188Z</time></trkpt><trkpt lat="43.4613894" lon="11.4067991"><ele>399.0</ele><time>2026-03-28T14:22:29.188Z</time></trkpt><trkpt lat="43.4613107" lon="11.4068165"><ele>399.0</ele><time>2026-03-28T14:22:30.188Z</time></trkpt><trkpt lat="43.4612384" lon="11.4068497"><ele>399.0</ele><time>2026-03-28T14:22:31.189Z</time></trkpt><trkpt lat="43.4611753" lon="11.4068655"><ele>402.5</ele><time>2026-03-28T14:22:32.189Z</time></trkpt><trkpt lat="43.4610716" lon="11.4068336"><ele>406.0</ele><time>2026-03-28T14:22:34.188Z</time></trkpt><trkpt lat="43.4610313" lon="11.4067451"><ele>409.5</ele><time>2026-03-28T14:22:36.189Z</time></trkpt><trkpt lat="43.4610537" lon="11.4066261"><ele>413.0</ele><time>2026-03-28T14:22:38.188Z</time></trkpt><trkpt lat="43.4610773" lon="11.406538"><ele>416.5</ele><time>2026-03-28T14:22:39.188Z</time></trkpt><trkpt lat="43.4611061" lon="11.4064436"><ele>420.0</ele><time>2026-03-28T14:22:40.188Z</time></trkpt><trkpt lat="43.4611327" lon="11.4063417"><ele>421.7142857142857</ele><time>2026-03-28T14:22:41.188Z</time></trkpt><trkpt lat="43.4611476" lon="11.4062324"><ele>423.42857142857144</ele><time>2026-03-28T14:22:42.189Z</time></trkpt><trkpt lat="43.4611566" lon="11.4061306"><ele>425.1428571428571</ele><time>2026-03-28T14:22:43.188Z</time></trkpt><trkpt lat="43.4611585" lon="11.4060344"><ele>426.8571428571429</ele><time>2026-03-28T14:22:44.188Z</time></trkpt><trkpt lat="43.4611554" lon="11.4059364"><ele>428.57142857142856</ele><time>2026-03-28T14:22:45.188Z</time></trkpt><trkpt lat="43.4611331" lon="11.4058398"><ele>430.2857142857143</ele><time>2026-03-28T14:22:46.188Z</time></trkpt><trkpt lat="43.4611005" lon="11.4057473"><ele>432.0</ele><time>2026-03-28T14:22:47.189Z</time></trkpt><trkpt lat="43.4610644" lon="11.4056594"><ele>432.0</ele><time>2026-03-28T14:22:48.188Z</time></trkpt><trkpt lat="43.4610213" lon="11.4055708"><ele>432.0</ele><time>2026-03-28T14:22:49.188Z</time></trkpt><trkpt lat="43.4609789" lon="11.4054819"><ele>432.0</ele><time>2026-03-28T14:22:50.188Z</time></trkpt><trkpt lat="43.4609333" lon="11.4053974"><ele>432.0</ele><time>2026-03-28T14:22:51.189Z</time></trkpt><trkpt lat="43.4608871" lon="11.4053094"><ele>432.0</ele><time>2026-03-28T14:22:52.189Z</time></trkpt><trkpt lat="43.4608378" lon="11.4052186"><ele>432.0</ele><time>2026-03-28T14:22:53.188Z</time></trkpt><trkpt lat="43.4607885" lon="11.405124"><ele>432.3333333333333</ele><time>2026-03-28T14:22:54.189Z</time></trkpt><trkpt lat="43.4607439" lon="11.4050341"><ele>432.66666666666663</ele><time>2026-03-28T14:22:55.188Z</time></trkpt><trkpt lat="43.4606909" lon="11.4049364"><ele>433.0</ele><time>2026-03-28T14:22:56.188Z</time></trkpt><trkpt lat="43.4606428" lon="11.4048496"><ele>433.3333333333333</ele><time>2026-03-28T14:22:57.189Z</time></trkpt><trkpt lat="43.4605887" lon="11.4047473"><ele>433.66666666666663</ele><time>2026-03-28T14:22:58.188Z</time></trkpt><trkpt lat="43.4605421" lon="11.4046537"><ele>434.0</ele><time>2026-03-28T14:22:59.188Z</time></trkpt><trkpt lat="43.460509" lon="11.4045577"><ele>435.3333333333333</ele><time>2026-03-28T14:23:00.188Z</time></trkpt><trkpt lat="43.4604842" lon="11.4044377"><ele>436.66666666666663</ele><time>2026-03-28T14:23:01.188Z</time></trkpt><trkpt lat="43.4604686" lon="11.4043034"><ele>438.0</ele><time>2026-03-28T14:23:02.188Z</time></trkpt><trkpt lat="43.460465" lon="11.4041871"><ele>439.33333333333337</ele><time>2026-03-28T14:23:03.187Z</time></trkpt><trkpt lat="43.4604992" lon="11.4040869"><ele>440.6666666666667</ele><time>2026-03-28T14:23:04.188Z</time></trkpt><trkpt lat="43.4605522" lon="11.404014"><ele>442.0</ele><time>2026-03-28T14:23:05.189Z</time></trkpt><trkpt lat="43.4606227" lon="11.4039465"><ele>442.0</ele><time>2026-03-28T14:23:06.189Z</time></trkpt><trkpt lat="43.4607065" lon="11.4038798"><ele>442.00000000000006</ele><time>2026-03-28T14:23:07.189Z</time></trkpt><trkpt lat="43.4607979" lon="11.4038077"><ele>442.00000000000006</ele><time>2026-03-28T14:23:08.188Z</time></trkpt><trkpt lat="43.4608878" lon="11.4037229"><ele>442.0</ele><time>2026-03-28T14:23:09.188Z</time></trkpt><trkpt lat="43.4609772" lon="11.4036358"><ele>442.0</ele><time>2026-03-28T14:23:10.189Z</time></trkpt><trkpt lat="43.4610659" lon="11.4035468"><ele>444.20000000000005</ele><time>2026-03-28T14:23:11.188Z</time></trkpt><trkpt lat="43.4611508" lon="11.4034585"><ele>446.40000000000003</ele><time>2026-03-28T14:23:12.189Z</time></trkpt><trkpt lat="43.4612346" lon="11.4033741"><ele>448.59999999999997</ele><time>2026-03-28T14:23:13.188Z</time></trkpt><trkpt lat="43.461319" lon="11.4032916"><ele>450.79999999999995</ele><time>2026-03-28T14:23:14.188Z</time></trkpt><trkpt lat="43.4614044" lon="11.4032169"><ele>453.0</ele><time>2026-03-28T14:23:15.188Z</time></trkpt><trkpt lat="43.4614926" lon="11.4031449"><ele>453.0</ele><time>2026-03-28T14:23:16.188Z</time></trkpt><trkpt lat="43.4615775" lon="11.4030914"><ele>453.0</ele><time>2026-03-28T14:23:17.188Z</time></trkpt><trkpt lat="43.4616575" lon="11.4030423"><ele>453.0</ele><time>2026-03-28T14:23:18.188Z</time></trkpt><trkpt lat="43.4617182" lon="11.4029975"><ele>453.0</ele><time>2026-03-28T14:23:19.189Z</time></trkpt><trkpt lat="43.461775" lon="11.4029316"><ele>453.0</ele><time>2026-03-28T14:23:20.188Z</time></trkpt><trkpt lat="43.4618128" lon="11.4028521"><ele>453.0</ele><time>2026-03-28T14:23:21.189Z</time></trkpt><trkpt lat="43.4618285" lon="11.4027519"><ele>455.1666666666667</ele><time>2026-03-28T14:23:22.188Z</time></trkpt><trkpt lat="43.4618406" lon="11.402649"><ele>457.33333333333337</ele><time>2026-03-28T14:23:23.188Z</time></trkpt><trkpt lat="43.4618294" lon="11.4025371"><ele>459.5</ele><time>2026-03-28T14:23:24.187Z</time></trkpt><trkpt lat="43.4618285" lon="11.4024242"><ele>461.6666666666667</ele><time>2026-03-28T14:23:25.188Z</time></trkpt><trkpt lat="43.461845" lon="11.4023128"><ele>463.83333333333337</ele><time>2026-03-28T14:23:26.189Z</time></trkpt><trkpt lat="43.4618607" lon="11.40219"><ele>466.0</ele><time>2026-03-28T14:23:27.188Z</time></trkpt><trkpt lat="43.4618949" lon="11.4020592"><ele>467.33333333333337</ele><time>2026-03-28T14:23:28.188Z</time></trkpt><trkpt lat="43.4619217" lon="11.4019323"><ele>468.6666666666667</ele><time>2026-03-28T14:23:29.189Z</time></trkpt><trkpt lat="43.4619514" lon="11.4018058"><ele>470.0</ele><time>2026-03-28T14:23:30.188Z</time></trkpt><trkpt lat="43.4619783" lon="11.4016856"><ele>471.33333333333337</ele><time>2026-03-28T14:23:31.188Z</time></trkpt><trkpt lat="43.4619935" lon="11.4015697"><ele>472.6666666666667</ele><time>2026-03-28T14:23:32.188Z</time></trkpt><trkpt lat="43.4619867" lon="11.4014711"><ele>474.0</ele><time>2026-03-28T14:23:33.188Z</time></trkpt><trkpt lat="43.4619624" lon="11.4013726"><ele>475.0</ele><time>2026-03-28T14:23:34.189Z</time></trkpt><trkpt lat="43.4619265" lon="11.4012753"><ele>476.0</ele><time>2026-03-28T14:23:35.188Z</time></trkpt><trkpt lat="43.4618829" lon="11.4011781"><ele>477.0</ele><time>2026-03-28T14:23:36.189Z</time></trkpt><trkpt lat="43.4618373" lon="11.4010882"><ele>478.0</ele><time>2026-03-28T14:23:37.188Z</time></trkpt><trkpt lat="43.4617919" lon="11.4010023"><ele>479.0</ele><time>2026-03-28T14:23:38.188Z</time></trkpt><trkpt lat="43.4617503" lon="11.4009162"><ele>480.0</ele><time>2026-03-28T14:23:39.189Z</time></trkpt><trkpt lat="43.4617142" lon="11.4008186"><ele>480.0</ele><time>2026-03-28T14:23:40.189Z</time></trkpt><trkpt lat="43.4616877" lon="11.4007128"><ele>480.0</ele><time>2026-03-28T14:23:41.188Z</time></trkpt><trkpt lat="43.4616725" lon="11.4005986"><ele>480.0</ele><time>2026-03-28T14:23:42.189Z</time></trkpt><trkpt lat="43.4616717" lon="11.4004789"><ele>480.0</ele><time>2026-03-28T14:23:43.188Z</time></trkpt><trkpt lat="43.4616844" lon="11.4003555"><ele>480.0</ele><time>2026-03-28T14:23:44.189Z</time></trkpt><trkpt lat="43.4617132" lon="11.4002302"><ele>480.0</ele><time>2026-03-28T14:23:45.188Z</time></trkpt><trkpt lat="43.4617514" lon="11.4001034"><ele>481.8</ele><time>2026-03-28T14:23:46.188Z</time></trkpt><trkpt lat="43.4617993" lon="11.3999768"><ele>483.6</ele><time>2026-03-28T14:23:47.189Z</time></trkpt><trkpt lat="43.4618583" lon="11.3998507"><ele>485.4</ele><time>2026-03-28T14:23:48.189Z</time></trkpt><trkpt lat="43.4619203" lon="11.3997306"><ele>487.2</ele><time>2026-03-28T14:23:49.188Z</time></trkpt><trkpt lat="43.4619888" lon="11.3996066"><ele>489.0</ele><time>2026-03-28T14:23:50.189Z</time></trkpt><trkpt lat="43.4620639" lon="11.3994846"><ele>488.25</ele><time>2026-03-28T14:23:51.189Z</time></trkpt><trkpt lat="43.4621417" lon="11.3993601"><ele>487.5</ele><time>2026-03-28T14:23:52.188Z</time></trkpt><trkpt lat="43.4622196" lon="11.3992292"><ele>486.75</ele><time>2026-03-28T14:23:53.189Z</time></trkpt><trkpt lat="43.462295" lon="11.3990869"><ele>486.0</ele><time>2026-03-28T14:23:54.189Z</time></trkpt><trkpt lat="43.4623661" lon="11.3989476"><ele>489.20000000000005</ele><time>2026-03-28T14:23:55.188Z</time></trkpt><trkpt lat="43.4624264" lon="11.3988065"><ele>492.40000000000003</ele><time>2026-03-28T14:23:56.188Z</time></trkpt><trkpt lat="43.4624709" lon="11.3986625"><ele>495.6</ele><time>2026-03-28T14:23:57.189Z</time></trkpt><trkpt lat="43.4625068" lon="11.3985191"><ele>498.8</ele><time>2026-03-28T14:23:58.188Z</time></trkpt><trkpt lat="43.4625294" lon="11.3983854"><ele>502.0</ele><time>2026-03-28T14:23:59.188Z</time></trkpt><trkpt lat="43.462554" lon="11.3982512"><ele>502.0</ele><time>2026-03-28T14:24:00.188Z</time></trkpt><trkpt lat="43.4625841" lon="11.3981069"><ele>502.0</ele><time>2026-03-28T14:24:01.188Z</time></trkpt><trkpt lat="43.4626085" lon="11.3979479"><ele>502.0</ele><time>2026-03-28T14:24:02.188Z</time></trkpt><trkpt lat="43.4626284" lon="11.3977866"><ele>502.0</ele><time>2026-03-28T14:24:03.189Z</time></trkpt><trkpt lat="43.4626508" lon="11.3976269"><ele>504.25</ele><time>2026-03-28T14:24:04.189Z</time></trkpt><trkpt lat="43.4626767" lon="11.3974553"><ele>506.5</ele><time>2026-03-28T14:24:05.189Z</time></trkpt><trkpt lat="43.4627074" lon="11.3972946"><ele>508.75</ele><time>2026-03-28T14:24:06.188Z</time></trkpt><trkpt lat="43.4627413" lon="11.3971316"><ele>511.0</ele><time>2026-03-28T14:24:07.188Z</time></trkpt><trkpt lat="43.4627695" lon="11.3969569"><ele>512.25</ele><time>2026-03-28T14:24:08.188Z</time></trkpt><trkpt lat="43.462803" lon="11.3967916"><ele>513.5</ele><time>2026-03-28T14:24:09.188Z</time></trkpt><trkpt lat="43.4628263" lon="11.3966111"><ele>514.75</ele><time>2026-03-28T14:24:10.188Z</time></trkpt><trkpt lat="43.4628522" lon="11.3964518"><ele>516.0</ele><time>2026-03-28T14:24:11.188Z</time></trkpt><trkpt lat="43.4628813" lon="11.396301"><ele>516.25</ele><time>2026-03-28T14:24:12.188Z</time></trkpt><trkpt lat="43.4629188" lon="11.3961656"><ele>516.5</ele><time>2026-03-28T14:24:13.188Z</time></trkpt><trkpt lat="43.4629633" lon="11.3960259"><ele>516.75</ele><time>2026-03-28T14:24:14.188Z</time></trkpt><trkpt lat="43.4630185" lon="11.3958855"><ele>517.0</ele><time>2026-03-28T14:24:15.189Z</time></trkpt><trkpt lat="43.4630654" lon="11.3957352"><ele>516.75</ele><time>2026-03-28T14:24:16.188Z</time></trkpt><trkpt lat="43.4631069" lon="11.3955777"><ele>516.5</ele><time>2026-03-28T14:24:17.188Z</time></trkpt><trkpt lat="43.4631638" lon="11.3954252"><ele>516.25</ele><time>2026-03-28T14:24:18.188Z</time></trkpt><trkpt lat="43.4632363" lon="11.3952779"><ele>516.0</ele><time>2026-03-28T14:24:19.188Z</time></trkpt><trkpt lat="43.4633174" lon="11.3951392"><ele>516.0</ele><time>2026-03-28T14:24:20.188Z</time></trkpt><trkpt lat="43.4634078" lon="11.3950063"><ele>516.0</ele><time>2026-03-28T14:24:21.188Z</time></trkpt><trkpt lat="43.463504" lon="11.3948775"><ele>516.0</ele><time>2026-03-28T14:24:22.189Z</time></trkpt><trkpt lat="43.4635893" lon="11.3947515"><ele>516.0</ele><time>2026-03-28T14:24:23.188Z</time></trkpt><trkpt lat="43.4636605" lon="11.3946099"><ele>515.0</ele><time>2026-03-28T14:24:24.188Z</time></trkpt><trkpt lat="43.4637325" lon="11.3944559"><ele>514.0</ele><time>2026-03-28T14:24:25.189Z</time></trkpt><trkpt lat="43.4638137" lon="11.3943054"><ele>513.0</ele><time>2026-03-28T14:24:26.188Z</time></trkpt><trkpt lat="43.4638963" lon="11.3941499"><ele>512.0</ele><time>2026-03-28T14:24:27.188Z</time></trkpt><trkpt lat="43.4639756" lon="11.3940037"><ele>513.6</ele><time>2026-03-28T14:24:28.188Z</time></trkpt><trkpt lat="43.4640453" lon="11.3938758"><ele>515.2</ele><time>2026-03-28T14:24:29.188Z</time></trkpt><trkpt lat="43.4641001" lon="11.3937475"><ele>516.8</ele><time>2026-03-28T14:24:30.188Z</time></trkpt><trkpt lat="43.4641348" lon="11.3936215"><ele>518.4</ele><time>2026-03-28T14:24:31.189Z</time></trkpt><trkpt lat="43.4641639" lon="11.3934909"><ele>520.0</ele><time>2026-03-28T14:24:32.188Z</time></trkpt><trkpt lat="43.4641899" lon="11.393365"><ele>520.0</ele><time>2026-03-28T14:24:33.189Z</time></trkpt><trkpt lat="43.4642145" lon="11.393248"><ele>520.0</ele><time>2026-03-28T14:24:34.188Z</time></trkpt><trkpt lat="43.4642449" lon="11.3931587"><ele>520.0</ele><time>2026-03-28T14:24:35.188Z</time></trkpt><trkpt lat="43.4643291" lon="11.3930716"><ele>520.0</ele><time>2026-03-28T14:24:37.188Z</time></trkpt><trkpt lat="43.464425" lon="11.3930832"><ele>520.0</ele><time>2026-03-28T14:24:39.188Z</time></trkpt><trkpt lat="43.4645146" lon="11.3931315"><ele>517.8</ele><time>2026-03-28T14:24:41.188Z</time></trkpt><trkpt lat="43.4646229" lon="11.3931784"><ele>515.6</ele><time>2026-03-28T14:24:43.189Z</time></trkpt><trkpt lat="43.4647328" lon="11.3932196"><ele>513.4</ele><time>2026-03-28T14:24:45.188Z</time></trkpt><trkpt lat="43.4648454" lon="11.3932657"><ele>511.2</ele><time>2026-03-28T14:24:47.188Z</time></trkpt><trkpt lat="43.4649114" lon="11.3932944"><ele>509.0</ele><time>2026-03-28T14:24:48.189Z</time></trkpt><trkpt lat="43.4649865" lon="11.3933174"><ele>508.99999999999994</ele><time>2026-03-28T14:24:49.188Z</time></trkpt><trkpt lat="43.4650587" lon="11.3933479"><ele>509.0</ele><time>2026-03-28T14:24:50.188Z</time></trkpt><trkpt lat="43.4651348" lon="11.393378"><ele>509.0</ele><time>2026-03-28T14:24:51.188Z</time></trkpt><trkpt lat="43.4652132" lon="11.3934089"><ele>509.0</ele><time>2026-03-28T14:24:52.188Z</time></trkpt><trkpt lat="43.4652905" lon="11.3934373"><ele>508.99999999999994</ele><time>2026-03-28T14:24:53.188Z</time></trkpt><trkpt lat="43.4653708" lon="11.3934601"><ele>509.0</ele><time>2026-03-28T14:24:54.187Z</time></trkpt><trkpt lat="43.4654545" lon="11.393481"><ele>507.16666666666663</ele><time>2026-03-28T14:24:55.187Z</time></trkpt><trkpt lat="43.4655355" lon="11.3934991"><ele>505.3333333333333</ele><time>2026-03-28T14:24:56.189Z</time></trkpt><trkpt lat="43.4656217" lon="11.3935125"><ele>503.5</ele><time>2026-03-28T14:24:57.188Z</time></trkpt><trkpt lat="43.4657068" lon="11.3935244"><ele>501.66666666666663</ele><time>2026-03-28T14:24:58.188Z</time></trkpt><trkpt lat="43.4657836" lon="11.3935381"><ele>499.8333333333333</ele><time>2026-03-28T14:24:59.188Z</time></trkpt><trkpt lat="43.4658639" lon="11.393548"><ele>498.0</ele><time>2026-03-28T14:25:00.188Z</time></trkpt><trkpt lat="43.4659383" lon="11.3935555"><ele>498.0</ele><time>2026-03-28T14:25:01.188Z</time></trkpt><trkpt lat="43.4660162" lon="11.3935698"><ele>498.0</ele><time>2026-03-28T14:25:02.189Z</time></trkpt><trkpt lat="43.4661049" lon="11.3935802"><ele>498.0</ele><time>2026-03-28T14:25:03.189Z</time></trkpt><trkpt lat="43.4661928" lon="11.3935879"><ele>498.0</ele><time>2026-03-28T14:25:04.188Z</time></trkpt><trkpt lat="43.4662728" lon="11.3935967"><ele>498.0</ele><time>2026-03-28T14:25:05.189Z</time></trkpt><trkpt lat="43.4663501" lon="11.3936098"><ele>498.0</ele><time>2026-03-28T14:25:06.188Z</time></trkpt><trkpt lat="43.4664331" lon="11.3936274"><ele>496.6666666666667</ele><time>2026-03-28T14:25:07.189Z</time></trkpt><trkpt lat="43.466517" lon="11.3936552"><ele>495.33333333333337</ele><time>2026-03-28T14:25:08.188Z</time></trkpt><trkpt lat="43.4665945" lon="11.3936883"><ele>494.0</ele><time>2026-03-28T14:25:09.188Z</time></trkpt><trkpt lat="43.4666767" lon="11.3937176"><ele>492.6666666666667</ele><time>2026-03-28T14:25:10.188Z</time></trkpt><trkpt lat="43.4667572" lon="11.3937465"><ele>491.33333333333337</ele><time>2026-03-28T14:25:11.188Z</time></trkpt><trkpt lat="43.4668259" lon="11.3937772"><ele>490.0</ele><time>2026-03-28T14:25:12.189Z</time></trkpt><trkpt lat="43.4669012" lon="11.3938135"><ele>489.50000000000006</ele><time>2026-03-28T14:25:13.189Z</time></trkpt><trkpt lat="43.4669752" lon="11.3938652"><ele>489.0</ele><time>2026-03-28T14:25:14.188Z</time></trkpt><trkpt lat="43.4670451" lon="11.3939218"><ele>488.5</ele><time>2026-03-28T14:25:15.188Z</time></trkpt><trkpt lat="43.4671098" lon="11.3939718"><ele>488.0</ele><time>2026-03-28T14:25:16.188Z</time></trkpt><trkpt lat="43.4671799" lon="11.3940019"><ele>487.50000000000006</ele><time>2026-03-28T14:25:17.188Z</time></trkpt><trkpt lat="43.467254" lon="11.3940147"><ele>487.0</ele><time>2026-03-28T14:25:18.188Z</time></trkpt><trkpt lat="43.4673195" lon="11.393998"><ele>487.00000000000006</ele><time>2026-03-28T14:25:19.188Z</time></trkpt><trkpt lat="43.4673905" lon="11.3939583"><ele>487.0</ele><time>2026-03-28T14:25:20.188Z</time></trkpt><trkpt lat="43.4674541" lon="11.3938985"><ele>487.0</ele><time>2026-03-28T14:25:21.188Z</time></trkpt><trkpt lat="43.46751" lon="11.3938104"><ele>487.0</ele><time>2026-03-28T14:25:22.188Z</time></trkpt><trkpt lat="43.4675618" lon="11.3937327"><ele>487.00000000000006</ele><time>2026-03-28T14:25:23.188Z</time></trkpt><trkpt lat="43.4676191" lon="11.3936504"><ele>487.0</ele><time>2026-03-28T14:25:24.189Z</time></trkpt><trkpt lat="43.4676633" lon="11.3935665"><ele>487.8571428571429</ele><time>2026-03-28T14:25:25.189Z</time></trkpt><trkpt lat="43.4676984" lon="11.393493"><ele>488.71428571428567</ele><time>2026-03-28T14:25:26.188Z</time></trkpt><trkpt lat="43.4677556" lon="11.3933514"><ele>489.57142857142856</ele><time>2026-03-28T14:25:28.189Z</time></trkpt><trkpt lat="43.4677512" lon="11.3932635"><ele>490.42857142857144</ele><time>2026-03-28T14:25:29.189Z</time></trkpt><trkpt lat="43.4677519" lon="11.3931699"><ele>491.28571428571433</ele><time>2026-03-28T14:25:30.188Z</time></trkpt><trkpt lat="43.4677537" lon="11.3930813"><ele>492.1428571428571</ele><time>2026-03-28T14:25:31.188Z</time></trkpt><trkpt lat="43.4677602" lon="11.3929856"><ele>493.0</ele><time>2026-03-28T14:25:32.189Z</time></trkpt><trkpt lat="43.4677658" lon="11.3928892"><ele>493.83333333333337</ele><time>2026-03-28T14:25:33.189Z</time></trkpt><trkpt lat="43.4677597" lon="11.3927897"><ele>494.6666666666667</ele><time>2026-03-28T14:25:34.188Z</time></trkpt><trkpt lat="43.4677416" lon="11.3926962"><ele>495.5</ele><time>2026-03-28T14:25:35.188Z</time></trkpt><trkpt lat="43.4676928" lon="11.3925213"><ele>496.33333333333337</ele><time>2026-03-28T14:25:37.189Z</time></trkpt><trkpt lat="43.4676674" lon="11.3924318"><ele>497.1666666666667</ele><time>2026-03-28T14:25:38.188Z</time></trkpt><trkpt lat="43.4676465" lon="11.3923261"><ele>498.0</ele><time>2026-03-28T14:25:39.189Z</time></trkpt><trkpt lat="43.4676213" lon="11.3922057"><ele>498.5</ele><time>2026-03-28T14:25:40.188Z</time></trkpt><trkpt lat="43.467604" lon="11.3920857"><ele>499.0</ele><time>2026-03-28T14:25:41.188Z</time></trkpt><trkpt lat="43.46759" lon="11.3919792"><ele>499.5</ele><time>2026-03-28T14:25:42.189Z</time></trkpt><trkpt lat="43.4675832" lon="11.3918632"><ele>500.0</ele><time>2026-03-28T14:25:43.188Z</time></trkpt><trkpt lat="43.4675719" lon="11.3917505"><ele>500.5</ele><time>2026-03-28T14:25:44.188Z</time></trkpt><trkpt lat="43.4675642" lon="11.3916414"><ele>501.0</ele><time>2026-03-28T14:25:45.189Z</time></trkpt><trkpt lat="43.4675726" lon="11.391531"><ele>501.0</ele><time>2026-03-28T14:25:46.189Z</time></trkpt><trkpt lat="43.4675888" lon="11.3914238"><ele>501.0</ele><time>2026-03-28T14:25:47.188Z</time></trkpt><trkpt lat="43.4676212" lon="11.3913354"><ele>501.0</ele><time>2026-03-28T14:25:48.189Z</time></trkpt><trkpt lat="43.4676641" lon="11.3912485"><ele>501.0</ele><time>2026-03-28T14:25:49.188Z</time></trkpt><trkpt lat="43.4677152" lon="11.3911703"><ele>501.0</ele><time>2026-03-28T14:25:50.189Z</time></trkpt><trkpt lat="43.4677704" lon="11.3910923"><ele>501.0</ele><time>2026-03-28T14:25:51.188Z</time></trkpt><trkpt lat="43.4678337" lon="11.3910153"><ele>502.3333333333333</ele><time>2026-03-28T14:25:52.188Z</time></trkpt><trkpt lat="43.4678948" lon="11.3909374"><ele>503.66666666666663</ele><time>2026-03-28T14:25:53.188Z</time></trkpt><trkpt lat="43.4679499" lon="11.3908663"><ele>505.0</ele><time>2026-03-28T14:25:54.189Z</time></trkpt><trkpt lat="43.4679991" lon="11.3907905"><ele>506.3333333333333</ele><time>2026-03-28T14:25:55.188Z</time></trkpt><trkpt lat="43.4680682" lon="11.3906685"><ele>507.66666666666663</ele><time>2026-03-28T14:25:57.188Z</time></trkpt><trkpt lat="43.4680863" lon="11.3905307"><ele>509.0</ele><time>2026-03-28T14:25:59.189Z</time></trkpt><trkpt lat="43.4680576" lon="11.3903881"><ele>508.99999999999994</ele><time>2026-03-28T14:26:01.189Z</time></trkpt><trkpt lat="43.468036" lon="11.3902994"><ele>509.0</ele><time>2026-03-28T14:26:02.188Z</time></trkpt><trkpt lat="43.4680017" lon="11.3901937"><ele>509.0</ele><time>2026-03-28T14:26:03.188Z</time></trkpt><trkpt lat="43.4679781" lon="11.3900841"><ele>509.0</ele><time>2026-03-28T14:26:04.188Z</time></trkpt><trkpt lat="43.4679445" lon="11.3899785"><ele>508.99999999999994</ele><time>2026-03-28T14:26:05.188Z</time></trkpt><trkpt lat="43.4679087" lon="11.389868"><ele>509.0</ele><time>2026-03-28T14:26:06.188Z</time></trkpt><trkpt lat="43.4678734" lon="11.389757"><ele>507.16666666666663</ele><time>2026-03-28T14:26:07.188Z</time></trkpt><trkpt lat="43.4678475" lon="11.3896497"><ele>505.3333333333333</ele><time>2026-03-28T14:26:08.189Z</time></trkpt><trkpt lat="43.4678222" lon="11.3895436"><ele>503.5</ele><time>2026-03-28T14:26:09.188Z</time></trkpt><trkpt lat="43.4678021" lon="11.3894371"><ele>501.66666666666663</ele><time>2026-03-28T14:26:10.189Z</time></trkpt><trkpt lat="43.4677851" lon="11.3893474"><ele>499.8333333333333</ele><time>2026-03-28T14:26:11.189Z</time></trkpt><trkpt lat="43.4677633" lon="11.3892437"><ele>498.0</ele><time>2026-03-28T14:26:12.188Z</time></trkpt><trkpt lat="43.4677494" lon="11.3891329"><ele>498.0</ele><time>2026-03-28T14:26:13.188Z</time></trkpt><trkpt lat="43.4677355" lon="11.3890259"><ele>498.0</ele><time>2026-03-28T14:26:14.188Z</time></trkpt><trkpt lat="43.4677202" lon="11.3889163"><ele>498.0</ele><time>2026-03-28T14:26:15.188Z</time></trkpt><trkpt lat="43.4677026" lon="11.388802"><ele>498.0</ele><time>2026-03-28T14:26:16.187Z</time></trkpt><trkpt lat="43.4676951" lon="11.3887089"><ele>498.0</ele><time>2026-03-28T14:26:17.188Z</time></trkpt><trkpt lat="43.4677126" lon="11.3885514"><ele>498.0</ele><time>2026-03-28T14:26:19.188Z</time></trkpt><trkpt lat="43.4677612" lon="11.3884285"><ele>498.1666666666667</ele><time>2026-03-28T14:26:21.189Z</time></trkpt><trkpt lat="43.4678418" lon="11.3883077"><ele>498.33333333333337</ele><time>2026-03-28T14:26:23.189Z</time></trkpt><trkpt lat="43.4678832" lon="11.3882393"><ele>498.5</ele><time>2026-03-28T14:26:24.188Z</time></trkpt><trkpt lat="43.4679236" lon="11.3881648"><ele>498.6666666666667</ele><time>2026-03-28T14:26:25.188Z</time></trkpt><trkpt lat="43.467958" lon="11.3880906"><ele>498.83333333333337</ele><time>2026-03-28T14:26:26.188Z</time></trkpt><trkpt lat="43.4679929" lon="11.3880098"><ele>499.0</ele><time>2026-03-28T14:26:27.189Z</time></trkpt><trkpt lat="43.4680266" lon="11.3879262"><ele>498.4285714285715</ele><time>2026-03-28T14:26:28.189Z</time></trkpt><trkpt lat="43.4680623" lon="11.3878468"><ele>497.8571428571429</ele><time>2026-03-28T14:26:29.189Z</time></trkpt><trkpt lat="43.4680965" lon="11.3877635"><ele>497.2857142857143</ele><time>2026-03-28T14:26:30.188Z</time></trkpt><trkpt lat="43.4681405" lon="11.3876769"><ele>496.7142857142857</ele><time>2026-03-28T14:26:31.188Z</time></trkpt><trkpt lat="43.4681836" lon="11.3875885"><ele>496.1428571428571</ele><time>2026-03-28T14:26:32.187Z</time></trkpt><trkpt lat="43.4682259" lon="11.3874974"><ele>495.5714285714285</ele><time>2026-03-28T14:26:33.189Z</time></trkpt><trkpt lat="43.4682647" lon="11.3874057"><ele>494.99999999999994</ele><time>2026-03-28T14:26:34.188Z</time></trkpt><trkpt lat="43.4683058" lon="11.3873034"><ele>495.0</ele><time>2026-03-28T14:26:35.188Z</time></trkpt><trkpt lat="43.4683473" lon="11.3872108"><ele>495.0</ele><time>2026-03-28T14:26:36.189Z</time></trkpt><trkpt lat="43.4683972" lon="11.3871221"><ele>495.0</ele><time>2026-03-28T14:26:37.187Z</time></trkpt><trkpt lat="43.4684437" lon="11.3870335"><ele>495.0</ele><time>2026-03-28T14:26:38.189Z</time></trkpt><trkpt lat="43.4684898" lon="11.3869574"><ele>495.0</ele><time>2026-03-28T14:26:39.189Z</time></trkpt><trkpt lat="43.4685287" lon="11.3868888"><ele>495.0</ele><time>2026-03-28T14:26:40.188Z</time></trkpt><trkpt lat="43.4685916" lon="11.3867498"><ele>493.1666666666667</ele><time>2026-03-28T14:26:42.189Z</time></trkpt><trkpt lat="43.4686178" lon="11.3865846"><ele>491.33333333333337</ele><time>2026-03-28T14:26:44.188Z</time></trkpt><trkpt lat="43.4686122" lon="11.3864953"><ele>489.5</ele><time>2026-03-28T14:26:45.188Z</time></trkpt><trkpt lat="43.4686057" lon="11.3863968"><ele>487.6666666666667</ele><time>2026-03-28T14:26:46.188Z</time></trkpt><trkpt lat="43.468609" lon="11.386305"><ele>485.83333333333337</ele><time>2026-03-28T14:26:47.188Z</time></trkpt><trkpt lat="43.4686268" lon="11.3861537"><ele>484.0</ele><time>2026-03-28T14:26:49.188Z</time></trkpt><trkpt lat="43.4686418" lon="11.3860646"><ele>482.6</ele><time>2026-03-28T14:26:51.188Z</time></trkpt><trkpt lat="43.4686549" lon="11.3859397"><ele>481.2</ele><time>2026-03-28T14:27:22.189Z</time></trkpt><trkpt lat="43.4686533" lon="11.3857947"><ele>479.80000000000007</ele><time>2026-03-28T14:27:24.188Z</time></trkpt><trkpt lat="43.4686383" lon="11.3856444"><ele>478.40000000000003</ele><time>2026-03-28T14:27:26.189Z</time></trkpt><trkpt lat="43.4686362" lon="11.3854947"><ele>477.0</ele><time>2026-03-28T14:27:28.188Z</time></trkpt><trkpt lat="43.4686628" lon="11.385347"><ele>476.5</ele><time>2026-03-28T14:27:30.189Z</time></trkpt><trkpt lat="43.4687202" lon="11.3852065"><ele>476.0</ele><time>2026-03-28T14:27:32.189Z</time></trkpt><trkpt lat="43.4687651" lon="11.3851448"><ele>475.5</ele><time>2026-03-28T14:27:33.188Z</time></trkpt><trkpt lat="43.4688157" lon="11.3850931"><ele>475.0</ele><time>2026-03-28T14:27:34.188Z</time></trkpt><trkpt lat="43.4688719" lon="11.3850467"><ele>474.5</ele><time>2026-03-28T14:27:35.188Z</time></trkpt><trkpt lat="43.468935" lon="11.3850104"><ele>474.0</ele><time>2026-03-28T14:27:36.188Z</time></trkpt><trkpt lat="43.4690045" lon="11.3849812"><ele>473.42857142857133</ele><time>2026-03-28T14:27:37.187Z</time></trkpt><trkpt lat="43.4690734" lon="11.3849583"><ele>472.85714285714283</ele><time>2026-03-28T14:27:38.188Z</time></trkpt><trkpt lat="43.469143" lon="11.3849371"><ele>472.2857142857142</ele><time>2026-03-28T14:27:39.188Z</time></trkpt><trkpt lat="43.469221" lon="11.3849267"><ele>471.71428571428567</ele><time>2026-03-28T14:27:40.188Z</time></trkpt><trkpt lat="43.4692921" lon="11.3849289"><ele>471.1428571428571</ele><time>2026-03-28T14:27:41.189Z</time></trkpt><trkpt lat="43.469364" lon="11.3849449"><ele>470.57142857142856</ele><time>2026-03-28T14:27:42.189Z</time></trkpt><trkpt lat="43.4694352" lon="11.384982"><ele>470.0</ele><time>2026-03-28T14:27:43.188Z</time></trkpt><trkpt lat="43.4695023" lon="11.3850408"><ele>469.99999999999994</ele><time>2026-03-28T14:27:44.189Z</time></trkpt><trkpt lat="43.4695638" lon="11.3851128"><ele>470.0</ele><time>2026-03-28T14:27:45.188Z</time></trkpt><trkpt lat="43.4696203" lon="11.3851999"><ele>470.0</ele><time>2026-03-28T14:27:46.188Z</time></trkpt><trkpt lat="43.4696692" lon="11.3852866"><ele>470.0</ele><time>2026-03-28T14:27:47.188Z</time></trkpt><trkpt lat="43.4697126" lon="11.3853664"><ele>469.99999999999994</ele><time>2026-03-28T14:27:48.188Z</time></trkpt><trkpt lat="43.4697891" lon="11.3854834"><ele>470.0</ele><time>2026-03-28T14:27:50.189Z</time></trkpt><trkpt lat="43.4698722" lon="11.3854933"><ele>467.66666666666663</ele><time>2026-03-28T14:27:52.188Z</time></trkpt><trkpt lat="43.4699348" lon="11.3853924"><ele>465.3333333333333</ele><time>2026-03-28T14:27:54.188Z</time></trkpt><trkpt lat="43.46995" lon="11.385304"><ele>463.0</ele><time>2026-03-28T14:27:55.189Z</time></trkpt><trkpt lat="43.4699669" lon="11.3852052"><ele>460.66666666666663</ele><time>2026-03-28T14:27:56.188Z</time></trkpt><trkpt lat="43.4699773" lon="11.3850978"><ele>458.3333333333333</ele><time>2026-03-28T14:27:57.189Z</time></trkpt><trkpt lat="43.4699949" lon="11.384985"><ele>456.0</ele><time>2026-03-28T14:27:58.188Z</time></trkpt><trkpt lat="43.4700195" lon="11.384877"><ele>456.0</ele><time>2026-03-28T14:27:59.188Z</time></trkpt><trkpt lat="43.4700551" lon="11.3847785"><ele>456.0</ele><time>2026-03-28T14:28:00.188Z</time></trkpt><trkpt lat="43.4700982" lon="11.3846826"><ele>456.0</ele><time>2026-03-28T14:28:01.188Z</time></trkpt><trkpt lat="43.4701403" lon="11.38458"><ele>456.0</ele><time>2026-03-28T14:28:02.189Z</time></trkpt><trkpt lat="43.4701724" lon="11.384462"><ele>456.0</ele><time>2026-03-28T14:28:03.187Z</time></trkpt><trkpt lat="43.4701935" lon="11.3843414"><ele>456.0</ele><time>2026-03-28T14:28:04.188Z</time></trkpt><trkpt lat="43.4702075" lon="11.3842225"><ele>455.5</ele><time>2026-03-28T14:28:05.189Z</time></trkpt><trkpt lat="43.470222" lon="11.3840989"><ele>455.0</ele><time>2026-03-28T14:28:06.188Z</time></trkpt><trkpt lat="43.4702427" lon="11.3839883"><ele>454.5</ele><time>2026-03-28T14:28:07.189Z</time></trkpt><trkpt lat="43.4702688" lon="11.3838758"><ele>454.0</ele><time>2026-03-28T14:28:08.189Z</time></trkpt><trkpt lat="43.4702954" lon="11.3837613"><ele>453.5</ele><time>2026-03-28T14:28:09.188Z</time></trkpt><trkpt lat="43.4703267" lon="11.3836451"><ele>453.0</ele><time>2026-03-28T14:28:10.188Z</time></trkpt><trkpt lat="43.4703576" lon="11.3835283"><ele>452.5</ele><time>2026-03-28T14:28:11.188Z</time></trkpt><trkpt lat="43.4704009" lon="11.383424"><ele>452.0</ele><time>2026-03-28T14:28:12.189Z</time></trkpt><trkpt lat="43.4704557" lon="11.3833365"><ele>451.5</ele><time>2026-03-28T14:28:13.189Z</time></trkpt><trkpt lat="43.4705187" lon="11.3832707"><ele>451.0</ele><time>2026-03-28T14:28:14.188Z</time></trkpt><trkpt lat="43.4705823" lon="11.3832133"><ele>450.5</ele><time>2026-03-28T14:28:15.189Z</time></trkpt><trkpt lat="43.4706471" lon="11.3831648"><ele>450.0</ele><time>2026-03-28T14:28:16.189Z</time></trkpt><trkpt lat="43.4707139" lon="11.3831252"><ele>451.8333333333333</ele><time>2026-03-28T14:28:17.188Z</time></trkpt><trkpt lat="43.4707786" lon="11.383087"><ele>453.66666666666663</ele><time>2026-03-28T14:28:18.189Z</time></trkpt><trkpt lat="43.4708436" lon="11.3830514"><ele>455.5</ele><time>2026-03-28T14:28:19.189Z</time></trkpt><trkpt lat="43.4709122" lon="11.3830181"><ele>457.3333333333333</ele><time>2026-03-28T14:28:20.188Z</time></trkpt><trkpt lat="43.4709873" lon="11.3829787"><ele>459.16666666666663</ele><time>2026-03-28T14:28:21.188Z</time></trkpt><trkpt lat="43.471063" lon="11.3829319"><ele>461.0</ele><time>2026-03-28T14:28:22.189Z</time></trkpt><trkpt lat="43.4711361" lon="11.3828814"><ele>460.99999999999994</ele><time>2026-03-28T14:28:23.187Z</time></trkpt><trkpt lat="43.4712095" lon="11.3828256"><ele>461.0</ele><time>2026-03-28T14:28:24.188Z</time></trkpt><trkpt lat="43.4712829" lon="11.3827561"><ele>461.0</ele><time>2026-03-28T14:28:25.188Z</time></trkpt><trkpt lat="43.4713493" lon="11.3826799"><ele>461.0</ele><time>2026-03-28T14:28:26.188Z</time></trkpt><trkpt lat="43.4714099" lon="11.3825907"><ele>460.99999999999994</ele><time>2026-03-28T14:28:27.189Z</time></trkpt><trkpt lat="43.471466" lon="11.3824882"><ele>461.0</ele><time>2026-03-28T14:28:28.189Z</time></trkpt><trkpt lat="43.4715047" lon="11.3823797"><ele>463.8333333333333</ele><time>2026-03-28T14:28:29.188Z</time></trkpt><trkpt lat="43.4715431" lon="11.3822686"><ele>466.66666666666663</ele><time>2026-03-28T14:28:30.188Z</time></trkpt><trkpt lat="43.4715872" lon="11.382162"><ele>469.5</ele><time>2026-03-28T14:28:31.188Z</time></trkpt><trkpt lat="43.4716347" lon="11.3820654"><ele>472.33333333333337</ele><time>2026-03-28T14:28:32.189Z</time></trkpt><trkpt lat="43.4716902" lon="11.3819759"><ele>475.1666666666667</ele><time>2026-03-28T14:28:33.189Z</time></trkpt><trkpt lat="43.471753" lon="11.3818934"><ele>478.0</ele><time>2026-03-28T14:28:34.188Z</time></trkpt><trkpt lat="43.4718121" lon="11.3818051"><ele>478.00000000000006</ele><time>2026-03-28T14:28:35.188Z</time></trkpt><trkpt lat="43.4718514" lon="11.3817194"><ele>478.0</ele><time>2026-03-28T14:28:36.188Z</time></trkpt><trkpt lat="43.4718868" lon="11.3816262"><ele>478.0</ele><time>2026-03-28T14:28:37.187Z</time></trkpt><trkpt lat="43.4719144" lon="11.381542"><ele>478.0</ele><time>2026-03-28T14:28:38.189Z</time></trkpt><trkpt lat="43.4719446" lon="11.3814251"><ele>478.00000000000006</ele><time>2026-03-28T14:28:40.189Z</time></trkpt><trkpt lat="43.4719782" lon="11.3813132"><ele>478.0</ele><time>2026-03-28T14:28:42.188Z</time></trkpt><trkpt lat="43.4720256" lon="11.3812558"><ele>478.0</ele><time>2026-03-28T14:28:55.187Z</time></trkpt><trkpt lat="43.4720456" lon="11.3813678"><ele>477.99999999999994</ele><time>2026-03-28T14:29:22.187Z</time></trkpt><trkpt lat="43.4721005" lon="11.3814964"><ele>477.99999999999994</ele><time>2026-03-28T14:29:24.189Z</time></trkpt><trkpt lat="43.4721772" lon="11.3816408"><ele>478.0</ele><time>2026-03-28T14:29:26.188Z</time></trkpt><trkpt lat="43.472222" lon="11.3817286"><ele>478.0</ele><time>2026-03-28T14:29:27.189Z</time></trkpt><trkpt lat="43.4722653" lon="11.3818171"><ele>478.2</ele><time>2026-03-28T14:29:28.189Z</time></trkpt><trkpt lat="43.4723172" lon="11.3819129"><ele>478.4</ele><time>2026-03-28T14:29:29.188Z</time></trkpt><trkpt lat="43.4723725" lon="11.3820049"><ele>478.59999999999997</ele><time>2026-03-28T14:29:30.189Z</time></trkpt><trkpt lat="43.4724297" lon="11.3821077"><ele>478.79999999999995</ele><time>2026-03-28T14:29:31.188Z</time></trkpt><trkpt lat="43.4724916" lon="11.3822132"><ele>479.0</ele><time>2026-03-28T14:29:32.188Z</time></trkpt><trkpt lat="43.4725533" lon="11.3823237"><ele>480.4</ele><time>2026-03-28T14:29:33.188Z</time></trkpt><trkpt lat="43.4726224" lon="11.3824358"><ele>481.79999999999995</ele><time>2026-03-28T14:29:34.188Z</time></trkpt><trkpt lat="43.4726954" lon="11.382544"><ele>483.20000000000005</ele><time>2026-03-28T14:29:35.189Z</time></trkpt><trkpt lat="43.4727683" lon="11.382653"><ele>484.6</ele><time>2026-03-28T14:29:36.188Z</time></trkpt><trkpt lat="43.4728431" lon="11.3827619"><ele>486.0</ele><time>2026-03-28T14:29:37.188Z</time></trkpt><trkpt lat="43.4729175" lon="11.3828697"><ele>484.4</ele><time>2026-03-28T14:29:38.189Z</time></trkpt><trkpt lat="43.4729953" lon="11.3829789"><ele>482.8</ele><time>2026-03-28T14:29:39.188Z</time></trkpt><trkpt lat="43.4730719" lon="11.3830852"><ele>481.19999999999993</ele><time>2026-03-28T14:29:40.188Z</time></trkpt><trkpt lat="43.4731433" lon="11.3831824"><ele>479.59999999999997</ele><time>2026-03-28T14:29:41.189Z</time></trkpt><trkpt lat="43.4732073" lon="11.3832643"><ele>478.0</ele><time>2026-03-28T14:29:42.187Z</time></trkpt><trkpt lat="43.4732781" lon="11.3833441"><ele>480.6666666666667</ele><time>2026-03-28T14:29:43.189Z</time></trkpt><trkpt lat="43.4733552" lon="11.3834176"><ele>483.33333333333337</ele><time>2026-03-28T14:29:44.188Z</time></trkpt><trkpt lat="43.473432" lon="11.383476"><ele>486.0</ele><time>2026-03-28T14:29:45.188Z</time></trkpt><trkpt lat="43.4735129" lon="11.3835188"><ele>488.66666666666663</ele><time>2026-03-28T14:29:46.188Z</time></trkpt><trkpt lat="43.4735816" lon="11.3835389"><ele>491.3333333333333</ele><time>2026-03-28T14:29:47.189Z</time></trkpt><trkpt lat="43.4736514" lon="11.3835297"><ele>494.0</ele><time>2026-03-28T14:29:48.188Z</time></trkpt><trkpt lat="43.473715" lon="11.3835002"><ele>494.66666666666663</ele><time>2026-03-28T14:29:49.188Z</time></trkpt><trkpt lat="43.4737766" lon="11.3834603"><ele>495.3333333333333</ele><time>2026-03-28T14:29:50.189Z</time></trkpt><trkpt lat="43.4738475" lon="11.3834163"><ele>496.0</ele><time>2026-03-28T14:29:51.188Z</time></trkpt><trkpt lat="43.473922" lon="11.3833868"><ele>496.66666666666663</ele><time>2026-03-28T14:29:52.189Z</time></trkpt><trkpt lat="43.4740006" lon="11.3833592"><ele>497.3333333333333</ele><time>2026-03-28T14:29:53.188Z</time></trkpt><trkpt lat="43.4740784" lon="11.3833472"><ele>498.0</ele><time>2026-03-28T14:29:54.189Z</time></trkpt><trkpt lat="43.474156" lon="11.3833459"><ele>498.0</ele><time>2026-03-28T14:29:55.189Z</time></trkpt><trkpt lat="43.4742329" lon="11.3833538"><ele>498.0</ele><time>2026-03-28T14:29:56.189Z</time></trkpt><trkpt lat="43.4743052" lon="11.3833724"><ele>498.0</ele><time>2026-03-28T14:29:57.189Z</time></trkpt><trkpt lat="43.4743809" lon="11.383395"><ele>498.0</ele><time>2026-03-28T14:29:58.189Z</time></trkpt><trkpt lat="43.4744596" lon="11.3834226"><ele>498.0</ele><time>2026-03-28T14:29:59.188Z</time></trkpt><trkpt lat="43.4745389" lon="11.3834494"><ele>498.0</ele><time>2026-03-28T14:30:00.188Z</time></trkpt><trkpt lat="43.4746215" lon="11.3834844"><ele>498.0</ele><time>2026-03-28T14:30:01.188Z</time></trkpt><trkpt lat="43.4747008" lon="11.3835346"><ele>498.0</ele><time>2026-03-28T14:30:02.189Z</time></trkpt><trkpt lat="43.4747804" lon="11.3835919"><ele>498.0</ele><time>2026-03-28T14:30:03.188Z</time></trkpt><trkpt lat="43.4748476" lon="11.3836547"><ele>498.0</ele><time>2026-03-28T14:30:04.189Z</time></trkpt><trkpt lat="43.4749027" lon="11.3837329"><ele>498.0</ele><time>2026-03-28T14:30:05.188Z</time></trkpt><trkpt lat="43.4749504" lon="11.3838175"><ele>498.0</ele><time>2026-03-28T14:30:06.189Z</time></trkpt><trkpt lat="43.4749956" lon="11.3839045"><ele>500.5</ele><time>2026-03-28T14:30:07.189Z</time></trkpt><trkpt lat="43.4750472" lon="11.3839942"><ele>503.0</ele><time>2026-03-28T14:30:08.189Z</time></trkpt><trkpt lat="43.475099" lon="11.3840905"><ele>505.5</ele><time>2026-03-28T14:30:09.189Z</time></trkpt><trkpt lat="43.4751539" lon="11.3841869"><ele>508.0</ele><time>2026-03-28T14:30:10.188Z</time></trkpt><trkpt lat="43.4752137" lon="11.3842813"><ele>510.5</ele><time>2026-03-28T14:30:11.189Z</time></trkpt><trkpt lat="43.475277" lon="11.3843655"><ele>513.0</ele><time>2026-03-28T14:30:12.188Z</time></trkpt><trkpt lat="43.4753416" lon="11.3844377"><ele>513.0</ele><time>2026-03-28T14:30:13.188Z</time></trkpt><trkpt lat="43.4754099" lon="11.3845028"><ele>513.0</ele><time>2026-03-28T14:30:14.189Z</time></trkpt><trkpt lat="43.4754813" lon="11.3845678"><ele>513.0</ele><time>2026-03-28T14:30:15.188Z</time></trkpt><trkpt lat="43.4755518" lon="11.3846322"><ele>513.0</ele><time>2026-03-28T14:30:16.188Z</time></trkpt><trkpt lat="43.4756195" lon="11.3846891"><ele>513.0</ele><time>2026-03-28T14:30:17.188Z</time></trkpt><trkpt lat="43.4756882" lon="11.3847359"><ele>513.0</ele><time>2026-03-28T14:30:18.189Z</time></trkpt><trkpt lat="43.475758" lon="11.3847747"><ele>513.5</ele><time>2026-03-28T14:30:19.189Z</time></trkpt><trkpt lat="43.4758317" lon="11.3848147"><ele>514.0</ele><time>2026-03-28T14:30:20.188Z</time></trkpt><trkpt lat="43.4759069" lon="11.3848553"><ele>514.5</ele><time>2026-03-28T14:30:21.188Z</time></trkpt><trkpt lat="43.4759845" lon="11.3848874"><ele>515.0</ele><time>2026-03-28T14:30:22.188Z</time></trkpt><trkpt lat="43.4760676" lon="11.3849084"><ele>515.5</ele><time>2026-03-28T14:30:23.188Z</time></trkpt><trkpt lat="43.4761569" lon="11.3849265"><ele>516.0</ele><time>2026-03-28T14:30:24.188Z</time></trkpt><trkpt lat="43.476244" lon="11.3849456"><ele>516.5</ele><time>2026-03-28T14:30:25.188Z</time></trkpt><trkpt lat="43.4763305" lon="11.3849504"><ele>517.0</ele><time>2026-03-28T14:30:26.189Z</time></trkpt><trkpt lat="43.476415" lon="11.3849506"><ele>517.5</ele><time>2026-03-28T14:30:27.189Z</time></trkpt><trkpt lat="43.4764973" lon="11.384957"><ele>518.0</ele><time>2026-03-28T14:30:28.189Z</time></trkpt><trkpt lat="43.476582" lon="11.3849626"><ele>518.5</ele><time>2026-03-28T14:30:29.188Z</time></trkpt><trkpt lat="43.4766725" lon="11.384966"><ele>519.0</ele><time>2026-03-28T14:30:30.188Z</time></trkpt><trkpt lat="43.4767687" lon="11.3849716"><ele>519.0</ele><time>2026-03-28T14:30:31.188Z</time></trkpt><trkpt lat="43.4768665" lon="11.3849772"><ele>519.0</ele><time>2026-03-28T14:30:32.189Z</time></trkpt><trkpt lat="43.476964" lon="11.384979"><ele>519.0</ele><time>2026-03-28T14:30:33.188Z</time></trkpt><trkpt lat="43.4770606" lon="11.3849771"><ele>519.0</ele><time>2026-03-28T14:30:34.188Z</time></trkpt><trkpt lat="43.4771568" lon="11.3849752"><ele>519.0</ele><time>2026-03-28T14:30:35.189Z</time></trkpt><trkpt lat="43.477249" lon="11.38497"><ele>519.6666666666666</ele><time>2026-03-28T14:30:36.188Z</time></trkpt><trkpt lat="43.4773378" lon="11.3849533"><ele>520.3333333333334</ele><time>2026-03-28T14:30:37.189Z</time></trkpt><trkpt lat="43.4774211" lon="11.3849432"><ele>521.0</ele><time>2026-03-28T14:30:38.188Z</time></trkpt><trkpt lat="43.4775013" lon="11.384953"><ele>521.6666666666667</ele><time>2026-03-28T14:30:39.188Z</time></trkpt><trkpt lat="43.4775765" lon="11.3849777"><ele>522.3333333333334</ele><time>2026-03-28T14:30:40.189Z</time></trkpt><trkpt lat="43.4776506" lon="11.3850083"><ele>523.0</ele><time>2026-03-28T14:30:41.188Z</time></trkpt><trkpt lat="43.4777251" lon="11.3850461"><ele>523.0</ele><time>2026-03-28T14:30:42.188Z</time></trkpt><trkpt lat="43.4777971" lon="11.3850925"><ele>523.0</ele><time>2026-03-28T14:30:43.188Z</time></trkpt><trkpt lat="43.4778743" lon="11.3851408"><ele>523.0</ele><time>2026-03-28T14:30:44.188Z</time></trkpt><trkpt lat="43.4779545" lon="11.3851915"><ele>523.0</ele><time>2026-03-28T14:30:45.188Z</time></trkpt><trkpt lat="43.4780417" lon="11.3852397"><ele>523.0</ele><time>2026-03-28T14:30:46.189Z</time></trkpt><trkpt lat="43.4781359" lon="11.3852727"><ele>523.0</ele><time>2026-03-28T14:30:47.188Z</time></trkpt><trkpt lat="43.4782287" lon="11.3852935"><ele>522.8333333333334</ele><time>2026-03-28T14:30:48.188Z</time></trkpt><trkpt lat="43.4783237" lon="11.3853033"><ele>522.6666666666667</ele><time>2026-03-28T14:30:49.189Z</time></trkpt><trkpt lat="43.4784145" lon="11.3852982"><ele>522.5</ele><time>2026-03-28T14:30:50.188Z</time></trkpt><trkpt lat="43.4785019" lon="11.3852896"><ele>522.3333333333334</ele><time>2026-03-28T14:30:51.188Z</time></trkpt><trkpt lat="43.4785875" lon="11.3852743"><ele>522.1666666666666</ele><time>2026-03-28T14:30:52.189Z</time></trkpt><trkpt lat="43.4786607" lon="11.3852682"><ele>522.0</ele><time>2026-03-28T14:30:53.188Z</time></trkpt><trkpt lat="43.4787235" lon="11.3852497"><ele>520.3333333333334</ele><time>2026-03-28T14:30:54.188Z</time></trkpt><trkpt lat="43.4787831" lon="11.3852213"><ele>518.6666666666666</ele><time>2026-03-28T14:30:55.188Z</time></trkpt><trkpt lat="43.478847" lon="11.3852031"><ele>517.0</ele><time>2026-03-28T14:30:56.189Z</time></trkpt><trkpt lat="43.4789117" lon="11.3851954"><ele>515.3333333333333</ele><time>2026-03-28T14:30:57.188Z</time></trkpt><trkpt lat="43.4790266" lon="11.385214"><ele>513.6666666666666</ele><time>2026-03-28T14:30:59.189Z</time></trkpt><trkpt lat="43.4791435" lon="11.3852234"><ele>512.0</ele><time>2026-03-28T14:31:01.188Z</time></trkpt><trkpt lat="43.4792289" lon="11.3853246"><ele>511.99999999999994</ele><time>2026-03-28T14:31:03.188Z</time></trkpt><trkpt lat="43.4792765" lon="11.3854823"><ele>512.0</ele><time>2026-03-28T14:31:05.188Z</time></trkpt><trkpt lat="43.4792994" lon="11.3855774"><ele>512.0</ele><time>2026-03-28T14:31:06.189Z</time></trkpt><trkpt lat="43.4793271" lon="11.3856822"><ele>512.0</ele><time>2026-03-28T14:31:07.188Z</time></trkpt><trkpt lat="43.4793524" lon="11.3857836"><ele>511.99999999999994</ele><time>2026-03-28T14:31:08.188Z</time></trkpt><trkpt lat="43.4793898" lon="11.3858894"><ele>512.0</ele><time>2026-03-28T14:31:09.188Z</time></trkpt><trkpt lat="43.4794302" lon="11.3859758"><ele>512.3333333333333</ele><time>2026-03-28T14:31:10.189Z</time></trkpt><trkpt lat="43.4794695" lon="11.3860527"><ele>512.6666666666666</ele><time>2026-03-28T14:31:11.189Z</time></trkpt><trkpt lat="43.4795143" lon="11.3861272"><ele>513.0</ele><time>2026-03-28T14:31:12.189Z</time></trkpt><trkpt lat="43.4795735" lon="11.3861905"><ele>513.3333333333334</ele><time>2026-03-28T14:31:13.189Z</time></trkpt><trkpt lat="43.4796387" lon="11.3862491"><ele>513.6666666666667</ele><time>2026-03-28T14:31:14.188Z</time></trkpt><trkpt lat="43.4797035" lon="11.3863158"><ele>514.0</ele><time>2026-03-28T14:31:15.189Z</time></trkpt><trkpt lat="43.4797699" lon="11.3863885"><ele>514.3333333333334</ele><time>2026-03-28T14:31:16.189Z</time></trkpt><trkpt lat="43.4798397" lon="11.3864664"><ele>514.6666666666667</ele><time>2026-03-28T14:31:17.188Z</time></trkpt><trkpt lat="43.4799144" lon="11.386544"><ele>515.0</ele><time>2026-03-28T14:31:18.189Z</time></trkpt><trkpt lat="43.4799897" lon="11.3866194"><ele>515.3333333333334</ele><time>2026-03-28T14:31:19.189Z</time></trkpt><trkpt lat="43.4800632" lon="11.3866818"><ele>515.6666666666666</ele><time>2026-03-28T14:31:20.188Z</time></trkpt><trkpt lat="43.4801359" lon="11.3867397"><ele>516.0</ele><time>2026-03-28T14:31:21.189Z</time></trkpt><trkpt lat="43.4802011" lon="11.3868087"><ele>515.9999999999999</ele><time>2026-03-28T14:31:22.189Z</time></trkpt><trkpt lat="43.4802543" lon="11.3868725"><ele>516.0</ele><time>2026-03-28T14:31:23.188Z</time></trkpt><trkpt lat="43.4803079" lon="11.3869419"><ele>516.0</ele><time>2026-03-28T14:31:24.189Z</time></trkpt><trkpt lat="43.4803391" lon="11.3870262"><ele>516.0</ele><time>2026-03-28T14:31:25.187Z</time></trkpt><trkpt lat="43.480366" lon="11.3871266"><ele>516.0</ele><time>2026-03-28T14:31:26.188Z</time></trkpt><trkpt lat="43.4803911" lon="11.3872168"><ele>515.9999999999999</ele><time>2026-03-28T14:31:27.188Z</time></trkpt><trkpt lat="43.4804005" lon="11.3873118"><ele>516.0</ele><time>2026-03-28T14:31:28.188Z</time></trkpt><trkpt lat="43.4804064" lon="11.3874127"><ele>516.1666666666666</ele><time>2026-03-28T14:31:29.188Z</time></trkpt><trkpt lat="43.4803987" lon="11.3875046"><ele>516.3333333333334</ele><time>2026-03-28T14:31:30.188Z</time></trkpt><trkpt lat="43.4803893" lon="11.3876063"><ele>516.5</ele><time>2026-03-28T14:31:31.188Z</time></trkpt><trkpt lat="43.480373" lon="11.387698"><ele>516.6666666666667</ele><time>2026-03-28T14:31:32.188Z</time></trkpt><trkpt lat="43.4803579" lon="11.3877859"><ele>516.8333333333334</ele><time>2026-03-28T14:31:33.187Z</time></trkpt><trkpt lat="43.480353" lon="11.3879479"><ele>517.0</ele><time>2026-03-28T14:31:35.188Z</time></trkpt><trkpt lat="43.4803687" lon="11.3880321"><ele>515.1666666666667</ele><time>2026-03-28T14:31:36.189Z</time></trkpt><trkpt lat="43.4803955" lon="11.3881191"><ele>513.3333333333334</ele><time>2026-03-28T14:31:37.189Z</time></trkpt><trkpt lat="43.4804357" lon="11.3881979"><ele>511.5</ele><time>2026-03-28T14:31:38.188Z</time></trkpt><trkpt lat="43.4804868" lon="11.3882801"><ele>509.66666666666663</ele><time>2026-03-28T14:31:39.188Z</time></trkpt><trkpt lat="43.4805364" lon="11.3883573"><ele>507.8333333333333</ele><time>2026-03-28T14:31:40.188Z</time></trkpt><trkpt lat="43.4805903" lon="11.3884571"><ele>506.0</ele><time>2026-03-28T14:31:41.189Z</time></trkpt><trkpt lat="43.480649" lon="11.3885517"><ele>505.6</ele><time>2026-03-28T14:31:42.188Z</time></trkpt><trkpt lat="43.4807025" lon="11.3886464"><ele>505.20000000000005</ele><time>2026-03-28T14:31:43.189Z</time></trkpt><trkpt lat="43.4807486" lon="11.3887295"><ele>504.79999999999995</ele><time>2026-03-28T14:31:44.188Z</time></trkpt><trkpt lat="43.4807921" lon="11.3888016"><ele>504.4</ele><time>2026-03-28T14:31:45.188Z</time></trkpt><trkpt lat="43.4808862" lon="11.3889044"><ele>504.0</ele><time>2026-03-28T14:31:47.189Z</time></trkpt><trkpt lat="43.4809882" lon="11.3889972"><ele>504.0</ele><time>2026-03-28T14:31:49.189Z</time></trkpt><trkpt lat="43.4810568" lon="11.3890174"><ele>504.0</ele><time>2026-03-28T14:31:50.189Z</time></trkpt><trkpt lat="43.4811343" lon="11.3890259"><ele>504.0</ele><time>2026-03-28T14:31:51.188Z</time></trkpt><trkpt lat="43.4812054" lon="11.3890339"><ele>504.0</ele><time>2026-03-28T14:31:52.189Z</time></trkpt><trkpt lat="43.4812728" lon="11.3890586"><ele>504.0</ele><time>2026-03-28T14:31:53.188Z</time></trkpt><trkpt lat="43.4813378" lon="11.389112"><ele>504.0</ele><time>2026-03-28T14:31:54.188Z</time></trkpt><trkpt lat="43.4813975" lon="11.3891888"><ele>504.0</ele><time>2026-03-28T14:31:55.188Z</time></trkpt><trkpt lat="43.4814597" lon="11.3892717"><ele>503.6</ele><time>2026-03-28T14:31:56.188Z</time></trkpt><trkpt lat="43.4815275" lon="11.3893572"><ele>503.2</ele><time>2026-03-28T14:31:57.188Z</time></trkpt><trkpt lat="43.4816108" lon="11.3894324"><ele>502.80000000000007</ele><time>2026-03-28T14:31:58.188Z</time></trkpt><trkpt lat="43.4816802" lon="11.389515"><ele>502.40000000000003</ele><time>2026-03-28T14:31:59.188Z</time></trkpt><trkpt lat="43.4817475" lon="11.3895979"><ele>502.0</ele><time>2026-03-28T14:32:00.188Z</time></trkpt><trkpt lat="43.4818219" lon="11.3896841"><ele>502.40000000000003</ele><time>2026-03-28T14:32:01.188Z</time></trkpt><trkpt lat="43.4818964" lon="11.3897675"><ele>502.80000000000007</ele><time>2026-03-28T14:32:02.189Z</time></trkpt><trkpt lat="43.4819673" lon="11.389851"><ele>503.2</ele><time>2026-03-28T14:32:03.188Z</time></trkpt><trkpt lat="43.4820411" lon="11.3899342"><ele>503.6</ele><time>2026-03-28T14:32:04.188Z</time></trkpt><trkpt lat="43.4821082" lon="11.3900127"><ele>504.0</ele><time>2026-03-28T14:32:05.189Z</time></trkpt><trkpt lat="43.4821708" lon="11.3900786"><ele>504.0</ele><time>2026-03-28T14:32:06.188Z</time></trkpt><trkpt lat="43.4822201" lon="11.3901478"><ele>504.0</ele><time>2026-03-28T14:32:07.189Z</time></trkpt><trkpt lat="43.4822689" lon="11.3902316"><ele>504.0</ele><time>2026-03-28T14:32:08.188Z</time></trkpt><trkpt lat="43.4823072" lon="11.3903285"><ele>504.0</ele><time>2026-03-28T14:32:09.189Z</time></trkpt><trkpt lat="43.4823437" lon="11.3904147"><ele>504.0</ele><time>2026-03-28T14:32:10.189Z</time></trkpt><trkpt lat="43.4823879" lon="11.3904999"><ele>504.0</ele><time>2026-03-28T14:32:11.189Z</time></trkpt><trkpt lat="43.4824295" lon="11.3905841"><ele>504.1666666666667</ele><time>2026-03-28T14:32:12.188Z</time></trkpt><trkpt lat="43.4824769" lon="11.3906649"><ele>504.33333333333337</ele><time>2026-03-28T14:32:13.188Z</time></trkpt><trkpt lat="43.4825164" lon="11.3907401"><ele>504.5</ele><time>2026-03-28T14:32:14.188Z</time></trkpt><trkpt lat="43.482568" lon="11.3908106"><ele>504.6666666666667</ele><time>2026-03-28T14:32:15.188Z</time></trkpt><trkpt lat="43.4826268" lon="11.3908797"><ele>504.83333333333337</ele><time>2026-03-28T14:32:16.189Z</time></trkpt><trkpt lat="43.4826922" lon="11.3909458"><ele>505.0</ele><time>2026-03-28T14:32:17.189Z</time></trkpt><trkpt lat="43.4827646" lon="11.391009"><ele>505.0</ele><time>2026-03-28T14:32:18.188Z</time></trkpt><trkpt lat="43.4828449" lon="11.3910745"><ele>505.0</ele><time>2026-03-28T14:32:19.189Z</time></trkpt><trkpt lat="43.4829278" lon="11.3911431"><ele>505.0</ele><time>2026-03-28T14:32:20.189Z</time></trkpt><trkpt lat="43.4830025" lon="11.3912156"><ele>505.0</ele><time>2026-03-28T14:32:21.189Z</time></trkpt><trkpt lat="43.4830811" lon="11.3912854"><ele>505.0</ele><time>2026-03-28T14:32:22.188Z</time></trkpt><trkpt lat="43.4831594" lon="11.3913494"><ele>504.83333333333337</ele><time>2026-03-28T14:32:23.187Z</time></trkpt><trkpt lat="43.4832385" lon="11.3914088"><ele>504.6666666666667</ele><time>2026-03-28T14:32:24.187Z</time></trkpt><trkpt lat="43.4833207" lon="11.3914649"><ele>504.5</ele><time>2026-03-28T14:32:25.188Z</time></trkpt><trkpt lat="43.4833903" lon="11.3915223"><ele>504.33333333333337</ele><time>2026-03-28T14:32:26.187Z</time></trkpt><trkpt lat="43.4834637" lon="11.3915797"><ele>504.1666666666667</ele><time>2026-03-28T14:32:27.188Z</time></trkpt><trkpt lat="43.4835371" lon="11.391642"><ele>504.0</ele><time>2026-03-28T14:32:28.187Z</time></trkpt><trkpt lat="43.4836109" lon="11.3917054"><ele>504.0</ele><time>2026-03-28T14:32:29.188Z</time></trkpt><trkpt lat="43.4836783" lon="11.391767"><ele>504.0</ele><time>2026-03-28T14:32:30.187Z</time></trkpt><trkpt lat="43.4837445" lon="11.3918175"><ele>504.0</ele><time>2026-03-28T14:32:31.187Z</time></trkpt><trkpt lat="43.4837991" lon="11.3918669"><ele>504.0</ele><time>2026-03-28T14:32:32.187Z</time></trkpt><trkpt lat="43.4838489" lon="11.3919308"><ele>504.0</ele><time>2026-03-28T14:32:33.187Z</time></trkpt><trkpt lat="43.4838764" lon="11.3920099"><ele>504.0</ele><time>2026-03-28T14:32:34.188Z</time></trkpt><trkpt lat="43.4838863" lon="11.3921368"><ele>504.0</ele><time>2026-03-28T14:32:36.188Z</time></trkpt><trkpt lat="43.4839164" lon="11.3922647"><ele>505.2</ele><time>2026-03-28T14:32:39.187Z</time></trkpt><trkpt lat="43.4839659" lon="11.392381"><ele>506.4</ele><time>2026-03-28T14:32:41.187Z</time></trkpt><trkpt lat="43.4840293" lon="11.3925347"><ele>507.6</ele><time>2026-03-28T14:32:43.187Z</time></trkpt><trkpt lat="43.4840743" lon="11.3926172"><ele>508.8</ele><time>2026-03-28T14:32:44.188Z</time></trkpt><trkpt lat="43.4841242" lon="11.3926933"><ele>510.0</ele><time>2026-03-28T14:32:45.187Z</time></trkpt><trkpt lat="43.4841793" lon="11.3927787"><ele>510.0</ele><time>2026-03-28T14:32:46.187Z</time></trkpt><trkpt lat="43.484237" lon="11.3928678"><ele>510.0</ele><time>2026-03-28T14:32:47.187Z</time></trkpt><trkpt lat="43.4842887" lon="11.3929582"><ele>510.0</ele><time>2026-03-28T14:32:48.187Z</time></trkpt><trkpt lat="43.484347" lon="11.3930352"><ele>510.0</ele><time>2026-03-28T14:32:49.187Z</time></trkpt><trkpt lat="43.4844082" lon="11.3931081"><ele>510.0</ele><time>2026-03-28T14:32:50.187Z</time></trkpt><trkpt lat="43.4844869" lon="11.3931664"><ele>510.0</ele><time>2026-03-28T14:32:51.187Z</time></trkpt><trkpt lat="43.4845759" lon="11.3932089"><ele>510.8</ele><time>2026-03-28T14:32:52.187Z</time></trkpt><trkpt lat="43.4846715" lon="11.3932428"><ele>511.6</ele><time>2026-03-28T14:32:53.187Z</time></trkpt><trkpt lat="43.4847686" lon="11.3932726"><ele>512.4</ele><time>2026-03-28T14:32:54.187Z</time></trkpt><trkpt lat="43.4848651" lon="11.3932962"><ele>513.2</ele><time>2026-03-28T14:32:55.186Z</time></trkpt><trkpt lat="43.4849529" lon="11.3933181"><ele>514.0</ele><time>2026-03-28T14:32:56.188Z</time></trkpt><trkpt lat="43.4850267" lon="11.3933392"><ele>514.0</ele><time>2026-03-28T14:32:57.187Z</time></trkpt><trkpt lat="43.4850983" lon="11.3933747"><ele>514.0</ele><time>2026-03-28T14:32:58.187Z</time></trkpt><trkpt lat="43.485164" lon="11.3934379"><ele>514.0</ele><time>2026-03-28T14:32:59.187Z</time></trkpt><trkpt lat="43.4852263" lon="11.3935234"><ele>514.0</ele><time>2026-03-28T14:33:00.188Z</time></trkpt><trkpt lat="43.4852755" lon="11.3936169"><ele>514.0</ele><time>2026-03-28T14:33:01.187Z</time></trkpt><trkpt lat="43.4853153" lon="11.39372"><ele>514.0</ele><time>2026-03-28T14:33:02.188Z</time></trkpt><trkpt lat="43.4853448" lon="11.3938301"><ele>513.6</ele><time>2026-03-28T14:33:03.187Z</time></trkpt><trkpt lat="43.4853639" lon="11.3939585"><ele>513.2</ele><time>2026-03-28T14:33:04.187Z</time></trkpt><trkpt lat="43.4853787" lon="11.3940959"><ele>512.8000000000001</ele><time>2026-03-28T14:33:05.187Z</time></trkpt><trkpt lat="43.4853924" lon="11.3942281"><ele>512.4</ele><time>2026-03-28T14:33:06.187Z</time></trkpt><trkpt lat="43.4854005" lon="11.3943442"><ele>512.0</ele><time>2026-03-28T14:33:07.188Z</time></trkpt><trkpt lat="43.4854104" lon="11.3944583"><ele>511.0</ele><time>2026-03-28T14:33:08.188Z</time></trkpt><trkpt lat="43.4854351" lon="11.3945715"><ele>510.00000000000006</ele><time>2026-03-28T14:33:09.187Z</time></trkpt><trkpt lat="43.4854722" lon="11.3946865"><ele>509.00000000000006</ele><time>2026-03-28T14:33:10.187Z</time></trkpt><trkpt lat="43.4855148" lon="11.3948053"><ele>508.0</ele><time>2026-03-28T14:33:11.187Z</time></trkpt><trkpt lat="43.4855635" lon="11.3949271"><ele>507.0</ele><time>2026-03-28T14:33:12.187Z</time></trkpt><trkpt lat="43.4856134" lon="11.3950471"><ele>507.0</ele><time>2026-03-28T14:33:13.187Z</time></trkpt><trkpt lat="43.4856693" lon="11.3951641"><ele>507.00000000000006</ele><time>2026-03-28T14:33:14.187Z</time></trkpt><trkpt lat="43.485725" lon="11.3952768"><ele>507.00000000000006</ele><time>2026-03-28T14:33:15.188Z</time></trkpt><trkpt lat="43.4857862" lon="11.3953903"><ele>507.0</ele><time>2026-03-28T14:33:16.187Z</time></trkpt><trkpt lat="43.4858598" lon="11.3954972"><ele>507.0</ele><time>2026-03-28T14:33:17.188Z</time></trkpt><trkpt lat="43.485944" lon="11.3955987"><ele>507.5</ele><time>2026-03-28T14:33:18.187Z</time></trkpt><trkpt lat="43.4860387" lon="11.3956958"><ele>508.0</ele><time>2026-03-28T14:33:19.187Z</time></trkpt><trkpt lat="43.4861377" lon="11.395804"><ele>508.5</ele><time>2026-03-28T14:33:20.188Z</time></trkpt><trkpt lat="43.4862318" lon="11.3959255"><ele>509.0</ele><time>2026-03-28T14:33:21.187Z</time></trkpt><trkpt lat="43.4863159" lon="11.3960521"><ele>509.0</ele><time>2026-03-28T14:33:22.187Z</time></trkpt><trkpt lat="43.4863916" lon="11.3961803"><ele>509.0</ele><time>2026-03-28T14:33:23.187Z</time></trkpt><trkpt lat="43.4864564" lon="11.3963061"><ele>509.0</ele><time>2026-03-28T14:33:24.187Z</time></trkpt><trkpt lat="43.4865187" lon="11.3964384"><ele>509.0</ele><time>2026-03-28T14:33:25.188Z</time></trkpt><trkpt lat="43.4865806" lon="11.3965747"><ele>509.0</ele><time>2026-03-28T14:33:26.188Z</time></trkpt><trkpt lat="43.4866424" lon="11.3967189"><ele>509.0</ele><time>2026-03-28T14:33:27.187Z</time></trkpt><trkpt lat="43.4866981" lon="11.3968625"><ele>509.0</ele><time>2026-03-28T14:33:28.188Z</time></trkpt><trkpt lat="43.4867548" lon="11.3970084"><ele>509.0</ele><time>2026-03-28T14:33:29.188Z</time></trkpt><trkpt lat="43.4868087" lon="11.3971538"><ele>508.5</ele><time>2026-03-28T14:33:30.187Z</time></trkpt><trkpt lat="43.4868417" lon="11.3972966"><ele>508.0</ele><time>2026-03-28T14:33:31.186Z</time></trkpt><trkpt lat="43.4868582" lon="11.3974457"><ele>507.5</ele><time>2026-03-28T14:33:32.187Z</time></trkpt><trkpt lat="43.4868665" lon="11.3976015"><ele>507.0</ele><time>2026-03-28T14:33:33.188Z</time></trkpt><trkpt lat="43.4868817" lon="11.3977661"><ele>507.0</ele><time>2026-03-28T14:33:34.187Z</time></trkpt><trkpt lat="43.4869002" lon="11.3979385"><ele>507.0</ele><time>2026-03-28T14:33:35.187Z</time></trkpt><trkpt lat="43.486919" lon="11.3981149"><ele>507.0</ele><time>2026-03-28T14:33:36.187Z</time></trkpt><trkpt lat="43.4869358" lon="11.3982801"><ele>507.0</ele><time>2026-03-28T14:33:37.187Z</time></trkpt><trkpt lat="43.4869496" lon="11.3984259"><ele>506.8</ele><time>2026-03-28T14:33:38.187Z</time></trkpt><trkpt lat="43.4869586" lon="11.3985542"><ele>506.6</ele><time>2026-03-28T14:33:39.187Z</time></trkpt><trkpt lat="43.4869653" lon="11.3986567"><ele>506.40000000000003</ele><time>2026-03-28T14:33:40.187Z</time></trkpt><trkpt lat="43.4869694" lon="11.3987445"><ele>506.20000000000005</ele><time>2026-03-28T14:33:41.186Z</time></trkpt><trkpt lat="43.4870044" lon="11.3989063"><ele>506.0</ele><time>2026-03-28T14:33:43.186Z</time></trkpt><trkpt lat="43.4870657" lon="11.3990585"><ele>506.20000000000005</ele><time>2026-03-28T14:33:45.187Z</time></trkpt><trkpt lat="43.4871408" lon="11.3991979"><ele>506.40000000000003</ele><time>2026-03-28T14:33:47.187Z</time></trkpt><trkpt lat="43.4872241" lon="11.399319"><ele>506.6</ele><time>2026-03-28T14:33:49.187Z</time></trkpt><trkpt lat="43.4872959" lon="11.3994345"><ele>506.8</ele><time>2026-03-28T14:33:51.187Z</time></trkpt><trkpt lat="43.4873444" lon="11.3995337"><ele>507.0</ele><time>2026-03-28T14:33:53.187Z</time></trkpt><trkpt lat="43.4873812" lon="11.3996091"><ele>506.0</ele><time>2026-03-28T14:33:55.188Z</time></trkpt><trkpt lat="43.4874309" lon="11.3996941"><ele>505.0</ele><time>2026-03-28T14:33:57.187Z</time></trkpt><trkpt lat="43.4875247" lon="11.3997311"><ele>504.0</ele><time>2026-03-28T14:33:59.188Z</time></trkpt><trkpt lat="43.4875975" lon="11.3997708"><ele>503.0</ele><time>2026-03-28T14:34:02.187Z</time></trkpt><trkpt lat="43.4876808" lon="11.3998191"><ele>502.0</ele><time>2026-03-28T14:34:10.187Z</time></trkpt><trkpt lat="43.487746" lon="11.399802"><ele>501.0</ele><time>2026-03-28T14:34:11.187Z</time></trkpt><trkpt lat="43.4878154" lon="11.3997807"><ele>501.0</ele><time>2026-03-28T14:34:12.187Z</time></trkpt><trkpt lat="43.4879024" lon="11.3997658"><ele>501.0</ele><time>2026-03-28T14:34:13.187Z</time></trkpt><trkpt lat="43.4880024" lon="11.3997594"><ele>501.0</ele><time>2026-03-28T14:34:14.188Z</time></trkpt><trkpt lat="43.4881052" lon="11.399737"><ele>501.0</ele><time>2026-03-28T14:34:15.188Z</time></trkpt><trkpt lat="43.4882076" lon="11.3996876"><ele>501.0</ele><time>2026-03-28T14:34:16.188Z</time></trkpt><trkpt lat="43.4883001" lon="11.3996217"><ele>500.75</ele><time>2026-03-28T14:34:17.188Z</time></trkpt><trkpt lat="43.4883898" lon="11.3995292"><ele>500.5</ele><time>2026-03-28T14:34:18.187Z</time></trkpt><trkpt lat="43.4884701" lon="11.3994042"><ele>500.25</ele><time>2026-03-28T14:34:19.188Z</time></trkpt><trkpt lat="43.48855" lon="11.3992501"><ele>500.0</ele><time>2026-03-28T14:34:20.188Z</time></trkpt><trkpt lat="43.48863" lon="11.3990828"><ele>500.0</ele><time>2026-03-28T14:34:21.187Z</time></trkpt><trkpt lat="43.4887013" lon="11.3989177"><ele>500.0</ele><time>2026-03-28T14:34:22.187Z</time></trkpt><trkpt lat="43.4887785" lon="11.3987568"><ele>500.0</ele><time>2026-03-28T14:34:23.187Z</time></trkpt><trkpt lat="43.4888611" lon="11.3985887"><ele>500.0</ele><time>2026-03-28T14:34:24.188Z</time></trkpt><trkpt lat="43.4889477" lon="11.3984175"><ele>496.66666666666663</ele><time>2026-03-28T14:34:25.188Z</time></trkpt><trkpt lat="43.489036" lon="11.3982325"><ele>493.33333333333337</ele><time>2026-03-28T14:34:26.188Z</time></trkpt><trkpt lat="43.4891219" lon="11.3980462"><ele>490.0</ele><time>2026-03-28T14:34:27.188Z</time></trkpt><trkpt lat="43.4892136" lon="11.397846"><ele>490.0</ele><time>2026-03-28T14:34:28.187Z</time></trkpt><trkpt lat="43.4893137" lon="11.3976332"><ele>490.0</ele><time>2026-03-28T14:34:29.187Z</time></trkpt><trkpt lat="43.4894146" lon="11.3974291"><ele>490.0</ele><time>2026-03-28T14:34:30.187Z</time></trkpt><trkpt lat="43.489508" lon="11.3972227"><ele>484.33333333333337</ele><time>2026-03-28T14:34:31.188Z</time></trkpt><trkpt lat="43.4895941" lon="11.3970284"><ele>478.66666666666663</ele><time>2026-03-28T14:34:32.188Z</time></trkpt><trkpt lat="43.4896857" lon="11.396852"><ele>473.0</ele><time>2026-03-28T14:34:33.188Z</time></trkpt><trkpt lat="43.4897858" lon="11.3967055"><ele>473.0</ele><time>2026-03-28T14:34:34.187Z</time></trkpt><trkpt lat="43.4898842" lon="11.3965785"><ele>473.0</ele><time>2026-03-28T14:34:35.188Z</time></trkpt><trkpt lat="43.4899701" lon="11.3964359"><ele>473.0</ele><time>2026-03-28T14:34:36.188Z</time></trkpt><trkpt lat="43.4900325" lon="11.3962435"><ele>473.0</ele><time>2026-03-28T14:34:37.187Z</time></trkpt><trkpt lat="43.4900784" lon="11.3960232"><ele>473.0</ele><time>2026-03-28T14:34:38.187Z</time></trkpt><trkpt lat="43.4901121" lon="11.3957837"><ele>473.0</ele><time>2026-03-28T14:34:39.187Z</time></trkpt><trkpt lat="43.4901281" lon="11.3955602"><ele>473.0</ele><time>2026-03-28T14:34:40.187Z</time></trkpt><trkpt lat="43.4901294" lon="11.3953239"><ele>471.66666666666663</ele><time>2026-03-28T14:34:41.188Z</time></trkpt><trkpt lat="43.4901198" lon="11.39509"><ele>470.33333333333337</ele><time>2026-03-28T14:34:42.187Z</time></trkpt><trkpt lat="43.4901057" lon="11.3948662"><ele>469.0</ele><time>2026-03-28T14:34:43.187Z</time></trkpt><trkpt lat="43.4900981" lon="11.3946538"><ele>467.75</ele><time>2026-03-28T14:34:44.188Z</time></trkpt><trkpt lat="43.4901158" lon="11.3944611"><ele>466.5</ele><time>2026-03-28T14:34:45.187Z</time></trkpt><trkpt lat="43.4901546" lon="11.3942901"><ele>465.25</ele><time>2026-03-28T14:34:46.188Z</time></trkpt><trkpt lat="43.4902042" lon="11.3941437"><ele>464.0</ele><time>2026-03-28T14:34:47.187Z</time></trkpt><trkpt lat="43.4902665" lon="11.3940121"><ele>464.0</ele><time>2026-03-28T14:34:48.188Z</time></trkpt><trkpt lat="43.4903259" lon="11.3938704"><ele>464.0</ele><time>2026-03-28T14:34:49.187Z</time></trkpt><trkpt lat="43.4903753" lon="11.3937123"><ele>464.0</ele><time>2026-03-28T14:34:50.187Z</time></trkpt><trkpt lat="43.49041" lon="11.3935413"><ele>464.0</ele><time>2026-03-28T14:34:51.187Z</time></trkpt><trkpt lat="43.4904242" lon="11.3933586"><ele>462.66666666666663</ele><time>2026-03-28T14:34:52.187Z</time></trkpt><trkpt lat="43.4904067" lon="11.3931635"><ele>461.33333333333337</ele><time>2026-03-28T14:34:53.188Z</time></trkpt><trkpt lat="43.490354" lon="11.3929576"><ele>460.0</ele><time>2026-03-28T14:34:54.188Z</time></trkpt><trkpt lat="43.490296" lon="11.3927615"><ele>459.25</ele><time>2026-03-28T14:34:55.187Z</time></trkpt><trkpt lat="43.4902488" lon="11.3925761"><ele>458.5</ele><time>2026-03-28T14:34:56.187Z</time></trkpt><trkpt lat="43.4902186" lon="11.3923842"><ele>457.75</ele><time>2026-03-28T14:34:57.187Z</time></trkpt><trkpt lat="43.4902059" lon="11.3921835"><ele>457.0</ele><time>2026-03-28T14:34:58.188Z</time></trkpt><trkpt lat="43.4902064" lon="11.3919789"><ele>456.75</ele><time>2026-03-28T14:34:59.187Z</time></trkpt><trkpt lat="43.490216" lon="11.3917826"><ele>456.5</ele><time>2026-03-28T14:35:00.188Z</time></trkpt><trkpt lat="43.4902239" lon="11.3915936"><ele>456.25</ele><time>2026-03-28T14:35:01.188Z</time></trkpt><trkpt lat="43.4902135" lon="11.3914334"><ele>456.0</ele><time>2026-03-28T14:35:02.187Z</time></trkpt><trkpt lat="43.490176" lon="11.3912818"><ele>456.75</ele><time>2026-03-28T14:35:03.188Z</time></trkpt><trkpt lat="43.4901101" lon="11.3911432"><ele>457.5</ele><time>2026-03-28T14:35:04.187Z</time></trkpt><trkpt lat="43.4900233" lon="11.3910214"><ele>458.25</ele><time>2026-03-28T14:35:05.188Z</time></trkpt><trkpt lat="43.4899293" lon="11.3909029"><ele>459.0</ele><time>2026-03-28T14:35:06.187Z</time></trkpt><trkpt lat="43.4898521" lon="11.3907879"><ele>459.0</ele><time>2026-03-28T14:35:07.187Z</time></trkpt><trkpt lat="43.4897866" lon="11.3906695"><ele>459.0</ele><time>2026-03-28T14:35:08.187Z</time></trkpt><trkpt lat="43.4897289" lon="11.3905418"><ele>459.0</ele><time>2026-03-28T14:35:09.188Z</time></trkpt><trkpt lat="43.4896734" lon="11.3904035"><ele>459.0</ele><time>2026-03-28T14:35:10.187Z</time></trkpt><trkpt lat="43.4896182" lon="11.3902657"><ele>459.0</ele><time>2026-03-28T14:35:11.188Z</time></trkpt><trkpt lat="43.489567" lon="11.390123"><ele>458.0</ele><time>2026-03-28T14:35:12.187Z</time></trkpt><trkpt lat="43.4895138" lon="11.3899661"><ele>457.0</ele><time>2026-03-28T14:35:13.187Z</time></trkpt><trkpt lat="43.4894585" lon="11.3898027"><ele>456.0</ele><time>2026-03-28T14:35:14.187Z</time></trkpt><trkpt lat="43.4894056" lon="11.3896494"><ele>455.0</ele><time>2026-03-28T14:35:15.187Z</time></trkpt><trkpt lat="43.4893528" lon="11.3894942"><ele>455.0</ele><time>2026-03-28T14:35:16.187Z</time></trkpt><trkpt lat="43.4893079" lon="11.3893288"><ele>455.0</ele><time>2026-03-28T14:35:17.188Z</time></trkpt><trkpt lat="43.4892936" lon="11.3891743"><ele>455.0</ele><time>2026-03-28T14:35:18.187Z</time></trkpt><trkpt lat="43.4893152" lon="11.3890222"><ele>455.0</ele><time>2026-03-28T14:35:19.187Z</time></trkpt><trkpt lat="43.4893536" lon="11.3888562"><ele>454.0</ele><time>2026-03-28T14:35:20.188Z</time></trkpt><trkpt lat="43.4893934" lon="11.3886838"><ele>453.0</ele><time>2026-03-28T14:35:21.187Z</time></trkpt><trkpt lat="43.4894186" lon="11.3885205"><ele>452.0</ele><time>2026-03-28T14:35:22.188Z</time></trkpt><trkpt lat="43.489441" lon="11.3883842"><ele>451.0</ele><time>2026-03-28T14:35:23.187Z</time></trkpt><trkpt lat="43.4894595" lon="11.3882493"><ele>451.00000000000006</ele><time>2026-03-28T14:35:24.187Z</time></trkpt><trkpt lat="43.4894724" lon="11.3881092"><ele>451.0</ele><time>2026-03-28T14:35:25.188Z</time></trkpt><trkpt lat="43.489485" lon="11.3879955"><ele>451.0</ele><time>2026-03-28T14:35:26.188Z</time></trkpt><trkpt lat="43.4895034" lon="11.3879045"><ele>451.0</ele><time>2026-03-28T14:35:27.187Z</time></trkpt><trkpt lat="43.4895615" lon="11.38782"><ele>451.00000000000006</ele><time>2026-03-28T14:35:29.188Z</time></trkpt><trkpt lat="43.4896119" lon="11.3878832"><ele>451.0</ele><time>2026-03-28T14:35:39.187Z</time></trkpt><trkpt lat="43.4896114" lon="11.3879806"><ele>463.0</ele><time>2026-03-28T14:35:41.188Z</time></trkpt><trkpt lat="43.4896555" lon="11.3880642"><ele>464.0</ele><time>2026-03-28T14:35:45.187Z</time></trkpt></trkseg><trkseg><trkpt lat="43.4896307" lon="11.3880095"><ele>463.00000000000006</ele><time>2026-03-28T14:51:21.185Z</time></trkpt><trkpt lat="43.4896025" lon="11.3879287"><ele>463.0</ele><time>2026-03-28T14:51:24.185Z</time></trkpt><trkpt lat="43.4895557" lon="11.3878521"><ele>463.0</ele><time>2026-03-28T14:51:28.185Z</time></trkpt><trkpt lat="43.4895171" lon="11.3877811"><ele>463.0</ele><time>2026-03-28T14:51:31.185Z</time></trkpt><trkpt lat="43.4895095" lon="11.3876545"><ele>463.00000000000006</ele><time>2026-03-28T14:51:33.186Z</time></trkpt><trkpt lat="43.4895297" lon="11.3874662"><ele>463.0</ele><time>2026-03-28T14:51:35.186Z</time></trkpt><trkpt lat="43.4895414" lon="11.3873479"><ele>463.0</ele><time>2026-03-28T14:51:36.185Z</time></trkpt><trkpt lat="43.4895529" lon="11.3872245"><ele>462.99999999999994</ele><time>2026-03-28T14:51:37.186Z</time></trkpt><trkpt lat="43.4895695" lon="11.3870858"><ele>462.99999999999994</ele><time>2026-03-28T14:51:38.185Z</time></trkpt><trkpt lat="43.4895858" lon="11.386953"><ele>463.0</ele><time>2026-03-28T14:51:39.185Z</time></trkpt><trkpt lat="43.4896074" lon="11.38684"><ele>463.0</ele><time>2026-03-28T14:51:40.186Z</time></trkpt><trkpt lat="43.4896295" lon="11.3867404"><ele>463.0</ele><time>2026-03-28T14:51:41.186Z</time></trkpt><trkpt lat="43.4896548" lon="11.3866534"><ele>462.99999999999994</ele><time>2026-03-28T14:51:42.186Z</time></trkpt><trkpt lat="43.4896919" lon="11.3865653"><ele>463.0</ele><time>2026-03-28T14:51:43.186Z</time></trkpt><trkpt lat="43.4897469" lon="11.3864862"><ele>463.0</ele><time>2026-03-28T14:51:44.185Z</time></trkpt><trkpt lat="43.4898071" lon="11.3864193"><ele>462.99999999999994</ele><time>2026-03-28T14:51:45.186Z</time></trkpt><trkpt lat="43.4898401" lon="11.3863312"><ele>463.0</ele><time>2026-03-28T14:51:46.185Z</time></trkpt><trkpt lat="43.4898422" lon="11.3862316"><ele>463.0</ele><time>2026-03-28T14:51:47.186Z</time></trkpt><trkpt lat="43.4898304" lon="11.3861387"><ele>462.33333333333337</ele><time>2026-03-28T14:51:48.186Z</time></trkpt><trkpt lat="43.4898301" lon="11.3860367"><ele>461.6666666666667</ele><time>2026-03-28T14:51:49.185Z</time></trkpt><trkpt lat="43.4898453" lon="11.385918"><ele>461.0</ele><time>2026-03-28T14:51:50.185Z</time></trkpt><trkpt lat="43.4898765" lon="11.3857911"><ele>460.33333333333337</ele><time>2026-03-28T14:51:51.185Z</time></trkpt><trkpt lat="43.489908" lon="11.3856586"><ele>459.6666666666667</ele><time>2026-03-28T14:51:52.185Z</time></trkpt><trkpt lat="43.4899389" lon="11.3855469"><ele>459.0</ele><time>2026-03-28T14:51:53.186Z</time></trkpt><trkpt lat="43.4899726" lon="11.3854202"><ele>458.79999999999995</ele><time>2026-03-28T14:51:54.183Z</time></trkpt><trkpt lat="43.4900181" lon="11.385313"><ele>458.59999999999997</ele><time>2026-03-28T14:51:55.184Z</time></trkpt><trkpt lat="43.4900691" lon="11.3852241"><ele>458.4</ele><time>2026-03-28T14:51:56.185Z</time></trkpt><trkpt lat="43.4901426" lon="11.3851268"><ele>458.2</ele><time>2026-03-28T14:51:57.185Z</time></trkpt><trkpt lat="43.4902242" lon="11.3850355"><ele>458.0</ele><time>2026-03-28T14:51:58.184Z</time></trkpt><trkpt lat="43.4902935" lon="11.384955"><ele>458.0</ele><time>2026-03-28T14:51:59.184Z</time></trkpt><trkpt lat="43.4903704" lon="11.3848652"><ele>458.0</ele><time>2026-03-28T14:52:00.185Z</time></trkpt><trkpt lat="43.4904646" lon="11.3847638"><ele>458.0</ele><time>2026-03-28T14:52:01.184Z</time></trkpt><trkpt lat="43.4905553" lon="11.3846655"><ele>458.0</ele><time>2026-03-28T14:52:02.183Z</time></trkpt><trkpt lat="43.4906541" lon="11.3845589"><ele>457.75</ele><time>2026-03-28T14:52:03.184Z</time></trkpt><trkpt lat="43.4907617" lon="11.3844493"><ele>457.5</ele><time>2026-03-28T14:52:04.185Z</time></trkpt><trkpt lat="43.4908717" lon="11.3843215"><ele>457.25</ele><time>2026-03-28T14:52:05.185Z</time></trkpt><trkpt lat="43.4909777" lon="11.3841971"><ele>457.0</ele><time>2026-03-28T14:52:06.184Z</time></trkpt><trkpt lat="43.491074" lon="11.3840672"><ele>457.0</ele><time>2026-03-28T14:52:07.184Z</time></trkpt><trkpt lat="43.4911628" lon="11.3839046"><ele>457.0</ele><time>2026-03-28T14:52:08.184Z</time></trkpt><trkpt lat="43.4912286" lon="11.383732"><ele>457.0</ele><time>2026-03-28T14:52:09.183Z</time></trkpt><trkpt lat="43.491278" lon="11.3835629"><ele>457.0</ele><time>2026-03-28T14:52:10.184Z</time></trkpt><trkpt lat="43.4913134" lon="11.3833855"><ele>451.25</ele><time>2026-03-28T14:52:11.184Z</time></trkpt><trkpt lat="43.4913332" lon="11.3832152"><ele>445.5</ele><time>2026-03-28T14:52:12.184Z</time></trkpt><trkpt lat="43.49134" lon="11.3830461"><ele>439.75</ele><time>2026-03-28T14:52:13.185Z</time></trkpt><trkpt lat="43.4913235" lon="11.3828717"><ele>434.0</ele><time>2026-03-28T14:52:14.184Z</time></trkpt><trkpt lat="43.491274" lon="11.3827188"><ele>436.75</ele><time>2026-03-28T14:52:15.184Z</time></trkpt><trkpt lat="43.4911917" lon="11.3825852"><ele>439.5</ele><time>2026-03-28T14:52:16.185Z</time></trkpt><trkpt lat="43.4910946" lon="11.3824955"><ele>442.25</ele><time>2026-03-28T14:52:17.185Z</time></trkpt><trkpt lat="43.4909829" lon="11.3824171"><ele>445.0</ele><time>2026-03-28T14:52:18.184Z</time></trkpt><trkpt lat="43.4908697" lon="11.3823232"><ele>445.0</ele><time>2026-03-28T14:52:19.184Z</time></trkpt><trkpt lat="43.4907791" lon="11.3821882"><ele>445.0</ele><time>2026-03-28T14:52:20.184Z</time></trkpt><trkpt lat="43.4907014" lon="11.3820315"><ele>445.0</ele><time>2026-03-28T14:52:21.184Z</time></trkpt><trkpt lat="43.4906448" lon="11.3818697"><ele>445.0</ele><time>2026-03-28T14:52:22.184Z</time></trkpt><trkpt lat="43.4905968" lon="11.3817114"><ele>444.75</ele><time>2026-03-28T14:52:23.184Z</time></trkpt><trkpt lat="43.4905423" lon="11.3815606"><ele>444.5</ele><time>2026-03-28T14:52:24.185Z</time></trkpt><trkpt lat="43.4904806" lon="11.381409"><ele>444.25</ele><time>2026-03-28T14:52:25.184Z</time></trkpt><trkpt lat="43.4904047" lon="11.3812622"><ele>444.0</ele><time>2026-03-28T14:52:26.185Z</time></trkpt><trkpt lat="43.4903233" lon="11.3811126"><ele>444.0</ele><time>2026-03-28T14:52:27.184Z</time></trkpt><trkpt lat="43.4902608" lon="11.3809422"><ele>444.0</ele><time>2026-03-28T14:52:28.184Z</time></trkpt><trkpt lat="43.4902289" lon="11.3807646"><ele>444.0</ele><time>2026-03-28T14:52:29.184Z</time></trkpt><trkpt lat="43.4902278" lon="11.3805744"><ele>444.0</ele><time>2026-03-28T14:52:30.184Z</time></trkpt><trkpt lat="43.4902593" lon="11.3803826"><ele>443.0</ele><time>2026-03-28T14:52:31.185Z</time></trkpt><trkpt lat="43.4903058" lon="11.3801945"><ele>442.0</ele><time>2026-03-28T14:52:32.184Z</time></trkpt><trkpt lat="43.4903651" lon="11.3800043"><ele>441.0</ele><time>2026-03-28T14:52:33.184Z</time></trkpt><trkpt lat="43.490435" lon="11.3798359"><ele>440.0</ele><time>2026-03-28T14:52:34.185Z</time></trkpt><trkpt lat="43.4905195" lon="11.3796915"><ele>436.5</ele><time>2026-03-28T14:52:35.184Z</time></trkpt><trkpt lat="43.4906044" lon="11.3795582"><ele>433.0</ele><time>2026-03-28T14:52:36.185Z</time></trkpt><trkpt lat="43.4906813" lon="11.3794131"><ele>429.5</ele><time>2026-03-28T14:52:37.184Z</time></trkpt><trkpt lat="43.4907474" lon="11.3792537"><ele>426.0</ele><time>2026-03-28T14:52:38.184Z</time></trkpt><trkpt lat="43.4907915" lon="11.3790771"><ele>426.0</ele><time>2026-03-28T14:52:39.184Z</time></trkpt><trkpt lat="43.4908103" lon="11.3788909"><ele>426.0</ele><time>2026-03-28T14:52:40.185Z</time></trkpt><trkpt lat="43.49081" lon="11.3787057"><ele>426.0</ele><time>2026-03-28T14:52:41.184Z</time></trkpt><trkpt lat="43.4907938" lon="11.3785143"><ele>426.0</ele><time>2026-03-28T14:52:42.185Z</time></trkpt><trkpt lat="43.4907719" lon="11.3783316"><ele>425.75</ele><time>2026-03-28T14:52:43.184Z</time></trkpt><trkpt lat="43.4907479" lon="11.3781531"><ele>425.5</ele><time>2026-03-28T14:52:44.183Z</time></trkpt><trkpt lat="43.4907218" lon="11.3779664"><ele>425.25</ele><time>2026-03-28T14:52:45.184Z</time></trkpt><trkpt lat="43.4906966" lon="11.3777812"><ele>425.0</ele><time>2026-03-28T14:52:46.185Z</time></trkpt><trkpt lat="43.4906728" lon="11.377601"><ele>423.75</ele><time>2026-03-28T14:52:47.185Z</time></trkpt><trkpt lat="43.4906472" lon="11.3774173"><ele>422.5</ele><time>2026-03-28T14:52:48.184Z</time></trkpt><trkpt lat="43.4906194" lon="11.3772312"><ele>421.25</ele><time>2026-03-28T14:52:49.184Z</time></trkpt><trkpt lat="43.490593" lon="11.3770427"><ele>420.0</ele><time>2026-03-28T14:52:50.184Z</time></trkpt><trkpt lat="43.4905681" lon="11.3768606"><ele>418.75</ele><time>2026-03-28T14:52:51.184Z</time></trkpt><trkpt lat="43.4905448" lon="11.3766716"><ele>417.5</ele><time>2026-03-28T14:52:52.185Z</time></trkpt><trkpt lat="43.4905205" lon="11.3764776"><ele>416.25</ele><time>2026-03-28T14:52:53.184Z</time></trkpt><trkpt lat="43.4904948" lon="11.3762792"><ele>415.0</ele><time>2026-03-28T14:52:54.184Z</time></trkpt><trkpt lat="43.490469" lon="11.3760779"><ele>413.0</ele><time>2026-03-28T14:52:55.185Z</time></trkpt><trkpt lat="43.4904502" lon="11.3758638"><ele>411.0</ele><time>2026-03-28T14:52:56.183Z</time></trkpt><trkpt lat="43.4904368" lon="11.3756448"><ele>409.0</ele><time>2026-03-28T14:52:57.185Z</time></trkpt><trkpt lat="43.4904321" lon="11.3754384"><ele>408.6666666666667</ele><time>2026-03-28T14:52:58.184Z</time></trkpt><trkpt lat="43.4904289" lon="11.3752306"><ele>408.33333333333337</ele><time>2026-03-28T14:52:59.184Z</time></trkpt><trkpt lat="43.4904339" lon="11.3750167"><ele>408.0</ele><time>2026-03-28T14:53:00.184Z</time></trkpt><trkpt lat="43.4904573" lon="11.3748176"><ele>408.0</ele><time>2026-03-28T14:53:01.184Z</time></trkpt><trkpt lat="43.4904819" lon="11.3746218"><ele>408.0</ele><time>2026-03-28T14:53:02.184Z</time></trkpt><trkpt lat="43.4905116" lon="11.3744289"><ele>408.0</ele><time>2026-03-28T14:53:03.185Z</time></trkpt><trkpt lat="43.490555" lon="11.3742368"><ele>408.0</ele><time>2026-03-28T14:53:04.184Z</time></trkpt><trkpt lat="43.4906077" lon="11.3740574"><ele>408.0</ele><time>2026-03-28T14:53:05.184Z</time></trkpt><trkpt lat="43.4906633" lon="11.3738797"><ele>408.0</ele><time>2026-03-28T14:53:06.184Z</time></trkpt><trkpt lat="43.4907219" lon="11.373711"><ele>408.0</ele><time>2026-03-28T14:53:07.184Z</time></trkpt><trkpt lat="43.490776" lon="11.3735504"><ele>408.0</ele><time>2026-03-28T14:53:08.184Z</time></trkpt><trkpt lat="43.49082" lon="11.3733883"><ele>408.0</ele><time>2026-03-28T14:53:09.184Z</time></trkpt><trkpt lat="43.4908361" lon="11.3732105"><ele>408.0</ele><time>2026-03-28T14:53:10.184Z</time></trkpt><trkpt lat="43.4908183" lon="11.3730301"><ele>408.0</ele><time>2026-03-28T14:53:11.185Z</time></trkpt><trkpt lat="43.4907812" lon="11.3728543"><ele>408.0</ele><time>2026-03-28T14:53:12.185Z</time></trkpt><trkpt lat="43.4907263" lon="11.3726772"><ele>406.5</ele><time>2026-03-28T14:53:13.184Z</time></trkpt><trkpt lat="43.4906575" lon="11.3725029"><ele>405.0</ele><time>2026-03-28T14:53:14.185Z</time></trkpt><trkpt lat="43.4905758" lon="11.3723298"><ele>403.5</ele><time>2026-03-28T14:53:15.184Z</time></trkpt><trkpt lat="43.4904985" lon="11.3721647"><ele>402.0</ele><time>2026-03-28T14:53:16.184Z</time></trkpt><trkpt lat="43.4904299" lon="11.3720095"><ele>401.6</ele><time>2026-03-28T14:53:17.185Z</time></trkpt><trkpt lat="43.4903921" lon="11.371848"><ele>401.20000000000005</ele><time>2026-03-28T14:53:18.185Z</time></trkpt><trkpt lat="43.4903879" lon="11.3716892"><ele>400.8</ele><time>2026-03-28T14:53:19.185Z</time></trkpt><trkpt lat="43.4904247" lon="11.3715714"><ele>400.4</ele><time>2026-03-28T14:53:20.184Z</time></trkpt><trkpt lat="43.4905007" lon="11.3714916"><ele>400.0</ele><time>2026-03-28T14:53:21.184Z</time></trkpt><trkpt lat="43.4906103" lon="11.3714417"><ele>400.0</ele><time>2026-03-28T14:53:22.184Z</time></trkpt><trkpt lat="43.4907391" lon="11.3714231"><ele>400.0</ele><time>2026-03-28T14:53:23.183Z</time></trkpt><trkpt lat="43.4908761" lon="11.3714103"><ele>400.0</ele><time>2026-03-28T14:53:24.184Z</time></trkpt><trkpt lat="43.4910023" lon="11.3713915"><ele>400.0</ele><time>2026-03-28T14:53:25.185Z</time></trkpt><trkpt lat="43.4911376" lon="11.3713457"><ele>399.0</ele><time>2026-03-28T14:53:26.184Z</time></trkpt><trkpt lat="43.4912698" lon="11.3712675"><ele>398.0</ele><time>2026-03-28T14:53:27.185Z</time></trkpt><trkpt lat="43.4913825" lon="11.3711724"><ele>397.0</ele><time>2026-03-28T14:53:28.185Z</time></trkpt><trkpt lat="43.4914681" lon="11.3710676"><ele>396.0</ele><time>2026-03-28T14:53:29.184Z</time></trkpt><trkpt lat="43.4915363" lon="11.3709577"><ele>396.0</ele><time>2026-03-28T14:53:30.184Z</time></trkpt><trkpt lat="43.4915876" lon="11.3708592"><ele>396.0</ele><time>2026-03-28T14:53:31.184Z</time></trkpt><trkpt lat="43.4916319" lon="11.370768"><ele>396.0</ele><time>2026-03-28T14:53:32.184Z</time></trkpt><trkpt lat="43.4916859" lon="11.3706227"><ele>396.0</ele><time>2026-03-28T14:53:34.184Z</time></trkpt><trkpt lat="43.4917174" lon="11.3705319"><ele>396.0</ele><time>2026-03-28T14:53:35.185Z</time></trkpt><trkpt lat="43.4917528" lon="11.3704255"><ele>396.0</ele><time>2026-03-28T14:53:36.185Z</time></trkpt><trkpt lat="43.491791" lon="11.3702949"><ele>396.25</ele><time>2026-03-28T14:53:37.184Z</time></trkpt><trkpt lat="43.4918289" lon="11.3701433"><ele>396.5</ele><time>2026-03-28T14:53:38.185Z</time></trkpt><trkpt lat="43.4918537" lon="11.3700035"><ele>396.75</ele><time>2026-03-28T14:53:39.185Z</time></trkpt><trkpt lat="43.4918639" lon="11.3698418"><ele>397.0</ele><time>2026-03-28T14:53:40.184Z</time></trkpt><trkpt lat="43.4918508" lon="11.3696818"><ele>397.0</ele><time>2026-03-28T14:53:41.184Z</time></trkpt><trkpt lat="43.4918132" lon="11.3695315"><ele>397.0</ele><time>2026-03-28T14:53:42.185Z</time></trkpt><trkpt lat="43.491758" lon="11.3693833"><ele>397.0</ele><time>2026-03-28T14:53:43.185Z</time></trkpt><trkpt lat="43.4916978" lon="11.3692499"><ele>397.0</ele><time>2026-03-28T14:53:44.185Z</time></trkpt><trkpt lat="43.4916311" lon="11.3691147"><ele>397.0</ele><time>2026-03-28T14:53:45.184Z</time></trkpt><trkpt lat="43.4915606" lon="11.3689707"><ele>397.0</ele><time>2026-03-28T14:53:46.184Z</time></trkpt><trkpt lat="43.4914877" lon="11.3688233"><ele>397.0</ele><time>2026-03-28T14:53:47.185Z</time></trkpt><trkpt lat="43.4914061" lon="11.368675"><ele>397.0</ele><time>2026-03-28T14:53:48.185Z</time></trkpt><trkpt lat="43.4913188" lon="11.3685437"><ele>396.75</ele><time>2026-03-28T14:53:49.184Z</time></trkpt><trkpt lat="43.4912148" lon="11.3684222"><ele>396.5</ele><time>2026-03-28T14:53:50.185Z</time></trkpt><trkpt lat="43.4911057" lon="11.3683186"><ele>396.25</ele><time>2026-03-28T14:53:51.184Z</time></trkpt><trkpt lat="43.490999" lon="11.3682433"><ele>396.0</ele><time>2026-03-28T14:53:52.185Z</time></trkpt><trkpt lat="43.490894" lon="11.3681828"><ele>396.0</ele><time>2026-03-28T14:53:53.184Z</time></trkpt><trkpt lat="43.4907918" lon="11.368138"><ele>396.0</ele><time>2026-03-28T14:53:54.185Z</time></trkpt><trkpt lat="43.4906954" lon="11.3681062"><ele>396.0</ele><time>2026-03-28T14:53:55.183Z</time></trkpt><trkpt lat="43.4906151" lon="11.3680598"><ele>396.0</ele><time>2026-03-28T14:53:56.184Z</time></trkpt><trkpt lat="43.4905641" lon="11.3679845"><ele>396.0</ele><time>2026-03-28T14:53:57.185Z</time></trkpt><trkpt lat="43.490533" lon="11.3679048"><ele>396.0</ele><time>2026-03-28T14:53:58.184Z</time></trkpt><trkpt lat="43.4905303" lon="11.3677582"><ele>396.1666666666667</ele><time>2026-03-28T14:54:00.184Z</time></trkpt><trkpt lat="43.4905662" lon="11.3676854"><ele>396.33333333333337</ele><time>2026-03-28T14:54:02.185Z</time></trkpt><trkpt lat="43.490638" lon="11.3676538"><ele>396.5</ele><time>2026-03-28T14:54:06.184Z</time></trkpt><trkpt lat="43.490709" lon="11.367643"><ele>396.6666666666667</ele><time>2026-03-28T14:54:50.183Z</time></trkpt><trkpt lat="43.4908234" lon="11.36763"><ele>396.83333333333337</ele><time>2026-03-28T14:54:52.185Z</time></trkpt><trkpt lat="43.4908872" lon="11.3676249"><ele>397.0</ele><time>2026-03-28T14:54:53.185Z</time></trkpt><trkpt lat="43.4909698" lon="11.3676263"><ele>397.0</ele><time>2026-03-28T14:54:54.183Z</time></trkpt><trkpt lat="43.491044" lon="11.3676342"><ele>397.0</ele><time>2026-03-28T14:54:55.185Z</time></trkpt><trkpt lat="43.4911265" lon="11.3676559"><ele>397.0</ele><time>2026-03-28T14:54:56.185Z</time></trkpt><trkpt lat="43.4912157" lon="11.3676809"><ele>397.0</ele><time>2026-03-28T14:54:57.184Z</time></trkpt><trkpt lat="43.4913119" lon="11.3677305"><ele>397.0</ele><time>2026-03-28T14:54:58.185Z</time></trkpt><trkpt lat="43.4914037" lon="11.3677933"><ele>396.8</ele><time>2026-03-28T14:54:59.185Z</time></trkpt><trkpt lat="43.4914947" lon="11.3678594"><ele>396.6</ele><time>2026-03-28T14:55:00.189Z</time></trkpt><trkpt lat="43.4915956" lon="11.3679475"><ele>396.40000000000003</ele><time>2026-03-28T14:55:01.195Z</time></trkpt><trkpt lat="43.4916862" lon="11.3680351"><ele>396.20000000000005</ele><time>2026-03-28T14:55:02.176Z</time></trkpt><trkpt lat="43.4917775" lon="11.3681237"><ele>396.0</ele><time>2026-03-28T14:55:03.182Z</time></trkpt><trkpt lat="43.4918739" lon="11.3682209"><ele>393.25</ele><time>2026-03-28T14:55:04.178Z</time></trkpt><trkpt lat="43.4919722" lon="11.3683207"><ele>390.5</ele><time>2026-03-28T14:55:05.176Z</time></trkpt><trkpt lat="43.4920674" lon="11.3684186"><ele>387.75</ele><time>2026-03-28T14:55:06.177Z</time></trkpt><trkpt lat="43.4921639" lon="11.3685171"><ele>385.0</ele><time>2026-03-28T14:55:07.177Z</time></trkpt><trkpt lat="43.4922616" lon="11.3686108"><ele>382.5</ele><time>2026-03-28T14:55:08.176Z</time></trkpt><trkpt lat="43.4923764" lon="11.3687082"><ele>380.0</ele><time>2026-03-28T14:55:09.176Z</time></trkpt><trkpt lat="43.4924911" lon="11.3687822"><ele>377.5</ele><time>2026-03-28T14:55:10.177Z</time></trkpt><trkpt lat="43.4926054" lon="11.3688402"><ele>375.0</ele><time>2026-03-28T14:55:11.176Z</time></trkpt><trkpt lat="43.4927253" lon="11.3688916"><ele>374.0</ele><time>2026-03-28T14:55:12.176Z</time></trkpt><trkpt lat="43.4928366" lon="11.3689379"><ele>373.0</ele><time>2026-03-28T14:55:13.177Z</time></trkpt><trkpt lat="43.4929652" lon="11.3689876"><ele>372.0</ele><time>2026-03-28T14:55:14.177Z</time></trkpt><trkpt lat="43.4930885" lon="11.3690332"><ele>371.0</ele><time>2026-03-28T14:55:15.176Z</time></trkpt><trkpt lat="43.4932073" lon="11.3690766"><ele>368.0</ele><time>2026-03-28T14:55:16.176Z</time></trkpt><trkpt lat="43.4933429" lon="11.3691217"><ele>365.0</ele><time>2026-03-28T14:55:17.177Z</time></trkpt><trkpt lat="43.4934666" lon="11.3691542"><ele>362.0</ele><time>2026-03-28T14:55:18.177Z</time></trkpt><trkpt lat="43.4935939" lon="11.36918"><ele>359.0</ele><time>2026-03-28T14:55:19.176Z</time></trkpt><trkpt lat="43.4937208" lon="11.3692045"><ele>356.25</ele><time>2026-03-28T14:55:20.177Z</time></trkpt><trkpt lat="43.4938542" lon="11.3692332"><ele>353.5</ele><time>2026-03-28T14:55:21.176Z</time></trkpt><trkpt lat="43.4939964" lon="11.3692659"><ele>350.75</ele><time>2026-03-28T14:55:22.177Z</time></trkpt><trkpt lat="43.4941446" lon="11.3693021"><ele>348.0</ele><time>2026-03-28T14:55:23.176Z</time></trkpt><trkpt lat="43.4942845" lon="11.3693368"><ele>348.0</ele><time>2026-03-28T14:55:24.177Z</time></trkpt><trkpt lat="43.4944365" lon="11.3693743"><ele>348.0</ele><time>2026-03-28T14:55:25.177Z</time></trkpt><trkpt lat="43.4945752" lon="11.3694096"><ele>348.0</ele><time>2026-03-28T14:55:26.176Z</time></trkpt><trkpt lat="43.4947138" lon="11.3694575"><ele>348.0</ele><time>2026-03-28T14:55:27.176Z</time></trkpt><trkpt lat="43.4948401" lon="11.3695246"><ele>347.0</ele><time>2026-03-28T14:55:28.177Z</time></trkpt><trkpt lat="43.4949461" lon="11.3696014"><ele>346.0</ele><time>2026-03-28T14:55:29.176Z</time></trkpt><trkpt lat="43.4950635" lon="11.3697095"><ele>345.0</ele><time>2026-03-28T14:55:30.177Z</time></trkpt><trkpt lat="43.4951736" lon="11.3698242"><ele>344.0</ele><time>2026-03-28T14:55:31.177Z</time></trkpt><trkpt lat="43.4952714" lon="11.3699287"><ele>344.0</ele><time>2026-03-28T14:55:32.177Z</time></trkpt><trkpt lat="43.4953758" lon="11.3700399"><ele>344.0</ele><time>2026-03-28T14:55:33.177Z</time></trkpt><trkpt lat="43.4954712" lon="11.3701419"><ele>344.0</ele><time>2026-03-28T14:55:34.176Z</time></trkpt><trkpt lat="43.4955626" lon="11.3702417"><ele>344.0</ele><time>2026-03-28T14:55:35.176Z</time></trkpt><trkpt lat="43.4956618" lon="11.3703559"><ele>345.4</ele><time>2026-03-28T14:55:36.177Z</time></trkpt><trkpt lat="43.4957354" lon="11.3704621"><ele>346.79999999999995</ele><time>2026-03-28T14:55:37.176Z</time></trkpt><trkpt lat="43.4957855" lon="11.3705773"><ele>348.20000000000005</ele><time>2026-03-28T14:55:38.176Z</time></trkpt><trkpt lat="43.4958104" lon="11.3707006"><ele>349.6</ele><time>2026-03-28T14:55:39.176Z</time></trkpt><trkpt lat="43.4958122" lon="11.3708214"><ele>351.0</ele><time>2026-03-28T14:55:40.176Z</time></trkpt><trkpt lat="43.4957955" lon="11.3709686"><ele>351.75</ele><time>2026-03-28T14:55:41.176Z</time></trkpt><trkpt lat="43.4957637" lon="11.3711182"><ele>352.5</ele><time>2026-03-28T14:55:42.176Z</time></trkpt><trkpt lat="43.4957259" lon="11.371268"><ele>353.25</ele><time>2026-03-28T14:55:43.176Z</time></trkpt><trkpt lat="43.495678" lon="11.3714463"><ele>354.0</ele><time>2026-03-28T14:55:44.177Z</time></trkpt><trkpt lat="43.4956346" lon="11.3716078"><ele>354.0</ele><time>2026-03-28T14:55:45.177Z</time></trkpt><trkpt lat="43.4955849" lon="11.3717858"><ele>354.0</ele><time>2026-03-28T14:55:46.176Z</time></trkpt><trkpt lat="43.4955412" lon="11.3719435"><ele>354.0</ele><time>2026-03-28T14:55:47.176Z</time></trkpt><trkpt lat="43.4955047" lon="11.3720832"><ele>354.0</ele><time>2026-03-28T14:55:48.177Z</time></trkpt><trkpt lat="43.495472" lon="11.3722497"><ele>355.0</ele><time>2026-03-28T14:55:49.176Z</time></trkpt><trkpt lat="43.495461" lon="11.3724182"><ele>356.0</ele><time>2026-03-28T14:55:50.176Z</time></trkpt><trkpt lat="43.4954734" lon="11.3725917"><ele>357.0</ele><time>2026-03-28T14:55:51.176Z</time></trkpt><trkpt lat="43.4955103" lon="11.3727699"><ele>358.0</ele><time>2026-03-28T14:55:52.177Z</time></trkpt><trkpt lat="43.4955695" lon="11.3729399"><ele>358.0</ele><time>2026-03-28T14:55:53.176Z</time></trkpt><trkpt lat="43.4956516" lon="11.3730898"><ele>358.0</ele><time>2026-03-28T14:55:54.176Z</time></trkpt><trkpt lat="43.4957535" lon="11.3732093"><ele>358.0</ele><time>2026-03-28T14:55:55.176Z</time></trkpt><trkpt lat="43.4958657" lon="11.3732979"><ele>358.0</ele><time>2026-03-28T14:55:56.176Z</time></trkpt><trkpt lat="43.4960007" lon="11.3733921"><ele>358.0</ele><time>2026-03-28T14:55:57.176Z</time></trkpt><trkpt lat="43.4961199" lon="11.3735157"><ele>358.0</ele><time>2026-03-28T14:55:58.176Z</time></trkpt><trkpt lat="43.4962123" lon="11.3736779"><ele>358.0</ele><time>2026-03-28T14:55:59.177Z</time></trkpt><trkpt lat="43.4962747" lon="11.373852"><ele>358.0</ele><time>2026-03-28T14:56:00.177Z</time></trkpt><trkpt lat="43.4963358" lon="11.3740097"><ele>360.5</ele><time>2026-03-28T14:56:01.177Z</time></trkpt><trkpt lat="43.4964233" lon="11.3741634"><ele>363.0</ele><time>2026-03-28T14:56:02.176Z</time></trkpt><trkpt lat="43.4965205" lon="11.3742765"><ele>365.5</ele><time>2026-03-28T14:56:03.177Z</time></trkpt><trkpt lat="43.4966227" lon="11.3743813"><ele>368.0</ele><time>2026-03-28T14:56:04.177Z</time></trkpt><trkpt lat="43.4967292" lon="11.3745238"><ele>368.0</ele><time>2026-03-28T14:56:05.176Z</time></trkpt><trkpt lat="43.4968044" lon="11.3746859"><ele>368.0</ele><time>2026-03-28T14:56:06.177Z</time></trkpt><trkpt lat="43.4968806" lon="11.3748669"><ele>368.0</ele><time>2026-03-28T14:56:07.176Z</time></trkpt><trkpt lat="43.4969583" lon="11.3750352"><ele>368.0</ele><time>2026-03-28T14:56:08.176Z</time></trkpt><trkpt lat="43.497036" lon="11.3751756"><ele>369.0</ele><time>2026-03-28T14:56:09.176Z</time></trkpt><trkpt lat="43.4971187" lon="11.3753182"><ele>370.0</ele><time>2026-03-28T14:56:10.177Z</time></trkpt><trkpt lat="43.4972057" lon="11.3754589"><ele>371.0</ele><time>2026-03-28T14:56:11.176Z</time></trkpt><trkpt lat="43.4972896" lon="11.3755906"><ele>372.0</ele><time>2026-03-28T14:56:12.176Z</time></trkpt><trkpt lat="43.4973946" lon="11.3757294"><ele>372.0</ele><time>2026-03-28T14:56:13.177Z</time></trkpt><trkpt lat="43.4975024" lon="11.3758423"><ele>372.0</ele><time>2026-03-28T14:56:14.176Z</time></trkpt><trkpt lat="43.4976174" lon="11.3759418"><ele>372.0</ele><time>2026-03-28T14:56:15.177Z</time></trkpt><trkpt lat="43.4977331" lon="11.3760286"><ele>372.0</ele><time>2026-03-28T14:56:16.177Z</time></trkpt><trkpt lat="43.4978397" lon="11.3761031"><ele>374.5</ele><time>2026-03-28T14:56:17.177Z</time></trkpt><trkpt lat="43.4979601" lon="11.3761886"><ele>377.0</ele><time>2026-03-28T14:56:18.176Z</time></trkpt><trkpt lat="43.4980709" lon="11.3762684"><ele>379.5</ele><time>2026-03-28T14:56:19.176Z</time></trkpt><trkpt lat="43.4981633" lon="11.3763358"><ele>382.0</ele><time>2026-03-28T14:56:20.177Z</time></trkpt><trkpt lat="43.4982607" lon="11.376409"><ele>382.0</ele><time>2026-03-28T14:56:21.177Z</time></trkpt><trkpt lat="43.4983436" lon="11.3764611"><ele>382.0</ele><time>2026-03-28T14:56:22.176Z</time></trkpt><trkpt lat="43.4984248" lon="11.3764758"><ele>382.0</ele><time>2026-03-28T14:56:23.176Z</time></trkpt><trkpt lat="43.4984892" lon="11.3764369"><ele>382.0</ele><time>2026-03-28T14:56:24.176Z</time></trkpt><trkpt lat="43.4985261" lon="11.3763472"><ele>382.0</ele><time>2026-03-28T14:56:25.177Z</time></trkpt><trkpt lat="43.4985294" lon="11.3762254"><ele>382.0</ele><time>2026-03-28T14:56:26.176Z</time></trkpt><trkpt lat="43.4985039" lon="11.376084"><ele>383.0</ele><time>2026-03-28T14:56:27.176Z</time></trkpt><trkpt lat="43.4984646" lon="11.3759328"><ele>384.0</ele><time>2026-03-28T14:56:28.177Z</time></trkpt><trkpt lat="43.4984245" lon="11.3757641"><ele>385.0</ele><time>2026-03-28T14:56:29.176Z</time></trkpt><trkpt lat="43.4984129" lon="11.37561"><ele>386.0</ele><time>2026-03-28T14:56:30.176Z</time></trkpt><trkpt lat="43.4984395" lon="11.3754878"><ele>386.4</ele><time>2026-03-28T14:56:31.177Z</time></trkpt><trkpt lat="43.4985035" lon="11.3753959"><ele>386.8</ele><time>2026-03-28T14:56:32.176Z</time></trkpt><trkpt lat="43.498587" lon="11.3753449"><ele>387.2</ele><time>2026-03-28T14:56:33.176Z</time></trkpt><trkpt lat="43.4987042" lon="11.3753003"><ele>387.59999999999997</ele><time>2026-03-28T14:56:34.177Z</time></trkpt><trkpt lat="43.4988325" lon="11.3752582"><ele>388.0</ele><time>2026-03-28T14:56:35.176Z</time></trkpt><trkpt lat="43.4989492" lon="11.3752292"><ele>388.75</ele><time>2026-03-28T14:56:36.176Z</time></trkpt><trkpt lat="43.4990913" lon="11.37521"><ele>389.5</ele><time>2026-03-28T14:56:37.177Z</time></trkpt><trkpt lat="43.4992258" lon="11.3752011"><ele>390.25</ele><time>2026-03-28T14:56:38.176Z</time></trkpt><trkpt lat="43.4993608" lon="11.3752017"><ele>391.0</ele><time>2026-03-28T14:56:39.176Z</time></trkpt><trkpt lat="43.4995258" lon="11.3752223"><ele>392.33333333333337</ele><time>2026-03-28T14:56:40.176Z</time></trkpt><trkpt lat="43.4996825" lon="11.3752527"><ele>393.66666666666663</ele><time>2026-03-28T14:56:41.176Z</time></trkpt><trkpt lat="43.4998243" lon="11.3752832"><ele>395.0</ele><time>2026-03-28T14:56:42.177Z</time></trkpt><trkpt lat="43.4999833" lon="11.3753164"><ele>395.0</ele><time>2026-03-28T14:56:43.177Z</time></trkpt><trkpt lat="43.5001228" lon="11.3753455"><ele>395.0</ele><time>2026-03-28T14:56:44.176Z</time></trkpt><trkpt lat="43.5002766" lon="11.3753753"><ele>395.0</ele><time>2026-03-28T14:56:45.177Z</time></trkpt><trkpt lat="43.5004374" lon="11.3754075"><ele>395.25</ele><time>2026-03-28T14:56:46.176Z</time></trkpt><trkpt lat="43.50059" lon="11.3754378"><ele>395.5</ele><time>2026-03-28T14:56:47.177Z</time></trkpt><trkpt lat="43.5007435" lon="11.3754697"><ele>395.75</ele><time>2026-03-28T14:56:48.177Z</time></trkpt><trkpt lat="43.5008701" lon="11.3754988"><ele>396.0</ele><time>2026-03-28T14:56:49.177Z</time></trkpt><trkpt lat="43.5009965" lon="11.375541"><ele>397.0</ele><time>2026-03-28T14:56:50.176Z</time></trkpt><trkpt lat="43.5011029" lon="11.3756031"><ele>398.0</ele><time>2026-03-28T14:56:51.176Z</time></trkpt><trkpt lat="43.5011868" lon="11.3757023"><ele>399.0</ele><time>2026-03-28T14:56:52.177Z</time></trkpt><trkpt lat="43.5012535" lon="11.3758367"><ele>400.0</ele><time>2026-03-28T14:56:53.176Z</time></trkpt><trkpt lat="43.5013027" lon="11.3759861"><ele>400.0</ele><time>2026-03-28T14:56:54.176Z</time></trkpt><trkpt lat="43.5013332" lon="11.3761471"><ele>400.0</ele><time>2026-03-28T14:56:55.176Z</time></trkpt><trkpt lat="43.5013489" lon="11.3763112"><ele>400.0</ele><time>2026-03-28T14:56:56.177Z</time></trkpt><trkpt lat="43.501356" lon="11.3764797"><ele>400.0</ele><time>2026-03-28T14:56:57.177Z</time></trkpt><trkpt lat="43.5013645" lon="11.376648"><ele>401.75</ele><time>2026-03-28T14:56:58.176Z</time></trkpt><trkpt lat="43.5013852" lon="11.3768114"><ele>403.5</ele><time>2026-03-28T14:56:59.177Z</time></trkpt><trkpt lat="43.5014233" lon="11.376968"><ele>405.25</ele><time>2026-03-28T14:57:00.176Z</time></trkpt><trkpt lat="43.5014846" lon="11.3771144"><ele>407.0</ele><time>2026-03-28T14:57:01.176Z</time></trkpt><trkpt lat="43.5015603" lon="11.3772425"><ele>409.25</ele><time>2026-03-28T14:57:02.177Z</time></trkpt><trkpt lat="43.5016479" lon="11.3773635"><ele>411.5</ele><time>2026-03-28T14:57:03.176Z</time></trkpt><trkpt lat="43.5017411" lon="11.3774809"><ele>413.75</ele><time>2026-03-28T14:57:04.177Z</time></trkpt><trkpt lat="43.5018366" lon="11.3775857"><ele>416.0</ele><time>2026-03-28T14:57:05.177Z</time></trkpt><trkpt lat="43.501961" lon="11.3776949"><ele>415.0</ele><time>2026-03-28T14:57:06.177Z</time></trkpt><trkpt lat="43.502095" lon="11.3777793"><ele>414.0</ele><time>2026-03-28T14:57:07.177Z</time></trkpt><trkpt lat="43.5022409" lon="11.3778473"><ele>413.0</ele><time>2026-03-28T14:57:08.176Z</time></trkpt><trkpt lat="43.5023901" lon="11.3779047"><ele>413.0</ele><time>2026-03-28T14:57:09.176Z</time></trkpt><trkpt lat="43.5025455" lon="11.3779462"><ele>413.0</ele><time>2026-03-28T14:57:10.176Z</time></trkpt><trkpt lat="43.5026971" lon="11.3779731"><ele>413.0</ele><time>2026-03-28T14:57:11.176Z</time></trkpt><trkpt lat="43.5028512" lon="11.3779893"><ele>415.66666666666663</ele><time>2026-03-28T14:57:12.176Z</time></trkpt><trkpt lat="43.5030065" lon="11.3779975"><ele>418.33333333333337</ele><time>2026-03-28T14:57:13.176Z</time></trkpt><trkpt lat="43.5031624" lon="11.3780045"><ele>421.0</ele><time>2026-03-28T14:57:14.176Z</time></trkpt><trkpt lat="43.5033152" lon="11.3780204"><ele>421.0</ele><time>2026-03-28T14:57:15.176Z</time></trkpt><trkpt lat="43.503468" lon="11.3780638"><ele>421.0</ele><time>2026-03-28T14:57:16.177Z</time></trkpt><trkpt lat="43.5036155" lon="11.378138"><ele>421.0</ele><time>2026-03-28T14:57:17.177Z</time></trkpt><trkpt lat="43.5037634" lon="11.378219"><ele>425.0</ele><time>2026-03-28T14:57:18.177Z</time></trkpt><trkpt lat="43.5039166" lon="11.3782893"><ele>429.0</ele><time>2026-03-28T14:57:19.177Z</time></trkpt><trkpt lat="43.5040767" lon="11.3783514"><ele>433.0</ele><time>2026-03-28T14:57:20.177Z</time></trkpt><trkpt lat="43.5042427" lon="11.3784024"><ele>433.0</ele><time>2026-03-28T14:57:21.184Z</time></trkpt><trkpt lat="43.5043956" lon="11.3784607"><ele>433.0</ele><time>2026-03-28T14:57:22.185Z</time></trkpt><trkpt lat="43.5045522" lon="11.378516"><ele>433.0</ele><time>2026-03-28T14:57:23.184Z</time></trkpt><trkpt lat="43.5047022" lon="11.3785621"><ele>435.75</ele><time>2026-03-28T14:57:24.184Z</time></trkpt><trkpt lat="43.5048336" lon="11.3786251"><ele>438.5</ele><time>2026-03-28T14:57:25.184Z</time></trkpt><trkpt lat="43.5049522" lon="11.378735"><ele>441.25</ele><time>2026-03-28T14:57:26.185Z</time></trkpt><trkpt lat="43.5050566" lon="11.3788673"><ele>444.0</ele><time>2026-03-28T14:57:27.184Z</time></trkpt><trkpt lat="43.5051496" lon="11.3790082"><ele>444.0</ele><time>2026-03-28T14:57:28.185Z</time></trkpt><trkpt lat="43.5052458" lon="11.3791623"><ele>444.0</ele><time>2026-03-28T14:57:29.185Z</time></trkpt><trkpt lat="43.5053382" lon="11.3793153"><ele>444.0</ele><time>2026-03-28T14:57:30.185Z</time></trkpt><trkpt lat="43.5054217" lon="11.3794336"><ele>444.0</ele><time>2026-03-28T14:57:31.185Z</time></trkpt><trkpt lat="43.5055073" lon="11.3795117"><ele>446.6666666666667</ele><time>2026-03-28T14:57:32.185Z</time></trkpt><trkpt lat="43.5055874" lon="11.3795312"><ele>449.33333333333337</ele><time>2026-03-28T14:57:33.184Z</time></trkpt><trkpt lat="43.5056467" lon="11.3794983"><ele>452.0</ele><time>2026-03-28T14:57:34.185Z</time></trkpt><trkpt lat="43.5056871" lon="11.3794189"><ele>454.6666666666667</ele><time>2026-03-28T14:57:35.184Z</time></trkpt><trkpt lat="43.5056871" lon="11.3793038"><ele>457.33333333333337</ele><time>2026-03-28T14:57:36.185Z</time></trkpt><trkpt lat="43.5056546" lon="11.3791787"><ele>460.0</ele><time>2026-03-28T14:57:37.185Z</time></trkpt><trkpt lat="43.5056098" lon="11.3790405"><ele>460.0</ele><time>2026-03-28T14:57:38.185Z</time></trkpt><trkpt lat="43.5055774" lon="11.3789022"><ele>460.0</ele><time>2026-03-28T14:57:39.184Z</time></trkpt><trkpt lat="43.50556" lon="11.3787488"><ele>460.0</ele><time>2026-03-28T14:57:40.184Z</time></trkpt><trkpt lat="43.5055571" lon="11.3785922"><ele>460.0</ele><time>2026-03-28T14:57:41.185Z</time></trkpt><trkpt lat="43.5055805" lon="11.3784574"><ele>460.0</ele><time>2026-03-28T14:57:42.185Z</time></trkpt><trkpt lat="43.5056337" lon="11.3783558"><ele>459.8</ele><time>2026-03-28T14:57:43.185Z</time></trkpt><trkpt lat="43.5057091" lon="11.3783135"><ele>459.6</ele><time>2026-03-28T14:57:44.184Z</time></trkpt><trkpt lat="43.5058033" lon="11.3783176"><ele>459.4</ele><time>2026-03-28T14:57:45.184Z</time></trkpt><trkpt lat="43.5059055" lon="11.3783678"><ele>459.2</ele><time>2026-03-28T14:57:46.185Z</time></trkpt><trkpt lat="43.5060035" lon="11.3784602"><ele>459.0</ele><time>2026-03-28T14:57:47.184Z</time></trkpt><trkpt lat="43.5060766" lon="11.3785666"><ele>459.0</ele><time>2026-03-28T14:57:48.185Z</time></trkpt><trkpt lat="43.5061338" lon="11.378673"><ele>459.0</ele><time>2026-03-28T14:57:49.184Z</time></trkpt><trkpt lat="43.5061803" lon="11.3787837"><ele>459.0</ele><time>2026-03-28T14:57:50.184Z</time></trkpt><trkpt lat="43.5062393" lon="11.3789001"><ele>459.0</ele><time>2026-03-28T14:57:51.184Z</time></trkpt><trkpt lat="43.5063172" lon="11.3790052"><ele>459.0</ele><time>2026-03-28T14:57:52.184Z</time></trkpt><trkpt lat="43.5064184" lon="11.379081"><ele>461.25</ele><time>2026-03-28T14:57:53.184Z</time></trkpt><trkpt lat="43.5065308" lon="11.3791385"><ele>463.5</ele><time>2026-03-28T14:57:54.185Z</time></trkpt><trkpt lat="43.506641" lon="11.3791942"><ele>465.75</ele><time>2026-03-28T14:57:55.184Z</time></trkpt><trkpt lat="43.506743" lon="11.3792485"><ele>468.0</ele><time>2026-03-28T14:57:56.184Z</time></trkpt><trkpt lat="43.5068487" lon="11.3793033"><ele>468.0</ele><time>2026-03-28T14:57:57.184Z</time></trkpt><trkpt lat="43.5069524" lon="11.3793578"><ele>467.99999999999994</ele><time>2026-03-28T14:57:58.185Z</time></trkpt><trkpt lat="43.5070558" lon="11.3794115"><ele>467.99999999999994</ele><time>2026-03-28T14:57:59.184Z</time></trkpt><trkpt lat="43.5071594" lon="11.3794646"><ele>468.0</ele><time>2026-03-28T14:58:00.184Z</time></trkpt><trkpt lat="43.5072676" lon="11.3795153"><ele>468.0</ele><time>2026-03-28T14:58:01.185Z</time></trkpt><trkpt lat="43.5073873" lon="11.3795634"><ele>470.75</ele><time>2026-03-28T14:58:02.184Z</time></trkpt><trkpt lat="43.5075085" lon="11.3795918"><ele>473.5</ele><time>2026-03-28T14:58:03.185Z</time></trkpt><trkpt lat="43.5076458" lon="11.3796127"><ele>476.25</ele><time>2026-03-28T14:58:04.184Z</time></trkpt><trkpt lat="43.5077936" lon="11.379631"><ele>479.0</ele><time>2026-03-28T14:58:05.185Z</time></trkpt><trkpt lat="43.5079522" lon="11.3796679"><ele>482.0</ele><time>2026-03-28T14:58:06.184Z</time></trkpt><trkpt lat="43.5081012" lon="11.379716"><ele>485.0</ele><time>2026-03-28T14:58:07.184Z</time></trkpt><trkpt lat="43.5082494" lon="11.3797779"><ele>488.0</ele><time>2026-03-28T14:58:08.185Z</time></trkpt><trkpt lat="43.5083988" lon="11.3798533"><ele>488.0</ele><time>2026-03-28T14:58:09.184Z</time></trkpt><trkpt lat="43.5085468" lon="11.3799318"><ele>488.0</ele><time>2026-03-28T14:58:10.185Z</time></trkpt><trkpt lat="43.508694" lon="11.3800097"><ele>488.0</ele><time>2026-03-28T14:58:11.185Z</time></trkpt><trkpt lat="43.5088428" lon="11.380084"><ele>491.0</ele><time>2026-03-28T14:58:12.185Z</time></trkpt><trkpt lat="43.5089879" lon="11.3801502"><ele>494.0</ele><time>2026-03-28T14:58:13.184Z</time></trkpt><trkpt lat="43.5091366" lon="11.3802001"><ele>497.0</ele><time>2026-03-28T14:58:14.185Z</time></trkpt><trkpt lat="43.5092714" lon="11.3802385"><ele>500.0</ele><time>2026-03-28T14:58:15.185Z</time></trkpt><trkpt lat="43.5094084" lon="11.3802552"><ele>500.0</ele><time>2026-03-28T14:58:16.185Z</time></trkpt><trkpt lat="43.5095261" lon="11.3802553"><ele>500.0</ele><time>2026-03-28T14:58:17.185Z</time></trkpt><trkpt lat="43.5096336" lon="11.3802158"><ele>500.0</ele><time>2026-03-28T14:58:18.184Z</time></trkpt><trkpt lat="43.5097297" lon="11.3801254"><ele>500.0</ele><time>2026-03-28T14:58:19.185Z</time></trkpt><trkpt lat="43.5098128" lon="11.3800207"><ele>501.5</ele><time>2026-03-28T14:58:20.185Z</time></trkpt><trkpt lat="43.509925" lon="11.3799752"><ele>503.0</ele><time>2026-03-28T14:58:21.184Z</time></trkpt><trkpt lat="43.5100457" lon="11.3799792"><ele>504.5</ele><time>2026-03-28T14:58:22.184Z</time></trkpt><trkpt lat="43.5101621" lon="11.3800257"><ele>506.0</ele><time>2026-03-28T14:58:23.185Z</time></trkpt><trkpt lat="43.5102617" lon="11.3801306"><ele>506.0</ele><time>2026-03-28T14:58:24.184Z</time></trkpt><trkpt lat="43.510366" lon="11.3802355"><ele>506.0</ele><time>2026-03-28T14:58:25.184Z</time></trkpt><trkpt lat="43.5104885" lon="11.3803261"><ele>506.0</ele><time>2026-03-28T14:58:26.184Z</time></trkpt><trkpt lat="43.5106233" lon="11.3803852"><ele>506.0</ele><time>2026-03-28T14:58:27.184Z</time></trkpt><trkpt lat="43.5107429" lon="11.380404"><ele>508.75</ele><time>2026-03-28T14:58:28.184Z</time></trkpt><trkpt lat="43.5108678" lon="11.3803949"><ele>511.5</ele><time>2026-03-28T14:58:29.184Z</time></trkpt><trkpt lat="43.5109524" lon="11.3802628"><ele>514.25</ele><time>2026-03-28T14:58:30.184Z</time></trkpt><trkpt lat="43.5110416" lon="11.3801914"><ele>517.0</ele><time>2026-03-28T14:58:31.185Z</time></trkpt><trkpt lat="43.5111432" lon="11.3801644"><ele>518.6</ele><time>2026-03-28T14:58:32.184Z</time></trkpt><trkpt lat="43.5112407" lon="11.3801719"><ele>520.2</ele><time>2026-03-28T14:58:33.185Z</time></trkpt><trkpt lat="43.5113054" lon="11.3802895"><ele>521.8</ele><time>2026-03-28T14:58:34.183Z</time></trkpt><trkpt lat="43.5113568" lon="11.380387"><ele>523.4</ele><time>2026-03-28T14:58:35.184Z</time></trkpt><trkpt lat="43.5114242" lon="11.3804803"><ele>525.0</ele><time>2026-03-28T14:58:36.184Z</time></trkpt><trkpt lat="43.5115092" lon="11.3805542"><ele>526.4</ele><time>2026-03-28T14:58:37.183Z</time></trkpt><trkpt lat="43.5116022" lon="11.3806063"><ele>527.8</ele><time>2026-03-28T14:58:38.184Z</time></trkpt><trkpt lat="43.5116934" lon="11.3806718"><ele>529.2</ele><time>2026-03-28T14:58:39.183Z</time></trkpt><trkpt lat="43.5117748" lon="11.3807567"><ele>530.6</ele><time>2026-03-28T14:58:40.184Z</time></trkpt><trkpt lat="43.5118309" lon="11.3808865"><ele>532.0</ele><time>2026-03-28T14:58:41.183Z</time></trkpt><trkpt lat="43.5118568" lon="11.3810344"><ele>532.0</ele><time>2026-03-28T14:58:42.183Z</time></trkpt><trkpt lat="43.5118733" lon="11.3811819"><ele>532.0</ele><time>2026-03-28T14:58:43.184Z</time></trkpt><trkpt lat="43.5119146" lon="11.3813279"><ele>532.0</ele><time>2026-03-28T14:58:44.184Z</time></trkpt><trkpt lat="43.5119651" lon="11.381441"><ele>532.0</ele><time>2026-03-28T14:58:45.184Z</time></trkpt><trkpt lat="43.5120225" lon="11.3815662"><ele>532.0</ele><time>2026-03-28T14:58:46.183Z</time></trkpt><trkpt lat="43.5120552" lon="11.3817036"><ele>532.4</ele><time>2026-03-28T14:58:47.183Z</time></trkpt><trkpt lat="43.5120573" lon="11.3818481"><ele>532.8000000000001</ele><time>2026-03-28T14:58:48.183Z</time></trkpt><trkpt lat="43.512032" lon="11.3819962"><ele>533.2</ele><time>2026-03-28T14:58:49.183Z</time></trkpt><trkpt lat="43.5119808" lon="11.3821485"><ele>533.6</ele><time>2026-03-28T14:58:50.183Z</time></trkpt><trkpt lat="43.5119347" lon="11.3822819"><ele>534.0</ele><time>2026-03-28T14:58:51.183Z</time></trkpt><trkpt lat="43.511899" lon="11.3824043"><ele>535.2</ele><time>2026-03-28T14:58:52.183Z</time></trkpt><trkpt lat="43.5118793" lon="11.3825393"><ele>536.4</ele><time>2026-03-28T14:58:53.184Z</time></trkpt><trkpt lat="43.5119014" lon="11.3826508"><ele>537.6</ele><time>2026-03-28T14:58:54.183Z</time></trkpt><trkpt lat="43.5119561" lon="11.3827437"><ele>538.8</ele><time>2026-03-28T14:58:55.184Z</time></trkpt><trkpt lat="43.5120397" lon="11.3827922"><ele>540.0</ele><time>2026-03-28T14:58:56.182Z</time></trkpt><trkpt lat="43.5121383" lon="11.3827892"><ele>542.75</ele><time>2026-03-28T14:58:57.184Z</time></trkpt><trkpt lat="43.5122324" lon="11.3827655"><ele>545.5</ele><time>2026-03-28T14:58:58.184Z</time></trkpt><trkpt lat="43.5123353" lon="11.3827293"><ele>548.25</ele><time>2026-03-28T14:58:59.184Z</time></trkpt><trkpt lat="43.5124504" lon="11.3826805"><ele>551.0</ele><time>2026-03-28T14:59:00.183Z</time></trkpt><trkpt lat="43.5125731" lon="11.3826256"><ele>551.0</ele><time>2026-03-28T14:59:01.183Z</time></trkpt><trkpt lat="43.5126977" lon="11.3825756"><ele>551.0</ele><time>2026-03-28T14:59:02.184Z</time></trkpt><trkpt lat="43.5128206" lon="11.3825269"><ele>551.0</ele><time>2026-03-28T14:59:03.183Z</time></trkpt><trkpt lat="43.5129587" lon="11.3824833"><ele>551.0</ele><time>2026-03-28T14:59:04.184Z</time></trkpt><trkpt lat="43.5131005" lon="11.3824555"><ele>552.75</ele><time>2026-03-28T14:59:05.184Z</time></trkpt><trkpt lat="43.5132286" lon="11.3824384"><ele>554.5</ele><time>2026-03-28T14:59:06.183Z</time></trkpt><trkpt lat="43.5133672" lon="11.3824223"><ele>556.25</ele><time>2026-03-28T14:59:07.183Z</time></trkpt><trkpt lat="43.5135043" lon="11.3824087"><ele>558.0</ele><time>2026-03-28T14:59:08.183Z</time></trkpt><trkpt lat="43.5136444" lon="11.3823973"><ele>559.75</ele><time>2026-03-28T14:59:09.184Z</time></trkpt><trkpt lat="43.5137852" lon="11.3823885"><ele>561.5</ele><time>2026-03-28T14:59:10.183Z</time></trkpt><trkpt lat="43.5139221" lon="11.3823775"><ele>563.25</ele><time>2026-03-28T14:59:11.183Z</time></trkpt><trkpt lat="43.5140555" lon="11.3823644"><ele>565.0</ele><time>2026-03-28T14:59:12.182Z</time></trkpt><trkpt lat="43.5141963" lon="11.3823501"><ele>565.0</ele><time>2026-03-28T14:59:13.183Z</time></trkpt><trkpt lat="43.5143404" lon="11.3823339"><ele>565.0</ele><time>2026-03-28T14:59:14.184Z</time></trkpt><trkpt lat="43.5144872" lon="11.3822976"><ele>565.0</ele><time>2026-03-28T14:59:15.183Z</time></trkpt><trkpt lat="43.5146215" lon="11.3822483"><ele>565.0</ele><time>2026-03-28T14:59:16.184Z</time></trkpt><trkpt lat="43.5147633" lon="11.3822099"><ele>566.75</ele><time>2026-03-28T14:59:17.183Z</time></trkpt><trkpt lat="43.5149058" lon="11.3822037"><ele>568.5</ele><time>2026-03-28T14:59:18.183Z</time></trkpt><trkpt lat="43.5150304" lon="11.3821994"><ele>570.25</ele><time>2026-03-28T14:59:19.184Z</time></trkpt><trkpt lat="43.5151522" lon="11.3821673"><ele>572.0</ele><time>2026-03-28T14:59:20.183Z</time></trkpt><trkpt lat="43.5152662" lon="11.3821055"><ele>575.5</ele><time>2026-03-28T14:59:21.183Z</time></trkpt><trkpt lat="43.5153824" lon="11.3820204"><ele>579.0</ele><time>2026-03-28T14:59:22.183Z</time></trkpt><trkpt lat="43.5155014" lon="11.3819772"><ele>582.5</ele><time>2026-03-28T14:59:23.184Z</time></trkpt><trkpt lat="43.5156134" lon="11.3819902"><ele>586.0</ele><time>2026-03-28T14:59:24.184Z</time></trkpt><trkpt lat="43.5157262" lon="11.3820335"><ele>588.5</ele><time>2026-03-28T14:59:25.183Z</time></trkpt><trkpt lat="43.5158355" lon="11.3820893"><ele>591.0</ele><time>2026-03-28T14:59:26.184Z</time></trkpt><trkpt lat="43.5159413" lon="11.3821176"><ele>593.5</ele><time>2026-03-28T14:59:27.183Z</time></trkpt><trkpt lat="43.5160559" lon="11.3821275"><ele>596.0</ele><time>2026-03-28T14:59:28.183Z</time></trkpt><trkpt lat="43.5161773" lon="11.3821401"><ele>599.0</ele><time>2026-03-28T14:59:29.183Z</time></trkpt><trkpt lat="43.5163018" lon="11.382143"><ele>602.0</ele><time>2026-03-28T14:59:30.184Z</time></trkpt><trkpt lat="43.5164221" lon="11.3821349"><ele>605.0</ele><time>2026-03-28T14:59:31.184Z</time></trkpt><trkpt lat="43.5165315" lon="11.3821222"><ele>608.0</ele><time>2026-03-28T14:59:32.184Z</time></trkpt><trkpt lat="43.5166346" lon="11.3821083"><ele>608.0</ele><time>2026-03-28T14:59:33.183Z</time></trkpt><trkpt lat="43.5167197" lon="11.3820916"><ele>608.0</ele><time>2026-03-28T14:59:34.183Z</time></trkpt><trkpt lat="43.5168025" lon="11.3820751"><ele>608.0</ele><time>2026-03-28T14:59:35.184Z</time></trkpt><trkpt lat="43.516864" lon="11.3820437"><ele>608.0</ele><time>2026-03-28T14:59:36.183Z</time></trkpt><trkpt lat="43.516922" lon="11.3819131"><ele>608.0</ele><time>2026-03-28T14:59:38.184Z</time></trkpt><trkpt lat="43.5168665" lon="11.3817842"><ele>608.0</ele><time>2026-03-28T14:59:40.184Z</time></trkpt><trkpt lat="43.516805" lon="11.3817495"><ele>608.0</ele><time>2026-03-28T14:59:41.183Z</time></trkpt><trkpt lat="43.5167298" lon="11.3817378"><ele>608.0</ele><time>2026-03-28T14:59:42.183Z</time></trkpt><trkpt lat="43.5166436" lon="11.3817557"><ele>608.0</ele><time>2026-03-28T14:59:43.183Z</time></trkpt><trkpt lat="43.5165787" lon="11.3817664"><ele>608.0</ele><time>2026-03-28T14:59:44.183Z</time></trkpt><trkpt lat="43.5164732" lon="11.3817182"><ele>608.0</ele><time>2026-03-28T14:59:46.183Z</time></trkpt><trkpt lat="43.5164429" lon="11.3815698"><ele>608.0</ele><time>2026-03-28T14:59:48.184Z</time></trkpt><trkpt lat="43.5164806" lon="11.3814282"><ele>608.0</ele><time>2026-03-28T14:59:50.183Z</time></trkpt><trkpt lat="43.5165258" lon="11.3813065"><ele>608.0</ele><time>2026-03-28T14:59:52.183Z</time></trkpt><trkpt lat="43.5165907" lon="11.38123"><ele>608.0</ele><time>2026-03-28T14:59:55.183Z</time></trkpt><trkpt lat="43.5166531" lon="11.3812689"><ele>608.0</ele><time>2026-03-28T14:59:57.184Z</time></trkpt><trkpt lat="43.5167159" lon="11.381329"><ele>608.0</ele><time>2026-03-28T15:00:00.183Z</time></trkpt><trkpt lat="43.5167871" lon="11.3813902"><ele>608.0</ele><time>2026-03-28T15:00:03.183Z</time></trkpt><trkpt lat="43.516845" lon="11.3814344"><ele>608.0</ele><time>2026-03-28T15:00:05.184Z</time></trkpt><trkpt lat="43.5169209" lon="11.3814611"><ele>608.0</ele><time>2026-03-28T15:00:07.183Z</time></trkpt><trkpt lat="43.5170168" lon="11.3814519"><ele>608.0</ele><time>2026-03-28T15:00:09.184Z</time></trkpt><trkpt lat="43.517128" lon="11.3813978"><ele>608.0</ele><time>2026-03-28T15:00:11.183Z</time></trkpt><trkpt lat="43.5172012" lon="11.3813856"><ele>608.0</ele><time>2026-03-28T15:00:12.184Z</time></trkpt><trkpt lat="43.5172765" lon="11.3813854"><ele>608.6666666666666</ele><time>2026-03-28T15:00:13.183Z</time></trkpt><trkpt lat="43.5173628" lon="11.3813715"><ele>609.3333333333333</ele><time>2026-03-28T15:00:14.183Z</time></trkpt><trkpt lat="43.5174479" lon="11.3813743"><ele>610.0</ele><time>2026-03-28T15:00:15.184Z</time></trkpt><trkpt lat="43.5175323" lon="11.3813859"><ele>610.6666666666666</ele><time>2026-03-28T15:00:16.184Z</time></trkpt><trkpt lat="43.5176173" lon="11.3813901"><ele>611.3333333333334</ele><time>2026-03-28T15:00:17.184Z</time></trkpt><trkpt lat="43.5177019" lon="11.3813964"><ele>612.0</ele><time>2026-03-28T15:00:18.183Z</time></trkpt><trkpt lat="43.517776" lon="11.3814342"><ele>612.0</ele><time>2026-03-28T15:00:19.184Z</time></trkpt><trkpt lat="43.5178487" lon="11.3814905"><ele>612.0</ele><time>2026-03-28T15:00:20.184Z</time></trkpt><trkpt lat="43.5179034" lon="11.3815658"><ele>612.0</ele><time>2026-03-28T15:00:21.183Z</time></trkpt><trkpt lat="43.5179682" lon="11.3816355"><ele>612.0</ele><time>2026-03-28T15:00:22.183Z</time></trkpt><trkpt lat="43.518039" lon="11.3816917"><ele>612.0</ele><time>2026-03-28T15:00:23.183Z</time></trkpt><trkpt lat="43.5181189" lon="11.3817324"><ele>612.0</ele><time>2026-03-28T15:00:24.183Z</time></trkpt><trkpt lat="43.5181996" lon="11.3817706"><ele>613.6666666666666</ele><time>2026-03-28T15:00:25.184Z</time></trkpt><trkpt lat="43.5182772" lon="11.3818018"><ele>615.3333333333334</ele><time>2026-03-28T15:00:26.183Z</time></trkpt><trkpt lat="43.5183639" lon="11.3818184"><ele>617.0</ele><time>2026-03-28T15:00:27.183Z</time></trkpt><trkpt lat="43.5184509" lon="11.3818199"><ele>618.6666666666667</ele><time>2026-03-28T15:00:28.184Z</time></trkpt><trkpt lat="43.5185385" lon="11.3818027"><ele>620.3333333333334</ele><time>2026-03-28T15:00:29.183Z</time></trkpt><trkpt lat="43.5186278" lon="11.3817812"><ele>622.0</ele><time>2026-03-28T15:00:30.183Z</time></trkpt><trkpt lat="43.5187199" lon="11.3817624"><ele>624.0</ele><time>2026-03-28T15:00:31.183Z</time></trkpt><trkpt lat="43.5188117" lon="11.3817545"><ele>626.0</ele><time>2026-03-28T15:00:32.184Z</time></trkpt><trkpt lat="43.5188928" lon="11.3817702"><ele>628.0</ele><time>2026-03-28T15:00:33.183Z</time></trkpt><trkpt lat="43.5189509" lon="11.3818094"><ele>630.0</ele><time>2026-03-28T15:00:34.183Z</time></trkpt><trkpt lat="43.5190028" lon="11.3818646"><ele>632.0</ele><time>2026-03-28T15:00:35.183Z</time></trkpt><trkpt lat="43.5190537" lon="11.3819244"><ele>634.0</ele><time>2026-03-28T15:00:36.183Z</time></trkpt><trkpt lat="43.5191065" lon="11.3819826"><ele>636.0</ele><time>2026-03-28T15:00:37.183Z</time></trkpt><trkpt lat="43.5191656" lon="11.3820402"><ele>636.0</ele><time>2026-03-28T15:00:38.183Z</time></trkpt><trkpt lat="43.5192192" lon="11.3820957"><ele>636.0</ele><time>2026-03-28T15:00:39.184Z</time></trkpt><trkpt lat="43.5192793" lon="11.3821565"><ele>636.0</ele><time>2026-03-28T15:00:40.183Z</time></trkpt><trkpt lat="43.5193355" lon="11.3822274"><ele>636.0</ele><time>2026-03-28T15:00:41.183Z</time></trkpt><trkpt lat="43.5193827" lon="11.3823951"><ele>636.0</ele><time>2026-03-28T15:00:43.183Z</time></trkpt><trkpt lat="43.5194071" lon="11.3825077"><ele>636.0</ele><time>2026-03-28T15:00:44.183Z</time></trkpt><trkpt lat="43.5194521" lon="11.382628"><ele>636.6666666666666</ele><time>2026-03-28T15:00:45.184Z</time></trkpt><trkpt lat="43.519503" lon="11.3827176"><ele>637.3333333333334</ele><time>2026-03-28T15:00:46.183Z</time></trkpt><trkpt lat="43.5195713" lon="11.3827905"><ele>638.0</ele><time>2026-03-28T15:00:47.183Z</time></trkpt><trkpt lat="43.5196436" lon="11.3828348"><ele>638.6666666666667</ele><time>2026-03-28T15:00:48.183Z</time></trkpt><trkpt lat="43.5197358" lon="11.3828696"><ele>639.3333333333334</ele><time>2026-03-28T15:00:49.183Z</time></trkpt><trkpt lat="43.5198264" lon="11.3828856"><ele>640.0</ele><time>2026-03-28T15:00:50.182Z</time></trkpt><trkpt lat="43.5199196" lon="11.3829075"><ele>642.8</ele><time>2026-03-28T15:00:51.183Z</time></trkpt><trkpt lat="43.5200284" lon="11.3829414"><ele>645.6</ele><time>2026-03-28T15:00:52.183Z</time></trkpt><trkpt lat="43.5201257" lon="11.3829744"><ele>648.4000000000001</ele><time>2026-03-28T15:00:53.183Z</time></trkpt><trkpt lat="43.5202285" lon="11.3830091"><ele>651.2</ele><time>2026-03-28T15:00:54.183Z</time></trkpt><trkpt lat="43.5203258" lon="11.3830516"><ele>654.0</ele><time>2026-03-28T15:00:55.183Z</time></trkpt><trkpt lat="43.5204129" lon="11.3831122"><ele>655.5</ele><time>2026-03-28T15:00:56.184Z</time></trkpt><trkpt lat="43.5204816" lon="11.3831929"><ele>657.0</ele><time>2026-03-28T15:00:57.183Z</time></trkpt><trkpt lat="43.5205321" lon="11.3832887"><ele>658.5</ele><time>2026-03-28T15:00:58.182Z</time></trkpt><trkpt lat="43.5205548" lon="11.3833909"><ele>660.0</ele><time>2026-03-28T15:00:59.182Z</time></trkpt><trkpt lat="43.5205721" lon="11.3835036"><ele>661.5</ele><time>2026-03-28T15:01:00.183Z</time></trkpt><trkpt lat="43.5205851" lon="11.3836233"><ele>663.0</ele><time>2026-03-28T15:01:01.183Z</time></trkpt><trkpt lat="43.5205959" lon="11.3837484"><ele>664.8</ele><time>2026-03-28T15:01:02.183Z</time></trkpt><trkpt lat="43.5206029" lon="11.3838828"><ele>666.5999999999999</ele><time>2026-03-28T15:01:03.183Z</time></trkpt><trkpt lat="43.5206091" lon="11.3840263"><ele>668.4000000000001</ele><time>2026-03-28T15:01:04.183Z</time></trkpt><trkpt lat="43.5206229" lon="11.3841586"><ele>670.2</ele><time>2026-03-28T15:01:05.183Z</time></trkpt><trkpt lat="43.5206514" lon="11.3842818"><ele>672.0</ele><time>2026-03-28T15:01:06.183Z</time></trkpt><trkpt lat="43.5206948" lon="11.3843966"><ele>672.0</ele><time>2026-03-28T15:01:07.184Z</time></trkpt><trkpt lat="43.5207422" lon="11.3845137"><ele>672.0</ele><time>2026-03-28T15:01:08.183Z</time></trkpt><trkpt lat="43.5207798" lon="11.384635"><ele>672.0</ele><time>2026-03-28T15:01:09.183Z</time></trkpt><trkpt lat="43.520814" lon="11.3847583"><ele>672.0</ele><time>2026-03-28T15:01:10.184Z</time></trkpt><trkpt lat="43.5208569" lon="11.3848776"><ele>672.0</ele><time>2026-03-28T15:01:11.184Z</time></trkpt><trkpt lat="43.5209062" lon="11.3849963"><ele>672.4000000000001</ele><time>2026-03-28T15:01:12.183Z</time></trkpt><trkpt lat="43.520965" lon="11.3851063"><ele>672.8000000000001</ele><time>2026-03-28T15:01:13.183Z</time></trkpt><trkpt lat="43.5210333" lon="11.3851989"><ele>673.2</ele><time>2026-03-28T15:01:14.184Z</time></trkpt><trkpt lat="43.5211087" lon="11.3852875"><ele>673.6</ele><time>2026-03-28T15:01:15.183Z</time></trkpt><trkpt lat="43.5211872" lon="11.3853683"><ele>674.0</ele><time>2026-03-28T15:01:16.183Z</time></trkpt><trkpt lat="43.521265" lon="11.3854465"><ele>677.4000000000001</ele><time>2026-03-28T15:01:17.184Z</time></trkpt><trkpt lat="43.5213439" lon="11.3855259"><ele>680.8</ele><time>2026-03-28T15:01:18.184Z</time></trkpt><trkpt lat="43.5214243" lon="11.3856004"><ele>684.2</ele><time>2026-03-28T15:01:19.184Z</time></trkpt><trkpt lat="43.5215082" lon="11.3856722"><ele>687.5999999999999</ele><time>2026-03-28T15:01:20.184Z</time></trkpt><trkpt lat="43.5215903" lon="11.3857467"><ele>691.0</ele><time>2026-03-28T15:01:21.184Z</time></trkpt><trkpt lat="43.5216578" lon="11.3858284"><ele>691.0</ele><time>2026-03-28T15:01:22.183Z</time></trkpt><trkpt lat="43.5217118" lon="11.3859367"><ele>691.0</ele><time>2026-03-28T15:01:23.183Z</time></trkpt><trkpt lat="43.5217539" lon="11.3860551"><ele>691.0</ele><time>2026-03-28T15:01:24.183Z</time></trkpt><trkpt lat="43.5217776" lon="11.3861799"><ele>691.0</ele><time>2026-03-28T15:01:25.184Z</time></trkpt><trkpt lat="43.521781" lon="11.3863045"><ele>691.0</ele><time>2026-03-28T15:01:26.183Z</time></trkpt><trkpt lat="43.5217554" lon="11.3864317"><ele>691.0</ele><time>2026-03-28T15:01:27.183Z</time></trkpt><trkpt lat="43.5217278" lon="11.3865547"><ele>691.0</ele><time>2026-03-28T15:01:28.183Z</time></trkpt><trkpt lat="43.5217215" lon="11.3866776"><ele>691.0</ele><time>2026-03-28T15:01:29.184Z</time></trkpt><trkpt lat="43.5217379" lon="11.3868023"><ele>691.0</ele><time>2026-03-28T15:01:30.183Z</time></trkpt><trkpt lat="43.5217789" lon="11.3869204"><ele>691.0</ele><time>2026-03-28T15:01:31.183Z</time></trkpt><trkpt lat="43.5218424" lon="11.3870261"><ele>691.0</ele><time>2026-03-28T15:01:32.184Z</time></trkpt><trkpt lat="43.5219211" lon="11.3871061"><ele>691.0</ele><time>2026-03-28T15:01:33.183Z</time></trkpt><trkpt lat="43.5220158" lon="11.3871761"><ele>691.0</ele><time>2026-03-28T15:01:34.183Z</time></trkpt><trkpt lat="43.5221162" lon="11.3872343"><ele>691.0</ele><time>2026-03-28T15:01:35.183Z</time></trkpt><trkpt lat="43.5222236" lon="11.3872662"><ele>691.0</ele><time>2026-03-28T15:01:36.183Z</time></trkpt><trkpt lat="43.5223351" lon="11.3872808"><ele>691.75</ele><time>2026-03-28T15:01:37.184Z</time></trkpt><trkpt lat="43.5224531" lon="11.3872772"><ele>692.5</ele><time>2026-03-28T15:01:38.183Z</time></trkpt><trkpt lat="43.5225732" lon="11.3872708"><ele>693.25</ele><time>2026-03-28T15:01:39.183Z</time></trkpt><trkpt lat="43.5226966" lon="11.3872656"><ele>694.0</ele><time>2026-03-28T15:01:40.184Z</time></trkpt><trkpt lat="43.5228145" lon="11.3872527"><ele>694.75</ele><time>2026-03-28T15:01:41.183Z</time></trkpt><trkpt lat="43.5229239" lon="11.3872199"><ele>695.5</ele><time>2026-03-28T15:01:42.184Z</time></trkpt><trkpt lat="43.5230378" lon="11.3871693"><ele>696.25</ele><time>2026-03-28T15:01:43.183Z</time></trkpt><trkpt lat="43.5231489" lon="11.387108"><ele>697.0</ele><time>2026-03-28T15:01:44.184Z</time></trkpt><trkpt lat="43.5232634" lon="11.3870408"><ele>699.75</ele><time>2026-03-28T15:01:45.183Z</time></trkpt><trkpt lat="43.5233809" lon="11.3869739"><ele>702.5</ele><time>2026-03-28T15:01:46.183Z</time></trkpt><trkpt lat="43.5234969" lon="11.3869032"><ele>705.25</ele><time>2026-03-28T15:01:47.184Z</time></trkpt><trkpt lat="43.5236125" lon="11.3868258"><ele>708.0</ele><time>2026-03-28T15:01:48.184Z</time></trkpt><trkpt lat="43.5237295" lon="11.3867437"><ele>707.5</ele><time>2026-03-28T15:01:49.183Z</time></trkpt><trkpt lat="43.5238472" lon="11.3866537"><ele>707.0</ele><time>2026-03-28T15:01:50.184Z</time></trkpt><trkpt lat="43.5239667" lon="11.3865601"><ele>706.5</ele><time>2026-03-28T15:01:51.184Z</time></trkpt><trkpt lat="43.5240884" lon="11.3864824"><ele>706.0</ele><time>2026-03-28T15:01:52.184Z</time></trkpt><trkpt lat="43.5242153" lon="11.3864346"><ele>706.0</ele><time>2026-03-28T15:01:53.183Z</time></trkpt><trkpt lat="43.5243474" lon="11.3864139"><ele>706.0</ele><time>2026-03-28T15:01:54.184Z</time></trkpt><trkpt lat="43.5244788" lon="11.3864125"><ele>706.0</ele><time>2026-03-28T15:01:55.184Z</time></trkpt><trkpt lat="43.524591" lon="11.3864164"><ele>706.0</ele><time>2026-03-28T15:01:56.183Z</time></trkpt><trkpt lat="43.5246953" lon="11.3864026"><ele>705.5</ele><time>2026-03-28T15:01:57.183Z</time></trkpt><trkpt lat="43.5247869" lon="11.3863664"><ele>705.0</ele><time>2026-03-28T15:01:58.183Z</time></trkpt><trkpt lat="43.5248617" lon="11.3863078"><ele>704.5</ele><time>2026-03-28T15:01:59.184Z</time></trkpt><trkpt lat="43.5249137" lon="11.3862185"><ele>704.0</ele><time>2026-03-28T15:02:00.183Z</time></trkpt><trkpt lat="43.5249541" lon="11.3861095"><ele>703.5</ele><time>2026-03-28T15:02:01.183Z</time></trkpt><trkpt lat="43.5249888" lon="11.3859879"><ele>703.0</ele><time>2026-03-28T15:02:02.183Z</time></trkpt><trkpt lat="43.5250358" lon="11.3858528"><ele>705.0</ele><time>2026-03-28T15:02:03.183Z</time></trkpt><trkpt lat="43.5250978" lon="11.385712"><ele>707.0</ele><time>2026-03-28T15:02:04.183Z</time></trkpt><trkpt lat="43.5251764" lon="11.3855847"><ele>709.0</ele><time>2026-03-28T15:02:05.184Z</time></trkpt><trkpt lat="43.5252687" lon="11.3854584"><ele>711.0</ele><time>2026-03-28T15:02:06.183Z</time></trkpt><trkpt lat="43.5253713" lon="11.3853444"><ele>712.25</ele><time>2026-03-28T15:02:07.183Z</time></trkpt><trkpt lat="43.525487" lon="11.3852552"><ele>713.5</ele><time>2026-03-28T15:02:08.183Z</time></trkpt><trkpt lat="43.525607" lon="11.3851767"><ele>714.75</ele><time>2026-03-28T15:02:09.184Z</time></trkpt><trkpt lat="43.5257268" lon="11.3850923"><ele>716.0</ele><time>2026-03-28T15:02:10.184Z</time></trkpt><trkpt lat="43.5258337" lon="11.3850091"><ele>716.0</ele><time>2026-03-28T15:02:11.184Z</time></trkpt><trkpt lat="43.5259172" lon="11.3849165"><ele>716.0</ele><time>2026-03-28T15:02:12.183Z</time></trkpt><trkpt lat="43.5259994" lon="11.3848206"><ele>716.0</ele><time>2026-03-28T15:02:13.183Z</time></trkpt><trkpt lat="43.5260353" lon="11.3846867"><ele>716.0</ele><time>2026-03-28T15:02:14.183Z</time></trkpt><trkpt lat="43.5260857" lon="11.3845334"><ele>716.0</ele><time>2026-03-28T15:02:15.183Z</time></trkpt><trkpt lat="43.5261275" lon="11.3843631"><ele>715.75</ele><time>2026-03-28T15:02:16.184Z</time></trkpt><trkpt lat="43.5261551" lon="11.3841825"><ele>715.5</ele><time>2026-03-28T15:02:17.184Z</time></trkpt><trkpt lat="43.5261741" lon="11.3840024"><ele>715.25</ele><time>2026-03-28T15:02:18.183Z</time></trkpt><trkpt lat="43.5261826" lon="11.383832"><ele>715.0</ele><time>2026-03-28T15:02:19.184Z</time></trkpt><trkpt lat="43.5261933" lon="11.3836845"><ele>715.4285714285714</ele><time>2026-03-28T15:02:20.184Z</time></trkpt><trkpt lat="43.52621" lon="11.3835511"><ele>715.8571428571428</ele><time>2026-03-28T15:02:21.183Z</time></trkpt><trkpt lat="43.5262389" lon="11.3834592"><ele>716.2857142857142</ele><time>2026-03-28T15:02:22.183Z</time></trkpt><trkpt lat="43.5262815" lon="11.3833938"><ele>716.7142857142858</ele><time>2026-03-28T15:02:23.184Z</time></trkpt><trkpt lat="43.5263408" lon="11.3833566"><ele>717.1428571428571</ele><time>2026-03-28T15:02:24.183Z</time></trkpt><trkpt lat="43.5264056" lon="11.3833579"><ele>717.5714285714286</ele><time>2026-03-28T15:02:25.183Z</time></trkpt><trkpt lat="43.5264778" lon="11.3833791"><ele>718.0</ele><time>2026-03-28T15:02:26.184Z</time></trkpt><trkpt lat="43.5265601" lon="11.3834127"><ele>718.0</ele><time>2026-03-28T15:02:27.183Z</time></trkpt><trkpt lat="43.5266539" lon="11.3834583"><ele>718.0</ele><time>2026-03-28T15:02:28.184Z</time></trkpt><trkpt lat="43.5267428" lon="11.3835016"><ele>718.0</ele><time>2026-03-28T15:02:29.184Z</time></trkpt><trkpt lat="43.5268324" lon="11.3835427"><ele>718.0</ele><time>2026-03-28T15:02:30.183Z</time></trkpt><trkpt lat="43.5269111" lon="11.3835504"><ele>718.0</ele><time>2026-03-28T15:02:31.183Z</time></trkpt><trkpt lat="43.5269812" lon="11.3835554"><ele>718.0</ele><time>2026-03-28T15:02:32.183Z</time></trkpt><trkpt lat="43.5270691" lon="11.3835597"><ele>718.8333333333334</ele><time>2026-03-28T15:02:34.183Z</time></trkpt><trkpt lat="43.5271518" lon="11.3835202"><ele>719.6666666666667</ele><time>2026-03-28T15:02:44.183Z</time></trkpt><trkpt lat="43.527255" lon="11.383457"><ele>720.5</ele><time>2026-03-28T15:02:46.184Z</time></trkpt><trkpt lat="43.5273109" lon="11.3834018"><ele>721.3333333333334</ele><time>2026-03-28T15:02:47.184Z</time></trkpt><trkpt lat="43.5273639" lon="11.3833222"><ele>722.1666666666666</ele><time>2026-03-28T15:02:48.183Z</time></trkpt><trkpt lat="43.5274125" lon="11.3832351"><ele>723.0</ele><time>2026-03-28T15:02:49.183Z</time></trkpt><trkpt lat="43.527448" lon="11.3831406"><ele>723.0</ele><time>2026-03-28T15:02:50.183Z</time></trkpt><trkpt lat="43.5274586" lon="11.383039"><ele>723.0</ele><time>2026-03-28T15:02:51.183Z</time></trkpt><trkpt lat="43.5274557" lon="11.3829345"><ele>723.0</ele><time>2026-03-28T15:02:52.183Z</time></trkpt><trkpt lat="43.5274133" lon="11.3828161"><ele>723.0</ele><time>2026-03-28T15:02:53.184Z</time></trkpt><trkpt lat="43.5273722" lon="11.3826874"><ele>723.0</ele><time>2026-03-28T15:02:54.184Z</time></trkpt><trkpt lat="43.5273366" lon="11.3825642"><ele>723.0</ele><time>2026-03-28T15:02:55.184Z</time></trkpt><trkpt lat="43.5273285" lon="11.3824544"><ele>723.4</ele><time>2026-03-28T15:02:56.183Z</time></trkpt><trkpt lat="43.5273488" lon="11.3823358"><ele>723.8</ele><time>2026-03-28T15:02:57.183Z</time></trkpt><trkpt lat="43.5273993" lon="11.3822278"><ele>724.2</ele><time>2026-03-28T15:02:58.184Z</time></trkpt><trkpt lat="43.5274713" lon="11.3821329"><ele>724.6</ele><time>2026-03-28T15:02:59.184Z</time></trkpt><trkpt lat="43.5275473" lon="11.3820326"><ele>725.0</ele><time>2026-03-28T15:03:00.184Z</time></trkpt><trkpt lat="43.5276229" lon="11.3819226"><ele>725.0</ele><time>2026-03-28T15:03:01.184Z</time></trkpt><trkpt lat="43.527697" lon="11.3817967"><ele>725.0</ele><time>2026-03-28T15:03:02.183Z</time></trkpt><trkpt lat="43.5277722" lon="11.3816599"><ele>725.0</ele><time>2026-03-28T15:03:03.184Z</time></trkpt><trkpt lat="43.5278432" lon="11.3815341"><ele>725.0</ele><time>2026-03-28T15:03:04.184Z</time></trkpt><trkpt lat="43.5279231" lon="11.3814071"><ele>729.75</ele><time>2026-03-28T15:03:05.183Z</time></trkpt><trkpt lat="43.5280005" lon="11.3812755"><ele>734.5</ele><time>2026-03-28T15:03:06.183Z</time></trkpt><trkpt lat="43.528072" lon="11.3811403"><ele>739.25</ele><time>2026-03-28T15:03:07.183Z</time></trkpt><trkpt lat="43.5281448" lon="11.3810011"><ele>744.0</ele><time>2026-03-28T15:03:08.184Z</time></trkpt><trkpt lat="43.5282172" lon="11.3808787"><ele>744.0</ele><time>2026-03-28T15:03:09.183Z</time></trkpt><trkpt lat="43.5282998" lon="11.380777"><ele>744.0</ele><time>2026-03-28T15:03:10.183Z</time></trkpt><trkpt lat="43.5283938" lon="11.3807023"><ele>744.0</ele><time>2026-03-28T15:03:11.183Z</time></trkpt><trkpt lat="43.5284895" lon="11.380653"><ele>744.0</ele><time>2026-03-28T15:03:12.184Z</time></trkpt><trkpt lat="43.5285816" lon="11.3806317"><ele>744.0</ele><time>2026-03-28T15:03:13.183Z</time></trkpt><trkpt lat="43.5286651" lon="11.3806115"><ele>746.2</ele><time>2026-03-28T15:03:14.183Z</time></trkpt><trkpt lat="43.5287264" lon="11.3805675"><ele>748.4000000000001</ele><time>2026-03-28T15:03:15.183Z</time></trkpt><trkpt lat="43.528768" lon="11.3804951"><ele>750.6</ele><time>2026-03-28T15:03:16.183Z</time></trkpt><trkpt lat="43.5287506" lon="11.3803411"><ele>752.8</ele><time>2026-03-28T15:03:18.183Z</time></trkpt><trkpt lat="43.5286658" lon="11.3802074"><ele>755.0</ele><time>2026-03-28T15:03:20.182Z</time></trkpt><trkpt lat="43.5286018" lon="11.3801396"><ele>755.0</ele><time>2026-03-28T15:03:21.183Z</time></trkpt><trkpt lat="43.5285347" lon="11.380059"><ele>755.0</ele><time>2026-03-28T15:03:22.183Z</time></trkpt><trkpt lat="43.5284569" lon="11.3799781"><ele>755.0</ele><time>2026-03-28T15:03:23.182Z</time></trkpt><trkpt lat="43.528363" lon="11.3799095"><ele>755.0</ele><time>2026-03-28T15:03:24.183Z</time></trkpt><trkpt lat="43.5282552" lon="11.3798693"><ele>755.0</ele><time>2026-03-28T15:03:25.184Z</time></trkpt><trkpt lat="43.5281375" lon="11.3798572"><ele>755.0</ele><time>2026-03-28T15:03:26.184Z</time></trkpt><trkpt lat="43.5280185" lon="11.3798491"><ele>755.0</ele><time>2026-03-28T15:03:27.183Z</time></trkpt><trkpt lat="43.5279079" lon="11.3798143"><ele>755.0</ele><time>2026-03-28T15:03:28.183Z</time></trkpt><trkpt lat="43.5278093" lon="11.3797486"><ele>755.0</ele><time>2026-03-28T15:03:29.183Z</time></trkpt><trkpt lat="43.5277175" lon="11.3797032"><ele>755.0</ele><time>2026-03-28T15:03:30.183Z</time></trkpt><trkpt lat="43.5276223" lon="11.3797025"><ele>754.3333333333333</ele><time>2026-03-28T15:03:31.184Z</time></trkpt><trkpt lat="43.5275308" lon="11.3797268"><ele>753.6666666666666</ele><time>2026-03-28T15:03:32.183Z</time></trkpt><trkpt lat="43.5274442" lon="11.3797525"><ele>753.0</ele><time>2026-03-28T15:03:33.184Z</time></trkpt><trkpt lat="43.5273669" lon="11.3797306"><ele>752.3333333333334</ele><time>2026-03-28T15:03:34.184Z</time></trkpt><trkpt lat="43.5272973" lon="11.379676"><ele>751.6666666666667</ele><time>2026-03-28T15:03:35.183Z</time></trkpt><trkpt lat="43.5272436" lon="11.3795953"><ele>751.0</ele><time>2026-03-28T15:03:36.183Z</time></trkpt><trkpt lat="43.5271904" lon="11.3795012"><ele>750.8</ele><time>2026-03-28T15:03:37.183Z</time></trkpt><trkpt lat="43.5271451" lon="11.3793889"><ele>750.5999999999999</ele><time>2026-03-28T15:03:38.184Z</time></trkpt><trkpt lat="43.5270963" lon="11.3792666"><ele>750.4</ele><time>2026-03-28T15:03:39.183Z</time></trkpt><trkpt lat="43.5270514" lon="11.3791337"><ele>750.2</ele><time>2026-03-28T15:03:40.183Z</time></trkpt><trkpt lat="43.527025" lon="11.3789819"><ele>750.0</ele><time>2026-03-28T15:03:41.183Z</time></trkpt><trkpt lat="43.527009" lon="11.378814"><ele>752.75</ele><time>2026-03-28T15:03:42.183Z</time></trkpt><trkpt lat="43.5269834" lon="11.3786387"><ele>755.5</ele><time>2026-03-28T15:03:43.183Z</time></trkpt><trkpt lat="43.5269351" lon="11.3784625"><ele>758.25</ele><time>2026-03-28T15:03:44.184Z</time></trkpt><trkpt lat="43.5268701" lon="11.3783015"><ele>761.0</ele><time>2026-03-28T15:03:45.184Z</time></trkpt><trkpt lat="43.5268025" lon="11.3781676"><ele>761.0</ele><time>2026-03-28T15:03:46.183Z</time></trkpt><trkpt lat="43.5267437" lon="11.3780443"><ele>761.0</ele><time>2026-03-28T15:03:47.183Z</time></trkpt><trkpt lat="43.5267047" lon="11.3779213"><ele>761.0</ele><time>2026-03-28T15:03:48.183Z</time></trkpt><trkpt lat="43.5266862" lon="11.3777917"><ele>761.0</ele><time>2026-03-28T15:03:49.183Z</time></trkpt><trkpt lat="43.5266987" lon="11.3776769"><ele>761.0</ele><time>2026-03-28T15:03:50.183Z</time></trkpt><trkpt lat="43.5267431" lon="11.3775622"><ele>761.0</ele><time>2026-03-28T15:03:51.184Z</time></trkpt><trkpt lat="43.5268124" lon="11.3774454"><ele>761.0</ele><time>2026-03-28T15:03:52.184Z</time></trkpt><trkpt lat="43.5269003" lon="11.3773267"><ele>761.0</ele><time>2026-03-28T15:03:53.183Z</time></trkpt><trkpt lat="43.5269902" lon="11.3771866"><ele>761.0</ele><time>2026-03-28T15:03:54.184Z</time></trkpt><trkpt lat="43.5270631" lon="11.3770408"><ele>763.1999999999999</ele><time>2026-03-28T15:03:55.183Z</time></trkpt><trkpt lat="43.5271438" lon="11.3769299"><ele>765.4</ele><time>2026-03-28T15:03:56.184Z</time></trkpt><trkpt lat="43.5272289" lon="11.3768346"><ele>767.6</ele><time>2026-03-28T15:03:57.184Z</time></trkpt><trkpt lat="43.5272871" lon="11.376728"><ele>769.8</ele><time>2026-03-28T15:03:58.183Z</time></trkpt><trkpt lat="43.5273247" lon="11.3765966"><ele>772.0</ele><time>2026-03-28T15:03:59.183Z</time></trkpt><trkpt lat="43.5273293" lon="11.3764785"><ele>772.0</ele><time>2026-03-28T15:04:00.184Z</time></trkpt><trkpt lat="43.5272921" lon="11.3763571"><ele>772.0</ele><time>2026-03-28T15:04:01.183Z</time></trkpt><trkpt lat="43.527234" lon="11.3762435"><ele>772.0</ele><time>2026-03-28T15:04:02.183Z</time></trkpt><trkpt lat="43.5271516" lon="11.3761464"><ele>772.0</ele><time>2026-03-28T15:04:03.183Z</time></trkpt><trkpt lat="43.5270463" lon="11.3760502"><ele>772.0</ele><time>2026-03-28T15:04:04.183Z</time></trkpt><trkpt lat="43.5269299" lon="11.3759461"><ele>768.8</ele><time>2026-03-28T15:04:05.183Z</time></trkpt><trkpt lat="43.5268332" lon="11.3758535"><ele>765.6</ele><time>2026-03-28T15:04:06.183Z</time></trkpt><trkpt lat="43.5267577" lon="11.3757553"><ele>762.4</ele><time>2026-03-28T15:04:07.183Z</time></trkpt><trkpt lat="43.5267072" lon="11.3756374"><ele>759.1999999999999</ele><time>2026-03-28T15:04:08.184Z</time></trkpt><trkpt lat="43.5266917" lon="11.375514"><ele>756.0</ele><time>2026-03-28T15:04:09.184Z</time></trkpt><trkpt lat="43.5267113" lon="11.3753844"><ele>755.5999999999999</ele><time>2026-03-28T15:04:10.184Z</time></trkpt><trkpt lat="43.5267594" lon="11.3752854"><ele>755.2</ele><time>2026-03-28T15:04:11.183Z</time></trkpt><trkpt lat="43.5268319" lon="11.3752028"><ele>754.8</ele><time>2026-03-28T15:04:12.183Z</time></trkpt><trkpt lat="43.5269278" lon="11.3751423"><ele>754.4000000000001</ele><time>2026-03-28T15:04:13.184Z</time></trkpt><trkpt lat="43.5270359" lon="11.375117"><ele>754.0</ele><time>2026-03-28T15:04:14.184Z</time></trkpt><trkpt lat="43.5271513" lon="11.3751268"><ele>753.25</ele><time>2026-03-28T15:04:15.183Z</time></trkpt><trkpt lat="43.5272667" lon="11.3751755"><ele>752.5</ele><time>2026-03-28T15:04:16.183Z</time></trkpt><trkpt lat="43.5273935" lon="11.3752519"><ele>751.75</ele><time>2026-03-28T15:04:17.183Z</time></trkpt><trkpt lat="43.5275202" lon="11.3753141"><ele>751.0</ele><time>2026-03-28T15:04:18.184Z</time></trkpt><trkpt lat="43.527646" lon="11.375361"><ele>751.0</ele><time>2026-03-28T15:04:19.183Z</time></trkpt><trkpt lat="43.5277658" lon="11.3753946"><ele>751.0</ele><time>2026-03-28T15:04:20.184Z</time></trkpt><trkpt lat="43.5278854" lon="11.3754344"><ele>751.0</ele><time>2026-03-28T15:04:21.184Z</time></trkpt><trkpt lat="43.5279972" lon="11.3754865"><ele>751.0</ele><time>2026-03-28T15:04:22.183Z</time></trkpt><trkpt lat="43.5280953" lon="11.3755454"><ele>752.3333333333334</ele><time>2026-03-28T15:04:23.184Z</time></trkpt><trkpt lat="43.5281793" lon="11.3756056"><ele>753.6666666666667</ele><time>2026-03-28T15:04:24.183Z</time></trkpt><trkpt lat="43.5282606" lon="11.3756491"><ele>755.0</ele><time>2026-03-28T15:04:25.184Z</time></trkpt><trkpt lat="43.5283469" lon="11.3756554"><ele>756.3333333333334</ele><time>2026-03-28T15:04:26.184Z</time></trkpt><trkpt lat="43.5284208" lon="11.3756181"><ele>757.6666666666666</ele><time>2026-03-28T15:04:27.183Z</time></trkpt><trkpt lat="43.5284678" lon="11.3755518"><ele>759.0</ele><time>2026-03-28T15:04:28.183Z</time></trkpt><trkpt lat="43.5284897" lon="11.3754655"><ele>759.0</ele><time>2026-03-28T15:04:29.183Z</time></trkpt><trkpt lat="43.5284775" lon="11.3753724"><ele>759.0</ele><time>2026-03-28T15:04:30.183Z</time></trkpt><trkpt lat="43.5284447" lon="11.3752797"><ele>759.0</ele><time>2026-03-28T15:04:31.184Z</time></trkpt><trkpt lat="43.5283939" lon="11.3751804"><ele>759.0</ele><time>2026-03-28T15:04:32.183Z</time></trkpt><trkpt lat="43.5283353" lon="11.3750783"><ele>759.0</ele><time>2026-03-28T15:04:33.184Z</time></trkpt><trkpt lat="43.5282725" lon="11.3749616"><ele>759.0</ele><time>2026-03-28T15:04:34.183Z</time></trkpt><trkpt lat="43.5282092" lon="11.3748281"><ele>760.25</ele><time>2026-03-28T15:04:35.184Z</time></trkpt><trkpt lat="43.5281529" lon="11.3746745"><ele>761.5</ele><time>2026-03-28T15:04:36.183Z</time></trkpt><trkpt lat="43.5281052" lon="11.3745003"><ele>762.75</ele><time>2026-03-28T15:04:37.183Z</time></trkpt><trkpt lat="43.5280541" lon="11.374314"><ele>764.0</ele><time>2026-03-28T15:04:38.184Z</time></trkpt><trkpt lat="43.527998" lon="11.3741414"><ele>764.0</ele><time>2026-03-28T15:04:39.184Z</time></trkpt><trkpt lat="43.527941" lon="11.3739678"><ele>764.0</ele><time>2026-03-28T15:04:40.183Z</time></trkpt><trkpt lat="43.5278967" lon="11.3738006"><ele>764.0</ele><time>2026-03-28T15:04:41.183Z</time></trkpt><trkpt lat="43.5278576" lon="11.37363"><ele>764.0</ele><time>2026-03-28T15:04:42.183Z</time></trkpt><trkpt lat="43.5278013" lon="11.3734773"><ele>761.25</ele><time>2026-03-28T15:04:43.183Z</time></trkpt><trkpt lat="43.5277419" lon="11.3733294"><ele>758.5</ele><time>2026-03-28T15:04:44.184Z</time></trkpt><trkpt lat="43.5276972" lon="11.3731669"><ele>755.75</ele><time>2026-03-28T15:04:45.183Z</time></trkpt><trkpt lat="43.5276677" lon="11.3729916"><ele>753.0</ele><time>2026-03-28T15:04:46.183Z</time></trkpt><trkpt lat="43.5276537" lon="11.3728057"><ele>753.0</ele><time>2026-03-28T15:04:47.184Z</time></trkpt><trkpt lat="43.527621" lon="11.3726367"><ele>753.0</ele><time>2026-03-28T15:04:48.184Z</time></trkpt><trkpt lat="43.5275705" lon="11.3724955"><ele>753.0</ele><time>2026-03-28T15:04:49.183Z</time></trkpt><trkpt lat="43.5274897" lon="11.3723669"><ele>753.0</ele><time>2026-03-28T15:04:50.183Z</time></trkpt><trkpt lat="43.5273982" lon="11.3722494"><ele>752.8</ele><time>2026-03-28T15:04:51.183Z</time></trkpt><trkpt lat="43.5273102" lon="11.3721443"><ele>752.5999999999999</ele><time>2026-03-28T15:04:52.183Z</time></trkpt><trkpt lat="43.527233" lon="11.3720509"><ele>752.4000000000001</ele><time>2026-03-28T15:04:53.183Z</time></trkpt><trkpt lat="43.5271608" lon="11.3719639"><ele>752.2</ele><time>2026-03-28T15:04:54.184Z</time></trkpt><trkpt lat="43.5270912" lon="11.3718854"><ele>752.0</ele><time>2026-03-28T15:04:55.183Z</time></trkpt><trkpt lat="43.5270265" lon="11.3718092"><ele>750.5</ele><time>2026-03-28T15:04:56.183Z</time></trkpt><trkpt lat="43.5269745" lon="11.3717236"><ele>749.0</ele><time>2026-03-28T15:04:57.184Z</time></trkpt><trkpt lat="43.5269468" lon="11.3716318"><ele>747.5</ele><time>2026-03-28T15:04:58.182Z</time></trkpt><trkpt lat="43.5269449" lon="11.3715307"><ele>746.0</ele><time>2026-03-28T15:04:59.183Z</time></trkpt><trkpt lat="43.5269678" lon="11.3714189"><ele>744.5</ele><time>2026-03-28T15:05:00.183Z</time></trkpt><trkpt lat="43.5270163" lon="11.3713111"><ele>743.0</ele><time>2026-03-28T15:05:01.183Z</time></trkpt><trkpt lat="43.527082" lon="11.3711957"><ele>743.0</ele><time>2026-03-28T15:05:02.184Z</time></trkpt><trkpt lat="43.527144" lon="11.3710819"><ele>743.0</ele><time>2026-03-28T15:05:03.184Z</time></trkpt><trkpt lat="43.5272006" lon="11.3709758"><ele>743.0</ele><time>2026-03-28T15:05:04.184Z</time></trkpt><trkpt lat="43.5272445" lon="11.3708654"><ele>743.0</ele><time>2026-03-28T15:05:05.183Z</time></trkpt><trkpt lat="43.5272684" lon="11.3707512"><ele>743.0</ele><time>2026-03-28T15:05:06.184Z</time></trkpt><trkpt lat="43.5272695" lon="11.3706297"><ele>741.2</ele><time>2026-03-28T15:05:07.183Z</time></trkpt><trkpt lat="43.5272436" lon="11.3705081"><ele>739.4</ele><time>2026-03-28T15:05:08.183Z</time></trkpt><trkpt lat="43.5271927" lon="11.3703877"><ele>737.6</ele><time>2026-03-28T15:05:09.184Z</time></trkpt><trkpt lat="43.5271229" lon="11.3702707"><ele>735.8000000000001</ele><time>2026-03-28T15:05:10.183Z</time></trkpt><trkpt lat="43.5270433" lon="11.3701573"><ele>734.0</ele><time>2026-03-28T15:05:11.184Z</time></trkpt><trkpt lat="43.5269313" lon="11.3701236"><ele>734.0</ele><time>2026-03-28T15:05:12.183Z</time></trkpt><trkpt lat="43.5268425" lon="11.3700518"><ele>734.0</ele><time>2026-03-28T15:05:13.183Z</time></trkpt><trkpt lat="43.526756" lon="11.3699751"><ele>734.0</ele><time>2026-03-28T15:05:14.184Z</time></trkpt><trkpt lat="43.5266804" lon="11.3698882"><ele>734.0</ele><time>2026-03-28T15:05:15.183Z</time></trkpt><trkpt lat="43.526618" lon="11.3697869"><ele>734.0</ele><time>2026-03-28T15:05:16.183Z</time></trkpt><trkpt lat="43.526561" lon="11.3696639"><ele>732.5</ele><time>2026-03-28T15:05:17.184Z</time></trkpt><trkpt lat="43.5265196" lon="11.3695119"><ele>731.0</ele><time>2026-03-28T15:05:18.184Z</time></trkpt><trkpt lat="43.5264849" lon="11.3693479"><ele>729.5</ele><time>2026-03-28T15:05:19.183Z</time></trkpt><trkpt lat="43.5264453" lon="11.3691915"><ele>728.0</ele><time>2026-03-28T15:05:20.183Z</time></trkpt><trkpt lat="43.5264056" lon="11.3690413"><ele>728.0</ele><time>2026-03-28T15:05:21.184Z</time></trkpt><trkpt lat="43.526362" lon="11.3688947"><ele>728.0</ele><time>2026-03-28T15:05:22.184Z</time></trkpt><trkpt lat="43.526308" lon="11.3687636"><ele>728.0</ele><time>2026-03-28T15:05:23.182Z</time></trkpt><trkpt lat="43.5262222" lon="11.3686384"><ele>728.0</ele><time>2026-03-28T15:05:24.183Z</time></trkpt><trkpt lat="43.5261288" lon="11.3685219"><ele>725.0</ele><time>2026-03-28T15:05:25.184Z</time></trkpt><trkpt lat="43.526033" lon="11.3684062"><ele>722.0</ele><time>2026-03-28T15:05:26.183Z</time></trkpt><trkpt lat="43.5259306" lon="11.368295"><ele>719.0</ele><time>2026-03-28T15:05:27.183Z</time></trkpt><trkpt lat="43.5258253" lon="11.3681809"><ele>716.0</ele><time>2026-03-28T15:05:28.183Z</time></trkpt><trkpt lat="43.5257288" lon="11.3680793"><ele>715.8</ele><time>2026-03-28T15:05:29.184Z</time></trkpt><trkpt lat="43.5256377" lon="11.3679839"><ele>715.5999999999999</ele><time>2026-03-28T15:05:30.183Z</time></trkpt><trkpt lat="43.5255696" lon="11.3678835"><ele>715.4</ele><time>2026-03-28T15:05:31.184Z</time></trkpt><trkpt lat="43.525527" lon="11.3677695"><ele>715.2</ele><time>2026-03-28T15:05:32.182Z</time></trkpt><trkpt lat="43.5255153" lon="11.3676493"><ele>715.0</ele><time>2026-03-28T15:05:33.183Z</time></trkpt><trkpt lat="43.5255285" lon="11.3675207"><ele>715.0</ele><time>2026-03-28T15:05:34.183Z</time></trkpt><trkpt lat="43.5255762" lon="11.367417"><ele>715.0</ele><time>2026-03-28T15:05:35.183Z</time></trkpt><trkpt lat="43.5256443" lon="11.3673384"><ele>715.0</ele><time>2026-03-28T15:05:36.184Z</time></trkpt><trkpt lat="43.5257377" lon="11.3672926"><ele>715.0</ele><time>2026-03-28T15:05:37.183Z</time></trkpt><trkpt lat="43.5258386" lon="11.3672811"><ele>715.0</ele><time>2026-03-28T15:05:38.183Z</time></trkpt><trkpt lat="43.525935" lon="11.3673205"><ele>715.0</ele><time>2026-03-28T15:05:39.184Z</time></trkpt><trkpt lat="43.5260316" lon="11.3673955"><ele>715.0</ele><time>2026-03-28T15:05:40.183Z</time></trkpt><trkpt lat="43.52613" lon="11.3674954"><ele>715.0</ele><time>2026-03-28T15:05:41.183Z</time></trkpt><trkpt lat="43.5262187" lon="11.3675918"><ele>715.0</ele><time>2026-03-28T15:05:42.183Z</time></trkpt><trkpt lat="43.5263039" lon="11.3676849"><ele>714.0</ele><time>2026-03-28T15:05:43.183Z</time></trkpt><trkpt lat="43.5263829" lon="11.3677761"><ele>713.0</ele><time>2026-03-28T15:05:44.184Z</time></trkpt><trkpt lat="43.5264613" lon="11.3678546"><ele>712.0</ele><time>2026-03-28T15:05:45.183Z</time></trkpt><trkpt lat="43.5265401" lon="11.3679019"><ele>711.0</ele><time>2026-03-28T15:05:46.182Z</time></trkpt><trkpt lat="43.5266218" lon="11.3679268"><ele>710.0</ele><time>2026-03-28T15:05:47.183Z</time></trkpt><trkpt lat="43.5267071" lon="11.3679162"><ele>710.0</ele><time>2026-03-28T15:05:48.183Z</time></trkpt><trkpt lat="43.5267884" lon="11.3678706"><ele>710.0</ele><time>2026-03-28T15:05:49.183Z</time></trkpt><trkpt lat="43.5268728" lon="11.3678139"><ele>710.0</ele><time>2026-03-28T15:05:50.184Z</time></trkpt><trkpt lat="43.5269138" lon="11.3676881"><ele>710.0</ele><time>2026-03-28T15:05:51.183Z</time></trkpt><trkpt lat="43.5269391" lon="11.3675757"><ele>710.0</ele><time>2026-03-28T15:05:52.184Z</time></trkpt><trkpt lat="43.5269329" lon="11.3674549"><ele>710.0</ele><time>2026-03-28T15:05:53.184Z</time></trkpt><trkpt lat="43.5268949" lon="11.3673366"><ele>710.0</ele><time>2026-03-28T15:05:54.183Z</time></trkpt><trkpt lat="43.5268396" lon="11.3672287"><ele>710.0</ele><time>2026-03-28T15:05:55.183Z</time></trkpt><trkpt lat="43.5267774" lon="11.3671106"><ele>710.0</ele><time>2026-03-28T15:05:56.183Z</time></trkpt><trkpt lat="43.5267081" lon="11.3669832"><ele>710.0</ele><time>2026-03-28T15:05:57.183Z</time></trkpt><trkpt lat="43.526627" lon="11.3668437"><ele>709.5</ele><time>2026-03-28T15:05:58.183Z</time></trkpt><trkpt lat="43.5265491" lon="11.3667154"><ele>709.0</ele><time>2026-03-28T15:05:59.183Z</time></trkpt><trkpt lat="43.5264798" lon="11.3665827"><ele>708.5</ele><time>2026-03-28T15:06:00.184Z</time></trkpt><trkpt lat="43.5264252" lon="11.366438"><ele>708.0</ele><time>2026-03-28T15:06:01.183Z</time></trkpt><trkpt lat="43.5263918" lon="11.3662951"><ele>707.25</ele><time>2026-03-28T15:06:02.183Z</time></trkpt><trkpt lat="43.5263873" lon="11.3661364"><ele>706.5</ele><time>2026-03-28T15:06:03.184Z</time></trkpt><trkpt lat="43.5264054" lon="11.3659721"><ele>705.75</ele><time>2026-03-28T15:06:04.183Z</time></trkpt><trkpt lat="43.5264398" lon="11.3658114"><ele>705.0</ele><time>2026-03-28T15:06:05.183Z</time></trkpt><trkpt lat="43.5264773" lon="11.3656518"><ele>704.2</ele><time>2026-03-28T15:06:06.183Z</time></trkpt><trkpt lat="43.52652" lon="11.3655128"><ele>703.4</ele><time>2026-03-28T15:06:07.182Z</time></trkpt><trkpt lat="43.5265524" lon="11.3653821"><ele>702.5999999999999</ele><time>2026-03-28T15:06:08.183Z</time></trkpt><trkpt lat="43.5265825" lon="11.3652517"><ele>701.8</ele><time>2026-03-28T15:06:09.184Z</time></trkpt><trkpt lat="43.5265937" lon="11.3651162"><ele>701.0</ele><time>2026-03-28T15:06:10.183Z</time></trkpt><trkpt lat="43.5265716" lon="11.3649686"><ele>701.0</ele><time>2026-03-28T15:06:11.183Z</time></trkpt><trkpt lat="43.5265377" lon="11.364822"><ele>701.0</ele><time>2026-03-28T15:06:12.184Z</time></trkpt><trkpt lat="43.5264776" lon="11.364686"><ele>701.0</ele><time>2026-03-28T15:06:13.183Z</time></trkpt><trkpt lat="43.5264094" lon="11.3645598"><ele>701.0</ele><time>2026-03-28T15:06:14.183Z</time></trkpt><trkpt lat="43.526339" lon="11.3644475"><ele>701.0</ele><time>2026-03-28T15:06:15.184Z</time></trkpt><trkpt lat="43.5262676" lon="11.3643204"><ele>699.0</ele><time>2026-03-28T15:06:16.183Z</time></trkpt><trkpt lat="43.5261965" lon="11.3641827"><ele>697.0</ele><time>2026-03-28T15:06:17.183Z</time></trkpt><trkpt lat="43.5261316" lon="11.3640322"><ele>695.0</ele><time>2026-03-28T15:06:18.184Z</time></trkpt><trkpt lat="43.5260851" lon="11.3638618"><ele>693.0</ele><time>2026-03-28T15:06:19.183Z</time></trkpt><trkpt lat="43.5260497" lon="11.3636748"><ele>693.0</ele><time>2026-03-28T15:06:20.183Z</time></trkpt><trkpt lat="43.5260233" lon="11.3634811"><ele>693.0</ele><time>2026-03-28T15:06:21.183Z</time></trkpt><trkpt lat="43.5260017" lon="11.3632999"><ele>693.0</ele><time>2026-03-28T15:06:22.183Z</time></trkpt><trkpt lat="43.5259751" lon="11.3631073"><ele>693.0</ele><time>2026-03-28T15:06:23.183Z</time></trkpt><trkpt lat="43.5259602" lon="11.3629225"><ele>693.0</ele><time>2026-03-28T15:06:24.184Z</time></trkpt><trkpt lat="43.5259415" lon="11.3627364"><ele>693.0</ele><time>2026-03-28T15:06:25.183Z</time></trkpt><trkpt lat="43.5259255" lon="11.3625446"><ele>693.0</ele><time>2026-03-28T15:06:26.183Z</time></trkpt><trkpt lat="43.5259104" lon="11.362356"><ele>693.0</ele><time>2026-03-28T15:06:27.184Z</time></trkpt><trkpt lat="43.5258943" lon="11.3621766"><ele>693.0</ele><time>2026-03-28T15:06:28.183Z</time></trkpt><trkpt lat="43.5258773" lon="11.3620112"><ele>693.0</ele><time>2026-03-28T15:06:29.184Z</time></trkpt><trkpt lat="43.52586" lon="11.3618505"><ele>693.0</ele><time>2026-03-28T15:06:30.184Z</time></trkpt><trkpt lat="43.5258427" lon="11.3616934"><ele>693.0</ele><time>2026-03-28T15:06:31.184Z</time></trkpt><trkpt lat="43.5258306" lon="11.3615377"><ele>693.0</ele><time>2026-03-28T15:06:32.184Z</time></trkpt><trkpt lat="43.5258168" lon="11.3613881"><ele>693.0</ele><time>2026-03-28T15:06:33.184Z</time></trkpt><trkpt lat="43.5258095" lon="11.361227"><ele>693.0</ele><time>2026-03-28T15:06:34.183Z</time></trkpt><trkpt lat="43.5258094" lon="11.3610739"><ele>693.0</ele><time>2026-03-28T15:06:35.184Z</time></trkpt><trkpt lat="43.5258248" lon="11.3609233"><ele>693.0</ele><time>2026-03-28T15:06:36.184Z</time></trkpt><trkpt lat="43.5258616" lon="11.3607912"><ele>692.4</ele><time>2026-03-28T15:06:37.183Z</time></trkpt><trkpt lat="43.5259116" lon="11.3606717"><ele>691.8</ele><time>2026-03-28T15:06:38.184Z</time></trkpt><trkpt lat="43.5259772" lon="11.3605546"><ele>691.2</ele><time>2026-03-28T15:06:39.183Z</time></trkpt><trkpt lat="43.5260538" lon="11.3604371"><ele>690.6</ele><time>2026-03-28T15:06:40.183Z</time></trkpt><trkpt lat="43.5261375" lon="11.3603145"><ele>690.0</ele><time>2026-03-28T15:06:41.184Z</time></trkpt><trkpt lat="43.5262261" lon="11.3601887"><ele>688.75</ele><time>2026-03-28T15:06:42.183Z</time></trkpt><trkpt lat="43.5263144" lon="11.3600563"><ele>687.5</ele><time>2026-03-28T15:06:43.183Z</time></trkpt><trkpt lat="43.5264053" lon="11.3599175"><ele>686.25</ele><time>2026-03-28T15:06:44.182Z</time></trkpt><trkpt lat="43.5264996" lon="11.3597748"><ele>685.0</ele><time>2026-03-28T15:06:45.183Z</time></trkpt><trkpt lat="43.5266053" lon="11.3596346"><ele>687.75</ele><time>2026-03-28T15:06:46.183Z</time></trkpt><trkpt lat="43.5267165" lon="11.3595036"><ele>690.5</ele><time>2026-03-28T15:06:47.183Z</time></trkpt><trkpt lat="43.5268244" lon="11.3593876"><ele>693.25</ele><time>2026-03-28T15:06:48.184Z</time></trkpt><trkpt lat="43.5269304" lon="11.3592844"><ele>696.0</ele><time>2026-03-28T15:06:49.183Z</time></trkpt><trkpt lat="43.5270369" lon="11.359192"><ele>691.5</ele><time>2026-03-28T15:06:50.183Z</time></trkpt><trkpt lat="43.5271424" lon="11.3590943"><ele>687.0</ele><time>2026-03-28T15:06:51.184Z</time></trkpt><trkpt lat="43.5272378" lon="11.3589768"><ele>682.5</ele><time>2026-03-28T15:06:52.183Z</time></trkpt><trkpt lat="43.5273176" lon="11.3588526"><ele>678.0</ele><time>2026-03-28T15:06:53.183Z</time></trkpt><trkpt lat="43.5273946" lon="11.3587146"><ele>678.0</ele><time>2026-03-28T15:06:54.183Z</time></trkpt><trkpt lat="43.5274596" lon="11.3585748"><ele>678.0</ele><time>2026-03-28T15:06:55.183Z</time></trkpt><trkpt lat="43.5275069" lon="11.3584416"><ele>678.0</ele><time>2026-03-28T15:06:56.183Z</time></trkpt><trkpt lat="43.5275407" lon="11.3583109"><ele>678.0</ele><time>2026-03-28T15:06:57.183Z</time></trkpt><trkpt lat="43.5275738" lon="11.3581879"><ele>678.0</ele><time>2026-03-28T15:06:58.183Z</time></trkpt><trkpt lat="43.5275868" lon="11.3580604"><ele>677.8</ele><time>2026-03-28T15:06:59.184Z</time></trkpt><trkpt lat="43.5275431" lon="11.3579312"><ele>677.5999999999999</ele><time>2026-03-28T15:07:00.184Z</time></trkpt><trkpt lat="43.527541" lon="11.3577953"><ele>677.4000000000001</ele><time>2026-03-28T15:07:01.184Z</time></trkpt><trkpt lat="43.527533" lon="11.3576555"><ele>677.2</ele><time>2026-03-28T15:07:02.184Z</time></trkpt><trkpt lat="43.5275488" lon="11.3575216"><ele>677.0</ele><time>2026-03-28T15:07:03.184Z</time></trkpt><trkpt lat="43.5275657" lon="11.357382"><ele>677.0</ele><time>2026-03-28T15:07:04.184Z</time></trkpt><trkpt lat="43.5276082" lon="11.3572128"><ele>677.0</ele><time>2026-03-28T15:07:05.184Z</time></trkpt><trkpt lat="43.5276768" lon="11.3570631"><ele>677.0</ele><time>2026-03-28T15:07:06.184Z</time></trkpt><trkpt lat="43.5277397" lon="11.3569055"><ele>677.0</ele><time>2026-03-28T15:07:07.184Z</time></trkpt><trkpt lat="43.5278093" lon="11.3567478"><ele>676.5</ele><time>2026-03-28T15:07:08.184Z</time></trkpt><trkpt lat="43.5278744" lon="11.3565948"><ele>676.0</ele><time>2026-03-28T15:07:09.183Z</time></trkpt><trkpt lat="43.5279397" lon="11.3564528"><ele>675.5</ele><time>2026-03-28T15:07:10.184Z</time></trkpt><trkpt lat="43.5280025" lon="11.3563181"><ele>675.0</ele><time>2026-03-28T15:07:11.183Z</time></trkpt><trkpt lat="43.5280621" lon="11.3561828"><ele>672.25</ele><time>2026-03-28T15:07:12.184Z</time></trkpt><trkpt lat="43.5281249" lon="11.3560498"><ele>669.5</ele><time>2026-03-28T15:07:13.184Z</time></trkpt><trkpt lat="43.5281974" lon="11.3559223"><ele>666.75</ele><time>2026-03-28T15:07:14.183Z</time></trkpt><trkpt lat="43.5282883" lon="11.3557999"><ele>664.0</ele><time>2026-03-28T15:07:15.184Z</time></trkpt><trkpt lat="43.5283963" lon="11.3556939"><ele>664.0</ele><time>2026-03-28T15:07:16.184Z</time></trkpt><trkpt lat="43.5285102" lon="11.3556115"><ele>664.0</ele><time>2026-03-28T15:07:17.183Z</time></trkpt><trkpt lat="43.5286148" lon="11.35554"><ele>664.0</ele><time>2026-03-28T15:07:18.183Z</time></trkpt><trkpt lat="43.5287197" lon="11.3554675"><ele>664.0</ele><time>2026-03-28T15:07:19.182Z</time></trkpt><trkpt lat="43.5288291" lon="11.3554067"><ele>662.0</ele><time>2026-03-28T15:07:20.183Z</time></trkpt><trkpt lat="43.5289516" lon="11.3553664"><ele>660.0</ele><time>2026-03-28T15:07:21.184Z</time></trkpt><trkpt lat="43.5290755" lon="11.3553386"><ele>658.0</ele><time>2026-03-28T15:07:22.183Z</time></trkpt><trkpt lat="43.529198" lon="11.3553444"><ele>656.0</ele><time>2026-03-28T15:07:23.183Z</time></trkpt><trkpt lat="43.5292832" lon="11.3553933"><ele>656.0</ele><time>2026-03-28T15:07:24.183Z</time></trkpt><trkpt lat="43.5293959" lon="11.3554159"><ele>656.0</ele><time>2026-03-28T15:07:25.184Z</time></trkpt><trkpt lat="43.52951" lon="11.3554419"><ele>656.0</ele><time>2026-03-28T15:07:26.183Z</time></trkpt><trkpt lat="43.529626" lon="11.3554735"><ele>656.0</ele><time>2026-03-28T15:07:27.183Z</time></trkpt><trkpt lat="43.529739" lon="11.3555194"><ele>658.5</ele><time>2026-03-28T15:07:28.183Z</time></trkpt><trkpt lat="43.5298516" lon="11.3555663"><ele>661.0</ele><time>2026-03-28T15:07:29.184Z</time></trkpt><trkpt lat="43.5299607" lon="11.3556174"><ele>663.5</ele><time>2026-03-28T15:07:30.184Z</time></trkpt><trkpt lat="43.5300646" lon="11.3556781"><ele>666.0</ele><time>2026-03-28T15:07:31.183Z</time></trkpt><trkpt lat="43.5301661" lon="11.355742"><ele>666.0</ele><time>2026-03-28T15:07:32.183Z</time></trkpt><trkpt lat="43.5302658" lon="11.3558002"><ele>666.0</ele><time>2026-03-28T15:07:33.184Z</time></trkpt><trkpt lat="43.5303747" lon="11.3558428"><ele>666.0</ele><time>2026-03-28T15:07:34.182Z</time></trkpt><trkpt lat="43.5304784" lon="11.3558644"><ele>666.0</ele><time>2026-03-28T15:07:35.183Z</time></trkpt><trkpt lat="43.5305839" lon="11.3558657"><ele>666.0</ele><time>2026-03-28T15:07:36.183Z</time></trkpt><trkpt lat="43.5306877" lon="11.3558329"><ele>665.5999999999999</ele><time>2026-03-28T15:07:37.183Z</time></trkpt><trkpt lat="43.5307724" lon="11.3557722"><ele>665.2</ele><time>2026-03-28T15:07:38.183Z</time></trkpt><trkpt lat="43.5308488" lon="11.355682"><ele>664.8</ele><time>2026-03-28T15:07:39.183Z</time></trkpt><trkpt lat="43.5309126" lon="11.3555711"><ele>664.4000000000001</ele><time>2026-03-28T15:07:40.184Z</time></trkpt><trkpt lat="43.5309719" lon="11.3554483"><ele>664.0</ele><time>2026-03-28T15:07:41.183Z</time></trkpt><trkpt lat="43.5310354" lon="11.3553153"><ele>663.5</ele><time>2026-03-28T15:07:42.184Z</time></trkpt><trkpt lat="43.5310972" lon="11.3551715"><ele>663.0</ele><time>2026-03-28T15:07:43.184Z</time></trkpt><trkpt lat="43.5311559" lon="11.3550129"><ele>662.5</ele><time>2026-03-28T15:07:44.183Z</time></trkpt><trkpt lat="43.5312082" lon="11.3548448"><ele>662.0</ele><time>2026-03-28T15:07:45.183Z</time></trkpt><trkpt lat="43.5312506" lon="11.3546913"><ele>662.0</ele><time>2026-03-28T15:07:46.183Z</time></trkpt><trkpt lat="43.5312885" lon="11.3545324"><ele>662.0</ele><time>2026-03-28T15:07:47.183Z</time></trkpt><trkpt lat="43.5313287" lon="11.3543823"><ele>662.0</ele><time>2026-03-28T15:07:48.183Z</time></trkpt><trkpt lat="43.5313706" lon="11.3542311"><ele>662.0</ele><time>2026-03-28T15:07:49.184Z</time></trkpt><trkpt lat="43.5314086" lon="11.3540803"><ele>662.0</ele><time>2026-03-28T15:07:50.184Z</time></trkpt><trkpt lat="43.5314381" lon="11.3539341"><ele>662.0</ele><time>2026-03-28T15:07:51.183Z</time></trkpt><trkpt lat="43.5314637" lon="11.353777"><ele>662.0</ele><time>2026-03-28T15:07:52.183Z</time></trkpt><trkpt lat="43.5314871" lon="11.3536062"><ele>662.0</ele><time>2026-03-28T15:07:53.184Z</time></trkpt><trkpt lat="43.5315119" lon="11.3534278"><ele>662.75</ele><time>2026-03-28T15:07:54.183Z</time></trkpt><trkpt lat="43.5315354" lon="11.3532461"><ele>663.5</ele><time>2026-03-28T15:07:55.184Z</time></trkpt><trkpt lat="43.5315536" lon="11.3530607"><ele>664.25</ele><time>2026-03-28T15:07:56.183Z</time></trkpt><trkpt lat="43.5315701" lon="11.3528723"><ele>665.0</ele><time>2026-03-28T15:07:57.182Z</time></trkpt><trkpt lat="43.5315903" lon="11.3526988"><ele>665.5</ele><time>2026-03-28T15:07:58.183Z</time></trkpt><trkpt lat="43.5316128" lon="11.3525259"><ele>666.0</ele><time>2026-03-28T15:07:59.183Z</time></trkpt><trkpt lat="43.5316357" lon="11.3523572"><ele>666.5</ele><time>2026-03-28T15:08:00.183Z</time></trkpt><trkpt lat="43.5316561" lon="11.3521825"><ele>667.0</ele><time>2026-03-28T15:08:01.183Z</time></trkpt><trkpt lat="43.5316767" lon="11.352005"><ele>667.0</ele><time>2026-03-28T15:08:02.184Z</time></trkpt><trkpt lat="43.5316947" lon="11.3518272"><ele>667.0</ele><time>2026-03-28T15:08:03.183Z</time></trkpt><trkpt lat="43.5317129" lon="11.3516611"><ele>667.0</ele><time>2026-03-28T15:08:04.184Z</time></trkpt><trkpt lat="43.5317359" lon="11.351486"><ele>667.0</ele><time>2026-03-28T15:08:05.183Z</time></trkpt><trkpt lat="43.531754" lon="11.3513091"><ele>665.75</ele><time>2026-03-28T15:08:06.183Z</time></trkpt><trkpt lat="43.531766" lon="11.3511338"><ele>664.5</ele><time>2026-03-28T15:08:07.183Z</time></trkpt><trkpt lat="43.5317778" lon="11.3509754"><ele>663.25</ele><time>2026-03-28T15:08:08.183Z</time></trkpt><trkpt lat="43.5318021" lon="11.3508128"><ele>662.0</ele><time>2026-03-28T15:08:09.183Z</time></trkpt><trkpt lat="43.5318458" lon="11.3506568"><ele>662.8</ele><time>2026-03-28T15:08:10.184Z</time></trkpt><trkpt lat="43.5318902" lon="11.3505194"><ele>663.6</ele><time>2026-03-28T15:08:11.183Z</time></trkpt><trkpt lat="43.5319407" lon="11.3503954"><ele>664.4</ele><time>2026-03-28T15:08:12.183Z</time></trkpt><trkpt lat="43.5320035" lon="11.3502736"><ele>665.1999999999999</ele><time>2026-03-28T15:08:13.183Z</time></trkpt><trkpt lat="43.5320796" lon="11.3501565"><ele>666.0</ele><time>2026-03-28T15:08:14.183Z</time></trkpt><trkpt lat="43.5321563" lon="11.350061"><ele>666.0</ele><time>2026-03-28T15:08:15.183Z</time></trkpt><trkpt lat="43.5322519" lon="11.3499752"><ele>666.0</ele><time>2026-03-28T15:08:16.184Z</time></trkpt><trkpt lat="43.5323593" lon="11.3498836"><ele>666.0</ele><time>2026-03-28T15:08:17.183Z</time></trkpt><trkpt lat="43.5324653" lon="11.349793"><ele>666.0</ele><time>2026-03-28T15:08:18.183Z</time></trkpt><trkpt lat="43.5325778" lon="11.3496989"><ele>664.25</ele><time>2026-03-28T15:08:19.183Z</time></trkpt><trkpt lat="43.5326856" lon="11.3496013"><ele>662.5</ele><time>2026-03-28T15:08:20.183Z</time></trkpt><trkpt lat="43.5327989" lon="11.3495055"><ele>660.75</ele><time>2026-03-28T15:08:21.183Z</time></trkpt><trkpt lat="43.5329087" lon="11.3494142"><ele>659.0</ele><time>2026-03-28T15:08:22.184Z</time></trkpt><trkpt lat="43.5330104" lon="11.3493244"><ele>659.0</ele><time>2026-03-28T15:08:23.183Z</time></trkpt><trkpt lat="43.5331176" lon="11.3492316"><ele>659.0</ele><time>2026-03-28T15:08:24.183Z</time></trkpt><trkpt lat="43.5332249" lon="11.3491448"><ele>659.0</ele><time>2026-03-28T15:08:25.184Z</time></trkpt><trkpt lat="43.5333307" lon="11.3490579"><ele>659.0</ele><time>2026-03-28T15:08:26.184Z</time></trkpt><trkpt lat="43.5334243" lon="11.348978"><ele>659.0</ele><time>2026-03-28T15:08:27.184Z</time></trkpt><trkpt lat="43.5335141" lon="11.348903"><ele>659.0</ele><time>2026-03-28T15:08:28.184Z</time></trkpt><trkpt lat="43.5336012" lon="11.3488283"><ele>659.0</ele><time>2026-03-28T15:08:29.184Z</time></trkpt><trkpt lat="43.5336946" lon="11.3487453"><ele>659.0</ele><time>2026-03-28T15:08:30.183Z</time></trkpt><trkpt lat="43.5337924" lon="11.34866"><ele>659.0</ele><time>2026-03-28T15:08:31.183Z</time></trkpt><trkpt lat="43.5339027" lon="11.3485683"><ele>657.25</ele><time>2026-03-28T15:08:32.183Z</time></trkpt><trkpt lat="43.5340227" lon="11.3484663"><ele>655.5</ele><time>2026-03-28T15:08:33.184Z</time></trkpt><trkpt lat="43.5341507" lon="11.3483607"><ele>653.75</ele><time>2026-03-28T15:08:34.184Z</time></trkpt><trkpt lat="43.534282" lon="11.3482523"><ele>652.0</ele><time>2026-03-28T15:08:35.184Z</time></trkpt><trkpt lat="43.5344056" lon="11.3481483"><ele>652.75</ele><time>2026-03-28T15:08:36.184Z</time></trkpt><trkpt lat="43.5345258" lon="11.3480415"><ele>653.5</ele><time>2026-03-28T15:08:37.183Z</time></trkpt><trkpt lat="43.5346402" lon="11.3479406"><ele>654.25</ele><time>2026-03-28T15:08:38.184Z</time></trkpt><trkpt lat="43.5347385" lon="11.3478481"><ele>655.0</ele><time>2026-03-28T15:08:39.183Z</time></trkpt><trkpt lat="43.534822" lon="11.347777"><ele>655.0</ele><time>2026-03-28T15:08:40.183Z</time></trkpt><trkpt lat="43.5349182" lon="11.3477013"><ele>655.0</ele><time>2026-03-28T15:08:41.184Z</time></trkpt><trkpt lat="43.535022" lon="11.3476252"><ele>655.0</ele><time>2026-03-28T15:08:42.183Z</time></trkpt><trkpt lat="43.5351267" lon="11.3475407"><ele>655.0</ele><time>2026-03-28T15:08:43.184Z</time></trkpt><trkpt lat="43.5352179" lon="11.3474584"><ele>655.0</ele><time>2026-03-28T15:08:44.183Z</time></trkpt><trkpt lat="43.5353101" lon="11.3473746"><ele>655.0</ele><time>2026-03-28T15:08:45.184Z</time></trkpt><trkpt lat="43.5354065" lon="11.347287"><ele>655.0</ele><time>2026-03-28T15:08:46.183Z</time></trkpt><trkpt lat="43.5354938" lon="11.3471996"><ele>655.0</ele><time>2026-03-28T15:08:47.184Z</time></trkpt><trkpt lat="43.5355808" lon="11.3471193"><ele>655.0</ele><time>2026-03-28T15:08:48.183Z</time></trkpt><trkpt lat="43.5356705" lon="11.3470355"><ele>653.4</ele><time>2026-03-28T15:08:49.183Z</time></trkpt><trkpt lat="43.5357652" lon="11.3469453"><ele>651.8</ele><time>2026-03-28T15:08:50.183Z</time></trkpt><trkpt lat="43.5358401" lon="11.3468591"><ele>650.2</ele><time>2026-03-28T15:08:51.184Z</time></trkpt><trkpt lat="43.5359066" lon="11.3467537"><ele>648.6</ele><time>2026-03-28T15:08:52.183Z</time></trkpt><trkpt lat="43.5359654" lon="11.3466193"><ele>647.0</ele><time>2026-03-28T15:08:53.183Z</time></trkpt><trkpt lat="43.5360154" lon="11.3464775"><ele>646.25</ele><time>2026-03-28T15:08:54.183Z</time></trkpt><trkpt lat="43.5360644" lon="11.346335"><ele>645.5</ele><time>2026-03-28T15:08:55.183Z</time></trkpt><trkpt lat="43.5361178" lon="11.3461819"><ele>644.75</ele><time>2026-03-28T15:08:56.183Z</time></trkpt><trkpt lat="43.5361725" lon="11.3460269"><ele>644.0</ele><time>2026-03-28T15:08:57.183Z</time></trkpt><trkpt lat="43.5362269" lon="11.3458676"><ele>642.5</ele><time>2026-03-28T15:08:58.184Z</time></trkpt><trkpt lat="43.5362847" lon="11.3457015"><ele>641.0</ele><time>2026-03-28T15:08:59.184Z</time></trkpt><trkpt lat="43.5363428" lon="11.3455374"><ele>639.5</ele><time>2026-03-28T15:09:00.184Z</time></trkpt><trkpt lat="43.5363949" lon="11.3453747"><ele>638.0</ele><time>2026-03-28T15:09:01.183Z</time></trkpt><trkpt lat="43.5364504" lon="11.3452086"><ele>638.0</ele><time>2026-03-28T15:09:02.184Z</time></trkpt><trkpt lat="43.5365056" lon="11.3450489"><ele>638.0</ele><time>2026-03-28T15:09:03.183Z</time></trkpt><trkpt lat="43.5365584" lon="11.3449007"><ele>638.0</ele><time>2026-03-28T15:09:04.183Z</time></trkpt><trkpt lat="43.5366058" lon="11.344757"><ele>638.0</ele><time>2026-03-28T15:09:05.183Z</time></trkpt><trkpt lat="43.5366488" lon="11.3446212"><ele>637.0</ele><time>2026-03-28T15:09:06.183Z</time></trkpt><trkpt lat="43.5366892" lon="11.3444833"><ele>636.0</ele><time>2026-03-28T15:09:07.183Z</time></trkpt><trkpt lat="43.5367294" lon="11.3443429"><ele>635.0</ele><time>2026-03-28T15:09:08.183Z</time></trkpt><trkpt lat="43.536771" lon="11.3441964"><ele>634.0</ele><time>2026-03-28T15:09:09.184Z</time></trkpt><trkpt lat="43.5368175" lon="11.3440468"><ele>633.0</ele><time>2026-03-28T15:09:10.183Z</time></trkpt><trkpt lat="43.5368625" lon="11.3439007"><ele>631.4</ele><time>2026-03-28T15:09:11.183Z</time></trkpt><trkpt lat="43.536904" lon="11.3437582"><ele>629.8</ele><time>2026-03-28T15:09:12.183Z</time></trkpt><trkpt lat="43.5369382" lon="11.3436343"><ele>628.2</ele><time>2026-03-28T15:09:13.183Z</time></trkpt><trkpt lat="43.536967" lon="11.3435123"><ele>626.6</ele><time>2026-03-28T15:09:14.183Z</time></trkpt><trkpt lat="43.5369861" lon="11.3433898"><ele>625.0</ele><time>2026-03-28T15:09:15.184Z</time></trkpt><trkpt lat="43.5369969" lon="11.3432661"><ele>625.0</ele><time>2026-03-28T15:09:16.184Z</time></trkpt><trkpt lat="43.5370022" lon="11.3431399"><ele>625.0</ele><time>2026-03-28T15:09:17.183Z</time></trkpt><trkpt lat="43.5370042" lon="11.3430162"><ele>625.0</ele><time>2026-03-28T15:09:18.183Z</time></trkpt><trkpt lat="43.5370031" lon="11.3428918"><ele>625.0</ele><time>2026-03-28T15:09:19.183Z</time></trkpt><trkpt lat="43.537002" lon="11.3427714"><ele>625.0</ele><time>2026-03-28T15:09:20.183Z</time></trkpt><trkpt lat="43.5370038" lon="11.3426485"><ele>625.0</ele><time>2026-03-28T15:09:21.183Z</time></trkpt><trkpt lat="43.5370064" lon="11.3425199"><ele>622.8333333333334</ele><time>2026-03-28T15:09:22.184Z</time></trkpt><trkpt lat="43.5370094" lon="11.3423869"><ele>620.6666666666667</ele><time>2026-03-28T15:09:23.184Z</time></trkpt><trkpt lat="43.5370096" lon="11.3422591"><ele>618.5</ele><time>2026-03-28T15:09:24.184Z</time></trkpt><trkpt lat="43.5370084" lon="11.3421348"><ele>616.3333333333334</ele><time>2026-03-28T15:09:25.184Z</time></trkpt><trkpt lat="43.5370048" lon="11.3420181"><ele>614.1666666666666</ele><time>2026-03-28T15:09:26.183Z</time></trkpt><trkpt lat="43.5370031" lon="11.3419044"><ele>612.0</ele><time>2026-03-28T15:09:27.184Z</time></trkpt><trkpt lat="43.5370016" lon="11.3417981"><ele>611.8571428571429</ele><time>2026-03-28T15:09:28.184Z</time></trkpt><trkpt lat="43.5369958" lon="11.3416895"><ele>611.7142857142858</ele><time>2026-03-28T15:09:29.183Z</time></trkpt><trkpt lat="43.5369865" lon="11.3415857"><ele>611.5714285714287</ele><time>2026-03-28T15:09:30.183Z</time></trkpt><trkpt lat="43.5369684" lon="11.341489"><ele>611.4285714285714</ele><time>2026-03-28T15:09:31.184Z</time></trkpt><trkpt lat="43.5369364" lon="11.3414074"><ele>611.2857142857143</ele><time>2026-03-28T15:09:32.184Z</time></trkpt><trkpt lat="43.5368848" lon="11.3413389"><ele>611.1428571428572</ele><time>2026-03-28T15:09:33.183Z</time></trkpt><trkpt lat="43.5368184" lon="11.3412873"><ele>611.0</ele><time>2026-03-28T15:09:34.183Z</time></trkpt><trkpt lat="43.5367479" lon="11.3412438"><ele>611.0</ele><time>2026-03-28T15:09:35.184Z</time></trkpt><trkpt lat="43.5366773" lon="11.3412044"><ele>611.0</ele><time>2026-03-28T15:09:36.183Z</time></trkpt><trkpt lat="43.5366005" lon="11.3411623"><ele>611.0</ele><time>2026-03-28T15:09:37.184Z</time></trkpt><trkpt lat="43.5365231" lon="11.3411154"><ele>611.0</ele><time>2026-03-28T15:09:38.184Z</time></trkpt><trkpt lat="43.5364495" lon="11.3410619"><ele>611.0</ele><time>2026-03-28T15:09:39.183Z</time></trkpt><trkpt lat="43.5363779" lon="11.3410026"><ele>611.0</ele><time>2026-03-28T15:09:40.183Z</time></trkpt><trkpt lat="43.5363058" lon="11.3409376"><ele>611.0</ele><time>2026-03-28T15:09:41.184Z</time></trkpt><trkpt lat="43.5362301" lon="11.3408711"><ele>611.0</ele><time>2026-03-28T15:09:42.183Z</time></trkpt><trkpt lat="43.5361606" lon="11.3408209"><ele>611.0</ele><time>2026-03-28T15:09:43.183Z</time></trkpt><trkpt lat="43.536098" lon="11.3407837"><ele>611.0</ele><time>2026-03-28T15:09:44.183Z</time></trkpt><trkpt lat="43.5359815" lon="11.3407253"><ele>611.0</ele><time>2026-03-28T15:09:46.184Z</time></trkpt><trkpt lat="43.5359172" lon="11.3406836"><ele>611.0</ele><time>2026-03-28T15:09:47.184Z</time></trkpt><trkpt lat="43.5358512" lon="11.3406262"><ele>609.8</ele><time>2026-03-28T15:09:48.183Z</time></trkpt><trkpt lat="43.5357788" lon="11.3405754"><ele>608.6</ele><time>2026-03-28T15:09:49.183Z</time></trkpt><trkpt lat="43.535694" lon="11.34052"><ele>607.4</ele><time>2026-03-28T15:09:50.183Z</time></trkpt><trkpt lat="43.5356058" lon="11.3404559"><ele>606.2</ele><time>2026-03-28T15:09:51.182Z</time></trkpt><trkpt lat="43.5355247" lon="11.34039"><ele>605.0</ele><time>2026-03-28T15:09:52.183Z</time></trkpt><trkpt lat="43.5354445" lon="11.3403181"><ele>599.2</ele><time>2026-03-28T15:09:53.183Z</time></trkpt><trkpt lat="43.5353547" lon="11.340236"><ele>593.4</ele><time>2026-03-28T15:09:54.183Z</time></trkpt><trkpt lat="43.53527" lon="11.3401509"><ele>587.6</ele><time>2026-03-28T15:09:55.183Z</time></trkpt><trkpt lat="43.5351944" lon="11.3400549"><ele>581.8</ele><time>2026-03-28T15:09:56.183Z</time></trkpt><trkpt lat="43.5351299" lon="11.339946"><ele>576.0</ele><time>2026-03-28T15:09:57.183Z</time></trkpt><trkpt lat="43.5350688" lon="11.339827"><ele>577.6</ele><time>2026-03-28T15:09:58.184Z</time></trkpt><trkpt lat="43.5350078" lon="11.3397063"><ele>579.2</ele><time>2026-03-28T15:09:59.183Z</time></trkpt><trkpt lat="43.534948" lon="11.3395816"><ele>580.8</ele><time>2026-03-28T15:10:00.184Z</time></trkpt><trkpt lat="43.5348931" lon="11.3394583"><ele>582.4</ele><time>2026-03-28T15:10:01.183Z</time></trkpt><trkpt lat="43.5348388" lon="11.3393303"><ele>584.0</ele><time>2026-03-28T15:10:02.184Z</time></trkpt><trkpt lat="43.5347833" lon="11.3392031"><ele>584.0</ele><time>2026-03-28T15:10:03.183Z</time></trkpt><trkpt lat="43.5347283" lon="11.3390825"><ele>584.0</ele><time>2026-03-28T15:10:04.184Z</time></trkpt><trkpt lat="43.5346725" lon="11.3389679"><ele>584.0</ele><time>2026-03-28T15:10:05.183Z</time></trkpt><trkpt lat="43.5346103" lon="11.3388468"><ele>584.0</ele><time>2026-03-28T15:10:06.184Z</time></trkpt><trkpt lat="43.5345536" lon="11.3387286"><ele>584.0</ele><time>2026-03-28T15:10:07.184Z</time></trkpt><trkpt lat="43.5344999" lon="11.3386143"><ele>579.3333333333333</ele><time>2026-03-28T15:10:08.184Z</time></trkpt><trkpt lat="43.5344561" lon="11.3385105"><ele>574.6666666666666</ele><time>2026-03-28T15:10:09.183Z</time></trkpt><trkpt lat="43.5344099" lon="11.3384103"><ele>570.0</ele><time>2026-03-28T15:10:10.184Z</time></trkpt><trkpt lat="43.5343692" lon="11.3383187"><ele>565.3333333333334</ele><time>2026-03-28T15:10:11.184Z</time></trkpt><trkpt lat="43.5343416" lon="11.3382291"><ele>560.6666666666667</ele><time>2026-03-28T15:10:12.183Z</time></trkpt><trkpt lat="43.5343264" lon="11.3381375"><ele>556.0</ele><time>2026-03-28T15:10:13.183Z</time></trkpt><trkpt lat="43.5343346" lon="11.3380426"><ele>556.6</ele><time>2026-03-28T15:10:14.183Z</time></trkpt><trkpt lat="43.5343705" lon="11.3379367"><ele>557.2</ele><time>2026-03-28T15:10:15.184Z</time></trkpt><trkpt lat="43.5344379" lon="11.3378421"><ele>557.8</ele><time>2026-03-28T15:10:16.184Z</time></trkpt><trkpt lat="43.5345195" lon="11.337761"><ele>558.4</ele><time>2026-03-28T15:10:17.183Z</time></trkpt><trkpt lat="43.5346021" lon="11.3376768"><ele>559.0</ele><time>2026-03-28T15:10:18.183Z</time></trkpt><trkpt lat="43.5346889" lon="11.3375906"><ele>559.0</ele><time>2026-03-28T15:10:19.183Z</time></trkpt><trkpt lat="43.5347775" lon="11.3375071"><ele>559.0</ele><time>2026-03-28T15:10:20.183Z</time></trkpt><trkpt lat="43.5348727" lon="11.3374303"><ele>559.0</ele><time>2026-03-28T15:10:21.183Z</time></trkpt><trkpt lat="43.5349654" lon="11.3373598"><ele>559.0</ele><time>2026-03-28T15:10:22.183Z</time></trkpt><trkpt lat="43.535059" lon="11.3372859"><ele>559.0</ele><time>2026-03-28T15:10:23.183Z</time></trkpt><trkpt lat="43.5351523" lon="11.337208"><ele>556.2</ele><time>2026-03-28T15:10:24.184Z</time></trkpt><trkpt lat="43.535241" lon="11.3371275"><ele>553.4</ele><time>2026-03-28T15:10:25.183Z</time></trkpt><trkpt lat="43.5353313" lon="11.337054"><ele>550.6</ele><time>2026-03-28T15:10:26.184Z</time></trkpt><trkpt lat="43.5354226" lon="11.3369788"><ele>547.8</ele><time>2026-03-28T15:10:27.183Z</time></trkpt><trkpt lat="43.535511" lon="11.336906"><ele>545.0</ele><time>2026-03-28T15:10:28.184Z</time></trkpt><trkpt lat="43.5355921" lon="11.3368319"><ele>545.0</ele><time>2026-03-28T15:10:29.184Z</time></trkpt><trkpt lat="43.5356654" lon="11.3367508"><ele>545.0</ele><time>2026-03-28T15:10:30.184Z</time></trkpt><trkpt lat="43.5357158" lon="11.3366567"><ele>545.0</ele><time>2026-03-28T15:10:31.184Z</time></trkpt><trkpt lat="43.5357456" lon="11.3365511"><ele>545.0</ele><time>2026-03-28T15:10:32.183Z</time></trkpt><trkpt lat="43.535757" lon="11.3364363"><ele>545.0</ele><time>2026-03-28T15:10:33.184Z</time></trkpt><trkpt lat="43.5357674" lon="11.3363197"><ele>545.0</ele><time>2026-03-28T15:10:34.184Z</time></trkpt><trkpt lat="43.5357943" lon="11.3362187"><ele>542.3333333333333</ele><time>2026-03-28T15:10:35.183Z</time></trkpt><trkpt lat="43.5358401" lon="11.3361315"><ele>539.6666666666666</ele><time>2026-03-28T15:10:36.184Z</time></trkpt><trkpt lat="43.5359098" lon="11.3360692"><ele>537.0</ele><time>2026-03-28T15:10:37.183Z</time></trkpt><trkpt lat="43.5359934" lon="11.3360506"><ele>534.3333333333334</ele><time>2026-03-28T15:10:38.183Z</time></trkpt><trkpt lat="43.5360887" lon="11.3360656"><ele>531.6666666666667</ele><time>2026-03-28T15:10:39.184Z</time></trkpt><trkpt lat="43.5361944" lon="11.3360918"><ele>529.0</ele><time>2026-03-28T15:10:40.183Z</time></trkpt><trkpt lat="43.5363058" lon="11.3360871"><ele>528.8</ele><time>2026-03-28T15:10:41.183Z</time></trkpt><trkpt lat="43.5364205" lon="11.336055"><ele>528.5999999999999</ele><time>2026-03-28T15:10:42.183Z</time></trkpt><trkpt lat="43.536528" lon="11.3360051"><ele>528.4</ele><time>2026-03-28T15:10:43.183Z</time></trkpt><trkpt lat="43.5366334" lon="11.3359547"><ele>528.1999999999999</ele><time>2026-03-28T15:10:44.184Z</time></trkpt><trkpt lat="43.5367333" lon="11.3359143"><ele>528.0</ele><time>2026-03-28T15:10:45.183Z</time></trkpt><trkpt lat="43.5368273" lon="11.3358636"><ele>528.0</ele><time>2026-03-28T15:10:46.184Z</time></trkpt><trkpt lat="43.5369102" lon="11.3358026"><ele>528.0</ele><time>2026-03-28T15:10:47.183Z</time></trkpt><trkpt lat="43.5369862" lon="11.3357285"><ele>528.0</ele><time>2026-03-28T15:10:48.183Z</time></trkpt><trkpt lat="43.5370497" lon="11.3356294"><ele>528.0</ele><time>2026-03-28T15:10:49.183Z</time></trkpt><trkpt lat="43.5371105" lon="11.3355003"><ele>528.0</ele><time>2026-03-28T15:10:50.184Z</time></trkpt><trkpt lat="43.5371566" lon="11.3353818"><ele>525.6</ele><time>2026-03-28T15:10:51.183Z</time></trkpt><trkpt lat="43.5372013" lon="11.3352535"><ele>523.1999999999999</ele><time>2026-03-28T15:10:52.182Z</time></trkpt><trkpt lat="43.5372431" lon="11.335118"><ele>520.8</ele><time>2026-03-28T15:10:53.184Z</time></trkpt><trkpt lat="43.5372789" lon="11.3349809"><ele>518.4</ele><time>2026-03-28T15:10:54.183Z</time></trkpt><trkpt lat="43.5373168" lon="11.3348419"><ele>516.0</ele><time>2026-03-28T15:10:55.183Z</time></trkpt><trkpt lat="43.5373478" lon="11.3347151"><ele>514.8</ele><time>2026-03-28T15:10:56.184Z</time></trkpt><trkpt lat="43.5373712" lon="11.334588"><ele>513.6</ele><time>2026-03-28T15:10:57.183Z</time></trkpt><trkpt lat="43.5373927" lon="11.3344499"><ele>512.4</ele><time>2026-03-28T15:10:58.184Z</time></trkpt><trkpt lat="43.5374121" lon="11.3342978"><ele>511.2</ele><time>2026-03-28T15:10:59.183Z</time></trkpt><trkpt lat="43.5374209" lon="11.3341449"><ele>510.0</ele><time>2026-03-28T15:11:00.184Z</time></trkpt><trkpt lat="43.5374261" lon="11.3339842"><ele>509.6</ele><time>2026-03-28T15:11:01.183Z</time></trkpt><trkpt lat="43.5374227" lon="11.3338239"><ele>509.2</ele><time>2026-03-28T15:11:02.183Z</time></trkpt><trkpt lat="43.5374137" lon="11.3336977"><ele>508.79999999999995</ele><time>2026-03-28T15:11:03.184Z</time></trkpt><trkpt lat="43.5374043" lon="11.3335773"><ele>508.4</ele><time>2026-03-28T15:11:04.183Z</time></trkpt><trkpt lat="43.537403" lon="11.3334432"><ele>508.0</ele><time>2026-03-28T15:11:05.183Z</time></trkpt><trkpt lat="43.5374212" lon="11.3333092"><ele>508.0</ele><time>2026-03-28T15:11:06.184Z</time></trkpt><trkpt lat="43.5374541" lon="11.3331723"><ele>507.99999999999994</ele><time>2026-03-28T15:11:07.184Z</time></trkpt><trkpt lat="43.5374853" lon="11.3330264"><ele>507.99999999999994</ele><time>2026-03-28T15:11:08.184Z</time></trkpt><trkpt lat="43.5375174" lon="11.3328911"><ele>508.0</ele><time>2026-03-28T15:11:09.184Z</time></trkpt><trkpt lat="43.537553" lon="11.3327544"><ele>508.0</ele><time>2026-03-28T15:11:10.183Z</time></trkpt><trkpt lat="43.5376" lon="11.3326099"><ele>508.25</ele><time>2026-03-28T15:11:11.183Z</time></trkpt><trkpt lat="43.537652" lon="11.3324582"><ele>508.5</ele><time>2026-03-28T15:11:12.183Z</time></trkpt><trkpt lat="43.5377135" lon="11.3323079"><ele>508.75</ele><time>2026-03-28T15:11:13.184Z</time></trkpt><trkpt lat="43.5377952" lon="11.3321725"><ele>509.0</ele><time>2026-03-28T15:11:14.183Z</time></trkpt><trkpt lat="43.537884" lon="11.3320453"><ele>510.25</ele><time>2026-03-28T15:11:15.183Z</time></trkpt><trkpt lat="43.5379648" lon="11.3319124"><ele>511.5</ele><time>2026-03-28T15:11:16.183Z</time></trkpt><trkpt lat="43.5380266" lon="11.3317824"><ele>512.75</ele><time>2026-03-28T15:11:17.184Z</time></trkpt><trkpt lat="43.5380774" lon="11.3316369"><ele>514.0</ele><time>2026-03-28T15:11:18.183Z</time></trkpt><trkpt lat="43.5381176" lon="11.3314775"><ele>515.0</ele><time>2026-03-28T15:11:19.184Z</time></trkpt><trkpt lat="43.5381457" lon="11.3313146"><ele>516.0</ele><time>2026-03-28T15:11:20.183Z</time></trkpt><trkpt lat="43.5381503" lon="11.3311542"><ele>517.0</ele><time>2026-03-28T15:11:21.184Z</time></trkpt><trkpt lat="43.5381377" lon="11.3309957"><ele>518.0</ele><time>2026-03-28T15:11:22.183Z</time></trkpt><trkpt lat="43.5381229" lon="11.3308312"><ele>518.0</ele><time>2026-03-28T15:11:23.183Z</time></trkpt><trkpt lat="43.538109" lon="11.3306613"><ele>518.0</ele><time>2026-03-28T15:11:24.182Z</time></trkpt><trkpt lat="43.538094" lon="11.3304847"><ele>518.0</ele><time>2026-03-28T15:11:25.183Z</time></trkpt><trkpt lat="43.5380784" lon="11.3303021"><ele>518.0</ele><time>2026-03-28T15:11:26.183Z</time></trkpt><trkpt lat="43.5380627" lon="11.3301143"><ele>519.75</ele><time>2026-03-28T15:11:27.183Z</time></trkpt><trkpt lat="43.5380481" lon="11.329933"><ele>521.5</ele><time>2026-03-28T15:11:28.184Z</time></trkpt><trkpt lat="43.5380305" lon="11.329762"><ele>523.25</ele><time>2026-03-28T15:11:29.183Z</time></trkpt><trkpt lat="43.5380141" lon="11.3295972"><ele>525.0</ele><time>2026-03-28T15:11:30.183Z</time></trkpt><trkpt lat="43.5380046" lon="11.3294314"><ele>525.75</ele><time>2026-03-28T15:11:31.183Z</time></trkpt><trkpt lat="43.5380054" lon="11.3292608"><ele>526.5</ele><time>2026-03-28T15:11:32.184Z</time></trkpt><trkpt lat="43.5380151" lon="11.3290872"><ele>527.25</ele><time>2026-03-28T15:11:33.183Z</time></trkpt><trkpt lat="43.5380281" lon="11.3289337"><ele>528.0</ele><time>2026-03-28T15:11:34.183Z</time></trkpt><trkpt lat="43.5380429" lon="11.3287978"><ele>526.8</ele><time>2026-03-28T15:11:35.183Z</time></trkpt><trkpt lat="43.5380652" lon="11.3286714"><ele>525.5999999999999</ele><time>2026-03-28T15:11:36.183Z</time></trkpt><trkpt lat="43.5381055" lon="11.3285512"><ele>524.4000000000001</ele><time>2026-03-28T15:11:37.183Z</time></trkpt><trkpt lat="43.5381614" lon="11.3284375"><ele>523.2</ele><time>2026-03-28T15:11:38.184Z</time></trkpt><trkpt lat="43.5382266" lon="11.3283235"><ele>522.0</ele><time>2026-03-28T15:11:39.183Z</time></trkpt><trkpt lat="43.5382935" lon="11.328207"><ele>522.0</ele><time>2026-03-28T15:11:40.183Z</time></trkpt><trkpt lat="43.5383638" lon="11.3280971"><ele>522.0</ele><time>2026-03-28T15:11:41.184Z</time></trkpt><trkpt lat="43.5384423" lon="11.3279793"><ele>522.0</ele><time>2026-03-28T15:11:42.183Z</time></trkpt><trkpt lat="43.5385183" lon="11.3278596"><ele>522.0</ele><time>2026-03-28T15:11:43.183Z</time></trkpt><trkpt lat="43.5385975" lon="11.3277238"><ele>521.5</ele><time>2026-03-28T15:11:44.183Z</time></trkpt><trkpt lat="43.5386694" lon="11.3275733"><ele>521.0</ele><time>2026-03-28T15:11:45.184Z</time></trkpt><trkpt lat="43.5387313" lon="11.3274087"><ele>520.5</ele><time>2026-03-28T15:11:46.183Z</time></trkpt><trkpt lat="43.5387805" lon="11.3272377"><ele>520.0</ele><time>2026-03-28T15:11:47.183Z</time></trkpt><trkpt lat="43.5388069" lon="11.3270671"><ele>520.0</ele><time>2026-03-28T15:11:48.183Z</time></trkpt><trkpt lat="43.5388054" lon="11.3268911"><ele>520.0</ele><time>2026-03-28T15:11:49.183Z</time></trkpt><trkpt lat="43.5387797" lon="11.3267216"><ele>520.0</ele><time>2026-03-28T15:11:50.184Z</time></trkpt><trkpt lat="43.5387457" lon="11.3265556"><ele>520.0</ele><time>2026-03-28T15:11:51.183Z</time></trkpt><trkpt lat="43.538719" lon="11.3263979"><ele>515.75</ele><time>2026-03-28T15:11:52.182Z</time></trkpt><trkpt lat="43.5386948" lon="11.3262351"><ele>511.5</ele><time>2026-03-28T15:11:53.184Z</time></trkpt><trkpt lat="43.5386803" lon="11.3260727"><ele>507.25</ele><time>2026-03-28T15:11:54.184Z</time></trkpt><trkpt lat="43.5386818" lon="11.3259046"><ele>503.0</ele><time>2026-03-28T15:11:55.184Z</time></trkpt><trkpt lat="43.5387077" lon="11.3257347"><ele>504.5</ele><time>2026-03-28T15:11:56.183Z</time></trkpt><trkpt lat="43.5387476" lon="11.3255658"><ele>506.0</ele><time>2026-03-28T15:11:57.184Z</time></trkpt><trkpt lat="43.5387915" lon="11.3253968"><ele>507.5</ele><time>2026-03-28T15:11:58.184Z</time></trkpt><trkpt lat="43.5388467" lon="11.3252296"><ele>509.0</ele><time>2026-03-28T15:11:59.184Z</time></trkpt><trkpt lat="43.5389006" lon="11.3250646"><ele>509.0</ele><time>2026-03-28T15:12:00.183Z</time></trkpt><trkpt lat="43.5389554" lon="11.324908"><ele>509.0</ele><time>2026-03-28T15:12:01.183Z</time></trkpt><trkpt lat="43.5390076" lon="11.3247398"><ele>509.0</ele><time>2026-03-28T15:12:02.182Z</time></trkpt><trkpt lat="43.5390582" lon="11.3245729"><ele>509.0</ele><time>2026-03-28T15:12:03.183Z</time></trkpt><trkpt lat="43.5391158" lon="11.3244032"><ele>508.0</ele><time>2026-03-28T15:12:04.183Z</time></trkpt><trkpt lat="43.5391863" lon="11.3242378"><ele>507.0</ele><time>2026-03-28T15:12:05.183Z</time></trkpt><trkpt lat="43.5392636" lon="11.3240709"><ele>506.0</ele><time>2026-03-28T15:12:06.184Z</time></trkpt><trkpt lat="43.5393423" lon="11.3239046"><ele>505.0</ele><time>2026-03-28T15:12:07.183Z</time></trkpt><trkpt lat="43.539421" lon="11.3237407"><ele>504.5</ele><time>2026-03-28T15:12:08.183Z</time></trkpt><trkpt lat="43.5394971" lon="11.3235773"><ele>504.0</ele><time>2026-03-28T15:12:09.183Z</time></trkpt><trkpt lat="43.539567" lon="11.3234218"><ele>503.5</ele><time>2026-03-28T15:12:10.184Z</time></trkpt><trkpt lat="43.5396412" lon="11.3232754"><ele>503.0</ele><time>2026-03-28T15:12:11.184Z</time></trkpt><trkpt lat="43.539725" lon="11.3231389"><ele>505.2</ele><time>2026-03-28T15:12:12.183Z</time></trkpt><trkpt lat="43.5398097" lon="11.3230133"><ele>507.4</ele><time>2026-03-28T15:12:13.184Z</time></trkpt><trkpt lat="43.5398851" lon="11.3229153"><ele>509.59999999999997</ele><time>2026-03-28T15:12:14.183Z</time></trkpt><trkpt lat="43.5399546" lon="11.3228349"><ele>511.79999999999995</ele><time>2026-03-28T15:12:15.183Z</time></trkpt><trkpt lat="43.5400188" lon="11.3227724"><ele>514.0</ele><time>2026-03-28T15:12:16.184Z</time></trkpt><trkpt lat="43.540085" lon="11.3227091"><ele>514.0</ele><time>2026-03-28T15:12:17.183Z</time></trkpt><trkpt lat="43.5401365" lon="11.3226343"><ele>514.0</ele><time>2026-03-28T15:12:18.183Z</time></trkpt><trkpt lat="43.5401799" lon="11.3225451"><ele>514.0</ele><time>2026-03-28T15:12:19.184Z</time></trkpt><trkpt lat="43.5402162" lon="11.3224415"><ele>514.0</ele><time>2026-03-28T15:12:20.184Z</time></trkpt><trkpt lat="43.5402502" lon="11.3223241"><ele>514.0</ele><time>2026-03-28T15:12:21.184Z</time></trkpt><trkpt lat="43.5402831" lon="11.3221917"><ele>514.0</ele><time>2026-03-28T15:12:22.184Z</time></trkpt><trkpt lat="43.5403275" lon="11.3220555"><ele>514.0</ele><time>2026-03-28T15:12:23.183Z</time></trkpt><trkpt lat="43.5403823" lon="11.3219207"><ele>514.0</ele><time>2026-03-28T15:12:24.184Z</time></trkpt><trkpt lat="43.5404445" lon="11.3217791"><ele>514.0</ele><time>2026-03-28T15:12:25.184Z</time></trkpt><trkpt lat="43.5405081" lon="11.3216307"><ele>514.0</ele><time>2026-03-28T15:12:26.183Z</time></trkpt><trkpt lat="43.5405692" lon="11.3214869"><ele>511.75</ele><time>2026-03-28T15:12:27.183Z</time></trkpt><trkpt lat="43.5406314" lon="11.3213501"><ele>509.5</ele><time>2026-03-28T15:12:28.182Z</time></trkpt><trkpt lat="43.540693" lon="11.3212193"><ele>507.25</ele><time>2026-03-28T15:12:29.183Z</time></trkpt><trkpt lat="43.5407499" lon="11.3210883"><ele>505.0</ele><time>2026-03-28T15:12:30.184Z</time></trkpt><trkpt lat="43.5408059" lon="11.3209499"><ele>505.0</ele><time>2026-03-28T15:12:31.184Z</time></trkpt><trkpt lat="43.5408608" lon="11.3208184"><ele>505.0</ele><time>2026-03-28T15:12:32.184Z</time></trkpt><trkpt lat="43.5409212" lon="11.3206909"><ele>505.0</ele><time>2026-03-28T15:12:33.184Z</time></trkpt><trkpt lat="43.5409903" lon="11.3205538"><ele>505.0</ele><time>2026-03-28T15:12:34.183Z</time></trkpt><trkpt lat="43.5410668" lon="11.3204361"><ele>503.75</ele><time>2026-03-28T15:12:35.182Z</time></trkpt><trkpt lat="43.5411595" lon="11.3203289"><ele>502.5</ele><time>2026-03-28T15:12:36.183Z</time></trkpt><trkpt lat="43.5412638" lon="11.3202144"><ele>501.25</ele><time>2026-03-28T15:12:37.183Z</time></trkpt><trkpt lat="43.5413728" lon="11.3200952"><ele>500.0</ele><time>2026-03-28T15:12:38.184Z</time></trkpt><trkpt lat="43.541481" lon="11.3199829"><ele>498.75</ele><time>2026-03-28T15:12:39.182Z</time></trkpt><trkpt lat="43.5415856" lon="11.3198735"><ele>497.5</ele><time>2026-03-28T15:12:40.183Z</time></trkpt><trkpt lat="43.5416939" lon="11.3197598"><ele>496.25</ele><time>2026-03-28T15:12:41.183Z</time></trkpt><trkpt lat="43.5417897" lon="11.3196541"><ele>495.0</ele><time>2026-03-28T15:12:42.184Z</time></trkpt><trkpt lat="43.5418851" lon="11.3195577"><ele>494.5</ele><time>2026-03-28T15:12:43.184Z</time></trkpt><trkpt lat="43.5419806" lon="11.3194601"><ele>494.0</ele><time>2026-03-28T15:12:44.183Z</time></trkpt><trkpt lat="43.542078" lon="11.3193551"><ele>493.5</ele><time>2026-03-28T15:12:45.184Z</time></trkpt><trkpt lat="43.542177" lon="11.3192388"><ele>493.0</ele><time>2026-03-28T15:12:46.184Z</time></trkpt><trkpt lat="43.5422836" lon="11.319123"><ele>492.25</ele><time>2026-03-28T15:12:47.184Z</time></trkpt><trkpt lat="43.5423995" lon="11.31901"><ele>491.5</ele><time>2026-03-28T15:12:48.184Z</time></trkpt><trkpt lat="43.5425208" lon="11.3188911"><ele>490.75</ele><time>2026-03-28T15:12:49.183Z</time></trkpt><trkpt lat="43.5426399" lon="11.3187709"><ele>490.0</ele><time>2026-03-28T15:12:50.184Z</time></trkpt><trkpt lat="43.5427521" lon="11.3186516"><ele>489.5</ele><time>2026-03-28T15:12:51.182Z</time></trkpt><trkpt lat="43.5428572" lon="11.3185316"><ele>489.0</ele><time>2026-03-28T15:12:52.183Z</time></trkpt><trkpt lat="43.5429505" lon="11.3184134"><ele>488.5</ele><time>2026-03-28T15:12:53.183Z</time></trkpt><trkpt lat="43.5430343" lon="11.3183028"><ele>488.0</ele><time>2026-03-28T15:12:54.184Z</time></trkpt><trkpt lat="43.5431021" lon="11.3182118"><ele>487.99999999999994</ele><time>2026-03-28T15:12:55.183Z</time></trkpt><trkpt lat="43.5431565" lon="11.3181319"><ele>488.0</ele><time>2026-03-28T15:12:56.183Z</time></trkpt><trkpt lat="43.5431991" lon="11.3180618"><ele>488.0</ele><time>2026-03-28T15:12:57.184Z</time></trkpt><trkpt lat="43.5432528" lon="11.3179689"><ele>488.0</ele><time>2026-03-28T15:12:59.184Z</time></trkpt><trkpt lat="43.5433044" lon="11.3178947"><ele>487.99999999999994</ele><time>2026-03-28T15:13:02.184Z</time></trkpt><trkpt lat="43.5433271" lon="11.317798"><ele>488.0</ele><time>2026-03-28T15:13:45.184Z</time></trkpt><trkpt lat="43.5432499" lon="11.3177629"><ele>488.3333333333333</ele><time>2026-03-28T15:13:49.184Z</time></trkpt><trkpt lat="43.5431851" lon="11.3177536"><ele>488.66666666666663</ele><time>2026-03-28T15:13:51.183Z</time></trkpt><trkpt lat="43.543074" lon="11.3177152"><ele>489.0</ele><time>2026-03-28T15:13:53.184Z</time></trkpt><trkpt lat="43.5429572" lon="11.3176794"><ele>489.33333333333337</ele><time>2026-03-28T15:13:55.184Z</time></trkpt><trkpt lat="43.5428925" lon="11.3176749"><ele>489.6666666666667</ele><time>2026-03-28T15:13:56.184Z</time></trkpt><trkpt lat="43.5428255" lon="11.3176892"><ele>490.0</ele><time>2026-03-28T15:13:57.184Z</time></trkpt><trkpt lat="43.5427526" lon="11.3177265"><ele>489.6</ele><time>2026-03-28T15:13:58.183Z</time></trkpt><trkpt lat="43.542693" lon="11.3177755"><ele>489.2</ele><time>2026-03-28T15:13:59.183Z</time></trkpt><trkpt lat="43.542603" lon="11.3178673"><ele>488.79999999999995</ele><time>2026-03-28T15:14:01.183Z</time></trkpt><trkpt lat="43.542517" lon="11.3179567"><ele>488.4</ele><time>2026-03-28T15:14:03.183Z</time></trkpt><trkpt lat="43.5424097" lon="11.3180554"><ele>488.0</ele><time>2026-03-28T15:14:05.184Z</time></trkpt><trkpt lat="43.5423462" lon="11.3181021"><ele>487.99999999999994</ele><time>2026-03-28T15:14:06.183Z</time></trkpt><trkpt lat="43.5422796" lon="11.3181341"><ele>488.0</ele><time>2026-03-28T15:14:07.183Z</time></trkpt><trkpt lat="43.5421997" lon="11.3181403"><ele>488.0</ele><time>2026-03-28T15:14:08.183Z</time></trkpt><trkpt lat="43.5421166" lon="11.3181168"><ele>488.0</ele><time>2026-03-28T15:14:09.184Z</time></trkpt><trkpt lat="43.5420282" lon="11.3180688"><ele>487.99999999999994</ele><time>2026-03-28T15:14:10.183Z</time></trkpt><trkpt lat="43.5419351" lon="11.3180083"><ele>488.0</ele><time>2026-03-28T15:14:11.183Z</time></trkpt><trkpt lat="43.5418469" lon="11.3179465"><ele>485.2</ele><time>2026-03-28T15:14:12.184Z</time></trkpt><trkpt lat="43.5417589" lon="11.3178859"><ele>482.4</ele><time>2026-03-28T15:14:13.184Z</time></trkpt><trkpt lat="43.5416646" lon="11.3178233"><ele>479.59999999999997</ele><time>2026-03-28T15:14:14.183Z</time></trkpt><trkpt lat="43.5415651" lon="11.3177619"><ele>476.79999999999995</ele><time>2026-03-28T15:14:15.183Z</time></trkpt><trkpt lat="43.541464" lon="11.3177155"><ele>474.0</ele><time>2026-03-28T15:14:16.183Z</time></trkpt><trkpt lat="43.541362" lon="11.3176851"><ele>474.0</ele><time>2026-03-28T15:14:17.183Z</time></trkpt><trkpt lat="43.5412582" lon="11.3176657"><ele>474.0</ele><time>2026-03-28T15:14:18.183Z</time></trkpt><trkpt lat="43.5411571" lon="11.3176568"><ele>474.0</ele><time>2026-03-28T15:14:19.184Z</time></trkpt><trkpt lat="43.5410544" lon="11.3176497"><ele>474.0</ele><time>2026-03-28T15:14:20.183Z</time></trkpt><trkpt lat="43.540945" lon="11.3176398"><ele>474.0</ele><time>2026-03-28T15:14:21.184Z</time></trkpt><trkpt lat="43.5408332" lon="11.3176287"><ele>472.75</ele><time>2026-03-28T15:14:22.183Z</time></trkpt><trkpt lat="43.5406098" lon="11.3176136"><ele>471.5</ele><time>2026-03-28T15:14:24.183Z</time></trkpt><trkpt lat="43.5405132" lon="11.3176119"><ele>470.25</ele><time>2026-03-28T15:14:25.184Z</time></trkpt><trkpt lat="43.5404378" lon="11.3176002"><ele>469.0</ele><time>2026-03-28T15:14:26.183Z</time></trkpt><trkpt lat="43.5403396" lon="11.3175022"><ele>467.2</ele><time>2026-03-28T15:14:28.184Z</time></trkpt><trkpt lat="43.5403164" lon="11.3173592"><ele>465.4</ele><time>2026-03-28T15:14:30.184Z</time></trkpt><trkpt lat="43.5403452" lon="11.3172696"><ele>463.6</ele><time>2026-03-28T15:14:32.184Z</time></trkpt><trkpt lat="43.540427" lon="11.3171573"><ele>461.8</ele><time>2026-03-28T15:14:42.183Z</time></trkpt><trkpt lat="43.5405388" lon="11.3170634"><ele>460.0</ele><time>2026-03-28T15:14:44.183Z</time></trkpt><trkpt lat="43.5406202" lon="11.3170074"><ele>458.6</ele><time>2026-03-28T15:14:45.182Z</time></trkpt><trkpt lat="43.5407064" lon="11.3169628"><ele>457.2</ele><time>2026-03-28T15:14:46.183Z</time></trkpt><trkpt lat="43.5408101" lon="11.316934"><ele>455.79999999999995</ele><time>2026-03-28T15:14:47.183Z</time></trkpt><trkpt lat="43.5409296" lon="11.3169347"><ele>454.4</ele><time>2026-03-28T15:14:48.183Z</time></trkpt><trkpt lat="43.5410515" lon="11.3169568"><ele>453.0</ele><time>2026-03-28T15:14:49.184Z</time></trkpt><trkpt lat="43.5411579" lon="11.3169886"><ele>453.4</ele><time>2026-03-28T15:14:50.184Z</time></trkpt><trkpt lat="43.5412629" lon="11.3170219"><ele>453.79999999999995</ele><time>2026-03-28T15:14:51.183Z</time></trkpt><trkpt lat="43.5413653" lon="11.3170524"><ele>454.2</ele><time>2026-03-28T15:14:52.184Z</time></trkpt><trkpt lat="43.5414677" lon="11.3170909"><ele>454.6</ele><time>2026-03-28T15:14:53.183Z</time></trkpt><trkpt lat="43.5415644" lon="11.3171283"><ele>455.0</ele><time>2026-03-28T15:14:54.184Z</time></trkpt><trkpt lat="43.5416612" lon="11.3171651"><ele>455.0</ele><time>2026-03-28T15:14:55.184Z</time></trkpt><trkpt lat="43.5417595" lon="11.3172015"><ele>455.0</ele><time>2026-03-28T15:14:56.183Z</time></trkpt><trkpt lat="43.541858" lon="11.3172326"><ele>455.0</ele><time>2026-03-28T15:14:57.183Z</time></trkpt><trkpt lat="43.5419611" lon="11.3172542"><ele>455.0</ele><time>2026-03-28T15:14:58.183Z</time></trkpt><trkpt lat="43.542063" lon="11.3172639"><ele>455.0</ele><time>2026-03-28T15:14:59.184Z</time></trkpt><trkpt lat="43.5421714" lon="11.3172571"><ele>458.5</ele><time>2026-03-28T15:15:00.183Z</time></trkpt><trkpt lat="43.542279" lon="11.3172001"><ele>462.0</ele><time>2026-03-28T15:15:01.183Z</time></trkpt><trkpt lat="43.5423824" lon="11.3171249"><ele>465.5</ele><time>2026-03-28T15:15:02.184Z</time></trkpt><trkpt lat="43.5424695" lon="11.3170297"><ele>469.0</ele><time>2026-03-28T15:15:03.184Z</time></trkpt><trkpt lat="43.5425551" lon="11.3169201"><ele>469.0</ele><time>2026-03-28T15:15:04.184Z</time></trkpt><trkpt lat="43.5426429" lon="11.3168116"><ele>469.0</ele><time>2026-03-28T15:15:05.183Z</time></trkpt><trkpt lat="43.5427284" lon="11.3167318"><ele>469.0</ele><time>2026-03-28T15:15:06.184Z</time></trkpt><trkpt lat="43.5428122" lon="11.3166804"><ele>469.0</ele><time>2026-03-28T15:15:07.183Z</time></trkpt><trkpt lat="43.5429016" lon="11.3166475"><ele>469.0</ele><time>2026-03-28T15:15:08.183Z</time></trkpt><trkpt lat="43.5429941" lon="11.3166187"><ele>471.4</ele><time>2026-03-28T15:15:09.183Z</time></trkpt><trkpt lat="43.5430896" lon="11.316589"><ele>473.79999999999995</ele><time>2026-03-28T15:15:10.182Z</time></trkpt><trkpt lat="43.5431889" lon="11.3165595"><ele>476.20000000000005</ele><time>2026-03-28T15:15:11.183Z</time></trkpt><trkpt lat="43.5432876" lon="11.3165309"><ele>478.6</ele><time>2026-03-28T15:15:12.183Z</time></trkpt><trkpt lat="43.5433868" lon="11.3164952"><ele>481.0</ele><time>2026-03-28T15:15:13.183Z</time></trkpt><trkpt lat="43.5434933" lon="11.3164537"><ele>481.0</ele><time>2026-03-28T15:15:14.183Z</time></trkpt><trkpt lat="43.5436013" lon="11.3164198"><ele>481.0</ele><time>2026-03-28T15:15:15.183Z</time></trkpt><trkpt lat="43.5437106" lon="11.3163919"><ele>481.0</ele><time>2026-03-28T15:15:16.183Z</time></trkpt><trkpt lat="43.5438284" lon="11.3163547"><ele>481.0</ele><time>2026-03-28T15:15:17.183Z</time></trkpt><trkpt lat="43.5439416" lon="11.316317"><ele>478.8</ele><time>2026-03-28T15:15:18.183Z</time></trkpt><trkpt lat="43.5440533" lon="11.3162841"><ele>476.6</ele><time>2026-03-28T15:15:19.184Z</time></trkpt><trkpt lat="43.5441615" lon="11.3162518"><ele>474.4</ele><time>2026-03-28T15:15:20.183Z</time></trkpt><trkpt lat="43.5442627" lon="11.3162196"><ele>472.2</ele><time>2026-03-28T15:15:21.183Z</time></trkpt><trkpt lat="43.5443506" lon="11.316199"><ele>470.0</ele><time>2026-03-28T15:15:22.183Z</time></trkpt><trkpt lat="43.5444288" lon="11.3161792"><ele>470.0</ele><time>2026-03-28T15:15:23.183Z</time></trkpt><trkpt lat="43.5444999" lon="11.3161573"><ele>469.99999999999994</ele><time>2026-03-28T15:15:24.183Z</time></trkpt><trkpt lat="43.5445687" lon="11.3161374"><ele>470.0</ele><time>2026-03-28T15:15:25.184Z</time></trkpt><trkpt lat="43.5446442" lon="11.3161186"><ele>470.0</ele><time>2026-03-28T15:15:26.183Z</time></trkpt><trkpt lat="43.544717" lon="11.3160977"><ele>469.99999999999994</ele><time>2026-03-28T15:15:27.184Z</time></trkpt><trkpt lat="43.544792" lon="11.3160764"><ele>470.0</ele><time>2026-03-28T15:15:28.183Z</time></trkpt><trkpt lat="43.5448686" lon="11.3160693"><ele>470.0</ele><time>2026-03-28T15:15:29.183Z</time></trkpt><trkpt lat="43.5449375" lon="11.3160878"><ele>470.8333333333333</ele><time>2026-03-28T15:15:30.183Z</time></trkpt><trkpt lat="43.5449956" lon="11.3161338"><ele>471.66666666666663</ele><time>2026-03-28T15:15:31.184Z</time></trkpt><trkpt lat="43.5450465" lon="11.3162027"><ele>472.5</ele><time>2026-03-28T15:15:32.183Z</time></trkpt><trkpt lat="43.5450821" lon="11.3163058"><ele>473.33333333333337</ele><time>2026-03-28T15:15:33.183Z</time></trkpt><trkpt lat="43.5450961" lon="11.3164391"><ele>474.1666666666667</ele><time>2026-03-28T15:15:34.184Z</time></trkpt><trkpt lat="43.5450905" lon="11.3165886"><ele>475.0</ele><time>2026-03-28T15:15:35.183Z</time></trkpt><trkpt lat="43.545084" lon="11.3167521"><ele>475.5</ele><time>2026-03-28T15:15:36.183Z</time></trkpt><trkpt lat="43.5450899" lon="11.3169096"><ele>476.0</ele><time>2026-03-28T15:15:37.183Z</time></trkpt><trkpt lat="43.5451056" lon="11.3170814"><ele>476.5</ele><time>2026-03-28T15:15:38.183Z</time></trkpt><trkpt lat="43.5451419" lon="11.3172532"><ele>477.0</ele><time>2026-03-28T15:15:39.183Z</time></trkpt><trkpt lat="43.5452039" lon="11.3174097"><ele>478.25</ele><time>2026-03-28T15:15:40.183Z</time></trkpt><trkpt lat="43.5452826" lon="11.3175382"><ele>479.5</ele><time>2026-03-28T15:15:41.183Z</time></trkpt><trkpt lat="43.5453773" lon="11.3176348"><ele>480.75</ele><time>2026-03-28T15:15:42.183Z</time></trkpt><trkpt lat="43.5454951" lon="11.3176996"><ele>482.0</ele><time>2026-03-28T15:15:43.184Z</time></trkpt><trkpt lat="43.5456271" lon="11.3177366"><ele>478.75</ele><time>2026-03-28T15:15:44.183Z</time></trkpt><trkpt lat="43.5457579" lon="11.3177613"><ele>475.5</ele><time>2026-03-28T15:15:45.184Z</time></trkpt><trkpt lat="43.5458804" lon="11.3177784"><ele>472.25</ele><time>2026-03-28T15:15:46.184Z</time></trkpt><trkpt lat="43.5459969" lon="11.3177891"><ele>469.0</ele><time>2026-03-28T15:15:47.183Z</time></trkpt><trkpt lat="43.5461113" lon="11.3178122"><ele>467.0</ele><time>2026-03-28T15:15:48.183Z</time></trkpt><trkpt lat="43.5462182" lon="11.3178408"><ele>465.0</ele><time>2026-03-28T15:15:49.183Z</time></trkpt><trkpt lat="43.5463158" lon="11.3178791"><ele>463.0</ele><time>2026-03-28T15:15:50.183Z</time></trkpt><trkpt lat="43.5463968" lon="11.3179442"><ele>461.0</ele><time>2026-03-28T15:15:51.184Z</time></trkpt><trkpt lat="43.5464566" lon="11.3180351"><ele>459.0</ele><time>2026-03-28T15:15:52.184Z</time></trkpt><trkpt lat="43.5464878" lon="11.3181463"><ele>459.0</ele><time>2026-03-28T15:15:53.184Z</time></trkpt><trkpt lat="43.5465019" lon="11.3182707"><ele>459.0</ele><time>2026-03-28T15:15:54.183Z</time></trkpt><trkpt lat="43.5465016" lon="11.3184023"><ele>459.0</ele><time>2026-03-28T15:15:55.184Z</time></trkpt><trkpt lat="43.5464982" lon="11.3185336"><ele>459.0</ele><time>2026-03-28T15:15:56.183Z</time></trkpt><trkpt lat="43.5464931" lon="11.3186707"><ele>459.0</ele><time>2026-03-28T15:15:57.183Z</time></trkpt><trkpt lat="43.5464964" lon="11.3188127"><ele>459.75</ele><time>2026-03-28T15:15:58.184Z</time></trkpt><trkpt lat="43.5465177" lon="11.3189636"><ele>460.5</ele><time>2026-03-28T15:15:59.184Z</time></trkpt><trkpt lat="43.5465652" lon="11.3191141"><ele>461.25</ele><time>2026-03-28T15:16:00.183Z</time></trkpt><trkpt lat="43.5466293" lon="11.3192538"><ele>462.0</ele><time>2026-03-28T15:16:01.184Z</time></trkpt><trkpt lat="43.5467003" lon="11.319379"><ele>462.0</ele><time>2026-03-28T15:16:02.183Z</time></trkpt><trkpt lat="43.5467837" lon="11.3194818"><ele>462.0</ele><time>2026-03-28T15:16:03.183Z</time></trkpt><trkpt lat="43.5468782" lon="11.3195721"><ele>462.0</ele><time>2026-03-28T15:16:04.183Z</time></trkpt><trkpt lat="43.5469833" lon="11.3196613"><ele>462.0</ele><time>2026-03-28T15:16:05.184Z</time></trkpt><trkpt lat="43.5470929" lon="11.3197521"><ele>460.40000000000003</ele><time>2026-03-28T15:16:06.183Z</time></trkpt><trkpt lat="43.5471942" lon="11.3198402"><ele>458.80000000000007</ele><time>2026-03-28T15:16:07.183Z</time></trkpt><trkpt lat="43.5472897" lon="11.3199285"><ele>457.2</ele><time>2026-03-28T15:16:08.183Z</time></trkpt><trkpt lat="43.5473799" lon="11.3200126"><ele>455.6</ele><time>2026-03-28T15:16:09.184Z</time></trkpt><trkpt lat="43.5474646" lon="11.3200967"><ele>454.0</ele><time>2026-03-28T15:16:10.183Z</time></trkpt><trkpt lat="43.5475395" lon="11.3201899"><ele>454.0</ele><time>2026-03-28T15:16:11.183Z</time></trkpt><trkpt lat="43.5475938" lon="11.3202982"><ele>454.0</ele><time>2026-03-28T15:16:12.184Z</time></trkpt><trkpt lat="43.5476123" lon="11.3204173"><ele>454.0</ele><time>2026-03-28T15:16:13.184Z</time></trkpt><trkpt lat="43.5475945" lon="11.3205417"><ele>454.0</ele><time>2026-03-28T15:16:14.183Z</time></trkpt><trkpt lat="43.547555" lon="11.3206642"><ele>454.0</ele><time>2026-03-28T15:16:15.183Z</time></trkpt><trkpt lat="43.5474967" lon="11.3207667"><ele>454.6</ele><time>2026-03-28T15:16:16.183Z</time></trkpt><trkpt lat="43.5474186" lon="11.3208544"><ele>455.2</ele><time>2026-03-28T15:16:17.183Z</time></trkpt><trkpt lat="43.5473255" lon="11.3209078"><ele>455.80000000000007</ele><time>2026-03-28T15:16:18.183Z</time></trkpt><trkpt lat="43.547228" lon="11.3209282"><ele>456.40000000000003</ele><time>2026-03-28T15:16:19.184Z</time></trkpt><trkpt lat="43.5471305" lon="11.3209473"><ele>457.0</ele><time>2026-03-28T15:16:20.183Z</time></trkpt><trkpt lat="43.547035" lon="11.3209705"><ele>457.0</ele><time>2026-03-28T15:16:21.184Z</time></trkpt><trkpt lat="43.5469393" lon="11.3210112"><ele>457.00000000000006</ele><time>2026-03-28T15:16:22.182Z</time></trkpt><trkpt lat="43.5468432" lon="11.3210666"><ele>457.00000000000006</ele><time>2026-03-28T15:16:23.183Z</time></trkpt><trkpt lat="43.5467494" lon="11.321128"><ele>457.0</ele><time>2026-03-28T15:16:24.184Z</time></trkpt><trkpt lat="43.546654" lon="11.3211832"><ele>457.0</ele><time>2026-03-28T15:16:25.184Z</time></trkpt><trkpt lat="43.5465559" lon="11.3212238"><ele>457.0</ele><time>2026-03-28T15:16:26.182Z</time></trkpt><trkpt lat="43.5464565" lon="11.3212457"><ele>457.00000000000006</ele><time>2026-03-28T15:16:27.184Z</time></trkpt><trkpt lat="43.5463488" lon="11.3212489"><ele>457.00000000000006</ele><time>2026-03-28T15:16:28.184Z</time></trkpt><trkpt lat="43.5462359" lon="11.3212422"><ele>457.0</ele><time>2026-03-28T15:16:29.183Z</time></trkpt><trkpt lat="43.5461115" lon="11.3212425"><ele>457.0</ele><time>2026-03-28T15:16:30.183Z</time></trkpt><trkpt lat="43.545984" lon="11.3212504"><ele>456.75</ele><time>2026-03-28T15:16:31.183Z</time></trkpt><trkpt lat="43.5458594" lon="11.3212619"><ele>456.5</ele><time>2026-03-28T15:16:32.184Z</time></trkpt><trkpt lat="43.5457307" lon="11.3212674"><ele>456.25</ele><time>2026-03-28T15:16:33.183Z</time></trkpt><trkpt lat="43.545594" lon="11.3212682"><ele>456.0</ele><time>2026-03-28T15:16:34.183Z</time></trkpt><trkpt lat="43.5454585" lon="11.3212728"><ele>455.0</ele><time>2026-03-28T15:16:35.184Z</time></trkpt><trkpt lat="43.5453253" lon="11.32128"><ele>454.0</ele><time>2026-03-28T15:16:36.184Z</time></trkpt><trkpt lat="43.5452001" lon="11.3212844"><ele>453.0</ele><time>2026-03-28T15:16:37.184Z</time></trkpt><trkpt lat="43.5450794" lon="11.3212913"><ele>452.0</ele><time>2026-03-28T15:16:38.184Z</time></trkpt><trkpt lat="43.5449638" lon="11.3212982"><ele>452.0</ele><time>2026-03-28T15:16:39.183Z</time></trkpt><trkpt lat="43.5448512" lon="11.3213016"><ele>452.00000000000006</ele><time>2026-03-28T15:16:40.183Z</time></trkpt><trkpt lat="43.5447419" lon="11.3213019"><ele>452.00000000000006</ele><time>2026-03-28T15:16:41.183Z</time></trkpt><trkpt lat="43.5446323" lon="11.3213048"><ele>452.0</ele><time>2026-03-28T15:16:42.183Z</time></trkpt><trkpt lat="43.5445204" lon="11.3213115"><ele>452.0</ele><time>2026-03-28T15:16:43.183Z</time></trkpt><trkpt lat="43.5444059" lon="11.3213253"><ele>451.6</ele><time>2026-03-28T15:16:44.183Z</time></trkpt><trkpt lat="43.5442917" lon="11.3213476"><ele>451.20000000000005</ele><time>2026-03-28T15:16:45.183Z</time></trkpt><trkpt lat="43.544182" lon="11.3214006"><ele>450.8</ele><time>2026-03-28T15:16:46.183Z</time></trkpt><trkpt lat="43.5441042" lon="11.321499"><ele>450.4</ele><time>2026-03-28T15:16:47.183Z</time></trkpt><trkpt lat="43.544064" lon="11.3216133"><ele>450.0</ele><time>2026-03-28T15:16:48.183Z</time></trkpt><trkpt lat="43.5440536" lon="11.3217462"><ele>447.0</ele><time>2026-03-28T15:16:49.183Z</time></trkpt><trkpt lat="43.5440691" lon="11.3219024"><ele>444.0</ele><time>2026-03-28T15:16:50.182Z</time></trkpt><trkpt lat="43.5441083" lon="11.3220657"><ele>441.0</ele><time>2026-03-28T15:16:51.183Z</time></trkpt><trkpt lat="43.5441583" lon="11.3222129"><ele>438.0</ele><time>2026-03-28T15:16:52.184Z</time></trkpt><trkpt lat="43.5442116" lon="11.3223624"><ele>437.25</ele><time>2026-03-28T15:16:53.183Z</time></trkpt><trkpt lat="43.5442611" lon="11.3225039"><ele>436.5</ele><time>2026-03-28T15:16:54.183Z</time></trkpt><trkpt lat="43.5443128" lon="11.322644"><ele>435.75</ele><time>2026-03-28T15:16:55.183Z</time></trkpt><trkpt lat="43.5443638" lon="11.3227833"><ele>435.0</ele><time>2026-03-28T15:16:56.183Z</time></trkpt><trkpt lat="43.5444123" lon="11.3229227"><ele>435.0</ele><time>2026-03-28T15:16:57.184Z</time></trkpt><trkpt lat="43.5444629" lon="11.3230629"><ele>435.0</ele><time>2026-03-28T15:16:58.184Z</time></trkpt><trkpt lat="43.5445106" lon="11.3232023"><ele>435.0</ele><time>2026-03-28T15:16:59.183Z</time></trkpt><trkpt lat="43.544553" lon="11.3233439"><ele>435.0</ele><time>2026-03-28T15:17:00.184Z</time></trkpt><trkpt lat="43.5445856" lon="11.323489"><ele>435.0</ele><time>2026-03-28T15:17:01.183Z</time></trkpt><trkpt lat="43.5445973" lon="11.3236321"><ele>433.8</ele><time>2026-03-28T15:17:02.184Z</time></trkpt><trkpt lat="43.5445915" lon="11.3237694"><ele>432.6</ele><time>2026-03-28T15:17:03.184Z</time></trkpt><trkpt lat="43.544572" lon="11.3239081"><ele>431.4</ele><time>2026-03-28T15:17:04.183Z</time></trkpt><trkpt lat="43.5445323" lon="11.3240409"><ele>430.2</ele><time>2026-03-28T15:17:05.184Z</time></trkpt><trkpt lat="43.5444772" lon="11.3241629"><ele>429.0</ele><time>2026-03-28T15:17:06.183Z</time></trkpt><trkpt lat="43.5444078" lon="11.3242704"><ele>429.0</ele><time>2026-03-28T15:17:07.183Z</time></trkpt><trkpt lat="43.5443354" lon="11.3243747"><ele>429.0</ele><time>2026-03-28T15:17:08.183Z</time></trkpt><trkpt lat="43.5442611" lon="11.3244863"><ele>429.0</ele><time>2026-03-28T15:17:09.184Z</time></trkpt><trkpt lat="43.5442006" lon="11.3246235"><ele>429.0</ele><time>2026-03-28T15:17:10.184Z</time></trkpt><trkpt lat="43.5441697" lon="11.3247977"><ele>427.25</ele><time>2026-03-28T15:17:11.184Z</time></trkpt><trkpt lat="43.5441644" lon="11.3249903"><ele>425.5</ele><time>2026-03-28T15:17:12.184Z</time></trkpt><trkpt lat="43.5441727" lon="11.3251748"><ele>423.75</ele><time>2026-03-28T15:17:13.183Z</time></trkpt><trkpt lat="43.5441834" lon="11.3253633"><ele>422.0</ele><time>2026-03-28T15:17:14.183Z</time></trkpt><trkpt lat="43.5441965" lon="11.3255514"><ele>421.5</ele><time>2026-03-28T15:17:15.184Z</time></trkpt><trkpt lat="43.5442183" lon="11.3257445"><ele>421.0</ele><time>2026-03-28T15:17:16.184Z</time></trkpt><trkpt lat="43.5442544" lon="11.3259395"><ele>420.5</ele><time>2026-03-28T15:17:17.184Z</time></trkpt><trkpt lat="43.5442908" lon="11.3261342"><ele>420.0</ele><time>2026-03-28T15:17:18.183Z</time></trkpt><trkpt lat="43.54432" lon="11.3263137"><ele>421.0</ele><time>2026-03-28T15:17:19.183Z</time></trkpt><trkpt lat="43.5443402" lon="11.3264849"><ele>422.0</ele><time>2026-03-28T15:17:20.184Z</time></trkpt><trkpt lat="43.5443505" lon="11.3266443"><ele>423.0</ele><time>2026-03-28T15:17:21.184Z</time></trkpt><trkpt lat="43.544378" lon="11.3267974"><ele>424.0</ele><time>2026-03-28T15:17:22.184Z</time></trkpt><trkpt lat="43.5444255" lon="11.3269497"><ele>424.0</ele><time>2026-03-28T15:17:23.184Z</time></trkpt><trkpt lat="43.5445094" lon="11.3270781"><ele>424.0</ele><time>2026-03-28T15:17:24.183Z</time></trkpt><trkpt lat="43.5446161" lon="11.3271694"><ele>424.0</ele><time>2026-03-28T15:17:25.184Z</time></trkpt><trkpt lat="43.5447397" lon="11.3272049"><ele>424.0</ele><time>2026-03-28T15:17:26.183Z</time></trkpt><trkpt lat="43.5448648" lon="11.3271843"><ele>421.0</ele><time>2026-03-28T15:17:27.184Z</time></trkpt><trkpt lat="43.5449907" lon="11.3270987"><ele>418.0</ele><time>2026-03-28T15:17:28.183Z</time></trkpt><trkpt lat="43.5451022" lon="11.3269672"><ele>415.0</ele><time>2026-03-28T15:17:29.184Z</time></trkpt><trkpt lat="43.5452085" lon="11.3268102"><ele>412.0</ele><time>2026-03-28T15:17:30.184Z</time></trkpt><trkpt lat="43.5453062" lon="11.3266531"><ele>410.33333333333337</ele><time>2026-03-28T15:17:31.183Z</time></trkpt><trkpt lat="43.5454034" lon="11.3264903"><ele>408.66666666666663</ele><time>2026-03-28T15:17:32.184Z</time></trkpt><trkpt lat="43.5454987" lon="11.3263261"><ele>407.0</ele><time>2026-03-28T15:17:33.184Z</time></trkpt><trkpt lat="43.5455877" lon="11.3261611"><ele>407.0</ele><time>2026-03-28T15:17:34.183Z</time></trkpt><trkpt lat="43.5456594" lon="11.3259792"><ele>407.0</ele><time>2026-03-28T15:17:35.183Z</time></trkpt><trkpt lat="43.5457199" lon="11.3257901"><ele>407.0</ele><time>2026-03-28T15:17:36.184Z</time></trkpt><trkpt lat="43.5457773" lon="11.3255974"><ele>406.3333333333333</ele><time>2026-03-28T15:17:37.184Z</time></trkpt><trkpt lat="43.5458373" lon="11.3254029"><ele>405.66666666666663</ele><time>2026-03-28T15:17:38.184Z</time></trkpt><trkpt lat="43.5459004" lon="11.3252058"><ele>405.0</ele><time>2026-03-28T15:17:39.183Z</time></trkpt><trkpt lat="43.5459648" lon="11.3250077"><ele>405.0</ele><time>2026-03-28T15:17:40.183Z</time></trkpt><trkpt lat="43.5460258" lon="11.3248014"><ele>405.0</ele><time>2026-03-28T15:17:41.184Z</time></trkpt><trkpt lat="43.5460793" lon="11.3246026"><ele>405.0</ele><time>2026-03-28T15:17:42.183Z</time></trkpt><trkpt lat="43.5461319" lon="11.3244116"><ele>404.5</ele><time>2026-03-28T15:17:43.183Z</time></trkpt><trkpt lat="43.5461874" lon="11.3242315"><ele>404.0</ele><time>2026-03-28T15:17:44.183Z</time></trkpt><trkpt lat="43.5462389" lon="11.3240582"><ele>403.5</ele><time>2026-03-28T15:17:45.182Z</time></trkpt><trkpt lat="43.5463014" lon="11.3239038"><ele>403.0</ele><time>2026-03-28T15:17:46.184Z</time></trkpt><trkpt lat="43.546402" lon="11.3237863"><ele>403.0</ele><time>2026-03-28T15:17:47.183Z</time></trkpt><trkpt lat="43.5465295" lon="11.3237173"><ele>403.0</ele><time>2026-03-28T15:17:48.184Z</time></trkpt><trkpt lat="43.5466685" lon="11.3236761"><ele>403.0</ele><time>2026-03-28T15:17:49.184Z</time></trkpt><trkpt lat="43.5468151" lon="11.3236298"><ele>403.0</ele><time>2026-03-28T15:17:50.184Z</time></trkpt><trkpt lat="43.5469707" lon="11.3235811"><ele>400.33333333333337</ele><time>2026-03-28T15:17:51.184Z</time></trkpt><trkpt lat="43.5471319" lon="11.3235371"><ele>397.66666666666663</ele><time>2026-03-28T15:17:52.183Z</time></trkpt><trkpt lat="43.5473013" lon="11.3234963"><ele>395.0</ele><time>2026-03-28T15:17:53.183Z</time></trkpt><trkpt lat="43.5474736" lon="11.3234578"><ele>395.0</ele><time>2026-03-28T15:17:54.183Z</time></trkpt><trkpt lat="43.5476468" lon="11.3234185"><ele>395.0</ele><time>2026-03-28T15:17:55.184Z</time></trkpt><trkpt lat="43.5478263" lon="11.3233828"><ele>395.0</ele><time>2026-03-28T15:17:56.184Z</time></trkpt><trkpt lat="43.5479968" lon="11.3233423"><ele>393.0</ele><time>2026-03-28T15:17:57.184Z</time></trkpt><trkpt lat="43.5481653" lon="11.3232961"><ele>391.0</ele><time>2026-03-28T15:17:58.183Z</time></trkpt><trkpt lat="43.5483378" lon="11.323251"><ele>389.0</ele><time>2026-03-28T15:17:59.184Z</time></trkpt><trkpt lat="43.5485045" lon="11.3232106"><ele>389.0</ele><time>2026-03-28T15:18:00.184Z</time></trkpt><trkpt lat="43.5486638" lon="11.3231756"><ele>389.0</ele><time>2026-03-28T15:18:01.184Z</time></trkpt><trkpt lat="43.548817" lon="11.3231432"><ele>389.0</ele><time>2026-03-28T15:18:02.183Z</time></trkpt><trkpt lat="43.5489696" lon="11.3231122"><ele>386.66666666666663</ele><time>2026-03-28T15:18:03.183Z</time></trkpt><trkpt lat="43.5491188" lon="11.3230768"><ele>384.3333333333333</ele><time>2026-03-28T15:18:04.184Z</time></trkpt><trkpt lat="43.5492702" lon="11.3230305"><ele>382.0</ele><time>2026-03-28T15:18:05.183Z</time></trkpt><trkpt lat="43.5494186" lon="11.3229873"><ele>385.25</ele><time>2026-03-28T15:18:06.183Z</time></trkpt><trkpt lat="43.549559" lon="11.3229504"><ele>388.5</ele><time>2026-03-28T15:18:07.183Z</time></trkpt><trkpt lat="43.5496956" lon="11.3229326"><ele>391.75</ele><time>2026-03-28T15:18:08.184Z</time></trkpt><trkpt lat="43.5498317" lon="11.3229529"><ele>395.0</ele><time>2026-03-28T15:18:09.183Z</time></trkpt><trkpt lat="43.5499649" lon="11.3230106"><ele>395.0</ele><time>2026-03-28T15:18:10.184Z</time></trkpt><trkpt lat="43.550097" lon="11.3230984"><ele>395.0</ele><time>2026-03-28T15:18:11.184Z</time></trkpt><trkpt lat="43.5502224" lon="11.3232107"><ele>395.0</ele><time>2026-03-28T15:18:12.182Z</time></trkpt><trkpt lat="43.550341" lon="11.3233422"><ele>395.0</ele><time>2026-03-28T15:18:13.183Z</time></trkpt><trkpt lat="43.5504488" lon="11.3234764"><ele>395.0</ele><time>2026-03-28T15:18:14.183Z</time></trkpt><trkpt lat="43.5505536" lon="11.3236056"><ele>395.0</ele><time>2026-03-28T15:18:15.183Z</time></trkpt><trkpt lat="43.5506726" lon="11.32373"><ele>395.0</ele><time>2026-03-28T15:18:16.183Z</time></trkpt><trkpt lat="43.5508101" lon="11.3238183"><ele>395.0</ele><time>2026-03-28T15:18:17.183Z</time></trkpt><trkpt lat="43.550952" lon="11.3238829"><ele>389.66666666666663</ele><time>2026-03-28T15:18:18.184Z</time></trkpt><trkpt lat="43.5511026" lon="11.3239439"><ele>384.3333333333333</ele><time>2026-03-28T15:18:19.184Z</time></trkpt><trkpt lat="43.5512529" lon="11.3240153"><ele>379.0</ele><time>2026-03-28T15:18:20.183Z</time></trkpt><trkpt lat="43.5513994" lon="11.3240869"><ele>379.0</ele><time>2026-03-28T15:18:21.183Z</time></trkpt><trkpt lat="43.5515526" lon="11.3241532"><ele>379.0</ele><time>2026-03-28T15:18:22.184Z</time></trkpt><trkpt lat="43.5516945" lon="11.3242045"><ele>379.0</ele><time>2026-03-28T15:18:23.184Z</time></trkpt><trkpt lat="43.5518444" lon="11.3242323"><ele>379.0</ele><time>2026-03-28T15:18:24.183Z</time></trkpt><trkpt lat="43.551999" lon="11.3242262"><ele>379.0</ele><time>2026-03-28T15:18:25.183Z</time></trkpt><trkpt lat="43.5521543" lon="11.3242057"><ele>379.0</ele><time>2026-03-28T15:18:26.183Z</time></trkpt><trkpt lat="43.5523103" lon="11.3241895"><ele>378.5</ele><time>2026-03-28T15:18:27.184Z</time></trkpt><trkpt lat="43.5524642" lon="11.3241778"><ele>378.0</ele><time>2026-03-28T15:18:28.184Z</time></trkpt><trkpt lat="43.5526137" lon="11.3241722"><ele>377.5</ele><time>2026-03-28T15:18:29.183Z</time></trkpt><trkpt lat="43.5527582" lon="11.3241556"><ele>377.0</ele><time>2026-03-28T15:18:30.182Z</time></trkpt><trkpt lat="43.5528967" lon="11.3241768"><ele>378.0</ele><time>2026-03-28T15:18:31.184Z</time></trkpt><trkpt lat="43.5530287" lon="11.3242299"><ele>379.0</ele><time>2026-03-28T15:18:32.184Z</time></trkpt><trkpt lat="43.553137" lon="11.324328"><ele>380.0</ele><time>2026-03-28T15:18:33.184Z</time></trkpt><trkpt lat="43.5532091" lon="11.3244912"><ele>381.0</ele><time>2026-03-28T15:18:34.184Z</time></trkpt><trkpt lat="43.5532472" lon="11.3246669"><ele>377.5</ele><time>2026-03-28T15:18:35.184Z</time></trkpt><trkpt lat="43.5532851" lon="11.3248278"><ele>374.0</ele><time>2026-03-28T15:18:36.182Z</time></trkpt><trkpt lat="43.5533157" lon="11.3249849"><ele>370.5</ele><time>2026-03-28T15:18:37.183Z</time></trkpt><trkpt lat="43.5533454" lon="11.3251333"><ele>367.0</ele><time>2026-03-28T15:18:38.183Z</time></trkpt><trkpt lat="43.5533927" lon="11.3252618"><ele>367.0</ele><time>2026-03-28T15:18:39.183Z</time></trkpt><trkpt lat="43.5534715" lon="11.3253669"><ele>367.0</ele><time>2026-03-28T15:18:40.183Z</time></trkpt><trkpt lat="43.553556" lon="11.3254565"><ele>367.0</ele><time>2026-03-28T15:18:41.182Z</time></trkpt><trkpt lat="43.5536948" lon="11.3254041"><ele>367.0</ele><time>2026-03-28T15:18:42.183Z</time></trkpt><trkpt lat="43.5537964" lon="11.3253507"><ele>366.5</ele><time>2026-03-28T15:18:43.184Z</time></trkpt><trkpt lat="43.5539078" lon="11.3252671"><ele>366.0</ele><time>2026-03-28T15:18:44.184Z</time></trkpt><trkpt lat="43.554019" lon="11.3251569"><ele>365.5</ele><time>2026-03-28T15:18:45.183Z</time></trkpt><trkpt lat="43.554136" lon="11.3250324"><ele>365.0</ele><time>2026-03-28T15:18:46.184Z</time></trkpt><trkpt lat="43.5542494" lon="11.3248946"><ele>365.0</ele><time>2026-03-28T15:18:47.182Z</time></trkpt><trkpt lat="43.5543632" lon="11.3247697"><ele>365.0</ele><time>2026-03-28T15:18:48.183Z</time></trkpt><trkpt lat="43.5544732" lon="11.3246502"><ele>365.0</ele><time>2026-03-28T15:18:49.184Z</time></trkpt><trkpt lat="43.554593" lon="11.324566"><ele>365.0</ele><time>2026-03-28T15:18:50.184Z</time></trkpt><trkpt lat="43.5547309" lon="11.3245347"><ele>365.0</ele><time>2026-03-28T15:18:51.184Z</time></trkpt><trkpt lat="43.5548721" lon="11.324554"><ele>365.0</ele><time>2026-03-28T15:18:52.183Z</time></trkpt><trkpt lat="43.5549946" lon="11.3245971"><ele>365.0</ele><time>2026-03-28T15:18:53.184Z</time></trkpt><trkpt lat="43.5551136" lon="11.3246378"><ele>365.0</ele><time>2026-03-28T15:18:54.184Z</time></trkpt><trkpt lat="43.5552278" lon="11.3246731"><ele>365.0</ele><time>2026-03-28T15:18:55.184Z</time></trkpt><trkpt lat="43.5553506" lon="11.3246916"><ele>365.0</ele><time>2026-03-28T15:18:56.183Z</time></trkpt><trkpt lat="43.5554738" lon="11.3246656"><ele>365.0</ele><time>2026-03-28T15:18:57.184Z</time></trkpt><trkpt lat="43.5555991" lon="11.3246005"><ele>365.0</ele><time>2026-03-28T15:18:58.183Z</time></trkpt><trkpt lat="43.5557231" lon="11.3245051"><ele>361.75</ele><time>2026-03-28T15:18:59.183Z</time></trkpt><trkpt lat="43.5558481" lon="11.3243949"><ele>358.5</ele><time>2026-03-28T15:19:00.183Z</time></trkpt><trkpt lat="43.5559731" lon="11.3242935"><ele>355.25</ele><time>2026-03-28T15:19:01.183Z</time></trkpt><trkpt lat="43.5560964" lon="11.3241957"><ele>352.0</ele><time>2026-03-28T15:19:02.183Z</time></trkpt><trkpt lat="43.5562228" lon="11.3240919"><ele>351.0</ele><time>2026-03-28T15:19:03.183Z</time></trkpt><trkpt lat="43.5563462" lon="11.3239772"><ele>350.0</ele><time>2026-03-28T15:19:04.183Z</time></trkpt><trkpt lat="43.5564665" lon="11.3238668"><ele>349.0</ele><time>2026-03-28T15:19:05.184Z</time></trkpt><trkpt lat="43.5565835" lon="11.3237622"><ele>348.0</ele><time>2026-03-28T15:19:06.183Z</time></trkpt><trkpt lat="43.5566999" lon="11.323661"><ele>348.0</ele><time>2026-03-28T15:19:07.183Z</time></trkpt><trkpt lat="43.5568223" lon="11.3235589"><ele>348.0</ele><time>2026-03-28T15:19:08.183Z</time></trkpt><trkpt lat="43.556944" lon="11.3234491"><ele>348.0</ele><time>2026-03-28T15:19:09.183Z</time></trkpt><trkpt lat="43.5570627" lon="11.3233298"><ele>348.0</ele><time>2026-03-28T15:19:10.183Z</time></trkpt><trkpt lat="43.5571776" lon="11.3231916"><ele>348.3333333333333</ele><time>2026-03-28T15:19:11.184Z</time></trkpt><trkpt lat="43.5572922" lon="11.3230384"><ele>348.66666666666663</ele><time>2026-03-28T15:19:12.184Z</time></trkpt><trkpt lat="43.5574297" lon="11.3229358"><ele>349.0</ele><time>2026-03-28T15:19:13.183Z</time></trkpt><trkpt lat="43.5575868" lon="11.3228613"><ele>349.0</ele><time>2026-03-28T15:19:14.184Z</time></trkpt><trkpt lat="43.557764" lon="11.3227852"><ele>349.0</ele><time>2026-03-28T15:19:15.183Z</time></trkpt><trkpt lat="43.5579613" lon="11.3227195"><ele>349.0</ele><time>2026-03-28T15:19:16.183Z</time></trkpt><trkpt lat="43.5581513" lon="11.322657"><ele>345.3333333333333</ele><time>2026-03-28T15:19:17.184Z</time></trkpt><trkpt lat="43.5583556" lon="11.3225862"><ele>341.6666666666667</ele><time>2026-03-28T15:19:18.184Z</time></trkpt><trkpt lat="43.5585407" lon="11.322531"><ele>338.0</ele><time>2026-03-28T15:19:19.183Z</time></trkpt><trkpt lat="43.5587008" lon="11.3224853"><ele>336.75</ele><time>2026-03-28T15:19:20.184Z</time></trkpt><trkpt lat="43.5588345" lon="11.322448"><ele>335.5</ele><time>2026-03-28T15:19:21.184Z</time></trkpt><trkpt lat="43.558957" lon="11.3224204"><ele>334.25</ele><time>2026-03-28T15:19:22.184Z</time></trkpt><trkpt lat="43.5590631" lon="11.322427"><ele>333.0</ele><time>2026-03-28T15:19:23.184Z</time></trkpt><trkpt lat="43.559162" lon="11.3224693"><ele>333.0</ele><time>2026-03-28T15:19:24.183Z</time></trkpt><trkpt lat="43.5592629" lon="11.322552"><ele>333.0</ele><time>2026-03-28T15:19:25.184Z</time></trkpt><trkpt lat="43.559344" lon="11.3226865"><ele>333.0</ele><time>2026-03-28T15:19:26.183Z</time></trkpt><trkpt lat="43.5593934" lon="11.3228403"><ele>333.0</ele><time>2026-03-28T15:19:27.184Z</time></trkpt><trkpt lat="43.5594355" lon="11.3229751"><ele>332.0</ele><time>2026-03-28T15:19:28.182Z</time></trkpt><trkpt lat="43.559477" lon="11.3231007"><ele>331.0</ele><time>2026-03-28T15:19:29.184Z</time></trkpt><trkpt lat="43.5595234" lon="11.3232195"><ele>330.0</ele><time>2026-03-28T15:19:30.184Z</time></trkpt><trkpt lat="43.5595957" lon="11.3233381"><ele>329.0</ele><time>2026-03-28T15:19:31.184Z</time></trkpt><trkpt lat="43.559703" lon="11.3234597"><ele>328.0</ele><time>2026-03-28T15:19:32.183Z</time></trkpt><trkpt lat="43.559821" lon="11.3235769"><ele>328.0</ele><time>2026-03-28T15:19:33.183Z</time></trkpt><trkpt lat="43.5599464" lon="11.3237042"><ele>328.0</ele><time>2026-03-28T15:19:34.183Z</time></trkpt><trkpt lat="43.5600905" lon="11.3238465"><ele>328.0</ele><time>2026-03-28T15:19:35.183Z</time></trkpt><trkpt lat="43.5602378" lon="11.3239994"><ele>326.0</ele><time>2026-03-28T15:19:36.182Z</time></trkpt><trkpt lat="43.5604178" lon="11.3241413"><ele>324.0</ele><time>2026-03-28T15:19:37.183Z</time></trkpt><trkpt lat="43.5606162" lon="11.3242545"><ele>322.0</ele><time>2026-03-28T15:19:38.184Z</time></trkpt><trkpt lat="43.5608182" lon="11.3243341"><ele>322.0</ele><time>2026-03-28T15:19:39.184Z</time></trkpt><trkpt lat="43.5610285" lon="11.3243829"><ele>322.0</ele><time>2026-03-28T15:19:40.183Z</time></trkpt><trkpt lat="43.5612458" lon="11.3243972"><ele>322.0</ele><time>2026-03-28T15:19:41.183Z</time></trkpt><trkpt lat="43.5614599" lon="11.3243699"><ele>320.0</ele><time>2026-03-28T15:19:42.183Z</time></trkpt><trkpt lat="43.5616681" lon="11.3243117"><ele>318.0</ele><time>2026-03-28T15:19:43.184Z</time></trkpt><trkpt lat="43.5618849" lon="11.3242401"><ele>316.0</ele><time>2026-03-28T15:19:44.183Z</time></trkpt><trkpt lat="43.5620867" lon="11.324125"><ele>317.0</ele><time>2026-03-28T15:19:45.183Z</time></trkpt><trkpt lat="43.5622739" lon="11.3239892"><ele>318.0</ele><time>2026-03-28T15:19:46.183Z</time></trkpt><trkpt lat="43.5624676" lon="11.3238782"><ele>319.0</ele><time>2026-03-28T15:19:47.184Z</time></trkpt><trkpt lat="43.5626862" lon="11.3238662"><ele>315.0</ele><time>2026-03-28T15:19:48.183Z</time></trkpt><trkpt lat="43.5628879" lon="11.3238039"><ele>311.0</ele><time>2026-03-28T15:19:49.183Z</time></trkpt><trkpt lat="43.563086" lon="11.3236791"><ele>307.0</ele><time>2026-03-28T15:19:50.183Z</time></trkpt><trkpt lat="43.563281" lon="11.3235584"><ele>307.0</ele><time>2026-03-28T15:19:51.183Z</time></trkpt><trkpt lat="43.5634487" lon="11.3234314"><ele>307.0</ele><time>2026-03-28T15:19:52.183Z</time></trkpt><trkpt lat="43.5636177" lon="11.3233247"><ele>307.0</ele><time>2026-03-28T15:19:53.183Z</time></trkpt><trkpt lat="43.5637871" lon="11.3232323"><ele>303.3333333333333</ele><time>2026-03-28T15:19:54.183Z</time></trkpt><trkpt lat="43.5639532" lon="11.3231766"><ele>299.6666666666667</ele><time>2026-03-28T15:19:55.183Z</time></trkpt><trkpt lat="43.564104" lon="11.3231478"><ele>296.0</ele><time>2026-03-28T15:19:56.184Z</time></trkpt><trkpt lat="43.5642431" lon="11.3231478"><ele>296.0</ele><time>2026-03-28T15:19:57.183Z</time></trkpt><trkpt lat="43.5643736" lon="11.3231178"><ele>296.0</ele><time>2026-03-28T15:19:58.183Z</time></trkpt><trkpt lat="43.5644961" lon="11.3230734"><ele>296.0</ele><time>2026-03-28T15:19:59.183Z</time></trkpt><trkpt lat="43.5646165" lon="11.322989"><ele>296.0</ele><time>2026-03-28T15:20:00.183Z</time></trkpt><trkpt lat="43.5647362" lon="11.3228792"><ele>295.6666666666667</ele><time>2026-03-28T15:20:01.183Z</time></trkpt><trkpt lat="43.5648646" lon="11.3227615"><ele>295.3333333333333</ele><time>2026-03-28T15:20:02.183Z</time></trkpt><trkpt lat="43.5650008" lon="11.3226508"><ele>295.0</ele><time>2026-03-28T15:20:03.183Z</time></trkpt><trkpt lat="43.5651679" lon="11.3225883"><ele>295.0</ele><time>2026-03-28T15:20:04.183Z</time></trkpt><trkpt lat="43.5653167" lon="11.322523"><ele>295.0</ele><time>2026-03-28T15:20:05.184Z</time></trkpt><trkpt lat="43.5654829" lon="11.3225672"><ele>295.0</ele><time>2026-03-28T15:20:06.184Z</time></trkpt><trkpt lat="43.5656247" lon="11.3225256"><ele>292.5</ele><time>2026-03-28T15:20:07.183Z</time></trkpt><trkpt lat="43.5657636" lon="11.3224912"><ele>290.0</ele><time>2026-03-28T15:20:08.183Z</time></trkpt><trkpt lat="43.5659039" lon="11.3224549"><ele>287.5</ele><time>2026-03-28T15:20:09.183Z</time></trkpt><trkpt lat="43.5660378" lon="11.3224196"><ele>285.0</ele><time>2026-03-28T15:20:10.183Z</time></trkpt><trkpt lat="43.5661636" lon="11.3223751"><ele>284.25</ele><time>2026-03-28T15:20:11.183Z</time></trkpt><trkpt lat="43.5662985" lon="11.3223563"><ele>283.5</ele><time>2026-03-28T15:20:12.183Z</time></trkpt><trkpt lat="43.56645" lon="11.3223647"><ele>282.75</ele><time>2026-03-28T15:20:13.184Z</time></trkpt><trkpt lat="43.5665984" lon="11.3223971"><ele>282.0</ele><time>2026-03-28T15:20:14.183Z</time></trkpt><trkpt lat="43.5667366" lon="11.3224401"><ele>282.0</ele><time>2026-03-28T15:20:15.184Z</time></trkpt><trkpt lat="43.5668737" lon="11.3224974"><ele>282.0</ele><time>2026-03-28T15:20:16.184Z</time></trkpt><trkpt lat="43.5669995" lon="11.3225714"><ele>282.0</ele><time>2026-03-28T15:20:17.184Z</time></trkpt><trkpt lat="43.5671175" lon="11.3226507"><ele>282.0</ele><time>2026-03-28T15:20:18.183Z</time></trkpt><trkpt lat="43.5672346" lon="11.3227311"><ele>283.0</ele><time>2026-03-28T15:20:19.183Z</time></trkpt><trkpt lat="43.5673737" lon="11.3227764"><ele>284.0</ele><time>2026-03-28T15:20:20.184Z</time></trkpt><trkpt lat="43.5675131" lon="11.322819"><ele>285.0</ele><time>2026-03-28T15:20:21.183Z</time></trkpt><trkpt lat="43.5676484" lon="11.3227664"><ele>286.0</ele><time>2026-03-28T15:20:22.183Z</time></trkpt><trkpt lat="43.5677773" lon="11.3227407"><ele>284.6</ele><time>2026-03-28T15:20:23.184Z</time></trkpt><trkpt lat="43.5678995" lon="11.3227172"><ele>283.20000000000005</ele><time>2026-03-28T15:20:24.183Z</time></trkpt><trkpt lat="43.5680132" lon="11.3226977"><ele>281.79999999999995</ele><time>2026-03-28T15:20:25.184Z</time></trkpt><trkpt lat="43.5681118" lon="11.322683"><ele>280.4</ele><time>2026-03-28T15:20:26.184Z</time></trkpt><trkpt lat="43.5682014" lon="11.3226636"><ele>279.0</ele><time>2026-03-28T15:20:27.184Z</time></trkpt><trkpt lat="43.5682851" lon="11.3226403"><ele>279.0</ele><time>2026-03-28T15:20:28.182Z</time></trkpt><trkpt lat="43.5683734" lon="11.3226144"><ele>279.0</ele><time>2026-03-28T15:20:29.183Z</time></trkpt><trkpt lat="43.5684651" lon="11.3225872"><ele>279.0</ele><time>2026-03-28T15:20:30.183Z</time></trkpt><trkpt lat="43.5685603" lon="11.3225586"><ele>279.0</ele><time>2026-03-28T15:20:31.184Z</time></trkpt><trkpt lat="43.5686467" lon="11.3225118"><ele>279.0</ele><time>2026-03-28T15:20:32.183Z</time></trkpt><trkpt lat="43.5687181" lon="11.3224352"><ele>275.0</ele><time>2026-03-28T15:20:33.184Z</time></trkpt><trkpt lat="43.5688066" lon="11.322317"><ele>271.0</ele><time>2026-03-28T15:20:34.183Z</time></trkpt><trkpt lat="43.5688853" lon="11.3221842"><ele>267.0</ele><time>2026-03-28T15:20:35.183Z</time></trkpt><trkpt lat="43.5689637" lon="11.3220688"><ele>263.0</ele><time>2026-03-28T15:20:36.183Z</time></trkpt><trkpt lat="43.5690237" lon="11.321961"><ele>263.0</ele><time>2026-03-28T15:20:37.184Z</time></trkpt><trkpt lat="43.5690826" lon="11.3218463"><ele>263.0</ele><time>2026-03-28T15:20:38.184Z</time></trkpt><trkpt lat="43.5691294" lon="11.3217411"><ele>263.0</ele><time>2026-03-28T15:20:39.183Z</time></trkpt><trkpt lat="43.5691678" lon="11.321615"><ele>263.0</ele><time>2026-03-28T15:20:40.183Z</time></trkpt><trkpt lat="43.5692004" lon="11.3214787"><ele>263.0</ele><time>2026-03-28T15:20:41.184Z</time></trkpt><trkpt lat="43.5692181" lon="11.3213384"><ele>263.6666666666667</ele><time>2026-03-28T15:20:42.183Z</time></trkpt><trkpt lat="43.5692333" lon="11.3212189"><ele>264.33333333333337</ele><time>2026-03-28T15:20:43.183Z</time></trkpt><trkpt lat="43.5692465" lon="11.3210998"><ele>265.0</ele><time>2026-03-28T15:20:44.183Z</time></trkpt><trkpt lat="43.5692651" lon="11.3209738"><ele>265.6666666666667</ele><time>2026-03-28T15:20:45.183Z</time></trkpt><trkpt lat="43.5692882" lon="11.3208533"><ele>266.3333333333333</ele><time>2026-03-28T15:20:46.183Z</time></trkpt><trkpt lat="43.5693285" lon="11.3207513"><ele>267.0</ele><time>2026-03-28T15:20:47.183Z</time></trkpt><trkpt lat="43.5693904" lon="11.3206673"><ele>267.0</ele><time>2026-03-28T15:20:48.183Z</time></trkpt><trkpt lat="43.5694781" lon="11.3206002"><ele>267.0</ele><time>2026-03-28T15:20:49.183Z</time></trkpt><trkpt lat="43.5695877" lon="11.3205506"><ele>267.0</ele><time>2026-03-28T15:20:50.184Z</time></trkpt><trkpt lat="43.5696993" lon="11.3205194"><ele>267.0</ele><time>2026-03-28T15:20:51.183Z</time></trkpt><trkpt lat="43.5698201" lon="11.3204894"><ele>265.75</ele><time>2026-03-28T15:20:52.183Z</time></trkpt><trkpt lat="43.569956" lon="11.320454"><ele>264.5</ele><time>2026-03-28T15:20:53.184Z</time></trkpt><trkpt lat="43.5700944" lon="11.3204223"><ele>263.25</ele><time>2026-03-28T15:20:54.183Z</time></trkpt><trkpt lat="43.5702512" lon="11.3203845"><ele>262.0</ele><time>2026-03-28T15:20:55.183Z</time></trkpt><trkpt lat="43.5704" lon="11.3203425"><ele>261.0</ele><time>2026-03-28T15:20:56.183Z</time></trkpt><trkpt lat="43.5705439" lon="11.3202938"><ele>260.0</ele><time>2026-03-28T15:20:57.183Z</time></trkpt><trkpt lat="43.5706933" lon="11.320234"><ele>259.0</ele><time>2026-03-28T15:20:58.184Z</time></trkpt><trkpt lat="43.5708482" lon="11.320158"><ele>259.0</ele><time>2026-03-28T15:20:59.183Z</time></trkpt><trkpt lat="43.5710099" lon="11.3200764"><ele>259.0</ele><time>2026-03-28T15:21:00.184Z</time></trkpt><trkpt lat="43.5711691" lon="11.3199931"><ele>259.0</ele><time>2026-03-28T15:21:01.183Z</time></trkpt><trkpt lat="43.571317" lon="11.319917"><ele>261.66666666666663</ele><time>2026-03-28T15:21:02.184Z</time></trkpt><trkpt lat="43.5714672" lon="11.3198404"><ele>264.3333333333333</ele><time>2026-03-28T15:21:03.183Z</time></trkpt><trkpt lat="43.5716079" lon="11.3197703"><ele>267.0</ele><time>2026-03-28T15:21:04.183Z</time></trkpt><trkpt lat="43.5717506" lon="11.3196995"><ele>267.0</ele><time>2026-03-28T15:21:05.184Z</time></trkpt><trkpt lat="43.5719004" lon="11.3196195"><ele>267.0</ele><time>2026-03-28T15:21:06.183Z</time></trkpt><trkpt lat="43.5720639" lon="11.3195316"><ele>267.0</ele><time>2026-03-28T15:21:07.183Z</time></trkpt><trkpt lat="43.5722364" lon="11.3194436"><ele>264.0</ele><time>2026-03-28T15:21:08.183Z</time></trkpt><trkpt lat="43.5724209" lon="11.3193507"><ele>261.0</ele><time>2026-03-28T15:21:09.184Z</time></trkpt><trkpt lat="43.5726111" lon="11.3192524"><ele>258.0</ele><time>2026-03-28T15:21:10.183Z</time></trkpt><trkpt lat="43.5728114" lon="11.3191589"><ele>253.5</ele><time>2026-03-28T15:21:11.183Z</time></trkpt><trkpt lat="43.5730226" lon="11.3190683"><ele>249.0</ele><time>2026-03-28T15:21:12.184Z</time></trkpt><trkpt lat="43.573243" lon="11.3189688"><ele>253.5</ele><time>2026-03-28T15:21:13.183Z</time></trkpt><trkpt lat="43.5734685" lon="11.3188592"><ele>258.0</ele><time>2026-03-28T15:21:14.183Z</time></trkpt><trkpt lat="43.5737009" lon="11.3187414"><ele>258.0</ele><time>2026-03-28T15:21:15.183Z</time></trkpt><trkpt lat="43.5739396" lon="11.3186204"><ele>258.0</ele><time>2026-03-28T15:21:16.183Z</time></trkpt><trkpt lat="43.5741709" lon="11.3185061"><ele>258.0</ele><time>2026-03-28T15:21:17.183Z</time></trkpt><trkpt lat="43.5743879" lon="11.318398"><ele>258.0</ele><time>2026-03-28T15:21:18.183Z</time></trkpt><trkpt lat="43.5745817" lon="11.3183005"><ele>258.0</ele><time>2026-03-28T15:21:19.183Z</time></trkpt><trkpt lat="43.5747653" lon="11.3182113"><ele>258.0</ele><time>2026-03-28T15:21:20.183Z</time></trkpt><trkpt lat="43.5749274" lon="11.3181283"><ele>258.0</ele><time>2026-03-28T15:21:21.183Z</time></trkpt><trkpt lat="43.5750745" lon="11.3180525"><ele>258.0</ele><time>2026-03-28T15:21:22.183Z</time></trkpt><trkpt lat="43.575216" lon="11.3179876"><ele>258.0</ele><time>2026-03-28T15:21:23.183Z</time></trkpt><trkpt lat="43.5753366" lon="11.3179271"><ele>258.0</ele><time>2026-03-28T15:21:24.183Z</time></trkpt><trkpt lat="43.5754517" lon="11.3178715"><ele>258.0</ele><time>2026-03-28T15:21:25.184Z</time></trkpt><trkpt lat="43.5755591" lon="11.3178174"><ele>258.0</ele><time>2026-03-28T15:21:26.184Z</time></trkpt><trkpt lat="43.5756762" lon="11.3177634"><ele>254.5</ele><time>2026-03-28T15:21:27.183Z</time></trkpt><trkpt lat="43.5757826" lon="11.3177091"><ele>251.0</ele><time>2026-03-28T15:21:28.184Z</time></trkpt><trkpt lat="43.5758977" lon="11.3176499"><ele>247.5</ele><time>2026-03-28T15:21:29.183Z</time></trkpt><trkpt lat="43.5760055" lon="11.317593"><ele>244.0</ele><time>2026-03-28T15:21:30.184Z</time></trkpt><trkpt lat="43.5761158" lon="11.3175331"><ele>243.0</ele><time>2026-03-28T15:21:31.183Z</time></trkpt><trkpt lat="43.5762251" lon="11.3174806"><ele>242.0</ele><time>2026-03-28T15:21:32.184Z</time></trkpt><trkpt lat="43.5763321" lon="11.3174247"><ele>241.0</ele><time>2026-03-28T15:21:33.183Z</time></trkpt><trkpt lat="43.5764434" lon="11.3173651"><ele>240.0</ele><time>2026-03-28T15:21:34.183Z</time></trkpt><trkpt lat="43.5765697" lon="11.317298"><ele>241.0</ele><time>2026-03-28T15:21:35.183Z</time></trkpt><trkpt lat="43.5767051" lon="11.3172318"><ele>242.0</ele><time>2026-03-28T15:21:36.184Z</time></trkpt><trkpt lat="43.576832" lon="11.3171674"><ele>243.0</ele><time>2026-03-28T15:21:37.184Z</time></trkpt><trkpt lat="43.5769635" lon="11.3170968"><ele>244.0</ele><time>2026-03-28T15:21:38.183Z</time></trkpt><trkpt lat="43.577098" lon="11.3170343"><ele>244.0</ele><time>2026-03-28T15:21:39.183Z</time></trkpt><trkpt lat="43.5772261" lon="11.3169823"><ele>244.0</ele><time>2026-03-28T15:21:40.183Z</time></trkpt><trkpt lat="43.5773508" lon="11.3169398"><ele>244.0</ele><time>2026-03-28T15:21:41.184Z</time></trkpt><trkpt lat="43.577471" lon="11.3168966"><ele>244.0</ele><time>2026-03-28T15:21:42.184Z</time></trkpt><trkpt lat="43.5775763" lon="11.3168603"><ele>244.0</ele><time>2026-03-28T15:21:43.184Z</time></trkpt><trkpt lat="43.5776694" lon="11.3168295"><ele>243.99999999999997</ele><time>2026-03-28T15:21:44.183Z</time></trkpt><trkpt lat="43.5777684" lon="11.3167969"><ele>243.99999999999997</ele><time>2026-03-28T15:21:45.184Z</time></trkpt><trkpt lat="43.5778725" lon="11.3167582"><ele>244.0</ele><time>2026-03-28T15:21:46.183Z</time></trkpt><trkpt lat="43.5779824" lon="11.3167197"><ele>244.0</ele><time>2026-03-28T15:21:47.184Z</time></trkpt><trkpt lat="43.5781031" lon="11.3166797"><ele>243.0</ele><time>2026-03-28T15:21:48.184Z</time></trkpt><trkpt lat="43.5782246" lon="11.3166439"><ele>242.0</ele><time>2026-03-28T15:21:49.183Z</time></trkpt><trkpt lat="43.578344" lon="11.3166166"><ele>241.0</ele><time>2026-03-28T15:21:50.183Z</time></trkpt><trkpt lat="43.5784735" lon="11.3165945"><ele>240.0</ele><time>2026-03-28T15:21:51.183Z</time></trkpt><trkpt lat="43.5786084" lon="11.3165915"><ele>239.75</ele><time>2026-03-28T15:21:52.183Z</time></trkpt><trkpt lat="43.578748" lon="11.3166181"><ele>239.5</ele><time>2026-03-28T15:21:53.183Z</time></trkpt><trkpt lat="43.5788908" lon="11.3166661"><ele>239.25</ele><time>2026-03-28T15:21:54.183Z</time></trkpt><trkpt lat="43.5790384" lon="11.3167196"><ele>239.0</ele><time>2026-03-28T15:21:55.184Z</time></trkpt><trkpt lat="43.5791805" lon="11.3167666"><ele>239.0</ele><time>2026-03-28T15:21:56.184Z</time></trkpt><trkpt lat="43.5793149" lon="11.3168106"><ele>239.0</ele><time>2026-03-28T15:21:57.183Z</time></trkpt><trkpt lat="43.5794488" lon="11.3168574"><ele>239.0</ele><time>2026-03-28T15:21:58.183Z</time></trkpt><trkpt lat="43.5795828" lon="11.3169104"><ele>239.0</ele><time>2026-03-28T15:21:59.183Z</time></trkpt><trkpt lat="43.5797056" lon="11.3169565"><ele>239.79999999999998</ele><time>2026-03-28T15:22:00.184Z</time></trkpt><trkpt lat="43.5798192" lon="11.316996"><ele>240.59999999999997</ele><time>2026-03-28T15:22:01.183Z</time></trkpt><trkpt lat="43.5799215" lon="11.3170296"><ele>241.4</ele><time>2026-03-28T15:22:02.183Z</time></trkpt><trkpt lat="43.5800139" lon="11.3170678"><ele>242.2</ele><time>2026-03-28T15:22:03.184Z</time></trkpt><trkpt lat="43.5800893" lon="11.3171237"><ele>243.0</ele><time>2026-03-28T15:22:04.183Z</time></trkpt><trkpt lat="43.5801695" lon="11.3172181"><ele>241.5</ele><time>2026-03-28T15:22:05.184Z</time></trkpt><trkpt lat="43.5802568" lon="11.3173248"><ele>240.0</ele><time>2026-03-28T15:22:06.184Z</time></trkpt><trkpt lat="43.580358" lon="11.3174245"><ele>238.5</ele><time>2026-03-28T15:22:07.183Z</time></trkpt><trkpt lat="43.5804727" lon="11.3175236"><ele>237.0</ele><time>2026-03-28T15:22:08.184Z</time></trkpt><trkpt lat="43.5805934" lon="11.3176236"><ele>237.0</ele><time>2026-03-28T15:22:09.184Z</time></trkpt><trkpt lat="43.5807121" lon="11.3177205"><ele>237.0</ele><time>2026-03-28T15:22:10.183Z</time></trkpt><trkpt lat="43.5808236" lon="11.3178104"><ele>237.0</ele><time>2026-03-28T15:22:11.184Z</time></trkpt><trkpt lat="43.5809275" lon="11.3178937"><ele>237.0</ele><time>2026-03-28T15:22:12.184Z</time></trkpt><trkpt lat="43.5810556" lon="11.3179338"><ele>237.5</ele><time>2026-03-28T15:22:13.183Z</time></trkpt><trkpt lat="43.581193" lon="11.3179269"><ele>238.0</ele><time>2026-03-28T15:22:14.183Z</time></trkpt><trkpt lat="43.5813435" lon="11.3179202"><ele>238.5</ele><time>2026-03-28T15:22:15.184Z</time></trkpt><trkpt lat="43.5815015" lon="11.3179118"><ele>239.0</ele><time>2026-03-28T15:22:16.184Z</time></trkpt><trkpt lat="43.5816416" lon="11.317914"><ele>239.0</ele><time>2026-03-28T15:22:17.184Z</time></trkpt><trkpt lat="43.5817731" lon="11.3179336"><ele>239.0</ele><time>2026-03-28T15:22:18.184Z</time></trkpt><trkpt lat="43.5819014" lon="11.3179667"><ele>239.0</ele><time>2026-03-28T15:22:19.184Z</time></trkpt><trkpt lat="43.5820277" lon="11.3179953"><ele>239.0</ele><time>2026-03-28T15:22:20.183Z</time></trkpt><trkpt lat="43.5821438" lon="11.3179989"><ele>238.39999999999998</ele><time>2026-03-28T15:22:21.183Z</time></trkpt><trkpt lat="43.5822516" lon="11.3179833"><ele>237.79999999999998</ele><time>2026-03-28T15:22:22.183Z</time></trkpt><trkpt lat="43.5823444" lon="11.3179548"><ele>237.20000000000002</ele><time>2026-03-28T15:22:23.184Z</time></trkpt><trkpt lat="43.5824261" lon="11.3179153"><ele>236.60000000000002</ele><time>2026-03-28T15:22:24.183Z</time></trkpt><trkpt lat="43.5825069" lon="11.3178835"><ele>236.0</ele><time>2026-03-28T15:22:25.184Z</time></trkpt><trkpt lat="43.5825896" lon="11.3178456"><ele>236.0</ele><time>2026-03-28T15:22:27.183Z</time></trkpt><trkpt lat="43.5826568" lon="11.3178235"><ele>236.00000000000003</ele><time>2026-03-28T15:22:29.183Z</time></trkpt><trkpt lat="43.5827398" lon="11.3177963"><ele>236.00000000000003</ele><time>2026-03-28T15:22:31.184Z</time></trkpt><trkpt lat="43.5828018" lon="11.317747"><ele>236.0</ele><time>2026-03-28T15:22:46.183Z</time></trkpt><trkpt lat="43.5829314" lon="11.3177157"><ele>236.0</ele><time>2026-03-28T15:22:48.184Z</time></trkpt><trkpt lat="43.5830203" lon="11.3176771"><ele>235.5</ele><time>2026-03-28T15:22:49.183Z</time></trkpt><trkpt lat="43.5831119" lon="11.3176186"><ele>235.0</ele><time>2026-03-28T15:22:50.182Z</time></trkpt><trkpt lat="43.5832027" lon="11.317532"><ele>234.5</ele><time>2026-03-28T15:22:51.183Z</time></trkpt><trkpt lat="43.5833029" lon="11.3174458"><ele>234.0</ele><time>2026-03-28T15:22:52.184Z</time></trkpt><trkpt lat="43.5834084" lon="11.3173236"><ele>234.0</ele><time>2026-03-28T15:22:53.184Z</time></trkpt><trkpt lat="43.5834997" lon="11.3171973"><ele>234.0</ele><time>2026-03-28T15:22:54.183Z</time></trkpt><trkpt lat="43.5835813" lon="11.3170425"><ele>234.0</ele><time>2026-03-28T15:22:55.184Z</time></trkpt><trkpt lat="43.5836501" lon="11.3168984"><ele>234.0</ele><time>2026-03-28T15:22:56.184Z</time></trkpt><trkpt lat="43.5837156" lon="11.3167495"><ele>233.25</ele><time>2026-03-28T15:22:57.184Z</time></trkpt><trkpt lat="43.5837878" lon="11.3165942"><ele>232.5</ele><time>2026-03-28T15:22:58.183Z</time></trkpt><trkpt lat="43.5838609" lon="11.3164343"><ele>231.75</ele><time>2026-03-28T15:22:59.183Z</time></trkpt><trkpt lat="43.5839352" lon="11.316265"><ele>231.0</ele><time>2026-03-28T15:23:00.182Z</time></trkpt><trkpt lat="43.584013" lon="11.3160943"><ele>231.0</ele><time>2026-03-28T15:23:01.184Z</time></trkpt><trkpt lat="43.5840966" lon="11.3159312"><ele>231.0</ele><time>2026-03-28T15:23:02.184Z</time></trkpt><trkpt lat="43.584192" lon="11.3157921"><ele>231.0</ele><time>2026-03-28T15:23:03.184Z</time></trkpt><trkpt lat="43.584308" lon="11.3156908"><ele>231.0</ele><time>2026-03-28T15:23:04.184Z</time></trkpt><trkpt lat="43.5844348" lon="11.3156216"><ele>230.75</ele><time>2026-03-28T15:23:05.184Z</time></trkpt><trkpt lat="43.5845616" lon="11.3155674"><ele>230.5</ele><time>2026-03-28T15:23:06.183Z</time></trkpt><trkpt lat="43.5846806" lon="11.3155159"><ele>230.25</ele><time>2026-03-28T15:23:07.183Z</time></trkpt><trkpt lat="43.5847978" lon="11.3154656"><ele>230.0</ele><time>2026-03-28T15:23:08.184Z</time></trkpt><trkpt lat="43.5849097" lon="11.315428"><ele>230.0</ele><time>2026-03-28T15:23:09.182Z</time></trkpt><trkpt lat="43.5850169" lon="11.3154025"><ele>230.0</ele><time>2026-03-28T15:23:10.183Z</time></trkpt><trkpt lat="43.5851185" lon="11.315385"><ele>230.0</ele><time>2026-03-28T15:23:11.183Z</time></trkpt><trkpt lat="43.5852212" lon="11.3153651"><ele>230.0</ele><time>2026-03-28T15:23:12.183Z</time></trkpt><trkpt lat="43.5853261" lon="11.3153446"><ele>230.0</ele><time>2026-03-28T15:23:13.183Z</time></trkpt><trkpt lat="43.5854235" lon="11.3153223"><ele>229.66666666666669</ele><time>2026-03-28T15:23:14.183Z</time></trkpt><trkpt lat="43.5855204" lon="11.3152998"><ele>229.33333333333334</ele><time>2026-03-28T15:23:15.184Z</time></trkpt><trkpt lat="43.5856078" lon="11.315277"><ele>229.0</ele><time>2026-03-28T15:23:16.183Z</time></trkpt><trkpt lat="43.5856953" lon="11.3152602"><ele>228.66666666666669</ele><time>2026-03-28T15:23:17.184Z</time></trkpt><trkpt lat="43.5857791" lon="11.3152427"><ele>228.33333333333334</ele><time>2026-03-28T15:23:18.183Z</time></trkpt><trkpt lat="43.5858446" lon="11.3152299"><ele>228.0</ele><time>2026-03-28T15:23:19.183Z</time></trkpt><trkpt lat="43.585934" lon="11.3152197"><ele>228.0</ele><time>2026-03-28T15:23:21.183Z</time></trkpt><trkpt lat="43.5859931" lon="11.3151801"><ele>228.0</ele><time>2026-03-28T15:23:23.183Z</time></trkpt><trkpt lat="43.5860216" lon="11.3150947"><ele>228.0</ele><time>2026-03-28T15:23:26.183Z</time></trkpt><trkpt lat="43.5860891" lon="11.3150849"><ele>228.0</ele><time>2026-03-28T15:23:34.183Z</time></trkpt></trkseg></trk></gpx>